<?xml version="1.0" encoding="UTF-8" standalone="no" ?>
<gpx xmlns="http://www.topografix.com/GPX/1/1" xmlns:xsi="http://www.w3.org/2001/XMLSchema-instance" xsi:schemaLocation="http://www.topografix.com/GPX/1/1 http://www.topografix.com/GPX/1/1/gpx.xsd" version="1.1" creator="VisuGPX - https://www.visugpx.com">
  <metadata>
    <name>Un petit tour dans les Ardennes françaises avec José de Fumay à St Nicolas </name>
  </metadata>
  <trk>
    <name><![CDATA[Un petit tour dans les Ardennes françaises avec José de Fumay à St Nicolas _1]]></name>
    <trkseg>
      <trkpt lat="49.92181" lon="4.51702">
        <ele>390.2</ele>
        <time>2024-04-06T09:19:08Z</time>
      </trkpt>
      <trkpt lat="49.92183" lon="4.517">
        <ele>383.8</ele>
        <time>2024-04-06T09:19:09Z</time>
      </trkpt>
      <trkpt lat="49.92186" lon="4.51698">
        <ele>383.8</ele>
        <time>2024-04-06T09:19:10Z</time>
      </trkpt>
      <trkpt lat="49.92189" lon="4.51695">
        <ele>383.8</ele>
        <time>2024-04-06T09:19:11Z</time>
      </trkpt>
      <trkpt lat="49.92192" lon="4.51692">
        <ele>383.8</ele>
        <time>2024-04-06T09:19:12Z</time>
      </trkpt>
      <trkpt lat="49.92196" lon="4.51689">
        <ele>383.8</ele>
        <time>2024-04-06T09:19:13Z</time>
      </trkpt>
      <trkpt lat="49.92199" lon="4.51685">
        <ele>383.6</ele>
        <time>2024-04-06T09:19:14Z</time>
      </trkpt>
      <trkpt lat="49.92202" lon="4.51682">
        <ele>383</ele>
        <time>2024-04-06T09:19:15Z</time>
      </trkpt>
      <trkpt lat="49.92205" lon="4.51679">
        <ele>384</ele>
        <time>2024-04-06T09:19:16Z</time>
      </trkpt>
      <trkpt lat="49.92208" lon="4.51676">
        <ele>384.2</ele>
        <time>2024-04-06T09:19:17Z</time>
      </trkpt>
      <trkpt lat="49.92212" lon="4.51675">
        <ele>384.6</ele>
        <time>2024-04-06T09:19:18Z</time>
      </trkpt>
      <trkpt lat="49.92215" lon="4.51675">
        <ele>384.4</ele>
        <time>2024-04-06T09:19:19Z</time>
      </trkpt>
      <trkpt lat="49.92219" lon="4.51677">
        <ele>384.4</ele>
        <time>2024-04-06T09:19:20Z</time>
      </trkpt>
      <trkpt lat="49.92222" lon="4.51681">
        <ele>384.4</ele>
        <time>2024-04-06T09:19:21Z</time>
      </trkpt>
      <trkpt lat="49.92224" lon="4.51686">
        <ele>384.2</ele>
        <time>2024-04-06T09:19:22Z</time>
      </trkpt>
      <trkpt lat="49.92226" lon="4.51691">
        <ele>384</ele>
        <time>2024-04-06T09:19:23Z</time>
      </trkpt>
      <trkpt lat="49.92228" lon="4.51697">
        <ele>384</ele>
        <time>2024-04-06T09:19:24Z</time>
      </trkpt>
      <trkpt lat="49.92231" lon="4.51704">
        <ele>384.2</ele>
        <time>2024-04-06T09:19:25Z</time>
      </trkpt>
      <trkpt lat="49.92233" lon="4.5171">
        <ele>384.2</ele>
        <time>2024-04-06T09:19:26Z</time>
      </trkpt>
      <trkpt lat="49.92236" lon="4.51716">
        <ele>384.2</ele>
        <time>2024-04-06T09:19:27Z</time>
      </trkpt>
      <trkpt lat="49.92238" lon="4.51723">
        <ele>384.2</ele>
        <time>2024-04-06T09:19:28Z</time>
      </trkpt>
      <trkpt lat="49.92241" lon="4.51729">
        <ele>384.2</ele>
        <time>2024-04-06T09:19:29Z</time>
      </trkpt>
      <trkpt lat="49.92244" lon="4.51735">
        <ele>384.2</ele>
        <time>2024-04-06T09:19:30Z</time>
      </trkpt>
      <trkpt lat="49.92246" lon="4.51742">
        <ele>384.2</ele>
        <time>2024-04-06T09:19:31Z</time>
      </trkpt>
      <trkpt lat="49.92249" lon="4.51748">
        <ele>384.2</ele>
        <time>2024-04-06T09:19:32Z</time>
      </trkpt>
      <trkpt lat="49.92251" lon="4.51755">
        <ele>384.2</ele>
        <time>2024-04-06T09:19:33Z</time>
      </trkpt>
      <trkpt lat="49.92253" lon="4.51762">
        <ele>384.2</ele>
        <time>2024-04-06T09:19:34Z</time>
      </trkpt>
      <trkpt lat="49.92254" lon="4.51769">
        <ele>384.2</ele>
        <time>2024-04-06T09:19:35Z</time>
      </trkpt>
      <trkpt lat="49.92253" lon="4.51776">
        <ele>384.2</ele>
        <time>2024-04-06T09:19:36Z</time>
      </trkpt>
      <trkpt lat="49.9225" lon="4.51781">
        <ele>384.2</ele>
        <time>2024-04-06T09:19:37Z</time>
      </trkpt>
      <trkpt lat="49.92246" lon="4.51786">
        <ele>384.2</ele>
        <time>2024-04-06T09:19:38Z</time>
      </trkpt>
      <trkpt lat="49.92241" lon="4.51791">
        <ele>384.2</ele>
        <time>2024-04-06T09:19:39Z</time>
      </trkpt>
      <trkpt lat="49.92237" lon="4.51795">
        <ele>384.2</ele>
        <time>2024-04-06T09:19:40Z</time>
      </trkpt>
      <trkpt lat="49.92233" lon="4.518">
        <ele>384.2</ele>
        <time>2024-04-06T09:19:41Z</time>
      </trkpt>
      <trkpt lat="49.92229" lon="4.51805">
        <ele>384</ele>
        <time>2024-04-06T09:19:42Z</time>
      </trkpt>
      <trkpt lat="49.92225" lon="4.5181">
        <ele>384</ele>
        <time>2024-04-06T09:19:43Z</time>
      </trkpt>
      <trkpt lat="49.9222" lon="4.51815">
        <ele>384</ele>
        <time>2024-04-06T09:19:44Z</time>
      </trkpt>
      <trkpt lat="49.92216" lon="4.51819">
        <ele>384</ele>
        <time>2024-04-06T09:19:45Z</time>
      </trkpt>
      <trkpt lat="49.92212" lon="4.51824">
        <ele>384</ele>
        <time>2024-04-06T09:19:46Z</time>
      </trkpt>
      <trkpt lat="49.92207" lon="4.51828">
        <ele>384</ele>
        <time>2024-04-06T09:19:47Z</time>
      </trkpt>
      <trkpt lat="49.92203" lon="4.51833">
        <ele>383.8</ele>
        <time>2024-04-06T09:19:48Z</time>
      </trkpt>
      <trkpt lat="49.92199" lon="4.51838">
        <ele>384</ele>
        <time>2024-04-06T09:19:49Z</time>
      </trkpt>
      <trkpt lat="49.92195" lon="4.51843">
        <ele>383.8</ele>
        <time>2024-04-06T09:19:50Z</time>
      </trkpt>
      <trkpt lat="49.92191" lon="4.51847">
        <ele>383.8</ele>
        <time>2024-04-06T09:19:51Z</time>
      </trkpt>
      <trkpt lat="49.92186" lon="4.51852">
        <ele>383.8</ele>
        <time>2024-04-06T09:19:52Z</time>
      </trkpt>
      <trkpt lat="49.92182" lon="4.51856">
        <ele>383.6</ele>
        <time>2024-04-06T09:19:53Z</time>
      </trkpt>
      <trkpt lat="49.92178" lon="4.51861">
        <ele>383.6</ele>
        <time>2024-04-06T09:19:54Z</time>
      </trkpt>
      <trkpt lat="49.92174" lon="4.51865">
        <ele>383.6</ele>
        <time>2024-04-06T09:19:55Z</time>
      </trkpt>
      <trkpt lat="49.92171" lon="4.5187">
        <ele>383.4</ele>
        <time>2024-04-06T09:19:56Z</time>
      </trkpt>
      <trkpt lat="49.92167" lon="4.51875">
        <ele>383.2</ele>
        <time>2024-04-06T09:19:57Z</time>
      </trkpt>
      <trkpt lat="49.92163" lon="4.51879">
        <ele>383.4</ele>
        <time>2024-04-06T09:19:58Z</time>
      </trkpt>
      <trkpt lat="49.92159" lon="4.51884">
        <ele>383.4</ele>
        <time>2024-04-06T09:19:59Z</time>
      </trkpt>
      <trkpt lat="49.92155" lon="4.51888">
        <ele>383.2</ele>
        <time>2024-04-06T09:20:00Z</time>
      </trkpt>
      <trkpt lat="49.92152" lon="4.51893">
        <ele>383.2</ele>
        <time>2024-04-06T09:20:01Z</time>
      </trkpt>
      <trkpt lat="49.92148" lon="4.51897">
        <ele>383.2</ele>
        <time>2024-04-06T09:20:02Z</time>
      </trkpt>
      <trkpt lat="49.92144" lon="4.51902">
        <ele>383.4</ele>
        <time>2024-04-06T09:20:03Z</time>
      </trkpt>
      <trkpt lat="49.9214" lon="4.51906">
        <ele>383.4</ele>
        <time>2024-04-06T09:20:04Z</time>
      </trkpt>
      <trkpt lat="49.92137" lon="4.5191">
        <ele>383.2</ele>
        <time>2024-04-06T09:20:05Z</time>
      </trkpt>
      <trkpt lat="49.92133" lon="4.51915">
        <ele>383.4</ele>
        <time>2024-04-06T09:20:06Z</time>
      </trkpt>
      <trkpt lat="49.92129" lon="4.5192">
        <ele>383.2</ele>
        <time>2024-04-06T09:20:07Z</time>
      </trkpt>
      <trkpt lat="49.92125" lon="4.51924">
        <ele>383.2</ele>
        <time>2024-04-06T09:20:08Z</time>
      </trkpt>
      <trkpt lat="49.9212" lon="4.51929">
        <ele>383.2</ele>
        <time>2024-04-06T09:20:09Z</time>
      </trkpt>
      <trkpt lat="49.92116" lon="4.51934">
        <ele>383.4</ele>
        <time>2024-04-06T09:20:10Z</time>
      </trkpt>
      <trkpt lat="49.92112" lon="4.51939">
        <ele>383.2</ele>
        <time>2024-04-06T09:20:11Z</time>
      </trkpt>
      <trkpt lat="49.92107" lon="4.51944">
        <ele>383.4</ele>
        <time>2024-04-06T09:20:12Z</time>
      </trkpt>
      <trkpt lat="49.92103" lon="4.51949">
        <ele>383.6</ele>
        <time>2024-04-06T09:20:13Z</time>
      </trkpt>
      <trkpt lat="49.92098" lon="4.51954">
        <ele>383.6</ele>
        <time>2024-04-06T09:20:14Z</time>
      </trkpt>
      <trkpt lat="49.92094" lon="4.51959">
        <ele>383.6</ele>
        <time>2024-04-06T09:20:15Z</time>
      </trkpt>
      <trkpt lat="49.92089" lon="4.51964">
        <ele>383.6</ele>
        <time>2024-04-06T09:20:16Z</time>
      </trkpt>
      <trkpt lat="49.92085" lon="4.51969">
        <ele>383.6</ele>
        <time>2024-04-06T09:20:17Z</time>
      </trkpt>
      <trkpt lat="49.9208" lon="4.51974">
        <ele>383.6</ele>
        <time>2024-04-06T09:20:18Z</time>
      </trkpt>
      <trkpt lat="49.92076" lon="4.51979">
        <ele>383.8</ele>
        <time>2024-04-06T09:20:19Z</time>
      </trkpt>
      <trkpt lat="49.92071" lon="4.51984">
        <ele>383.8</ele>
        <time>2024-04-06T09:20:20Z</time>
      </trkpt>
      <trkpt lat="49.92067" lon="4.51989">
        <ele>383.6</ele>
        <time>2024-04-06T09:20:21Z</time>
      </trkpt>
      <trkpt lat="49.92062" lon="4.51994">
        <ele>383.6</ele>
        <time>2024-04-06T09:20:22Z</time>
      </trkpt>
      <trkpt lat="49.92058" lon="4.51999">
        <ele>383.6</ele>
        <time>2024-04-06T09:20:23Z</time>
      </trkpt>
      <trkpt lat="49.92053" lon="4.52003">
        <ele>383.6</ele>
        <time>2024-04-06T09:20:24Z</time>
      </trkpt>
      <trkpt lat="49.92049" lon="4.52007">
        <ele>383.6</ele>
        <time>2024-04-06T09:20:25Z</time>
      </trkpt>
      <trkpt lat="49.92045" lon="4.52012">
        <ele>383.6</ele>
        <time>2024-04-06T09:20:26Z</time>
      </trkpt>
      <trkpt lat="49.92042" lon="4.52018">
        <ele>383.6</ele>
        <time>2024-04-06T09:20:27Z</time>
      </trkpt>
      <trkpt lat="49.92041" lon="4.52025">
        <ele>383.6</ele>
        <time>2024-04-06T09:20:28Z</time>
      </trkpt>
      <trkpt lat="49.92043" lon="4.52033">
        <ele>383.6</ele>
        <time>2024-04-06T09:20:29Z</time>
      </trkpt>
      <trkpt lat="49.92045" lon="4.52041">
        <ele>383.6</ele>
        <time>2024-04-06T09:20:30Z</time>
      </trkpt>
      <trkpt lat="49.92049" lon="4.52048">
        <ele>383.4</ele>
        <time>2024-04-06T09:20:31Z</time>
      </trkpt>
      <trkpt lat="49.92053" lon="4.52055">
        <ele>383.6</ele>
        <time>2024-04-06T09:20:32Z</time>
      </trkpt>
      <trkpt lat="49.92056" lon="4.52063">
        <ele>383.6</ele>
        <time>2024-04-06T09:20:33Z</time>
      </trkpt>
      <trkpt lat="49.9206" lon="4.52071">
        <ele>383.6</ele>
        <time>2024-04-06T09:20:34Z</time>
      </trkpt>
      <trkpt lat="49.92063" lon="4.5208">
        <ele>383.6</ele>
        <time>2024-04-06T09:20:35Z</time>
      </trkpt>
      <trkpt lat="49.92066" lon="4.52089">
        <ele>383.8</ele>
        <time>2024-04-06T09:20:36Z</time>
      </trkpt>
      <trkpt lat="49.92069" lon="4.52098">
        <ele>383.6</ele>
        <time>2024-04-06T09:20:37Z</time>
      </trkpt>
      <trkpt lat="49.92072" lon="4.52107">
        <ele>383.6</ele>
        <time>2024-04-06T09:20:38Z</time>
      </trkpt>
      <trkpt lat="49.92076" lon="4.52116">
        <ele>383.8</ele>
        <time>2024-04-06T09:20:39Z</time>
      </trkpt>
      <trkpt lat="49.92079" lon="4.52125">
        <ele>383.6</ele>
        <time>2024-04-06T09:20:40Z</time>
      </trkpt>
      <trkpt lat="49.92082" lon="4.52134">
        <ele>383.6</ele>
        <time>2024-04-06T09:20:41Z</time>
      </trkpt>
      <trkpt lat="49.92086" lon="4.52144">
        <ele>383.4</ele>
        <time>2024-04-06T09:20:42Z</time>
      </trkpt>
      <trkpt lat="49.9209" lon="4.52153">
        <ele>383.6</ele>
        <time>2024-04-06T09:20:43Z</time>
      </trkpt>
      <trkpt lat="49.92093" lon="4.52163">
        <ele>383.6</ele>
        <time>2024-04-06T09:20:44Z</time>
      </trkpt>
      <trkpt lat="49.92097" lon="4.52173">
        <ele>383.6</ele>
        <time>2024-04-06T09:20:45Z</time>
      </trkpt>
      <trkpt lat="49.92102" lon="4.52182">
        <ele>383.4</ele>
        <time>2024-04-06T09:20:46Z</time>
      </trkpt>
      <trkpt lat="49.92106" lon="4.52192">
        <ele>383.4</ele>
        <time>2024-04-06T09:20:47Z</time>
      </trkpt>
      <trkpt lat="49.92111" lon="4.522">
        <ele>383.2</ele>
        <time>2024-04-06T09:20:48Z</time>
      </trkpt>
      <trkpt lat="49.92117" lon="4.52208">
        <ele>383</ele>
        <time>2024-04-06T09:20:49Z</time>
      </trkpt>
      <trkpt lat="49.92123" lon="4.52216">
        <ele>383</ele>
        <time>2024-04-06T09:20:50Z</time>
      </trkpt>
      <trkpt lat="49.92129" lon="4.52223">
        <ele>382.6</ele>
        <time>2024-04-06T09:20:51Z</time>
      </trkpt>
      <trkpt lat="49.92135" lon="4.52229">
        <ele>382.6</ele>
        <time>2024-04-06T09:20:52Z</time>
      </trkpt>
      <trkpt lat="49.92141" lon="4.52235">
        <ele>382.6</ele>
        <time>2024-04-06T09:20:53Z</time>
      </trkpt>
      <trkpt lat="49.92148" lon="4.52241">
        <ele>382.2</ele>
        <time>2024-04-06T09:20:54Z</time>
      </trkpt>
      <trkpt lat="49.92154" lon="4.52248">
        <ele>382.2</ele>
        <time>2024-04-06T09:20:55Z</time>
      </trkpt>
      <trkpt lat="49.9216" lon="4.52254">
        <ele>382</ele>
        <time>2024-04-06T09:20:56Z</time>
      </trkpt>
      <trkpt lat="49.92167" lon="4.52259">
        <ele>382</ele>
        <time>2024-04-06T09:20:57Z</time>
      </trkpt>
      <trkpt lat="49.92173" lon="4.52265">
        <ele>381.8</ele>
        <time>2024-04-06T09:20:58Z</time>
      </trkpt>
      <trkpt lat="49.92179" lon="4.52271">
        <ele>382</ele>
        <time>2024-04-06T09:20:59Z</time>
      </trkpt>
      <trkpt lat="49.92185" lon="4.52277">
        <ele>381.6</ele>
        <time>2024-04-06T09:21:00Z</time>
      </trkpt>
      <trkpt lat="49.92191" lon="4.52283">
        <ele>381.6</ele>
        <time>2024-04-06T09:21:01Z</time>
      </trkpt>
      <trkpt lat="49.92197" lon="4.52289">
        <ele>381.6</ele>
        <time>2024-04-06T09:21:02Z</time>
      </trkpt>
      <trkpt lat="49.92203" lon="4.52295">
        <ele>381.6</ele>
        <time>2024-04-06T09:21:03Z</time>
      </trkpt>
      <trkpt lat="49.92209" lon="4.52301">
        <ele>381.6</ele>
        <time>2024-04-06T09:21:04Z</time>
      </trkpt>
      <trkpt lat="49.92215" lon="4.52307">
        <ele>381.8</ele>
        <time>2024-04-06T09:21:05Z</time>
      </trkpt>
      <trkpt lat="49.9222" lon="4.52313">
        <ele>381.6</ele>
        <time>2024-04-06T09:21:06Z</time>
      </trkpt>
      <trkpt lat="49.92226" lon="4.5232">
        <ele>381.6</ele>
        <time>2024-04-06T09:21:07Z</time>
      </trkpt>
      <trkpt lat="49.92232" lon="4.52326">
        <ele>381.8</ele>
        <time>2024-04-06T09:21:08Z</time>
      </trkpt>
      <trkpt lat="49.92238" lon="4.52333">
        <ele>381.6</ele>
        <time>2024-04-06T09:21:09Z</time>
      </trkpt>
      <trkpt lat="49.92244" lon="4.52341">
        <ele>381.6</ele>
        <time>2024-04-06T09:21:10Z</time>
      </trkpt>
      <trkpt lat="49.9225" lon="4.52349">
        <ele>381.4</ele>
        <time>2024-04-06T09:21:11Z</time>
      </trkpt>
      <trkpt lat="49.92256" lon="4.52357">
        <ele>381.4</ele>
        <time>2024-04-06T09:21:12Z</time>
      </trkpt>
      <trkpt lat="49.92262" lon="4.52365">
        <ele>381.4</ele>
        <time>2024-04-06T09:21:13Z</time>
      </trkpt>
      <trkpt lat="49.92269" lon="4.52374">
        <ele>381.2</ele>
        <time>2024-04-06T09:21:14Z</time>
      </trkpt>
      <trkpt lat="49.92276" lon="4.52382">
        <ele>381.4</ele>
        <time>2024-04-06T09:21:15Z</time>
      </trkpt>
      <trkpt lat="49.92282" lon="4.52391">
        <ele>381.4</ele>
        <time>2024-04-06T09:21:16Z</time>
      </trkpt>
      <trkpt lat="49.92289" lon="4.524">
        <ele>381.4</ele>
        <time>2024-04-06T09:21:17Z</time>
      </trkpt>
      <trkpt lat="49.92296" lon="4.52409">
        <ele>381.4</ele>
        <time>2024-04-06T09:21:18Z</time>
      </trkpt>
      <trkpt lat="49.92302" lon="4.52419">
        <ele>381</ele>
        <time>2024-04-06T09:21:19Z</time>
      </trkpt>
      <trkpt lat="49.92309" lon="4.52429">
        <ele>380.8</ele>
        <time>2024-04-06T09:21:20Z</time>
      </trkpt>
      <trkpt lat="49.92314" lon="4.5244">
        <ele>380.4</ele>
        <time>2024-04-06T09:21:21Z</time>
      </trkpt>
      <trkpt lat="49.92319" lon="4.52452">
        <ele>380.2</ele>
        <time>2024-04-06T09:21:22Z</time>
      </trkpt>
      <trkpt lat="49.92323" lon="4.52465">
        <ele>379.8</ele>
        <time>2024-04-06T09:21:23Z</time>
      </trkpt>
      <trkpt lat="49.92327" lon="4.52478">
        <ele>379.6</ele>
        <time>2024-04-06T09:21:24Z</time>
      </trkpt>
      <trkpt lat="49.9233" lon="4.52492">
        <ele>379</ele>
        <time>2024-04-06T09:21:25Z</time>
      </trkpt>
      <trkpt lat="49.92333" lon="4.52505">
        <ele>378.4</ele>
        <time>2024-04-06T09:21:26Z</time>
      </trkpt>
      <trkpt lat="49.92336" lon="4.52519">
        <ele>377.8</ele>
        <time>2024-04-06T09:21:27Z</time>
      </trkpt>
      <trkpt lat="49.92338" lon="4.52532">
        <ele>377.2</ele>
        <time>2024-04-06T09:21:28Z</time>
      </trkpt>
      <trkpt lat="49.92341" lon="4.52546">
        <ele>376.4</ele>
        <time>2024-04-06T09:21:29Z</time>
      </trkpt>
      <trkpt lat="49.92344" lon="4.52559">
        <ele>375.8</ele>
        <time>2024-04-06T09:21:30Z</time>
      </trkpt>
      <trkpt lat="49.92347" lon="4.52571">
        <ele>375.2</ele>
        <time>2024-04-06T09:21:31Z</time>
      </trkpt>
      <trkpt lat="49.92351" lon="4.52583">
        <ele>375</ele>
        <time>2024-04-06T09:21:32Z</time>
      </trkpt>
      <trkpt lat="49.92356" lon="4.52594">
        <ele>375</ele>
        <time>2024-04-06T09:21:33Z</time>
      </trkpt>
      <trkpt lat="49.92362" lon="4.52604">
        <ele>374.8</ele>
        <time>2024-04-06T09:21:34Z</time>
      </trkpt>
      <trkpt lat="49.9237" lon="4.52611">
        <ele>374.8</ele>
        <time>2024-04-06T09:21:35Z</time>
      </trkpt>
      <trkpt lat="49.92378" lon="4.52615">
        <ele>374.8</ele>
        <time>2024-04-06T09:21:36Z</time>
      </trkpt>
      <trkpt lat="49.92387" lon="4.52616">
        <ele>374.8</ele>
        <time>2024-04-06T09:21:37Z</time>
      </trkpt>
      <trkpt lat="49.92396" lon="4.52613">
        <ele>375</ele>
        <time>2024-04-06T09:21:38Z</time>
      </trkpt>
      <trkpt lat="49.92405" lon="4.52608">
        <ele>374.8</ele>
        <time>2024-04-06T09:21:39Z</time>
      </trkpt>
      <trkpt lat="49.92413" lon="4.52602">
        <ele>374.8</ele>
        <time>2024-04-06T09:21:40Z</time>
      </trkpt>
      <trkpt lat="49.9242" lon="4.52594">
        <ele>374.8</ele>
        <time>2024-04-06T09:21:41Z</time>
      </trkpt>
      <trkpt lat="49.92428" lon="4.52587">
        <ele>374.8</ele>
        <time>2024-04-06T09:21:42Z</time>
      </trkpt>
      <trkpt lat="49.92436" lon="4.5258">
        <ele>375</ele>
        <time>2024-04-06T09:21:43Z</time>
      </trkpt>
      <trkpt lat="49.92443" lon="4.52573">
        <ele>375</ele>
        <time>2024-04-06T09:21:44Z</time>
      </trkpt>
      <trkpt lat="49.9245" lon="4.52565">
        <ele>375.4</ele>
        <time>2024-04-06T09:21:45Z</time>
      </trkpt>
      <trkpt lat="49.92458" lon="4.52558">
        <ele>375.2</ele>
        <time>2024-04-06T09:21:46Z</time>
      </trkpt>
      <trkpt lat="49.92465" lon="4.52551">
        <ele>375.6</ele>
        <time>2024-04-06T09:21:47Z</time>
      </trkpt>
      <trkpt lat="49.92472" lon="4.52545">
        <ele>375.8</ele>
        <time>2024-04-06T09:21:48Z</time>
      </trkpt>
      <trkpt lat="49.92479" lon="4.52538">
        <ele>376</ele>
        <time>2024-04-06T09:21:49Z</time>
      </trkpt>
      <trkpt lat="49.92486" lon="4.52531">
        <ele>376.2</ele>
        <time>2024-04-06T09:21:50Z</time>
      </trkpt>
      <trkpt lat="49.92492" lon="4.52524">
        <ele>376.2</ele>
        <time>2024-04-06T09:21:51Z</time>
      </trkpt>
      <trkpt lat="49.92499" lon="4.52518">
        <ele>376.6</ele>
        <time>2024-04-06T09:21:52Z</time>
      </trkpt>
      <trkpt lat="49.92505" lon="4.52511">
        <ele>376.8</ele>
        <time>2024-04-06T09:21:53Z</time>
      </trkpt>
      <trkpt lat="49.92512" lon="4.52505">
        <ele>377</ele>
        <time>2024-04-06T09:21:54Z</time>
      </trkpt>
      <trkpt lat="49.92518" lon="4.525">
        <ele>377</ele>
        <time>2024-04-06T09:21:55Z</time>
      </trkpt>
      <trkpt lat="49.92525" lon="4.52496">
        <ele>377</ele>
        <time>2024-04-06T09:21:56Z</time>
      </trkpt>
      <trkpt lat="49.92533" lon="4.52496">
        <ele>377.2</ele>
        <time>2024-04-06T09:21:57Z</time>
      </trkpt>
      <trkpt lat="49.9254" lon="4.52499">
        <ele>377.2</ele>
        <time>2024-04-06T09:21:58Z</time>
      </trkpt>
      <trkpt lat="49.92547" lon="4.52505">
        <ele>377.4</ele>
        <time>2024-04-06T09:21:59Z</time>
      </trkpt>
      <trkpt lat="49.92553" lon="4.52512">
        <ele>377.4</ele>
        <time>2024-04-06T09:22:00Z</time>
      </trkpt>
      <trkpt lat="49.92559" lon="4.5252">
        <ele>377.6</ele>
        <time>2024-04-06T09:22:01Z</time>
      </trkpt>
      <trkpt lat="49.92565" lon="4.52529">
        <ele>377.6</ele>
        <time>2024-04-06T09:22:02Z</time>
      </trkpt>
      <trkpt lat="49.92571" lon="4.52537">
        <ele>377.6</ele>
        <time>2024-04-06T09:22:03Z</time>
      </trkpt>
      <trkpt lat="49.92578" lon="4.52545">
        <ele>377.6</ele>
        <time>2024-04-06T09:22:04Z</time>
      </trkpt>
      <trkpt lat="49.92584" lon="4.52554">
        <ele>377.6</ele>
        <time>2024-04-06T09:22:05Z</time>
      </trkpt>
      <trkpt lat="49.92591" lon="4.52562">
        <ele>377.6</ele>
        <time>2024-04-06T09:22:06Z</time>
      </trkpt>
      <trkpt lat="49.92598" lon="4.5257">
        <ele>377.4</ele>
        <time>2024-04-06T09:22:07Z</time>
      </trkpt>
      <trkpt lat="49.92606" lon="4.52576">
        <ele>377.4</ele>
        <time>2024-04-06T09:22:08Z</time>
      </trkpt>
      <trkpt lat="49.92614" lon="4.52581">
        <ele>377.4</ele>
        <time>2024-04-06T09:22:09Z</time>
      </trkpt>
      <trkpt lat="49.92622" lon="4.52582">
        <ele>377.6</ele>
        <time>2024-04-06T09:22:10Z</time>
      </trkpt>
      <trkpt lat="49.92631" lon="4.5258">
        <ele>377.6</ele>
        <time>2024-04-06T09:22:11Z</time>
      </trkpt>
      <trkpt lat="49.92639" lon="4.52575">
        <ele>377.6</ele>
        <time>2024-04-06T09:22:12Z</time>
      </trkpt>
      <trkpt lat="49.92646" lon="4.52569">
        <ele>377.6</ele>
        <time>2024-04-06T09:22:13Z</time>
      </trkpt>
      <trkpt lat="49.92653" lon="4.52561">
        <ele>377.8</ele>
        <time>2024-04-06T09:22:14Z</time>
      </trkpt>
      <trkpt lat="49.9266" lon="4.52552">
        <ele>377.6</ele>
        <time>2024-04-06T09:22:15Z</time>
      </trkpt>
      <trkpt lat="49.92667" lon="4.52545">
        <ele>377.6</ele>
        <time>2024-04-06T09:22:16Z</time>
      </trkpt>
      <trkpt lat="49.92675" lon="4.52539">
        <ele>377.4</ele>
        <time>2024-04-06T09:22:17Z</time>
      </trkpt>
      <trkpt lat="49.92684" lon="4.52536">
        <ele>377.2</ele>
        <time>2024-04-06T09:22:18Z</time>
      </trkpt>
      <trkpt lat="49.92692" lon="4.52537">
        <ele>377.2</ele>
        <time>2024-04-06T09:22:19Z</time>
      </trkpt>
      <trkpt lat="49.92701" lon="4.52541">
        <ele>377.2</ele>
        <time>2024-04-06T09:22:20Z</time>
      </trkpt>
      <trkpt lat="49.92709" lon="4.52547">
        <ele>377</ele>
        <time>2024-04-06T09:22:21Z</time>
      </trkpt>
      <trkpt lat="49.92716" lon="4.52555">
        <ele>377</ele>
        <time>2024-04-06T09:22:22Z</time>
      </trkpt>
      <trkpt lat="49.92723" lon="4.52563">
        <ele>377</ele>
        <time>2024-04-06T09:22:23Z</time>
      </trkpt>
      <trkpt lat="49.9273" lon="4.52571">
        <ele>376.8</ele>
        <time>2024-04-06T09:22:24Z</time>
      </trkpt>
      <trkpt lat="49.92737" lon="4.5258">
        <ele>376.6</ele>
        <time>2024-04-06T09:22:25Z</time>
      </trkpt>
      <trkpt lat="49.92744" lon="4.52588">
        <ele>376.4</ele>
        <time>2024-04-06T09:22:26Z</time>
      </trkpt>
      <trkpt lat="49.92751" lon="4.52596">
        <ele>376.4</ele>
        <time>2024-04-06T09:22:27Z</time>
      </trkpt>
      <trkpt lat="49.92758" lon="4.52604">
        <ele>376</ele>
        <time>2024-04-06T09:22:28Z</time>
      </trkpt>
      <trkpt lat="49.92765" lon="4.52612">
        <ele>376</ele>
        <time>2024-04-06T09:22:29Z</time>
      </trkpt>
      <trkpt lat="49.92772" lon="4.5262">
        <ele>375.8</ele>
        <time>2024-04-06T09:22:30Z</time>
      </trkpt>
      <trkpt lat="49.92778" lon="4.52628">
        <ele>375.8</ele>
        <time>2024-04-06T09:22:31Z</time>
      </trkpt>
      <trkpt lat="49.92785" lon="4.52635">
        <ele>375.6</ele>
        <time>2024-04-06T09:22:32Z</time>
      </trkpt>
      <trkpt lat="49.92791" lon="4.52643">
        <ele>375.6</ele>
        <time>2024-04-06T09:22:33Z</time>
      </trkpt>
      <trkpt lat="49.92798" lon="4.5265">
        <ele>375.6</ele>
        <time>2024-04-06T09:22:34Z</time>
      </trkpt>
      <trkpt lat="49.92804" lon="4.52658">
        <ele>375.6</ele>
        <time>2024-04-06T09:22:35Z</time>
      </trkpt>
      <trkpt lat="49.9281" lon="4.52665">
        <ele>375.6</ele>
        <time>2024-04-06T09:22:36Z</time>
      </trkpt>
      <trkpt lat="49.92817" lon="4.52672">
        <ele>375.4</ele>
        <time>2024-04-06T09:22:37Z</time>
      </trkpt>
      <trkpt lat="49.92823" lon="4.52679">
        <ele>375.4</ele>
        <time>2024-04-06T09:22:38Z</time>
      </trkpt>
      <trkpt lat="49.92829" lon="4.52686">
        <ele>375.6</ele>
        <time>2024-04-06T09:22:39Z</time>
      </trkpt>
      <trkpt lat="49.92835" lon="4.52693">
        <ele>375.6</ele>
        <time>2024-04-06T09:22:40Z</time>
      </trkpt>
      <trkpt lat="49.92841" lon="4.527">
        <ele>375.6</ele>
        <time>2024-04-06T09:22:41Z</time>
      </trkpt>
      <trkpt lat="49.92847" lon="4.52707">
        <ele>375.8</ele>
        <time>2024-04-06T09:22:42Z</time>
      </trkpt>
      <trkpt lat="49.92853" lon="4.52714">
        <ele>375.8</ele>
        <time>2024-04-06T09:22:43Z</time>
      </trkpt>
      <trkpt lat="49.92859" lon="4.52721">
        <ele>376</ele>
        <time>2024-04-06T09:22:44Z</time>
      </trkpt>
      <trkpt lat="49.92864" lon="4.52728">
        <ele>376.6</ele>
        <time>2024-04-06T09:22:45Z</time>
      </trkpt>
      <trkpt lat="49.9287" lon="4.52734">
        <ele>377</ele>
        <time>2024-04-06T09:22:46Z</time>
      </trkpt>
      <trkpt lat="49.92876" lon="4.52741">
        <ele>377</ele>
        <time>2024-04-06T09:22:47Z</time>
      </trkpt>
      <trkpt lat="49.92882" lon="4.52748">
        <ele>377</ele>
        <time>2024-04-06T09:22:48Z</time>
      </trkpt>
      <trkpt lat="49.92887" lon="4.52754">
        <ele>377.2</ele>
        <time>2024-04-06T09:22:49Z</time>
      </trkpt>
      <trkpt lat="49.92893" lon="4.52761">
        <ele>377.8</ele>
        <time>2024-04-06T09:22:50Z</time>
      </trkpt>
      <trkpt lat="49.92898" lon="4.52768">
        <ele>377.8</ele>
        <time>2024-04-06T09:22:51Z</time>
      </trkpt>
      <trkpt lat="49.92904" lon="4.52774">
        <ele>378</ele>
        <time>2024-04-06T09:22:52Z</time>
      </trkpt>
      <trkpt lat="49.92909" lon="4.52781">
        <ele>378</ele>
        <time>2024-04-06T09:22:53Z</time>
      </trkpt>
      <trkpt lat="49.92914" lon="4.52788">
        <ele>377.8</ele>
        <time>2024-04-06T09:22:54Z</time>
      </trkpt>
      <trkpt lat="49.92919" lon="4.52795">
        <ele>378</ele>
        <time>2024-04-06T09:22:55Z</time>
      </trkpt>
      <trkpt lat="49.92924" lon="4.52802">
        <ele>378.2</ele>
        <time>2024-04-06T09:22:56Z</time>
      </trkpt>
      <trkpt lat="49.92929" lon="4.52809">
        <ele>378.2</ele>
        <time>2024-04-06T09:22:57Z</time>
      </trkpt>
      <trkpt lat="49.92934" lon="4.52816">
        <ele>378.2</ele>
        <time>2024-04-06T09:22:58Z</time>
      </trkpt>
      <trkpt lat="49.92938" lon="4.52823">
        <ele>378.4</ele>
        <time>2024-04-06T09:22:59Z</time>
      </trkpt>
      <trkpt lat="49.92943" lon="4.52831">
        <ele>378.4</ele>
        <time>2024-04-06T09:23:00Z</time>
      </trkpt>
      <trkpt lat="49.92948" lon="4.52838">
        <ele>378.4</ele>
        <time>2024-04-06T09:23:01Z</time>
      </trkpt>
      <trkpt lat="49.92953" lon="4.52846">
        <ele>378.6</ele>
        <time>2024-04-06T09:23:02Z</time>
      </trkpt>
      <trkpt lat="49.92957" lon="4.52853">
        <ele>378.8</ele>
        <time>2024-04-06T09:23:03Z</time>
      </trkpt>
      <trkpt lat="49.92962" lon="4.5286">
        <ele>379.2</ele>
        <time>2024-04-06T09:23:04Z</time>
      </trkpt>
      <trkpt lat="49.92966" lon="4.52868">
        <ele>379.2</ele>
        <time>2024-04-06T09:23:05Z</time>
      </trkpt>
      <trkpt lat="49.92971" lon="4.52875">
        <ele>379.6</ele>
        <time>2024-04-06T09:23:06Z</time>
      </trkpt>
      <trkpt lat="49.92975" lon="4.52883">
        <ele>379.8</ele>
        <time>2024-04-06T09:23:07Z</time>
      </trkpt>
      <trkpt lat="49.9298" lon="4.5289">
        <ele>380.6</ele>
        <time>2024-04-06T09:23:08Z</time>
      </trkpt>
      <trkpt lat="49.92985" lon="4.52898">
        <ele>380.8</ele>
        <time>2024-04-06T09:23:09Z</time>
      </trkpt>
      <trkpt lat="49.92989" lon="4.52905">
        <ele>381.2</ele>
        <time>2024-04-06T09:23:10Z</time>
      </trkpt>
      <trkpt lat="49.92994" lon="4.52913">
        <ele>381.4</ele>
        <time>2024-04-06T09:23:11Z</time>
      </trkpt>
      <trkpt lat="49.92999" lon="4.5292">
        <ele>381.4</ele>
        <time>2024-04-06T09:23:12Z</time>
      </trkpt>
      <trkpt lat="49.93003" lon="4.52927">
        <ele>381.8</ele>
        <time>2024-04-06T09:23:13Z</time>
      </trkpt>
      <trkpt lat="49.93008" lon="4.52935">
        <ele>381.8</ele>
        <time>2024-04-06T09:23:14Z</time>
      </trkpt>
      <trkpt lat="49.93013" lon="4.52943">
        <ele>381.8</ele>
        <time>2024-04-06T09:23:15Z</time>
      </trkpt>
      <trkpt lat="49.93017" lon="4.5295">
        <ele>382.2</ele>
        <time>2024-04-06T09:23:16Z</time>
      </trkpt>
      <trkpt lat="49.93022" lon="4.52958">
        <ele>382.2</ele>
        <time>2024-04-06T09:23:17Z</time>
      </trkpt>
      <trkpt lat="49.93027" lon="4.52965">
        <ele>382.2</ele>
        <time>2024-04-06T09:23:18Z</time>
      </trkpt>
      <trkpt lat="49.93031" lon="4.52973">
        <ele>382.4</ele>
        <time>2024-04-06T09:23:19Z</time>
      </trkpt>
      <trkpt lat="49.93036" lon="4.5298">
        <ele>382.4</ele>
        <time>2024-04-06T09:23:20Z</time>
      </trkpt>
      <trkpt lat="49.93041" lon="4.52987">
        <ele>382.2</ele>
        <time>2024-04-06T09:23:21Z</time>
      </trkpt>
      <trkpt lat="49.93045" lon="4.52995">
        <ele>382.2</ele>
        <time>2024-04-06T09:23:22Z</time>
      </trkpt>
      <trkpt lat="49.9305" lon="4.53002">
        <ele>382.2</ele>
        <time>2024-04-06T09:23:23Z</time>
      </trkpt>
      <trkpt lat="49.93055" lon="4.5301">
        <ele>382.2</ele>
        <time>2024-04-06T09:23:24Z</time>
      </trkpt>
      <trkpt lat="49.93059" lon="4.53017">
        <ele>382.2</ele>
        <time>2024-04-06T09:23:25Z</time>
      </trkpt>
      <trkpt lat="49.93064" lon="4.53025">
        <ele>382.4</ele>
        <time>2024-04-06T09:23:26Z</time>
      </trkpt>
      <trkpt lat="49.93069" lon="4.53032">
        <ele>382.4</ele>
        <time>2024-04-06T09:23:27Z</time>
      </trkpt>
      <trkpt lat="49.93073" lon="4.5304">
        <ele>382.6</ele>
        <time>2024-04-06T09:23:28Z</time>
      </trkpt>
      <trkpt lat="49.93078" lon="4.53047">
        <ele>382.8</ele>
        <time>2024-04-06T09:23:29Z</time>
      </trkpt>
      <trkpt lat="49.93083" lon="4.53055">
        <ele>382.8</ele>
        <time>2024-04-06T09:23:30Z</time>
      </trkpt>
      <trkpt lat="49.93087" lon="4.53062">
        <ele>383.2</ele>
        <time>2024-04-06T09:23:31Z</time>
      </trkpt>
      <trkpt lat="49.93092" lon="4.5307">
        <ele>383.2</ele>
        <time>2024-04-06T09:23:32Z</time>
      </trkpt>
      <trkpt lat="49.93097" lon="4.53077">
        <ele>383.2</ele>
        <time>2024-04-06T09:23:33Z</time>
      </trkpt>
      <trkpt lat="49.93101" lon="4.53085">
        <ele>383.4</ele>
        <time>2024-04-06T09:23:34Z</time>
      </trkpt>
      <trkpt lat="49.93106" lon="4.53092">
        <ele>383.2</ele>
        <time>2024-04-06T09:23:35Z</time>
      </trkpt>
      <trkpt lat="49.9311" lon="4.53099">
        <ele>383.4</ele>
        <time>2024-04-06T09:23:36Z</time>
      </trkpt>
      <trkpt lat="49.93115" lon="4.53107">
        <ele>383.4</ele>
        <time>2024-04-06T09:23:37Z</time>
      </trkpt>
      <trkpt lat="49.9312" lon="4.53114">
        <ele>383.6</ele>
        <time>2024-04-06T09:23:38Z</time>
      </trkpt>
      <trkpt lat="49.93124" lon="4.53122">
        <ele>383.4</ele>
        <time>2024-04-06T09:23:39Z</time>
      </trkpt>
      <trkpt lat="49.93129" lon="4.5313">
        <ele>383.6</ele>
        <time>2024-04-06T09:23:40Z</time>
      </trkpt>
      <trkpt lat="49.93133" lon="4.53137">
        <ele>383.4</ele>
        <time>2024-04-06T09:23:41Z</time>
      </trkpt>
      <trkpt lat="49.93138" lon="4.53145">
        <ele>383.6</ele>
        <time>2024-04-06T09:23:42Z</time>
      </trkpt>
      <trkpt lat="49.93143" lon="4.53153">
        <ele>383.6</ele>
        <time>2024-04-06T09:23:43Z</time>
      </trkpt>
      <trkpt lat="49.93148" lon="4.5316">
        <ele>383.6</ele>
        <time>2024-04-06T09:23:44Z</time>
      </trkpt>
      <trkpt lat="49.93152" lon="4.53168">
        <ele>383.6</ele>
        <time>2024-04-06T09:23:45Z</time>
      </trkpt>
      <trkpt lat="49.93157" lon="4.53175">
        <ele>383.6</ele>
        <time>2024-04-06T09:23:46Z</time>
      </trkpt>
      <trkpt lat="49.93162" lon="4.53183">
        <ele>383.4</ele>
        <time>2024-04-06T09:23:47Z</time>
      </trkpt>
      <trkpt lat="49.93166" lon="4.53191">
        <ele>383.6</ele>
        <time>2024-04-06T09:23:48Z</time>
      </trkpt>
      <trkpt lat="49.93171" lon="4.53198">
        <ele>383.8</ele>
        <time>2024-04-06T09:23:49Z</time>
      </trkpt>
      <trkpt lat="49.93176" lon="4.53206">
        <ele>383.6</ele>
        <time>2024-04-06T09:23:50Z</time>
      </trkpt>
      <trkpt lat="49.93181" lon="4.53214">
        <ele>383.8</ele>
        <time>2024-04-06T09:23:51Z</time>
      </trkpt>
      <trkpt lat="49.93186" lon="4.53221">
        <ele>383.8</ele>
        <time>2024-04-06T09:23:52Z</time>
      </trkpt>
      <trkpt lat="49.93191" lon="4.53229">
        <ele>383.8</ele>
        <time>2024-04-06T09:23:53Z</time>
      </trkpt>
      <trkpt lat="49.93195" lon="4.53237">
        <ele>383.8</ele>
        <time>2024-04-06T09:23:54Z</time>
      </trkpt>
      <trkpt lat="49.932" lon="4.53245">
        <ele>383.8</ele>
        <time>2024-04-06T09:23:55Z</time>
      </trkpt>
      <trkpt lat="49.93205" lon="4.53254">
        <ele>383.8</ele>
        <time>2024-04-06T09:23:56Z</time>
      </trkpt>
      <trkpt lat="49.9321" lon="4.53262">
        <ele>383.8</ele>
        <time>2024-04-06T09:23:57Z</time>
      </trkpt>
      <trkpt lat="49.93215" lon="4.5327">
        <ele>383.6</ele>
        <time>2024-04-06T09:23:58Z</time>
      </trkpt>
      <trkpt lat="49.9322" lon="4.53278">
        <ele>383.6</ele>
        <time>2024-04-06T09:23:59Z</time>
      </trkpt>
      <trkpt lat="49.93225" lon="4.53286">
        <ele>383.6</ele>
        <time>2024-04-06T09:24:00Z</time>
      </trkpt>
      <trkpt lat="49.93231" lon="4.53294">
        <ele>383.6</ele>
        <time>2024-04-06T09:24:01Z</time>
      </trkpt>
      <trkpt lat="49.93236" lon="4.53302">
        <ele>383.4</ele>
        <time>2024-04-06T09:24:02Z</time>
      </trkpt>
      <trkpt lat="49.93241" lon="4.5331">
        <ele>383.4</ele>
        <time>2024-04-06T09:24:03Z</time>
      </trkpt>
      <trkpt lat="49.93246" lon="4.53319">
        <ele>383</ele>
        <time>2024-04-06T09:24:04Z</time>
      </trkpt>
      <trkpt lat="49.93251" lon="4.53327">
        <ele>383</ele>
        <time>2024-04-06T09:24:05Z</time>
      </trkpt>
      <trkpt lat="49.93257" lon="4.53335">
        <ele>383</ele>
        <time>2024-04-06T09:24:06Z</time>
      </trkpt>
      <trkpt lat="49.93262" lon="4.53344">
        <ele>383</ele>
        <time>2024-04-06T09:24:07Z</time>
      </trkpt>
      <trkpt lat="49.93267" lon="4.53352">
        <ele>382.8</ele>
        <time>2024-04-06T09:24:08Z</time>
      </trkpt>
      <trkpt lat="49.93272" lon="4.5336">
        <ele>382.8</ele>
        <time>2024-04-06T09:24:09Z</time>
      </trkpt>
      <trkpt lat="49.93277" lon="4.53369">
        <ele>382.6</ele>
        <time>2024-04-06T09:24:10Z</time>
      </trkpt>
      <trkpt lat="49.93282" lon="4.53377">
        <ele>382.6</ele>
        <time>2024-04-06T09:24:11Z</time>
      </trkpt>
      <trkpt lat="49.93287" lon="4.53385">
        <ele>382.4</ele>
        <time>2024-04-06T09:24:12Z</time>
      </trkpt>
      <trkpt lat="49.93293" lon="4.53393">
        <ele>382.2</ele>
        <time>2024-04-06T09:24:13Z</time>
      </trkpt>
      <trkpt lat="49.93298" lon="4.53402">
        <ele>382.2</ele>
        <time>2024-04-06T09:24:14Z</time>
      </trkpt>
      <trkpt lat="49.93303" lon="4.5341">
        <ele>382</ele>
        <time>2024-04-06T09:24:15Z</time>
      </trkpt>
      <trkpt lat="49.93308" lon="4.53418">
        <ele>382</ele>
        <time>2024-04-06T09:24:16Z</time>
      </trkpt>
      <trkpt lat="49.93314" lon="4.53427">
        <ele>381.8</ele>
        <time>2024-04-06T09:24:17Z</time>
      </trkpt>
      <trkpt lat="49.93319" lon="4.53435">
        <ele>382</ele>
        <time>2024-04-06T09:24:18Z</time>
      </trkpt>
      <trkpt lat="49.93324" lon="4.53444">
        <ele>382</ele>
        <time>2024-04-06T09:24:19Z</time>
      </trkpt>
      <trkpt lat="49.9333" lon="4.53453">
        <ele>382</ele>
        <time>2024-04-06T09:24:20Z</time>
      </trkpt>
      <trkpt lat="49.93335" lon="4.53461">
        <ele>381.8</ele>
        <time>2024-04-06T09:24:21Z</time>
      </trkpt>
      <trkpt lat="49.9334" lon="4.5347">
        <ele>382</ele>
        <time>2024-04-06T09:24:22Z</time>
      </trkpt>
      <trkpt lat="49.93346" lon="4.53479">
        <ele>381.6</ele>
        <time>2024-04-06T09:24:23Z</time>
      </trkpt>
      <trkpt lat="49.93351" lon="4.53487">
        <ele>381.8</ele>
        <time>2024-04-06T09:24:24Z</time>
      </trkpt>
      <trkpt lat="49.93356" lon="4.53496">
        <ele>381.4</ele>
        <time>2024-04-06T09:24:25Z</time>
      </trkpt>
      <trkpt lat="49.93362" lon="4.53505">
        <ele>381.4</ele>
        <time>2024-04-06T09:24:26Z</time>
      </trkpt>
      <trkpt lat="49.93367" lon="4.53514">
        <ele>381.6</ele>
        <time>2024-04-06T09:24:27Z</time>
      </trkpt>
      <trkpt lat="49.93372" lon="4.53522">
        <ele>381.6</ele>
        <time>2024-04-06T09:24:28Z</time>
      </trkpt>
      <trkpt lat="49.93378" lon="4.5353">
        <ele>381.4</ele>
        <time>2024-04-06T09:24:29Z</time>
      </trkpt>
      <trkpt lat="49.93383" lon="4.53538">
        <ele>381.6</ele>
        <time>2024-04-06T09:24:30Z</time>
      </trkpt>
      <trkpt lat="49.93388" lon="4.53547">
        <ele>381.6</ele>
        <time>2024-04-06T09:24:31Z</time>
      </trkpt>
      <trkpt lat="49.93393" lon="4.53555">
        <ele>381.6</ele>
        <time>2024-04-06T09:24:32Z</time>
      </trkpt>
      <trkpt lat="49.93398" lon="4.53563">
        <ele>381.4</ele>
        <time>2024-04-06T09:24:33Z</time>
      </trkpt>
      <trkpt lat="49.93403" lon="4.53571">
        <ele>381.6</ele>
        <time>2024-04-06T09:24:34Z</time>
      </trkpt>
      <trkpt lat="49.93408" lon="4.53579">
        <ele>381.4</ele>
        <time>2024-04-06T09:24:35Z</time>
      </trkpt>
      <trkpt lat="49.93413" lon="4.53587">
        <ele>381.4</ele>
        <time>2024-04-06T09:24:36Z</time>
      </trkpt>
      <trkpt lat="49.93418" lon="4.53595">
        <ele>381.4</ele>
        <time>2024-04-06T09:24:37Z</time>
      </trkpt>
      <trkpt lat="49.93423" lon="4.53603">
        <ele>381</ele>
        <time>2024-04-06T09:24:38Z</time>
      </trkpt>
      <trkpt lat="49.93428" lon="4.53611">
        <ele>381.2</ele>
        <time>2024-04-06T09:24:39Z</time>
      </trkpt>
      <trkpt lat="49.93433" lon="4.53619">
        <ele>381</ele>
        <time>2024-04-06T09:24:40Z</time>
      </trkpt>
      <trkpt lat="49.93438" lon="4.53627">
        <ele>380.8</ele>
        <time>2024-04-06T09:24:41Z</time>
      </trkpt>
      <trkpt lat="49.93444" lon="4.53635">
        <ele>380.8</ele>
        <time>2024-04-06T09:24:42Z</time>
      </trkpt>
      <trkpt lat="49.93449" lon="4.53644">
        <ele>380.4</ele>
        <time>2024-04-06T09:24:43Z</time>
      </trkpt>
      <trkpt lat="49.93454" lon="4.53652">
        <ele>380.2</ele>
        <time>2024-04-06T09:24:44Z</time>
      </trkpt>
      <trkpt lat="49.93459" lon="4.5366">
        <ele>380.2</ele>
        <time>2024-04-06T09:24:45Z</time>
      </trkpt>
      <trkpt lat="49.93465" lon="4.53669">
        <ele>380</ele>
        <time>2024-04-06T09:24:46Z</time>
      </trkpt>
      <trkpt lat="49.9347" lon="4.53677">
        <ele>380</ele>
        <time>2024-04-06T09:24:47Z</time>
      </trkpt>
      <trkpt lat="49.93475" lon="4.53685">
        <ele>379.8</ele>
        <time>2024-04-06T09:24:48Z</time>
      </trkpt>
      <trkpt lat="49.9348" lon="4.53693">
        <ele>379.8</ele>
        <time>2024-04-06T09:24:49Z</time>
      </trkpt>
      <trkpt lat="49.93485" lon="4.53701">
        <ele>379.8</ele>
        <time>2024-04-06T09:24:50Z</time>
      </trkpt>
      <trkpt lat="49.9349" lon="4.5371">
        <ele>379.4</ele>
        <time>2024-04-06T09:24:51Z</time>
      </trkpt>
      <trkpt lat="49.93495" lon="4.53718">
        <ele>379.2</ele>
        <time>2024-04-06T09:24:52Z</time>
      </trkpt>
      <trkpt lat="49.935" lon="4.53726">
        <ele>379.2</ele>
        <time>2024-04-06T09:24:53Z</time>
      </trkpt>
      <trkpt lat="49.93506" lon="4.53734">
        <ele>379.2</ele>
        <time>2024-04-06T09:24:54Z</time>
      </trkpt>
      <trkpt lat="49.93511" lon="4.53743">
        <ele>379</ele>
        <time>2024-04-06T09:24:55Z</time>
      </trkpt>
      <trkpt lat="49.93516" lon="4.53751">
        <ele>379.2</ele>
        <time>2024-04-06T09:24:56Z</time>
      </trkpt>
      <trkpt lat="49.93521" lon="4.53759">
        <ele>379.6</ele>
        <time>2024-04-06T09:24:57Z</time>
      </trkpt>
      <trkpt lat="49.93526" lon="4.53767">
        <ele>379.6</ele>
        <time>2024-04-06T09:24:58Z</time>
      </trkpt>
      <trkpt lat="49.93531" lon="4.53777">
        <ele>379.8</ele>
        <time>2024-04-06T09:24:59Z</time>
      </trkpt>
      <trkpt lat="49.93533" lon="4.53788">
        <ele>379.6</ele>
        <time>2024-04-06T09:25:00Z</time>
      </trkpt>
      <trkpt lat="49.93535" lon="4.53799">
        <ele>379.8</ele>
        <time>2024-04-06T09:25:01Z</time>
      </trkpt>
      <trkpt lat="49.93537" lon="4.5381">
        <ele>379.6</ele>
        <time>2024-04-06T09:25:02Z</time>
      </trkpt>
      <trkpt lat="49.93541" lon="4.5382">
        <ele>379.8</ele>
        <time>2024-04-06T09:25:03Z</time>
      </trkpt>
      <trkpt lat="49.93546" lon="4.53828">
        <ele>379.8</ele>
        <time>2024-04-06T09:25:04Z</time>
      </trkpt>
      <trkpt lat="49.93552" lon="4.53835">
        <ele>379.8</ele>
        <time>2024-04-06T09:25:05Z</time>
      </trkpt>
      <trkpt lat="49.93558" lon="4.53839">
        <ele>379.8</ele>
        <time>2024-04-06T09:25:06Z</time>
      </trkpt>
      <trkpt lat="49.93566" lon="4.53842">
        <ele>379.8</ele>
        <time>2024-04-06T09:25:07Z</time>
      </trkpt>
      <trkpt lat="49.93573" lon="4.53845">
        <ele>379.8</ele>
        <time>2024-04-06T09:25:08Z</time>
      </trkpt>
      <trkpt lat="49.9358" lon="4.53852">
        <ele>380</ele>
        <time>2024-04-06T09:25:09Z</time>
      </trkpt>
      <trkpt lat="49.93586" lon="4.53859">
        <ele>380</ele>
        <time>2024-04-06T09:25:10Z</time>
      </trkpt>
      <trkpt lat="49.93591" lon="4.53868">
        <ele>380</ele>
        <time>2024-04-06T09:25:11Z</time>
      </trkpt>
      <trkpt lat="49.93596" lon="4.53876">
        <ele>380</ele>
        <time>2024-04-06T09:25:12Z</time>
      </trkpt>
      <trkpt lat="49.93601" lon="4.53885">
        <ele>380.2</ele>
        <time>2024-04-06T09:25:13Z</time>
      </trkpt>
      <trkpt lat="49.93606" lon="4.53893">
        <ele>380.2</ele>
        <time>2024-04-06T09:25:14Z</time>
      </trkpt>
      <trkpt lat="49.93612" lon="4.53901">
        <ele>380.2</ele>
        <time>2024-04-06T09:25:15Z</time>
      </trkpt>
      <trkpt lat="49.93617" lon="4.53909">
        <ele>380.2</ele>
        <time>2024-04-06T09:25:16Z</time>
      </trkpt>
      <trkpt lat="49.93622" lon="4.53918">
        <ele>380.2</ele>
        <time>2024-04-06T09:25:17Z</time>
      </trkpt>
      <trkpt lat="49.93627" lon="4.53926">
        <ele>380.2</ele>
        <time>2024-04-06T09:25:18Z</time>
      </trkpt>
      <trkpt lat="49.93632" lon="4.53934">
        <ele>380.2</ele>
        <time>2024-04-06T09:25:19Z</time>
      </trkpt>
      <trkpt lat="49.93637" lon="4.53942">
        <ele>380.2</ele>
        <time>2024-04-06T09:25:20Z</time>
      </trkpt>
      <trkpt lat="49.93641" lon="4.5395">
        <ele>380.4</ele>
        <time>2024-04-06T09:25:21Z</time>
      </trkpt>
      <trkpt lat="49.93646" lon="4.53958">
        <ele>380.2</ele>
        <time>2024-04-06T09:25:22Z</time>
      </trkpt>
      <trkpt lat="49.93651" lon="4.53966">
        <ele>380.4</ele>
        <time>2024-04-06T09:25:23Z</time>
      </trkpt>
      <trkpt lat="49.93656" lon="4.53974">
        <ele>380.2</ele>
        <time>2024-04-06T09:25:24Z</time>
      </trkpt>
      <trkpt lat="49.93661" lon="4.53982">
        <ele>380.2</ele>
        <time>2024-04-06T09:25:25Z</time>
      </trkpt>
      <trkpt lat="49.93666" lon="4.5399">
        <ele>380.2</ele>
        <time>2024-04-06T09:25:26Z</time>
      </trkpt>
      <trkpt lat="49.93671" lon="4.53997">
        <ele>380.4</ele>
        <time>2024-04-06T09:25:27Z</time>
      </trkpt>
      <trkpt lat="49.93676" lon="4.54005">
        <ele>380.4</ele>
        <time>2024-04-06T09:25:28Z</time>
      </trkpt>
      <trkpt lat="49.93681" lon="4.54013">
        <ele>380.4</ele>
        <time>2024-04-06T09:25:29Z</time>
      </trkpt>
      <trkpt lat="49.93685" lon="4.54021">
        <ele>380.4</ele>
        <time>2024-04-06T09:25:30Z</time>
      </trkpt>
      <trkpt lat="49.9369" lon="4.54029">
        <ele>380.6</ele>
        <time>2024-04-06T09:25:31Z</time>
      </trkpt>
      <trkpt lat="49.93695" lon="4.54036">
        <ele>380.6</ele>
        <time>2024-04-06T09:25:32Z</time>
      </trkpt>
      <trkpt lat="49.937" lon="4.54044">
        <ele>380.8</ele>
        <time>2024-04-06T09:25:33Z</time>
      </trkpt>
      <trkpt lat="49.93704" lon="4.54051">
        <ele>380.6</ele>
        <time>2024-04-06T09:25:34Z</time>
      </trkpt>
      <trkpt lat="49.93709" lon="4.54059">
        <ele>380.6</ele>
        <time>2024-04-06T09:25:35Z</time>
      </trkpt>
      <trkpt lat="49.93714" lon="4.54066">
        <ele>380.6</ele>
        <time>2024-04-06T09:25:36Z</time>
      </trkpt>
      <trkpt lat="49.93718" lon="4.54074">
        <ele>380.8</ele>
        <time>2024-04-06T09:25:37Z</time>
      </trkpt>
      <trkpt lat="49.93723" lon="4.54081">
        <ele>381</ele>
        <time>2024-04-06T09:25:38Z</time>
      </trkpt>
      <trkpt lat="49.93728" lon="4.54089">
        <ele>381.2</ele>
        <time>2024-04-06T09:25:39Z</time>
      </trkpt>
      <trkpt lat="49.93733" lon="4.54096">
        <ele>381.2</ele>
        <time>2024-04-06T09:25:40Z</time>
      </trkpt>
      <trkpt lat="49.93737" lon="4.54104">
        <ele>381.4</ele>
        <time>2024-04-06T09:25:41Z</time>
      </trkpt>
      <trkpt lat="49.93742" lon="4.54111">
        <ele>381.4</ele>
        <time>2024-04-06T09:25:42Z</time>
      </trkpt>
      <trkpt lat="49.93747" lon="4.54119">
        <ele>381.4</ele>
        <time>2024-04-06T09:25:43Z</time>
      </trkpt>
      <trkpt lat="49.93751" lon="4.54126">
        <ele>381.4</ele>
        <time>2024-04-06T09:25:44Z</time>
      </trkpt>
      <trkpt lat="49.93756" lon="4.54134">
        <ele>381.6</ele>
        <time>2024-04-06T09:25:45Z</time>
      </trkpt>
      <trkpt lat="49.93761" lon="4.54141">
        <ele>381.6</ele>
        <time>2024-04-06T09:25:46Z</time>
      </trkpt>
      <trkpt lat="49.93765" lon="4.54149">
        <ele>381.8</ele>
        <time>2024-04-06T09:25:47Z</time>
      </trkpt>
      <trkpt lat="49.9377" lon="4.54156">
        <ele>381.6</ele>
        <time>2024-04-06T09:25:48Z</time>
      </trkpt>
      <trkpt lat="49.93775" lon="4.54163">
        <ele>381.8</ele>
        <time>2024-04-06T09:25:49Z</time>
      </trkpt>
      <trkpt lat="49.93779" lon="4.54171">
        <ele>381.8</ele>
        <time>2024-04-06T09:25:50Z</time>
      </trkpt>
      <trkpt lat="49.93784" lon="4.54178">
        <ele>382</ele>
        <time>2024-04-06T09:25:51Z</time>
      </trkpt>
      <trkpt lat="49.93789" lon="4.54186">
        <ele>382</ele>
        <time>2024-04-06T09:25:52Z</time>
      </trkpt>
      <trkpt lat="49.93793" lon="4.54193">
        <ele>382</ele>
        <time>2024-04-06T09:25:53Z</time>
      </trkpt>
      <trkpt lat="49.93798" lon="4.54201">
        <ele>382</ele>
        <time>2024-04-06T09:25:54Z</time>
      </trkpt>
      <trkpt lat="49.93803" lon="4.54208">
        <ele>382.2</ele>
        <time>2024-04-06T09:25:55Z</time>
      </trkpt>
      <trkpt lat="49.93807" lon="4.54216">
        <ele>382</ele>
        <time>2024-04-06T09:25:56Z</time>
      </trkpt>
      <trkpt lat="49.93812" lon="4.54223">
        <ele>382.2</ele>
        <time>2024-04-06T09:25:57Z</time>
      </trkpt>
      <trkpt lat="49.93817" lon="4.54231">
        <ele>382.2</ele>
        <time>2024-04-06T09:25:58Z</time>
      </trkpt>
      <trkpt lat="49.93821" lon="4.54239">
        <ele>382.2</ele>
        <time>2024-04-06T09:25:59Z</time>
      </trkpt>
      <trkpt lat="49.93826" lon="4.54246">
        <ele>382.4</ele>
        <time>2024-04-06T09:26:00Z</time>
      </trkpt>
      <trkpt lat="49.93831" lon="4.54254">
        <ele>382.4</ele>
        <time>2024-04-06T09:26:01Z</time>
      </trkpt>
      <trkpt lat="49.93836" lon="4.54261">
        <ele>382.4</ele>
        <time>2024-04-06T09:26:02Z</time>
      </trkpt>
      <trkpt lat="49.93841" lon="4.54269">
        <ele>382.6</ele>
        <time>2024-04-06T09:26:03Z</time>
      </trkpt>
      <trkpt lat="49.93846" lon="4.54277">
        <ele>382.6</ele>
        <time>2024-04-06T09:26:04Z</time>
      </trkpt>
      <trkpt lat="49.9385" lon="4.54285">
        <ele>382.6</ele>
        <time>2024-04-06T09:26:05Z</time>
      </trkpt>
      <trkpt lat="49.93855" lon="4.54292">
        <ele>382.6</ele>
        <time>2024-04-06T09:26:06Z</time>
      </trkpt>
      <trkpt lat="49.9386" lon="4.543">
        <ele>382.6</ele>
        <time>2024-04-06T09:26:07Z</time>
      </trkpt>
      <trkpt lat="49.93865" lon="4.54308">
        <ele>382.6</ele>
        <time>2024-04-06T09:26:08Z</time>
      </trkpt>
      <trkpt lat="49.9387" lon="4.54316">
        <ele>382.4</ele>
        <time>2024-04-06T09:26:09Z</time>
      </trkpt>
      <trkpt lat="49.93875" lon="4.54324">
        <ele>382.6</ele>
        <time>2024-04-06T09:26:10Z</time>
      </trkpt>
      <trkpt lat="49.9388" lon="4.54332">
        <ele>382.6</ele>
        <time>2024-04-06T09:26:11Z</time>
      </trkpt>
      <trkpt lat="49.93885" lon="4.5434">
        <ele>382.6</ele>
        <time>2024-04-06T09:26:12Z</time>
      </trkpt>
      <trkpt lat="49.9389" lon="4.54348">
        <ele>382.6</ele>
        <time>2024-04-06T09:26:13Z</time>
      </trkpt>
      <trkpt lat="49.93895" lon="4.54356">
        <ele>382.6</ele>
        <time>2024-04-06T09:26:14Z</time>
      </trkpt>
      <trkpt lat="49.93901" lon="4.54364">
        <ele>382.6</ele>
        <time>2024-04-06T09:26:15Z</time>
      </trkpt>
      <trkpt lat="49.93906" lon="4.54372">
        <ele>382.8</ele>
        <time>2024-04-06T09:26:16Z</time>
      </trkpt>
      <trkpt lat="49.93911" lon="4.54381">
        <ele>382.6</ele>
        <time>2024-04-06T09:26:17Z</time>
      </trkpt>
      <trkpt lat="49.93916" lon="4.54389">
        <ele>382.8</ele>
        <time>2024-04-06T09:26:18Z</time>
      </trkpt>
      <trkpt lat="49.93921" lon="4.54397">
        <ele>383</ele>
        <time>2024-04-06T09:26:19Z</time>
      </trkpt>
      <trkpt lat="49.93926" lon="4.54405">
        <ele>383</ele>
        <time>2024-04-06T09:26:20Z</time>
      </trkpt>
      <trkpt lat="49.93931" lon="4.54413">
        <ele>383</ele>
        <time>2024-04-06T09:26:21Z</time>
      </trkpt>
      <trkpt lat="49.93936" lon="4.54421">
        <ele>383</ele>
        <time>2024-04-06T09:26:22Z</time>
      </trkpt>
      <trkpt lat="49.93941" lon="4.5443">
        <ele>383</ele>
        <time>2024-04-06T09:26:23Z</time>
      </trkpt>
      <trkpt lat="49.93946" lon="4.54438">
        <ele>383</ele>
        <time>2024-04-06T09:26:24Z</time>
      </trkpt>
      <trkpt lat="49.93951" lon="4.54446">
        <ele>383.2</ele>
        <time>2024-04-06T09:26:25Z</time>
      </trkpt>
      <trkpt lat="49.93957" lon="4.54454">
        <ele>383.2</ele>
        <time>2024-04-06T09:26:26Z</time>
      </trkpt>
      <trkpt lat="49.93962" lon="4.54462">
        <ele>383.2</ele>
        <time>2024-04-06T09:26:27Z</time>
      </trkpt>
      <trkpt lat="49.93967" lon="4.54471">
        <ele>383.2</ele>
        <time>2024-04-06T09:26:28Z</time>
      </trkpt>
      <trkpt lat="49.93972" lon="4.54479">
        <ele>383</ele>
        <time>2024-04-06T09:26:29Z</time>
      </trkpt>
      <trkpt lat="49.93978" lon="4.54488">
        <ele>383</ele>
        <time>2024-04-06T09:26:30Z</time>
      </trkpt>
      <trkpt lat="49.93983" lon="4.54496">
        <ele>382.8</ele>
        <time>2024-04-06T09:26:31Z</time>
      </trkpt>
      <trkpt lat="49.93989" lon="4.54505">
        <ele>382.8</ele>
        <time>2024-04-06T09:26:32Z</time>
      </trkpt>
      <trkpt lat="49.93994" lon="4.54514">
        <ele>382.8</ele>
        <time>2024-04-06T09:26:33Z</time>
      </trkpt>
      <trkpt lat="49.94" lon="4.54523">
        <ele>382.8</ele>
        <time>2024-04-06T09:26:34Z</time>
      </trkpt>
      <trkpt lat="49.94005" lon="4.54532">
        <ele>382.8</ele>
        <time>2024-04-06T09:26:35Z</time>
      </trkpt>
      <trkpt lat="49.94011" lon="4.54541">
        <ele>382.6</ele>
        <time>2024-04-06T09:26:36Z</time>
      </trkpt>
      <trkpt lat="49.94017" lon="4.5455">
        <ele>382.6</ele>
        <time>2024-04-06T09:26:37Z</time>
      </trkpt>
      <trkpt lat="49.94022" lon="4.54559">
        <ele>382.6</ele>
        <time>2024-04-06T09:26:38Z</time>
      </trkpt>
      <trkpt lat="49.94028" lon="4.54568">
        <ele>382.4</ele>
        <time>2024-04-06T09:26:39Z</time>
      </trkpt>
      <trkpt lat="49.94034" lon="4.54578">
        <ele>382</ele>
        <time>2024-04-06T09:26:40Z</time>
      </trkpt>
      <trkpt lat="49.9404" lon="4.54587">
        <ele>382.2</ele>
        <time>2024-04-06T09:26:41Z</time>
      </trkpt>
      <trkpt lat="49.94046" lon="4.54597">
        <ele>381.8</ele>
        <time>2024-04-06T09:26:42Z</time>
      </trkpt>
      <trkpt lat="49.94052" lon="4.54606">
        <ele>381.4</ele>
        <time>2024-04-06T09:26:43Z</time>
      </trkpt>
      <trkpt lat="49.94058" lon="4.54616">
        <ele>380.8</ele>
        <time>2024-04-06T09:26:44Z</time>
      </trkpt>
      <trkpt lat="49.94064" lon="4.54625">
        <ele>380.4</ele>
        <time>2024-04-06T09:26:45Z</time>
      </trkpt>
      <trkpt lat="49.9407" lon="4.54635">
        <ele>380.2</ele>
        <time>2024-04-06T09:26:46Z</time>
      </trkpt>
      <trkpt lat="49.94076" lon="4.54645">
        <ele>379.8</ele>
        <time>2024-04-06T09:26:47Z</time>
      </trkpt>
      <trkpt lat="49.94081" lon="4.54654">
        <ele>379.6</ele>
        <time>2024-04-06T09:26:48Z</time>
      </trkpt>
      <trkpt lat="49.94088" lon="4.54664">
        <ele>379.6</ele>
        <time>2024-04-06T09:26:49Z</time>
      </trkpt>
      <trkpt lat="49.94093" lon="4.54674">
        <ele>379.2</ele>
        <time>2024-04-06T09:26:50Z</time>
      </trkpt>
      <trkpt lat="49.941" lon="4.54683">
        <ele>379.4</ele>
        <time>2024-04-06T09:26:51Z</time>
      </trkpt>
      <trkpt lat="49.94106" lon="4.54693">
        <ele>379.2</ele>
        <time>2024-04-06T09:26:52Z</time>
      </trkpt>
      <trkpt lat="49.94112" lon="4.54703">
        <ele>379</ele>
        <time>2024-04-06T09:26:53Z</time>
      </trkpt>
      <trkpt lat="49.94117" lon="4.54712">
        <ele>378.4</ele>
        <time>2024-04-06T09:26:54Z</time>
      </trkpt>
      <trkpt lat="49.94123" lon="4.54722">
        <ele>378.2</ele>
        <time>2024-04-06T09:26:55Z</time>
      </trkpt>
      <trkpt lat="49.94129" lon="4.54732">
        <ele>377.8</ele>
        <time>2024-04-06T09:26:56Z</time>
      </trkpt>
      <trkpt lat="49.94136" lon="4.54741">
        <ele>377.6</ele>
        <time>2024-04-06T09:26:57Z</time>
      </trkpt>
      <trkpt lat="49.94141" lon="4.54751">
        <ele>377.6</ele>
        <time>2024-04-06T09:26:58Z</time>
      </trkpt>
      <trkpt lat="49.94147" lon="4.5476">
        <ele>377.6</ele>
        <time>2024-04-06T09:26:59Z</time>
      </trkpt>
      <trkpt lat="49.94153" lon="4.54769">
        <ele>377.6</ele>
        <time>2024-04-06T09:27:00Z</time>
      </trkpt>
      <trkpt lat="49.94159" lon="4.54779">
        <ele>377.6</ele>
        <time>2024-04-06T09:27:01Z</time>
      </trkpt>
      <trkpt lat="49.94165" lon="4.54788">
        <ele>377.4</ele>
        <time>2024-04-06T09:27:02Z</time>
      </trkpt>
      <trkpt lat="49.94171" lon="4.54797">
        <ele>377.4</ele>
        <time>2024-04-06T09:27:03Z</time>
      </trkpt>
      <trkpt lat="49.94176" lon="4.54807">
        <ele>377.4</ele>
        <time>2024-04-06T09:27:04Z</time>
      </trkpt>
      <trkpt lat="49.94182" lon="4.54816">
        <ele>377.4</ele>
        <time>2024-04-06T09:27:05Z</time>
      </trkpt>
      <trkpt lat="49.94188" lon="4.54825">
        <ele>377.4</ele>
        <time>2024-04-06T09:27:06Z</time>
      </trkpt>
      <trkpt lat="49.94194" lon="4.54834">
        <ele>377.4</ele>
        <time>2024-04-06T09:27:07Z</time>
      </trkpt>
      <trkpt lat="49.94199" lon="4.54843">
        <ele>377.4</ele>
        <time>2024-04-06T09:27:08Z</time>
      </trkpt>
      <trkpt lat="49.94205" lon="4.54853">
        <ele>377.6</ele>
        <time>2024-04-06T09:27:09Z</time>
      </trkpt>
      <trkpt lat="49.94211" lon="4.54862">
        <ele>377.4</ele>
        <time>2024-04-06T09:27:10Z</time>
      </trkpt>
      <trkpt lat="49.94217" lon="4.54871">
        <ele>377.6</ele>
        <time>2024-04-06T09:27:11Z</time>
      </trkpt>
      <trkpt lat="49.94222" lon="4.5488">
        <ele>377.6</ele>
        <time>2024-04-06T09:27:12Z</time>
      </trkpt>
      <trkpt lat="49.94228" lon="4.54889">
        <ele>377.6</ele>
        <time>2024-04-06T09:27:13Z</time>
      </trkpt>
      <trkpt lat="49.94234" lon="4.54898">
        <ele>377.6</ele>
        <time>2024-04-06T09:27:14Z</time>
      </trkpt>
      <trkpt lat="49.94239" lon="4.54907">
        <ele>377.4</ele>
        <time>2024-04-06T09:27:15Z</time>
      </trkpt>
      <trkpt lat="49.94245" lon="4.54916">
        <ele>377.2</ele>
        <time>2024-04-06T09:27:16Z</time>
      </trkpt>
      <trkpt lat="49.94251" lon="4.54925">
        <ele>377.2</ele>
        <time>2024-04-06T09:27:17Z</time>
      </trkpt>
      <trkpt lat="49.94256" lon="4.54934">
        <ele>377.2</ele>
        <time>2024-04-06T09:27:18Z</time>
      </trkpt>
      <trkpt lat="49.94262" lon="4.54943">
        <ele>377</ele>
        <time>2024-04-06T09:27:19Z</time>
      </trkpt>
      <trkpt lat="49.94268" lon="4.54952">
        <ele>377</ele>
        <time>2024-04-06T09:27:20Z</time>
      </trkpt>
      <trkpt lat="49.94273" lon="4.54961">
        <ele>377</ele>
        <time>2024-04-06T09:27:21Z</time>
      </trkpt>
      <trkpt lat="49.94279" lon="4.5497">
        <ele>376.8</ele>
        <time>2024-04-06T09:27:22Z</time>
      </trkpt>
      <trkpt lat="49.94284" lon="4.54979">
        <ele>376.8</ele>
        <time>2024-04-06T09:27:23Z</time>
      </trkpt>
      <trkpt lat="49.9429" lon="4.54988">
        <ele>376.8</ele>
        <time>2024-04-06T09:27:24Z</time>
      </trkpt>
      <trkpt lat="49.94296" lon="4.54997">
        <ele>376.6</ele>
        <time>2024-04-06T09:27:25Z</time>
      </trkpt>
      <trkpt lat="49.94301" lon="4.55006">
        <ele>376.6</ele>
        <time>2024-04-06T09:27:26Z</time>
      </trkpt>
      <trkpt lat="49.94307" lon="4.55015">
        <ele>376.4</ele>
        <time>2024-04-06T09:27:27Z</time>
      </trkpt>
      <trkpt lat="49.94312" lon="4.55023">
        <ele>376.4</ele>
        <time>2024-04-06T09:27:28Z</time>
      </trkpt>
      <trkpt lat="49.94317" lon="4.55032">
        <ele>376</ele>
        <time>2024-04-06T09:27:29Z</time>
      </trkpt>
      <trkpt lat="49.94323" lon="4.5504">
        <ele>376</ele>
        <time>2024-04-06T09:27:30Z</time>
      </trkpt>
      <trkpt lat="49.94328" lon="4.55049">
        <ele>376</ele>
        <time>2024-04-06T09:27:31Z</time>
      </trkpt>
      <trkpt lat="49.94334" lon="4.55057">
        <ele>376.2</ele>
        <time>2024-04-06T09:27:32Z</time>
      </trkpt>
      <trkpt lat="49.94339" lon="4.55066">
        <ele>376.2</ele>
        <time>2024-04-06T09:27:33Z</time>
      </trkpt>
      <trkpt lat="49.94344" lon="4.55075">
        <ele>376.2</ele>
        <time>2024-04-06T09:27:34Z</time>
      </trkpt>
      <trkpt lat="49.9435" lon="4.55084">
        <ele>376.2</ele>
        <time>2024-04-06T09:27:35Z</time>
      </trkpt>
      <trkpt lat="49.94355" lon="4.55093">
        <ele>376.2</ele>
        <time>2024-04-06T09:27:36Z</time>
      </trkpt>
      <trkpt lat="49.94361" lon="4.55102">
        <ele>376.4</ele>
        <time>2024-04-06T09:27:37Z</time>
      </trkpt>
      <trkpt lat="49.94366" lon="4.5511">
        <ele>376.4</ele>
        <time>2024-04-06T09:27:38Z</time>
      </trkpt>
      <trkpt lat="49.94372" lon="4.55119">
        <ele>376.2</ele>
        <time>2024-04-06T09:27:39Z</time>
      </trkpt>
      <trkpt lat="49.94377" lon="4.55128">
        <ele>376</ele>
        <time>2024-04-06T09:27:40Z</time>
      </trkpt>
      <trkpt lat="49.94383" lon="4.55137">
        <ele>376</ele>
        <time>2024-04-06T09:27:41Z</time>
      </trkpt>
      <trkpt lat="49.94388" lon="4.55145">
        <ele>376</ele>
        <time>2024-04-06T09:27:42Z</time>
      </trkpt>
      <trkpt lat="49.94394" lon="4.55154">
        <ele>376</ele>
        <time>2024-04-06T09:27:43Z</time>
      </trkpt>
      <trkpt lat="49.94399" lon="4.55163">
        <ele>376</ele>
        <time>2024-04-06T09:27:44Z</time>
      </trkpt>
      <trkpt lat="49.94405" lon="4.55171">
        <ele>376</ele>
        <time>2024-04-06T09:27:45Z</time>
      </trkpt>
      <trkpt lat="49.9441" lon="4.5518">
        <ele>376</ele>
        <time>2024-04-06T09:27:46Z</time>
      </trkpt>
      <trkpt lat="49.94416" lon="4.55189">
        <ele>375.8</ele>
        <time>2024-04-06T09:27:47Z</time>
      </trkpt>
      <trkpt lat="49.94421" lon="4.55198">
        <ele>375.8</ele>
        <time>2024-04-06T09:27:48Z</time>
      </trkpt>
      <trkpt lat="49.94426" lon="4.55206">
        <ele>376</ele>
        <time>2024-04-06T09:27:49Z</time>
      </trkpt>
      <trkpt lat="49.94432" lon="4.55215">
        <ele>375.2</ele>
        <time>2024-04-06T09:27:50Z</time>
      </trkpt>
      <trkpt lat="49.94437" lon="4.55224">
        <ele>374.8</ele>
        <time>2024-04-06T09:27:51Z</time>
      </trkpt>
      <trkpt lat="49.94443" lon="4.55233">
        <ele>374.6</ele>
        <time>2024-04-06T09:27:52Z</time>
      </trkpt>
      <trkpt lat="49.94448" lon="4.55241">
        <ele>374.2</ele>
        <time>2024-04-06T09:27:53Z</time>
      </trkpt>
      <trkpt lat="49.94453" lon="4.5525">
        <ele>374.2</ele>
        <time>2024-04-06T09:27:54Z</time>
      </trkpt>
      <trkpt lat="49.94459" lon="4.55259">
        <ele>374</ele>
        <time>2024-04-06T09:27:55Z</time>
      </trkpt>
      <trkpt lat="49.94464" lon="4.55267">
        <ele>374</ele>
        <time>2024-04-06T09:27:56Z</time>
      </trkpt>
      <trkpt lat="49.94469" lon="4.55276">
        <ele>373.8</ele>
        <time>2024-04-06T09:27:57Z</time>
      </trkpt>
      <trkpt lat="49.94475" lon="4.55284">
        <ele>373.6</ele>
        <time>2024-04-06T09:27:58Z</time>
      </trkpt>
      <trkpt lat="49.9448" lon="4.55293">
        <ele>373.4</ele>
        <time>2024-04-06T09:27:59Z</time>
      </trkpt>
      <trkpt lat="49.94485" lon="4.55302">
        <ele>373.4</ele>
        <time>2024-04-06T09:28:00Z</time>
      </trkpt>
      <trkpt lat="49.94491" lon="4.5531">
        <ele>373.6</ele>
        <time>2024-04-06T09:28:01Z</time>
      </trkpt>
      <trkpt lat="49.94496" lon="4.55319">
        <ele>373.4</ele>
        <time>2024-04-06T09:28:02Z</time>
      </trkpt>
      <trkpt lat="49.94502" lon="4.55328">
        <ele>373.4</ele>
        <time>2024-04-06T09:28:03Z</time>
      </trkpt>
      <trkpt lat="49.94507" lon="4.55336">
        <ele>373.4</ele>
        <time>2024-04-06T09:28:04Z</time>
      </trkpt>
      <trkpt lat="49.94512" lon="4.55344">
        <ele>373.4</ele>
        <time>2024-04-06T09:28:05Z</time>
      </trkpt>
      <trkpt lat="49.94518" lon="4.55353">
        <ele>373.4</ele>
        <time>2024-04-06T09:28:06Z</time>
      </trkpt>
      <trkpt lat="49.94523" lon="4.55361">
        <ele>373.8</ele>
        <time>2024-04-06T09:28:07Z</time>
      </trkpt>
      <trkpt lat="49.94528" lon="4.5537">
        <ele>373.6</ele>
        <time>2024-04-06T09:28:08Z</time>
      </trkpt>
      <trkpt lat="49.94534" lon="4.55378">
        <ele>373.6</ele>
        <time>2024-04-06T09:28:09Z</time>
      </trkpt>
      <trkpt lat="49.94539" lon="4.55386">
        <ele>373.4</ele>
        <time>2024-04-06T09:28:10Z</time>
      </trkpt>
      <trkpt lat="49.94544" lon="4.55394">
        <ele>373.6</ele>
        <time>2024-04-06T09:28:11Z</time>
      </trkpt>
      <trkpt lat="49.94549" lon="4.55403">
        <ele>373.4</ele>
        <time>2024-04-06T09:28:12Z</time>
      </trkpt>
      <trkpt lat="49.94554" lon="4.55411">
        <ele>373.4</ele>
        <time>2024-04-06T09:28:13Z</time>
      </trkpt>
      <trkpt lat="49.94559" lon="4.55419">
        <ele>373.6</ele>
        <time>2024-04-06T09:28:14Z</time>
      </trkpt>
      <trkpt lat="49.94564" lon="4.55428">
        <ele>373.6</ele>
        <time>2024-04-06T09:28:15Z</time>
      </trkpt>
      <trkpt lat="49.94569" lon="4.55436">
        <ele>373.4</ele>
        <time>2024-04-06T09:28:16Z</time>
      </trkpt>
      <trkpt lat="49.94574" lon="4.55443">
        <ele>373.6</ele>
        <time>2024-04-06T09:28:17Z</time>
      </trkpt>
      <trkpt lat="49.94579" lon="4.55451">
        <ele>373.8</ele>
        <time>2024-04-06T09:28:18Z</time>
      </trkpt>
      <trkpt lat="49.94584" lon="4.5546">
        <ele>373.8</ele>
        <time>2024-04-06T09:28:19Z</time>
      </trkpt>
      <trkpt lat="49.94589" lon="4.55468">
        <ele>373.8</ele>
        <time>2024-04-06T09:28:20Z</time>
      </trkpt>
      <trkpt lat="49.94594" lon="4.55476">
        <ele>373.8</ele>
        <time>2024-04-06T09:28:21Z</time>
      </trkpt>
      <trkpt lat="49.94599" lon="4.55484">
        <ele>373.8</ele>
        <time>2024-04-06T09:28:22Z</time>
      </trkpt>
      <trkpt lat="49.94604" lon="4.55492">
        <ele>373.8</ele>
        <time>2024-04-06T09:28:23Z</time>
      </trkpt>
      <trkpt lat="49.94609" lon="4.55499">
        <ele>373.8</ele>
        <time>2024-04-06T09:28:24Z</time>
      </trkpt>
      <trkpt lat="49.94614" lon="4.55508">
        <ele>374</ele>
        <time>2024-04-06T09:28:25Z</time>
      </trkpt>
      <trkpt lat="49.94619" lon="4.55516">
        <ele>374.2</ele>
        <time>2024-04-06T09:28:26Z</time>
      </trkpt>
      <trkpt lat="49.94624" lon="4.55524">
        <ele>374.4</ele>
        <time>2024-04-06T09:28:27Z</time>
      </trkpt>
      <trkpt lat="49.9463" lon="4.55532">
        <ele>374.4</ele>
        <time>2024-04-06T09:28:28Z</time>
      </trkpt>
      <trkpt lat="49.94635" lon="4.5554">
        <ele>374.6</ele>
        <time>2024-04-06T09:28:29Z</time>
      </trkpt>
      <trkpt lat="49.9464" lon="4.55548">
        <ele>374.8</ele>
        <time>2024-04-06T09:28:30Z</time>
      </trkpt>
      <trkpt lat="49.94645" lon="4.55557">
        <ele>374.8</ele>
        <time>2024-04-06T09:28:31Z</time>
      </trkpt>
      <trkpt lat="49.9465" lon="4.55565">
        <ele>374.8</ele>
        <time>2024-04-06T09:28:32Z</time>
      </trkpt>
      <trkpt lat="49.94655" lon="4.55573">
        <ele>374.8</ele>
        <time>2024-04-06T09:28:33Z</time>
      </trkpt>
      <trkpt lat="49.9466" lon="4.55581">
        <ele>375</ele>
        <time>2024-04-06T09:28:34Z</time>
      </trkpt>
      <trkpt lat="49.94665" lon="4.55589">
        <ele>375</ele>
        <time>2024-04-06T09:28:35Z</time>
      </trkpt>
      <trkpt lat="49.9467" lon="4.55597">
        <ele>375</ele>
        <time>2024-04-06T09:28:36Z</time>
      </trkpt>
      <trkpt lat="49.94675" lon="4.55605">
        <ele>375.2</ele>
        <time>2024-04-06T09:28:37Z</time>
      </trkpt>
      <trkpt lat="49.9468" lon="4.55613">
        <ele>375</ele>
        <time>2024-04-06T09:28:38Z</time>
      </trkpt>
      <trkpt lat="49.94685" lon="4.55621">
        <ele>375.4</ele>
        <time>2024-04-06T09:28:39Z</time>
      </trkpt>
      <trkpt lat="49.9469" lon="4.55629">
        <ele>375.4</ele>
        <time>2024-04-06T09:28:40Z</time>
      </trkpt>
      <trkpt lat="49.94695" lon="4.55637">
        <ele>375.6</ele>
        <time>2024-04-06T09:28:41Z</time>
      </trkpt>
      <trkpt lat="49.947" lon="4.55645">
        <ele>375.4</ele>
        <time>2024-04-06T09:28:42Z</time>
      </trkpt>
      <trkpt lat="49.94705" lon="4.55653">
        <ele>375.6</ele>
        <time>2024-04-06T09:28:43Z</time>
      </trkpt>
      <trkpt lat="49.9471" lon="4.5566">
        <ele>375.6</ele>
        <time>2024-04-06T09:28:44Z</time>
      </trkpt>
      <trkpt lat="49.94715" lon="4.55668">
        <ele>375.6</ele>
        <time>2024-04-06T09:28:45Z</time>
      </trkpt>
      <trkpt lat="49.9472" lon="4.55676">
        <ele>375.6</ele>
        <time>2024-04-06T09:28:46Z</time>
      </trkpt>
      <trkpt lat="49.94725" lon="4.55683">
        <ele>375.6</ele>
        <time>2024-04-06T09:28:47Z</time>
      </trkpt>
      <trkpt lat="49.94729" lon="4.55691">
        <ele>375.8</ele>
        <time>2024-04-06T09:28:48Z</time>
      </trkpt>
      <trkpt lat="49.94734" lon="4.55699">
        <ele>376</ele>
        <time>2024-04-06T09:28:49Z</time>
      </trkpt>
      <trkpt lat="49.94739" lon="4.55707">
        <ele>376.2</ele>
        <time>2024-04-06T09:28:50Z</time>
      </trkpt>
      <trkpt lat="49.94744" lon="4.55714">
        <ele>376.4</ele>
        <time>2024-04-06T09:28:51Z</time>
      </trkpt>
      <trkpt lat="49.94748" lon="4.55722">
        <ele>376.2</ele>
        <time>2024-04-06T09:28:52Z</time>
      </trkpt>
      <trkpt lat="49.94753" lon="4.55729">
        <ele>376.6</ele>
        <time>2024-04-06T09:28:53Z</time>
      </trkpt>
      <trkpt lat="49.94758" lon="4.55737">
        <ele>376.4</ele>
        <time>2024-04-06T09:28:54Z</time>
      </trkpt>
      <trkpt lat="49.94763" lon="4.55744">
        <ele>376.4</ele>
        <time>2024-04-06T09:28:55Z</time>
      </trkpt>
      <trkpt lat="49.94767" lon="4.55752">
        <ele>376.4</ele>
        <time>2024-04-06T09:28:56Z</time>
      </trkpt>
      <trkpt lat="49.94772" lon="4.55759">
        <ele>376.6</ele>
        <time>2024-04-06T09:28:57Z</time>
      </trkpt>
      <trkpt lat="49.94777" lon="4.55767">
        <ele>376.6</ele>
        <time>2024-04-06T09:28:58Z</time>
      </trkpt>
      <trkpt lat="49.94781" lon="4.55774">
        <ele>376.4</ele>
        <time>2024-04-06T09:28:59Z</time>
      </trkpt>
      <trkpt lat="49.94786" lon="4.55782">
        <ele>376.6</ele>
        <time>2024-04-06T09:29:00Z</time>
      </trkpt>
      <trkpt lat="49.9479" lon="4.55789">
        <ele>376.6</ele>
        <time>2024-04-06T09:29:01Z</time>
      </trkpt>
      <trkpt lat="49.94795" lon="4.55796">
        <ele>376.4</ele>
        <time>2024-04-06T09:29:02Z</time>
      </trkpt>
      <trkpt lat="49.94799" lon="4.55803">
        <ele>376.6</ele>
        <time>2024-04-06T09:29:03Z</time>
      </trkpt>
      <trkpt lat="49.94804" lon="4.5581">
        <ele>376.6</ele>
        <time>2024-04-06T09:29:04Z</time>
      </trkpt>
      <trkpt lat="49.94809" lon="4.55817">
        <ele>376.6</ele>
        <time>2024-04-06T09:29:05Z</time>
      </trkpt>
      <trkpt lat="49.94813" lon="4.55825">
        <ele>376.6</ele>
        <time>2024-04-06T09:29:06Z</time>
      </trkpt>
      <trkpt lat="49.94817" lon="4.55832">
        <ele>376.8</ele>
        <time>2024-04-06T09:29:07Z</time>
      </trkpt>
      <trkpt lat="49.94822" lon="4.5584">
        <ele>376.6</ele>
        <time>2024-04-06T09:29:08Z</time>
      </trkpt>
      <trkpt lat="49.94826" lon="4.55848">
        <ele>376.8</ele>
        <time>2024-04-06T09:29:09Z</time>
      </trkpt>
      <trkpt lat="49.9483" lon="4.55856">
        <ele>377</ele>
        <time>2024-04-06T09:29:10Z</time>
      </trkpt>
      <trkpt lat="49.94834" lon="4.55864">
        <ele>377.2</ele>
        <time>2024-04-06T09:29:11Z</time>
      </trkpt>
      <trkpt lat="49.94838" lon="4.55873">
        <ele>377.4</ele>
        <time>2024-04-06T09:29:12Z</time>
      </trkpt>
      <trkpt lat="49.94842" lon="4.55882">
        <ele>377.4</ele>
        <time>2024-04-06T09:29:13Z</time>
      </trkpt>
      <trkpt lat="49.94845" lon="4.55892">
        <ele>377.4</ele>
        <time>2024-04-06T09:29:14Z</time>
      </trkpt>
      <trkpt lat="49.94847" lon="4.55902">
        <ele>377.6</ele>
        <time>2024-04-06T09:29:15Z</time>
      </trkpt>
      <trkpt lat="49.94849" lon="4.55911">
        <ele>377.6</ele>
        <time>2024-04-06T09:29:16Z</time>
      </trkpt>
      <trkpt lat="49.94851" lon="4.55921">
        <ele>377.6</ele>
        <time>2024-04-06T09:29:17Z</time>
      </trkpt>
      <trkpt lat="49.94853" lon="4.55931">
        <ele>377.6</ele>
        <time>2024-04-06T09:29:18Z</time>
      </trkpt>
      <trkpt lat="49.94854" lon="4.55941">
        <ele>377.8</ele>
        <time>2024-04-06T09:29:19Z</time>
      </trkpt>
      <trkpt lat="49.94856" lon="4.55951">
        <ele>377.6</ele>
        <time>2024-04-06T09:29:20Z</time>
      </trkpt>
      <trkpt lat="49.94858" lon="4.55961">
        <ele>377.8</ele>
        <time>2024-04-06T09:29:21Z</time>
      </trkpt>
      <trkpt lat="49.94859" lon="4.55971">
        <ele>377.8</ele>
        <time>2024-04-06T09:29:22Z</time>
      </trkpt>
      <trkpt lat="49.94861" lon="4.55982">
        <ele>377.6</ele>
        <time>2024-04-06T09:29:23Z</time>
      </trkpt>
      <trkpt lat="49.94863" lon="4.55993">
        <ele>377.6</ele>
        <time>2024-04-06T09:29:24Z</time>
      </trkpt>
      <trkpt lat="49.94864" lon="4.56003">
        <ele>377.6</ele>
        <time>2024-04-06T09:29:25Z</time>
      </trkpt>
      <trkpt lat="49.94866" lon="4.56014">
        <ele>377.6</ele>
        <time>2024-04-06T09:29:26Z</time>
      </trkpt>
      <trkpt lat="49.94867" lon="4.56025">
        <ele>377.4</ele>
        <time>2024-04-06T09:29:27Z</time>
      </trkpt>
      <trkpt lat="49.94869" lon="4.56036">
        <ele>377.4</ele>
        <time>2024-04-06T09:29:28Z</time>
      </trkpt>
      <trkpt lat="49.94871" lon="4.56047">
        <ele>377.4</ele>
        <time>2024-04-06T09:29:29Z</time>
      </trkpt>
      <trkpt lat="49.94873" lon="4.56058">
        <ele>377.4</ele>
        <time>2024-04-06T09:29:30Z</time>
      </trkpt>
      <trkpt lat="49.94874" lon="4.56069">
        <ele>377.2</ele>
        <time>2024-04-06T09:29:31Z</time>
      </trkpt>
      <trkpt lat="49.94876" lon="4.5608">
        <ele>377.2</ele>
        <time>2024-04-06T09:29:32Z</time>
      </trkpt>
      <trkpt lat="49.94878" lon="4.56091">
        <ele>377.2</ele>
        <time>2024-04-06T09:29:33Z</time>
      </trkpt>
      <trkpt lat="49.9488" lon="4.56103">
        <ele>377.2</ele>
        <time>2024-04-06T09:29:34Z</time>
      </trkpt>
      <trkpt lat="49.94882" lon="4.56114">
        <ele>377</ele>
        <time>2024-04-06T09:29:35Z</time>
      </trkpt>
      <trkpt lat="49.94884" lon="4.56126">
        <ele>377</ele>
        <time>2024-04-06T09:29:36Z</time>
      </trkpt>
      <trkpt lat="49.94886" lon="4.56138">
        <ele>377</ele>
        <time>2024-04-06T09:29:37Z</time>
      </trkpt>
      <trkpt lat="49.94889" lon="4.56149">
        <ele>377</ele>
        <time>2024-04-06T09:29:38Z</time>
      </trkpt>
      <trkpt lat="49.94891" lon="4.56161">
        <ele>376.8</ele>
        <time>2024-04-06T09:29:39Z</time>
      </trkpt>
      <trkpt lat="49.94893" lon="4.56172">
        <ele>376.8</ele>
        <time>2024-04-06T09:29:40Z</time>
      </trkpt>
      <trkpt lat="49.94895" lon="4.56184">
        <ele>377</ele>
        <time>2024-04-06T09:29:41Z</time>
      </trkpt>
      <trkpt lat="49.94896" lon="4.56195">
        <ele>376.8</ele>
        <time>2024-04-06T09:29:42Z</time>
      </trkpt>
      <trkpt lat="49.94898" lon="4.56206">
        <ele>376.6</ele>
        <time>2024-04-06T09:29:43Z</time>
      </trkpt>
      <trkpt lat="49.949" lon="4.56218">
        <ele>376.6</ele>
        <time>2024-04-06T09:29:44Z</time>
      </trkpt>
      <trkpt lat="49.94901" lon="4.56228">
        <ele>376.6</ele>
        <time>2024-04-06T09:29:45Z</time>
      </trkpt>
      <trkpt lat="49.94903" lon="4.56239">
        <ele>376.4</ele>
        <time>2024-04-06T09:29:46Z</time>
      </trkpt>
      <trkpt lat="49.94905" lon="4.5625">
        <ele>376.4</ele>
        <time>2024-04-06T09:29:47Z</time>
      </trkpt>
      <trkpt lat="49.94906" lon="4.56261">
        <ele>376</ele>
        <time>2024-04-06T09:29:48Z</time>
      </trkpt>
      <trkpt lat="49.94908" lon="4.56272">
        <ele>375.8</ele>
        <time>2024-04-06T09:29:49Z</time>
      </trkpt>
      <trkpt lat="49.9491" lon="4.56284">
        <ele>375.6</ele>
        <time>2024-04-06T09:29:50Z</time>
      </trkpt>
      <trkpt lat="49.94912" lon="4.56296">
        <ele>375.4</ele>
        <time>2024-04-06T09:29:51Z</time>
      </trkpt>
      <trkpt lat="49.94914" lon="4.56307">
        <ele>375.2</ele>
        <time>2024-04-06T09:29:52Z</time>
      </trkpt>
      <trkpt lat="49.94916" lon="4.56318">
        <ele>374.6</ele>
        <time>2024-04-06T09:29:53Z</time>
      </trkpt>
      <trkpt lat="49.94917" lon="4.5633">
        <ele>374</ele>
        <time>2024-04-06T09:29:54Z</time>
      </trkpt>
      <trkpt lat="49.9492" lon="4.56341">
        <ele>373.8</ele>
        <time>2024-04-06T09:29:55Z</time>
      </trkpt>
      <trkpt lat="49.94921" lon="4.56353">
        <ele>373.8</ele>
        <time>2024-04-06T09:29:56Z</time>
      </trkpt>
      <trkpt lat="49.94924" lon="4.56365">
        <ele>373.6</ele>
        <time>2024-04-06T09:29:57Z</time>
      </trkpt>
      <trkpt lat="49.94926" lon="4.56376">
        <ele>373.6</ele>
        <time>2024-04-06T09:29:58Z</time>
      </trkpt>
      <trkpt lat="49.94928" lon="4.56388">
        <ele>373.4</ele>
        <time>2024-04-06T09:29:59Z</time>
      </trkpt>
      <trkpt lat="49.9493" lon="4.56399">
        <ele>373.4</ele>
        <time>2024-04-06T09:30:00Z</time>
      </trkpt>
      <trkpt lat="49.94932" lon="4.56411">
        <ele>373.4</ele>
        <time>2024-04-06T09:30:01Z</time>
      </trkpt>
      <trkpt lat="49.94935" lon="4.56423">
        <ele>373.2</ele>
        <time>2024-04-06T09:30:02Z</time>
      </trkpt>
      <trkpt lat="49.94937" lon="4.56436">
        <ele>373.2</ele>
        <time>2024-04-06T09:30:03Z</time>
      </trkpt>
      <trkpt lat="49.94939" lon="4.56448">
        <ele>373</ele>
        <time>2024-04-06T09:30:04Z</time>
      </trkpt>
      <trkpt lat="49.9494" lon="4.56459">
        <ele>373</ele>
        <time>2024-04-06T09:30:05Z</time>
      </trkpt>
      <trkpt lat="49.94942" lon="4.56471">
        <ele>372.6</ele>
        <time>2024-04-06T09:30:06Z</time>
      </trkpt>
      <trkpt lat="49.94944" lon="4.56482">
        <ele>372.6</ele>
        <time>2024-04-06T09:30:07Z</time>
      </trkpt>
      <trkpt lat="49.94946" lon="4.56494">
        <ele>372.4</ele>
        <time>2024-04-06T09:30:08Z</time>
      </trkpt>
      <trkpt lat="49.94948" lon="4.56505">
        <ele>372.2</ele>
        <time>2024-04-06T09:30:09Z</time>
      </trkpt>
      <trkpt lat="49.9495" lon="4.56517">
        <ele>372.2</ele>
        <time>2024-04-06T09:30:10Z</time>
      </trkpt>
      <trkpt lat="49.94952" lon="4.56528">
        <ele>372</ele>
        <time>2024-04-06T09:30:11Z</time>
      </trkpt>
      <trkpt lat="49.94954" lon="4.5654">
        <ele>372</ele>
        <time>2024-04-06T09:30:12Z</time>
      </trkpt>
      <trkpt lat="49.94956" lon="4.56552">
        <ele>372.2</ele>
        <time>2024-04-06T09:30:13Z</time>
      </trkpt>
      <trkpt lat="49.94958" lon="4.56563">
        <ele>372</ele>
        <time>2024-04-06T09:30:14Z</time>
      </trkpt>
      <trkpt lat="49.9496" lon="4.56574">
        <ele>372</ele>
        <time>2024-04-06T09:30:15Z</time>
      </trkpt>
      <trkpt lat="49.94962" lon="4.56586">
        <ele>372</ele>
        <time>2024-04-06T09:30:16Z</time>
      </trkpt>
      <trkpt lat="49.94964" lon="4.56597">
        <ele>372</ele>
        <time>2024-04-06T09:30:17Z</time>
      </trkpt>
      <trkpt lat="49.94965" lon="4.56608">
        <ele>372</ele>
        <time>2024-04-06T09:30:18Z</time>
      </trkpt>
      <trkpt lat="49.94967" lon="4.56619">
        <ele>371.8</ele>
        <time>2024-04-06T09:30:19Z</time>
      </trkpt>
      <trkpt lat="49.94969" lon="4.5663">
        <ele>371.8</ele>
        <time>2024-04-06T09:30:20Z</time>
      </trkpt>
      <trkpt lat="49.9497" lon="4.56641">
        <ele>372</ele>
        <time>2024-04-06T09:30:21Z</time>
      </trkpt>
      <trkpt lat="49.94972" lon="4.56652">
        <ele>372</ele>
        <time>2024-04-06T09:30:22Z</time>
      </trkpt>
      <trkpt lat="49.94974" lon="4.56662">
        <ele>372</ele>
        <time>2024-04-06T09:30:23Z</time>
      </trkpt>
      <trkpt lat="49.94976" lon="4.56673">
        <ele>372</ele>
        <time>2024-04-06T09:30:24Z</time>
      </trkpt>
      <trkpt lat="49.94978" lon="4.56683">
        <ele>372</ele>
        <time>2024-04-06T09:30:25Z</time>
      </trkpt>
      <trkpt lat="49.9498" lon="4.56694">
        <ele>372</ele>
        <time>2024-04-06T09:30:26Z</time>
      </trkpt>
      <trkpt lat="49.94982" lon="4.56704">
        <ele>372</ele>
        <time>2024-04-06T09:30:27Z</time>
      </trkpt>
      <trkpt lat="49.94984" lon="4.56715">
        <ele>372.2</ele>
        <time>2024-04-06T09:30:28Z</time>
      </trkpt>
      <trkpt lat="49.94986" lon="4.56725">
        <ele>372.2</ele>
        <time>2024-04-06T09:30:29Z</time>
      </trkpt>
      <trkpt lat="49.94987" lon="4.56736">
        <ele>372.6</ele>
        <time>2024-04-06T09:30:30Z</time>
      </trkpt>
      <trkpt lat="49.94989" lon="4.56746">
        <ele>373.4</ele>
        <time>2024-04-06T09:30:31Z</time>
      </trkpt>
      <trkpt lat="49.94992" lon="4.56756">
        <ele>373.8</ele>
        <time>2024-04-06T09:30:32Z</time>
      </trkpt>
      <trkpt lat="49.94994" lon="4.56767">
        <ele>374.2</ele>
        <time>2024-04-06T09:30:33Z</time>
      </trkpt>
      <trkpt lat="49.94996" lon="4.56777">
        <ele>374.4</ele>
        <time>2024-04-06T09:30:34Z</time>
      </trkpt>
      <trkpt lat="49.94998" lon="4.56788">
        <ele>374.4</ele>
        <time>2024-04-06T09:30:35Z</time>
      </trkpt>
      <trkpt lat="49.95" lon="4.56799">
        <ele>374.8</ele>
        <time>2024-04-06T09:30:36Z</time>
      </trkpt>
      <trkpt lat="49.95003" lon="4.56809">
        <ele>374.8</ele>
        <time>2024-04-06T09:30:37Z</time>
      </trkpt>
      <trkpt lat="49.95005" lon="4.5682">
        <ele>374.8</ele>
        <time>2024-04-06T09:30:38Z</time>
      </trkpt>
      <trkpt lat="49.95007" lon="4.5683">
        <ele>375</ele>
        <time>2024-04-06T09:30:39Z</time>
      </trkpt>
      <trkpt lat="49.95009" lon="4.5684">
        <ele>375.2</ele>
        <time>2024-04-06T09:30:40Z</time>
      </trkpt>
      <trkpt lat="49.95011" lon="4.5685">
        <ele>375.2</ele>
        <time>2024-04-06T09:30:41Z</time>
      </trkpt>
      <trkpt lat="49.95013" lon="4.5686">
        <ele>375.2</ele>
        <time>2024-04-06T09:30:42Z</time>
      </trkpt>
      <trkpt lat="49.95015" lon="4.5687">
        <ele>375.4</ele>
        <time>2024-04-06T09:30:43Z</time>
      </trkpt>
      <trkpt lat="49.95016" lon="4.5688">
        <ele>375.4</ele>
        <time>2024-04-06T09:30:44Z</time>
      </trkpt>
      <trkpt lat="49.95018" lon="4.5689">
        <ele>375.4</ele>
        <time>2024-04-06T09:30:45Z</time>
      </trkpt>
      <trkpt lat="49.95019" lon="4.569">
        <ele>375.6</ele>
        <time>2024-04-06T09:30:46Z</time>
      </trkpt>
      <trkpt lat="49.95021" lon="4.56909">
        <ele>375.6</ele>
        <time>2024-04-06T09:30:47Z</time>
      </trkpt>
      <trkpt lat="49.95023" lon="4.56919">
        <ele>375.6</ele>
        <time>2024-04-06T09:30:48Z</time>
      </trkpt>
      <trkpt lat="49.95024" lon="4.56929">
        <ele>376</ele>
        <time>2024-04-06T09:30:49Z</time>
      </trkpt>
      <trkpt lat="49.95026" lon="4.56939">
        <ele>376.2</ele>
        <time>2024-04-06T09:30:50Z</time>
      </trkpt>
      <trkpt lat="49.95028" lon="4.56949">
        <ele>376.2</ele>
        <time>2024-04-06T09:30:51Z</time>
      </trkpt>
      <trkpt lat="49.9503" lon="4.56958">
        <ele>376.4</ele>
        <time>2024-04-06T09:30:52Z</time>
      </trkpt>
      <trkpt lat="49.95032" lon="4.56968">
        <ele>376.4</ele>
        <time>2024-04-06T09:30:53Z</time>
      </trkpt>
      <trkpt lat="49.95033" lon="4.56977">
        <ele>376.2</ele>
        <time>2024-04-06T09:30:54Z</time>
      </trkpt>
      <trkpt lat="49.95035" lon="4.56987">
        <ele>376.4</ele>
        <time>2024-04-06T09:30:55Z</time>
      </trkpt>
      <trkpt lat="49.95037" lon="4.56997">
        <ele>376.6</ele>
        <time>2024-04-06T09:30:56Z</time>
      </trkpt>
      <trkpt lat="49.95038" lon="4.57006">
        <ele>376.4</ele>
        <time>2024-04-06T09:30:57Z</time>
      </trkpt>
      <trkpt lat="49.9504" lon="4.57016">
        <ele>376.4</ele>
        <time>2024-04-06T09:30:58Z</time>
      </trkpt>
      <trkpt lat="49.95042" lon="4.57026">
        <ele>376.6</ele>
        <time>2024-04-06T09:30:59Z</time>
      </trkpt>
      <trkpt lat="49.95044" lon="4.57035">
        <ele>376.4</ele>
        <time>2024-04-06T09:31:00Z</time>
      </trkpt>
      <trkpt lat="49.95046" lon="4.57045">
        <ele>376.6</ele>
        <time>2024-04-06T09:31:01Z</time>
      </trkpt>
      <trkpt lat="49.95047" lon="4.57054">
        <ele>376.6</ele>
        <time>2024-04-06T09:31:02Z</time>
      </trkpt>
      <trkpt lat="49.95048" lon="4.57064">
        <ele>376.6</ele>
        <time>2024-04-06T09:31:03Z</time>
      </trkpt>
      <trkpt lat="49.9505" lon="4.57073">
        <ele>376.6</ele>
        <time>2024-04-06T09:31:04Z</time>
      </trkpt>
      <trkpt lat="49.95051" lon="4.57082">
        <ele>376.8</ele>
        <time>2024-04-06T09:31:05Z</time>
      </trkpt>
      <trkpt lat="49.95053" lon="4.57091">
        <ele>376.8</ele>
        <time>2024-04-06T09:31:06Z</time>
      </trkpt>
      <trkpt lat="49.95055" lon="4.571">
        <ele>377.4</ele>
        <time>2024-04-06T09:31:07Z</time>
      </trkpt>
      <trkpt lat="49.95056" lon="4.57109">
        <ele>377.6</ele>
        <time>2024-04-06T09:31:08Z</time>
      </trkpt>
      <trkpt lat="49.95058" lon="4.57118">
        <ele>378</ele>
        <time>2024-04-06T09:31:09Z</time>
      </trkpt>
      <trkpt lat="49.95059" lon="4.57128">
        <ele>378.4</ele>
        <time>2024-04-06T09:31:10Z</time>
      </trkpt>
      <trkpt lat="49.95061" lon="4.57137">
        <ele>378.8</ele>
        <time>2024-04-06T09:31:11Z</time>
      </trkpt>
      <trkpt lat="49.95063" lon="4.57146">
        <ele>379</ele>
        <time>2024-04-06T09:31:12Z</time>
      </trkpt>
      <trkpt lat="49.95065" lon="4.57156">
        <ele>379.2</ele>
        <time>2024-04-06T09:31:13Z</time>
      </trkpt>
      <trkpt lat="49.95067" lon="4.57165">
        <ele>379.2</ele>
        <time>2024-04-06T09:31:14Z</time>
      </trkpt>
      <trkpt lat="49.95068" lon="4.57175">
        <ele>379.4</ele>
        <time>2024-04-06T09:31:15Z</time>
      </trkpt>
      <trkpt lat="49.9507" lon="4.57185">
        <ele>379.2</ele>
        <time>2024-04-06T09:31:16Z</time>
      </trkpt>
      <trkpt lat="49.95072" lon="4.57195">
        <ele>379.4</ele>
        <time>2024-04-06T09:31:17Z</time>
      </trkpt>
      <trkpt lat="49.95074" lon="4.57205">
        <ele>379.4</ele>
        <time>2024-04-06T09:31:18Z</time>
      </trkpt>
      <trkpt lat="49.95076" lon="4.57215">
        <ele>379.4</ele>
        <time>2024-04-06T09:31:19Z</time>
      </trkpt>
      <trkpt lat="49.95077" lon="4.57225">
        <ele>379.4</ele>
        <time>2024-04-06T09:31:20Z</time>
      </trkpt>
      <trkpt lat="49.95079" lon="4.57235">
        <ele>379.4</ele>
        <time>2024-04-06T09:31:21Z</time>
      </trkpt>
      <trkpt lat="49.95081" lon="4.57245">
        <ele>379.4</ele>
        <time>2024-04-06T09:31:22Z</time>
      </trkpt>
      <trkpt lat="49.95083" lon="4.57255">
        <ele>379.4</ele>
        <time>2024-04-06T09:31:23Z</time>
      </trkpt>
      <trkpt lat="49.95085" lon="4.57265">
        <ele>379.2</ele>
        <time>2024-04-06T09:31:24Z</time>
      </trkpt>
      <trkpt lat="49.95086" lon="4.57275">
        <ele>379.4</ele>
        <time>2024-04-06T09:31:25Z</time>
      </trkpt>
      <trkpt lat="49.95088" lon="4.57286">
        <ele>379.4</ele>
        <time>2024-04-06T09:31:26Z</time>
      </trkpt>
      <trkpt lat="49.9509" lon="4.57296">
        <ele>379.4</ele>
        <time>2024-04-06T09:31:27Z</time>
      </trkpt>
      <trkpt lat="49.95092" lon="4.57306">
        <ele>379.6</ele>
        <time>2024-04-06T09:31:28Z</time>
      </trkpt>
      <trkpt lat="49.95094" lon="4.57317">
        <ele>379.4</ele>
        <time>2024-04-06T09:31:29Z</time>
      </trkpt>
      <trkpt lat="49.95096" lon="4.57327">
        <ele>379.4</ele>
        <time>2024-04-06T09:31:30Z</time>
      </trkpt>
      <trkpt lat="49.95098" lon="4.57338">
        <ele>379.4</ele>
        <time>2024-04-06T09:31:31Z</time>
      </trkpt>
      <trkpt lat="49.951" lon="4.57348">
        <ele>379.4</ele>
        <time>2024-04-06T09:31:32Z</time>
      </trkpt>
      <trkpt lat="49.95102" lon="4.57359">
        <ele>379.4</ele>
        <time>2024-04-06T09:31:33Z</time>
      </trkpt>
      <trkpt lat="49.95104" lon="4.57369">
        <ele>379.4</ele>
        <time>2024-04-06T09:31:34Z</time>
      </trkpt>
      <trkpt lat="49.95106" lon="4.5738">
        <ele>379.2</ele>
        <time>2024-04-06T09:31:35Z</time>
      </trkpt>
      <trkpt lat="49.95107" lon="4.57391">
        <ele>379</ele>
        <time>2024-04-06T09:31:36Z</time>
      </trkpt>
      <trkpt lat="49.95109" lon="4.57401">
        <ele>379</ele>
        <time>2024-04-06T09:31:37Z</time>
      </trkpt>
      <trkpt lat="49.95111" lon="4.57412">
        <ele>379</ele>
        <time>2024-04-06T09:31:38Z</time>
      </trkpt>
      <trkpt lat="49.95113" lon="4.57422">
        <ele>379</ele>
        <time>2024-04-06T09:31:39Z</time>
      </trkpt>
      <trkpt lat="49.95115" lon="4.57433">
        <ele>379</ele>
        <time>2024-04-06T09:31:40Z</time>
      </trkpt>
      <trkpt lat="49.95117" lon="4.57443">
        <ele>379</ele>
        <time>2024-04-06T09:31:41Z</time>
      </trkpt>
      <trkpt lat="49.95119" lon="4.57454">
        <ele>379</ele>
        <time>2024-04-06T09:31:42Z</time>
      </trkpt>
      <trkpt lat="49.95121" lon="4.57465">
        <ele>378.8</ele>
        <time>2024-04-06T09:31:43Z</time>
      </trkpt>
      <trkpt lat="49.95123" lon="4.57475">
        <ele>378.6</ele>
        <time>2024-04-06T09:31:44Z</time>
      </trkpt>
      <trkpt lat="49.95125" lon="4.57486">
        <ele>378.4</ele>
        <time>2024-04-06T09:31:45Z</time>
      </trkpt>
      <trkpt lat="49.95127" lon="4.57496">
        <ele>378.2</ele>
        <time>2024-04-06T09:31:46Z</time>
      </trkpt>
      <trkpt lat="49.95128" lon="4.57507">
        <ele>378.2</ele>
        <time>2024-04-06T09:31:47Z</time>
      </trkpt>
      <trkpt lat="49.9513" lon="4.57518">
        <ele>378.2</ele>
        <time>2024-04-06T09:31:48Z</time>
      </trkpt>
      <trkpt lat="49.95132" lon="4.57529">
        <ele>378.2</ele>
        <time>2024-04-06T09:31:49Z</time>
      </trkpt>
      <trkpt lat="49.95134" lon="4.57539">
        <ele>378.2</ele>
        <time>2024-04-06T09:31:50Z</time>
      </trkpt>
      <trkpt lat="49.95136" lon="4.5755">
        <ele>378.2</ele>
        <time>2024-04-06T09:31:51Z</time>
      </trkpt>
      <trkpt lat="49.95138" lon="4.5756">
        <ele>378.2</ele>
        <time>2024-04-06T09:31:52Z</time>
      </trkpt>
      <trkpt lat="49.9514" lon="4.57571">
        <ele>378.2</ele>
        <time>2024-04-06T09:31:53Z</time>
      </trkpt>
      <trkpt lat="49.95142" lon="4.57581">
        <ele>378.2</ele>
        <time>2024-04-06T09:31:54Z</time>
      </trkpt>
      <trkpt lat="49.95143" lon="4.57591">
        <ele>378.2</ele>
        <time>2024-04-06T09:31:55Z</time>
      </trkpt>
      <trkpt lat="49.95145" lon="4.57601">
        <ele>378.2</ele>
        <time>2024-04-06T09:31:56Z</time>
      </trkpt>
      <trkpt lat="49.95148" lon="4.5761">
        <ele>378.2</ele>
        <time>2024-04-06T09:31:57Z</time>
      </trkpt>
      <trkpt lat="49.9515" lon="4.5762">
        <ele>378.2</ele>
        <time>2024-04-06T09:31:58Z</time>
      </trkpt>
      <trkpt lat="49.95153" lon="4.57629">
        <ele>378.4</ele>
        <time>2024-04-06T09:31:59Z</time>
      </trkpt>
      <trkpt lat="49.95155" lon="4.57639">
        <ele>378.4</ele>
        <time>2024-04-06T09:32:00Z</time>
      </trkpt>
      <trkpt lat="49.95158" lon="4.57648">
        <ele>378.4</ele>
        <time>2024-04-06T09:32:01Z</time>
      </trkpt>
      <trkpt lat="49.95161" lon="4.57657">
        <ele>378.4</ele>
        <time>2024-04-06T09:32:02Z</time>
      </trkpt>
      <trkpt lat="49.95165" lon="4.57666">
        <ele>378.4</ele>
        <time>2024-04-06T09:32:03Z</time>
      </trkpt>
      <trkpt lat="49.95168" lon="4.57675">
        <ele>378.4</ele>
        <time>2024-04-06T09:32:04Z</time>
      </trkpt>
      <trkpt lat="49.95172" lon="4.57684">
        <ele>378.4</ele>
        <time>2024-04-06T09:32:05Z</time>
      </trkpt>
      <trkpt lat="49.95176" lon="4.57693">
        <ele>378.6</ele>
        <time>2024-04-06T09:32:06Z</time>
      </trkpt>
      <trkpt lat="49.9518" lon="4.57702">
        <ele>378.4</ele>
        <time>2024-04-06T09:32:07Z</time>
      </trkpt>
      <trkpt lat="49.95184" lon="4.5771">
        <ele>378.4</ele>
        <time>2024-04-06T09:32:08Z</time>
      </trkpt>
      <trkpt lat="49.95188" lon="4.57719">
        <ele>378.2</ele>
        <time>2024-04-06T09:32:09Z</time>
      </trkpt>
      <trkpt lat="49.95192" lon="4.57728">
        <ele>378.2</ele>
        <time>2024-04-06T09:32:10Z</time>
      </trkpt>
      <trkpt lat="49.95196" lon="4.57737">
        <ele>378.4</ele>
        <time>2024-04-06T09:32:11Z</time>
      </trkpt>
      <trkpt lat="49.952" lon="4.57746">
        <ele>378.4</ele>
        <time>2024-04-06T09:32:12Z</time>
      </trkpt>
      <trkpt lat="49.95205" lon="4.57755">
        <ele>378.2</ele>
        <time>2024-04-06T09:32:13Z</time>
      </trkpt>
      <trkpt lat="49.95209" lon="4.57764">
        <ele>378.4</ele>
        <time>2024-04-06T09:32:14Z</time>
      </trkpt>
      <trkpt lat="49.95214" lon="4.57773">
        <ele>378.2</ele>
        <time>2024-04-06T09:32:15Z</time>
      </trkpt>
      <trkpt lat="49.95218" lon="4.57783">
        <ele>378.4</ele>
        <time>2024-04-06T09:32:16Z</time>
      </trkpt>
      <trkpt lat="49.95223" lon="4.57792">
        <ele>378.2</ele>
        <time>2024-04-06T09:32:17Z</time>
      </trkpt>
      <trkpt lat="49.95227" lon="4.57801">
        <ele>378.2</ele>
        <time>2024-04-06T09:32:18Z</time>
      </trkpt>
      <trkpt lat="49.95232" lon="4.5781">
        <ele>378</ele>
        <time>2024-04-06T09:32:19Z</time>
      </trkpt>
      <trkpt lat="49.95236" lon="4.5782">
        <ele>378.2</ele>
        <time>2024-04-06T09:32:20Z</time>
      </trkpt>
      <trkpt lat="49.95241" lon="4.57829">
        <ele>378.2</ele>
        <time>2024-04-06T09:32:21Z</time>
      </trkpt>
      <trkpt lat="49.95246" lon="4.57839">
        <ele>378</ele>
        <time>2024-04-06T09:32:22Z</time>
      </trkpt>
      <trkpt lat="49.9525" lon="4.57848">
        <ele>378</ele>
        <time>2024-04-06T09:32:23Z</time>
      </trkpt>
      <trkpt lat="49.95255" lon="4.57858">
        <ele>378</ele>
        <time>2024-04-06T09:32:24Z</time>
      </trkpt>
      <trkpt lat="49.9526" lon="4.57868">
        <ele>377.8</ele>
        <time>2024-04-06T09:32:25Z</time>
      </trkpt>
      <trkpt lat="49.95264" lon="4.57877">
        <ele>378</ele>
        <time>2024-04-06T09:32:26Z</time>
      </trkpt>
      <trkpt lat="49.95269" lon="4.57887">
        <ele>377.8</ele>
        <time>2024-04-06T09:32:27Z</time>
      </trkpt>
      <trkpt lat="49.95274" lon="4.57897">
        <ele>377.8</ele>
        <time>2024-04-06T09:32:28Z</time>
      </trkpt>
      <trkpt lat="49.95279" lon="4.57907">
        <ele>377.8</ele>
        <time>2024-04-06T09:32:29Z</time>
      </trkpt>
      <trkpt lat="49.95283" lon="4.57916">
        <ele>377.6</ele>
        <time>2024-04-06T09:32:30Z</time>
      </trkpt>
      <trkpt lat="49.95288" lon="4.57926">
        <ele>377.6</ele>
        <time>2024-04-06T09:32:31Z</time>
      </trkpt>
      <trkpt lat="49.95293" lon="4.57936">
        <ele>377.4</ele>
        <time>2024-04-06T09:32:32Z</time>
      </trkpt>
      <trkpt lat="49.95298" lon="4.57946">
        <ele>377.4</ele>
        <time>2024-04-06T09:32:33Z</time>
      </trkpt>
      <trkpt lat="49.95303" lon="4.57956">
        <ele>377</ele>
        <time>2024-04-06T09:32:34Z</time>
      </trkpt>
      <trkpt lat="49.95308" lon="4.57966">
        <ele>377</ele>
        <time>2024-04-06T09:32:35Z</time>
      </trkpt>
      <trkpt lat="49.95312" lon="4.57976">
        <ele>376.6</ele>
        <time>2024-04-06T09:32:36Z</time>
      </trkpt>
      <trkpt lat="49.95317" lon="4.57985">
        <ele>376.6</ele>
        <time>2024-04-06T09:32:37Z</time>
      </trkpt>
      <trkpt lat="49.95322" lon="4.57995">
        <ele>376</ele>
        <time>2024-04-06T09:32:38Z</time>
      </trkpt>
      <trkpt lat="49.95327" lon="4.58005">
        <ele>375.8</ele>
        <time>2024-04-06T09:32:39Z</time>
      </trkpt>
      <trkpt lat="49.95331" lon="4.58015">
        <ele>375.4</ele>
        <time>2024-04-06T09:32:40Z</time>
      </trkpt>
      <trkpt lat="49.95336" lon="4.58025">
        <ele>375.4</ele>
        <time>2024-04-06T09:32:41Z</time>
      </trkpt>
      <trkpt lat="49.95341" lon="4.58035">
        <ele>375.4</ele>
        <time>2024-04-06T09:32:42Z</time>
      </trkpt>
      <trkpt lat="49.95346" lon="4.58045">
        <ele>375.2</ele>
        <time>2024-04-06T09:32:43Z</time>
      </trkpt>
      <trkpt lat="49.95351" lon="4.58054">
        <ele>375.2</ele>
        <time>2024-04-06T09:32:44Z</time>
      </trkpt>
      <trkpt lat="49.95355" lon="4.58064">
        <ele>375</ele>
        <time>2024-04-06T09:32:45Z</time>
      </trkpt>
      <trkpt lat="49.9536" lon="4.58074">
        <ele>375.2</ele>
        <time>2024-04-06T09:32:46Z</time>
      </trkpt>
      <trkpt lat="49.95365" lon="4.58084">
        <ele>375</ele>
        <time>2024-04-06T09:32:47Z</time>
      </trkpt>
      <trkpt lat="49.95369" lon="4.58094">
        <ele>375</ele>
        <time>2024-04-06T09:32:48Z</time>
      </trkpt>
      <trkpt lat="49.95374" lon="4.58104">
        <ele>375</ele>
        <time>2024-04-06T09:32:49Z</time>
      </trkpt>
      <trkpt lat="49.95379" lon="4.58114">
        <ele>374.8</ele>
        <time>2024-04-06T09:32:50Z</time>
      </trkpt>
      <trkpt lat="49.95384" lon="4.58124">
        <ele>375</ele>
        <time>2024-04-06T09:32:51Z</time>
      </trkpt>
      <trkpt lat="49.95389" lon="4.58134">
        <ele>375</ele>
        <time>2024-04-06T09:32:52Z</time>
      </trkpt>
      <trkpt lat="49.95393" lon="4.58144">
        <ele>375</ele>
        <time>2024-04-06T09:32:53Z</time>
      </trkpt>
      <trkpt lat="49.95398" lon="4.58154">
        <ele>375</ele>
        <time>2024-04-06T09:32:54Z</time>
      </trkpt>
      <trkpt lat="49.95403" lon="4.58164">
        <ele>374.8</ele>
        <time>2024-04-06T09:32:55Z</time>
      </trkpt>
      <trkpt lat="49.95407" lon="4.58173">
        <ele>375</ele>
        <time>2024-04-06T09:32:56Z</time>
      </trkpt>
      <trkpt lat="49.95412" lon="4.58183">
        <ele>374.8</ele>
        <time>2024-04-06T09:32:57Z</time>
      </trkpt>
      <trkpt lat="49.95416" lon="4.58192">
        <ele>374.8</ele>
        <time>2024-04-06T09:32:58Z</time>
      </trkpt>
      <trkpt lat="49.95421" lon="4.58201">
        <ele>375</ele>
        <time>2024-04-06T09:32:59Z</time>
      </trkpt>
      <trkpt lat="49.95426" lon="4.58211">
        <ele>374.8</ele>
        <time>2024-04-06T09:33:00Z</time>
      </trkpt>
      <trkpt lat="49.9543" lon="4.5822">
        <ele>374.8</ele>
        <time>2024-04-06T09:33:01Z</time>
      </trkpt>
      <trkpt lat="49.95434" lon="4.58229">
        <ele>374.8</ele>
        <time>2024-04-06T09:33:02Z</time>
      </trkpt>
      <trkpt lat="49.95439" lon="4.58237">
        <ele>374.8</ele>
        <time>2024-04-06T09:33:03Z</time>
      </trkpt>
      <trkpt lat="49.95443" lon="4.58245">
        <ele>374.8</ele>
        <time>2024-04-06T09:33:04Z</time>
      </trkpt>
      <trkpt lat="49.95447" lon="4.58254">
        <ele>374.8</ele>
        <time>2024-04-06T09:33:05Z</time>
      </trkpt>
      <trkpt lat="49.9545" lon="4.58262">
        <ele>374.6</ele>
        <time>2024-04-06T09:33:06Z</time>
      </trkpt>
      <trkpt lat="49.95455" lon="4.58271">
        <ele>374.8</ele>
        <time>2024-04-06T09:33:07Z</time>
      </trkpt>
      <trkpt lat="49.95459" lon="4.58279">
        <ele>374.6</ele>
        <time>2024-04-06T09:33:08Z</time>
      </trkpt>
      <trkpt lat="49.95462" lon="4.58287">
        <ele>374.6</ele>
        <time>2024-04-06T09:33:09Z</time>
      </trkpt>
      <trkpt lat="49.95466" lon="4.58295">
        <ele>374.6</ele>
        <time>2024-04-06T09:33:10Z</time>
      </trkpt>
      <trkpt lat="49.95471" lon="4.58304">
        <ele>374.6</ele>
        <time>2024-04-06T09:33:11Z</time>
      </trkpt>
      <trkpt lat="49.95475" lon="4.58313">
        <ele>374.6</ele>
        <time>2024-04-06T09:33:12Z</time>
      </trkpt>
      <trkpt lat="49.95479" lon="4.58321">
        <ele>374.8</ele>
        <time>2024-04-06T09:33:13Z</time>
      </trkpt>
      <trkpt lat="49.95483" lon="4.5833">
        <ele>374.8</ele>
        <time>2024-04-06T09:33:14Z</time>
      </trkpt>
      <trkpt lat="49.95487" lon="4.58338">
        <ele>374.8</ele>
        <time>2024-04-06T09:33:15Z</time>
      </trkpt>
      <trkpt lat="49.95491" lon="4.58347">
        <ele>375</ele>
        <time>2024-04-06T09:33:16Z</time>
      </trkpt>
      <trkpt lat="49.95496" lon="4.58355">
        <ele>375</ele>
        <time>2024-04-06T09:33:17Z</time>
      </trkpt>
      <trkpt lat="49.955" lon="4.58363">
        <ele>375.2</ele>
        <time>2024-04-06T09:33:18Z</time>
      </trkpt>
      <trkpt lat="49.95504" lon="4.58371">
        <ele>375.4</ele>
        <time>2024-04-06T09:33:19Z</time>
      </trkpt>
      <trkpt lat="49.95508" lon="4.58379">
        <ele>375.8</ele>
        <time>2024-04-06T09:33:20Z</time>
      </trkpt>
      <trkpt lat="49.95512" lon="4.58387">
        <ele>376</ele>
        <time>2024-04-06T09:33:21Z</time>
      </trkpt>
      <trkpt lat="49.95516" lon="4.58394">
        <ele>376.4</ele>
        <time>2024-04-06T09:33:22Z</time>
      </trkpt>
      <trkpt lat="49.9552" lon="4.58402">
        <ele>376.6</ele>
        <time>2024-04-06T09:33:23Z</time>
      </trkpt>
      <trkpt lat="49.95523" lon="4.58409">
        <ele>376.8</ele>
        <time>2024-04-06T09:33:24Z</time>
      </trkpt>
      <trkpt lat="49.95527" lon="4.58417">
        <ele>377.2</ele>
        <time>2024-04-06T09:33:25Z</time>
      </trkpt>
      <trkpt lat="49.9553" lon="4.58424">
        <ele>377.6</ele>
        <time>2024-04-06T09:33:26Z</time>
      </trkpt>
      <trkpt lat="49.95534" lon="4.58431">
        <ele>378.2</ele>
        <time>2024-04-06T09:33:27Z</time>
      </trkpt>
      <trkpt lat="49.95537" lon="4.58438">
        <ele>378.8</ele>
        <time>2024-04-06T09:33:28Z</time>
      </trkpt>
      <trkpt lat="49.95541" lon="4.58444">
        <ele>379</ele>
        <time>2024-04-06T09:33:29Z</time>
      </trkpt>
      <trkpt lat="49.95544" lon="4.58451">
        <ele>379.2</ele>
        <time>2024-04-06T09:33:30Z</time>
      </trkpt>
      <trkpt lat="49.95547" lon="4.58458">
        <ele>379.6</ele>
        <time>2024-04-06T09:33:31Z</time>
      </trkpt>
      <trkpt lat="49.95551" lon="4.58466">
        <ele>379.8</ele>
        <time>2024-04-06T09:33:32Z</time>
      </trkpt>
      <trkpt lat="49.95554" lon="4.58473">
        <ele>379.8</ele>
        <time>2024-04-06T09:33:33Z</time>
      </trkpt>
      <trkpt lat="49.95557" lon="4.5848">
        <ele>380.2</ele>
        <time>2024-04-06T09:33:34Z</time>
      </trkpt>
      <trkpt lat="49.95561" lon="4.58487">
        <ele>380.2</ele>
        <time>2024-04-06T09:33:35Z</time>
      </trkpt>
      <trkpt lat="49.95564" lon="4.58494">
        <ele>380.8</ele>
        <time>2024-04-06T09:33:36Z</time>
      </trkpt>
      <trkpt lat="49.95567" lon="4.58501">
        <ele>381.2</ele>
        <time>2024-04-06T09:33:37Z</time>
      </trkpt>
      <trkpt lat="49.95571" lon="4.58508">
        <ele>381.6</ele>
        <time>2024-04-06T09:33:38Z</time>
      </trkpt>
      <trkpt lat="49.95574" lon="4.58516">
        <ele>381.8</ele>
        <time>2024-04-06T09:33:39Z</time>
      </trkpt>
      <trkpt lat="49.95578" lon="4.58523">
        <ele>381.8</ele>
        <time>2024-04-06T09:33:40Z</time>
      </trkpt>
      <trkpt lat="49.95581" lon="4.58531">
        <ele>382</ele>
        <time>2024-04-06T09:33:41Z</time>
      </trkpt>
      <trkpt lat="49.95585" lon="4.58539">
        <ele>381.8</ele>
        <time>2024-04-06T09:33:42Z</time>
      </trkpt>
      <trkpt lat="49.95589" lon="4.58547">
        <ele>382.2</ele>
        <time>2024-04-06T09:33:43Z</time>
      </trkpt>
      <trkpt lat="49.95592" lon="4.58554">
        <ele>382.4</ele>
        <time>2024-04-06T09:33:44Z</time>
      </trkpt>
      <trkpt lat="49.95596" lon="4.58562">
        <ele>382.4</ele>
        <time>2024-04-06T09:33:45Z</time>
      </trkpt>
      <trkpt lat="49.956" lon="4.5857">
        <ele>382.6</ele>
        <time>2024-04-06T09:33:46Z</time>
      </trkpt>
      <trkpt lat="49.95604" lon="4.58579">
        <ele>382.4</ele>
        <time>2024-04-06T09:33:47Z</time>
      </trkpt>
      <trkpt lat="49.95608" lon="4.58587">
        <ele>382.6</ele>
        <time>2024-04-06T09:33:48Z</time>
      </trkpt>
      <trkpt lat="49.95612" lon="4.58595">
        <ele>382.4</ele>
        <time>2024-04-06T09:33:49Z</time>
      </trkpt>
      <trkpt lat="49.95616" lon="4.58604">
        <ele>382.4</ele>
        <time>2024-04-06T09:33:50Z</time>
      </trkpt>
      <trkpt lat="49.9562" lon="4.58613">
        <ele>382.6</ele>
        <time>2024-04-06T09:33:51Z</time>
      </trkpt>
      <trkpt lat="49.95624" lon="4.58621">
        <ele>382.4</ele>
        <time>2024-04-06T09:33:52Z</time>
      </trkpt>
      <trkpt lat="49.95629" lon="4.5863">
        <ele>382.4</ele>
        <time>2024-04-06T09:33:53Z</time>
      </trkpt>
      <trkpt lat="49.95633" lon="4.5864">
        <ele>382.4</ele>
        <time>2024-04-06T09:33:54Z</time>
      </trkpt>
      <trkpt lat="49.95637" lon="4.58649">
        <ele>382.2</ele>
        <time>2024-04-06T09:33:55Z</time>
      </trkpt>
      <trkpt lat="49.95642" lon="4.58658">
        <ele>382.2</ele>
        <time>2024-04-06T09:33:56Z</time>
      </trkpt>
      <trkpt lat="49.95646" lon="4.58667">
        <ele>382.2</ele>
        <time>2024-04-06T09:33:57Z</time>
      </trkpt>
      <trkpt lat="49.95651" lon="4.58677">
        <ele>382</ele>
        <time>2024-04-06T09:33:58Z</time>
      </trkpt>
      <trkpt lat="49.95655" lon="4.58686">
        <ele>382</ele>
        <time>2024-04-06T09:33:59Z</time>
      </trkpt>
      <trkpt lat="49.9566" lon="4.58696">
        <ele>381.8</ele>
        <time>2024-04-06T09:34:00Z</time>
      </trkpt>
      <trkpt lat="49.95665" lon="4.58705">
        <ele>381.8</ele>
        <time>2024-04-06T09:34:01Z</time>
      </trkpt>
      <trkpt lat="49.95669" lon="4.58715">
        <ele>381.8</ele>
        <time>2024-04-06T09:34:02Z</time>
      </trkpt>
      <trkpt lat="49.95674" lon="4.58724">
        <ele>381.6</ele>
        <time>2024-04-06T09:34:03Z</time>
      </trkpt>
      <trkpt lat="49.95678" lon="4.58734">
        <ele>381.4</ele>
        <time>2024-04-06T09:34:04Z</time>
      </trkpt>
      <trkpt lat="49.95683" lon="4.58743">
        <ele>380.8</ele>
        <time>2024-04-06T09:34:05Z</time>
      </trkpt>
      <trkpt lat="49.95688" lon="4.58753">
        <ele>380.4</ele>
        <time>2024-04-06T09:34:06Z</time>
      </trkpt>
      <trkpt lat="49.95692" lon="4.58762">
        <ele>380</ele>
        <time>2024-04-06T09:34:07Z</time>
      </trkpt>
      <trkpt lat="49.95697" lon="4.58772">
        <ele>380</ele>
        <time>2024-04-06T09:34:08Z</time>
      </trkpt>
      <trkpt lat="49.95701" lon="4.58781">
        <ele>380</ele>
        <time>2024-04-06T09:34:09Z</time>
      </trkpt>
      <trkpt lat="49.95706" lon="4.5879">
        <ele>380</ele>
        <time>2024-04-06T09:34:10Z</time>
      </trkpt>
      <trkpt lat="49.9571" lon="4.58799">
        <ele>379.8</ele>
        <time>2024-04-06T09:34:11Z</time>
      </trkpt>
      <trkpt lat="49.95714" lon="4.58808">
        <ele>379.8</ele>
        <time>2024-04-06T09:34:12Z</time>
      </trkpt>
      <trkpt lat="49.95718" lon="4.58817">
        <ele>379.8</ele>
        <time>2024-04-06T09:34:13Z</time>
      </trkpt>
      <trkpt lat="49.95723" lon="4.58826">
        <ele>379.8</ele>
        <time>2024-04-06T09:34:14Z</time>
      </trkpt>
      <trkpt lat="49.95727" lon="4.58834">
        <ele>379.8</ele>
        <time>2024-04-06T09:34:15Z</time>
      </trkpt>
      <trkpt lat="49.95731" lon="4.58843">
        <ele>379.8</ele>
        <time>2024-04-06T09:34:16Z</time>
      </trkpt>
      <trkpt lat="49.95735" lon="4.58852">
        <ele>379.8</ele>
        <time>2024-04-06T09:34:17Z</time>
      </trkpt>
      <trkpt lat="49.9574" lon="4.5886">
        <ele>379.8</ele>
        <time>2024-04-06T09:34:18Z</time>
      </trkpt>
      <trkpt lat="49.95744" lon="4.58869">
        <ele>379.8</ele>
        <time>2024-04-06T09:34:19Z</time>
      </trkpt>
      <trkpt lat="49.95748" lon="4.58877">
        <ele>380</ele>
        <time>2024-04-06T09:34:20Z</time>
      </trkpt>
      <trkpt lat="49.95752" lon="4.58886">
        <ele>380.4</ele>
        <time>2024-04-06T09:34:21Z</time>
      </trkpt>
      <trkpt lat="49.95756" lon="4.58894">
        <ele>380.4</ele>
        <time>2024-04-06T09:34:22Z</time>
      </trkpt>
      <trkpt lat="49.9576" lon="4.58903">
        <ele>380.8</ele>
        <time>2024-04-06T09:34:23Z</time>
      </trkpt>
      <trkpt lat="49.95764" lon="4.58911">
        <ele>381.2</ele>
        <time>2024-04-06T09:34:24Z</time>
      </trkpt>
      <trkpt lat="49.95768" lon="4.5892">
        <ele>381.2</ele>
        <time>2024-04-06T09:34:25Z</time>
      </trkpt>
      <trkpt lat="49.95772" lon="4.58928">
        <ele>381.2</ele>
        <time>2024-04-06T09:34:26Z</time>
      </trkpt>
      <trkpt lat="49.95776" lon="4.58936">
        <ele>381.4</ele>
        <time>2024-04-06T09:34:27Z</time>
      </trkpt>
      <trkpt lat="49.9578" lon="4.58945">
        <ele>381.4</ele>
        <time>2024-04-06T09:34:28Z</time>
      </trkpt>
      <trkpt lat="49.95784" lon="4.58953">
        <ele>381.6</ele>
        <time>2024-04-06T09:34:29Z</time>
      </trkpt>
      <trkpt lat="49.95788" lon="4.58961">
        <ele>381.6</ele>
        <time>2024-04-06T09:34:30Z</time>
      </trkpt>
      <trkpt lat="49.95792" lon="4.5897">
        <ele>381.6</ele>
        <time>2024-04-06T09:34:31Z</time>
      </trkpt>
      <trkpt lat="49.95797" lon="4.58978">
        <ele>381.8</ele>
        <time>2024-04-06T09:34:32Z</time>
      </trkpt>
      <trkpt lat="49.95801" lon="4.58987">
        <ele>381.8</ele>
        <time>2024-04-06T09:34:33Z</time>
      </trkpt>
      <trkpt lat="49.95805" lon="4.58995">
        <ele>381.8</ele>
        <time>2024-04-06T09:34:34Z</time>
      </trkpt>
      <trkpt lat="49.95809" lon="4.59004">
        <ele>381.8</ele>
        <time>2024-04-06T09:34:35Z</time>
      </trkpt>
      <trkpt lat="49.95813" lon="4.59012">
        <ele>381.8</ele>
        <time>2024-04-06T09:34:36Z</time>
      </trkpt>
      <trkpt lat="49.95817" lon="4.5902">
        <ele>382</ele>
        <time>2024-04-06T09:34:37Z</time>
      </trkpt>
      <trkpt lat="49.95821" lon="4.59029">
        <ele>382</ele>
        <time>2024-04-06T09:34:38Z</time>
      </trkpt>
      <trkpt lat="49.95825" lon="4.59037">
        <ele>382.2</ele>
        <time>2024-04-06T09:34:39Z</time>
      </trkpt>
      <trkpt lat="49.95829" lon="4.59045">
        <ele>382.4</ele>
        <time>2024-04-06T09:34:40Z</time>
      </trkpt>
      <trkpt lat="49.95832" lon="4.59053">
        <ele>382.6</ele>
        <time>2024-04-06T09:34:41Z</time>
      </trkpt>
      <trkpt lat="49.95836" lon="4.59062">
        <ele>382.8</ele>
        <time>2024-04-06T09:34:42Z</time>
      </trkpt>
      <trkpt lat="49.9584" lon="4.5907">
        <ele>382.8</ele>
        <time>2024-04-06T09:34:43Z</time>
      </trkpt>
      <trkpt lat="49.95844" lon="4.59078">
        <ele>382.8</ele>
        <time>2024-04-06T09:34:44Z</time>
      </trkpt>
      <trkpt lat="49.95848" lon="4.59086">
        <ele>382.8</ele>
        <time>2024-04-06T09:34:45Z</time>
      </trkpt>
      <trkpt lat="49.95852" lon="4.59094">
        <ele>383</ele>
        <time>2024-04-06T09:34:46Z</time>
      </trkpt>
      <trkpt lat="49.95856" lon="4.59103">
        <ele>382.8</ele>
        <time>2024-04-06T09:34:47Z</time>
      </trkpt>
      <trkpt lat="49.9586" lon="4.59111">
        <ele>382.8</ele>
        <time>2024-04-06T09:34:48Z</time>
      </trkpt>
      <trkpt lat="49.95864" lon="4.59119">
        <ele>382.8</ele>
        <time>2024-04-06T09:34:49Z</time>
      </trkpt>
      <trkpt lat="49.95868" lon="4.59127">
        <ele>382.8</ele>
        <time>2024-04-06T09:34:50Z</time>
      </trkpt>
      <trkpt lat="49.95872" lon="4.59135">
        <ele>382.8</ele>
        <time>2024-04-06T09:34:51Z</time>
      </trkpt>
      <trkpt lat="49.95876" lon="4.59143">
        <ele>382.8</ele>
        <time>2024-04-06T09:34:52Z</time>
      </trkpt>
      <trkpt lat="49.9588" lon="4.59152">
        <ele>382.8</ele>
        <time>2024-04-06T09:34:53Z</time>
      </trkpt>
      <trkpt lat="49.95884" lon="4.5916">
        <ele>382.6</ele>
        <time>2024-04-06T09:34:54Z</time>
      </trkpt>
      <trkpt lat="49.95888" lon="4.59168">
        <ele>382.6</ele>
        <time>2024-04-06T09:34:55Z</time>
      </trkpt>
      <trkpt lat="49.95892" lon="4.59177">
        <ele>382.8</ele>
        <time>2024-04-06T09:34:56Z</time>
      </trkpt>
      <trkpt lat="49.95896" lon="4.59185">
        <ele>382.6</ele>
        <time>2024-04-06T09:34:57Z</time>
      </trkpt>
      <trkpt lat="49.959" lon="4.59194">
        <ele>382.6</ele>
        <time>2024-04-06T09:34:58Z</time>
      </trkpt>
      <trkpt lat="49.95904" lon="4.59203">
        <ele>382.6</ele>
        <time>2024-04-06T09:34:59Z</time>
      </trkpt>
      <trkpt lat="49.95908" lon="4.59211">
        <ele>382.6</ele>
        <time>2024-04-06T09:35:00Z</time>
      </trkpt>
      <trkpt lat="49.95912" lon="4.5922">
        <ele>382.6</ele>
        <time>2024-04-06T09:35:01Z</time>
      </trkpt>
      <trkpt lat="49.95917" lon="4.59229">
        <ele>382.6</ele>
        <time>2024-04-06T09:35:02Z</time>
      </trkpt>
      <trkpt lat="49.95921" lon="4.59238">
        <ele>382.8</ele>
        <time>2024-04-06T09:35:03Z</time>
      </trkpt>
      <trkpt lat="49.95925" lon="4.59246">
        <ele>382.8</ele>
        <time>2024-04-06T09:35:04Z</time>
      </trkpt>
      <trkpt lat="49.95929" lon="4.59255">
        <ele>382.8</ele>
        <time>2024-04-06T09:35:05Z</time>
      </trkpt>
      <trkpt lat="49.95934" lon="4.59265">
        <ele>383</ele>
        <time>2024-04-06T09:35:06Z</time>
      </trkpt>
      <trkpt lat="49.95938" lon="4.59273">
        <ele>382.8</ele>
        <time>2024-04-06T09:35:07Z</time>
      </trkpt>
      <trkpt lat="49.95943" lon="4.59282">
        <ele>383</ele>
        <time>2024-04-06T09:35:08Z</time>
      </trkpt>
      <trkpt lat="49.95947" lon="4.59291">
        <ele>382.8</ele>
        <time>2024-04-06T09:35:09Z</time>
      </trkpt>
      <trkpt lat="49.95951" lon="4.593">
        <ele>382.8</ele>
        <time>2024-04-06T09:35:10Z</time>
      </trkpt>
      <trkpt lat="49.95956" lon="4.59309">
        <ele>383</ele>
        <time>2024-04-06T09:35:11Z</time>
      </trkpt>
      <trkpt lat="49.9596" lon="4.59318">
        <ele>382.8</ele>
        <time>2024-04-06T09:35:12Z</time>
      </trkpt>
      <trkpt lat="49.95964" lon="4.59327">
        <ele>383</ele>
        <time>2024-04-06T09:35:13Z</time>
      </trkpt>
      <trkpt lat="49.95968" lon="4.59336">
        <ele>383</ele>
        <time>2024-04-06T09:35:14Z</time>
      </trkpt>
      <trkpt lat="49.95972" lon="4.59344">
        <ele>382.8</ele>
        <time>2024-04-06T09:35:15Z</time>
      </trkpt>
      <trkpt lat="49.95977" lon="4.59353">
        <ele>382.8</ele>
        <time>2024-04-06T09:35:16Z</time>
      </trkpt>
      <trkpt lat="49.95981" lon="4.59362">
        <ele>382.6</ele>
        <time>2024-04-06T09:35:17Z</time>
      </trkpt>
      <trkpt lat="49.95985" lon="4.59371">
        <ele>382.6</ele>
        <time>2024-04-06T09:35:18Z</time>
      </trkpt>
      <trkpt lat="49.95989" lon="4.5938">
        <ele>382.6</ele>
        <time>2024-04-06T09:35:19Z</time>
      </trkpt>
      <trkpt lat="49.95993" lon="4.59388">
        <ele>383</ele>
        <time>2024-04-06T09:35:20Z</time>
      </trkpt>
      <trkpt lat="49.95997" lon="4.59397">
        <ele>382.8</ele>
        <time>2024-04-06T09:35:21Z</time>
      </trkpt>
      <trkpt lat="49.96001" lon="4.59405">
        <ele>382.8</ele>
        <time>2024-04-06T09:35:22Z</time>
      </trkpt>
      <trkpt lat="49.96006" lon="4.59413">
        <ele>382.8</ele>
        <time>2024-04-06T09:35:23Z</time>
      </trkpt>
      <trkpt lat="49.9601" lon="4.59422">
        <ele>382.8</ele>
        <time>2024-04-06T09:35:24Z</time>
      </trkpt>
      <trkpt lat="49.96014" lon="4.5943">
        <ele>382.6</ele>
        <time>2024-04-06T09:35:25Z</time>
      </trkpt>
      <trkpt lat="49.96018" lon="4.59438">
        <ele>382.6</ele>
        <time>2024-04-06T09:35:26Z</time>
      </trkpt>
      <trkpt lat="49.96022" lon="4.59446">
        <ele>382.6</ele>
        <time>2024-04-06T09:35:27Z</time>
      </trkpt>
      <trkpt lat="49.96026" lon="4.59455">
        <ele>382.8</ele>
        <time>2024-04-06T09:35:28Z</time>
      </trkpt>
      <trkpt lat="49.9603" lon="4.59463">
        <ele>383</ele>
        <time>2024-04-06T09:35:29Z</time>
      </trkpt>
      <trkpt lat="49.96034" lon="4.59471">
        <ele>383.2</ele>
        <time>2024-04-06T09:35:30Z</time>
      </trkpt>
      <trkpt lat="49.96038" lon="4.59479">
        <ele>383.2</ele>
        <time>2024-04-06T09:35:31Z</time>
      </trkpt>
      <trkpt lat="49.96041" lon="4.59487">
        <ele>383.2</ele>
        <time>2024-04-06T09:35:32Z</time>
      </trkpt>
      <trkpt lat="49.96045" lon="4.59495">
        <ele>383.2</ele>
        <time>2024-04-06T09:35:33Z</time>
      </trkpt>
      <trkpt lat="49.96049" lon="4.59503">
        <ele>383.4</ele>
        <time>2024-04-06T09:35:34Z</time>
      </trkpt>
      <trkpt lat="49.96053" lon="4.59511">
        <ele>383.4</ele>
        <time>2024-04-06T09:35:35Z</time>
      </trkpt>
      <trkpt lat="49.96057" lon="4.59519">
        <ele>383.6</ele>
        <time>2024-04-06T09:35:36Z</time>
      </trkpt>
      <trkpt lat="49.96061" lon="4.59527">
        <ele>383.6</ele>
        <time>2024-04-06T09:35:37Z</time>
      </trkpt>
      <trkpt lat="49.96065" lon="4.59535">
        <ele>383.6</ele>
        <time>2024-04-06T09:35:38Z</time>
      </trkpt>
      <trkpt lat="49.96068" lon="4.59543">
        <ele>383.8</ele>
        <time>2024-04-06T09:35:39Z</time>
      </trkpt>
      <trkpt lat="49.96072" lon="4.59551">
        <ele>384</ele>
        <time>2024-04-06T09:35:40Z</time>
      </trkpt>
      <trkpt lat="49.96076" lon="4.59559">
        <ele>384.2</ele>
        <time>2024-04-06T09:35:41Z</time>
      </trkpt>
      <trkpt lat="49.9608" lon="4.59567">
        <ele>384.2</ele>
        <time>2024-04-06T09:35:42Z</time>
      </trkpt>
      <trkpt lat="49.96084" lon="4.59575">
        <ele>384.2</ele>
        <time>2024-04-06T09:35:43Z</time>
      </trkpt>
      <trkpt lat="49.96088" lon="4.59582">
        <ele>384.4</ele>
        <time>2024-04-06T09:35:44Z</time>
      </trkpt>
      <trkpt lat="49.96091" lon="4.5959">
        <ele>384.6</ele>
        <time>2024-04-06T09:35:45Z</time>
      </trkpt>
      <trkpt lat="49.96095" lon="4.59598">
        <ele>384.6</ele>
        <time>2024-04-06T09:35:46Z</time>
      </trkpt>
      <trkpt lat="49.96099" lon="4.59606">
        <ele>384.8</ele>
        <time>2024-04-06T09:35:47Z</time>
      </trkpt>
      <trkpt lat="49.96102" lon="4.59614">
        <ele>384.8</ele>
        <time>2024-04-06T09:35:48Z</time>
      </trkpt>
      <trkpt lat="49.96106" lon="4.59622">
        <ele>385.2</ele>
        <time>2024-04-06T09:35:49Z</time>
      </trkpt>
      <trkpt lat="49.9611" lon="4.59629">
        <ele>385.2</ele>
        <time>2024-04-06T09:35:50Z</time>
      </trkpt>
      <trkpt lat="49.96114" lon="4.59637">
        <ele>385.4</ele>
        <time>2024-04-06T09:35:51Z</time>
      </trkpt>
      <trkpt lat="49.96117" lon="4.59645">
        <ele>385.8</ele>
        <time>2024-04-06T09:35:52Z</time>
      </trkpt>
      <trkpt lat="49.96121" lon="4.59652">
        <ele>386</ele>
        <time>2024-04-06T09:35:53Z</time>
      </trkpt>
      <trkpt lat="49.96124" lon="4.5966">
        <ele>386.2</ele>
        <time>2024-04-06T09:35:54Z</time>
      </trkpt>
      <trkpt lat="49.96128" lon="4.59667">
        <ele>386.2</ele>
        <time>2024-04-06T09:35:55Z</time>
      </trkpt>
      <trkpt lat="49.96132" lon="4.59674">
        <ele>386.2</ele>
        <time>2024-04-06T09:35:56Z</time>
      </trkpt>
      <trkpt lat="49.96135" lon="4.59682">
        <ele>386.2</ele>
        <time>2024-04-06T09:35:57Z</time>
      </trkpt>
      <trkpt lat="49.96139" lon="4.59689">
        <ele>386.4</ele>
        <time>2024-04-06T09:35:58Z</time>
      </trkpt>
      <trkpt lat="49.96142" lon="4.59696">
        <ele>386.4</ele>
        <time>2024-04-06T09:35:59Z</time>
      </trkpt>
      <trkpt lat="49.96146" lon="4.59704">
        <ele>386.6</ele>
        <time>2024-04-06T09:36:00Z</time>
      </trkpt>
      <trkpt lat="49.96149" lon="4.59711">
        <ele>386.6</ele>
        <time>2024-04-06T09:36:01Z</time>
      </trkpt>
      <trkpt lat="49.96153" lon="4.59718">
        <ele>386.8</ele>
        <time>2024-04-06T09:36:02Z</time>
      </trkpt>
      <trkpt lat="49.96156" lon="4.59726">
        <ele>386.8</ele>
        <time>2024-04-06T09:36:03Z</time>
      </trkpt>
      <trkpt lat="49.9616" lon="4.59733">
        <ele>386.8</ele>
        <time>2024-04-06T09:36:04Z</time>
      </trkpt>
      <trkpt lat="49.96163" lon="4.5974">
        <ele>387</ele>
        <time>2024-04-06T09:36:05Z</time>
      </trkpt>
      <trkpt lat="49.96167" lon="4.59747">
        <ele>387.2</ele>
        <time>2024-04-06T09:36:06Z</time>
      </trkpt>
      <trkpt lat="49.9617" lon="4.59755">
        <ele>387.2</ele>
        <time>2024-04-06T09:36:07Z</time>
      </trkpt>
      <trkpt lat="49.96174" lon="4.59762">
        <ele>387.6</ele>
        <time>2024-04-06T09:36:08Z</time>
      </trkpt>
      <trkpt lat="49.96177" lon="4.5977">
        <ele>387.8</ele>
        <time>2024-04-06T09:36:09Z</time>
      </trkpt>
      <trkpt lat="49.96181" lon="4.59777">
        <ele>388</ele>
        <time>2024-04-06T09:36:10Z</time>
      </trkpt>
      <trkpt lat="49.96185" lon="4.59785">
        <ele>388</ele>
        <time>2024-04-06T09:36:11Z</time>
      </trkpt>
      <trkpt lat="49.96188" lon="4.59792">
        <ele>388</ele>
        <time>2024-04-06T09:36:12Z</time>
      </trkpt>
      <trkpt lat="49.96192" lon="4.598">
        <ele>388.2</ele>
        <time>2024-04-06T09:36:13Z</time>
      </trkpt>
      <trkpt lat="49.96196" lon="4.59808">
        <ele>388.6</ele>
        <time>2024-04-06T09:36:14Z</time>
      </trkpt>
      <trkpt lat="49.962" lon="4.59816">
        <ele>388.6</ele>
        <time>2024-04-06T09:36:15Z</time>
      </trkpt>
      <trkpt lat="49.96203" lon="4.59824">
        <ele>388.6</ele>
        <time>2024-04-06T09:36:16Z</time>
      </trkpt>
      <trkpt lat="49.96207" lon="4.59832">
        <ele>388.8</ele>
        <time>2024-04-06T09:36:17Z</time>
      </trkpt>
      <trkpt lat="49.96211" lon="4.5984">
        <ele>389</ele>
        <time>2024-04-06T09:36:18Z</time>
      </trkpt>
      <trkpt lat="49.96215" lon="4.59848">
        <ele>389</ele>
        <time>2024-04-06T09:36:19Z</time>
      </trkpt>
      <trkpt lat="49.96218" lon="4.59856">
        <ele>389.2</ele>
        <time>2024-04-06T09:36:20Z</time>
      </trkpt>
      <trkpt lat="49.96222" lon="4.59864">
        <ele>389.2</ele>
        <time>2024-04-06T09:36:21Z</time>
      </trkpt>
      <trkpt lat="49.96226" lon="4.59872">
        <ele>389.4</ele>
        <time>2024-04-06T09:36:22Z</time>
      </trkpt>
      <trkpt lat="49.9623" lon="4.5988">
        <ele>389.6</ele>
        <time>2024-04-06T09:36:23Z</time>
      </trkpt>
      <trkpt lat="49.96234" lon="4.59888">
        <ele>389.6</ele>
        <time>2024-04-06T09:36:24Z</time>
      </trkpt>
      <trkpt lat="49.96238" lon="4.59897">
        <ele>389.6</ele>
        <time>2024-04-06T09:36:25Z</time>
      </trkpt>
      <trkpt lat="49.96242" lon="4.59905">
        <ele>389.6</ele>
        <time>2024-04-06T09:36:26Z</time>
      </trkpt>
      <trkpt lat="49.96247" lon="4.59914">
        <ele>389.8</ele>
        <time>2024-04-06T09:36:27Z</time>
      </trkpt>
      <trkpt lat="49.96251" lon="4.59923">
        <ele>389.6</ele>
        <time>2024-04-06T09:36:28Z</time>
      </trkpt>
      <trkpt lat="49.96255" lon="4.59932">
        <ele>389.6</ele>
        <time>2024-04-06T09:36:29Z</time>
      </trkpt>
      <trkpt lat="49.9626" lon="4.59942">
        <ele>389.6</ele>
        <time>2024-04-06T09:36:30Z</time>
      </trkpt>
      <trkpt lat="49.96264" lon="4.59951">
        <ele>389.4</ele>
        <time>2024-04-06T09:36:31Z</time>
      </trkpt>
      <trkpt lat="49.96269" lon="4.5996">
        <ele>389.2</ele>
        <time>2024-04-06T09:36:32Z</time>
      </trkpt>
      <trkpt lat="49.96273" lon="4.59969">
        <ele>389.2</ele>
        <time>2024-04-06T09:36:33Z</time>
      </trkpt>
      <trkpt lat="49.96278" lon="4.59979">
        <ele>389.2</ele>
        <time>2024-04-06T09:36:34Z</time>
      </trkpt>
      <trkpt lat="49.96282" lon="4.59988">
        <ele>389</ele>
        <time>2024-04-06T09:36:35Z</time>
      </trkpt>
      <trkpt lat="49.96287" lon="4.59997">
        <ele>389</ele>
        <time>2024-04-06T09:36:36Z</time>
      </trkpt>
      <trkpt lat="49.96291" lon="4.60006">
        <ele>388.8</ele>
        <time>2024-04-06T09:36:37Z</time>
      </trkpt>
      <trkpt lat="49.96296" lon="4.60016">
        <ele>388.6</ele>
        <time>2024-04-06T09:36:38Z</time>
      </trkpt>
      <trkpt lat="49.963" lon="4.60025">
        <ele>388.2</ele>
        <time>2024-04-06T09:36:39Z</time>
      </trkpt>
      <trkpt lat="49.96305" lon="4.60034">
        <ele>387.8</ele>
        <time>2024-04-06T09:36:40Z</time>
      </trkpt>
      <trkpt lat="49.96309" lon="4.60043">
        <ele>387.4</ele>
        <time>2024-04-06T09:36:41Z</time>
      </trkpt>
      <trkpt lat="49.96314" lon="4.60053">
        <ele>387</ele>
        <time>2024-04-06T09:36:42Z</time>
      </trkpt>
      <trkpt lat="49.96318" lon="4.60062">
        <ele>386.8</ele>
        <time>2024-04-06T09:36:43Z</time>
      </trkpt>
      <trkpt lat="49.96323" lon="4.60071">
        <ele>386.6</ele>
        <time>2024-04-06T09:36:44Z</time>
      </trkpt>
      <trkpt lat="49.96327" lon="4.60081">
        <ele>386.6</ele>
        <time>2024-04-06T09:36:45Z</time>
      </trkpt>
      <trkpt lat="49.96331" lon="4.6009">
        <ele>386.4</ele>
        <time>2024-04-06T09:36:46Z</time>
      </trkpt>
      <trkpt lat="49.96336" lon="4.601">
        <ele>386.4</ele>
        <time>2024-04-06T09:36:47Z</time>
      </trkpt>
      <trkpt lat="49.9634" lon="4.6011">
        <ele>386.2</ele>
        <time>2024-04-06T09:36:48Z</time>
      </trkpt>
      <trkpt lat="49.96344" lon="4.60121">
        <ele>386.4</ele>
        <time>2024-04-06T09:36:49Z</time>
      </trkpt>
      <trkpt lat="49.96347" lon="4.60132">
        <ele>386.2</ele>
        <time>2024-04-06T09:36:50Z</time>
      </trkpt>
      <trkpt lat="49.96351" lon="4.60143">
        <ele>386.2</ele>
        <time>2024-04-06T09:36:51Z</time>
      </trkpt>
      <trkpt lat="49.96353" lon="4.60154">
        <ele>386</ele>
        <time>2024-04-06T09:36:52Z</time>
      </trkpt>
      <trkpt lat="49.96356" lon="4.60166">
        <ele>386</ele>
        <time>2024-04-06T09:36:53Z</time>
      </trkpt>
      <trkpt lat="49.96359" lon="4.60178">
        <ele>385.8</ele>
        <time>2024-04-06T09:36:54Z</time>
      </trkpt>
      <trkpt lat="49.96361" lon="4.6019">
        <ele>385.6</ele>
        <time>2024-04-06T09:36:55Z</time>
      </trkpt>
      <trkpt lat="49.96364" lon="4.60202">
        <ele>385.6</ele>
        <time>2024-04-06T09:36:56Z</time>
      </trkpt>
      <trkpt lat="49.96366" lon="4.60214">
        <ele>385.2</ele>
        <time>2024-04-06T09:36:57Z</time>
      </trkpt>
      <trkpt lat="49.96369" lon="4.60226">
        <ele>385.2</ele>
        <time>2024-04-06T09:36:58Z</time>
      </trkpt>
      <trkpt lat="49.96371" lon="4.60239">
        <ele>384.8</ele>
        <time>2024-04-06T09:36:59Z</time>
      </trkpt>
      <trkpt lat="49.96374" lon="4.60251">
        <ele>384.4</ele>
        <time>2024-04-06T09:37:00Z</time>
      </trkpt>
      <trkpt lat="49.96376" lon="4.60263">
        <ele>384</ele>
        <time>2024-04-06T09:37:01Z</time>
      </trkpt>
      <trkpt lat="49.96379" lon="4.60276">
        <ele>384.2</ele>
        <time>2024-04-06T09:37:02Z</time>
      </trkpt>
      <trkpt lat="49.96381" lon="4.60289">
        <ele>383.8</ele>
        <time>2024-04-06T09:37:03Z</time>
      </trkpt>
      <trkpt lat="49.96384" lon="4.60301">
        <ele>383.8</ele>
        <time>2024-04-06T09:37:04Z</time>
      </trkpt>
      <trkpt lat="49.96387" lon="4.60314">
        <ele>383.4</ele>
        <time>2024-04-06T09:37:05Z</time>
      </trkpt>
      <trkpt lat="49.96389" lon="4.60327">
        <ele>383.2</ele>
        <time>2024-04-06T09:37:06Z</time>
      </trkpt>
      <trkpt lat="49.96392" lon="4.60341">
        <ele>383</ele>
        <time>2024-04-06T09:37:07Z</time>
      </trkpt>
      <trkpt lat="49.96394" lon="4.60354">
        <ele>383</ele>
        <time>2024-04-06T09:37:08Z</time>
      </trkpt>
      <trkpt lat="49.96397" lon="4.60367">
        <ele>382.6</ele>
        <time>2024-04-06T09:37:09Z</time>
      </trkpt>
      <trkpt lat="49.964" lon="4.60381">
        <ele>382.6</ele>
        <time>2024-04-06T09:37:10Z</time>
      </trkpt>
      <trkpt lat="49.96403" lon="4.60394">
        <ele>382.4</ele>
        <time>2024-04-06T09:37:11Z</time>
      </trkpt>
      <trkpt lat="49.96405" lon="4.60408">
        <ele>382.4</ele>
        <time>2024-04-06T09:37:12Z</time>
      </trkpt>
      <trkpt lat="49.96408" lon="4.60421">
        <ele>382.2</ele>
        <time>2024-04-06T09:37:13Z</time>
      </trkpt>
      <trkpt lat="49.96411" lon="4.60435">
        <ele>381.8</ele>
        <time>2024-04-06T09:37:14Z</time>
      </trkpt>
      <trkpt lat="49.96413" lon="4.60449">
        <ele>380.6</ele>
        <time>2024-04-06T09:37:15Z</time>
      </trkpt>
      <trkpt lat="49.96416" lon="4.60462">
        <ele>380.6</ele>
        <time>2024-04-06T09:37:16Z</time>
      </trkpt>
      <trkpt lat="49.96419" lon="4.60475">
        <ele>380</ele>
        <time>2024-04-06T09:37:17Z</time>
      </trkpt>
      <trkpt lat="49.96422" lon="4.60489">
        <ele>379.6</ele>
        <time>2024-04-06T09:37:18Z</time>
      </trkpt>
      <trkpt lat="49.96424" lon="4.60502">
        <ele>379</ele>
        <time>2024-04-06T09:37:19Z</time>
      </trkpt>
      <trkpt lat="49.96427" lon="4.60516">
        <ele>378.6</ele>
        <time>2024-04-06T09:37:20Z</time>
      </trkpt>
      <trkpt lat="49.9643" lon="4.60529">
        <ele>378.4</ele>
        <time>2024-04-06T09:37:21Z</time>
      </trkpt>
      <trkpt lat="49.96432" lon="4.60543">
        <ele>378.4</ele>
        <time>2024-04-06T09:37:22Z</time>
      </trkpt>
      <trkpt lat="49.96435" lon="4.60556">
        <ele>378.2</ele>
        <time>2024-04-06T09:37:23Z</time>
      </trkpt>
      <trkpt lat="49.96437" lon="4.60569">
        <ele>378.2</ele>
        <time>2024-04-06T09:37:24Z</time>
      </trkpt>
      <trkpt lat="49.9644" lon="4.60582">
        <ele>378.2</ele>
        <time>2024-04-06T09:37:25Z</time>
      </trkpt>
      <trkpt lat="49.96443" lon="4.60596">
        <ele>377.8</ele>
        <time>2024-04-06T09:37:26Z</time>
      </trkpt>
      <trkpt lat="49.96446" lon="4.60609">
        <ele>377.6</ele>
        <time>2024-04-06T09:37:27Z</time>
      </trkpt>
      <trkpt lat="49.96448" lon="4.60622">
        <ele>377.4</ele>
        <time>2024-04-06T09:37:28Z</time>
      </trkpt>
      <trkpt lat="49.96451" lon="4.60635">
        <ele>377.4</ele>
        <time>2024-04-06T09:37:29Z</time>
      </trkpt>
      <trkpt lat="49.96454" lon="4.60648">
        <ele>377.4</ele>
        <time>2024-04-06T09:37:30Z</time>
      </trkpt>
      <trkpt lat="49.96456" lon="4.60661">
        <ele>377.4</ele>
        <time>2024-04-06T09:37:31Z</time>
      </trkpt>
      <trkpt lat="49.96459" lon="4.60673">
        <ele>377.4</ele>
        <time>2024-04-06T09:37:32Z</time>
      </trkpt>
      <trkpt lat="49.96462" lon="4.60686">
        <ele>377.4</ele>
        <time>2024-04-06T09:37:33Z</time>
      </trkpt>
      <trkpt lat="49.96464" lon="4.60698">
        <ele>377.4</ele>
        <time>2024-04-06T09:37:34Z</time>
      </trkpt>
      <trkpt lat="49.96467" lon="4.60711">
        <ele>377.4</ele>
        <time>2024-04-06T09:37:35Z</time>
      </trkpt>
      <trkpt lat="49.96469" lon="4.60723">
        <ele>377.4</ele>
        <time>2024-04-06T09:37:36Z</time>
      </trkpt>
      <trkpt lat="49.96472" lon="4.60735">
        <ele>377.4</ele>
        <time>2024-04-06T09:37:37Z</time>
      </trkpt>
      <trkpt lat="49.96474" lon="4.60747">
        <ele>377.4</ele>
        <time>2024-04-06T09:37:38Z</time>
      </trkpt>
      <trkpt lat="49.96477" lon="4.6076">
        <ele>377.2</ele>
        <time>2024-04-06T09:37:39Z</time>
      </trkpt>
      <trkpt lat="49.96479" lon="4.60772">
        <ele>377.2</ele>
        <time>2024-04-06T09:37:40Z</time>
      </trkpt>
      <trkpt lat="49.96482" lon="4.60784">
        <ele>377</ele>
        <time>2024-04-06T09:37:41Z</time>
      </trkpt>
      <trkpt lat="49.96484" lon="4.60795">
        <ele>376.8</ele>
        <time>2024-04-06T09:37:42Z</time>
      </trkpt>
      <trkpt lat="49.96487" lon="4.60807">
        <ele>376.6</ele>
        <time>2024-04-06T09:37:43Z</time>
      </trkpt>
      <trkpt lat="49.96489" lon="4.60819">
        <ele>376.4</ele>
        <time>2024-04-06T09:37:44Z</time>
      </trkpt>
      <trkpt lat="49.96492" lon="4.60831">
        <ele>376.4</ele>
        <time>2024-04-06T09:37:45Z</time>
      </trkpt>
      <trkpt lat="49.96494" lon="4.60843">
        <ele>376.4</ele>
        <time>2024-04-06T09:37:46Z</time>
      </trkpt>
      <trkpt lat="49.96496" lon="4.60854">
        <ele>376.2</ele>
        <time>2024-04-06T09:37:47Z</time>
      </trkpt>
      <trkpt lat="49.96499" lon="4.60866">
        <ele>376.4</ele>
        <time>2024-04-06T09:37:48Z</time>
      </trkpt>
      <trkpt lat="49.96501" lon="4.60877">
        <ele>376.2</ele>
        <time>2024-04-06T09:37:49Z</time>
      </trkpt>
      <trkpt lat="49.96503" lon="4.60889">
        <ele>376.2</ele>
        <time>2024-04-06T09:37:50Z</time>
      </trkpt>
      <trkpt lat="49.96506" lon="4.609">
        <ele>376.2</ele>
        <time>2024-04-06T09:37:51Z</time>
      </trkpt>
      <trkpt lat="49.96508" lon="4.60912">
        <ele>376.2</ele>
        <time>2024-04-06T09:37:52Z</time>
      </trkpt>
      <trkpt lat="49.96511" lon="4.60923">
        <ele>376.4</ele>
        <time>2024-04-06T09:37:53Z</time>
      </trkpt>
      <trkpt lat="49.96513" lon="4.60935">
        <ele>376.2</ele>
        <time>2024-04-06T09:37:54Z</time>
      </trkpt>
      <trkpt lat="49.96516" lon="4.60946">
        <ele>376.2</ele>
        <time>2024-04-06T09:37:55Z</time>
      </trkpt>
      <trkpt lat="49.96518" lon="4.60958">
        <ele>376.2</ele>
        <time>2024-04-06T09:37:56Z</time>
      </trkpt>
      <trkpt lat="49.96521" lon="4.60969">
        <ele>376.2</ele>
        <time>2024-04-06T09:37:57Z</time>
      </trkpt>
      <trkpt lat="49.96523" lon="4.6098">
        <ele>376</ele>
        <time>2024-04-06T09:37:58Z</time>
      </trkpt>
      <trkpt lat="49.96525" lon="4.60992">
        <ele>376.2</ele>
        <time>2024-04-06T09:37:59Z</time>
      </trkpt>
      <trkpt lat="49.96528" lon="4.61003">
        <ele>376.4</ele>
        <time>2024-04-06T09:38:00Z</time>
      </trkpt>
      <trkpt lat="49.9653" lon="4.61015">
        <ele>376.2</ele>
        <time>2024-04-06T09:38:01Z</time>
      </trkpt>
      <trkpt lat="49.96533" lon="4.61026">
        <ele>376.4</ele>
        <time>2024-04-06T09:38:02Z</time>
      </trkpt>
      <trkpt lat="49.96535" lon="4.61038">
        <ele>376.4</ele>
        <time>2024-04-06T09:38:03Z</time>
      </trkpt>
      <trkpt lat="49.96538" lon="4.61049">
        <ele>376.4</ele>
        <time>2024-04-06T09:38:04Z</time>
      </trkpt>
      <trkpt lat="49.9654" lon="4.6106">
        <ele>376.6</ele>
        <time>2024-04-06T09:38:05Z</time>
      </trkpt>
      <trkpt lat="49.96542" lon="4.61072">
        <ele>376.6</ele>
        <time>2024-04-06T09:38:06Z</time>
      </trkpt>
      <trkpt lat="49.96545" lon="4.61083">
        <ele>376.8</ele>
        <time>2024-04-06T09:38:07Z</time>
      </trkpt>
      <trkpt lat="49.96547" lon="4.61094">
        <ele>377</ele>
        <time>2024-04-06T09:38:08Z</time>
      </trkpt>
      <trkpt lat="49.96549" lon="4.61106">
        <ele>377</ele>
        <time>2024-04-06T09:38:09Z</time>
      </trkpt>
      <trkpt lat="49.96552" lon="4.61117">
        <ele>377.4</ele>
        <time>2024-04-06T09:38:10Z</time>
      </trkpt>
      <trkpt lat="49.96554" lon="4.61128">
        <ele>377.4</ele>
        <time>2024-04-06T09:38:11Z</time>
      </trkpt>
      <trkpt lat="49.96556" lon="4.61139">
        <ele>377.8</ele>
        <time>2024-04-06T09:38:12Z</time>
      </trkpt>
      <trkpt lat="49.96558" lon="4.6115">
        <ele>377.6</ele>
        <time>2024-04-06T09:38:13Z</time>
      </trkpt>
      <trkpt lat="49.96561" lon="4.61162">
        <ele>377.8</ele>
        <time>2024-04-06T09:38:14Z</time>
      </trkpt>
      <trkpt lat="49.96563" lon="4.61174">
        <ele>377.8</ele>
        <time>2024-04-06T09:38:15Z</time>
      </trkpt>
      <trkpt lat="49.96566" lon="4.61185">
        <ele>377.8</ele>
        <time>2024-04-06T09:38:16Z</time>
      </trkpt>
      <trkpt lat="49.96568" lon="4.61197">
        <ele>378</ele>
        <time>2024-04-06T09:38:17Z</time>
      </trkpt>
      <trkpt lat="49.9657" lon="4.61209">
        <ele>378</ele>
        <time>2024-04-06T09:38:18Z</time>
      </trkpt>
      <trkpt lat="49.96573" lon="4.61221">
        <ele>378</ele>
        <time>2024-04-06T09:38:19Z</time>
      </trkpt>
      <trkpt lat="49.96575" lon="4.61233">
        <ele>378.2</ele>
        <time>2024-04-06T09:38:20Z</time>
      </trkpt>
      <trkpt lat="49.96578" lon="4.61245">
        <ele>378.2</ele>
        <time>2024-04-06T09:38:21Z</time>
      </trkpt>
      <trkpt lat="49.9658" lon="4.61257">
        <ele>378.2</ele>
        <time>2024-04-06T09:38:22Z</time>
      </trkpt>
      <trkpt lat="49.96583" lon="4.61269">
        <ele>378.4</ele>
        <time>2024-04-06T09:38:23Z</time>
      </trkpt>
      <trkpt lat="49.96585" lon="4.61281">
        <ele>378.2</ele>
        <time>2024-04-06T09:38:24Z</time>
      </trkpt>
      <trkpt lat="49.96588" lon="4.61294">
        <ele>378.4</ele>
        <time>2024-04-06T09:38:25Z</time>
      </trkpt>
      <trkpt lat="49.9659" lon="4.61306">
        <ele>378.4</ele>
        <time>2024-04-06T09:38:26Z</time>
      </trkpt>
      <trkpt lat="49.96593" lon="4.61318">
        <ele>378.2</ele>
        <time>2024-04-06T09:38:27Z</time>
      </trkpt>
      <trkpt lat="49.96595" lon="4.6133">
        <ele>378.2</ele>
        <time>2024-04-06T09:38:28Z</time>
      </trkpt>
      <trkpt lat="49.96598" lon="4.61342">
        <ele>378.2</ele>
        <time>2024-04-06T09:38:29Z</time>
      </trkpt>
      <trkpt lat="49.966" lon="4.61354">
        <ele>378</ele>
        <time>2024-04-06T09:38:30Z</time>
      </trkpt>
      <trkpt lat="49.96603" lon="4.61366">
        <ele>378</ele>
        <time>2024-04-06T09:38:31Z</time>
      </trkpt>
      <trkpt lat="49.96605" lon="4.61378">
        <ele>378</ele>
        <time>2024-04-06T09:38:32Z</time>
      </trkpt>
      <trkpt lat="49.96608" lon="4.6139">
        <ele>378</ele>
        <time>2024-04-06T09:38:33Z</time>
      </trkpt>
      <trkpt lat="49.9661" lon="4.61402">
        <ele>377.8</ele>
        <time>2024-04-06T09:38:34Z</time>
      </trkpt>
      <trkpt lat="49.96612" lon="4.61414">
        <ele>377.8</ele>
        <time>2024-04-06T09:38:35Z</time>
      </trkpt>
      <trkpt lat="49.96615" lon="4.61426">
        <ele>377.8</ele>
        <time>2024-04-06T09:38:36Z</time>
      </trkpt>
      <trkpt lat="49.96617" lon="4.61438">
        <ele>377.2</ele>
        <time>2024-04-06T09:38:37Z</time>
      </trkpt>
      <trkpt lat="49.96619" lon="4.61449">
        <ele>377</ele>
        <time>2024-04-06T09:38:38Z</time>
      </trkpt>
      <trkpt lat="49.96622" lon="4.61461">
        <ele>376.2</ele>
        <time>2024-04-06T09:38:39Z</time>
      </trkpt>
      <trkpt lat="49.96624" lon="4.61473">
        <ele>376</ele>
        <time>2024-04-06T09:38:40Z</time>
      </trkpt>
      <trkpt lat="49.96627" lon="4.61486">
        <ele>376</ele>
        <time>2024-04-06T09:38:41Z</time>
      </trkpt>
      <trkpt lat="49.96629" lon="4.61498">
        <ele>375.6</ele>
        <time>2024-04-06T09:38:42Z</time>
      </trkpt>
      <trkpt lat="49.96632" lon="4.61511">
        <ele>375.4</ele>
        <time>2024-04-06T09:38:43Z</time>
      </trkpt>
      <trkpt lat="49.96634" lon="4.61524">
        <ele>375.4</ele>
        <time>2024-04-06T09:38:44Z</time>
      </trkpt>
      <trkpt lat="49.96637" lon="4.61537">
        <ele>375.4</ele>
        <time>2024-04-06T09:38:45Z</time>
      </trkpt>
      <trkpt lat="49.9664" lon="4.6155">
        <ele>375.2</ele>
        <time>2024-04-06T09:38:46Z</time>
      </trkpt>
      <trkpt lat="49.96643" lon="4.61563">
        <ele>375.2</ele>
        <time>2024-04-06T09:38:47Z</time>
      </trkpt>
      <trkpt lat="49.96645" lon="4.61576">
        <ele>375</ele>
        <time>2024-04-06T09:38:48Z</time>
      </trkpt>
      <trkpt lat="49.96648" lon="4.6159">
        <ele>374.8</ele>
        <time>2024-04-06T09:38:49Z</time>
      </trkpt>
      <trkpt lat="49.96651" lon="4.61604">
        <ele>374.6</ele>
        <time>2024-04-06T09:38:50Z</time>
      </trkpt>
      <trkpt lat="49.96654" lon="4.61617">
        <ele>374.6</ele>
        <time>2024-04-06T09:38:51Z</time>
      </trkpt>
      <trkpt lat="49.96657" lon="4.61631">
        <ele>374.6</ele>
        <time>2024-04-06T09:38:52Z</time>
      </trkpt>
      <trkpt lat="49.9666" lon="4.61644">
        <ele>374.2</ele>
        <time>2024-04-06T09:38:53Z</time>
      </trkpt>
      <trkpt lat="49.96663" lon="4.61658">
        <ele>373.8</ele>
        <time>2024-04-06T09:38:54Z</time>
      </trkpt>
      <trkpt lat="49.96667" lon="4.61671">
        <ele>373.4</ele>
        <time>2024-04-06T09:38:55Z</time>
      </trkpt>
      <trkpt lat="49.96671" lon="4.61684">
        <ele>372.6</ele>
        <time>2024-04-06T09:38:56Z</time>
      </trkpt>
      <trkpt lat="49.96676" lon="4.61697">
        <ele>372.2</ele>
        <time>2024-04-06T09:38:57Z</time>
      </trkpt>
      <trkpt lat="49.96681" lon="4.61709">
        <ele>372</ele>
        <time>2024-04-06T09:38:58Z</time>
      </trkpt>
      <trkpt lat="49.96687" lon="4.6172">
        <ele>371.6</ele>
        <time>2024-04-06T09:38:59Z</time>
      </trkpt>
      <trkpt lat="49.96694" lon="4.6173">
        <ele>371.6</ele>
        <time>2024-04-06T09:39:00Z</time>
      </trkpt>
      <trkpt lat="49.96701" lon="4.6174">
        <ele>371.6</ele>
        <time>2024-04-06T09:39:01Z</time>
      </trkpt>
      <trkpt lat="49.96708" lon="4.61749">
        <ele>371.4</ele>
        <time>2024-04-06T09:39:02Z</time>
      </trkpt>
      <trkpt lat="49.96716" lon="4.61757">
        <ele>371.2</ele>
        <time>2024-04-06T09:39:03Z</time>
      </trkpt>
      <trkpt lat="49.96723" lon="4.61766">
        <ele>370.6</ele>
        <time>2024-04-06T09:39:04Z</time>
      </trkpt>
      <trkpt lat="49.96731" lon="4.61774">
        <ele>370.4</ele>
        <time>2024-04-06T09:39:05Z</time>
      </trkpt>
      <trkpt lat="49.96739" lon="4.61783">
        <ele>370</ele>
        <time>2024-04-06T09:39:06Z</time>
      </trkpt>
      <trkpt lat="49.96747" lon="4.61791">
        <ele>369.8</ele>
        <time>2024-04-06T09:39:07Z</time>
      </trkpt>
      <trkpt lat="49.96755" lon="4.61799">
        <ele>369.6</ele>
        <time>2024-04-06T09:39:08Z</time>
      </trkpt>
      <trkpt lat="49.96763" lon="4.61808">
        <ele>369.2</ele>
        <time>2024-04-06T09:39:09Z</time>
      </trkpt>
      <trkpt lat="49.96771" lon="4.61817">
        <ele>369.2</ele>
        <time>2024-04-06T09:39:10Z</time>
      </trkpt>
      <trkpt lat="49.9678" lon="4.61826">
        <ele>369</ele>
        <time>2024-04-06T09:39:11Z</time>
      </trkpt>
      <trkpt lat="49.96788" lon="4.61835">
        <ele>368.8</ele>
        <time>2024-04-06T09:39:12Z</time>
      </trkpt>
      <trkpt lat="49.96796" lon="4.61844">
        <ele>368.8</ele>
        <time>2024-04-06T09:39:13Z</time>
      </trkpt>
      <trkpt lat="49.96805" lon="4.61853">
        <ele>368.6</ele>
        <time>2024-04-06T09:39:14Z</time>
      </trkpt>
      <trkpt lat="49.96814" lon="4.61863">
        <ele>368.6</ele>
        <time>2024-04-06T09:39:15Z</time>
      </trkpt>
      <trkpt lat="49.96823" lon="4.61872">
        <ele>368.2</ele>
        <time>2024-04-06T09:39:16Z</time>
      </trkpt>
      <trkpt lat="49.96833" lon="4.61882">
        <ele>368</ele>
        <time>2024-04-06T09:39:17Z</time>
      </trkpt>
      <trkpt lat="49.96842" lon="4.61891">
        <ele>367.6</ele>
        <time>2024-04-06T09:39:18Z</time>
      </trkpt>
      <trkpt lat="49.96852" lon="4.619">
        <ele>367.2</ele>
        <time>2024-04-06T09:39:19Z</time>
      </trkpt>
      <trkpt lat="49.96863" lon="4.61909">
        <ele>367</ele>
        <time>2024-04-06T09:39:20Z</time>
      </trkpt>
      <trkpt lat="49.96873" lon="4.61917">
        <ele>366.8</ele>
        <time>2024-04-06T09:39:21Z</time>
      </trkpt>
      <trkpt lat="49.96884" lon="4.61924">
        <ele>366.6</ele>
        <time>2024-04-06T09:39:22Z</time>
      </trkpt>
      <trkpt lat="49.96896" lon="4.6193">
        <ele>366.4</ele>
        <time>2024-04-06T09:39:23Z</time>
      </trkpt>
      <trkpt lat="49.96908" lon="4.61936">
        <ele>365.4</ele>
        <time>2024-04-06T09:39:24Z</time>
      </trkpt>
      <trkpt lat="49.96919" lon="4.61942">
        <ele>364.6</ele>
        <time>2024-04-06T09:39:25Z</time>
      </trkpt>
      <trkpt lat="49.96931" lon="4.61948">
        <ele>363.2</ele>
        <time>2024-04-06T09:39:26Z</time>
      </trkpt>
      <trkpt lat="49.96943" lon="4.61954">
        <ele>362.4</ele>
        <time>2024-04-06T09:39:27Z</time>
      </trkpt>
      <trkpt lat="49.96955" lon="4.61961">
        <ele>361.8</ele>
        <time>2024-04-06T09:39:28Z</time>
      </trkpt>
      <trkpt lat="49.96967" lon="4.61969">
        <ele>361.4</ele>
        <time>2024-04-06T09:39:29Z</time>
      </trkpt>
      <trkpt lat="49.96979" lon="4.61978">
        <ele>360.8</ele>
        <time>2024-04-06T09:39:30Z</time>
      </trkpt>
      <trkpt lat="49.9699" lon="4.61989">
        <ele>360.8</ele>
        <time>2024-04-06T09:39:31Z</time>
      </trkpt>
      <trkpt lat="49.97001" lon="4.62">
        <ele>359.6</ele>
        <time>2024-04-06T09:39:32Z</time>
      </trkpt>
      <trkpt lat="49.97012" lon="4.62012">
        <ele>359</ele>
        <time>2024-04-06T09:39:33Z</time>
      </trkpt>
      <trkpt lat="49.97022" lon="4.62024">
        <ele>358</ele>
        <time>2024-04-06T09:39:34Z</time>
      </trkpt>
      <trkpt lat="49.97033" lon="4.62036">
        <ele>357</ele>
        <time>2024-04-06T09:39:35Z</time>
      </trkpt>
      <trkpt lat="49.97044" lon="4.62048">
        <ele>356.4</ele>
        <time>2024-04-06T09:39:36Z</time>
      </trkpt>
      <trkpt lat="49.97054" lon="4.6206">
        <ele>355</ele>
        <time>2024-04-06T09:39:37Z</time>
      </trkpt>
      <trkpt lat="49.97065" lon="4.62072">
        <ele>353.4</ele>
        <time>2024-04-06T09:39:38Z</time>
      </trkpt>
      <trkpt lat="49.97076" lon="4.62084">
        <ele>352.6</ele>
        <time>2024-04-06T09:39:39Z</time>
      </trkpt>
      <trkpt lat="49.97087" lon="4.62096">
        <ele>351.6</ele>
        <time>2024-04-06T09:39:40Z</time>
      </trkpt>
      <trkpt lat="49.97097" lon="4.62108">
        <ele>350.2</ele>
        <time>2024-04-06T09:39:41Z</time>
      </trkpt>
      <trkpt lat="49.97108" lon="4.6212">
        <ele>349.4</ele>
        <time>2024-04-06T09:39:42Z</time>
      </trkpt>
      <trkpt lat="49.97119" lon="4.62131">
        <ele>347.6</ele>
        <time>2024-04-06T09:39:43Z</time>
      </trkpt>
      <trkpt lat="49.97131" lon="4.62142">
        <ele>346.6</ele>
        <time>2024-04-06T09:39:44Z</time>
      </trkpt>
      <trkpt lat="49.97142" lon="4.62151">
        <ele>346</ele>
        <time>2024-04-06T09:39:45Z</time>
      </trkpt>
      <trkpt lat="49.97155" lon="4.62158">
        <ele>345.6</ele>
        <time>2024-04-06T09:39:46Z</time>
      </trkpt>
      <trkpt lat="49.97168" lon="4.62164">
        <ele>345.2</ele>
        <time>2024-04-06T09:39:47Z</time>
      </trkpt>
      <trkpt lat="49.97181" lon="4.6217">
        <ele>345.2</ele>
        <time>2024-04-06T09:39:48Z</time>
      </trkpt>
      <trkpt lat="49.97194" lon="4.62176">
        <ele>345.2</ele>
        <time>2024-04-06T09:39:49Z</time>
      </trkpt>
      <trkpt lat="49.97207" lon="4.62181">
        <ele>344.4</ele>
        <time>2024-04-06T09:39:50Z</time>
      </trkpt>
      <trkpt lat="49.9722" lon="4.62187">
        <ele>343.4</ele>
        <time>2024-04-06T09:39:51Z</time>
      </trkpt>
      <trkpt lat="49.97233" lon="4.62192">
        <ele>342.4</ele>
        <time>2024-04-06T09:39:52Z</time>
      </trkpt>
      <trkpt lat="49.97247" lon="4.62198">
        <ele>341.6</ele>
        <time>2024-04-06T09:39:53Z</time>
      </trkpt>
      <trkpt lat="49.9726" lon="4.62203">
        <ele>340.8</ele>
        <time>2024-04-06T09:39:54Z</time>
      </trkpt>
      <trkpt lat="49.97273" lon="4.62209">
        <ele>340.2</ele>
        <time>2024-04-06T09:39:55Z</time>
      </trkpt>
      <trkpt lat="49.97287" lon="4.62214">
        <ele>339.6</ele>
        <time>2024-04-06T09:39:56Z</time>
      </trkpt>
      <trkpt lat="49.97301" lon="4.6222">
        <ele>339</ele>
        <time>2024-04-06T09:39:57Z</time>
      </trkpt>
      <trkpt lat="49.97315" lon="4.62226">
        <ele>337.8</ele>
        <time>2024-04-06T09:39:58Z</time>
      </trkpt>
      <trkpt lat="49.97328" lon="4.62232">
        <ele>337</ele>
        <time>2024-04-06T09:39:59Z</time>
      </trkpt>
      <trkpt lat="49.97342" lon="4.62238">
        <ele>336.6</ele>
        <time>2024-04-06T09:40:00Z</time>
      </trkpt>
      <trkpt lat="49.97356" lon="4.62243">
        <ele>335.8</ele>
        <time>2024-04-06T09:40:01Z</time>
      </trkpt>
      <trkpt lat="49.97369" lon="4.62249">
        <ele>334.8</ele>
        <time>2024-04-06T09:40:02Z</time>
      </trkpt>
      <trkpt lat="49.97383" lon="4.62256">
        <ele>333.4</ele>
        <time>2024-04-06T09:40:03Z</time>
      </trkpt>
      <trkpt lat="49.97396" lon="4.62264">
        <ele>332.4</ele>
        <time>2024-04-06T09:40:04Z</time>
      </trkpt>
      <trkpt lat="49.97408" lon="4.62274">
        <ele>331.8</ele>
        <time>2024-04-06T09:40:05Z</time>
      </trkpt>
      <trkpt lat="49.9742" lon="4.62287">
        <ele>330.4</ele>
        <time>2024-04-06T09:40:06Z</time>
      </trkpt>
      <trkpt lat="49.97429" lon="4.62303">
        <ele>330.4</ele>
        <time>2024-04-06T09:40:07Z</time>
      </trkpt>
      <trkpt lat="49.97438" lon="4.62319">
        <ele>329.8</ele>
        <time>2024-04-06T09:40:08Z</time>
      </trkpt>
      <trkpt lat="49.97446" lon="4.62336">
        <ele>329.2</ele>
        <time>2024-04-06T09:40:09Z</time>
      </trkpt>
      <trkpt lat="49.97454" lon="4.62354">
        <ele>328</ele>
        <time>2024-04-06T09:40:10Z</time>
      </trkpt>
      <trkpt lat="49.97461" lon="4.62371">
        <ele>327.2</ele>
        <time>2024-04-06T09:40:11Z</time>
      </trkpt>
      <trkpt lat="49.97469" lon="4.6239">
        <ele>326.4</ele>
        <time>2024-04-06T09:40:12Z</time>
      </trkpt>
      <trkpt lat="49.97475" lon="4.62409">
        <ele>325.2</ele>
        <time>2024-04-06T09:40:13Z</time>
      </trkpt>
      <trkpt lat="49.97479" lon="4.62429">
        <ele>324</ele>
        <time>2024-04-06T09:40:14Z</time>
      </trkpt>
      <trkpt lat="49.97481" lon="4.62451">
        <ele>323.4</ele>
        <time>2024-04-06T09:40:15Z</time>
      </trkpt>
      <trkpt lat="49.97481" lon="4.62472">
        <ele>323</ele>
        <time>2024-04-06T09:40:16Z</time>
      </trkpt>
      <trkpt lat="49.97477" lon="4.62493">
        <ele>322.4</ele>
        <time>2024-04-06T09:40:17Z</time>
      </trkpt>
      <trkpt lat="49.97471" lon="4.62512">
        <ele>322</ele>
        <time>2024-04-06T09:40:18Z</time>
      </trkpt>
      <trkpt lat="49.97464" lon="4.62529">
        <ele>321.2</ele>
        <time>2024-04-06T09:40:19Z</time>
      </trkpt>
      <trkpt lat="49.97456" lon="4.62546">
        <ele>320.6</ele>
        <time>2024-04-06T09:40:20Z</time>
      </trkpt>
      <trkpt lat="49.97448" lon="4.62563">
        <ele>320.2</ele>
        <time>2024-04-06T09:40:21Z</time>
      </trkpt>
      <trkpt lat="49.9744" lon="4.62579">
        <ele>319</ele>
        <time>2024-04-06T09:40:22Z</time>
      </trkpt>
      <trkpt lat="49.97432" lon="4.62595">
        <ele>318</ele>
        <time>2024-04-06T09:40:23Z</time>
      </trkpt>
      <trkpt lat="49.97424" lon="4.62612">
        <ele>316.6</ele>
        <time>2024-04-06T09:40:24Z</time>
      </trkpt>
      <trkpt lat="49.97416" lon="4.62628">
        <ele>315</ele>
        <time>2024-04-06T09:40:25Z</time>
      </trkpt>
      <trkpt lat="49.97408" lon="4.62644">
        <ele>314.4</ele>
        <time>2024-04-06T09:40:26Z</time>
      </trkpt>
      <trkpt lat="49.974" lon="4.6266">
        <ele>313.8</ele>
        <time>2024-04-06T09:40:27Z</time>
      </trkpt>
      <trkpt lat="49.97392" lon="4.62676">
        <ele>313.8</ele>
        <time>2024-04-06T09:40:28Z</time>
      </trkpt>
      <trkpt lat="49.97385" lon="4.62692">
        <ele>313.4</ele>
        <time>2024-04-06T09:40:29Z</time>
      </trkpt>
      <trkpt lat="49.97379" lon="4.62709">
        <ele>313</ele>
        <time>2024-04-06T09:40:30Z</time>
      </trkpt>
      <trkpt lat="49.97375" lon="4.62727">
        <ele>311.8</ele>
        <time>2024-04-06T09:40:31Z</time>
      </trkpt>
      <trkpt lat="49.97373" lon="4.62746">
        <ele>310.2</ele>
        <time>2024-04-06T09:40:32Z</time>
      </trkpt>
      <trkpt lat="49.97374" lon="4.62764">
        <ele>309.2</ele>
        <time>2024-04-06T09:40:33Z</time>
      </trkpt>
      <trkpt lat="49.97376" lon="4.62781">
        <ele>308.6</ele>
        <time>2024-04-06T09:40:34Z</time>
      </trkpt>
      <trkpt lat="49.9738" lon="4.62797">
        <ele>308.4</ele>
        <time>2024-04-06T09:40:35Z</time>
      </trkpt>
      <trkpt lat="49.97387" lon="4.6281">
        <ele>308.2</ele>
        <time>2024-04-06T09:40:36Z</time>
      </trkpt>
      <trkpt lat="49.97395" lon="4.6282">
        <ele>308.2</ele>
        <time>2024-04-06T09:40:37Z</time>
      </trkpt>
      <trkpt lat="49.97403" lon="4.62827">
        <ele>308.2</ele>
        <time>2024-04-06T09:40:38Z</time>
      </trkpt>
      <trkpt lat="49.97411" lon="4.62833">
        <ele>308</ele>
        <time>2024-04-06T09:40:39Z</time>
      </trkpt>
      <trkpt lat="49.97419" lon="4.62837">
        <ele>308</ele>
        <time>2024-04-06T09:40:40Z</time>
      </trkpt>
      <trkpt lat="49.97428" lon="4.62841">
        <ele>308</ele>
        <time>2024-04-06T09:40:41Z</time>
      </trkpt>
      <trkpt lat="49.97436" lon="4.62844">
        <ele>308</ele>
        <time>2024-04-06T09:40:42Z</time>
      </trkpt>
      <trkpt lat="49.97443" lon="4.62847">
        <ele>308.2</ele>
        <time>2024-04-06T09:40:43Z</time>
      </trkpt>
      <trkpt lat="49.97451" lon="4.6285">
        <ele>308.4</ele>
        <time>2024-04-06T09:40:44Z</time>
      </trkpt>
      <trkpt lat="49.97458" lon="4.62852">
        <ele>308.6</ele>
        <time>2024-04-06T09:40:45Z</time>
      </trkpt>
      <trkpt lat="49.97465" lon="4.62854">
        <ele>308.6</ele>
        <time>2024-04-06T09:40:46Z</time>
      </trkpt>
      <trkpt lat="49.97471" lon="4.62856">
        <ele>309.2</ele>
        <time>2024-04-06T09:40:47Z</time>
      </trkpt>
      <trkpt lat="49.97477" lon="4.62858">
        <ele>310</ele>
        <time>2024-04-06T09:40:48Z</time>
      </trkpt>
      <trkpt lat="49.97483" lon="4.6286">
        <ele>310.8</ele>
        <time>2024-04-06T09:40:49Z</time>
      </trkpt>
      <trkpt lat="49.97488" lon="4.62862">
        <ele>311.4</ele>
        <time>2024-04-06T09:40:50Z</time>
      </trkpt>
      <trkpt lat="49.97493" lon="4.62863">
        <ele>311.6</ele>
        <time>2024-04-06T09:40:51Z</time>
      </trkpt>
      <trkpt lat="49.97498" lon="4.62865">
        <ele>312</ele>
        <time>2024-04-06T09:40:52Z</time>
      </trkpt>
      <trkpt lat="49.97503" lon="4.62866">
        <ele>312.2</ele>
        <time>2024-04-06T09:40:53Z</time>
      </trkpt>
      <trkpt lat="49.97507" lon="4.62867">
        <ele>312.2</ele>
        <time>2024-04-06T09:40:54Z</time>
      </trkpt>
      <trkpt lat="49.97512" lon="4.62868">
        <ele>313.2</ele>
        <time>2024-04-06T09:40:55Z</time>
      </trkpt>
      <trkpt lat="49.97516" lon="4.62869">
        <ele>313.6</ele>
        <time>2024-04-06T09:40:56Z</time>
      </trkpt>
      <trkpt lat="49.97521" lon="4.6287">
        <ele>313.8</ele>
        <time>2024-04-06T09:40:57Z</time>
      </trkpt>
      <trkpt lat="49.97524" lon="4.62871">
        <ele>314.2</ele>
        <time>2024-04-06T09:40:58Z</time>
      </trkpt>
      <trkpt lat="49.97528" lon="4.62872">
        <ele>314.4</ele>
        <time>2024-04-06T09:40:59Z</time>
      </trkpt>
      <trkpt lat="49.97532" lon="4.62873">
        <ele>315.4</ele>
        <time>2024-04-06T09:41:00Z</time>
      </trkpt>
      <trkpt lat="49.97536" lon="4.62875">
        <ele>316.4</ele>
        <time>2024-04-06T09:41:01Z</time>
      </trkpt>
      <trkpt lat="49.9754" lon="4.62876">
        <ele>317</ele>
        <time>2024-04-06T09:41:02Z</time>
      </trkpt>
      <trkpt lat="49.97544" lon="4.62878">
        <ele>317.2</ele>
        <time>2024-04-06T09:41:03Z</time>
      </trkpt>
      <trkpt lat="49.97548" lon="4.6288">
        <ele>317.4</ele>
        <time>2024-04-06T09:41:04Z</time>
      </trkpt>
      <trkpt lat="49.97552" lon="4.62881">
        <ele>317.6</ele>
        <time>2024-04-06T09:41:05Z</time>
      </trkpt>
      <trkpt lat="49.97556" lon="4.62883">
        <ele>317.6</ele>
        <time>2024-04-06T09:41:06Z</time>
      </trkpt>
      <trkpt lat="49.97561" lon="4.62884">
        <ele>317.6</ele>
        <time>2024-04-06T09:41:07Z</time>
      </trkpt>
      <trkpt lat="49.97565" lon="4.62886">
        <ele>318</ele>
        <time>2024-04-06T09:41:08Z</time>
      </trkpt>
      <trkpt lat="49.97569" lon="4.62887">
        <ele>318</ele>
        <time>2024-04-06T09:41:09Z</time>
      </trkpt>
      <trkpt lat="49.97574" lon="4.62888">
        <ele>318.2</ele>
        <time>2024-04-06T09:41:10Z</time>
      </trkpt>
      <trkpt lat="49.97579" lon="4.62889">
        <ele>318.2</ele>
        <time>2024-04-06T09:41:11Z</time>
      </trkpt>
      <trkpt lat="49.97584" lon="4.6289">
        <ele>318.4</ele>
        <time>2024-04-06T09:41:12Z</time>
      </trkpt>
      <trkpt lat="49.97588" lon="4.6289">
        <ele>319</ele>
        <time>2024-04-06T09:41:13Z</time>
      </trkpt>
      <trkpt lat="49.97594" lon="4.6289">
        <ele>319.4</ele>
        <time>2024-04-06T09:41:14Z</time>
      </trkpt>
      <trkpt lat="49.97599" lon="4.6289">
        <ele>319.6</ele>
        <time>2024-04-06T09:41:15Z</time>
      </trkpt>
      <trkpt lat="49.97605" lon="4.62889">
        <ele>320</ele>
        <time>2024-04-06T09:41:16Z</time>
      </trkpt>
      <trkpt lat="49.9761" lon="4.62888">
        <ele>320.4</ele>
        <time>2024-04-06T09:41:17Z</time>
      </trkpt>
      <trkpt lat="49.97616" lon="4.62887">
        <ele>320.6</ele>
        <time>2024-04-06T09:41:18Z</time>
      </trkpt>
      <trkpt lat="49.97622" lon="4.62885">
        <ele>321</ele>
        <time>2024-04-06T09:41:19Z</time>
      </trkpt>
      <trkpt lat="49.97628" lon="4.62884">
        <ele>321.4</ele>
        <time>2024-04-06T09:41:20Z</time>
      </trkpt>
      <trkpt lat="49.97633" lon="4.62882">
        <ele>321.4</ele>
        <time>2024-04-06T09:41:21Z</time>
      </trkpt>
      <trkpt lat="49.97639" lon="4.62881">
        <ele>321.6</ele>
        <time>2024-04-06T09:41:22Z</time>
      </trkpt>
      <trkpt lat="49.97645" lon="4.62879">
        <ele>321.6</ele>
        <time>2024-04-06T09:41:23Z</time>
      </trkpt>
      <trkpt lat="49.97652" lon="4.62879">
        <ele>321.6</ele>
        <time>2024-04-06T09:41:24Z</time>
      </trkpt>
      <trkpt lat="49.97658" lon="4.62878">
        <ele>321.6</ele>
        <time>2024-04-06T09:41:25Z</time>
      </trkpt>
      <trkpt lat="49.97665" lon="4.62879">
        <ele>321.6</ele>
        <time>2024-04-06T09:41:26Z</time>
      </trkpt>
      <trkpt lat="49.97671" lon="4.62882">
        <ele>321.6</ele>
        <time>2024-04-06T09:41:27Z</time>
      </trkpt>
      <trkpt lat="49.97678" lon="4.62885">
        <ele>321.6</ele>
        <time>2024-04-06T09:41:28Z</time>
      </trkpt>
      <trkpt lat="49.97684" lon="4.6289">
        <ele>321.2</ele>
        <time>2024-04-06T09:41:29Z</time>
      </trkpt>
      <trkpt lat="49.9769" lon="4.62896">
        <ele>321.2</ele>
        <time>2024-04-06T09:41:30Z</time>
      </trkpt>
      <trkpt lat="49.97695" lon="4.62903">
        <ele>321</ele>
        <time>2024-04-06T09:41:31Z</time>
      </trkpt>
      <trkpt lat="49.977" lon="4.62911">
        <ele>320.8</ele>
        <time>2024-04-06T09:41:32Z</time>
      </trkpt>
      <trkpt lat="49.97704" lon="4.6292">
        <ele>320.8</ele>
        <time>2024-04-06T09:41:33Z</time>
      </trkpt>
      <trkpt lat="49.97708" lon="4.62929">
        <ele>320.8</ele>
        <time>2024-04-06T09:41:34Z</time>
      </trkpt>
      <trkpt lat="49.97711" lon="4.62939">
        <ele>320.8</ele>
        <time>2024-04-06T09:41:35Z</time>
      </trkpt>
      <trkpt lat="49.97714" lon="4.62949">
        <ele>320.8</ele>
        <time>2024-04-06T09:41:36Z</time>
      </trkpt>
      <trkpt lat="49.97717" lon="4.62959">
        <ele>320.8</ele>
        <time>2024-04-06T09:41:37Z</time>
      </trkpt>
      <trkpt lat="49.9772" lon="4.62969">
        <ele>320.6</ele>
        <time>2024-04-06T09:41:38Z</time>
      </trkpt>
      <trkpt lat="49.97723" lon="4.6298">
        <ele>320.6</ele>
        <time>2024-04-06T09:41:39Z</time>
      </trkpt>
      <trkpt lat="49.97726" lon="4.62991">
        <ele>320.6</ele>
        <time>2024-04-06T09:41:40Z</time>
      </trkpt>
      <trkpt lat="49.97729" lon="4.63002">
        <ele>320.6</ele>
        <time>2024-04-06T09:41:41Z</time>
      </trkpt>
      <trkpt lat="49.97732" lon="4.63012">
        <ele>320.4</ele>
        <time>2024-04-06T09:41:42Z</time>
      </trkpt>
      <trkpt lat="49.97735" lon="4.63023">
        <ele>320.4</ele>
        <time>2024-04-06T09:41:43Z</time>
      </trkpt>
      <trkpt lat="49.97738" lon="4.63034">
        <ele>320.2</ele>
        <time>2024-04-06T09:41:44Z</time>
      </trkpt>
      <trkpt lat="49.97741" lon="4.63045">
        <ele>320</ele>
        <time>2024-04-06T09:41:45Z</time>
      </trkpt>
      <trkpt lat="49.97745" lon="4.63055">
        <ele>320</ele>
        <time>2024-04-06T09:41:46Z</time>
      </trkpt>
      <trkpt lat="49.97748" lon="4.63065">
        <ele>320</ele>
        <time>2024-04-06T09:41:47Z</time>
      </trkpt>
      <trkpt lat="49.97752" lon="4.63075">
        <ele>320</ele>
        <time>2024-04-06T09:41:48Z</time>
      </trkpt>
      <trkpt lat="49.97755" lon="4.63085">
        <ele>320</ele>
        <time>2024-04-06T09:41:49Z</time>
      </trkpt>
      <trkpt lat="49.97758" lon="4.63095">
        <ele>319.8</ele>
        <time>2024-04-06T09:41:50Z</time>
      </trkpt>
      <trkpt lat="49.97762" lon="4.63105">
        <ele>319.8</ele>
        <time>2024-04-06T09:41:51Z</time>
      </trkpt>
      <trkpt lat="49.97765" lon="4.63115">
        <ele>319.8</ele>
        <time>2024-04-06T09:41:52Z</time>
      </trkpt>
      <trkpt lat="49.97769" lon="4.63125">
        <ele>319.8</ele>
        <time>2024-04-06T09:41:53Z</time>
      </trkpt>
      <trkpt lat="49.97772" lon="4.63135">
        <ele>319.8</ele>
        <time>2024-04-06T09:41:54Z</time>
      </trkpt>
      <trkpt lat="49.97776" lon="4.63145">
        <ele>319.8</ele>
        <time>2024-04-06T09:41:55Z</time>
      </trkpt>
      <trkpt lat="49.9778" lon="4.63155">
        <ele>319.6</ele>
        <time>2024-04-06T09:41:56Z</time>
      </trkpt>
      <trkpt lat="49.97784" lon="4.63165">
        <ele>319.6</ele>
        <time>2024-04-06T09:41:57Z</time>
      </trkpt>
      <trkpt lat="49.97787" lon="4.63176">
        <ele>319.6</ele>
        <time>2024-04-06T09:41:58Z</time>
      </trkpt>
      <trkpt lat="49.97791" lon="4.63186">
        <ele>319.4</ele>
        <time>2024-04-06T09:41:59Z</time>
      </trkpt>
      <trkpt lat="49.97795" lon="4.63196">
        <ele>319.4</ele>
        <time>2024-04-06T09:42:00Z</time>
      </trkpt>
      <trkpt lat="49.97798" lon="4.63207">
        <ele>319.2</ele>
        <time>2024-04-06T09:42:01Z</time>
      </trkpt>
      <trkpt lat="49.97802" lon="4.63217">
        <ele>319.4</ele>
        <time>2024-04-06T09:42:02Z</time>
      </trkpt>
      <trkpt lat="49.97806" lon="4.63228">
        <ele>319.4</ele>
        <time>2024-04-06T09:42:03Z</time>
      </trkpt>
      <trkpt lat="49.9781" lon="4.63238">
        <ele>319.2</ele>
        <time>2024-04-06T09:42:04Z</time>
      </trkpt>
      <trkpt lat="49.97814" lon="4.63249">
        <ele>319.4</ele>
        <time>2024-04-06T09:42:05Z</time>
      </trkpt>
      <trkpt lat="49.97817" lon="4.6326">
        <ele>319.4</ele>
        <time>2024-04-06T09:42:06Z</time>
      </trkpt>
      <trkpt lat="49.97821" lon="4.63271">
        <ele>319.2</ele>
        <time>2024-04-06T09:42:07Z</time>
      </trkpt>
      <trkpt lat="49.97825" lon="4.63282">
        <ele>319</ele>
        <time>2024-04-06T09:42:08Z</time>
      </trkpt>
      <trkpt lat="49.97829" lon="4.63292">
        <ele>319</ele>
        <time>2024-04-06T09:42:09Z</time>
      </trkpt>
      <trkpt lat="49.97833" lon="4.63304">
        <ele>318.6</ele>
        <time>2024-04-06T09:42:10Z</time>
      </trkpt>
      <trkpt lat="49.97837" lon="4.63314">
        <ele>318.2</ele>
        <time>2024-04-06T09:42:11Z</time>
      </trkpt>
      <trkpt lat="49.97841" lon="4.63325">
        <ele>318.2</ele>
        <time>2024-04-06T09:42:12Z</time>
      </trkpt>
      <trkpt lat="49.97845" lon="4.63335">
        <ele>317.8</ele>
        <time>2024-04-06T09:42:13Z</time>
      </trkpt>
      <trkpt lat="49.9785" lon="4.63345">
        <ele>317.8</ele>
        <time>2024-04-06T09:42:14Z</time>
      </trkpt>
      <trkpt lat="49.97854" lon="4.63355">
        <ele>317.6</ele>
        <time>2024-04-06T09:42:15Z</time>
      </trkpt>
      <trkpt lat="49.97859" lon="4.63365">
        <ele>317.6</ele>
        <time>2024-04-06T09:42:16Z</time>
      </trkpt>
      <trkpt lat="49.97864" lon="4.63374">
        <ele>317.6</ele>
        <time>2024-04-06T09:42:17Z</time>
      </trkpt>
      <trkpt lat="49.9787" lon="4.63383">
        <ele>317.6</ele>
        <time>2024-04-06T09:42:18Z</time>
      </trkpt>
      <trkpt lat="49.97875" lon="4.63393">
        <ele>317.6</ele>
        <time>2024-04-06T09:42:19Z</time>
      </trkpt>
      <trkpt lat="49.97881" lon="4.63402">
        <ele>317.4</ele>
        <time>2024-04-06T09:42:20Z</time>
      </trkpt>
      <trkpt lat="49.97886" lon="4.63411">
        <ele>317.4</ele>
        <time>2024-04-06T09:42:21Z</time>
      </trkpt>
      <trkpt lat="49.97891" lon="4.6342">
        <ele>317.4</ele>
        <time>2024-04-06T09:42:22Z</time>
      </trkpt>
      <trkpt lat="49.97897" lon="4.63429">
        <ele>317.4</ele>
        <time>2024-04-06T09:42:23Z</time>
      </trkpt>
      <trkpt lat="49.97902" lon="4.63438">
        <ele>317.4</ele>
        <time>2024-04-06T09:42:24Z</time>
      </trkpt>
      <trkpt lat="49.97908" lon="4.63447">
        <ele>317.4</ele>
        <time>2024-04-06T09:42:25Z</time>
      </trkpt>
      <trkpt lat="49.97914" lon="4.63455">
        <ele>317.4</ele>
        <time>2024-04-06T09:42:26Z</time>
      </trkpt>
      <trkpt lat="49.97919" lon="4.63464">
        <ele>317.4</ele>
        <time>2024-04-06T09:42:27Z</time>
      </trkpt>
      <trkpt lat="49.97925" lon="4.63473">
        <ele>317.4</ele>
        <time>2024-04-06T09:42:28Z</time>
      </trkpt>
      <trkpt lat="49.9793" lon="4.63482">
        <ele>317.4</ele>
        <time>2024-04-06T09:42:29Z</time>
      </trkpt>
      <trkpt lat="49.97936" lon="4.6349">
        <ele>317.2</ele>
        <time>2024-04-06T09:42:30Z</time>
      </trkpt>
      <trkpt lat="49.97941" lon="4.63499">
        <ele>317</ele>
        <time>2024-04-06T09:42:31Z</time>
      </trkpt>
      <trkpt lat="49.97946" lon="4.63508">
        <ele>317</ele>
        <time>2024-04-06T09:42:32Z</time>
      </trkpt>
      <trkpt lat="49.97951" lon="4.63517">
        <ele>316.8</ele>
        <time>2024-04-06T09:42:33Z</time>
      </trkpt>
      <trkpt lat="49.97957" lon="4.63525">
        <ele>316.8</ele>
        <time>2024-04-06T09:42:34Z</time>
      </trkpt>
      <trkpt lat="49.97962" lon="4.63534">
        <ele>316.4</ele>
        <time>2024-04-06T09:42:35Z</time>
      </trkpt>
      <trkpt lat="49.97967" lon="4.63542">
        <ele>316.2</ele>
        <time>2024-04-06T09:42:36Z</time>
      </trkpt>
      <trkpt lat="49.97972" lon="4.63551">
        <ele>316</ele>
        <time>2024-04-06T09:42:37Z</time>
      </trkpt>
      <trkpt lat="49.97977" lon="4.6356">
        <ele>316</ele>
        <time>2024-04-06T09:42:38Z</time>
      </trkpt>
      <trkpt lat="49.97982" lon="4.63569">
        <ele>316</ele>
        <time>2024-04-06T09:42:39Z</time>
      </trkpt>
      <trkpt lat="49.97987" lon="4.63578">
        <ele>315.8</ele>
        <time>2024-04-06T09:42:40Z</time>
      </trkpt>
      <trkpt lat="49.97991" lon="4.63588">
        <ele>315.6</ele>
        <time>2024-04-06T09:42:41Z</time>
      </trkpt>
      <trkpt lat="49.97995" lon="4.63598">
        <ele>315.4</ele>
        <time>2024-04-06T09:42:42Z</time>
      </trkpt>
      <trkpt lat="49.97998" lon="4.63608">
        <ele>315.4</ele>
        <time>2024-04-06T09:42:43Z</time>
      </trkpt>
      <trkpt lat="49.98001" lon="4.63619">
        <ele>315.2</ele>
        <time>2024-04-06T09:42:44Z</time>
      </trkpt>
      <trkpt lat="49.98003" lon="4.63631">
        <ele>315.2</ele>
        <time>2024-04-06T09:42:45Z</time>
      </trkpt>
      <trkpt lat="49.98005" lon="4.63642">
        <ele>315.2</ele>
        <time>2024-04-06T09:42:46Z</time>
      </trkpt>
      <trkpt lat="49.98007" lon="4.63654">
        <ele>314.8</ele>
        <time>2024-04-06T09:42:47Z</time>
      </trkpt>
      <trkpt lat="49.98008" lon="4.63665">
        <ele>315</ele>
        <time>2024-04-06T09:42:48Z</time>
      </trkpt>
      <trkpt lat="49.98009" lon="4.63677">
        <ele>314.6</ele>
        <time>2024-04-06T09:42:49Z</time>
      </trkpt>
      <trkpt lat="49.98009" lon="4.6369">
        <ele>314.6</ele>
        <time>2024-04-06T09:42:50Z</time>
      </trkpt>
      <trkpt lat="49.9801" lon="4.63702">
        <ele>314.2</ele>
        <time>2024-04-06T09:42:51Z</time>
      </trkpt>
      <trkpt lat="49.9801" lon="4.63715">
        <ele>314</ele>
        <time>2024-04-06T09:42:52Z</time>
      </trkpt>
      <trkpt lat="49.98011" lon="4.63728">
        <ele>313.4</ele>
        <time>2024-04-06T09:42:53Z</time>
      </trkpt>
      <trkpt lat="49.98012" lon="4.63741">
        <ele>313</ele>
        <time>2024-04-06T09:42:54Z</time>
      </trkpt>
      <trkpt lat="49.98013" lon="4.63755">
        <ele>312.2</ele>
        <time>2024-04-06T09:42:55Z</time>
      </trkpt>
      <trkpt lat="49.98013" lon="4.63769">
        <ele>311.8</ele>
        <time>2024-04-06T09:42:56Z</time>
      </trkpt>
      <trkpt lat="49.98014" lon="4.63784">
        <ele>311.6</ele>
        <time>2024-04-06T09:42:57Z</time>
      </trkpt>
      <trkpt lat="49.98015" lon="4.63799">
        <ele>311.2</ele>
        <time>2024-04-06T09:42:58Z</time>
      </trkpt>
      <trkpt lat="49.98016" lon="4.63814">
        <ele>311</ele>
        <time>2024-04-06T09:42:59Z</time>
      </trkpt>
      <trkpt lat="49.98017" lon="4.63829">
        <ele>310.8</ele>
        <time>2024-04-06T09:43:00Z</time>
      </trkpt>
      <trkpt lat="49.98018" lon="4.63845">
        <ele>310.6</ele>
        <time>2024-04-06T09:43:01Z</time>
      </trkpt>
      <trkpt lat="49.98018" lon="4.63861">
        <ele>310.4</ele>
        <time>2024-04-06T09:43:02Z</time>
      </trkpt>
      <trkpt lat="49.98019" lon="4.63878">
        <ele>310</ele>
        <time>2024-04-06T09:43:03Z</time>
      </trkpt>
      <trkpt lat="49.9802" lon="4.63895">
        <ele>310</ele>
        <time>2024-04-06T09:43:04Z</time>
      </trkpt>
      <trkpt lat="49.9802" lon="4.63912">
        <ele>310.2</ele>
        <time>2024-04-06T09:43:05Z</time>
      </trkpt>
      <trkpt lat="49.9802" lon="4.63929">
        <ele>309.8</ele>
        <time>2024-04-06T09:43:06Z</time>
      </trkpt>
      <trkpt lat="49.98019" lon="4.63947">
        <ele>309.6</ele>
        <time>2024-04-06T09:43:07Z</time>
      </trkpt>
      <trkpt lat="49.98017" lon="4.63964">
        <ele>309.4</ele>
        <time>2024-04-06T09:43:08Z</time>
      </trkpt>
      <trkpt lat="49.98014" lon="4.63981">
        <ele>308.4</ele>
        <time>2024-04-06T09:43:09Z</time>
      </trkpt>
      <trkpt lat="49.98011" lon="4.63998">
        <ele>307.2</ele>
        <time>2024-04-06T09:43:10Z</time>
      </trkpt>
      <trkpt lat="49.98006" lon="4.64013">
        <ele>306.4</ele>
        <time>2024-04-06T09:43:11Z</time>
      </trkpt>
      <trkpt lat="49.98002" lon="4.64028">
        <ele>305.6</ele>
        <time>2024-04-06T09:43:12Z</time>
      </trkpt>
      <trkpt lat="49.97997" lon="4.64043">
        <ele>304.6</ele>
        <time>2024-04-06T09:43:13Z</time>
      </trkpt>
      <trkpt lat="49.97992" lon="4.64058">
        <ele>303.8</ele>
        <time>2024-04-06T09:43:14Z</time>
      </trkpt>
      <trkpt lat="49.97987" lon="4.64072">
        <ele>302.6</ele>
        <time>2024-04-06T09:43:15Z</time>
      </trkpt>
      <trkpt lat="49.97982" lon="4.64087">
        <ele>301.2</ele>
        <time>2024-04-06T09:43:16Z</time>
      </trkpt>
      <trkpt lat="49.97976" lon="4.64101">
        <ele>300.6</ele>
        <time>2024-04-06T09:43:17Z</time>
      </trkpt>
      <trkpt lat="49.97971" lon="4.64116">
        <ele>299.6</ele>
        <time>2024-04-06T09:43:18Z</time>
      </trkpt>
      <trkpt lat="49.97965" lon="4.6413">
        <ele>299</ele>
        <time>2024-04-06T09:43:19Z</time>
      </trkpt>
      <trkpt lat="49.97959" lon="4.64144">
        <ele>299</ele>
        <time>2024-04-06T09:43:20Z</time>
      </trkpt>
      <trkpt lat="49.97953" lon="4.64158">
        <ele>299</ele>
        <time>2024-04-06T09:43:21Z</time>
      </trkpt>
      <trkpt lat="49.97947" lon="4.64171">
        <ele>298.8</ele>
        <time>2024-04-06T09:43:22Z</time>
      </trkpt>
      <trkpt lat="49.9794" lon="4.64185">
        <ele>298.4</ele>
        <time>2024-04-06T09:43:23Z</time>
      </trkpt>
      <trkpt lat="49.97933" lon="4.64198">
        <ele>298.2</ele>
        <time>2024-04-06T09:43:24Z</time>
      </trkpt>
      <trkpt lat="49.97925" lon="4.6421">
        <ele>298</ele>
        <time>2024-04-06T09:43:25Z</time>
      </trkpt>
      <trkpt lat="49.97918" lon="4.64223">
        <ele>298</ele>
        <time>2024-04-06T09:43:26Z</time>
      </trkpt>
      <trkpt lat="49.9791" lon="4.64236">
        <ele>297.2</ele>
        <time>2024-04-06T09:43:27Z</time>
      </trkpt>
      <trkpt lat="49.97902" lon="4.64248">
        <ele>296.8</ele>
        <time>2024-04-06T09:43:28Z</time>
      </trkpt>
      <trkpt lat="49.97894" lon="4.6426">
        <ele>296.2</ele>
        <time>2024-04-06T09:43:29Z</time>
      </trkpt>
      <trkpt lat="49.97886" lon="4.64273">
        <ele>295.2</ele>
        <time>2024-04-06T09:43:30Z</time>
      </trkpt>
      <trkpt lat="49.97878" lon="4.64286">
        <ele>294.4</ele>
        <time>2024-04-06T09:43:31Z</time>
      </trkpt>
      <trkpt lat="49.97871" lon="4.64298">
        <ele>294</ele>
        <time>2024-04-06T09:43:32Z</time>
      </trkpt>
      <trkpt lat="49.97864" lon="4.64312">
        <ele>293.8</ele>
        <time>2024-04-06T09:43:33Z</time>
      </trkpt>
      <trkpt lat="49.97859" lon="4.64327">
        <ele>293.6</ele>
        <time>2024-04-06T09:43:34Z</time>
      </trkpt>
      <trkpt lat="49.97855" lon="4.64342">
        <ele>293.4</ele>
        <time>2024-04-06T09:43:35Z</time>
      </trkpt>
      <trkpt lat="49.97853" lon="4.64359">
        <ele>293</ele>
        <time>2024-04-06T09:43:36Z</time>
      </trkpt>
      <trkpt lat="49.97852" lon="4.64375">
        <ele>292.4</ele>
        <time>2024-04-06T09:43:37Z</time>
      </trkpt>
      <trkpt lat="49.97854" lon="4.64392">
        <ele>290.8</ele>
        <time>2024-04-06T09:43:38Z</time>
      </trkpt>
      <trkpt lat="49.97858" lon="4.64406">
        <ele>290.8</ele>
        <time>2024-04-06T09:43:39Z</time>
      </trkpt>
      <trkpt lat="49.97863" lon="4.6442">
        <ele>288.8</ele>
        <time>2024-04-06T09:43:40Z</time>
      </trkpt>
      <trkpt lat="49.9787" lon="4.64431">
        <ele>288.8</ele>
        <time>2024-04-06T09:43:41Z</time>
      </trkpt>
      <trkpt lat="49.97877" lon="4.64441">
        <ele>288.6</ele>
        <time>2024-04-06T09:43:42Z</time>
      </trkpt>
      <trkpt lat="49.97884" lon="4.64451">
        <ele>288.4</ele>
        <time>2024-04-06T09:43:43Z</time>
      </trkpt>
      <trkpt lat="49.97891" lon="4.6446">
        <ele>288.4</ele>
        <time>2024-04-06T09:43:44Z</time>
      </trkpt>
      <trkpt lat="49.97898" lon="4.64469">
        <ele>288.4</ele>
        <time>2024-04-06T09:43:45Z</time>
      </trkpt>
      <trkpt lat="49.97905" lon="4.64478">
        <ele>288.2</ele>
        <time>2024-04-06T09:43:46Z</time>
      </trkpt>
      <trkpt lat="49.97911" lon="4.64488">
        <ele>288</ele>
        <time>2024-04-06T09:43:47Z</time>
      </trkpt>
      <trkpt lat="49.97917" lon="4.64499">
        <ele>288.2</ele>
        <time>2024-04-06T09:43:48Z</time>
      </trkpt>
      <trkpt lat="49.97923" lon="4.6451">
        <ele>288.2</ele>
        <time>2024-04-06T09:43:49Z</time>
      </trkpt>
      <trkpt lat="49.97928" lon="4.64521">
        <ele>288.2</ele>
        <time>2024-04-06T09:43:50Z</time>
      </trkpt>
      <trkpt lat="49.97932" lon="4.64532">
        <ele>288.2</ele>
        <time>2024-04-06T09:43:51Z</time>
      </trkpt>
      <trkpt lat="49.97937" lon="4.64543">
        <ele>288.4</ele>
        <time>2024-04-06T09:43:52Z</time>
      </trkpt>
      <trkpt lat="49.97942" lon="4.64554">
        <ele>288.4</ele>
        <time>2024-04-06T09:43:53Z</time>
      </trkpt>
      <trkpt lat="49.97946" lon="4.64565">
        <ele>288.4</ele>
        <time>2024-04-06T09:43:54Z</time>
      </trkpt>
      <trkpt lat="49.97951" lon="4.64575">
        <ele>288.8</ele>
        <time>2024-04-06T09:43:55Z</time>
      </trkpt>
      <trkpt lat="49.97956" lon="4.64585">
        <ele>288.8</ele>
        <time>2024-04-06T09:43:56Z</time>
      </trkpt>
      <trkpt lat="49.97961" lon="4.64595">
        <ele>289</ele>
        <time>2024-04-06T09:43:57Z</time>
      </trkpt>
      <trkpt lat="49.97966" lon="4.64604">
        <ele>289.2</ele>
        <time>2024-04-06T09:43:58Z</time>
      </trkpt>
      <trkpt lat="49.97971" lon="4.64613">
        <ele>289.2</ele>
        <time>2024-04-06T09:43:59Z</time>
      </trkpt>
      <trkpt lat="49.97976" lon="4.64621">
        <ele>289.2</ele>
        <time>2024-04-06T09:44:00Z</time>
      </trkpt>
      <trkpt lat="49.97982" lon="4.64629">
        <ele>289.2</ele>
        <time>2024-04-06T09:44:01Z</time>
      </trkpt>
      <trkpt lat="49.97987" lon="4.64638">
        <ele>289.4</ele>
        <time>2024-04-06T09:44:02Z</time>
      </trkpt>
      <trkpt lat="49.97992" lon="4.64646">
        <ele>289.6</ele>
        <time>2024-04-06T09:44:03Z</time>
      </trkpt>
      <trkpt lat="49.97998" lon="4.64654">
        <ele>289.6</ele>
        <time>2024-04-06T09:44:04Z</time>
      </trkpt>
      <trkpt lat="49.98003" lon="4.64662">
        <ele>289.6</ele>
        <time>2024-04-06T09:44:05Z</time>
      </trkpt>
      <trkpt lat="49.98007" lon="4.64671">
        <ele>290</ele>
        <time>2024-04-06T09:44:06Z</time>
      </trkpt>
      <trkpt lat="49.98012" lon="4.6468">
        <ele>290.2</ele>
        <time>2024-04-06T09:44:07Z</time>
      </trkpt>
      <trkpt lat="49.98016" lon="4.64689">
        <ele>290.4</ele>
        <time>2024-04-06T09:44:08Z</time>
      </trkpt>
      <trkpt lat="49.9802" lon="4.64698">
        <ele>290.8</ele>
        <time>2024-04-06T09:44:09Z</time>
      </trkpt>
      <trkpt lat="49.98023" lon="4.64708">
        <ele>290.8</ele>
        <time>2024-04-06T09:44:10Z</time>
      </trkpt>
      <trkpt lat="49.98027" lon="4.64717">
        <ele>291</ele>
        <time>2024-04-06T09:44:11Z</time>
      </trkpt>
      <trkpt lat="49.9803" lon="4.64727">
        <ele>291.2</ele>
        <time>2024-04-06T09:44:12Z</time>
      </trkpt>
      <trkpt lat="49.98033" lon="4.64736">
        <ele>291.2</ele>
        <time>2024-04-06T09:44:13Z</time>
      </trkpt>
      <trkpt lat="49.98036" lon="4.64745">
        <ele>291.4</ele>
        <time>2024-04-06T09:44:14Z</time>
      </trkpt>
      <trkpt lat="49.98039" lon="4.64755">
        <ele>291.4</ele>
        <time>2024-04-06T09:44:15Z</time>
      </trkpt>
      <trkpt lat="49.98042" lon="4.64764">
        <ele>291.4</ele>
        <time>2024-04-06T09:44:16Z</time>
      </trkpt>
      <trkpt lat="49.98045" lon="4.64773">
        <ele>291.6</ele>
        <time>2024-04-06T09:44:17Z</time>
      </trkpt>
      <trkpt lat="49.98048" lon="4.64781">
        <ele>291.6</ele>
        <time>2024-04-06T09:44:18Z</time>
      </trkpt>
      <trkpt lat="49.98051" lon="4.6479">
        <ele>291.4</ele>
        <time>2024-04-06T09:44:19Z</time>
      </trkpt>
      <trkpt lat="49.98054" lon="4.64799">
        <ele>291.6</ele>
        <time>2024-04-06T09:44:20Z</time>
      </trkpt>
      <trkpt lat="49.98058" lon="4.64808">
        <ele>291.6</ele>
        <time>2024-04-06T09:44:21Z</time>
      </trkpt>
      <trkpt lat="49.98061" lon="4.64817">
        <ele>291.8</ele>
        <time>2024-04-06T09:44:22Z</time>
      </trkpt>
      <trkpt lat="49.98064" lon="4.64826">
        <ele>292</ele>
        <time>2024-04-06T09:44:23Z</time>
      </trkpt>
      <trkpt lat="49.98067" lon="4.64835">
        <ele>292</ele>
        <time>2024-04-06T09:44:24Z</time>
      </trkpt>
      <trkpt lat="49.98071" lon="4.64844">
        <ele>292.4</ele>
        <time>2024-04-06T09:44:25Z</time>
      </trkpt>
      <trkpt lat="49.98074" lon="4.64852">
        <ele>292.6</ele>
        <time>2024-04-06T09:44:26Z</time>
      </trkpt>
      <trkpt lat="49.98078" lon="4.6486">
        <ele>292.8</ele>
        <time>2024-04-06T09:44:27Z</time>
      </trkpt>
      <trkpt lat="49.98082" lon="4.64868">
        <ele>293</ele>
        <time>2024-04-06T09:44:28Z</time>
      </trkpt>
      <trkpt lat="49.98086" lon="4.64876">
        <ele>293.2</ele>
        <time>2024-04-06T09:44:29Z</time>
      </trkpt>
      <trkpt lat="49.98091" lon="4.64884">
        <ele>293.2</ele>
        <time>2024-04-06T09:44:30Z</time>
      </trkpt>
      <trkpt lat="49.98095" lon="4.64891">
        <ele>293.4</ele>
        <time>2024-04-06T09:44:31Z</time>
      </trkpt>
      <trkpt lat="49.981" lon="4.64899">
        <ele>293.4</ele>
        <time>2024-04-06T09:44:32Z</time>
      </trkpt>
      <trkpt lat="49.98104" lon="4.64905">
        <ele>293.4</ele>
        <time>2024-04-06T09:44:33Z</time>
      </trkpt>
      <trkpt lat="49.98109" lon="4.64912">
        <ele>293.4</ele>
        <time>2024-04-06T09:44:34Z</time>
      </trkpt>
      <trkpt lat="49.98114" lon="4.64919">
        <ele>293.4</ele>
        <time>2024-04-06T09:44:35Z</time>
      </trkpt>
      <trkpt lat="49.9812" lon="4.64925">
        <ele>293.4</ele>
        <time>2024-04-06T09:44:36Z</time>
      </trkpt>
      <trkpt lat="49.98125" lon="4.64931">
        <ele>293.4</ele>
        <time>2024-04-06T09:44:37Z</time>
      </trkpt>
      <trkpt lat="49.9813" lon="4.64938">
        <ele>293.6</ele>
        <time>2024-04-06T09:44:38Z</time>
      </trkpt>
      <trkpt lat="49.98135" lon="4.64945">
        <ele>293.4</ele>
        <time>2024-04-06T09:44:39Z</time>
      </trkpt>
      <trkpt lat="49.9814" lon="4.64951">
        <ele>293.4</ele>
        <time>2024-04-06T09:44:40Z</time>
      </trkpt>
      <trkpt lat="49.98146" lon="4.64957">
        <ele>293.6</ele>
        <time>2024-04-06T09:44:41Z</time>
      </trkpt>
      <trkpt lat="49.98151" lon="4.64963">
        <ele>293.4</ele>
        <time>2024-04-06T09:44:42Z</time>
      </trkpt>
      <trkpt lat="49.98156" lon="4.6497">
        <ele>293.4</ele>
        <time>2024-04-06T09:44:43Z</time>
      </trkpt>
      <trkpt lat="49.98161" lon="4.64976">
        <ele>293.6</ele>
        <time>2024-04-06T09:44:44Z</time>
      </trkpt>
      <trkpt lat="49.98166" lon="4.64982">
        <ele>293.4</ele>
        <time>2024-04-06T09:44:45Z</time>
      </trkpt>
      <trkpt lat="49.9817" lon="4.64989">
        <ele>293.6</ele>
        <time>2024-04-06T09:44:46Z</time>
      </trkpt>
      <trkpt lat="49.98175" lon="4.64995">
        <ele>293.8</ele>
        <time>2024-04-06T09:44:47Z</time>
      </trkpt>
      <trkpt lat="49.98179" lon="4.65001">
        <ele>293.8</ele>
        <time>2024-04-06T09:44:48Z</time>
      </trkpt>
      <trkpt lat="49.98184" lon="4.65007">
        <ele>293.6</ele>
        <time>2024-04-06T09:44:49Z</time>
      </trkpt>
      <trkpt lat="49.98188" lon="4.65013">
        <ele>293.8</ele>
        <time>2024-04-06T09:44:50Z</time>
      </trkpt>
      <trkpt lat="49.98192" lon="4.6502">
        <ele>294</ele>
        <time>2024-04-06T09:44:51Z</time>
      </trkpt>
      <trkpt lat="49.98197" lon="4.65026">
        <ele>294.2</ele>
        <time>2024-04-06T09:44:52Z</time>
      </trkpt>
      <trkpt lat="49.98202" lon="4.65032">
        <ele>294.6</ele>
        <time>2024-04-06T09:44:53Z</time>
      </trkpt>
      <trkpt lat="49.98206" lon="4.65038">
        <ele>294.8</ele>
        <time>2024-04-06T09:44:54Z</time>
      </trkpt>
      <trkpt lat="49.98211" lon="4.65044">
        <ele>295</ele>
        <time>2024-04-06T09:44:55Z</time>
      </trkpt>
      <trkpt lat="49.98215" lon="4.65051">
        <ele>295</ele>
        <time>2024-04-06T09:44:56Z</time>
      </trkpt>
      <trkpt lat="49.9822" lon="4.65057">
        <ele>295.2</ele>
        <time>2024-04-06T09:44:57Z</time>
      </trkpt>
      <trkpt lat="49.98224" lon="4.65063">
        <ele>295.2</ele>
        <time>2024-04-06T09:44:58Z</time>
      </trkpt>
      <trkpt lat="49.98228" lon="4.6507">
        <ele>295.2</ele>
        <time>2024-04-06T09:44:59Z</time>
      </trkpt>
      <trkpt lat="49.98232" lon="4.65076">
        <ele>295.2</ele>
        <time>2024-04-06T09:45:00Z</time>
      </trkpt>
      <trkpt lat="49.98235" lon="4.65082">
        <ele>295.2</ele>
        <time>2024-04-06T09:45:01Z</time>
      </trkpt>
      <trkpt lat="49.98239" lon="4.65088">
        <ele>295.2</ele>
        <time>2024-04-06T09:45:02Z</time>
      </trkpt>
      <trkpt lat="49.98243" lon="4.65094">
        <ele>295.2</ele>
        <time>2024-04-06T09:45:03Z</time>
      </trkpt>
      <trkpt lat="49.98247" lon="4.651">
        <ele>295.4</ele>
        <time>2024-04-06T09:45:04Z</time>
      </trkpt>
      <trkpt lat="49.9825" lon="4.65105">
        <ele>295.4</ele>
        <time>2024-04-06T09:45:05Z</time>
      </trkpt>
      <trkpt lat="49.98254" lon="4.65111">
        <ele>295.6</ele>
        <time>2024-04-06T09:45:06Z</time>
      </trkpt>
      <trkpt lat="49.98258" lon="4.65117">
        <ele>296</ele>
        <time>2024-04-06T09:45:07Z</time>
      </trkpt>
      <trkpt lat="49.98261" lon="4.65122">
        <ele>296.4</ele>
        <time>2024-04-06T09:45:08Z</time>
      </trkpt>
      <trkpt lat="49.98265" lon="4.65128">
        <ele>297</ele>
        <time>2024-04-06T09:45:09Z</time>
      </trkpt>
      <trkpt lat="49.98268" lon="4.65133">
        <ele>297</ele>
        <time>2024-04-06T09:45:10Z</time>
      </trkpt>
      <trkpt lat="49.98272" lon="4.65138">
        <ele>297.4</ele>
        <time>2024-04-06T09:45:11Z</time>
      </trkpt>
      <trkpt lat="49.98275" lon="4.65144">
        <ele>297.6</ele>
        <time>2024-04-06T09:45:12Z</time>
      </trkpt>
      <trkpt lat="49.98278" lon="4.65149">
        <ele>297.8</ele>
        <time>2024-04-06T09:45:13Z</time>
      </trkpt>
      <trkpt lat="49.98282" lon="4.65155">
        <ele>297.8</ele>
        <time>2024-04-06T09:45:14Z</time>
      </trkpt>
      <trkpt lat="49.98285" lon="4.6516">
        <ele>297.8</ele>
        <time>2024-04-06T09:45:15Z</time>
      </trkpt>
      <trkpt lat="49.98288" lon="4.65165">
        <ele>298</ele>
        <time>2024-04-06T09:45:16Z</time>
      </trkpt>
      <trkpt lat="49.98292" lon="4.6517">
        <ele>298</ele>
        <time>2024-04-06T09:45:17Z</time>
      </trkpt>
      <trkpt lat="49.98295" lon="4.65175">
        <ele>298.2</ele>
        <time>2024-04-06T09:45:18Z</time>
      </trkpt>
      <trkpt lat="49.98298" lon="4.65181">
        <ele>298.4</ele>
        <time>2024-04-06T09:45:19Z</time>
      </trkpt>
      <trkpt lat="49.98301" lon="4.65187">
        <ele>298.8</ele>
        <time>2024-04-06T09:45:20Z</time>
      </trkpt>
      <trkpt lat="49.98305" lon="4.65192">
        <ele>299</ele>
        <time>2024-04-06T09:45:21Z</time>
      </trkpt>
      <trkpt lat="49.98308" lon="4.65197">
        <ele>299.2</ele>
        <time>2024-04-06T09:45:22Z</time>
      </trkpt>
      <trkpt lat="49.98311" lon="4.65202">
        <ele>299.2</ele>
        <time>2024-04-06T09:45:23Z</time>
      </trkpt>
      <trkpt lat="49.98315" lon="4.65208">
        <ele>299.4</ele>
        <time>2024-04-06T09:45:24Z</time>
      </trkpt>
      <trkpt lat="49.98318" lon="4.65213">
        <ele>299.8</ele>
        <time>2024-04-06T09:45:25Z</time>
      </trkpt>
      <trkpt lat="49.98321" lon="4.65219">
        <ele>300</ele>
        <time>2024-04-06T09:45:26Z</time>
      </trkpt>
      <trkpt lat="49.98324" lon="4.65224">
        <ele>300.4</ele>
        <time>2024-04-06T09:45:27Z</time>
      </trkpt>
      <trkpt lat="49.98327" lon="4.65229">
        <ele>300.8</ele>
        <time>2024-04-06T09:45:28Z</time>
      </trkpt>
      <trkpt lat="49.9833" lon="4.65234">
        <ele>300.8</ele>
        <time>2024-04-06T09:45:29Z</time>
      </trkpt>
      <trkpt lat="49.98334" lon="4.6524">
        <ele>301</ele>
        <time>2024-04-06T09:45:30Z</time>
      </trkpt>
      <trkpt lat="49.98337" lon="4.65245">
        <ele>301</ele>
        <time>2024-04-06T09:45:31Z</time>
      </trkpt>
      <trkpt lat="49.9834" lon="4.6525">
        <ele>301.2</ele>
        <time>2024-04-06T09:45:32Z</time>
      </trkpt>
      <trkpt lat="49.98344" lon="4.65256">
        <ele>301.2</ele>
        <time>2024-04-06T09:45:33Z</time>
      </trkpt>
      <trkpt lat="49.98347" lon="4.65261">
        <ele>301.4</ele>
        <time>2024-04-06T09:45:34Z</time>
      </trkpt>
      <trkpt lat="49.9835" lon="4.65267">
        <ele>301.4</ele>
        <time>2024-04-06T09:45:35Z</time>
      </trkpt>
      <trkpt lat="49.98353" lon="4.65272">
        <ele>301.4</ele>
        <time>2024-04-06T09:45:36Z</time>
      </trkpt>
      <trkpt lat="49.98356" lon="4.65278">
        <ele>301.6</ele>
        <time>2024-04-06T09:45:37Z</time>
      </trkpt>
      <trkpt lat="49.98359" lon="4.65285">
        <ele>301.8</ele>
        <time>2024-04-06T09:45:38Z</time>
      </trkpt>
      <trkpt lat="49.98361" lon="4.65291">
        <ele>302</ele>
        <time>2024-04-06T09:45:39Z</time>
      </trkpt>
      <trkpt lat="49.98364" lon="4.65297">
        <ele>302</ele>
        <time>2024-04-06T09:45:40Z</time>
      </trkpt>
      <trkpt lat="49.98367" lon="4.65303">
        <ele>302.2</ele>
        <time>2024-04-06T09:45:41Z</time>
      </trkpt>
      <trkpt lat="49.9837" lon="4.6531">
        <ele>303</ele>
        <time>2024-04-06T09:45:42Z</time>
      </trkpt>
      <trkpt lat="49.98372" lon="4.65316">
        <ele>303.4</ele>
        <time>2024-04-06T09:45:43Z</time>
      </trkpt>
      <trkpt lat="49.98375" lon="4.65323">
        <ele>303.8</ele>
        <time>2024-04-06T09:45:44Z</time>
      </trkpt>
      <trkpt lat="49.98377" lon="4.65329">
        <ele>304.2</ele>
        <time>2024-04-06T09:45:45Z</time>
      </trkpt>
      <trkpt lat="49.98379" lon="4.65336">
        <ele>304.4</ele>
        <time>2024-04-06T09:45:46Z</time>
      </trkpt>
      <trkpt lat="49.98382" lon="4.65342">
        <ele>304.4</ele>
        <time>2024-04-06T09:45:47Z</time>
      </trkpt>
      <trkpt lat="49.98384" lon="4.65349">
        <ele>304.6</ele>
        <time>2024-04-06T09:45:48Z</time>
      </trkpt>
      <trkpt lat="49.98386" lon="4.65355">
        <ele>304.8</ele>
        <time>2024-04-06T09:45:49Z</time>
      </trkpt>
      <trkpt lat="49.98388" lon="4.65362">
        <ele>304.8</ele>
        <time>2024-04-06T09:45:50Z</time>
      </trkpt>
      <trkpt lat="49.98391" lon="4.65368">
        <ele>305</ele>
        <time>2024-04-06T09:45:51Z</time>
      </trkpt>
      <trkpt lat="49.98393" lon="4.65375">
        <ele>305.2</ele>
        <time>2024-04-06T09:45:52Z</time>
      </trkpt>
      <trkpt lat="49.98395" lon="4.65381">
        <ele>305.6</ele>
        <time>2024-04-06T09:45:53Z</time>
      </trkpt>
      <trkpt lat="49.98397" lon="4.65387">
        <ele>306</ele>
        <time>2024-04-06T09:45:54Z</time>
      </trkpt>
      <trkpt lat="49.98399" lon="4.65394">
        <ele>306</ele>
        <time>2024-04-06T09:45:55Z</time>
      </trkpt>
      <trkpt lat="49.98401" lon="4.65401">
        <ele>306</ele>
        <time>2024-04-06T09:45:56Z</time>
      </trkpt>
      <trkpt lat="49.98403" lon="4.65407">
        <ele>306.2</ele>
        <time>2024-04-06T09:45:57Z</time>
      </trkpt>
      <trkpt lat="49.98405" lon="4.65414">
        <ele>306.4</ele>
        <time>2024-04-06T09:45:58Z</time>
      </trkpt>
      <trkpt lat="49.98408" lon="4.65421">
        <ele>306.4</ele>
        <time>2024-04-06T09:45:59Z</time>
      </trkpt>
      <trkpt lat="49.9841" lon="4.65427">
        <ele>306.4</ele>
        <time>2024-04-06T09:46:00Z</time>
      </trkpt>
      <trkpt lat="49.98411" lon="4.65434">
        <ele>306.4</ele>
        <time>2024-04-06T09:46:01Z</time>
      </trkpt>
      <trkpt lat="49.98413" lon="4.65441">
        <ele>306.6</ele>
        <time>2024-04-06T09:46:02Z</time>
      </trkpt>
      <trkpt lat="49.98414" lon="4.65449">
        <ele>306.8</ele>
        <time>2024-04-06T09:46:03Z</time>
      </trkpt>
      <trkpt lat="49.98416" lon="4.65456">
        <ele>306.8</ele>
        <time>2024-04-06T09:46:04Z</time>
      </trkpt>
      <trkpt lat="49.98418" lon="4.65464">
        <ele>306.8</ele>
        <time>2024-04-06T09:46:05Z</time>
      </trkpt>
      <trkpt lat="49.98419" lon="4.65472">
        <ele>307</ele>
        <time>2024-04-06T09:46:06Z</time>
      </trkpt>
      <trkpt lat="49.98419" lon="4.65481">
        <ele>307</ele>
        <time>2024-04-06T09:46:07Z</time>
      </trkpt>
      <trkpt lat="49.98419" lon="4.65489">
        <ele>307.2</ele>
        <time>2024-04-06T09:46:08Z</time>
      </trkpt>
      <trkpt lat="49.98419" lon="4.65499">
        <ele>307.4</ele>
        <time>2024-04-06T09:46:09Z</time>
      </trkpt>
      <trkpt lat="49.98418" lon="4.65508">
        <ele>307.6</ele>
        <time>2024-04-06T09:46:10Z</time>
      </trkpt>
      <trkpt lat="49.98417" lon="4.65517">
        <ele>307.6</ele>
        <time>2024-04-06T09:46:11Z</time>
      </trkpt>
      <trkpt lat="49.98415" lon="4.65526">
        <ele>307.8</ele>
        <time>2024-04-06T09:46:12Z</time>
      </trkpt>
      <trkpt lat="49.98413" lon="4.65535">
        <ele>307.8</ele>
        <time>2024-04-06T09:46:13Z</time>
      </trkpt>
      <trkpt lat="49.98411" lon="4.65544">
        <ele>307.8</ele>
        <time>2024-04-06T09:46:14Z</time>
      </trkpt>
      <trkpt lat="49.98408" lon="4.65553">
        <ele>308</ele>
        <time>2024-04-06T09:46:15Z</time>
      </trkpt>
      <trkpt lat="49.98405" lon="4.65562">
        <ele>307.8</ele>
        <time>2024-04-06T09:46:16Z</time>
      </trkpt>
      <trkpt lat="49.98402" lon="4.65571">
        <ele>307.8</ele>
        <time>2024-04-06T09:46:17Z</time>
      </trkpt>
      <trkpt lat="49.98399" lon="4.65579">
        <ele>308</ele>
        <time>2024-04-06T09:46:18Z</time>
      </trkpt>
      <trkpt lat="49.98396" lon="4.65588">
        <ele>308</ele>
        <time>2024-04-06T09:46:19Z</time>
      </trkpt>
      <trkpt lat="49.98393" lon="4.65597">
        <ele>308</ele>
        <time>2024-04-06T09:46:20Z</time>
      </trkpt>
      <trkpt lat="49.9839" lon="4.65606">
        <ele>308</ele>
        <time>2024-04-06T09:46:21Z</time>
      </trkpt>
      <trkpt lat="49.98387" lon="4.65616">
        <ele>308.2</ele>
        <time>2024-04-06T09:46:22Z</time>
      </trkpt>
      <trkpt lat="49.98385" lon="4.65626">
        <ele>308</ele>
        <time>2024-04-06T09:46:23Z</time>
      </trkpt>
      <trkpt lat="49.98383" lon="4.65636">
        <ele>308.2</ele>
        <time>2024-04-06T09:46:24Z</time>
      </trkpt>
      <trkpt lat="49.98381" lon="4.65646">
        <ele>308.2</ele>
        <time>2024-04-06T09:46:25Z</time>
      </trkpt>
      <trkpt lat="49.9838" lon="4.65657">
        <ele>308</ele>
        <time>2024-04-06T09:46:26Z</time>
      </trkpt>
      <trkpt lat="49.98379" lon="4.65667">
        <ele>308</ele>
        <time>2024-04-06T09:46:27Z</time>
      </trkpt>
      <trkpt lat="49.98379" lon="4.65678">
        <ele>308</ele>
        <time>2024-04-06T09:46:28Z</time>
      </trkpt>
      <trkpt lat="49.9838" lon="4.65689">
        <ele>308</ele>
        <time>2024-04-06T09:46:29Z</time>
      </trkpt>
      <trkpt lat="49.9838" lon="4.657">
        <ele>307.8</ele>
        <time>2024-04-06T09:46:30Z</time>
      </trkpt>
      <trkpt lat="49.98381" lon="4.65711">
        <ele>307.8</ele>
        <time>2024-04-06T09:46:31Z</time>
      </trkpt>
      <trkpt lat="49.98382" lon="4.65722">
        <ele>308</ele>
        <time>2024-04-06T09:46:32Z</time>
      </trkpt>
      <trkpt lat="49.98383" lon="4.65732">
        <ele>307.6</ele>
        <time>2024-04-06T09:46:33Z</time>
      </trkpt>
      <trkpt lat="49.98385" lon="4.65743">
        <ele>307.4</ele>
        <time>2024-04-06T09:46:34Z</time>
      </trkpt>
      <trkpt lat="49.98386" lon="4.65754">
        <ele>307.4</ele>
        <time>2024-04-06T09:46:35Z</time>
      </trkpt>
      <trkpt lat="49.98388" lon="4.65765">
        <ele>307.4</ele>
        <time>2024-04-06T09:46:36Z</time>
      </trkpt>
      <trkpt lat="49.9839" lon="4.65776">
        <ele>307.2</ele>
        <time>2024-04-06T09:46:37Z</time>
      </trkpt>
      <trkpt lat="49.98392" lon="4.65787">
        <ele>307.4</ele>
        <time>2024-04-06T09:46:38Z</time>
      </trkpt>
      <trkpt lat="49.98394" lon="4.65799">
        <ele>307.2</ele>
        <time>2024-04-06T09:46:39Z</time>
      </trkpt>
      <trkpt lat="49.98396" lon="4.6581">
        <ele>307</ele>
        <time>2024-04-06T09:46:40Z</time>
      </trkpt>
      <trkpt lat="49.98398" lon="4.65822">
        <ele>306.6</ele>
        <time>2024-04-06T09:46:41Z</time>
      </trkpt>
      <trkpt lat="49.984" lon="4.65834">
        <ele>306.6</ele>
        <time>2024-04-06T09:46:42Z</time>
      </trkpt>
      <trkpt lat="49.98402" lon="4.65845">
        <ele>306.4</ele>
        <time>2024-04-06T09:46:43Z</time>
      </trkpt>
      <trkpt lat="49.98405" lon="4.65857">
        <ele>306.4</ele>
        <time>2024-04-06T09:46:44Z</time>
      </trkpt>
      <trkpt lat="49.98407" lon="4.65868">
        <ele>306.2</ele>
        <time>2024-04-06T09:46:45Z</time>
      </trkpt>
      <trkpt lat="49.98409" lon="4.6588">
        <ele>305.8</ele>
        <time>2024-04-06T09:46:46Z</time>
      </trkpt>
      <trkpt lat="49.98411" lon="4.65892">
        <ele>305.8</ele>
        <time>2024-04-06T09:46:47Z</time>
      </trkpt>
      <trkpt lat="49.98413" lon="4.65904">
        <ele>305.8</ele>
        <time>2024-04-06T09:46:48Z</time>
      </trkpt>
      <trkpt lat="49.98414" lon="4.65916">
        <ele>305.4</ele>
        <time>2024-04-06T09:46:49Z</time>
      </trkpt>
      <trkpt lat="49.98415" lon="4.65928">
        <ele>305.2</ele>
        <time>2024-04-06T09:46:50Z</time>
      </trkpt>
      <trkpt lat="49.98416" lon="4.65941">
        <ele>304.4</ele>
        <time>2024-04-06T09:46:51Z</time>
      </trkpt>
      <trkpt lat="49.98416" lon="4.65954">
        <ele>304</ele>
        <time>2024-04-06T09:46:52Z</time>
      </trkpt>
      <trkpt lat="49.98416" lon="4.65966">
        <ele>303.8</ele>
        <time>2024-04-06T09:46:53Z</time>
      </trkpt>
      <trkpt lat="49.98416" lon="4.6598">
        <ele>303.4</ele>
        <time>2024-04-06T09:46:54Z</time>
      </trkpt>
      <trkpt lat="49.98416" lon="4.65993">
        <ele>303.2</ele>
        <time>2024-04-06T09:46:55Z</time>
      </trkpt>
      <trkpt lat="49.98417" lon="4.66006">
        <ele>303.2</ele>
        <time>2024-04-06T09:46:56Z</time>
      </trkpt>
      <trkpt lat="49.98417" lon="4.6602">
        <ele>303.2</ele>
        <time>2024-04-06T09:46:57Z</time>
      </trkpt>
      <trkpt lat="49.98418" lon="4.66033">
        <ele>303.2</ele>
        <time>2024-04-06T09:46:58Z</time>
      </trkpt>
      <trkpt lat="49.9842" lon="4.66046">
        <ele>303</ele>
        <time>2024-04-06T09:46:59Z</time>
      </trkpt>
      <trkpt lat="49.98423" lon="4.66059">
        <ele>302.8</ele>
        <time>2024-04-06T09:47:00Z</time>
      </trkpt>
      <trkpt lat="49.98427" lon="4.66071">
        <ele>302.8</ele>
        <time>2024-04-06T09:47:01Z</time>
      </trkpt>
      <trkpt lat="49.98431" lon="4.66082">
        <ele>302.6</ele>
        <time>2024-04-06T09:47:02Z</time>
      </trkpt>
      <trkpt lat="49.98436" lon="4.66092">
        <ele>302.6</ele>
        <time>2024-04-06T09:47:03Z</time>
      </trkpt>
      <trkpt lat="49.98442" lon="4.66101">
        <ele>302.6</ele>
        <time>2024-04-06T09:47:04Z</time>
      </trkpt>
      <trkpt lat="49.98448" lon="4.66109">
        <ele>302.4</ele>
        <time>2024-04-06T09:47:05Z</time>
      </trkpt>
      <trkpt lat="49.98454" lon="4.66117">
        <ele>302.4</ele>
        <time>2024-04-06T09:47:06Z</time>
      </trkpt>
      <trkpt lat="49.98461" lon="4.66124">
        <ele>302.4</ele>
        <time>2024-04-06T09:47:07Z</time>
      </trkpt>
      <trkpt lat="49.98468" lon="4.6613">
        <ele>302.4</ele>
        <time>2024-04-06T09:47:08Z</time>
      </trkpt>
      <trkpt lat="49.98476" lon="4.66137">
        <ele>302</ele>
        <time>2024-04-06T09:47:09Z</time>
      </trkpt>
      <trkpt lat="49.98484" lon="4.66143">
        <ele>302</ele>
        <time>2024-04-06T09:47:10Z</time>
      </trkpt>
      <trkpt lat="49.98491" lon="4.66149">
        <ele>301.6</ele>
        <time>2024-04-06T09:47:11Z</time>
      </trkpt>
      <trkpt lat="49.98499" lon="4.66155">
        <ele>301.4</ele>
        <time>2024-04-06T09:47:12Z</time>
      </trkpt>
      <trkpt lat="49.98507" lon="4.66161">
        <ele>301.4</ele>
        <time>2024-04-06T09:47:13Z</time>
      </trkpt>
      <trkpt lat="49.98514" lon="4.66167">
        <ele>301.2</ele>
        <time>2024-04-06T09:47:14Z</time>
      </trkpt>
      <trkpt lat="49.98522" lon="4.66173">
        <ele>301.2</ele>
        <time>2024-04-06T09:47:15Z</time>
      </trkpt>
      <trkpt lat="49.9853" lon="4.66179">
        <ele>301.2</ele>
        <time>2024-04-06T09:47:16Z</time>
      </trkpt>
      <trkpt lat="49.98538" lon="4.66185">
        <ele>301</ele>
        <time>2024-04-06T09:47:17Z</time>
      </trkpt>
      <trkpt lat="49.98546" lon="4.66191">
        <ele>300.8</ele>
        <time>2024-04-06T09:47:18Z</time>
      </trkpt>
      <trkpt lat="49.98554" lon="4.66197">
        <ele>300.6</ele>
        <time>2024-04-06T09:47:19Z</time>
      </trkpt>
      <trkpt lat="49.98562" lon="4.66203">
        <ele>300.4</ele>
        <time>2024-04-06T09:47:20Z</time>
      </trkpt>
      <trkpt lat="49.98569" lon="4.66208">
        <ele>300</ele>
        <time>2024-04-06T09:47:21Z</time>
      </trkpt>
      <trkpt lat="49.98577" lon="4.66214">
        <ele>299.8</ele>
        <time>2024-04-06T09:47:22Z</time>
      </trkpt>
      <trkpt lat="49.98584" lon="4.66221">
        <ele>299.4</ele>
        <time>2024-04-06T09:47:23Z</time>
      </trkpt>
      <trkpt lat="49.98592" lon="4.66228">
        <ele>299</ele>
        <time>2024-04-06T09:47:24Z</time>
      </trkpt>
      <trkpt lat="49.98599" lon="4.66235">
        <ele>298.6</ele>
        <time>2024-04-06T09:47:25Z</time>
      </trkpt>
      <trkpt lat="49.98606" lon="4.66243">
        <ele>298.4</ele>
        <time>2024-04-06T09:47:26Z</time>
      </trkpt>
      <trkpt lat="49.98613" lon="4.66252">
        <ele>298.2</ele>
        <time>2024-04-06T09:47:27Z</time>
      </trkpt>
      <trkpt lat="49.9862" lon="4.66261">
        <ele>298.2</ele>
        <time>2024-04-06T09:47:28Z</time>
      </trkpt>
      <trkpt lat="49.98627" lon="4.6627">
        <ele>297.8</ele>
        <time>2024-04-06T09:47:29Z</time>
      </trkpt>
      <trkpt lat="49.98633" lon="4.66279">
        <ele>297.8</ele>
        <time>2024-04-06T09:47:30Z</time>
      </trkpt>
      <trkpt lat="49.98638" lon="4.6629">
        <ele>297.6</ele>
        <time>2024-04-06T09:47:31Z</time>
      </trkpt>
      <trkpt lat="49.98643" lon="4.66301">
        <ele>297.6</ele>
        <time>2024-04-06T09:47:32Z</time>
      </trkpt>
      <trkpt lat="49.98648" lon="4.66312">
        <ele>297.6</ele>
        <time>2024-04-06T09:47:33Z</time>
      </trkpt>
      <trkpt lat="49.98651" lon="4.66324">
        <ele>297.4</ele>
        <time>2024-04-06T09:47:34Z</time>
      </trkpt>
      <trkpt lat="49.98654" lon="4.66337">
        <ele>297</ele>
        <time>2024-04-06T09:47:35Z</time>
      </trkpt>
      <trkpt lat="49.98657" lon="4.66349">
        <ele>296.6</ele>
        <time>2024-04-06T09:47:36Z</time>
      </trkpt>
      <trkpt lat="49.9866" lon="4.66362">
        <ele>296.6</ele>
        <time>2024-04-06T09:47:37Z</time>
      </trkpt>
      <trkpt lat="49.98663" lon="4.66375">
        <ele>296.4</ele>
        <time>2024-04-06T09:47:38Z</time>
      </trkpt>
      <trkpt lat="49.98667" lon="4.66387">
        <ele>296.4</ele>
        <time>2024-04-06T09:47:39Z</time>
      </trkpt>
      <trkpt lat="49.98672" lon="4.66398">
        <ele>296.4</ele>
        <time>2024-04-06T09:47:40Z</time>
      </trkpt>
      <trkpt lat="49.98676" lon="4.6641">
        <ele>296.2</ele>
        <time>2024-04-06T09:47:41Z</time>
      </trkpt>
      <trkpt lat="49.98681" lon="4.66421">
        <ele>296</ele>
        <time>2024-04-06T09:47:42Z</time>
      </trkpt>
      <trkpt lat="49.98687" lon="4.66431">
        <ele>295.6</ele>
        <time>2024-04-06T09:47:43Z</time>
      </trkpt>
      <trkpt lat="49.98693" lon="4.66442">
        <ele>295.4</ele>
        <time>2024-04-06T09:47:44Z</time>
      </trkpt>
      <trkpt lat="49.98698" lon="4.66452">
        <ele>295.4</ele>
        <time>2024-04-06T09:47:45Z</time>
      </trkpt>
      <trkpt lat="49.98704" lon="4.66463">
        <ele>295.2</ele>
        <time>2024-04-06T09:47:46Z</time>
      </trkpt>
      <trkpt lat="49.9871" lon="4.66473">
        <ele>295.2</ele>
        <time>2024-04-06T09:47:47Z</time>
      </trkpt>
      <trkpt lat="49.98717" lon="4.66483">
        <ele>295</ele>
        <time>2024-04-06T09:47:48Z</time>
      </trkpt>
      <trkpt lat="49.98723" lon="4.66494">
        <ele>295</ele>
        <time>2024-04-06T09:47:49Z</time>
      </trkpt>
      <trkpt lat="49.98728" lon="4.66504">
        <ele>294.6</ele>
        <time>2024-04-06T09:47:50Z</time>
      </trkpt>
      <trkpt lat="49.98734" lon="4.66513">
        <ele>294.4</ele>
        <time>2024-04-06T09:47:51Z</time>
      </trkpt>
      <trkpt lat="49.9874" lon="4.66523">
        <ele>294.2</ele>
        <time>2024-04-06T09:47:52Z</time>
      </trkpt>
      <trkpt lat="49.98747" lon="4.66532">
        <ele>294</ele>
        <time>2024-04-06T09:47:53Z</time>
      </trkpt>
      <trkpt lat="49.98753" lon="4.66541">
        <ele>293.8</ele>
        <time>2024-04-06T09:47:54Z</time>
      </trkpt>
      <trkpt lat="49.9876" lon="4.66549">
        <ele>293.6</ele>
        <time>2024-04-06T09:47:55Z</time>
      </trkpt>
      <trkpt lat="49.98767" lon="4.66558">
        <ele>293.4</ele>
        <time>2024-04-06T09:47:56Z</time>
      </trkpt>
      <trkpt lat="49.98773" lon="4.66567">
        <ele>293</ele>
        <time>2024-04-06T09:47:57Z</time>
      </trkpt>
      <trkpt lat="49.9878" lon="4.66575">
        <ele>292.4</ele>
        <time>2024-04-06T09:47:58Z</time>
      </trkpt>
      <trkpt lat="49.98787" lon="4.66584">
        <ele>292.2</ele>
        <time>2024-04-06T09:47:59Z</time>
      </trkpt>
      <trkpt lat="49.98794" lon="4.66592">
        <ele>292</ele>
        <time>2024-04-06T09:48:00Z</time>
      </trkpt>
      <trkpt lat="49.98801" lon="4.66601">
        <ele>291.8</ele>
        <time>2024-04-06T09:48:01Z</time>
      </trkpt>
      <trkpt lat="49.98808" lon="4.6661">
        <ele>291.6</ele>
        <time>2024-04-06T09:48:02Z</time>
      </trkpt>
      <trkpt lat="49.98815" lon="4.66618">
        <ele>291.4</ele>
        <time>2024-04-06T09:48:03Z</time>
      </trkpt>
      <trkpt lat="49.98822" lon="4.66627">
        <ele>291.2</ele>
        <time>2024-04-06T09:48:04Z</time>
      </trkpt>
      <trkpt lat="49.98829" lon="4.66635">
        <ele>291.2</ele>
        <time>2024-04-06T09:48:05Z</time>
      </trkpt>
      <trkpt lat="49.98836" lon="4.66644">
        <ele>290.6</ele>
        <time>2024-04-06T09:48:06Z</time>
      </trkpt>
      <trkpt lat="49.98843" lon="4.66652">
        <ele>290.2</ele>
        <time>2024-04-06T09:48:07Z</time>
      </trkpt>
      <trkpt lat="49.98849" lon="4.66661">
        <ele>290.2</ele>
        <time>2024-04-06T09:48:08Z</time>
      </trkpt>
      <trkpt lat="49.98856" lon="4.66669">
        <ele>289.8</ele>
        <time>2024-04-06T09:48:09Z</time>
      </trkpt>
      <trkpt lat="49.98863" lon="4.66677">
        <ele>289.6</ele>
        <time>2024-04-06T09:48:10Z</time>
      </trkpt>
      <trkpt lat="49.98871" lon="4.66685">
        <ele>289.4</ele>
        <time>2024-04-06T09:48:11Z</time>
      </trkpt>
      <trkpt lat="49.98879" lon="4.66692">
        <ele>289.2</ele>
        <time>2024-04-06T09:48:12Z</time>
      </trkpt>
      <trkpt lat="49.98887" lon="4.66699">
        <ele>289.2</ele>
        <time>2024-04-06T09:48:13Z</time>
      </trkpt>
      <trkpt lat="49.98895" lon="4.66705">
        <ele>289</ele>
        <time>2024-04-06T09:48:14Z</time>
      </trkpt>
      <trkpt lat="49.98904" lon="4.66711">
        <ele>289</ele>
        <time>2024-04-06T09:48:15Z</time>
      </trkpt>
      <trkpt lat="49.98913" lon="4.66717">
        <ele>288.8</ele>
        <time>2024-04-06T09:48:16Z</time>
      </trkpt>
      <trkpt lat="49.98922" lon="4.66722">
        <ele>288.6</ele>
        <time>2024-04-06T09:48:17Z</time>
      </trkpt>
      <trkpt lat="49.98931" lon="4.66729">
        <ele>288.4</ele>
        <time>2024-04-06T09:48:18Z</time>
      </trkpt>
      <trkpt lat="49.9894" lon="4.66736">
        <ele>288</ele>
        <time>2024-04-06T09:48:19Z</time>
      </trkpt>
      <trkpt lat="49.98949" lon="4.66744">
        <ele>287.8</ele>
        <time>2024-04-06T09:48:20Z</time>
      </trkpt>
      <trkpt lat="49.98958" lon="4.66754">
        <ele>287.2</ele>
        <time>2024-04-06T09:48:21Z</time>
      </trkpt>
      <trkpt lat="49.98965" lon="4.66766">
        <ele>286.4</ele>
        <time>2024-04-06T09:48:22Z</time>
      </trkpt>
      <trkpt lat="49.98971" lon="4.66779">
        <ele>285.2</ele>
        <time>2024-04-06T09:48:23Z</time>
      </trkpt>
      <trkpt lat="49.98977" lon="4.66793">
        <ele>284.4</ele>
        <time>2024-04-06T09:48:24Z</time>
      </trkpt>
      <trkpt lat="49.98982" lon="4.66807">
        <ele>283.2</ele>
        <time>2024-04-06T09:48:25Z</time>
      </trkpt>
      <trkpt lat="49.98987" lon="4.66822">
        <ele>281.6</ele>
        <time>2024-04-06T09:48:26Z</time>
      </trkpt>
      <trkpt lat="49.98992" lon="4.66837">
        <ele>281.6</ele>
        <time>2024-04-06T09:48:27Z</time>
      </trkpt>
      <trkpt lat="49.98996" lon="4.66852">
        <ele>281</ele>
        <time>2024-04-06T09:48:28Z</time>
      </trkpt>
      <trkpt lat="49.99" lon="4.66868">
        <ele>280.4</ele>
        <time>2024-04-06T09:48:29Z</time>
      </trkpt>
      <trkpt lat="49.99003" lon="4.66885">
        <ele>279.8</ele>
        <time>2024-04-06T09:48:30Z</time>
      </trkpt>
      <trkpt lat="49.99005" lon="4.66902">
        <ele>279.2</ele>
        <time>2024-04-06T09:48:31Z</time>
      </trkpt>
      <trkpt lat="49.99005" lon="4.66919">
        <ele>278.4</ele>
        <time>2024-04-06T09:48:32Z</time>
      </trkpt>
      <trkpt lat="49.99005" lon="4.66937">
        <ele>277.6</ele>
        <time>2024-04-06T09:48:33Z</time>
      </trkpt>
      <trkpt lat="49.99004" lon="4.66954">
        <ele>277</ele>
        <time>2024-04-06T09:48:34Z</time>
      </trkpt>
      <trkpt lat="49.99002" lon="4.66971">
        <ele>276.4</ele>
        <time>2024-04-06T09:48:35Z</time>
      </trkpt>
      <trkpt lat="49.99001" lon="4.66989">
        <ele>276.2</ele>
        <time>2024-04-06T09:48:36Z</time>
      </trkpt>
      <trkpt lat="49.98998" lon="4.67006">
        <ele>275.4</ele>
        <time>2024-04-06T09:48:37Z</time>
      </trkpt>
      <trkpt lat="49.98996" lon="4.67024">
        <ele>274.6</ele>
        <time>2024-04-06T09:48:38Z</time>
      </trkpt>
      <trkpt lat="49.98995" lon="4.67041">
        <ele>273.6</ele>
        <time>2024-04-06T09:48:39Z</time>
      </trkpt>
      <trkpt lat="49.98994" lon="4.67059">
        <ele>273</ele>
        <time>2024-04-06T09:48:40Z</time>
      </trkpt>
      <trkpt lat="49.98994" lon="4.67078">
        <ele>272.4</ele>
        <time>2024-04-06T09:48:41Z</time>
      </trkpt>
      <trkpt lat="49.98995" lon="4.67096">
        <ele>272.2</ele>
        <time>2024-04-06T09:48:42Z</time>
      </trkpt>
      <trkpt lat="49.98997" lon="4.67115">
        <ele>271.8</ele>
        <time>2024-04-06T09:48:43Z</time>
      </trkpt>
      <trkpt lat="49.98999" lon="4.67134">
        <ele>271.2</ele>
        <time>2024-04-06T09:48:44Z</time>
      </trkpt>
      <trkpt lat="49.99001" lon="4.67152">
        <ele>271.2</ele>
        <time>2024-04-06T09:48:45Z</time>
      </trkpt>
      <trkpt lat="49.99003" lon="4.6717">
        <ele>270.6</ele>
        <time>2024-04-06T09:48:46Z</time>
      </trkpt>
      <trkpt lat="49.99005" lon="4.67188">
        <ele>269.4</ele>
        <time>2024-04-06T09:48:47Z</time>
      </trkpt>
      <trkpt lat="49.99007" lon="4.67206">
        <ele>268.2</ele>
        <time>2024-04-06T09:48:48Z</time>
      </trkpt>
      <trkpt lat="49.99009" lon="4.67224">
        <ele>267.4</ele>
        <time>2024-04-06T09:48:49Z</time>
      </trkpt>
      <trkpt lat="49.99011" lon="4.67242">
        <ele>266.6</ele>
        <time>2024-04-06T09:48:50Z</time>
      </trkpt>
      <trkpt lat="49.99013" lon="4.6726">
        <ele>265.8</ele>
        <time>2024-04-06T09:48:51Z</time>
      </trkpt>
      <trkpt lat="49.99015" lon="4.67277">
        <ele>265.2</ele>
        <time>2024-04-06T09:48:52Z</time>
      </trkpt>
      <trkpt lat="49.99017" lon="4.67294">
        <ele>264.2</ele>
        <time>2024-04-06T09:48:53Z</time>
      </trkpt>
      <trkpt lat="49.99019" lon="4.67311">
        <ele>263.6</ele>
        <time>2024-04-06T09:48:54Z</time>
      </trkpt>
      <trkpt lat="49.99021" lon="4.67328">
        <ele>263</ele>
        <time>2024-04-06T09:48:55Z</time>
      </trkpt>
      <trkpt lat="49.99023" lon="4.67344">
        <ele>262.4</ele>
        <time>2024-04-06T09:48:56Z</time>
      </trkpt>
      <trkpt lat="49.99025" lon="4.67361">
        <ele>261.8</ele>
        <time>2024-04-06T09:48:57Z</time>
      </trkpt>
      <trkpt lat="49.99028" lon="4.67377">
        <ele>261.6</ele>
        <time>2024-04-06T09:48:58Z</time>
      </trkpt>
      <trkpt lat="49.99031" lon="4.67393">
        <ele>260.8</ele>
        <time>2024-04-06T09:48:59Z</time>
      </trkpt>
      <trkpt lat="49.99035" lon="4.67408">
        <ele>260.4</ele>
        <time>2024-04-06T09:49:00Z</time>
      </trkpt>
      <trkpt lat="49.99038" lon="4.67423">
        <ele>260.4</ele>
        <time>2024-04-06T09:49:01Z</time>
      </trkpt>
      <trkpt lat="49.99042" lon="4.67438">
        <ele>260</ele>
        <time>2024-04-06T09:49:02Z</time>
      </trkpt>
      <trkpt lat="49.99045" lon="4.67453">
        <ele>260.2</ele>
        <time>2024-04-06T09:49:03Z</time>
      </trkpt>
      <trkpt lat="49.99048" lon="4.67468">
        <ele>260.2</ele>
        <time>2024-04-06T09:49:04Z</time>
      </trkpt>
      <trkpt lat="49.99052" lon="4.67483">
        <ele>260.2</ele>
        <time>2024-04-06T09:49:05Z</time>
      </trkpt>
      <trkpt lat="49.99055" lon="4.67497">
        <ele>259.8</ele>
        <time>2024-04-06T09:49:06Z</time>
      </trkpt>
      <trkpt lat="49.99058" lon="4.67511">
        <ele>259.8</ele>
        <time>2024-04-06T09:49:07Z</time>
      </trkpt>
      <trkpt lat="49.99062" lon="4.67526">
        <ele>259.4</ele>
        <time>2024-04-06T09:49:08Z</time>
      </trkpt>
      <trkpt lat="49.99065" lon="4.6754">
        <ele>259</ele>
        <time>2024-04-06T09:49:09Z</time>
      </trkpt>
      <trkpt lat="49.99067" lon="4.67554">
        <ele>259</ele>
        <time>2024-04-06T09:49:10Z</time>
      </trkpt>
      <trkpt lat="49.9907" lon="4.67568">
        <ele>258.6</ele>
        <time>2024-04-06T09:49:11Z</time>
      </trkpt>
      <trkpt lat="49.99071" lon="4.67582">
        <ele>258.4</ele>
        <time>2024-04-06T09:49:12Z</time>
      </trkpt>
      <trkpt lat="49.99072" lon="4.67596">
        <ele>258.2</ele>
        <time>2024-04-06T09:49:13Z</time>
      </trkpt>
      <trkpt lat="49.99073" lon="4.6761">
        <ele>258.2</ele>
        <time>2024-04-06T09:49:14Z</time>
      </trkpt>
      <trkpt lat="49.99073" lon="4.67624">
        <ele>258</ele>
        <time>2024-04-06T09:49:15Z</time>
      </trkpt>
      <trkpt lat="49.99072" lon="4.67638">
        <ele>257.8</ele>
        <time>2024-04-06T09:49:16Z</time>
      </trkpt>
      <trkpt lat="49.99071" lon="4.67653">
        <ele>257.8</ele>
        <time>2024-04-06T09:49:17Z</time>
      </trkpt>
      <trkpt lat="49.99071" lon="4.67668">
        <ele>257.6</ele>
        <time>2024-04-06T09:49:18Z</time>
      </trkpt>
      <trkpt lat="49.99069" lon="4.67683">
        <ele>257.6</ele>
        <time>2024-04-06T09:49:19Z</time>
      </trkpt>
      <trkpt lat="49.99067" lon="4.67699">
        <ele>257.2</ele>
        <time>2024-04-06T09:49:20Z</time>
      </trkpt>
      <trkpt lat="49.99063" lon="4.67713">
        <ele>257.2</ele>
        <time>2024-04-06T09:49:21Z</time>
      </trkpt>
      <trkpt lat="49.99056" lon="4.67727">
        <ele>257.2</ele>
        <time>2024-04-06T09:49:22Z</time>
      </trkpt>
      <trkpt lat="49.99047" lon="4.67737">
        <ele>256.8</ele>
        <time>2024-04-06T09:49:23Z</time>
      </trkpt>
      <trkpt lat="49.99037" lon="4.67744">
        <ele>256.4</ele>
        <time>2024-04-06T09:49:24Z</time>
      </trkpt>
      <trkpt lat="49.99027" lon="4.67749">
        <ele>256</ele>
        <time>2024-04-06T09:49:25Z</time>
      </trkpt>
      <trkpt lat="49.99016" lon="4.67753">
        <ele>254.6</ele>
        <time>2024-04-06T09:49:26Z</time>
      </trkpt>
      <trkpt lat="49.99005" lon="4.67755">
        <ele>253.6</ele>
        <time>2024-04-06T09:49:27Z</time>
      </trkpt>
      <trkpt lat="49.98994" lon="4.67757">
        <ele>252.8</ele>
        <time>2024-04-06T09:49:28Z</time>
      </trkpt>
      <trkpt lat="49.98983" lon="4.67759">
        <ele>251.4</ele>
        <time>2024-04-06T09:49:29Z</time>
      </trkpt>
      <trkpt lat="49.98972" lon="4.67761">
        <ele>250</ele>
        <time>2024-04-06T09:49:30Z</time>
      </trkpt>
      <trkpt lat="49.98961" lon="4.67763">
        <ele>249</ele>
        <time>2024-04-06T09:49:31Z</time>
      </trkpt>
      <trkpt lat="49.9895" lon="4.67765">
        <ele>247.8</ele>
        <time>2024-04-06T09:49:32Z</time>
      </trkpt>
      <trkpt lat="49.98939" lon="4.67767">
        <ele>247</ele>
        <time>2024-04-06T09:49:33Z</time>
      </trkpt>
      <trkpt lat="49.98928" lon="4.67769">
        <ele>246.4</ele>
        <time>2024-04-06T09:49:34Z</time>
      </trkpt>
      <trkpt lat="49.98917" lon="4.67771">
        <ele>246</ele>
        <time>2024-04-06T09:49:35Z</time>
      </trkpt>
      <trkpt lat="49.98905" lon="4.67773">
        <ele>245.4</ele>
        <time>2024-04-06T09:49:36Z</time>
      </trkpt>
      <trkpt lat="49.98893" lon="4.67775">
        <ele>244.8</ele>
        <time>2024-04-06T09:49:37Z</time>
      </trkpt>
      <trkpt lat="49.98882" lon="4.67777">
        <ele>244.2</ele>
        <time>2024-04-06T09:49:38Z</time>
      </trkpt>
      <trkpt lat="49.9887" lon="4.67779">
        <ele>244</ele>
        <time>2024-04-06T09:49:39Z</time>
      </trkpt>
      <trkpt lat="49.98858" lon="4.67779">
        <ele>243.8</ele>
        <time>2024-04-06T09:49:40Z</time>
      </trkpt>
      <trkpt lat="49.98846" lon="4.67779">
        <ele>243.8</ele>
        <time>2024-04-06T09:49:41Z</time>
      </trkpt>
      <trkpt lat="49.98834" lon="4.67779">
        <ele>243.2</ele>
        <time>2024-04-06T09:49:42Z</time>
      </trkpt>
      <trkpt lat="49.98822" lon="4.67779">
        <ele>243</ele>
        <time>2024-04-06T09:49:43Z</time>
      </trkpt>
      <trkpt lat="49.98811" lon="4.67778">
        <ele>242.2</ele>
        <time>2024-04-06T09:49:44Z</time>
      </trkpt>
      <trkpt lat="49.98799" lon="4.67777">
        <ele>241.2</ele>
        <time>2024-04-06T09:49:45Z</time>
      </trkpt>
      <trkpt lat="49.98787" lon="4.67778">
        <ele>240.4</ele>
        <time>2024-04-06T09:49:46Z</time>
      </trkpt>
      <trkpt lat="49.98777" lon="4.67783">
        <ele>239.6</ele>
        <time>2024-04-06T09:49:47Z</time>
      </trkpt>
      <trkpt lat="49.98769" lon="4.67792">
        <ele>239.2</ele>
        <time>2024-04-06T09:49:48Z</time>
      </trkpt>
      <trkpt lat="49.98764" lon="4.67806">
        <ele>238.6</ele>
        <time>2024-04-06T09:49:49Z</time>
      </trkpt>
      <trkpt lat="49.98763" lon="4.67821">
        <ele>237.8</ele>
        <time>2024-04-06T09:49:50Z</time>
      </trkpt>
      <trkpt lat="49.98766" lon="4.67836">
        <ele>237</ele>
        <time>2024-04-06T09:49:51Z</time>
      </trkpt>
      <trkpt lat="49.98771" lon="4.6785">
        <ele>236.8</ele>
        <time>2024-04-06T09:49:52Z</time>
      </trkpt>
      <trkpt lat="49.98779" lon="4.6786">
        <ele>236.4</ele>
        <time>2024-04-06T09:49:53Z</time>
      </trkpt>
      <trkpt lat="49.98787" lon="4.67865">
        <ele>236.2</ele>
        <time>2024-04-06T09:49:54Z</time>
      </trkpt>
      <trkpt lat="49.98797" lon="4.67868">
        <ele>236</ele>
        <time>2024-04-06T09:49:55Z</time>
      </trkpt>
      <trkpt lat="49.98807" lon="4.6787">
        <ele>235.8</ele>
        <time>2024-04-06T09:49:56Z</time>
      </trkpt>
      <trkpt lat="49.98817" lon="4.6787">
        <ele>235.8</ele>
        <time>2024-04-06T09:49:57Z</time>
      </trkpt>
      <trkpt lat="49.98827" lon="4.67871">
        <ele>235.8</ele>
        <time>2024-04-06T09:49:58Z</time>
      </trkpt>
      <trkpt lat="49.98837" lon="4.67872">
        <ele>235.4</ele>
        <time>2024-04-06T09:49:59Z</time>
      </trkpt>
      <trkpt lat="49.98848" lon="4.67873">
        <ele>234.6</ele>
        <time>2024-04-06T09:50:00Z</time>
      </trkpt>
      <trkpt lat="49.98858" lon="4.67875">
        <ele>234.2</ele>
        <time>2024-04-06T09:50:01Z</time>
      </trkpt>
      <trkpt lat="49.98869" lon="4.67877">
        <ele>233.8</ele>
        <time>2024-04-06T09:50:02Z</time>
      </trkpt>
      <trkpt lat="49.9888" lon="4.67881">
        <ele>233.4</ele>
        <time>2024-04-06T09:50:03Z</time>
      </trkpt>
      <trkpt lat="49.98891" lon="4.67885">
        <ele>233</ele>
        <time>2024-04-06T09:50:04Z</time>
      </trkpt>
      <trkpt lat="49.98902" lon="4.6789">
        <ele>233</ele>
        <time>2024-04-06T09:50:05Z</time>
      </trkpt>
      <trkpt lat="49.98912" lon="4.67896">
        <ele>232.6</ele>
        <time>2024-04-06T09:50:06Z</time>
      </trkpt>
      <trkpt lat="49.98923" lon="4.67901">
        <ele>232.2</ele>
        <time>2024-04-06T09:50:07Z</time>
      </trkpt>
      <trkpt lat="49.98934" lon="4.67906">
        <ele>231.6</ele>
        <time>2024-04-06T09:50:08Z</time>
      </trkpt>
      <trkpt lat="49.98946" lon="4.67911">
        <ele>231.2</ele>
        <time>2024-04-06T09:50:09Z</time>
      </trkpt>
      <trkpt lat="49.98956" lon="4.67917">
        <ele>230.4</ele>
        <time>2024-04-06T09:50:10Z</time>
      </trkpt>
      <trkpt lat="49.98967" lon="4.67923">
        <ele>229.6</ele>
        <time>2024-04-06T09:50:11Z</time>
      </trkpt>
      <trkpt lat="49.98979" lon="4.67928">
        <ele>229.2</ele>
        <time>2024-04-06T09:50:12Z</time>
      </trkpt>
      <trkpt lat="49.9899" lon="4.67932">
        <ele>229</ele>
        <time>2024-04-06T09:50:13Z</time>
      </trkpt>
      <trkpt lat="49.99002" lon="4.67936">
        <ele>227.6</ele>
        <time>2024-04-06T09:50:14Z</time>
      </trkpt>
      <trkpt lat="49.99014" lon="4.6794">
        <ele>227</ele>
        <time>2024-04-06T09:50:15Z</time>
      </trkpt>
      <trkpt lat="49.99026" lon="4.67943">
        <ele>225.8</ele>
        <time>2024-04-06T09:50:16Z</time>
      </trkpt>
      <trkpt lat="49.99038" lon="4.67946">
        <ele>225.8</ele>
        <time>2024-04-06T09:50:17Z</time>
      </trkpt>
      <trkpt lat="49.9905" lon="4.6795">
        <ele>225.2</ele>
        <time>2024-04-06T09:50:18Z</time>
      </trkpt>
      <trkpt lat="49.99062" lon="4.67957">
        <ele>224.8</ele>
        <time>2024-04-06T09:50:19Z</time>
      </trkpt>
      <trkpt lat="49.99072" lon="4.67966">
        <ele>224.2</ele>
        <time>2024-04-06T09:50:20Z</time>
      </trkpt>
      <trkpt lat="49.99081" lon="4.67977">
        <ele>223.6</ele>
        <time>2024-04-06T09:50:21Z</time>
      </trkpt>
      <trkpt lat="49.99091" lon="4.67989">
        <ele>223.4</ele>
        <time>2024-04-06T09:50:22Z</time>
      </trkpt>
      <trkpt lat="49.991" lon="4.68002">
        <ele>223.2</ele>
        <time>2024-04-06T09:50:23Z</time>
      </trkpt>
      <trkpt lat="49.99109" lon="4.68015">
        <ele>222.6</ele>
        <time>2024-04-06T09:50:24Z</time>
      </trkpt>
      <trkpt lat="49.99118" lon="4.68028">
        <ele>222</ele>
        <time>2024-04-06T09:50:25Z</time>
      </trkpt>
      <trkpt lat="49.99127" lon="4.68041">
        <ele>220.6</ele>
        <time>2024-04-06T09:50:26Z</time>
      </trkpt>
      <trkpt lat="49.99137" lon="4.68055">
        <ele>220</ele>
        <time>2024-04-06T09:50:27Z</time>
      </trkpt>
      <trkpt lat="49.99146" lon="4.68068">
        <ele>219.2</ele>
        <time>2024-04-06T09:50:28Z</time>
      </trkpt>
      <trkpt lat="49.99156" lon="4.68082">
        <ele>218.4</ele>
        <time>2024-04-06T09:50:29Z</time>
      </trkpt>
      <trkpt lat="49.99165" lon="4.68097">
        <ele>217.4</ele>
        <time>2024-04-06T09:50:30Z</time>
      </trkpt>
      <trkpt lat="49.99174" lon="4.68112">
        <ele>216.4</ele>
        <time>2024-04-06T09:50:31Z</time>
      </trkpt>
      <trkpt lat="49.99183" lon="4.68127">
        <ele>215.8</ele>
        <time>2024-04-06T09:50:32Z</time>
      </trkpt>
      <trkpt lat="49.99191" lon="4.68142">
        <ele>215.2</ele>
        <time>2024-04-06T09:50:33Z</time>
      </trkpt>
      <trkpt lat="49.992" lon="4.68158">
        <ele>214.4</ele>
        <time>2024-04-06T09:50:34Z</time>
      </trkpt>
      <trkpt lat="49.99208" lon="4.68175">
        <ele>213</ele>
        <time>2024-04-06T09:50:35Z</time>
      </trkpt>
      <trkpt lat="49.99216" lon="4.68191">
        <ele>213</ele>
        <time>2024-04-06T09:50:36Z</time>
      </trkpt>
      <trkpt lat="49.99224" lon="4.68209">
        <ele>212.2</ele>
        <time>2024-04-06T09:50:37Z</time>
      </trkpt>
      <trkpt lat="49.9923" lon="4.68227">
        <ele>211.4</ele>
        <time>2024-04-06T09:50:38Z</time>
      </trkpt>
      <trkpt lat="49.99236" lon="4.68246">
        <ele>209.8</ele>
        <time>2024-04-06T09:50:39Z</time>
      </trkpt>
      <trkpt lat="49.99239" lon="4.68266">
        <ele>209</ele>
        <time>2024-04-06T09:50:40Z</time>
      </trkpt>
      <trkpt lat="49.99241" lon="4.68287">
        <ele>208.2</ele>
        <time>2024-04-06T09:50:41Z</time>
      </trkpt>
      <trkpt lat="49.99242" lon="4.68308">
        <ele>207.6</ele>
        <time>2024-04-06T09:50:42Z</time>
      </trkpt>
      <trkpt lat="49.99241" lon="4.68329">
        <ele>207</ele>
        <time>2024-04-06T09:50:43Z</time>
      </trkpt>
      <trkpt lat="49.9924" lon="4.68349">
        <ele>206.2</ele>
        <time>2024-04-06T09:50:44Z</time>
      </trkpt>
      <trkpt lat="49.99239" lon="4.68371">
        <ele>205.8</ele>
        <time>2024-04-06T09:50:45Z</time>
      </trkpt>
      <trkpt lat="49.99238" lon="4.68392">
        <ele>204.8</ele>
        <time>2024-04-06T09:50:46Z</time>
      </trkpt>
      <trkpt lat="49.99236" lon="4.68413">
        <ele>202.8</ele>
        <time>2024-04-06T09:50:47Z</time>
      </trkpt>
      <trkpt lat="49.99235" lon="4.68434">
        <ele>201.8</ele>
        <time>2024-04-06T09:50:48Z</time>
      </trkpt>
      <trkpt lat="49.99233" lon="4.68454">
        <ele>201</ele>
        <time>2024-04-06T09:50:49Z</time>
      </trkpt>
      <trkpt lat="49.99232" lon="4.68475">
        <ele>200</ele>
        <time>2024-04-06T09:50:50Z</time>
      </trkpt>
      <trkpt lat="49.9923" lon="4.68495">
        <ele>199.2</ele>
        <time>2024-04-06T09:50:51Z</time>
      </trkpt>
      <trkpt lat="49.99229" lon="4.68515">
        <ele>198</ele>
        <time>2024-04-06T09:50:52Z</time>
      </trkpt>
      <trkpt lat="49.99228" lon="4.68535">
        <ele>197.4</ele>
        <time>2024-04-06T09:50:53Z</time>
      </trkpt>
      <trkpt lat="49.99226" lon="4.68554">
        <ele>196.4</ele>
        <time>2024-04-06T09:50:54Z</time>
      </trkpt>
      <trkpt lat="49.99225" lon="4.68573">
        <ele>196.4</ele>
        <time>2024-04-06T09:50:55Z</time>
      </trkpt>
      <trkpt lat="49.99223" lon="4.68591">
        <ele>195.4</ele>
        <time>2024-04-06T09:50:56Z</time>
      </trkpt>
      <trkpt lat="49.99222" lon="4.68609">
        <ele>195</ele>
        <time>2024-04-06T09:50:57Z</time>
      </trkpt>
      <trkpt lat="49.9922" lon="4.68627">
        <ele>194.6</ele>
        <time>2024-04-06T09:50:58Z</time>
      </trkpt>
      <trkpt lat="49.99218" lon="4.68645">
        <ele>194</ele>
        <time>2024-04-06T09:50:59Z</time>
      </trkpt>
      <trkpt lat="49.99216" lon="4.68662">
        <ele>193.2</ele>
        <time>2024-04-06T09:51:00Z</time>
      </trkpt>
      <trkpt lat="49.99214" lon="4.68678">
        <ele>192.4</ele>
        <time>2024-04-06T09:51:01Z</time>
      </trkpt>
      <trkpt lat="49.99212" lon="4.68695">
        <ele>191.8</ele>
        <time>2024-04-06T09:51:02Z</time>
      </trkpt>
      <trkpt lat="49.9921" lon="4.68711">
        <ele>191.4</ele>
        <time>2024-04-06T09:51:03Z</time>
      </trkpt>
      <trkpt lat="49.99208" lon="4.68726">
        <ele>190.2</ele>
        <time>2024-04-06T09:51:04Z</time>
      </trkpt>
      <trkpt lat="49.99206" lon="4.68742">
        <ele>189.6</ele>
        <time>2024-04-06T09:51:05Z</time>
      </trkpt>
      <trkpt lat="49.99204" lon="4.68757">
        <ele>189.2</ele>
        <time>2024-04-06T09:51:06Z</time>
      </trkpt>
      <trkpt lat="49.99203" lon="4.68771">
        <ele>188.8</ele>
        <time>2024-04-06T09:51:07Z</time>
      </trkpt>
      <trkpt lat="49.992" lon="4.68786">
        <ele>188.6</ele>
        <time>2024-04-06T09:51:08Z</time>
      </trkpt>
      <trkpt lat="49.99198" lon="4.68801">
        <ele>188.6</ele>
        <time>2024-04-06T09:51:09Z</time>
      </trkpt>
      <trkpt lat="49.99196" lon="4.68815">
        <ele>188.4</ele>
        <time>2024-04-06T09:51:10Z</time>
      </trkpt>
      <trkpt lat="49.99195" lon="4.68829">
        <ele>188.4</ele>
        <time>2024-04-06T09:51:11Z</time>
      </trkpt>
      <trkpt lat="49.99193" lon="4.68842">
        <ele>188.4</ele>
        <time>2024-04-06T09:51:12Z</time>
      </trkpt>
      <trkpt lat="49.99191" lon="4.68854">
        <ele>188.4</ele>
        <time>2024-04-06T09:51:13Z</time>
      </trkpt>
      <trkpt lat="49.9919" lon="4.68864">
        <ele>188.4</ele>
        <time>2024-04-06T09:51:14Z</time>
      </trkpt>
      <trkpt lat="49.99188" lon="4.68874">
        <ele>188.4</ele>
        <time>2024-04-06T09:51:15Z</time>
      </trkpt>
      <trkpt lat="49.99187" lon="4.68884">
        <ele>188.4</ele>
        <time>2024-04-06T09:51:16Z</time>
      </trkpt>
      <trkpt lat="49.99185" lon="4.68895">
        <ele>188.4</ele>
        <time>2024-04-06T09:51:17Z</time>
      </trkpt>
      <trkpt lat="49.99184" lon="4.68906">
        <ele>188.2</ele>
        <time>2024-04-06T09:51:18Z</time>
      </trkpt>
      <trkpt lat="49.99182" lon="4.68917">
        <ele>188.2</ele>
        <time>2024-04-06T09:51:19Z</time>
      </trkpt>
      <trkpt lat="49.99181" lon="4.68929">
        <ele>188</ele>
        <time>2024-04-06T09:51:20Z</time>
      </trkpt>
      <trkpt lat="49.99179" lon="4.68941">
        <ele>187.8</ele>
        <time>2024-04-06T09:51:21Z</time>
      </trkpt>
      <trkpt lat="49.99177" lon="4.68953">
        <ele>187.8</ele>
        <time>2024-04-06T09:51:22Z</time>
      </trkpt>
      <trkpt lat="49.99176" lon="4.68965">
        <ele>187.6</ele>
        <time>2024-04-06T09:51:23Z</time>
      </trkpt>
      <trkpt lat="49.99174" lon="4.68978">
        <ele>187.8</ele>
        <time>2024-04-06T09:51:24Z</time>
      </trkpt>
      <trkpt lat="49.99173" lon="4.68991">
        <ele>187.8</ele>
        <time>2024-04-06T09:51:25Z</time>
      </trkpt>
      <trkpt lat="49.99171" lon="4.69004">
        <ele>187.8</ele>
        <time>2024-04-06T09:51:26Z</time>
      </trkpt>
      <trkpt lat="49.99169" lon="4.69017">
        <ele>187.6</ele>
        <time>2024-04-06T09:51:27Z</time>
      </trkpt>
      <trkpt lat="49.99167" lon="4.6903">
        <ele>187.2</ele>
        <time>2024-04-06T09:51:28Z</time>
      </trkpt>
      <trkpt lat="49.99166" lon="4.69044">
        <ele>187.2</ele>
        <time>2024-04-06T09:51:29Z</time>
      </trkpt>
      <trkpt lat="49.99163" lon="4.69058">
        <ele>187</ele>
        <time>2024-04-06T09:51:30Z</time>
      </trkpt>
      <trkpt lat="49.99161" lon="4.69072">
        <ele>186.8</ele>
        <time>2024-04-06T09:51:31Z</time>
      </trkpt>
      <trkpt lat="49.99159" lon="4.69087">
        <ele>186.6</ele>
        <time>2024-04-06T09:51:32Z</time>
      </trkpt>
      <trkpt lat="49.99157" lon="4.69102">
        <ele>186.4</ele>
        <time>2024-04-06T09:51:33Z</time>
      </trkpt>
      <trkpt lat="49.99154" lon="4.69117">
        <ele>186.2</ele>
        <time>2024-04-06T09:51:34Z</time>
      </trkpt>
      <trkpt lat="49.99152" lon="4.69133">
        <ele>186</ele>
        <time>2024-04-06T09:51:35Z</time>
      </trkpt>
      <trkpt lat="49.9915" lon="4.69149">
        <ele>185.8</ele>
        <time>2024-04-06T09:51:36Z</time>
      </trkpt>
      <trkpt lat="49.99147" lon="4.69165">
        <ele>185.8</ele>
        <time>2024-04-06T09:51:37Z</time>
      </trkpt>
      <trkpt lat="49.99144" lon="4.69182">
        <ele>185.6</ele>
        <time>2024-04-06T09:51:38Z</time>
      </trkpt>
      <trkpt lat="49.99141" lon="4.69198">
        <ele>185.2</ele>
        <time>2024-04-06T09:51:39Z</time>
      </trkpt>
      <trkpt lat="49.99137" lon="4.69215">
        <ele>184.4</ele>
        <time>2024-04-06T09:51:40Z</time>
      </trkpt>
      <trkpt lat="49.99134" lon="4.69232">
        <ele>183.8</ele>
        <time>2024-04-06T09:51:41Z</time>
      </trkpt>
      <trkpt lat="49.99131" lon="4.6925">
        <ele>183.8</ele>
        <time>2024-04-06T09:51:42Z</time>
      </trkpt>
      <trkpt lat="49.99128" lon="4.69267">
        <ele>183.4</ele>
        <time>2024-04-06T09:51:43Z</time>
      </trkpt>
      <trkpt lat="49.99125" lon="4.69285">
        <ele>182.8</ele>
        <time>2024-04-06T09:51:44Z</time>
      </trkpt>
      <trkpt lat="49.99121" lon="4.69302">
        <ele>181.6</ele>
        <time>2024-04-06T09:51:45Z</time>
      </trkpt>
      <trkpt lat="49.99118" lon="4.6932">
        <ele>180.4</ele>
        <time>2024-04-06T09:51:46Z</time>
      </trkpt>
      <trkpt lat="49.99115" lon="4.69338">
        <ele>179.4</ele>
        <time>2024-04-06T09:51:47Z</time>
      </trkpt>
      <trkpt lat="49.99112" lon="4.69356">
        <ele>178.4</ele>
        <time>2024-04-06T09:51:48Z</time>
      </trkpt>
      <trkpt lat="49.9911" lon="4.69375">
        <ele>177.4</ele>
        <time>2024-04-06T09:51:49Z</time>
      </trkpt>
      <trkpt lat="49.99108" lon="4.69394">
        <ele>176.8</ele>
        <time>2024-04-06T09:51:50Z</time>
      </trkpt>
      <trkpt lat="49.99107" lon="4.69413">
        <ele>176.4</ele>
        <time>2024-04-06T09:51:51Z</time>
      </trkpt>
      <trkpt lat="49.99106" lon="4.69432">
        <ele>175.4</ele>
        <time>2024-04-06T09:51:52Z</time>
      </trkpt>
      <trkpt lat="49.99105" lon="4.69451">
        <ele>175</ele>
        <time>2024-04-06T09:51:53Z</time>
      </trkpt>
      <trkpt lat="49.99104" lon="4.69471">
        <ele>174.6</ele>
        <time>2024-04-06T09:51:54Z</time>
      </trkpt>
      <trkpt lat="49.99104" lon="4.6949">
        <ele>174.6</ele>
        <time>2024-04-06T09:51:55Z</time>
      </trkpt>
      <trkpt lat="49.99104" lon="4.69509">
        <ele>174.4</ele>
        <time>2024-04-06T09:51:56Z</time>
      </trkpt>
      <trkpt lat="49.99104" lon="4.69528">
        <ele>174.4</ele>
        <time>2024-04-06T09:51:57Z</time>
      </trkpt>
      <trkpt lat="49.99104" lon="4.69547">
        <ele>173.8</ele>
        <time>2024-04-06T09:51:58Z</time>
      </trkpt>
      <trkpt lat="49.99105" lon="4.69567">
        <ele>173.2</ele>
        <time>2024-04-06T09:51:59Z</time>
      </trkpt>
      <trkpt lat="49.99105" lon="4.69586">
        <ele>171.8</ele>
        <time>2024-04-06T09:52:00Z</time>
      </trkpt>
      <trkpt lat="49.99105" lon="4.69606">
        <ele>170.8</ele>
        <time>2024-04-06T09:52:01Z</time>
      </trkpt>
      <trkpt lat="49.99105" lon="4.69625">
        <ele>170.2</ele>
        <time>2024-04-06T09:52:02Z</time>
      </trkpt>
      <trkpt lat="49.99102" lon="4.69644">
        <ele>169.6</ele>
        <time>2024-04-06T09:52:03Z</time>
      </trkpt>
      <trkpt lat="49.99099" lon="4.69663">
        <ele>169.2</ele>
        <time>2024-04-06T09:52:04Z</time>
      </trkpt>
      <trkpt lat="49.99093" lon="4.6968">
        <ele>168.8</ele>
        <time>2024-04-06T09:52:05Z</time>
      </trkpt>
      <trkpt lat="49.99087" lon="4.69696">
        <ele>168.6</ele>
        <time>2024-04-06T09:52:06Z</time>
      </trkpt>
      <trkpt lat="49.99079" lon="4.6971">
        <ele>168</ele>
        <time>2024-04-06T09:52:07Z</time>
      </trkpt>
      <trkpt lat="49.99071" lon="4.69723">
        <ele>167.8</ele>
        <time>2024-04-06T09:52:08Z</time>
      </trkpt>
      <trkpt lat="49.99065" lon="4.69737">
        <ele>167.2</ele>
        <time>2024-04-06T09:52:09Z</time>
      </trkpt>
      <trkpt lat="49.99059" lon="4.69752">
        <ele>166.4</ele>
        <time>2024-04-06T09:52:10Z</time>
      </trkpt>
      <trkpt lat="49.99055" lon="4.69768">
        <ele>165.8</ele>
        <time>2024-04-06T09:52:11Z</time>
      </trkpt>
      <trkpt lat="49.99052" lon="4.69785">
        <ele>165.4</ele>
        <time>2024-04-06T09:52:12Z</time>
      </trkpt>
      <trkpt lat="49.9905" lon="4.69802">
        <ele>165.2</ele>
        <time>2024-04-06T09:52:13Z</time>
      </trkpt>
      <trkpt lat="49.99049" lon="4.69819">
        <ele>164.8</ele>
        <time>2024-04-06T09:52:14Z</time>
      </trkpt>
      <trkpt lat="49.99048" lon="4.69836">
        <ele>164.6</ele>
        <time>2024-04-06T09:52:15Z</time>
      </trkpt>
      <trkpt lat="49.99048" lon="4.69853">
        <ele>164.4</ele>
        <time>2024-04-06T09:52:16Z</time>
      </trkpt>
      <trkpt lat="49.99049" lon="4.6987">
        <ele>164</ele>
        <time>2024-04-06T09:52:17Z</time>
      </trkpt>
      <trkpt lat="49.99052" lon="4.69887">
        <ele>164</ele>
        <time>2024-04-06T09:52:18Z</time>
      </trkpt>
      <trkpt lat="49.99057" lon="4.69903">
        <ele>163.6</ele>
        <time>2024-04-06T09:52:19Z</time>
      </trkpt>
      <trkpt lat="49.99063" lon="4.69918">
        <ele>163.6</ele>
        <time>2024-04-06T09:52:20Z</time>
      </trkpt>
      <trkpt lat="49.99069" lon="4.69933">
        <ele>163.4</ele>
        <time>2024-04-06T09:52:21Z</time>
      </trkpt>
      <trkpt lat="49.99076" lon="4.69947">
        <ele>163.2</ele>
        <time>2024-04-06T09:52:22Z</time>
      </trkpt>
      <trkpt lat="49.99082" lon="4.69961">
        <ele>163.2</ele>
        <time>2024-04-06T09:52:23Z</time>
      </trkpt>
      <trkpt lat="49.99087" lon="4.69976">
        <ele>163</ele>
        <time>2024-04-06T09:52:24Z</time>
      </trkpt>
      <trkpt lat="49.99091" lon="4.69992">
        <ele>162.4</ele>
        <time>2024-04-06T09:52:25Z</time>
      </trkpt>
      <trkpt lat="49.99095" lon="4.70008">
        <ele>162.2</ele>
        <time>2024-04-06T09:52:26Z</time>
      </trkpt>
      <trkpt lat="49.99099" lon="4.70026">
        <ele>161.8</ele>
        <time>2024-04-06T09:52:27Z</time>
      </trkpt>
      <trkpt lat="49.99102" lon="4.70044">
        <ele>161.4</ele>
        <time>2024-04-06T09:52:28Z</time>
      </trkpt>
      <trkpt lat="49.99106" lon="4.70061">
        <ele>161.4</ele>
        <time>2024-04-06T09:52:29Z</time>
      </trkpt>
      <trkpt lat="49.99109" lon="4.70077">
        <ele>161.2</ele>
        <time>2024-04-06T09:52:30Z</time>
      </trkpt>
      <trkpt lat="49.99114" lon="4.70093">
        <ele>160.6</ele>
        <time>2024-04-06T09:52:31Z</time>
      </trkpt>
      <trkpt lat="49.99118" lon="4.70108">
        <ele>159.6</ele>
        <time>2024-04-06T09:52:32Z</time>
      </trkpt>
      <trkpt lat="49.99123" lon="4.70123">
        <ele>158.2</ele>
        <time>2024-04-06T09:52:33Z</time>
      </trkpt>
      <trkpt lat="49.99128" lon="4.70137">
        <ele>157</ele>
        <time>2024-04-06T09:52:34Z</time>
      </trkpt>
      <trkpt lat="49.99134" lon="4.70148">
        <ele>155.4</ele>
        <time>2024-04-06T09:52:35Z</time>
      </trkpt>
      <trkpt lat="49.9914" lon="4.70159">
        <ele>154.6</ele>
        <time>2024-04-06T09:52:36Z</time>
      </trkpt>
      <trkpt lat="49.99147" lon="4.70169">
        <ele>154.6</ele>
        <time>2024-04-06T09:52:37Z</time>
      </trkpt>
      <trkpt lat="49.99154" lon="4.70178">
        <ele>153.8</ele>
        <time>2024-04-06T09:52:38Z</time>
      </trkpt>
      <trkpt lat="49.99161" lon="4.70185">
        <ele>153</ele>
        <time>2024-04-06T09:52:39Z</time>
      </trkpt>
      <trkpt lat="49.99168" lon="4.70191">
        <ele>152.6</ele>
        <time>2024-04-06T09:52:40Z</time>
      </trkpt>
      <trkpt lat="49.99174" lon="4.70195">
        <ele>152.2</ele>
        <time>2024-04-06T09:52:41Z</time>
      </trkpt>
      <trkpt lat="49.9918" lon="4.70198">
        <ele>151.6</ele>
        <time>2024-04-06T09:52:42Z</time>
      </trkpt>
      <trkpt lat="49.99186" lon="4.70199">
        <ele>151.4</ele>
        <time>2024-04-06T09:52:43Z</time>
      </trkpt>
      <trkpt lat="49.99191" lon="4.70199">
        <ele>151.2</ele>
        <time>2024-04-06T09:52:44Z</time>
      </trkpt>
      <trkpt lat="49.99195" lon="4.70199">
        <ele>151</ele>
        <time>2024-04-06T09:52:45Z</time>
      </trkpt>
      <trkpt lat="49.99197" lon="4.70201">
        <ele>150.8</ele>
        <time>2024-04-06T09:52:46Z</time>
      </trkpt>
      <trkpt lat="49.99199" lon="4.70203">
        <ele>150.4</ele>
        <time>2024-04-06T09:52:47Z</time>
      </trkpt>
      <trkpt lat="49.99199" lon="4.70205">
        <ele>150</ele>
        <time>2024-04-06T09:52:48Z</time>
      </trkpt>
      <trkpt lat="49.99199" lon="4.70206">
        <ele>149.8</ele>
        <time>2024-04-06T09:52:49Z</time>
      </trkpt>
      <trkpt lat="49.99199" lon="4.70206">
        <ele>149.8</ele>
        <time>2024-04-06T09:52:50Z</time>
      </trkpt>
      <trkpt lat="49.992" lon="4.70206">
        <ele>149.4</ele>
        <time>2024-04-06T09:52:51Z</time>
      </trkpt>
      <trkpt lat="49.99201" lon="4.7022">
        <ele>148.6</ele>
        <time>2024-04-06T10:01:28Z</time>
      </trkpt>
      <trkpt lat="49.99203" lon="4.70221">
        <ele>148.8</ele>
        <time>2024-04-06T10:01:29Z</time>
      </trkpt>
      <trkpt lat="49.99206" lon="4.70224">
        <ele>148.6</ele>
        <time>2024-04-06T10:01:30Z</time>
      </trkpt>
      <trkpt lat="49.99208" lon="4.70227">
        <ele>148.6</ele>
        <time>2024-04-06T10:01:31Z</time>
      </trkpt>
      <trkpt lat="49.99209" lon="4.70232">
        <ele>148.6</ele>
        <time>2024-04-06T10:01:32Z</time>
      </trkpt>
      <trkpt lat="49.99209" lon="4.70238">
        <ele>148.6</ele>
        <time>2024-04-06T10:01:33Z</time>
      </trkpt>
      <trkpt lat="49.9921" lon="4.70244">
        <ele>148.6</ele>
        <time>2024-04-06T10:01:34Z</time>
      </trkpt>
      <trkpt lat="49.99211" lon="4.70247">
        <ele>148.4</ele>
        <time>2024-04-06T10:01:35Z</time>
      </trkpt>
      <trkpt lat="49.99212" lon="4.70249">
        <ele>148.4</ele>
        <time>2024-04-06T10:01:36Z</time>
      </trkpt>
      <trkpt lat="49.99213" lon="4.7025">
        <ele>148</ele>
        <time>2024-04-06T10:01:37Z</time>
      </trkpt>
      <trkpt lat="49.99213" lon="4.7025">
        <ele>147.8</ele>
        <time>2024-04-06T10:01:38Z</time>
      </trkpt>
      <trkpt lat="49.99218" lon="4.70258">
        <ele>145.6</ele>
        <time>2024-04-06T10:02:06Z</time>
      </trkpt>
      <trkpt lat="49.99219" lon="4.70261">
        <ele>145.6</ele>
        <time>2024-04-06T10:02:07Z</time>
      </trkpt>
      <trkpt lat="49.9922" lon="4.70266">
        <ele>145.6</ele>
        <time>2024-04-06T10:02:08Z</time>
      </trkpt>
      <trkpt lat="49.99221" lon="4.70271">
        <ele>145.6</ele>
        <time>2024-04-06T10:02:09Z</time>
      </trkpt>
      <trkpt lat="49.99222" lon="4.70278">
        <ele>145.6</ele>
        <time>2024-04-06T10:02:10Z</time>
      </trkpt>
      <trkpt lat="49.99224" lon="4.70284">
        <ele>145.2</ele>
        <time>2024-04-06T10:02:11Z</time>
      </trkpt>
      <trkpt lat="49.99225" lon="4.70292">
        <ele>145.2</ele>
        <time>2024-04-06T10:02:12Z</time>
      </trkpt>
      <trkpt lat="49.99227" lon="4.70301">
        <ele>145.2</ele>
        <time>2024-04-06T10:02:13Z</time>
      </trkpt>
      <trkpt lat="49.99229" lon="4.70309">
        <ele>145</ele>
        <time>2024-04-06T10:02:14Z</time>
      </trkpt>
      <trkpt lat="49.99231" lon="4.70319">
        <ele>145</ele>
        <time>2024-04-06T10:02:15Z</time>
      </trkpt>
      <trkpt lat="49.99234" lon="4.70328">
        <ele>145</ele>
        <time>2024-04-06T10:02:16Z</time>
      </trkpt>
      <trkpt lat="49.99235" lon="4.70338">
        <ele>144.8</ele>
        <time>2024-04-06T10:02:17Z</time>
      </trkpt>
      <trkpt lat="49.99237" lon="4.70348">
        <ele>144</ele>
        <time>2024-04-06T10:02:18Z</time>
      </trkpt>
      <trkpt lat="49.99239" lon="4.70357">
        <ele>143.8</ele>
        <time>2024-04-06T10:02:19Z</time>
      </trkpt>
      <trkpt lat="49.99241" lon="4.70366">
        <ele>143.6</ele>
        <time>2024-04-06T10:02:20Z</time>
      </trkpt>
      <trkpt lat="49.99243" lon="4.70375">
        <ele>143.4</ele>
        <time>2024-04-06T10:02:21Z</time>
      </trkpt>
      <trkpt lat="49.99246" lon="4.70382">
        <ele>143.2</ele>
        <time>2024-04-06T10:02:22Z</time>
      </trkpt>
      <trkpt lat="49.9925" lon="4.70386">
        <ele>142.8</ele>
        <time>2024-04-06T10:02:23Z</time>
      </trkpt>
      <trkpt lat="49.99256" lon="4.70387">
        <ele>142.4</ele>
        <time>2024-04-06T10:02:24Z</time>
      </trkpt>
      <trkpt lat="49.99263" lon="4.70387">
        <ele>142</ele>
        <time>2024-04-06T10:02:25Z</time>
      </trkpt>
      <trkpt lat="49.99271" lon="4.70389">
        <ele>141.2</ele>
        <time>2024-04-06T10:02:26Z</time>
      </trkpt>
      <trkpt lat="49.99279" lon="4.70392">
        <ele>140.8</ele>
        <time>2024-04-06T10:02:27Z</time>
      </trkpt>
      <trkpt lat="49.99287" lon="4.70395">
        <ele>140.6</ele>
        <time>2024-04-06T10:02:28Z</time>
      </trkpt>
      <trkpt lat="49.99295" lon="4.704">
        <ele>140.6</ele>
        <time>2024-04-06T10:02:29Z</time>
      </trkpt>
      <trkpt lat="49.99302" lon="4.70404">
        <ele>140.2</ele>
        <time>2024-04-06T10:02:30Z</time>
      </trkpt>
      <trkpt lat="49.9931" lon="4.70408">
        <ele>140</ele>
        <time>2024-04-06T10:02:31Z</time>
      </trkpt>
      <trkpt lat="49.99317" lon="4.70413">
        <ele>140</ele>
        <time>2024-04-06T10:02:32Z</time>
      </trkpt>
      <trkpt lat="49.99324" lon="4.70417">
        <ele>140</ele>
        <time>2024-04-06T10:02:33Z</time>
      </trkpt>
      <trkpt lat="49.9933" lon="4.70421">
        <ele>139.4</ele>
        <time>2024-04-06T10:02:34Z</time>
      </trkpt>
      <trkpt lat="49.99335" lon="4.70425">
        <ele>138.6</ele>
        <time>2024-04-06T10:02:35Z</time>
      </trkpt>
      <trkpt lat="49.9934" lon="4.70427">
        <ele>137.4</ele>
        <time>2024-04-06T10:02:36Z</time>
      </trkpt>
      <trkpt lat="49.99344" lon="4.7043">
        <ele>136.6</ele>
        <time>2024-04-06T10:02:37Z</time>
      </trkpt>
      <trkpt lat="49.99348" lon="4.70432">
        <ele>135.2</ele>
        <time>2024-04-06T10:02:38Z</time>
      </trkpt>
      <trkpt lat="49.99352" lon="4.70433">
        <ele>133</ele>
        <time>2024-04-06T10:02:39Z</time>
      </trkpt>
      <trkpt lat="49.99357" lon="4.70434">
        <ele>131.6</ele>
        <time>2024-04-06T10:02:40Z</time>
      </trkpt>
      <trkpt lat="49.99361" lon="4.70432">
        <ele>130.8</ele>
        <time>2024-04-06T10:02:41Z</time>
      </trkpt>
      <trkpt lat="49.99365" lon="4.7043">
        <ele>130.4</ele>
        <time>2024-04-06T10:02:42Z</time>
      </trkpt>
      <trkpt lat="49.99369" lon="4.70426">
        <ele>130</ele>
        <time>2024-04-06T10:02:43Z</time>
      </trkpt>
      <trkpt lat="49.99372" lon="4.70422">
        <ele>129.8</ele>
        <time>2024-04-06T10:02:44Z</time>
      </trkpt>
      <trkpt lat="49.99376" lon="4.70418">
        <ele>129.2</ele>
        <time>2024-04-06T10:02:45Z</time>
      </trkpt>
      <trkpt lat="49.99379" lon="4.70415">
        <ele>128.8</ele>
        <time>2024-04-06T10:02:46Z</time>
      </trkpt>
      <trkpt lat="49.99383" lon="4.70411">
        <ele>128.6</ele>
        <time>2024-04-06T10:02:47Z</time>
      </trkpt>
      <trkpt lat="49.99387" lon="4.70408">
        <ele>128.2</ele>
        <time>2024-04-06T10:02:48Z</time>
      </trkpt>
      <trkpt lat="49.9939" lon="4.70404">
        <ele>128</ele>
        <time>2024-04-06T10:02:49Z</time>
      </trkpt>
      <trkpt lat="49.99394" lon="4.704">
        <ele>127.8</ele>
        <time>2024-04-06T10:02:50Z</time>
      </trkpt>
      <trkpt lat="49.99398" lon="4.70396">
        <ele>127.6</ele>
        <time>2024-04-06T10:02:51Z</time>
      </trkpt>
      <trkpt lat="49.99401" lon="4.70392">
        <ele>127.4</ele>
        <time>2024-04-06T10:02:52Z</time>
      </trkpt>
      <trkpt lat="49.99405" lon="4.70388">
        <ele>127</ele>
        <time>2024-04-06T10:02:53Z</time>
      </trkpt>
      <trkpt lat="49.99409" lon="4.70384">
        <ele>127</ele>
        <time>2024-04-06T10:02:54Z</time>
      </trkpt>
      <trkpt lat="49.99413" lon="4.70379">
        <ele>127</ele>
        <time>2024-04-06T10:02:55Z</time>
      </trkpt>
      <trkpt lat="49.99417" lon="4.70375">
        <ele>126.8</ele>
        <time>2024-04-06T10:02:56Z</time>
      </trkpt>
      <trkpt lat="49.99422" lon="4.70371">
        <ele>126.6</ele>
        <time>2024-04-06T10:02:57Z</time>
      </trkpt>
      <trkpt lat="49.99426" lon="4.70367">
        <ele>126.4</ele>
        <time>2024-04-06T10:02:58Z</time>
      </trkpt>
      <trkpt lat="49.99431" lon="4.70362">
        <ele>126.4</ele>
        <time>2024-04-06T10:02:59Z</time>
      </trkpt>
      <trkpt lat="49.99435" lon="4.70357">
        <ele>126.4</ele>
        <time>2024-04-06T10:03:00Z</time>
      </trkpt>
      <trkpt lat="49.9944" lon="4.70352">
        <ele>126.2</ele>
        <time>2024-04-06T10:03:01Z</time>
      </trkpt>
      <trkpt lat="49.99445" lon="4.70348">
        <ele>126.2</ele>
        <time>2024-04-06T10:03:02Z</time>
      </trkpt>
      <trkpt lat="49.9945" lon="4.70343">
        <ele>126.2</ele>
        <time>2024-04-06T10:03:03Z</time>
      </trkpt>
      <trkpt lat="49.99454" lon="4.70338">
        <ele>126.4</ele>
        <time>2024-04-06T10:03:04Z</time>
      </trkpt>
      <trkpt lat="49.99459" lon="4.70333">
        <ele>126.2</ele>
        <time>2024-04-06T10:03:05Z</time>
      </trkpt>
      <trkpt lat="49.99464" lon="4.70328">
        <ele>126.2</ele>
        <time>2024-04-06T10:03:06Z</time>
      </trkpt>
      <trkpt lat="49.99469" lon="4.70322">
        <ele>126.4</ele>
        <time>2024-04-06T10:03:07Z</time>
      </trkpt>
      <trkpt lat="49.99473" lon="4.70315">
        <ele>126.2</ele>
        <time>2024-04-06T10:03:08Z</time>
      </trkpt>
      <trkpt lat="49.99477" lon="4.70307">
        <ele>126.2</ele>
        <time>2024-04-06T10:03:09Z</time>
      </trkpt>
      <trkpt lat="49.9948" lon="4.70299">
        <ele>126.2</ele>
        <time>2024-04-06T10:03:10Z</time>
      </trkpt>
      <trkpt lat="49.99482" lon="4.7029">
        <ele>126.2</ele>
        <time>2024-04-06T10:03:11Z</time>
      </trkpt>
      <trkpt lat="49.99483" lon="4.70281">
        <ele>126.2</ele>
        <time>2024-04-06T10:03:12Z</time>
      </trkpt>
      <trkpt lat="49.99484" lon="4.70272">
        <ele>126.2</ele>
        <time>2024-04-06T10:03:13Z</time>
      </trkpt>
      <trkpt lat="49.99485" lon="4.70263">
        <ele>126.2</ele>
        <time>2024-04-06T10:03:14Z</time>
      </trkpt>
      <trkpt lat="49.99486" lon="4.70254">
        <ele>126.2</ele>
        <time>2024-04-06T10:03:15Z</time>
      </trkpt>
      <trkpt lat="49.99486" lon="4.70245">
        <ele>126.2</ele>
        <time>2024-04-06T10:03:16Z</time>
      </trkpt>
      <trkpt lat="49.99486" lon="4.70236">
        <ele>126</ele>
        <time>2024-04-06T10:03:17Z</time>
      </trkpt>
      <trkpt lat="49.99486" lon="4.70228">
        <ele>125.8</ele>
        <time>2024-04-06T10:03:18Z</time>
      </trkpt>
      <trkpt lat="49.99486" lon="4.7022">
        <ele>125.8</ele>
        <time>2024-04-06T10:03:19Z</time>
      </trkpt>
      <trkpt lat="49.99486" lon="4.70212">
        <ele>125.8</ele>
        <time>2024-04-06T10:03:20Z</time>
      </trkpt>
      <trkpt lat="49.99487" lon="4.70204">
        <ele>125.6</ele>
        <time>2024-04-06T10:03:21Z</time>
      </trkpt>
      <trkpt lat="49.99487" lon="4.70197">
        <ele>125.8</ele>
        <time>2024-04-06T10:03:22Z</time>
      </trkpt>
      <trkpt lat="49.99487" lon="4.70189">
        <ele>125.8</ele>
        <time>2024-04-06T10:03:23Z</time>
      </trkpt>
      <trkpt lat="49.99488" lon="4.70182">
        <ele>125.8</ele>
        <time>2024-04-06T10:03:24Z</time>
      </trkpt>
      <trkpt lat="49.99488" lon="4.70176">
        <ele>126</ele>
        <time>2024-04-06T10:03:25Z</time>
      </trkpt>
      <trkpt lat="49.99489" lon="4.7017">
        <ele>126</ele>
        <time>2024-04-06T10:03:26Z</time>
      </trkpt>
      <trkpt lat="49.99489" lon="4.70163">
        <ele>125.8</ele>
        <time>2024-04-06T10:03:27Z</time>
      </trkpt>
      <trkpt lat="49.9949" lon="4.70156">
        <ele>126</ele>
        <time>2024-04-06T10:03:28Z</time>
      </trkpt>
      <trkpt lat="49.99491" lon="4.7015">
        <ele>125.8</ele>
        <time>2024-04-06T10:03:29Z</time>
      </trkpt>
      <trkpt lat="49.99492" lon="4.70144">
        <ele>126</ele>
        <time>2024-04-06T10:03:30Z</time>
      </trkpt>
      <trkpt lat="49.99492" lon="4.7014">
        <ele>126.2</ele>
        <time>2024-04-06T10:03:31Z</time>
      </trkpt>
      <trkpt lat="49.99491" lon="4.70137">
        <ele>126.4</ele>
        <time>2024-04-06T10:03:32Z</time>
      </trkpt>
      <trkpt lat="49.99489" lon="4.70137">
        <ele>126.4</ele>
        <time>2024-04-06T10:03:33Z</time>
      </trkpt>
      <trkpt lat="49.99488" lon="4.7014">
        <ele>126.6</ele>
        <time>2024-04-06T10:03:34Z</time>
      </trkpt>
      <trkpt lat="49.99488" lon="4.70146">
        <ele>127.4</ele>
        <time>2024-04-06T10:03:35Z</time>
      </trkpt>
      <trkpt lat="49.99487" lon="4.70153">
        <ele>127.8</ele>
        <time>2024-04-06T10:03:36Z</time>
      </trkpt>
      <trkpt lat="49.99486" lon="4.70161">
        <ele>128.4</ele>
        <time>2024-04-06T10:03:37Z</time>
      </trkpt>
      <trkpt lat="49.99485" lon="4.7017">
        <ele>128.4</ele>
        <time>2024-04-06T10:03:38Z</time>
      </trkpt>
      <trkpt lat="49.99485" lon="4.70179">
        <ele>128.6</ele>
        <time>2024-04-06T10:03:39Z</time>
      </trkpt>
      <trkpt lat="49.99484" lon="4.70189">
        <ele>128.8</ele>
        <time>2024-04-06T10:03:40Z</time>
      </trkpt>
      <trkpt lat="49.99484" lon="4.70199">
        <ele>128.6</ele>
        <time>2024-04-06T10:03:41Z</time>
      </trkpt>
      <trkpt lat="49.99484" lon="4.70211">
        <ele>128.8</ele>
        <time>2024-04-06T10:03:42Z</time>
      </trkpt>
      <trkpt lat="49.99484" lon="4.70223">
        <ele>128.8</ele>
        <time>2024-04-06T10:03:43Z</time>
      </trkpt>
      <trkpt lat="49.99484" lon="4.70236">
        <ele>128.6</ele>
        <time>2024-04-06T10:03:44Z</time>
      </trkpt>
      <trkpt lat="49.99484" lon="4.70249">
        <ele>128.6</ele>
        <time>2024-04-06T10:03:45Z</time>
      </trkpt>
      <trkpt lat="49.99483" lon="4.70262">
        <ele>128.8</ele>
        <time>2024-04-06T10:03:46Z</time>
      </trkpt>
      <trkpt lat="49.99482" lon="4.70275">
        <ele>128.6</ele>
        <time>2024-04-06T10:03:47Z</time>
      </trkpt>
      <trkpt lat="49.99479" lon="4.70288">
        <ele>128.6</ele>
        <time>2024-04-06T10:03:48Z</time>
      </trkpt>
      <trkpt lat="49.99476" lon="4.70301">
        <ele>128.4</ele>
        <time>2024-04-06T10:03:49Z</time>
      </trkpt>
      <trkpt lat="49.99471" lon="4.70312">
        <ele>128.4</ele>
        <time>2024-04-06T10:03:50Z</time>
      </trkpt>
      <trkpt lat="49.99464" lon="4.70322">
        <ele>128.2</ele>
        <time>2024-04-06T10:03:51Z</time>
      </trkpt>
      <trkpt lat="49.99457" lon="4.7033">
        <ele>128</ele>
        <time>2024-04-06T10:03:52Z</time>
      </trkpt>
      <trkpt lat="49.9945" lon="4.70337">
        <ele>127.6</ele>
        <time>2024-04-06T10:03:53Z</time>
      </trkpt>
      <trkpt lat="49.99444" lon="4.70345">
        <ele>127.4</ele>
        <time>2024-04-06T10:03:54Z</time>
      </trkpt>
      <trkpt lat="49.99437" lon="4.70352">
        <ele>127.2</ele>
        <time>2024-04-06T10:03:55Z</time>
      </trkpt>
      <trkpt lat="49.99431" lon="4.70359">
        <ele>127</ele>
        <time>2024-04-06T10:03:56Z</time>
      </trkpt>
      <trkpt lat="49.99424" lon="4.70366">
        <ele>127</ele>
        <time>2024-04-06T10:03:57Z</time>
      </trkpt>
      <trkpt lat="49.99418" lon="4.70372">
        <ele>126.6</ele>
        <time>2024-04-06T10:03:58Z</time>
      </trkpt>
      <trkpt lat="49.99412" lon="4.70379">
        <ele>126.2</ele>
        <time>2024-04-06T10:03:59Z</time>
      </trkpt>
      <trkpt lat="49.99406" lon="4.70386">
        <ele>126</ele>
        <time>2024-04-06T10:04:00Z</time>
      </trkpt>
      <trkpt lat="49.994" lon="4.70393">
        <ele>125.8</ele>
        <time>2024-04-06T10:04:01Z</time>
      </trkpt>
      <trkpt lat="49.99394" lon="4.70399">
        <ele>125.6</ele>
        <time>2024-04-06T10:04:02Z</time>
      </trkpt>
      <trkpt lat="49.99388" lon="4.70406">
        <ele>125.4</ele>
        <time>2024-04-06T10:04:03Z</time>
      </trkpt>
      <trkpt lat="49.99382" lon="4.70412">
        <ele>125.2</ele>
        <time>2024-04-06T10:04:04Z</time>
      </trkpt>
      <trkpt lat="49.99375" lon="4.70417">
        <ele>125.2</ele>
        <time>2024-04-06T10:04:05Z</time>
      </trkpt>
      <trkpt lat="49.9937" lon="4.70423">
        <ele>125.2</ele>
        <time>2024-04-06T10:04:06Z</time>
      </trkpt>
      <trkpt lat="49.99364" lon="4.70428">
        <ele>125.2</ele>
        <time>2024-04-06T10:04:07Z</time>
      </trkpt>
      <trkpt lat="49.99358" lon="4.70432">
        <ele>125.2</ele>
        <time>2024-04-06T10:04:08Z</time>
      </trkpt>
      <trkpt lat="49.99352" lon="4.70433">
        <ele>125</ele>
        <time>2024-04-06T10:04:09Z</time>
      </trkpt>
      <trkpt lat="49.99347" lon="4.70431">
        <ele>125.2</ele>
        <time>2024-04-06T10:04:10Z</time>
      </trkpt>
      <trkpt lat="49.99342" lon="4.70428">
        <ele>125.2</ele>
        <time>2024-04-06T10:04:11Z</time>
      </trkpt>
      <trkpt lat="49.99339" lon="4.70425">
        <ele>125.2</ele>
        <time>2024-04-06T10:04:12Z</time>
      </trkpt>
      <trkpt lat="49.99335" lon="4.70422">
        <ele>125.4</ele>
        <time>2024-04-06T10:04:13Z</time>
      </trkpt>
      <trkpt lat="49.99332" lon="4.7042">
        <ele>125.4</ele>
        <time>2024-04-06T10:04:14Z</time>
      </trkpt>
      <trkpt lat="49.99328" lon="4.70417">
        <ele>125.4</ele>
        <time>2024-04-06T10:04:15Z</time>
      </trkpt>
      <trkpt lat="49.99325" lon="4.70415">
        <ele>125.4</ele>
        <time>2024-04-06T10:04:16Z</time>
      </trkpt>
      <trkpt lat="49.99322" lon="4.70413">
        <ele>125.4</ele>
        <time>2024-04-06T10:04:17Z</time>
      </trkpt>
      <trkpt lat="49.99319" lon="4.70411">
        <ele>125.8</ele>
        <time>2024-04-06T10:04:18Z</time>
      </trkpt>
      <trkpt lat="49.99316" lon="4.70409">
        <ele>127</ele>
        <time>2024-04-06T10:04:19Z</time>
      </trkpt>
      <trkpt lat="49.99313" lon="4.70406">
        <ele>127.8</ele>
        <time>2024-04-06T10:04:20Z</time>
      </trkpt>
      <trkpt lat="49.99311" lon="4.70404">
        <ele>128.2</ele>
        <time>2024-04-06T10:04:21Z</time>
      </trkpt>
      <trkpt lat="49.99308" lon="4.70402">
        <ele>129</ele>
        <time>2024-04-06T10:04:22Z</time>
      </trkpt>
      <trkpt lat="49.99305" lon="4.704">
        <ele>129.4</ele>
        <time>2024-04-06T10:04:23Z</time>
      </trkpt>
      <trkpt lat="49.99303" lon="4.70398">
        <ele>129.6</ele>
        <time>2024-04-06T10:04:24Z</time>
      </trkpt>
      <trkpt lat="49.99301" lon="4.70396">
        <ele>130</ele>
        <time>2024-04-06T10:04:25Z</time>
      </trkpt>
      <trkpt lat="49.99299" lon="4.70394">
        <ele>130.2</ele>
        <time>2024-04-06T10:04:26Z</time>
      </trkpt>
      <trkpt lat="49.99297" lon="4.70392">
        <ele>130.6</ele>
        <time>2024-04-06T10:04:27Z</time>
      </trkpt>
      <trkpt lat="49.99294" lon="4.7039">
        <ele>131</ele>
        <time>2024-04-06T10:04:28Z</time>
      </trkpt>
      <trkpt lat="49.99291" lon="4.70388">
        <ele>131.2</ele>
        <time>2024-04-06T10:04:29Z</time>
      </trkpt>
      <trkpt lat="49.99288" lon="4.70386">
        <ele>131.4</ele>
        <time>2024-04-06T10:04:30Z</time>
      </trkpt>
      <trkpt lat="49.99286" lon="4.70384">
        <ele>131.8</ele>
        <time>2024-04-06T10:04:31Z</time>
      </trkpt>
      <trkpt lat="49.99283" lon="4.70382">
        <ele>132.2</ele>
        <time>2024-04-06T10:04:32Z</time>
      </trkpt>
      <trkpt lat="49.99281" lon="4.7038">
        <ele>132.6</ele>
        <time>2024-04-06T10:04:33Z</time>
      </trkpt>
      <trkpt lat="49.99279" lon="4.70378">
        <ele>132.8</ele>
        <time>2024-04-06T10:04:34Z</time>
      </trkpt>
      <trkpt lat="49.99277" lon="4.70376">
        <ele>133.2</ele>
        <time>2024-04-06T10:04:35Z</time>
      </trkpt>
      <trkpt lat="49.99275" lon="4.70374">
        <ele>133.6</ele>
        <time>2024-04-06T10:04:36Z</time>
      </trkpt>
      <trkpt lat="49.99273" lon="4.70373">
        <ele>134.4</ele>
        <time>2024-04-06T10:04:37Z</time>
      </trkpt>
      <trkpt lat="49.9927" lon="4.70371">
        <ele>134.8</ele>
        <time>2024-04-06T10:04:38Z</time>
      </trkpt>
      <trkpt lat="49.99268" lon="4.70369">
        <ele>135.2</ele>
        <time>2024-04-06T10:04:39Z</time>
      </trkpt>
      <trkpt lat="49.99266" lon="4.70366">
        <ele>135.2</ele>
        <time>2024-04-06T10:04:40Z</time>
      </trkpt>
      <trkpt lat="49.99265" lon="4.70364">
        <ele>135.6</ele>
        <time>2024-04-06T10:04:41Z</time>
      </trkpt>
      <trkpt lat="49.99263" lon="4.70361">
        <ele>136</ele>
        <time>2024-04-06T10:04:42Z</time>
      </trkpt>
      <trkpt lat="49.99261" lon="4.70359">
        <ele>136.4</ele>
        <time>2024-04-06T10:04:43Z</time>
      </trkpt>
      <trkpt lat="49.9926" lon="4.70357">
        <ele>136.6</ele>
        <time>2024-04-06T10:04:44Z</time>
      </trkpt>
      <trkpt lat="49.99258" lon="4.70355">
        <ele>137</ele>
        <time>2024-04-06T10:04:45Z</time>
      </trkpt>
      <trkpt lat="49.99256" lon="4.70351">
        <ele>137.4</ele>
        <time>2024-04-06T10:04:46Z</time>
      </trkpt>
      <trkpt lat="49.99255" lon="4.70348">
        <ele>137.8</ele>
        <time>2024-04-06T10:04:47Z</time>
      </trkpt>
      <trkpt lat="49.99254" lon="4.70344">
        <ele>138.2</ele>
        <time>2024-04-06T10:04:48Z</time>
      </trkpt>
      <trkpt lat="49.99253" lon="4.7034">
        <ele>138.6</ele>
        <time>2024-04-06T10:04:49Z</time>
      </trkpt>
      <trkpt lat="49.99252" lon="4.70337">
        <ele>139.2</ele>
        <time>2024-04-06T10:04:50Z</time>
      </trkpt>
      <trkpt lat="49.99251" lon="4.70333">
        <ele>139.4</ele>
        <time>2024-04-06T10:04:51Z</time>
      </trkpt>
      <trkpt lat="49.9925" lon="4.70329">
        <ele>139.6</ele>
        <time>2024-04-06T10:04:52Z</time>
      </trkpt>
      <trkpt lat="49.99248" lon="4.70324">
        <ele>139.8</ele>
        <time>2024-04-06T10:04:53Z</time>
      </trkpt>
      <trkpt lat="49.99247" lon="4.7032">
        <ele>139.8</ele>
        <time>2024-04-06T10:04:54Z</time>
      </trkpt>
      <trkpt lat="49.99246" lon="4.70316">
        <ele>140.2</ele>
        <time>2024-04-06T10:04:55Z</time>
      </trkpt>
      <trkpt lat="49.99245" lon="4.70311">
        <ele>140.4</ele>
        <time>2024-04-06T10:04:56Z</time>
      </trkpt>
      <trkpt lat="49.99244" lon="4.70307">
        <ele>140.6</ele>
        <time>2024-04-06T10:04:57Z</time>
      </trkpt>
      <trkpt lat="49.99243" lon="4.70303">
        <ele>141.2</ele>
        <time>2024-04-06T10:04:58Z</time>
      </trkpt>
      <trkpt lat="49.99242" lon="4.70299">
        <ele>141.4</ele>
        <time>2024-04-06T10:04:59Z</time>
      </trkpt>
      <trkpt lat="49.99241" lon="4.70294">
        <ele>141.4</ele>
        <time>2024-04-06T10:05:00Z</time>
      </trkpt>
      <trkpt lat="49.9924" lon="4.7029">
        <ele>141.4</ele>
        <time>2024-04-06T10:05:01Z</time>
      </trkpt>
      <trkpt lat="49.99239" lon="4.70285">
        <ele>141.8</ele>
        <time>2024-04-06T10:05:02Z</time>
      </trkpt>
      <trkpt lat="49.99238" lon="4.70281">
        <ele>142</ele>
        <time>2024-04-06T10:05:03Z</time>
      </trkpt>
      <trkpt lat="49.99237" lon="4.70276">
        <ele>142.4</ele>
        <time>2024-04-06T10:05:04Z</time>
      </trkpt>
      <trkpt lat="49.99235" lon="4.70272">
        <ele>142.6</ele>
        <time>2024-04-06T10:05:05Z</time>
      </trkpt>
      <trkpt lat="49.99235" lon="4.70267">
        <ele>142.8</ele>
        <time>2024-04-06T10:05:06Z</time>
      </trkpt>
      <trkpt lat="49.99234" lon="4.70263">
        <ele>143</ele>
        <time>2024-04-06T10:05:07Z</time>
      </trkpt>
      <trkpt lat="49.99232" lon="4.70258">
        <ele>143</ele>
        <time>2024-04-06T10:05:08Z</time>
      </trkpt>
      <trkpt lat="49.99231" lon="4.70254">
        <ele>143.2</ele>
        <time>2024-04-06T10:05:09Z</time>
      </trkpt>
      <trkpt lat="49.9923" lon="4.7025">
        <ele>143.8</ele>
        <time>2024-04-06T10:05:10Z</time>
      </trkpt>
      <trkpt lat="49.99229" lon="4.70245">
        <ele>144</ele>
        <time>2024-04-06T10:05:11Z</time>
      </trkpt>
      <trkpt lat="49.99228" lon="4.7024">
        <ele>144.2</ele>
        <time>2024-04-06T10:05:12Z</time>
      </trkpt>
      <trkpt lat="49.99227" lon="4.70236">
        <ele>144.2</ele>
        <time>2024-04-06T10:05:13Z</time>
      </trkpt>
      <trkpt lat="49.99226" lon="4.70231">
        <ele>144.4</ele>
        <time>2024-04-06T10:05:14Z</time>
      </trkpt>
      <trkpt lat="49.99225" lon="4.70227">
        <ele>144.6</ele>
        <time>2024-04-06T10:05:15Z</time>
      </trkpt>
      <trkpt lat="49.99224" lon="4.70223">
        <ele>144.6</ele>
        <time>2024-04-06T10:05:16Z</time>
      </trkpt>
      <trkpt lat="49.99222" lon="4.70219">
        <ele>145</ele>
        <time>2024-04-06T10:05:17Z</time>
      </trkpt>
      <trkpt lat="49.99221" lon="4.70214">
        <ele>145.2</ele>
        <time>2024-04-06T10:05:18Z</time>
      </trkpt>
      <trkpt lat="49.9922" lon="4.7021">
        <ele>145.6</ele>
        <time>2024-04-06T10:05:19Z</time>
      </trkpt>
      <trkpt lat="49.99219" lon="4.70206">
        <ele>145.8</ele>
        <time>2024-04-06T10:05:20Z</time>
      </trkpt>
      <trkpt lat="49.99218" lon="4.70203">
        <ele>146</ele>
        <time>2024-04-06T10:05:21Z</time>
      </trkpt>
      <trkpt lat="49.99217" lon="4.702">
        <ele>146</ele>
        <time>2024-04-06T10:05:22Z</time>
      </trkpt>
      <trkpt lat="49.99216" lon="4.70198">
        <ele>146.4</ele>
        <time>2024-04-06T10:05:23Z</time>
      </trkpt>
      <trkpt lat="49.99215" lon="4.70196">
        <ele>146.4</ele>
        <time>2024-04-06T10:05:24Z</time>
      </trkpt>
      <trkpt lat="49.99214" lon="4.70194">
        <ele>146.6</ele>
        <time>2024-04-06T10:05:25Z</time>
      </trkpt>
      <trkpt lat="49.99212" lon="4.70194">
        <ele>146.8</ele>
        <time>2024-04-06T10:05:26Z</time>
      </trkpt>
      <trkpt lat="49.99209" lon="4.70195">
        <ele>147</ele>
        <time>2024-04-06T10:05:27Z</time>
      </trkpt>
      <trkpt lat="49.99207" lon="4.70195">
        <ele>147</ele>
        <time>2024-04-06T10:05:28Z</time>
      </trkpt>
      <trkpt lat="49.99204" lon="4.70195">
        <ele>147.2</ele>
        <time>2024-04-06T10:05:29Z</time>
      </trkpt>
      <trkpt lat="49.99202" lon="4.70195">
        <ele>147.4</ele>
        <time>2024-04-06T10:05:30Z</time>
      </trkpt>
      <trkpt lat="49.99201" lon="4.70195">
        <ele>147.4</ele>
        <time>2024-04-06T10:05:31Z</time>
      </trkpt>
      <trkpt lat="49.992" lon="4.70196">
        <ele>147.6</ele>
        <time>2024-04-06T10:05:32Z</time>
      </trkpt>
      <trkpt lat="49.992" lon="4.70198">
        <ele>147.8</ele>
        <time>2024-04-06T10:05:33Z</time>
      </trkpt>
      <trkpt lat="49.992" lon="4.70198">
        <ele>148</ele>
        <time>2024-04-06T10:05:34Z</time>
      </trkpt>
      <trkpt lat="49.992" lon="4.702">
        <ele>148</ele>
        <time>2024-04-06T10:05:35Z</time>
      </trkpt>
      <trkpt lat="49.99201" lon="4.70201">
        <ele>148.2</ele>
        <time>2024-04-06T10:05:36Z</time>
      </trkpt>
      <trkpt lat="49.99201" lon="4.70203">
        <ele>148.4</ele>
        <time>2024-04-06T10:05:37Z</time>
      </trkpt>
      <trkpt lat="49.99201" lon="4.70203">
        <ele>148.4</ele>
        <time>2024-04-06T10:05:38Z</time>
      </trkpt>
      <trkpt lat="49.99201" lon="4.70203">
        <ele>148.6</ele>
        <time>2024-04-06T10:05:39Z</time>
      </trkpt>
      <trkpt lat="49.99195" lon="4.70201">
        <ele>149.4</ele>
        <time>2024-04-06T10:10:58Z</time>
      </trkpt>
      <trkpt lat="49.99193" lon="4.70199">
        <ele>149.4</ele>
        <time>2024-04-06T10:10:59Z</time>
      </trkpt>
      <trkpt lat="49.99192" lon="4.70197">
        <ele>149.4</ele>
        <time>2024-04-06T10:11:00Z</time>
      </trkpt>
      <trkpt lat="49.99192" lon="4.70195">
        <ele>149.4</ele>
        <time>2024-04-06T10:11:01Z</time>
      </trkpt>
      <trkpt lat="49.99192" lon="4.70194">
        <ele>149.6</ele>
        <time>2024-04-06T10:11:02Z</time>
      </trkpt>
      <trkpt lat="49.99192" lon="4.70191">
        <ele>149.4</ele>
        <time>2024-04-06T10:11:03Z</time>
      </trkpt>
      <trkpt lat="49.99191" lon="4.70189">
        <ele>149.6</ele>
        <time>2024-04-06T10:11:04Z</time>
      </trkpt>
      <trkpt lat="49.99188" lon="4.70186">
        <ele>149.4</ele>
        <time>2024-04-06T10:11:05Z</time>
      </trkpt>
      <trkpt lat="49.99186" lon="4.70185">
        <ele>149.6</ele>
        <time>2024-04-06T10:11:06Z</time>
      </trkpt>
      <trkpt lat="49.99183" lon="4.70184">
        <ele>149.4</ele>
        <time>2024-04-06T10:11:07Z</time>
      </trkpt>
      <trkpt lat="49.99181" lon="4.70184">
        <ele>149.6</ele>
        <time>2024-04-06T10:11:08Z</time>
      </trkpt>
      <trkpt lat="49.99178" lon="4.70182">
        <ele>149.6</ele>
        <time>2024-04-06T10:11:09Z</time>
      </trkpt>
      <trkpt lat="49.99175" lon="4.70181">
        <ele>149.8</ele>
        <time>2024-04-06T10:11:10Z</time>
      </trkpt>
      <trkpt lat="49.99173" lon="4.70179">
        <ele>149.6</ele>
        <time>2024-04-06T10:11:11Z</time>
      </trkpt>
      <trkpt lat="49.9917" lon="4.70177">
        <ele>149.6</ele>
        <time>2024-04-06T10:11:12Z</time>
      </trkpt>
      <trkpt lat="49.99168" lon="4.70174">
        <ele>149.6</ele>
        <time>2024-04-06T10:11:13Z</time>
      </trkpt>
      <trkpt lat="49.99165" lon="4.70172">
        <ele>149.6</ele>
        <time>2024-04-06T10:11:14Z</time>
      </trkpt>
      <trkpt lat="49.99162" lon="4.7017">
        <ele>149.6</ele>
        <time>2024-04-06T10:11:15Z</time>
      </trkpt>
      <trkpt lat="49.9916" lon="4.70168">
        <ele>149.8</ele>
        <time>2024-04-06T10:11:16Z</time>
      </trkpt>
      <trkpt lat="49.99157" lon="4.70165">
        <ele>149.8</ele>
        <time>2024-04-06T10:11:17Z</time>
      </trkpt>
      <trkpt lat="49.99155" lon="4.70163">
        <ele>149.8</ele>
        <time>2024-04-06T10:11:18Z</time>
      </trkpt>
      <trkpt lat="49.99153" lon="4.70159">
        <ele>149.8</ele>
        <time>2024-04-06T10:11:19Z</time>
      </trkpt>
      <trkpt lat="49.99151" lon="4.70156">
        <ele>149.8</ele>
        <time>2024-04-06T10:11:20Z</time>
      </trkpt>
      <trkpt lat="49.99149" lon="4.70153">
        <ele>149.8</ele>
        <time>2024-04-06T10:11:21Z</time>
      </trkpt>
      <trkpt lat="49.99147" lon="4.70149">
        <ele>149.8</ele>
        <time>2024-04-06T10:11:22Z</time>
      </trkpt>
      <trkpt lat="49.99145" lon="4.70146">
        <ele>149.8</ele>
        <time>2024-04-06T10:11:23Z</time>
      </trkpt>
      <trkpt lat="49.99143" lon="4.70143">
        <ele>150</ele>
        <time>2024-04-06T10:11:24Z</time>
      </trkpt>
      <trkpt lat="49.99141" lon="4.70139">
        <ele>150.4</ele>
        <time>2024-04-06T10:11:25Z</time>
      </trkpt>
      <trkpt lat="49.99139" lon="4.70135">
        <ele>150.4</ele>
        <time>2024-04-06T10:11:26Z</time>
      </trkpt>
      <trkpt lat="49.99138" lon="4.70131">
        <ele>150.8</ele>
        <time>2024-04-06T10:11:27Z</time>
      </trkpt>
      <trkpt lat="49.99136" lon="4.70127">
        <ele>151</ele>
        <time>2024-04-06T10:11:28Z</time>
      </trkpt>
      <trkpt lat="49.99134" lon="4.70123">
        <ele>151.2</ele>
        <time>2024-04-06T10:11:29Z</time>
      </trkpt>
      <trkpt lat="49.99132" lon="4.70119">
        <ele>151.2</ele>
        <time>2024-04-06T10:11:30Z</time>
      </trkpt>
      <trkpt lat="49.99131" lon="4.70115">
        <ele>151.4</ele>
        <time>2024-04-06T10:11:31Z</time>
      </trkpt>
      <trkpt lat="49.99129" lon="4.7011">
        <ele>151.6</ele>
        <time>2024-04-06T10:11:32Z</time>
      </trkpt>
      <trkpt lat="49.99128" lon="4.70106">
        <ele>151.6</ele>
        <time>2024-04-06T10:11:33Z</time>
      </trkpt>
      <trkpt lat="49.99126" lon="4.70101">
        <ele>151.8</ele>
        <time>2024-04-06T10:11:34Z</time>
      </trkpt>
      <trkpt lat="49.99125" lon="4.70097">
        <ele>151.6</ele>
        <time>2024-04-06T10:11:35Z</time>
      </trkpt>
      <trkpt lat="49.99124" lon="4.70092">
        <ele>151.8</ele>
        <time>2024-04-06T10:11:36Z</time>
      </trkpt>
      <trkpt lat="49.99123" lon="4.70087">
        <ele>152</ele>
        <time>2024-04-06T10:11:37Z</time>
      </trkpt>
      <trkpt lat="49.99123" lon="4.70083">
        <ele>152.4</ele>
        <time>2024-04-06T10:11:38Z</time>
      </trkpt>
      <trkpt lat="49.99122" lon="4.70079">
        <ele>152.8</ele>
        <time>2024-04-06T10:11:39Z</time>
      </trkpt>
      <trkpt lat="49.9912" lon="4.70074">
        <ele>153.2</ele>
        <time>2024-04-06T10:11:40Z</time>
      </trkpt>
      <trkpt lat="49.99119" lon="4.7007">
        <ele>153.2</ele>
        <time>2024-04-06T10:11:41Z</time>
      </trkpt>
      <trkpt lat="49.99117" lon="4.70065">
        <ele>153.6</ele>
        <time>2024-04-06T10:11:42Z</time>
      </trkpt>
      <trkpt lat="49.99116" lon="4.70061">
        <ele>153.8</ele>
        <time>2024-04-06T10:11:43Z</time>
      </trkpt>
      <trkpt lat="49.99115" lon="4.70056">
        <ele>154</ele>
        <time>2024-04-06T10:11:44Z</time>
      </trkpt>
      <trkpt lat="49.99113" lon="4.70051">
        <ele>154.2</ele>
        <time>2024-04-06T10:11:45Z</time>
      </trkpt>
      <trkpt lat="49.99112" lon="4.70046">
        <ele>154.4</ele>
        <time>2024-04-06T10:11:46Z</time>
      </trkpt>
      <trkpt lat="49.99111" lon="4.7004">
        <ele>154.6</ele>
        <time>2024-04-06T10:11:47Z</time>
      </trkpt>
      <trkpt lat="49.9911" lon="4.70035">
        <ele>154.8</ele>
        <time>2024-04-06T10:11:48Z</time>
      </trkpt>
      <trkpt lat="49.99109" lon="4.70029">
        <ele>155.2</ele>
        <time>2024-04-06T10:11:49Z</time>
      </trkpt>
      <trkpt lat="49.99107" lon="4.70024">
        <ele>155.6</ele>
        <time>2024-04-06T10:11:50Z</time>
      </trkpt>
      <trkpt lat="49.99107" lon="4.70019">
        <ele>155.8</ele>
        <time>2024-04-06T10:11:51Z</time>
      </trkpt>
      <trkpt lat="49.99106" lon="4.70013">
        <ele>156</ele>
        <time>2024-04-06T10:11:52Z</time>
      </trkpt>
      <trkpt lat="49.99105" lon="4.70008">
        <ele>156.4</ele>
        <time>2024-04-06T10:11:53Z</time>
      </trkpt>
      <trkpt lat="49.99104" lon="4.70003">
        <ele>156.6</ele>
        <time>2024-04-06T10:11:54Z</time>
      </trkpt>
      <trkpt lat="49.99103" lon="4.69997">
        <ele>156.6</ele>
        <time>2024-04-06T10:11:55Z</time>
      </trkpt>
      <trkpt lat="49.99102" lon="4.69992">
        <ele>156.6</ele>
        <time>2024-04-06T10:11:56Z</time>
      </trkpt>
      <trkpt lat="49.99101" lon="4.69988">
        <ele>156.8</ele>
        <time>2024-04-06T10:11:57Z</time>
      </trkpt>
      <trkpt lat="49.991" lon="4.69984">
        <ele>157</ele>
        <time>2024-04-06T10:11:58Z</time>
      </trkpt>
      <trkpt lat="49.99098" lon="4.69979">
        <ele>157.2</ele>
        <time>2024-04-06T10:11:59Z</time>
      </trkpt>
      <trkpt lat="49.99097" lon="4.69975">
        <ele>157.6</ele>
        <time>2024-04-06T10:12:00Z</time>
      </trkpt>
      <trkpt lat="49.99096" lon="4.69971">
        <ele>157.6</ele>
        <time>2024-04-06T10:12:01Z</time>
      </trkpt>
      <trkpt lat="49.99094" lon="4.69967">
        <ele>158</ele>
        <time>2024-04-06T10:12:02Z</time>
      </trkpt>
      <trkpt lat="49.99092" lon="4.69963">
        <ele>158.2</ele>
        <time>2024-04-06T10:12:03Z</time>
      </trkpt>
      <trkpt lat="49.9909" lon="4.6996">
        <ele>158.4</ele>
        <time>2024-04-06T10:12:04Z</time>
      </trkpt>
      <trkpt lat="49.99088" lon="4.69956">
        <ele>158.6</ele>
        <time>2024-04-06T10:12:05Z</time>
      </trkpt>
      <trkpt lat="49.99086" lon="4.69952">
        <ele>158.6</ele>
        <time>2024-04-06T10:12:06Z</time>
      </trkpt>
      <trkpt lat="49.99084" lon="4.69947">
        <ele>158.8</ele>
        <time>2024-04-06T10:12:07Z</time>
      </trkpt>
      <trkpt lat="49.99083" lon="4.69943">
        <ele>159.2</ele>
        <time>2024-04-06T10:12:08Z</time>
      </trkpt>
      <trkpt lat="49.99081" lon="4.69939">
        <ele>159.4</ele>
        <time>2024-04-06T10:12:09Z</time>
      </trkpt>
      <trkpt lat="49.99079" lon="4.69935">
        <ele>159.6</ele>
        <time>2024-04-06T10:12:10Z</time>
      </trkpt>
      <trkpt lat="49.99078" lon="4.69931">
        <ele>159.8</ele>
        <time>2024-04-06T10:12:11Z</time>
      </trkpt>
      <trkpt lat="49.99076" lon="4.69927">
        <ele>159.6</ele>
        <time>2024-04-06T10:12:12Z</time>
      </trkpt>
      <trkpt lat="49.99075" lon="4.69923">
        <ele>160</ele>
        <time>2024-04-06T10:12:13Z</time>
      </trkpt>
      <trkpt lat="49.99073" lon="4.69919">
        <ele>160.2</ele>
        <time>2024-04-06T10:12:14Z</time>
      </trkpt>
      <trkpt lat="49.99072" lon="4.69915">
        <ele>160.4</ele>
        <time>2024-04-06T10:12:15Z</time>
      </trkpt>
      <trkpt lat="49.9907" lon="4.69911">
        <ele>160.6</ele>
        <time>2024-04-06T10:12:16Z</time>
      </trkpt>
      <trkpt lat="49.99068" lon="4.69907">
        <ele>160.8</ele>
        <time>2024-04-06T10:12:17Z</time>
      </trkpt>
      <trkpt lat="49.99066" lon="4.69903">
        <ele>161</ele>
        <time>2024-04-06T10:12:18Z</time>
      </trkpt>
      <trkpt lat="49.99064" lon="4.69899">
        <ele>161.2</ele>
        <time>2024-04-06T10:12:19Z</time>
      </trkpt>
      <trkpt lat="49.99063" lon="4.69895">
        <ele>161.4</ele>
        <time>2024-04-06T10:12:20Z</time>
      </trkpt>
      <trkpt lat="49.99062" lon="4.69891">
        <ele>161.4</ele>
        <time>2024-04-06T10:12:21Z</time>
      </trkpt>
      <trkpt lat="49.99061" lon="4.69886">
        <ele>161.8</ele>
        <time>2024-04-06T10:12:22Z</time>
      </trkpt>
      <trkpt lat="49.9906" lon="4.69881">
        <ele>162</ele>
        <time>2024-04-06T10:12:23Z</time>
      </trkpt>
      <trkpt lat="49.9906" lon="4.69877">
        <ele>162.2</ele>
        <time>2024-04-06T10:12:24Z</time>
      </trkpt>
      <trkpt lat="49.99059" lon="4.69872">
        <ele>162.2</ele>
        <time>2024-04-06T10:12:25Z</time>
      </trkpt>
      <trkpt lat="49.99058" lon="4.69867">
        <ele>162.4</ele>
        <time>2024-04-06T10:12:26Z</time>
      </trkpt>
      <trkpt lat="49.99058" lon="4.69863">
        <ele>162.6</ele>
        <time>2024-04-06T10:12:27Z</time>
      </trkpt>
      <trkpt lat="49.99058" lon="4.69857">
        <ele>162.6</ele>
        <time>2024-04-06T10:12:28Z</time>
      </trkpt>
      <trkpt lat="49.99057" lon="4.69852">
        <ele>162.8</ele>
        <time>2024-04-06T10:12:29Z</time>
      </trkpt>
      <trkpt lat="49.99057" lon="4.69846">
        <ele>163</ele>
        <time>2024-04-06T10:12:30Z</time>
      </trkpt>
      <trkpt lat="49.99058" lon="4.6984">
        <ele>163.2</ele>
        <time>2024-04-06T10:12:31Z</time>
      </trkpt>
      <trkpt lat="49.99058" lon="4.69834">
        <ele>163.2</ele>
        <time>2024-04-06T10:12:32Z</time>
      </trkpt>
      <trkpt lat="49.99057" lon="4.69828">
        <ele>163.6</ele>
        <time>2024-04-06T10:12:33Z</time>
      </trkpt>
      <trkpt lat="49.99058" lon="4.69822">
        <ele>163.6</ele>
        <time>2024-04-06T10:12:34Z</time>
      </trkpt>
      <trkpt lat="49.99058" lon="4.69816">
        <ele>163.6</ele>
        <time>2024-04-06T10:12:35Z</time>
      </trkpt>
      <trkpt lat="49.99058" lon="4.6981">
        <ele>163.8</ele>
        <time>2024-04-06T10:12:36Z</time>
      </trkpt>
      <trkpt lat="49.99059" lon="4.69804">
        <ele>164.2</ele>
        <time>2024-04-06T10:12:37Z</time>
      </trkpt>
      <trkpt lat="49.99059" lon="4.69797">
        <ele>164.4</ele>
        <time>2024-04-06T10:12:38Z</time>
      </trkpt>
      <trkpt lat="49.9906" lon="4.69791">
        <ele>164.6</ele>
        <time>2024-04-06T10:12:39Z</time>
      </trkpt>
      <trkpt lat="49.99061" lon="4.69785">
        <ele>164.8</ele>
        <time>2024-04-06T10:12:40Z</time>
      </trkpt>
      <trkpt lat="49.99062" lon="4.69778">
        <ele>164.8</ele>
        <time>2024-04-06T10:12:41Z</time>
      </trkpt>
      <trkpt lat="49.99063" lon="4.69772">
        <ele>165.2</ele>
        <time>2024-04-06T10:12:42Z</time>
      </trkpt>
      <trkpt lat="49.99065" lon="4.69766">
        <ele>165</ele>
        <time>2024-04-06T10:12:43Z</time>
      </trkpt>
      <trkpt lat="49.99066" lon="4.6976">
        <ele>165.4</ele>
        <time>2024-04-06T10:12:44Z</time>
      </trkpt>
      <trkpt lat="49.99068" lon="4.69753">
        <ele>165.8</ele>
        <time>2024-04-06T10:12:45Z</time>
      </trkpt>
      <trkpt lat="49.9907" lon="4.69747">
        <ele>166.2</ele>
        <time>2024-04-06T10:12:46Z</time>
      </trkpt>
      <trkpt lat="49.99071" lon="4.69741">
        <ele>166.4</ele>
        <time>2024-04-06T10:12:47Z</time>
      </trkpt>
      <trkpt lat="49.99073" lon="4.69735">
        <ele>166.4</ele>
        <time>2024-04-06T10:12:48Z</time>
      </trkpt>
      <trkpt lat="49.99074" lon="4.69729">
        <ele>166.6</ele>
        <time>2024-04-06T10:12:49Z</time>
      </trkpt>
      <trkpt lat="49.99076" lon="4.69723">
        <ele>166.6</ele>
        <time>2024-04-06T10:12:50Z</time>
      </trkpt>
      <trkpt lat="49.99077" lon="4.69718">
        <ele>166.4</ele>
        <time>2024-04-06T10:12:51Z</time>
      </trkpt>
      <trkpt lat="49.99079" lon="4.69712">
        <ele>166.4</ele>
        <time>2024-04-06T10:12:52Z</time>
      </trkpt>
      <trkpt lat="49.99081" lon="4.69707">
        <ele>166.4</ele>
        <time>2024-04-06T10:12:53Z</time>
      </trkpt>
      <trkpt lat="49.99083" lon="4.697">
        <ele>166.6</ele>
        <time>2024-04-06T10:12:54Z</time>
      </trkpt>
      <trkpt lat="49.99085" lon="4.69694">
        <ele>166.6</ele>
        <time>2024-04-06T10:12:55Z</time>
      </trkpt>
      <trkpt lat="49.99087" lon="4.69687">
        <ele>166.6</ele>
        <time>2024-04-06T10:12:56Z</time>
      </trkpt>
      <trkpt lat="49.99089" lon="4.6968">
        <ele>166.6</ele>
        <time>2024-04-06T10:12:57Z</time>
      </trkpt>
      <trkpt lat="49.99091" lon="4.69671">
        <ele>166.4</ele>
        <time>2024-04-06T10:12:58Z</time>
      </trkpt>
      <trkpt lat="49.99092" lon="4.69663">
        <ele>166</ele>
        <time>2024-04-06T10:12:59Z</time>
      </trkpt>
      <trkpt lat="49.99093" lon="4.69653">
        <ele>166</ele>
        <time>2024-04-06T10:13:00Z</time>
      </trkpt>
      <trkpt lat="49.99094" lon="4.69643">
        <ele>165.6</ele>
        <time>2024-04-06T10:13:01Z</time>
      </trkpt>
      <trkpt lat="49.99094" lon="4.69632">
        <ele>165.4</ele>
        <time>2024-04-06T10:13:02Z</time>
      </trkpt>
      <trkpt lat="49.99093" lon="4.69622">
        <ele>165.4</ele>
        <time>2024-04-06T10:13:03Z</time>
      </trkpt>
      <trkpt lat="49.99091" lon="4.69611">
        <ele>165.2</ele>
        <time>2024-04-06T10:13:04Z</time>
      </trkpt>
      <trkpt lat="49.99088" lon="4.69601">
        <ele>164.8</ele>
        <time>2024-04-06T10:13:05Z</time>
      </trkpt>
      <trkpt lat="49.99085" lon="4.6959">
        <ele>164.8</ele>
        <time>2024-04-06T10:13:06Z</time>
      </trkpt>
      <trkpt lat="49.99082" lon="4.69579">
        <ele>164.4</ele>
        <time>2024-04-06T10:13:07Z</time>
      </trkpt>
      <trkpt lat="49.99078" lon="4.69568">
        <ele>164.4</ele>
        <time>2024-04-06T10:13:08Z</time>
      </trkpt>
      <trkpt lat="49.99074" lon="4.69556">
        <ele>164</ele>
        <time>2024-04-06T10:13:09Z</time>
      </trkpt>
      <trkpt lat="49.99071" lon="4.69544">
        <ele>163.4</ele>
        <time>2024-04-06T10:13:10Z</time>
      </trkpt>
      <trkpt lat="49.99067" lon="4.69532">
        <ele>163.2</ele>
        <time>2024-04-06T10:13:11Z</time>
      </trkpt>
      <trkpt lat="49.99062" lon="4.6952">
        <ele>162.8</ele>
        <time>2024-04-06T10:13:12Z</time>
      </trkpt>
      <trkpt lat="49.99058" lon="4.69507">
        <ele>162.6</ele>
        <time>2024-04-06T10:13:13Z</time>
      </trkpt>
      <trkpt lat="49.99054" lon="4.69495">
        <ele>162.2</ele>
        <time>2024-04-06T10:13:14Z</time>
      </trkpt>
      <trkpt lat="49.9905" lon="4.69481">
        <ele>161.8</ele>
        <time>2024-04-06T10:13:15Z</time>
      </trkpt>
      <trkpt lat="49.99046" lon="4.69468">
        <ele>161.4</ele>
        <time>2024-04-06T10:13:16Z</time>
      </trkpt>
      <trkpt lat="49.99041" lon="4.69455">
        <ele>160.4</ele>
        <time>2024-04-06T10:13:17Z</time>
      </trkpt>
      <trkpt lat="49.99037" lon="4.69441">
        <ele>159</ele>
        <time>2024-04-06T10:13:18Z</time>
      </trkpt>
      <trkpt lat="49.99032" lon="4.69427">
        <ele>159</ele>
        <time>2024-04-06T10:13:19Z</time>
      </trkpt>
      <trkpt lat="49.99028" lon="4.69414">
        <ele>157.8</ele>
        <time>2024-04-06T10:13:20Z</time>
      </trkpt>
      <trkpt lat="49.99023" lon="4.694">
        <ele>157.6</ele>
        <time>2024-04-06T10:13:21Z</time>
      </trkpt>
      <trkpt lat="49.99019" lon="4.69385">
        <ele>157</ele>
        <time>2024-04-06T10:13:22Z</time>
      </trkpt>
      <trkpt lat="49.99014" lon="4.69371">
        <ele>156.6</ele>
        <time>2024-04-06T10:13:23Z</time>
      </trkpt>
      <trkpt lat="49.99009" lon="4.69356">
        <ele>156</ele>
        <time>2024-04-06T10:13:24Z</time>
      </trkpt>
      <trkpt lat="49.99004" lon="4.69342">
        <ele>155.2</ele>
        <time>2024-04-06T10:13:25Z</time>
      </trkpt>
      <trkpt lat="49.98999" lon="4.69326">
        <ele>154.4</ele>
        <time>2024-04-06T10:13:26Z</time>
      </trkpt>
      <trkpt lat="49.98994" lon="4.69311">
        <ele>153.8</ele>
        <time>2024-04-06T10:13:27Z</time>
      </trkpt>
      <trkpt lat="49.98989" lon="4.69296">
        <ele>153.4</ele>
        <time>2024-04-06T10:13:28Z</time>
      </trkpt>
      <trkpt lat="49.98984" lon="4.6928">
        <ele>152.8</ele>
        <time>2024-04-06T10:13:29Z</time>
      </trkpt>
      <trkpt lat="49.98979" lon="4.69264">
        <ele>151.8</ele>
        <time>2024-04-06T10:13:30Z</time>
      </trkpt>
      <trkpt lat="49.98974" lon="4.69249">
        <ele>150.8</ele>
        <time>2024-04-06T10:13:31Z</time>
      </trkpt>
      <trkpt lat="49.98968" lon="4.69232">
        <ele>150.6</ele>
        <time>2024-04-06T10:13:32Z</time>
      </trkpt>
      <trkpt lat="49.98962" lon="4.69217">
        <ele>150</ele>
        <time>2024-04-06T10:13:33Z</time>
      </trkpt>
      <trkpt lat="49.98955" lon="4.69203">
        <ele>149.6</ele>
        <time>2024-04-06T10:13:34Z</time>
      </trkpt>
      <trkpt lat="49.98947" lon="4.69191">
        <ele>149</ele>
        <time>2024-04-06T10:13:35Z</time>
      </trkpt>
      <trkpt lat="49.98937" lon="4.69182">
        <ele>148.6</ele>
        <time>2024-04-06T10:13:36Z</time>
      </trkpt>
      <trkpt lat="49.98926" lon="4.69176">
        <ele>148</ele>
        <time>2024-04-06T10:13:37Z</time>
      </trkpt>
      <trkpt lat="49.98914" lon="4.69175">
        <ele>147</ele>
        <time>2024-04-06T10:13:38Z</time>
      </trkpt>
      <trkpt lat="49.98902" lon="4.69177">
        <ele>146.4</ele>
        <time>2024-04-06T10:13:39Z</time>
      </trkpt>
      <trkpt lat="49.9889" lon="4.69182">
        <ele>145.8</ele>
        <time>2024-04-06T10:13:40Z</time>
      </trkpt>
      <trkpt lat="49.98878" lon="4.69188">
        <ele>144.8</ele>
        <time>2024-04-06T10:13:41Z</time>
      </trkpt>
      <trkpt lat="49.98867" lon="4.69194">
        <ele>144.2</ele>
        <time>2024-04-06T10:13:42Z</time>
      </trkpt>
      <trkpt lat="49.98856" lon="4.692">
        <ele>143.2</ele>
        <time>2024-04-06T10:13:43Z</time>
      </trkpt>
      <trkpt lat="49.98845" lon="4.69206">
        <ele>142.8</ele>
        <time>2024-04-06T10:13:44Z</time>
      </trkpt>
      <trkpt lat="49.98834" lon="4.69211">
        <ele>142.2</ele>
        <time>2024-04-06T10:13:45Z</time>
      </trkpt>
      <trkpt lat="49.98823" lon="4.69215">
        <ele>141.2</ele>
        <time>2024-04-06T10:13:46Z</time>
      </trkpt>
      <trkpt lat="49.98812" lon="4.69218">
        <ele>140.4</ele>
        <time>2024-04-06T10:13:47Z</time>
      </trkpt>
      <trkpt lat="49.98802" lon="4.6922">
        <ele>140.2</ele>
        <time>2024-04-06T10:13:48Z</time>
      </trkpt>
      <trkpt lat="49.98792" lon="4.69221">
        <ele>140</ele>
        <time>2024-04-06T10:13:49Z</time>
      </trkpt>
      <trkpt lat="49.98782" lon="4.69221">
        <ele>140</ele>
        <time>2024-04-06T10:13:50Z</time>
      </trkpt>
      <trkpt lat="49.98773" lon="4.6922">
        <ele>139.8</ele>
        <time>2024-04-06T10:13:51Z</time>
      </trkpt>
      <trkpt lat="49.98764" lon="4.69219">
        <ele>139.8</ele>
        <time>2024-04-06T10:13:52Z</time>
      </trkpt>
      <trkpt lat="49.98755" lon="4.69217">
        <ele>139.8</ele>
        <time>2024-04-06T10:13:53Z</time>
      </trkpt>
      <trkpt lat="49.98746" lon="4.69214">
        <ele>139.8</ele>
        <time>2024-04-06T10:13:54Z</time>
      </trkpt>
      <trkpt lat="49.98738" lon="4.69212">
        <ele>139.6</ele>
        <time>2024-04-06T10:13:55Z</time>
      </trkpt>
      <trkpt lat="49.98732" lon="4.6921">
        <ele>139.6</ele>
        <time>2024-04-06T10:13:56Z</time>
      </trkpt>
      <trkpt lat="49.98726" lon="4.69209">
        <ele>139.8</ele>
        <time>2024-04-06T10:13:57Z</time>
      </trkpt>
      <trkpt lat="49.9872" lon="4.69207">
        <ele>139.8</ele>
        <time>2024-04-06T10:13:58Z</time>
      </trkpt>
      <trkpt lat="49.98715" lon="4.69205">
        <ele>140</ele>
        <time>2024-04-06T10:13:59Z</time>
      </trkpt>
      <trkpt lat="49.98709" lon="4.69204">
        <ele>140</ele>
        <time>2024-04-06T10:14:00Z</time>
      </trkpt>
      <trkpt lat="49.98704" lon="4.69202">
        <ele>140.2</ele>
        <time>2024-04-06T10:14:01Z</time>
      </trkpt>
      <trkpt lat="49.98699" lon="4.692">
        <ele>140.4</ele>
        <time>2024-04-06T10:14:02Z</time>
      </trkpt>
      <trkpt lat="49.98694" lon="4.69199">
        <ele>140.8</ele>
        <time>2024-04-06T10:14:03Z</time>
      </trkpt>
      <trkpt lat="49.98688" lon="4.69197">
        <ele>140.8</ele>
        <time>2024-04-06T10:14:04Z</time>
      </trkpt>
      <trkpt lat="49.98682" lon="4.69196">
        <ele>141.2</ele>
        <time>2024-04-06T10:14:05Z</time>
      </trkpt>
      <trkpt lat="49.98677" lon="4.69194">
        <ele>141.6</ele>
        <time>2024-04-06T10:14:06Z</time>
      </trkpt>
      <trkpt lat="49.98671" lon="4.69193">
        <ele>142</ele>
        <time>2024-04-06T10:14:07Z</time>
      </trkpt>
      <trkpt lat="49.98665" lon="4.69192">
        <ele>142.2</ele>
        <time>2024-04-06T10:14:08Z</time>
      </trkpt>
      <trkpt lat="49.98659" lon="4.69191">
        <ele>142.2</ele>
        <time>2024-04-06T10:14:09Z</time>
      </trkpt>
      <trkpt lat="49.98654" lon="4.6919">
        <ele>142.2</ele>
        <time>2024-04-06T10:14:10Z</time>
      </trkpt>
      <trkpt lat="49.98648" lon="4.69189">
        <ele>142.4</ele>
        <time>2024-04-06T10:14:11Z</time>
      </trkpt>
      <trkpt lat="49.98642" lon="4.69187">
        <ele>142.6</ele>
        <time>2024-04-06T10:14:12Z</time>
      </trkpt>
      <trkpt lat="49.98636" lon="4.69186">
        <ele>142.8</ele>
        <time>2024-04-06T10:14:13Z</time>
      </trkpt>
      <trkpt lat="49.9863" lon="4.69184">
        <ele>142.8</ele>
        <time>2024-04-06T10:14:14Z</time>
      </trkpt>
      <trkpt lat="49.98624" lon="4.69182">
        <ele>143.2</ele>
        <time>2024-04-06T10:14:15Z</time>
      </trkpt>
      <trkpt lat="49.98617" lon="4.6918">
        <ele>143.2</ele>
        <time>2024-04-06T10:14:16Z</time>
      </trkpt>
      <trkpt lat="49.98611" lon="4.69178">
        <ele>143</ele>
        <time>2024-04-06T10:14:17Z</time>
      </trkpt>
      <trkpt lat="49.98605" lon="4.69176">
        <ele>143</ele>
        <time>2024-04-06T10:14:18Z</time>
      </trkpt>
      <trkpt lat="49.98598" lon="4.69175">
        <ele>142.8</ele>
        <time>2024-04-06T10:14:19Z</time>
      </trkpt>
      <trkpt lat="49.98592" lon="4.69173">
        <ele>142.8</ele>
        <time>2024-04-06T10:14:20Z</time>
      </trkpt>
      <trkpt lat="49.98585" lon="4.69171">
        <ele>142.6</ele>
        <time>2024-04-06T10:14:21Z</time>
      </trkpt>
      <trkpt lat="49.98579" lon="4.69169">
        <ele>142.6</ele>
        <time>2024-04-06T10:14:22Z</time>
      </trkpt>
      <trkpt lat="49.98573" lon="4.69167">
        <ele>142.6</ele>
        <time>2024-04-06T10:14:23Z</time>
      </trkpt>
      <trkpt lat="49.98567" lon="4.69165">
        <ele>142.4</ele>
        <time>2024-04-06T10:14:24Z</time>
      </trkpt>
      <trkpt lat="49.98561" lon="4.69163">
        <ele>142.4</ele>
        <time>2024-04-06T10:14:25Z</time>
      </trkpt>
      <trkpt lat="49.98556" lon="4.69161">
        <ele>142.4</ele>
        <time>2024-04-06T10:14:26Z</time>
      </trkpt>
      <trkpt lat="49.9855" lon="4.69161">
        <ele>142.4</ele>
        <time>2024-04-06T10:14:27Z</time>
      </trkpt>
      <trkpt lat="49.98547" lon="4.69164">
        <ele>142.2</ele>
        <time>2024-04-06T10:14:28Z</time>
      </trkpt>
      <trkpt lat="49.98545" lon="4.69169">
        <ele>142.2</ele>
        <time>2024-04-06T10:14:29Z</time>
      </trkpt>
      <trkpt lat="49.98547" lon="4.69174">
        <ele>142.2</ele>
        <time>2024-04-06T10:14:30Z</time>
      </trkpt>
      <trkpt lat="49.98551" lon="4.69178">
        <ele>142.2</ele>
        <time>2024-04-06T10:14:31Z</time>
      </trkpt>
      <trkpt lat="49.98556" lon="4.6918">
        <ele>142.2</ele>
        <time>2024-04-06T10:14:32Z</time>
      </trkpt>
      <trkpt lat="49.98561" lon="4.69182">
        <ele>142.2</ele>
        <time>2024-04-06T10:14:33Z</time>
      </trkpt>
      <trkpt lat="49.98567" lon="4.69184">
        <ele>142.2</ele>
        <time>2024-04-06T10:14:34Z</time>
      </trkpt>
      <trkpt lat="49.98573" lon="4.69187">
        <ele>142.2</ele>
        <time>2024-04-06T10:14:35Z</time>
      </trkpt>
      <trkpt lat="49.9858" lon="4.69189">
        <ele>142.2</ele>
        <time>2024-04-06T10:14:36Z</time>
      </trkpt>
      <trkpt lat="49.98587" lon="4.69193">
        <ele>142.2</ele>
        <time>2024-04-06T10:14:37Z</time>
      </trkpt>
      <trkpt lat="49.98594" lon="4.69196">
        <ele>142</ele>
        <time>2024-04-06T10:14:38Z</time>
      </trkpt>
      <trkpt lat="49.98602" lon="4.692">
        <ele>142.2</ele>
        <time>2024-04-06T10:14:39Z</time>
      </trkpt>
      <trkpt lat="49.98609" lon="4.69203">
        <ele>142.2</ele>
        <time>2024-04-06T10:14:40Z</time>
      </trkpt>
      <trkpt lat="49.98617" lon="4.69207">
        <ele>142.2</ele>
        <time>2024-04-06T10:14:41Z</time>
      </trkpt>
      <trkpt lat="49.98625" lon="4.6921">
        <ele>141.8</ele>
        <time>2024-04-06T10:14:42Z</time>
      </trkpt>
      <trkpt lat="49.98634" lon="4.69214">
        <ele>141.8</ele>
        <time>2024-04-06T10:14:43Z</time>
      </trkpt>
      <trkpt lat="49.98642" lon="4.69218">
        <ele>141.6</ele>
        <time>2024-04-06T10:14:44Z</time>
      </trkpt>
      <trkpt lat="49.9865" lon="4.69222">
        <ele>141.6</ele>
        <time>2024-04-06T10:14:45Z</time>
      </trkpt>
      <trkpt lat="49.98659" lon="4.69226">
        <ele>141.4</ele>
        <time>2024-04-06T10:14:46Z</time>
      </trkpt>
      <trkpt lat="49.98668" lon="4.6923">
        <ele>141</ele>
        <time>2024-04-06T10:14:47Z</time>
      </trkpt>
      <trkpt lat="49.98677" lon="4.69234">
        <ele>141</ele>
        <time>2024-04-06T10:14:48Z</time>
      </trkpt>
      <trkpt lat="49.98687" lon="4.69239">
        <ele>140.4</ele>
        <time>2024-04-06T10:14:49Z</time>
      </trkpt>
      <trkpt lat="49.98696" lon="4.69243">
        <ele>140</ele>
        <time>2024-04-06T10:14:50Z</time>
      </trkpt>
      <trkpt lat="49.98706" lon="4.69247">
        <ele>139.6</ele>
        <time>2024-04-06T10:14:51Z</time>
      </trkpt>
      <trkpt lat="49.98716" lon="4.6925">
        <ele>139.4</ele>
        <time>2024-04-06T10:14:52Z</time>
      </trkpt>
      <trkpt lat="49.98725" lon="4.69254">
        <ele>139.2</ele>
        <time>2024-04-06T10:14:53Z</time>
      </trkpt>
      <trkpt lat="49.98732" lon="4.69259">
        <ele>138.8</ele>
        <time>2024-04-06T10:14:54Z</time>
      </trkpt>
      <trkpt lat="49.98737" lon="4.69267">
        <ele>138.6</ele>
        <time>2024-04-06T10:14:55Z</time>
      </trkpt>
      <trkpt lat="49.98739" lon="4.69275">
        <ele>138.4</ele>
        <time>2024-04-06T10:14:56Z</time>
      </trkpt>
      <trkpt lat="49.9874" lon="4.69283">
        <ele>138.2</ele>
        <time>2024-04-06T10:14:57Z</time>
      </trkpt>
      <trkpt lat="49.9874" lon="4.6929">
        <ele>137.6</ele>
        <time>2024-04-06T10:14:58Z</time>
      </trkpt>
      <trkpt lat="49.98739" lon="4.69298">
        <ele>137</ele>
        <time>2024-04-06T10:14:59Z</time>
      </trkpt>
      <trkpt lat="49.98738" lon="4.69305">
        <ele>136.4</ele>
        <time>2024-04-06T10:15:00Z</time>
      </trkpt>
      <trkpt lat="49.98736" lon="4.69313">
        <ele>136</ele>
        <time>2024-04-06T10:15:01Z</time>
      </trkpt>
      <trkpt lat="49.98734" lon="4.69321">
        <ele>135.8</ele>
        <time>2024-04-06T10:15:02Z</time>
      </trkpt>
      <trkpt lat="49.98731" lon="4.69328">
        <ele>135.4</ele>
        <time>2024-04-06T10:15:03Z</time>
      </trkpt>
      <trkpt lat="49.98726" lon="4.69333">
        <ele>135.4</ele>
        <time>2024-04-06T10:15:04Z</time>
      </trkpt>
      <trkpt lat="49.98721" lon="4.69336">
        <ele>135.2</ele>
        <time>2024-04-06T10:15:05Z</time>
      </trkpt>
      <trkpt lat="49.98714" lon="4.69337">
        <ele>135</ele>
        <time>2024-04-06T10:15:06Z</time>
      </trkpt>
      <trkpt lat="49.98708" lon="4.69336">
        <ele>135</ele>
        <time>2024-04-06T10:15:07Z</time>
      </trkpt>
      <trkpt lat="49.98702" lon="4.69333">
        <ele>135</ele>
        <time>2024-04-06T10:15:08Z</time>
      </trkpt>
      <trkpt lat="49.98696" lon="4.69331">
        <ele>134.8</ele>
        <time>2024-04-06T10:15:09Z</time>
      </trkpt>
      <trkpt lat="49.9869" lon="4.69329">
        <ele>134.8</ele>
        <time>2024-04-06T10:15:10Z</time>
      </trkpt>
      <trkpt lat="49.98683" lon="4.69327">
        <ele>134.6</ele>
        <time>2024-04-06T10:15:11Z</time>
      </trkpt>
      <trkpt lat="49.98677" lon="4.69325">
        <ele>134.6</ele>
        <time>2024-04-06T10:15:12Z</time>
      </trkpt>
      <trkpt lat="49.98671" lon="4.69323">
        <ele>134.4</ele>
        <time>2024-04-06T10:15:13Z</time>
      </trkpt>
      <trkpt lat="49.98665" lon="4.69322">
        <ele>134.4</ele>
        <time>2024-04-06T10:15:14Z</time>
      </trkpt>
      <trkpt lat="49.9866" lon="4.69321">
        <ele>134.4</ele>
        <time>2024-04-06T10:15:15Z</time>
      </trkpt>
      <trkpt lat="49.98653" lon="4.6932">
        <ele>134.4</ele>
        <time>2024-04-06T10:15:16Z</time>
      </trkpt>
      <trkpt lat="49.98648" lon="4.69322">
        <ele>134.4</ele>
        <time>2024-04-06T10:15:17Z</time>
      </trkpt>
      <trkpt lat="49.98644" lon="4.69327">
        <ele>134.2</ele>
        <time>2024-04-06T10:15:18Z</time>
      </trkpt>
      <trkpt lat="49.98644" lon="4.69334">
        <ele>134</ele>
        <time>2024-04-06T10:15:19Z</time>
      </trkpt>
      <trkpt lat="49.98644" lon="4.69341">
        <ele>134</ele>
        <time>2024-04-06T10:15:20Z</time>
      </trkpt>
      <trkpt lat="49.98647" lon="4.69349">
        <ele>134</ele>
        <time>2024-04-06T10:15:21Z</time>
      </trkpt>
      <trkpt lat="49.98651" lon="4.69357">
        <ele>133.8</ele>
        <time>2024-04-06T10:15:22Z</time>
      </trkpt>
      <trkpt lat="49.98656" lon="4.69365">
        <ele>133.4</ele>
        <time>2024-04-06T10:15:23Z</time>
      </trkpt>
      <trkpt lat="49.9866" lon="4.69373">
        <ele>133.4</ele>
        <time>2024-04-06T10:15:24Z</time>
      </trkpt>
      <trkpt lat="49.98665" lon="4.69382">
        <ele>133.2</ele>
        <time>2024-04-06T10:15:25Z</time>
      </trkpt>
      <trkpt lat="49.9867" lon="4.69391">
        <ele>133.2</ele>
        <time>2024-04-06T10:15:26Z</time>
      </trkpt>
      <trkpt lat="49.98676" lon="4.694">
        <ele>133</ele>
        <time>2024-04-06T10:15:27Z</time>
      </trkpt>
      <trkpt lat="49.98682" lon="4.69408">
        <ele>133</ele>
        <time>2024-04-06T10:15:28Z</time>
      </trkpt>
      <trkpt lat="49.98689" lon="4.69417">
        <ele>132.6</ele>
        <time>2024-04-06T10:15:29Z</time>
      </trkpt>
      <trkpt lat="49.98694" lon="4.69424">
        <ele>132.6</ele>
        <time>2024-04-06T10:15:30Z</time>
      </trkpt>
      <trkpt lat="49.98699" lon="4.6943">
        <ele>132.4</ele>
        <time>2024-04-06T10:15:31Z</time>
      </trkpt>
      <trkpt lat="49.98703" lon="4.69435">
        <ele>132.4</ele>
        <time>2024-04-06T10:15:32Z</time>
      </trkpt>
      <trkpt lat="49.98706" lon="4.69439">
        <ele>132.2</ele>
        <time>2024-04-06T10:15:33Z</time>
      </trkpt>
      <trkpt lat="49.98709" lon="4.69442">
        <ele>132</ele>
        <time>2024-04-06T10:15:34Z</time>
      </trkpt>
      <trkpt lat="49.98711" lon="4.69443">
        <ele>132</ele>
        <time>2024-04-06T10:15:35Z</time>
      </trkpt>
      <trkpt lat="49.98713" lon="4.69445">
        <ele>131.8</ele>
        <time>2024-04-06T10:15:36Z</time>
      </trkpt>
      <trkpt lat="49.98716" lon="4.69447">
        <ele>131.6</ele>
        <time>2024-04-06T10:15:37Z</time>
      </trkpt>
      <trkpt lat="49.98717" lon="4.69449">
        <ele>131.2</ele>
        <time>2024-04-06T10:15:38Z</time>
      </trkpt>
      <trkpt lat="49.98719" lon="4.69451">
        <ele>131</ele>
        <time>2024-04-06T10:15:39Z</time>
      </trkpt>
      <trkpt lat="49.98721" lon="4.69453">
        <ele>130.8</ele>
        <time>2024-04-06T10:15:40Z</time>
      </trkpt>
      <trkpt lat="49.98725" lon="4.69455">
        <ele>130.6</ele>
        <time>2024-04-06T10:15:41Z</time>
      </trkpt>
      <trkpt lat="49.98728" lon="4.69457">
        <ele>130.6</ele>
        <time>2024-04-06T10:15:42Z</time>
      </trkpt>
      <trkpt lat="49.98733" lon="4.69459">
        <ele>130.6</ele>
        <time>2024-04-06T10:15:43Z</time>
      </trkpt>
      <trkpt lat="49.98737" lon="4.69462">
        <ele>130.6</ele>
        <time>2024-04-06T10:15:44Z</time>
      </trkpt>
      <trkpt lat="49.98743" lon="4.69465">
        <ele>130.4</ele>
        <time>2024-04-06T10:15:45Z</time>
      </trkpt>
      <trkpt lat="49.98748" lon="4.69468">
        <ele>130.4</ele>
        <time>2024-04-06T10:15:46Z</time>
      </trkpt>
      <trkpt lat="49.98755" lon="4.69472">
        <ele>130.4</ele>
        <time>2024-04-06T10:15:47Z</time>
      </trkpt>
      <trkpt lat="49.98761" lon="4.69476">
        <ele>130.2</ele>
        <time>2024-04-06T10:15:48Z</time>
      </trkpt>
      <trkpt lat="49.98767" lon="4.69481">
        <ele>130.2</ele>
        <time>2024-04-06T10:15:49Z</time>
      </trkpt>
      <trkpt lat="49.98774" lon="4.69485">
        <ele>130</ele>
        <time>2024-04-06T10:15:50Z</time>
      </trkpt>
      <trkpt lat="49.9878" lon="4.6949">
        <ele>129.8</ele>
        <time>2024-04-06T10:15:51Z</time>
      </trkpt>
      <trkpt lat="49.98787" lon="4.69495">
        <ele>129.4</ele>
        <time>2024-04-06T10:15:52Z</time>
      </trkpt>
      <trkpt lat="49.98794" lon="4.69499">
        <ele>129.4</ele>
        <time>2024-04-06T10:15:53Z</time>
      </trkpt>
      <trkpt lat="49.98801" lon="4.69503">
        <ele>129</ele>
        <time>2024-04-06T10:15:54Z</time>
      </trkpt>
      <trkpt lat="49.98807" lon="4.69508">
        <ele>128.8</ele>
        <time>2024-04-06T10:15:55Z</time>
      </trkpt>
      <trkpt lat="49.98814" lon="4.69512">
        <ele>128.6</ele>
        <time>2024-04-06T10:15:56Z</time>
      </trkpt>
      <trkpt lat="49.98821" lon="4.69517">
        <ele>128</ele>
        <time>2024-04-06T10:15:57Z</time>
      </trkpt>
      <trkpt lat="49.98828" lon="4.69522">
        <ele>128</ele>
        <time>2024-04-06T10:15:58Z</time>
      </trkpt>
      <trkpt lat="49.98834" lon="4.69527">
        <ele>128</ele>
        <time>2024-04-06T10:15:59Z</time>
      </trkpt>
      <trkpt lat="49.98841" lon="4.69531">
        <ele>127.6</ele>
        <time>2024-04-06T10:16:00Z</time>
      </trkpt>
      <trkpt lat="49.98848" lon="4.69535">
        <ele>127.8</ele>
        <time>2024-04-06T10:16:01Z</time>
      </trkpt>
      <trkpt lat="49.98855" lon="4.6954">
        <ele>127.6</ele>
        <time>2024-04-06T10:16:02Z</time>
      </trkpt>
      <trkpt lat="49.98861" lon="4.69545">
        <ele>127.4</ele>
        <time>2024-04-06T10:16:03Z</time>
      </trkpt>
      <trkpt lat="49.98868" lon="4.69548">
        <ele>127.4</ele>
        <time>2024-04-06T10:16:04Z</time>
      </trkpt>
      <trkpt lat="49.98875" lon="4.69552">
        <ele>127.4</ele>
        <time>2024-04-06T10:16:05Z</time>
      </trkpt>
      <trkpt lat="49.98882" lon="4.69557">
        <ele>127.2</ele>
        <time>2024-04-06T10:16:06Z</time>
      </trkpt>
      <trkpt lat="49.98888" lon="4.69562">
        <ele>127.2</ele>
        <time>2024-04-06T10:16:07Z</time>
      </trkpt>
      <trkpt lat="49.98895" lon="4.69567">
        <ele>127.2</ele>
        <time>2024-04-06T10:16:08Z</time>
      </trkpt>
      <trkpt lat="49.98901" lon="4.69573">
        <ele>127.2</ele>
        <time>2024-04-06T10:16:09Z</time>
      </trkpt>
      <trkpt lat="49.98908" lon="4.69579">
        <ele>127</ele>
        <time>2024-04-06T10:16:10Z</time>
      </trkpt>
      <trkpt lat="49.98914" lon="4.69585">
        <ele>127.2</ele>
        <time>2024-04-06T10:16:11Z</time>
      </trkpt>
      <trkpt lat="49.98919" lon="4.69592">
        <ele>127</ele>
        <time>2024-04-06T10:16:12Z</time>
      </trkpt>
      <trkpt lat="49.98925" lon="4.69598">
        <ele>127</ele>
        <time>2024-04-06T10:16:13Z</time>
      </trkpt>
      <trkpt lat="49.9893" lon="4.69606">
        <ele>127</ele>
        <time>2024-04-06T10:16:14Z</time>
      </trkpt>
      <trkpt lat="49.98935" lon="4.69613">
        <ele>127</ele>
        <time>2024-04-06T10:16:15Z</time>
      </trkpt>
      <trkpt lat="49.9894" lon="4.6962">
        <ele>126.8</ele>
        <time>2024-04-06T10:16:16Z</time>
      </trkpt>
      <trkpt lat="49.98944" lon="4.69628">
        <ele>127</ele>
        <time>2024-04-06T10:16:17Z</time>
      </trkpt>
      <trkpt lat="49.98948" lon="4.69636">
        <ele>126.6</ele>
        <time>2024-04-06T10:16:18Z</time>
      </trkpt>
      <trkpt lat="49.98951" lon="4.69644">
        <ele>126.8</ele>
        <time>2024-04-06T10:16:19Z</time>
      </trkpt>
      <trkpt lat="49.98955" lon="4.69653">
        <ele>126.8</ele>
        <time>2024-04-06T10:16:20Z</time>
      </trkpt>
      <trkpt lat="49.98958" lon="4.69661">
        <ele>126.8</ele>
        <time>2024-04-06T10:16:21Z</time>
      </trkpt>
      <trkpt lat="49.98961" lon="4.6967">
        <ele>126.8</ele>
        <time>2024-04-06T10:16:22Z</time>
      </trkpt>
      <trkpt lat="49.98964" lon="4.69679">
        <ele>126.8</ele>
        <time>2024-04-06T10:16:23Z</time>
      </trkpt>
      <trkpt lat="49.98967" lon="4.69688">
        <ele>126.6</ele>
        <time>2024-04-06T10:16:24Z</time>
      </trkpt>
      <trkpt lat="49.98969" lon="4.69697">
        <ele>126.6</ele>
        <time>2024-04-06T10:16:25Z</time>
      </trkpt>
      <trkpt lat="49.98971" lon="4.69706">
        <ele>126.6</ele>
        <time>2024-04-06T10:16:26Z</time>
      </trkpt>
      <trkpt lat="49.98973" lon="4.69716">
        <ele>126.4</ele>
        <time>2024-04-06T10:16:27Z</time>
      </trkpt>
      <trkpt lat="49.98975" lon="4.69726">
        <ele>126.4</ele>
        <time>2024-04-06T10:16:28Z</time>
      </trkpt>
      <trkpt lat="49.98977" lon="4.69736">
        <ele>126.4</ele>
        <time>2024-04-06T10:16:29Z</time>
      </trkpt>
      <trkpt lat="49.9898" lon="4.69746">
        <ele>126.4</ele>
        <time>2024-04-06T10:16:30Z</time>
      </trkpt>
      <trkpt lat="49.98982" lon="4.69756">
        <ele>126.4</ele>
        <time>2024-04-06T10:16:31Z</time>
      </trkpt>
      <trkpt lat="49.98984" lon="4.69767">
        <ele>126.4</ele>
        <time>2024-04-06T10:16:32Z</time>
      </trkpt>
      <trkpt lat="49.98985" lon="4.69777">
        <ele>126.4</ele>
        <time>2024-04-06T10:16:33Z</time>
      </trkpt>
      <trkpt lat="49.98986" lon="4.69786">
        <ele>126.4</ele>
        <time>2024-04-06T10:16:34Z</time>
      </trkpt>
      <trkpt lat="49.98987" lon="4.69796">
        <ele>126.4</ele>
        <time>2024-04-06T10:16:35Z</time>
      </trkpt>
      <trkpt lat="49.98988" lon="4.69805">
        <ele>126.4</ele>
        <time>2024-04-06T10:16:36Z</time>
      </trkpt>
      <trkpt lat="49.98989" lon="4.69813">
        <ele>126.4</ele>
        <time>2024-04-06T10:16:37Z</time>
      </trkpt>
      <trkpt lat="49.9899" lon="4.69822">
        <ele>126.6</ele>
        <time>2024-04-06T10:16:38Z</time>
      </trkpt>
      <trkpt lat="49.9899" lon="4.6983">
        <ele>126.6</ele>
        <time>2024-04-06T10:16:39Z</time>
      </trkpt>
      <trkpt lat="49.98991" lon="4.69838">
        <ele>126.6</ele>
        <time>2024-04-06T10:16:40Z</time>
      </trkpt>
      <trkpt lat="49.98991" lon="4.69845">
        <ele>126.8</ele>
        <time>2024-04-06T10:16:41Z</time>
      </trkpt>
      <trkpt lat="49.98992" lon="4.69853">
        <ele>127</ele>
        <time>2024-04-06T10:16:42Z</time>
      </trkpt>
      <trkpt lat="49.98992" lon="4.6986">
        <ele>127.2</ele>
        <time>2024-04-06T10:16:43Z</time>
      </trkpt>
      <trkpt lat="49.98993" lon="4.69867">
        <ele>127.2</ele>
        <time>2024-04-06T10:16:44Z</time>
      </trkpt>
      <trkpt lat="49.98993" lon="4.69874">
        <ele>127.2</ele>
        <time>2024-04-06T10:16:45Z</time>
      </trkpt>
      <trkpt lat="49.98993" lon="4.69881">
        <ele>127.6</ele>
        <time>2024-04-06T10:16:46Z</time>
      </trkpt>
      <trkpt lat="49.98993" lon="4.69889">
        <ele>128.2</ele>
        <time>2024-04-06T10:16:47Z</time>
      </trkpt>
      <trkpt lat="49.98994" lon="4.69896">
        <ele>128.8</ele>
        <time>2024-04-06T10:16:48Z</time>
      </trkpt>
      <trkpt lat="49.98994" lon="4.69903">
        <ele>129</ele>
        <time>2024-04-06T10:16:49Z</time>
      </trkpt>
      <trkpt lat="49.98994" lon="4.6991">
        <ele>129.2</ele>
        <time>2024-04-06T10:16:50Z</time>
      </trkpt>
      <trkpt lat="49.98994" lon="4.69917">
        <ele>129.4</ele>
        <time>2024-04-06T10:16:51Z</time>
      </trkpt>
      <trkpt lat="49.98993" lon="4.69923">
        <ele>129.8</ele>
        <time>2024-04-06T10:16:52Z</time>
      </trkpt>
      <trkpt lat="49.98993" lon="4.69929">
        <ele>130.2</ele>
        <time>2024-04-06T10:16:53Z</time>
      </trkpt>
      <trkpt lat="49.98993" lon="4.69936">
        <ele>130.4</ele>
        <time>2024-04-06T10:16:54Z</time>
      </trkpt>
      <trkpt lat="49.98993" lon="4.69943">
        <ele>130.4</ele>
        <time>2024-04-06T10:16:55Z</time>
      </trkpt>
      <trkpt lat="49.98993" lon="4.69949">
        <ele>130.8</ele>
        <time>2024-04-06T10:16:56Z</time>
      </trkpt>
      <trkpt lat="49.98994" lon="4.69956">
        <ele>131</ele>
        <time>2024-04-06T10:16:57Z</time>
      </trkpt>
      <trkpt lat="49.98994" lon="4.69962">
        <ele>131.2</ele>
        <time>2024-04-06T10:16:58Z</time>
      </trkpt>
      <trkpt lat="49.98995" lon="4.69969">
        <ele>131.8</ele>
        <time>2024-04-06T10:16:59Z</time>
      </trkpt>
      <trkpt lat="49.98997" lon="4.69975">
        <ele>132.2</ele>
        <time>2024-04-06T10:17:00Z</time>
      </trkpt>
      <trkpt lat="49.98998" lon="4.69981">
        <ele>132.8</ele>
        <time>2024-04-06T10:17:01Z</time>
      </trkpt>
      <trkpt lat="49.98999" lon="4.69987">
        <ele>133.2</ele>
        <time>2024-04-06T10:17:02Z</time>
      </trkpt>
      <trkpt lat="49.99" lon="4.69993">
        <ele>133.4</ele>
        <time>2024-04-06T10:17:03Z</time>
      </trkpt>
      <trkpt lat="49.99001" lon="4.69999">
        <ele>133.6</ele>
        <time>2024-04-06T10:17:04Z</time>
      </trkpt>
      <trkpt lat="49.99003" lon="4.70004">
        <ele>133.6</ele>
        <time>2024-04-06T10:17:05Z</time>
      </trkpt>
      <trkpt lat="49.99005" lon="4.70009">
        <ele>134.2</ele>
        <time>2024-04-06T10:17:06Z</time>
      </trkpt>
      <trkpt lat="49.99007" lon="4.70015">
        <ele>134.4</ele>
        <time>2024-04-06T10:17:07Z</time>
      </trkpt>
      <trkpt lat="49.99009" lon="4.7002">
        <ele>134.6</ele>
        <time>2024-04-06T10:17:08Z</time>
      </trkpt>
      <trkpt lat="49.99011" lon="4.70025">
        <ele>134.8</ele>
        <time>2024-04-06T10:17:09Z</time>
      </trkpt>
      <trkpt lat="49.99013" lon="4.7003">
        <ele>135</ele>
        <time>2024-04-06T10:17:10Z</time>
      </trkpt>
      <trkpt lat="49.99015" lon="4.70035">
        <ele>135.2</ele>
        <time>2024-04-06T10:17:11Z</time>
      </trkpt>
      <trkpt lat="49.99018" lon="4.7004">
        <ele>135.8</ele>
        <time>2024-04-06T10:17:12Z</time>
      </trkpt>
      <trkpt lat="49.9902" lon="4.70044">
        <ele>136</ele>
        <time>2024-04-06T10:17:13Z</time>
      </trkpt>
      <trkpt lat="49.99022" lon="4.70049">
        <ele>136.2</ele>
        <time>2024-04-06T10:17:14Z</time>
      </trkpt>
      <trkpt lat="49.99024" lon="4.70053">
        <ele>136.2</ele>
        <time>2024-04-06T10:17:15Z</time>
      </trkpt>
      <trkpt lat="49.99026" lon="4.70057">
        <ele>136.4</ele>
        <time>2024-04-06T10:17:16Z</time>
      </trkpt>
      <trkpt lat="49.99029" lon="4.70062">
        <ele>136.4</ele>
        <time>2024-04-06T10:17:17Z</time>
      </trkpt>
      <trkpt lat="49.99031" lon="4.70066">
        <ele>136.6</ele>
        <time>2024-04-06T10:17:18Z</time>
      </trkpt>
      <trkpt lat="49.99033" lon="4.70071">
        <ele>136.6</ele>
        <time>2024-04-06T10:17:19Z</time>
      </trkpt>
      <trkpt lat="49.99036" lon="4.70075">
        <ele>136.6</ele>
        <time>2024-04-06T10:17:20Z</time>
      </trkpt>
      <trkpt lat="49.99038" lon="4.70079">
        <ele>136.6</ele>
        <time>2024-04-06T10:17:21Z</time>
      </trkpt>
      <trkpt lat="49.9904" lon="4.70084">
        <ele>136.8</ele>
        <time>2024-04-06T10:17:22Z</time>
      </trkpt>
      <trkpt lat="49.99042" lon="4.70088">
        <ele>136.8</ele>
        <time>2024-04-06T10:17:23Z</time>
      </trkpt>
      <trkpt lat="49.99044" lon="4.70093">
        <ele>136.8</ele>
        <time>2024-04-06T10:17:24Z</time>
      </trkpt>
      <trkpt lat="49.99046" lon="4.70097">
        <ele>137</ele>
        <time>2024-04-06T10:17:25Z</time>
      </trkpt>
      <trkpt lat="49.99048" lon="4.70101">
        <ele>137.2</ele>
        <time>2024-04-06T10:17:26Z</time>
      </trkpt>
      <trkpt lat="49.99051" lon="4.70106">
        <ele>137.4</ele>
        <time>2024-04-06T10:17:27Z</time>
      </trkpt>
      <trkpt lat="49.99053" lon="4.7011">
        <ele>137.4</ele>
        <time>2024-04-06T10:17:28Z</time>
      </trkpt>
      <trkpt lat="49.99055" lon="4.70114">
        <ele>137.8</ele>
        <time>2024-04-06T10:17:29Z</time>
      </trkpt>
      <trkpt lat="49.99057" lon="4.70119">
        <ele>137.6</ele>
        <time>2024-04-06T10:17:30Z</time>
      </trkpt>
      <trkpt lat="49.99059" lon="4.70123">
        <ele>138</ele>
        <time>2024-04-06T10:17:31Z</time>
      </trkpt>
      <trkpt lat="49.99061" lon="4.70128">
        <ele>138</ele>
        <time>2024-04-06T10:17:32Z</time>
      </trkpt>
      <trkpt lat="49.99062" lon="4.70133">
        <ele>138.2</ele>
        <time>2024-04-06T10:17:33Z</time>
      </trkpt>
      <trkpt lat="49.99063" lon="4.70138">
        <ele>138</ele>
        <time>2024-04-06T10:17:34Z</time>
      </trkpt>
      <trkpt lat="49.99064" lon="4.70143">
        <ele>138.2</ele>
        <time>2024-04-06T10:17:35Z</time>
      </trkpt>
      <trkpt lat="49.99065" lon="4.70149">
        <ele>138.4</ele>
        <time>2024-04-06T10:17:36Z</time>
      </trkpt>
      <trkpt lat="49.99066" lon="4.70154">
        <ele>138.4</ele>
        <time>2024-04-06T10:17:37Z</time>
      </trkpt>
      <trkpt lat="49.99068" lon="4.70159">
        <ele>138.4</ele>
        <time>2024-04-06T10:17:38Z</time>
      </trkpt>
      <trkpt lat="49.99071" lon="4.70163">
        <ele>138.4</ele>
        <time>2024-04-06T10:17:39Z</time>
      </trkpt>
      <trkpt lat="49.99074" lon="4.70165">
        <ele>138.4</ele>
        <time>2024-04-06T10:17:40Z</time>
      </trkpt>
      <trkpt lat="49.99077" lon="4.70168">
        <ele>138.6</ele>
        <time>2024-04-06T10:17:41Z</time>
      </trkpt>
      <trkpt lat="49.9908" lon="4.70169">
        <ele>138.6</ele>
        <time>2024-04-06T10:17:42Z</time>
      </trkpt>
      <trkpt lat="49.99082" lon="4.70172">
        <ele>138.6</ele>
        <time>2024-04-06T10:17:43Z</time>
      </trkpt>
      <trkpt lat="49.99085" lon="4.70174">
        <ele>138.6</ele>
        <time>2024-04-06T10:17:44Z</time>
      </trkpt>
      <trkpt lat="49.99087" lon="4.70177">
        <ele>138.6</ele>
        <time>2024-04-06T10:17:45Z</time>
      </trkpt>
      <trkpt lat="49.9909" lon="4.7018">
        <ele>138.8</ele>
        <time>2024-04-06T10:17:46Z</time>
      </trkpt>
      <trkpt lat="49.99092" lon="4.70184">
        <ele>139</ele>
        <time>2024-04-06T10:17:47Z</time>
      </trkpt>
      <trkpt lat="49.99095" lon="4.70187">
        <ele>139.4</ele>
        <time>2024-04-06T10:17:48Z</time>
      </trkpt>
      <trkpt lat="49.99097" lon="4.70191">
        <ele>140</ele>
        <time>2024-04-06T10:17:49Z</time>
      </trkpt>
      <trkpt lat="49.991" lon="4.70194">
        <ele>140.4</ele>
        <time>2024-04-06T10:17:50Z</time>
      </trkpt>
      <trkpt lat="49.99103" lon="4.70198">
        <ele>140.8</ele>
        <time>2024-04-06T10:17:51Z</time>
      </trkpt>
      <trkpt lat="49.99105" lon="4.70201">
        <ele>141</ele>
        <time>2024-04-06T10:17:52Z</time>
      </trkpt>
      <trkpt lat="49.99108" lon="4.70204">
        <ele>141.2</ele>
        <time>2024-04-06T10:17:53Z</time>
      </trkpt>
      <trkpt lat="49.99111" lon="4.70207">
        <ele>141.2</ele>
        <time>2024-04-06T10:17:54Z</time>
      </trkpt>
      <trkpt lat="49.99114" lon="4.70209">
        <ele>141.8</ele>
        <time>2024-04-06T10:17:55Z</time>
      </trkpt>
      <trkpt lat="49.99117" lon="4.70212">
        <ele>142.2</ele>
        <time>2024-04-06T10:17:56Z</time>
      </trkpt>
      <trkpt lat="49.99119" lon="4.70214">
        <ele>142.4</ele>
        <time>2024-04-06T10:17:57Z</time>
      </trkpt>
      <trkpt lat="49.99122" lon="4.70216">
        <ele>142.8</ele>
        <time>2024-04-06T10:17:58Z</time>
      </trkpt>
      <trkpt lat="49.99125" lon="4.70218">
        <ele>143</ele>
        <time>2024-04-06T10:17:59Z</time>
      </trkpt>
      <trkpt lat="49.99128" lon="4.7022">
        <ele>143</ele>
        <time>2024-04-06T10:18:00Z</time>
      </trkpt>
      <trkpt lat="49.99131" lon="4.70222">
        <ele>143.4</ele>
        <time>2024-04-06T10:18:01Z</time>
      </trkpt>
      <trkpt lat="49.99133" lon="4.70224">
        <ele>143.4</ele>
        <time>2024-04-06T10:18:02Z</time>
      </trkpt>
      <trkpt lat="49.99135" lon="4.70225">
        <ele>143.6</ele>
        <time>2024-04-06T10:18:03Z</time>
      </trkpt>
      <trkpt lat="49.99138" lon="4.70227">
        <ele>143.6</ele>
        <time>2024-04-06T10:18:04Z</time>
      </trkpt>
      <trkpt lat="49.9914" lon="4.70229">
        <ele>143.8</ele>
        <time>2024-04-06T10:18:05Z</time>
      </trkpt>
      <trkpt lat="49.99143" lon="4.70231">
        <ele>144</ele>
        <time>2024-04-06T10:18:06Z</time>
      </trkpt>
      <trkpt lat="49.99146" lon="4.70233">
        <ele>144.2</ele>
        <time>2024-04-06T10:18:07Z</time>
      </trkpt>
      <trkpt lat="49.99149" lon="4.70234">
        <ele>144.6</ele>
        <time>2024-04-06T10:18:08Z</time>
      </trkpt>
      <trkpt lat="49.99153" lon="4.70236">
        <ele>144.6</ele>
        <time>2024-04-06T10:18:09Z</time>
      </trkpt>
      <trkpt lat="49.99156" lon="4.70238">
        <ele>144.8</ele>
        <time>2024-04-06T10:18:10Z</time>
      </trkpt>
      <trkpt lat="49.99159" lon="4.70239">
        <ele>145</ele>
        <time>2024-04-06T10:18:11Z</time>
      </trkpt>
      <trkpt lat="49.99163" lon="4.70241">
        <ele>145.2</ele>
        <time>2024-04-06T10:18:12Z</time>
      </trkpt>
      <trkpt lat="49.99167" lon="4.70243">
        <ele>145.4</ele>
        <time>2024-04-06T10:18:13Z</time>
      </trkpt>
      <trkpt lat="49.9917" lon="4.70246">
        <ele>145.8</ele>
        <time>2024-04-06T10:18:14Z</time>
      </trkpt>
      <trkpt lat="49.99174" lon="4.70248">
        <ele>145.8</ele>
        <time>2024-04-06T10:18:15Z</time>
      </trkpt>
      <trkpt lat="49.99177" lon="4.7025">
        <ele>146</ele>
        <time>2024-04-06T10:18:16Z</time>
      </trkpt>
      <trkpt lat="49.99181" lon="4.70253">
        <ele>146</ele>
        <time>2024-04-06T10:18:17Z</time>
      </trkpt>
      <trkpt lat="49.99185" lon="4.70255">
        <ele>146</ele>
        <time>2024-04-06T10:18:18Z</time>
      </trkpt>
      <trkpt lat="49.99189" lon="4.70257">
        <ele>146.2</ele>
        <time>2024-04-06T10:18:19Z</time>
      </trkpt>
      <trkpt lat="49.99193" lon="4.70259">
        <ele>146.2</ele>
        <time>2024-04-06T10:18:20Z</time>
      </trkpt>
      <trkpt lat="49.99198" lon="4.70261">
        <ele>146.2</ele>
        <time>2024-04-06T10:18:21Z</time>
      </trkpt>
      <trkpt lat="49.99202" lon="4.70263">
        <ele>146.4</ele>
        <time>2024-04-06T10:18:22Z</time>
      </trkpt>
      <trkpt lat="49.99206" lon="4.70264">
        <ele>146.4</ele>
        <time>2024-04-06T10:18:23Z</time>
      </trkpt>
      <trkpt lat="49.9921" lon="4.70265">
        <ele>146.6</ele>
        <time>2024-04-06T10:18:24Z</time>
      </trkpt>
      <trkpt lat="49.99214" lon="4.70265">
        <ele>146.6</ele>
        <time>2024-04-06T10:18:25Z</time>
      </trkpt>
      <trkpt lat="49.99218" lon="4.70265">
        <ele>146.6</ele>
        <time>2024-04-06T10:18:26Z</time>
      </trkpt>
      <trkpt lat="49.9922" lon="4.70263">
        <ele>146.4</ele>
        <time>2024-04-06T10:18:27Z</time>
      </trkpt>
      <trkpt lat="49.99222" lon="4.7026">
        <ele>146.4</ele>
        <time>2024-04-06T10:18:28Z</time>
      </trkpt>
      <trkpt lat="49.99224" lon="4.70255">
        <ele>146.4</ele>
        <time>2024-04-06T10:18:29Z</time>
      </trkpt>
      <trkpt lat="49.99225" lon="4.7025">
        <ele>146.6</ele>
        <time>2024-04-06T10:18:30Z</time>
      </trkpt>
      <trkpt lat="49.99225" lon="4.70244">
        <ele>146.4</ele>
        <time>2024-04-06T10:18:31Z</time>
      </trkpt>
      <trkpt lat="49.99224" lon="4.70239">
        <ele>146.4</ele>
        <time>2024-04-06T10:18:32Z</time>
      </trkpt>
      <trkpt lat="49.99223" lon="4.70234">
        <ele>146.4</ele>
        <time>2024-04-06T10:18:33Z</time>
      </trkpt>
      <trkpt lat="49.99222" lon="4.70229">
        <ele>146.4</ele>
        <time>2024-04-06T10:18:34Z</time>
      </trkpt>
      <trkpt lat="49.99221" lon="4.70223">
        <ele>146.4</ele>
        <time>2024-04-06T10:18:35Z</time>
      </trkpt>
      <trkpt lat="49.9922" lon="4.70218">
        <ele>146.4</ele>
        <time>2024-04-06T10:18:36Z</time>
      </trkpt>
      <trkpt lat="49.99219" lon="4.70212">
        <ele>146.4</ele>
        <time>2024-04-06T10:18:37Z</time>
      </trkpt>
      <trkpt lat="49.99219" lon="4.70206">
        <ele>146.4</ele>
        <time>2024-04-06T10:18:38Z</time>
      </trkpt>
      <trkpt lat="49.99218" lon="4.70201">
        <ele>146.4</ele>
        <time>2024-04-06T10:18:39Z</time>
      </trkpt>
      <trkpt lat="49.99217" lon="4.70197">
        <ele>146.4</ele>
        <time>2024-04-06T10:18:40Z</time>
      </trkpt>
      <trkpt lat="49.99217" lon="4.70194">
        <ele>146.4</ele>
        <time>2024-04-06T10:18:41Z</time>
      </trkpt>
      <trkpt lat="49.99216" lon="4.70192">
        <ele>146.4</ele>
        <time>2024-04-06T10:18:42Z</time>
      </trkpt>
      <trkpt lat="49.99216" lon="4.70192">
        <ele>146.6</ele>
        <time>2024-04-06T10:18:43Z</time>
      </trkpt>
      <trkpt lat="49.99216" lon="4.70192">
        <ele>146.8</ele>
        <time>2024-04-06T10:18:44Z</time>
      </trkpt>
      <trkpt lat="49.99212" lon="4.70188">
        <ele>149.4</ele>
        <time>2024-04-06T10:18:58Z</time>
      </trkpt>
      <trkpt lat="49.99211" lon="4.70187">
        <ele>149.4</ele>
        <time>2024-04-06T10:18:59Z</time>
      </trkpt>
      <trkpt lat="49.99209" lon="4.70186">
        <ele>149.4</ele>
        <time>2024-04-06T10:19:00Z</time>
      </trkpt>
      <trkpt lat="49.99207" lon="4.70185">
        <ele>149.4</ele>
        <time>2024-04-06T10:19:01Z</time>
      </trkpt>
      <trkpt lat="49.99205" lon="4.70185">
        <ele>149.4</ele>
        <time>2024-04-06T10:19:02Z</time>
      </trkpt>
      <trkpt lat="49.99202" lon="4.70184">
        <ele>149.4</ele>
        <time>2024-04-06T10:19:03Z</time>
      </trkpt>
      <trkpt lat="49.99199" lon="4.70184">
        <ele>149.4</ele>
        <time>2024-04-06T10:19:04Z</time>
      </trkpt>
      <trkpt lat="49.99196" lon="4.70184">
        <ele>149.2</ele>
        <time>2024-04-06T10:19:05Z</time>
      </trkpt>
      <trkpt lat="49.99193" lon="4.70184">
        <ele>149.4</ele>
        <time>2024-04-06T10:19:06Z</time>
      </trkpt>
      <trkpt lat="49.99189" lon="4.70184">
        <ele>149.4</ele>
        <time>2024-04-06T10:19:07Z</time>
      </trkpt>
      <trkpt lat="49.99186" lon="4.70183">
        <ele>149.4</ele>
        <time>2024-04-06T10:19:08Z</time>
      </trkpt>
      <trkpt lat="49.99182" lon="4.70182">
        <ele>149.2</ele>
        <time>2024-04-06T10:19:09Z</time>
      </trkpt>
      <trkpt lat="49.99179" lon="4.70181">
        <ele>149.2</ele>
        <time>2024-04-06T10:19:10Z</time>
      </trkpt>
      <trkpt lat="49.99175" lon="4.70179">
        <ele>149.4</ele>
        <time>2024-04-06T10:19:11Z</time>
      </trkpt>
      <trkpt lat="49.99171" lon="4.70177">
        <ele>149.2</ele>
        <time>2024-04-06T10:19:12Z</time>
      </trkpt>
      <trkpt lat="49.99168" lon="4.70174">
        <ele>149.2</ele>
        <time>2024-04-06T10:19:13Z</time>
      </trkpt>
      <trkpt lat="49.99164" lon="4.70171">
        <ele>149.2</ele>
        <time>2024-04-06T10:19:14Z</time>
      </trkpt>
      <trkpt lat="49.99161" lon="4.70168">
        <ele>149.4</ele>
        <time>2024-04-06T10:19:15Z</time>
      </trkpt>
      <trkpt lat="49.99158" lon="4.70165">
        <ele>149.4</ele>
        <time>2024-04-06T10:19:16Z</time>
      </trkpt>
      <trkpt lat="49.99155" lon="4.70161">
        <ele>149.2</ele>
        <time>2024-04-06T10:19:17Z</time>
      </trkpt>
      <trkpt lat="49.99152" lon="4.70157">
        <ele>149.4</ele>
        <time>2024-04-06T10:19:18Z</time>
      </trkpt>
      <trkpt lat="49.99149" lon="4.70153">
        <ele>149.6</ele>
        <time>2024-04-06T10:19:19Z</time>
      </trkpt>
      <trkpt lat="49.99147" lon="4.70148">
        <ele>149.6</ele>
        <time>2024-04-06T10:19:20Z</time>
      </trkpt>
      <trkpt lat="49.99144" lon="4.70144">
        <ele>149.8</ele>
        <time>2024-04-06T10:19:21Z</time>
      </trkpt>
      <trkpt lat="49.99141" lon="4.70139">
        <ele>150</ele>
        <time>2024-04-06T10:19:22Z</time>
      </trkpt>
      <trkpt lat="49.99139" lon="4.70135">
        <ele>150.2</ele>
        <time>2024-04-06T10:19:23Z</time>
      </trkpt>
      <trkpt lat="49.99136" lon="4.7013">
        <ele>150.6</ele>
        <time>2024-04-06T10:19:24Z</time>
      </trkpt>
      <trkpt lat="49.99134" lon="4.70125">
        <ele>150.8</ele>
        <time>2024-04-06T10:19:25Z</time>
      </trkpt>
      <trkpt lat="49.99132" lon="4.7012">
        <ele>151</ele>
        <time>2024-04-06T10:19:26Z</time>
      </trkpt>
      <trkpt lat="49.9913" lon="4.70115">
        <ele>151.2</ele>
        <time>2024-04-06T10:19:27Z</time>
      </trkpt>
      <trkpt lat="49.99128" lon="4.7011">
        <ele>151.4</ele>
        <time>2024-04-06T10:19:28Z</time>
      </trkpt>
      <trkpt lat="49.99126" lon="4.70105">
        <ele>151.8</ele>
        <time>2024-04-06T10:19:29Z</time>
      </trkpt>
      <trkpt lat="49.99124" lon="4.701">
        <ele>151.8</ele>
        <time>2024-04-06T10:19:30Z</time>
      </trkpt>
      <trkpt lat="49.99122" lon="4.70094">
        <ele>152</ele>
        <time>2024-04-06T10:19:31Z</time>
      </trkpt>
      <trkpt lat="49.9912" lon="4.70089">
        <ele>152</ele>
        <time>2024-04-06T10:19:32Z</time>
      </trkpt>
      <trkpt lat="49.99119" lon="4.70084">
        <ele>152.2</ele>
        <time>2024-04-06T10:19:33Z</time>
      </trkpt>
      <trkpt lat="49.99118" lon="4.70078">
        <ele>152.2</ele>
        <time>2024-04-06T10:19:34Z</time>
      </trkpt>
      <trkpt lat="49.99116" lon="4.70073">
        <ele>152.6</ele>
        <time>2024-04-06T10:19:35Z</time>
      </trkpt>
      <trkpt lat="49.99114" lon="4.70067">
        <ele>153</ele>
        <time>2024-04-06T10:19:36Z</time>
      </trkpt>
      <trkpt lat="49.99113" lon="4.70062">
        <ele>153</ele>
        <time>2024-04-06T10:19:37Z</time>
      </trkpt>
      <trkpt lat="49.99112" lon="4.70056">
        <ele>153.8</ele>
        <time>2024-04-06T10:19:38Z</time>
      </trkpt>
      <trkpt lat="49.99111" lon="4.70051">
        <ele>154.4</ele>
        <time>2024-04-06T10:19:39Z</time>
      </trkpt>
      <trkpt lat="49.9911" lon="4.70045">
        <ele>155</ele>
        <time>2024-04-06T10:19:40Z</time>
      </trkpt>
      <trkpt lat="49.99109" lon="4.7004">
        <ele>155.2</ele>
        <time>2024-04-06T10:19:41Z</time>
      </trkpt>
      <trkpt lat="49.99107" lon="4.70034">
        <ele>155.6</ele>
        <time>2024-04-06T10:19:42Z</time>
      </trkpt>
      <trkpt lat="49.99106" lon="4.70029">
        <ele>156</ele>
        <time>2024-04-06T10:19:43Z</time>
      </trkpt>
      <trkpt lat="49.99105" lon="4.70023">
        <ele>156.4</ele>
        <time>2024-04-06T10:19:44Z</time>
      </trkpt>
      <trkpt lat="49.99104" lon="4.70018">
        <ele>156.6</ele>
        <time>2024-04-06T10:19:45Z</time>
      </trkpt>
      <trkpt lat="49.99104" lon="4.70012">
        <ele>157</ele>
        <time>2024-04-06T10:19:46Z</time>
      </trkpt>
      <trkpt lat="49.99103" lon="4.70007">
        <ele>157.2</ele>
        <time>2024-04-06T10:19:47Z</time>
      </trkpt>
      <trkpt lat="49.99102" lon="4.70002">
        <ele>157.2</ele>
        <time>2024-04-06T10:19:48Z</time>
      </trkpt>
      <trkpt lat="49.99101" lon="4.69996">
        <ele>157.4</ele>
        <time>2024-04-06T10:19:49Z</time>
      </trkpt>
      <trkpt lat="49.991" lon="4.69991">
        <ele>157.6</ele>
        <time>2024-04-06T10:19:50Z</time>
      </trkpt>
      <trkpt lat="49.99098" lon="4.69985">
        <ele>157.6</ele>
        <time>2024-04-06T10:19:51Z</time>
      </trkpt>
      <trkpt lat="49.99097" lon="4.6998">
        <ele>157.8</ele>
        <time>2024-04-06T10:19:52Z</time>
      </trkpt>
      <trkpt lat="49.99096" lon="4.69975">
        <ele>157.8</ele>
        <time>2024-04-06T10:19:53Z</time>
      </trkpt>
      <trkpt lat="49.99094" lon="4.69969">
        <ele>158.2</ele>
        <time>2024-04-06T10:19:54Z</time>
      </trkpt>
      <trkpt lat="49.99092" lon="4.69965">
        <ele>158.4</ele>
        <time>2024-04-06T10:19:55Z</time>
      </trkpt>
      <trkpt lat="49.9909" lon="4.6996">
        <ele>159.2</ele>
        <time>2024-04-06T10:19:56Z</time>
      </trkpt>
      <trkpt lat="49.99087" lon="4.69955">
        <ele>159.6</ele>
        <time>2024-04-06T10:19:57Z</time>
      </trkpt>
      <trkpt lat="49.99085" lon="4.6995">
        <ele>159.8</ele>
        <time>2024-04-06T10:19:58Z</time>
      </trkpt>
      <trkpt lat="49.99083" lon="4.69945">
        <ele>160</ele>
        <time>2024-04-06T10:19:59Z</time>
      </trkpt>
      <trkpt lat="49.99081" lon="4.69941">
        <ele>160.2</ele>
        <time>2024-04-06T10:20:00Z</time>
      </trkpt>
      <trkpt lat="49.99079" lon="4.69936">
        <ele>160.2</ele>
        <time>2024-04-06T10:20:01Z</time>
      </trkpt>
      <trkpt lat="49.99077" lon="4.69932">
        <ele>160.4</ele>
        <time>2024-04-06T10:20:02Z</time>
      </trkpt>
      <trkpt lat="49.99075" lon="4.69927">
        <ele>160.4</ele>
        <time>2024-04-06T10:20:03Z</time>
      </trkpt>
      <trkpt lat="49.99073" lon="4.69923">
        <ele>160.4</ele>
        <time>2024-04-06T10:20:04Z</time>
      </trkpt>
      <trkpt lat="49.99072" lon="4.69918">
        <ele>160.8</ele>
        <time>2024-04-06T10:20:05Z</time>
      </trkpt>
      <trkpt lat="49.9907" lon="4.69914">
        <ele>161.2</ele>
        <time>2024-04-06T10:20:06Z</time>
      </trkpt>
      <trkpt lat="49.99068" lon="4.6991">
        <ele>161.4</ele>
        <time>2024-04-06T10:20:07Z</time>
      </trkpt>
      <trkpt lat="49.99067" lon="4.69905">
        <ele>161.6</ele>
        <time>2024-04-06T10:20:08Z</time>
      </trkpt>
      <trkpt lat="49.99065" lon="4.69901">
        <ele>161.8</ele>
        <time>2024-04-06T10:20:09Z</time>
      </trkpt>
      <trkpt lat="49.99064" lon="4.69898">
        <ele>162</ele>
        <time>2024-04-06T10:20:10Z</time>
      </trkpt>
      <trkpt lat="49.99062" lon="4.69894">
        <ele>162.2</ele>
        <time>2024-04-06T10:20:11Z</time>
      </trkpt>
      <trkpt lat="49.99061" lon="4.69889">
        <ele>162.2</ele>
        <time>2024-04-06T10:20:12Z</time>
      </trkpt>
      <trkpt lat="49.99061" lon="4.69885">
        <ele>162.4</ele>
        <time>2024-04-06T10:20:13Z</time>
      </trkpt>
      <trkpt lat="49.9906" lon="4.6988">
        <ele>162.8</ele>
        <time>2024-04-06T10:20:14Z</time>
      </trkpt>
      <trkpt lat="49.99059" lon="4.69875">
        <ele>163.2</ele>
        <time>2024-04-06T10:20:15Z</time>
      </trkpt>
      <trkpt lat="49.99058" lon="4.6987">
        <ele>163.2</ele>
        <time>2024-04-06T10:20:16Z</time>
      </trkpt>
      <trkpt lat="49.99058" lon="4.69864">
        <ele>163.4</ele>
        <time>2024-04-06T10:20:17Z</time>
      </trkpt>
      <trkpt lat="49.99058" lon="4.69858">
        <ele>163.8</ele>
        <time>2024-04-06T10:20:18Z</time>
      </trkpt>
      <trkpt lat="49.99058" lon="4.69852">
        <ele>164</ele>
        <time>2024-04-06T10:20:19Z</time>
      </trkpt>
      <trkpt lat="49.99058" lon="4.69846">
        <ele>164</ele>
        <time>2024-04-06T10:20:20Z</time>
      </trkpt>
      <trkpt lat="49.99059" lon="4.6984">
        <ele>164.4</ele>
        <time>2024-04-06T10:20:21Z</time>
      </trkpt>
      <trkpt lat="49.99059" lon="4.69834">
        <ele>165</ele>
        <time>2024-04-06T10:20:22Z</time>
      </trkpt>
      <trkpt lat="49.99059" lon="4.69828">
        <ele>165</ele>
        <time>2024-04-06T10:20:23Z</time>
      </trkpt>
      <trkpt lat="49.99059" lon="4.69822">
        <ele>165</ele>
        <time>2024-04-06T10:20:24Z</time>
      </trkpt>
      <trkpt lat="49.9906" lon="4.69817">
        <ele>165.2</ele>
        <time>2024-04-06T10:20:25Z</time>
      </trkpt>
      <trkpt lat="49.9906" lon="4.69811">
        <ele>165.4</ele>
        <time>2024-04-06T10:20:26Z</time>
      </trkpt>
      <trkpt lat="49.9906" lon="4.69805">
        <ele>165.6</ele>
        <time>2024-04-06T10:20:27Z</time>
      </trkpt>
      <trkpt lat="49.99061" lon="4.69799">
        <ele>165.6</ele>
        <time>2024-04-06T10:20:28Z</time>
      </trkpt>
      <trkpt lat="49.99061" lon="4.69793">
        <ele>165.6</ele>
        <time>2024-04-06T10:20:29Z</time>
      </trkpt>
      <trkpt lat="49.99062" lon="4.69787">
        <ele>165.6</ele>
        <time>2024-04-06T10:20:30Z</time>
      </trkpt>
      <trkpt lat="49.99063" lon="4.69781">
        <ele>165.8</ele>
        <time>2024-04-06T10:20:31Z</time>
      </trkpt>
      <trkpt lat="49.99064" lon="4.69775">
        <ele>165.8</ele>
        <time>2024-04-06T10:20:32Z</time>
      </trkpt>
      <trkpt lat="49.99065" lon="4.69769">
        <ele>165.8</ele>
        <time>2024-04-06T10:20:33Z</time>
      </trkpt>
      <trkpt lat="49.99066" lon="4.69763">
        <ele>166.2</ele>
        <time>2024-04-06T10:20:34Z</time>
      </trkpt>
      <trkpt lat="49.99068" lon="4.69757">
        <ele>166</ele>
        <time>2024-04-06T10:20:35Z</time>
      </trkpt>
      <trkpt lat="49.99069" lon="4.69751">
        <ele>166.4</ele>
        <time>2024-04-06T10:20:36Z</time>
      </trkpt>
      <trkpt lat="49.99071" lon="4.69745">
        <ele>166.6</ele>
        <time>2024-04-06T10:20:37Z</time>
      </trkpt>
      <trkpt lat="49.99072" lon="4.69739">
        <ele>166.8</ele>
        <time>2024-04-06T10:20:38Z</time>
      </trkpt>
      <trkpt lat="49.99074" lon="4.69734">
        <ele>167</ele>
        <time>2024-04-06T10:20:39Z</time>
      </trkpt>
      <trkpt lat="49.99076" lon="4.69728">
        <ele>166.8</ele>
        <time>2024-04-06T10:20:40Z</time>
      </trkpt>
      <trkpt lat="49.99078" lon="4.69723">
        <ele>167</ele>
        <time>2024-04-06T10:20:41Z</time>
      </trkpt>
      <trkpt lat="49.9908" lon="4.69718">
        <ele>167</ele>
        <time>2024-04-06T10:20:42Z</time>
      </trkpt>
      <trkpt lat="49.99081" lon="4.69713">
        <ele>167.2</ele>
        <time>2024-04-06T10:20:43Z</time>
      </trkpt>
      <trkpt lat="49.99082" lon="4.69707">
        <ele>167</ele>
        <time>2024-04-06T10:20:44Z</time>
      </trkpt>
      <trkpt lat="49.99084" lon="4.69701">
        <ele>167</ele>
        <time>2024-04-06T10:20:45Z</time>
      </trkpt>
      <trkpt lat="49.99085" lon="4.69695">
        <ele>167</ele>
        <time>2024-04-06T10:20:46Z</time>
      </trkpt>
      <trkpt lat="49.99087" lon="4.69688">
        <ele>166.8</ele>
        <time>2024-04-06T10:20:47Z</time>
      </trkpt>
      <trkpt lat="49.99088" lon="4.69681">
        <ele>166.8</ele>
        <time>2024-04-06T10:20:48Z</time>
      </trkpt>
      <trkpt lat="49.9909" lon="4.69674">
        <ele>166.4</ele>
        <time>2024-04-06T10:20:49Z</time>
      </trkpt>
      <trkpt lat="49.99092" lon="4.69665">
        <ele>166.4</ele>
        <time>2024-04-06T10:20:50Z</time>
      </trkpt>
      <trkpt lat="49.99093" lon="4.69656">
        <ele>166.2</ele>
        <time>2024-04-06T10:20:51Z</time>
      </trkpt>
      <trkpt lat="49.99094" lon="4.69647">
        <ele>166.2</ele>
        <time>2024-04-06T10:20:52Z</time>
      </trkpt>
      <trkpt lat="49.99094" lon="4.69636">
        <ele>165.8</ele>
        <time>2024-04-06T10:20:53Z</time>
      </trkpt>
      <trkpt lat="49.99093" lon="4.69626">
        <ele>165.8</ele>
        <time>2024-04-06T10:20:54Z</time>
      </trkpt>
      <trkpt lat="49.99091" lon="4.69615">
        <ele>165.6</ele>
        <time>2024-04-06T10:20:55Z</time>
      </trkpt>
      <trkpt lat="49.99089" lon="4.69604">
        <ele>165.4</ele>
        <time>2024-04-06T10:20:56Z</time>
      </trkpt>
      <trkpt lat="49.99086" lon="4.69593">
        <ele>165.2</ele>
        <time>2024-04-06T10:20:57Z</time>
      </trkpt>
      <trkpt lat="49.99083" lon="4.69582">
        <ele>165</ele>
        <time>2024-04-06T10:20:58Z</time>
      </trkpt>
      <trkpt lat="49.99079" lon="4.6957">
        <ele>165</ele>
        <time>2024-04-06T10:20:59Z</time>
      </trkpt>
      <trkpt lat="49.99075" lon="4.69558">
        <ele>164.8</ele>
        <time>2024-04-06T10:21:00Z</time>
      </trkpt>
      <trkpt lat="49.99071" lon="4.69546">
        <ele>164.6</ele>
        <time>2024-04-06T10:21:01Z</time>
      </trkpt>
      <trkpt lat="49.99067" lon="4.69534">
        <ele>164</ele>
        <time>2024-04-06T10:21:02Z</time>
      </trkpt>
      <trkpt lat="49.99063" lon="4.69522">
        <ele>164</ele>
        <time>2024-04-06T10:21:03Z</time>
      </trkpt>
      <trkpt lat="49.99059" lon="4.69509">
        <ele>163.6</ele>
        <time>2024-04-06T10:21:04Z</time>
      </trkpt>
      <trkpt lat="49.99055" lon="4.69496">
        <ele>163</ele>
        <time>2024-04-06T10:21:05Z</time>
      </trkpt>
      <trkpt lat="49.99051" lon="4.69482">
        <ele>162.6</ele>
        <time>2024-04-06T10:21:06Z</time>
      </trkpt>
      <trkpt lat="49.99047" lon="4.69469">
        <ele>162</ele>
        <time>2024-04-06T10:21:07Z</time>
      </trkpt>
      <trkpt lat="49.99042" lon="4.69455">
        <ele>161.6</ele>
        <time>2024-04-06T10:21:08Z</time>
      </trkpt>
      <trkpt lat="49.99037" lon="4.69441">
        <ele>161</ele>
        <time>2024-04-06T10:21:09Z</time>
      </trkpt>
      <trkpt lat="49.99032" lon="4.69427">
        <ele>160.6</ele>
        <time>2024-04-06T10:21:10Z</time>
      </trkpt>
      <trkpt lat="49.99027" lon="4.69412">
        <ele>159.6</ele>
        <time>2024-04-06T10:21:11Z</time>
      </trkpt>
      <trkpt lat="49.99023" lon="4.69398">
        <ele>158.6</ele>
        <time>2024-04-06T10:21:12Z</time>
      </trkpt>
      <trkpt lat="49.99018" lon="4.69383">
        <ele>157.6</ele>
        <time>2024-04-06T10:21:13Z</time>
      </trkpt>
      <trkpt lat="49.99014" lon="4.69368">
        <ele>157</ele>
        <time>2024-04-06T10:21:14Z</time>
      </trkpt>
      <trkpt lat="49.99009" lon="4.69353">
        <ele>156.4</ele>
        <time>2024-04-06T10:21:15Z</time>
      </trkpt>
      <trkpt lat="49.99004" lon="4.69339">
        <ele>156.2</ele>
        <time>2024-04-06T10:21:16Z</time>
      </trkpt>
      <trkpt lat="49.98999" lon="4.69324">
        <ele>155.8</ele>
        <time>2024-04-06T10:21:17Z</time>
      </trkpt>
      <trkpt lat="49.98994" lon="4.69309">
        <ele>155.6</ele>
        <time>2024-04-06T10:21:18Z</time>
      </trkpt>
      <trkpt lat="49.98989" lon="4.69294">
        <ele>154.4</ele>
        <time>2024-04-06T10:21:19Z</time>
      </trkpt>
      <trkpt lat="49.98984" lon="4.69278">
        <ele>154.4</ele>
        <time>2024-04-06T10:21:20Z</time>
      </trkpt>
      <trkpt lat="49.98979" lon="4.69263">
        <ele>153</ele>
        <time>2024-04-06T10:21:21Z</time>
      </trkpt>
      <trkpt lat="49.98973" lon="4.69247">
        <ele>152.2</ele>
        <time>2024-04-06T10:21:22Z</time>
      </trkpt>
      <trkpt lat="49.98968" lon="4.69231">
        <ele>151.6</ele>
        <time>2024-04-06T10:21:23Z</time>
      </trkpt>
      <trkpt lat="49.98962" lon="4.69216">
        <ele>150.8</ele>
        <time>2024-04-06T10:21:24Z</time>
      </trkpt>
      <trkpt lat="49.98955" lon="4.69201">
        <ele>149.8</ele>
        <time>2024-04-06T10:21:25Z</time>
      </trkpt>
      <trkpt lat="49.98946" lon="4.6919">
        <ele>149</ele>
        <time>2024-04-06T10:21:26Z</time>
      </trkpt>
      <trkpt lat="49.98936" lon="4.69181">
        <ele>148.4</ele>
        <time>2024-04-06T10:21:27Z</time>
      </trkpt>
      <trkpt lat="49.98925" lon="4.69176">
        <ele>148</ele>
        <time>2024-04-06T10:21:28Z</time>
      </trkpt>
      <trkpt lat="49.98913" lon="4.69174">
        <ele>147.6</ele>
        <time>2024-04-06T10:21:29Z</time>
      </trkpt>
      <trkpt lat="49.98901" lon="4.69176">
        <ele>146.8</ele>
        <time>2024-04-06T10:21:30Z</time>
      </trkpt>
      <trkpt lat="49.98889" lon="4.6918">
        <ele>146</ele>
        <time>2024-04-06T10:21:31Z</time>
      </trkpt>
      <trkpt lat="49.98878" lon="4.69186">
        <ele>145.8</ele>
        <time>2024-04-06T10:21:32Z</time>
      </trkpt>
      <trkpt lat="49.98867" lon="4.69193">
        <ele>145.4</ele>
        <time>2024-04-06T10:21:33Z</time>
      </trkpt>
      <trkpt lat="49.98857" lon="4.69199">
        <ele>145</ele>
        <time>2024-04-06T10:21:34Z</time>
      </trkpt>
      <trkpt lat="49.98846" lon="4.69205">
        <ele>144.8</ele>
        <time>2024-04-06T10:21:35Z</time>
      </trkpt>
      <trkpt lat="49.98836" lon="4.6921">
        <ele>143.8</ele>
        <time>2024-04-06T10:21:36Z</time>
      </trkpt>
      <trkpt lat="49.98826" lon="4.69214">
        <ele>142.2</ele>
        <time>2024-04-06T10:21:37Z</time>
      </trkpt>
      <trkpt lat="49.98816" lon="4.69217">
        <ele>141.2</ele>
        <time>2024-04-06T10:21:38Z</time>
      </trkpt>
      <trkpt lat="49.98807" lon="4.6922">
        <ele>140.4</ele>
        <time>2024-04-06T10:21:39Z</time>
      </trkpt>
      <trkpt lat="49.98798" lon="4.69221">
        <ele>140</ele>
        <time>2024-04-06T10:21:40Z</time>
      </trkpt>
      <trkpt lat="49.98789" lon="4.69221">
        <ele>140</ele>
        <time>2024-04-06T10:21:41Z</time>
      </trkpt>
      <trkpt lat="49.9878" lon="4.69221">
        <ele>139.8</ele>
        <time>2024-04-06T10:21:42Z</time>
      </trkpt>
      <trkpt lat="49.98771" lon="4.6922">
        <ele>139.6</ele>
        <time>2024-04-06T10:21:43Z</time>
      </trkpt>
      <trkpt lat="49.98762" lon="4.69219">
        <ele>139.6</ele>
        <time>2024-04-06T10:21:44Z</time>
      </trkpt>
      <trkpt lat="49.98753" lon="4.69217">
        <ele>139.6</ele>
        <time>2024-04-06T10:21:45Z</time>
      </trkpt>
      <trkpt lat="49.98745" lon="4.69214">
        <ele>139.6</ele>
        <time>2024-04-06T10:21:46Z</time>
      </trkpt>
      <trkpt lat="49.98737" lon="4.69212">
        <ele>139.4</ele>
        <time>2024-04-06T10:21:47Z</time>
      </trkpt>
      <trkpt lat="49.98729" lon="4.6921">
        <ele>139.6</ele>
        <time>2024-04-06T10:21:48Z</time>
      </trkpt>
      <trkpt lat="49.98721" lon="4.69207">
        <ele>139.6</ele>
        <time>2024-04-06T10:21:49Z</time>
      </trkpt>
      <trkpt lat="49.98713" lon="4.69205">
        <ele>139.6</ele>
        <time>2024-04-06T10:21:50Z</time>
      </trkpt>
      <trkpt lat="49.98705" lon="4.69203">
        <ele>140</ele>
        <time>2024-04-06T10:21:51Z</time>
      </trkpt>
      <trkpt lat="49.98698" lon="4.69201">
        <ele>140.2</ele>
        <time>2024-04-06T10:21:52Z</time>
      </trkpt>
      <trkpt lat="49.9869" lon="4.69199">
        <ele>140.4</ele>
        <time>2024-04-06T10:21:53Z</time>
      </trkpt>
      <trkpt lat="49.98683" lon="4.69196">
        <ele>140.6</ele>
        <time>2024-04-06T10:21:54Z</time>
      </trkpt>
      <trkpt lat="49.98675" lon="4.69194">
        <ele>140.8</ele>
        <time>2024-04-06T10:21:55Z</time>
      </trkpt>
      <trkpt lat="49.98668" lon="4.69192">
        <ele>141</ele>
        <time>2024-04-06T10:21:56Z</time>
      </trkpt>
      <trkpt lat="49.9866" lon="4.6919">
        <ele>141</ele>
        <time>2024-04-06T10:21:57Z</time>
      </trkpt>
      <trkpt lat="49.98653" lon="4.69188">
        <ele>141.4</ele>
        <time>2024-04-06T10:21:58Z</time>
      </trkpt>
      <trkpt lat="49.98646" lon="4.69186">
        <ele>141.4</ele>
        <time>2024-04-06T10:21:59Z</time>
      </trkpt>
      <trkpt lat="49.98638" lon="4.69184">
        <ele>141.8</ele>
        <time>2024-04-06T10:22:00Z</time>
      </trkpt>
      <trkpt lat="49.98631" lon="4.69182">
        <ele>141.8</ele>
        <time>2024-04-06T10:22:01Z</time>
      </trkpt>
      <trkpt lat="49.98623" lon="4.69179">
        <ele>142</ele>
        <time>2024-04-06T10:22:02Z</time>
      </trkpt>
      <trkpt lat="49.98616" lon="4.69177">
        <ele>142</ele>
        <time>2024-04-06T10:22:03Z</time>
      </trkpt>
      <trkpt lat="49.98609" lon="4.69175">
        <ele>142</ele>
        <time>2024-04-06T10:22:04Z</time>
      </trkpt>
      <trkpt lat="49.98601" lon="4.69173">
        <ele>142</ele>
        <time>2024-04-06T10:22:05Z</time>
      </trkpt>
      <trkpt lat="49.98594" lon="4.69171">
        <ele>142</ele>
        <time>2024-04-06T10:22:06Z</time>
      </trkpt>
      <trkpt lat="49.98587" lon="4.69169">
        <ele>142.2</ele>
        <time>2024-04-06T10:22:07Z</time>
      </trkpt>
      <trkpt lat="49.98579" lon="4.69167">
        <ele>142.2</ele>
        <time>2024-04-06T10:22:08Z</time>
      </trkpt>
      <trkpt lat="49.98572" lon="4.69164">
        <ele>142.4</ele>
        <time>2024-04-06T10:22:09Z</time>
      </trkpt>
      <trkpt lat="49.98565" lon="4.69162">
        <ele>142.4</ele>
        <time>2024-04-06T10:22:10Z</time>
      </trkpt>
      <trkpt lat="49.98558" lon="4.6916">
        <ele>142.4</ele>
        <time>2024-04-06T10:22:11Z</time>
      </trkpt>
      <trkpt lat="49.9855" lon="4.69158">
        <ele>142.6</ele>
        <time>2024-04-06T10:22:12Z</time>
      </trkpt>
      <trkpt lat="49.98543" lon="4.69156">
        <ele>142.6</ele>
        <time>2024-04-06T10:22:13Z</time>
      </trkpt>
      <trkpt lat="49.98535" lon="4.69154">
        <ele>142.6</ele>
        <time>2024-04-06T10:22:14Z</time>
      </trkpt>
      <trkpt lat="49.98527" lon="4.69152">
        <ele>142.6</ele>
        <time>2024-04-06T10:22:15Z</time>
      </trkpt>
      <trkpt lat="49.98519" lon="4.69151">
        <ele>142.6</ele>
        <time>2024-04-06T10:22:16Z</time>
      </trkpt>
      <trkpt lat="49.98511" lon="4.69149">
        <ele>142.4</ele>
        <time>2024-04-06T10:22:17Z</time>
      </trkpt>
      <trkpt lat="49.98504" lon="4.69147">
        <ele>142.4</ele>
        <time>2024-04-06T10:22:18Z</time>
      </trkpt>
      <trkpt lat="49.98496" lon="4.69144">
        <ele>142.4</ele>
        <time>2024-04-06T10:22:19Z</time>
      </trkpt>
      <trkpt lat="49.98489" lon="4.69141">
        <ele>142.4</ele>
        <time>2024-04-06T10:22:20Z</time>
      </trkpt>
      <trkpt lat="49.98481" lon="4.69138">
        <ele>142.2</ele>
        <time>2024-04-06T10:22:21Z</time>
      </trkpt>
      <trkpt lat="49.98474" lon="4.69135">
        <ele>142.2</ele>
        <time>2024-04-06T10:22:22Z</time>
      </trkpt>
      <trkpt lat="49.98466" lon="4.69131">
        <ele>142.2</ele>
        <time>2024-04-06T10:22:23Z</time>
      </trkpt>
      <trkpt lat="49.98459" lon="4.69128">
        <ele>142</ele>
        <time>2024-04-06T10:22:24Z</time>
      </trkpt>
      <trkpt lat="49.98452" lon="4.69124">
        <ele>141.6</ele>
        <time>2024-04-06T10:22:25Z</time>
      </trkpt>
      <trkpt lat="49.98444" lon="4.6912">
        <ele>141.6</ele>
        <time>2024-04-06T10:22:26Z</time>
      </trkpt>
      <trkpt lat="49.98437" lon="4.69117">
        <ele>141.4</ele>
        <time>2024-04-06T10:22:27Z</time>
      </trkpt>
      <trkpt lat="49.98429" lon="4.69113">
        <ele>141.6</ele>
        <time>2024-04-06T10:22:28Z</time>
      </trkpt>
      <trkpt lat="49.98422" lon="4.69109">
        <ele>141.4</ele>
        <time>2024-04-06T10:22:29Z</time>
      </trkpt>
      <trkpt lat="49.98414" lon="4.69105">
        <ele>141.4</ele>
        <time>2024-04-06T10:22:30Z</time>
      </trkpt>
      <trkpt lat="49.98406" lon="4.69101">
        <ele>141</ele>
        <time>2024-04-06T10:22:31Z</time>
      </trkpt>
      <trkpt lat="49.98398" lon="4.69097">
        <ele>141</ele>
        <time>2024-04-06T10:22:32Z</time>
      </trkpt>
      <trkpt lat="49.9839" lon="4.69093">
        <ele>140.8</ele>
        <time>2024-04-06T10:22:33Z</time>
      </trkpt>
      <trkpt lat="49.98382" lon="4.69089">
        <ele>141</ele>
        <time>2024-04-06T10:22:34Z</time>
      </trkpt>
      <trkpt lat="49.98374" lon="4.69084">
        <ele>141</ele>
        <time>2024-04-06T10:22:35Z</time>
      </trkpt>
      <trkpt lat="49.98366" lon="4.6908">
        <ele>140.8</ele>
        <time>2024-04-06T10:22:36Z</time>
      </trkpt>
      <trkpt lat="49.98358" lon="4.69076">
        <ele>140.8</ele>
        <time>2024-04-06T10:22:37Z</time>
      </trkpt>
      <trkpt lat="49.9835" lon="4.69072">
        <ele>140.8</ele>
        <time>2024-04-06T10:22:38Z</time>
      </trkpt>
      <trkpt lat="49.98342" lon="4.69068">
        <ele>140.8</ele>
        <time>2024-04-06T10:22:39Z</time>
      </trkpt>
      <trkpt lat="49.98335" lon="4.69063">
        <ele>140.6</ele>
        <time>2024-04-06T10:22:40Z</time>
      </trkpt>
      <trkpt lat="49.98327" lon="4.69059">
        <ele>140.6</ele>
        <time>2024-04-06T10:22:41Z</time>
      </trkpt>
      <trkpt lat="49.98319" lon="4.69055">
        <ele>140.6</ele>
        <time>2024-04-06T10:22:42Z</time>
      </trkpt>
      <trkpt lat="49.98311" lon="4.69051">
        <ele>140.2</ele>
        <time>2024-04-06T10:22:43Z</time>
      </trkpt>
      <trkpt lat="49.98303" lon="4.69047">
        <ele>140.2</ele>
        <time>2024-04-06T10:22:44Z</time>
      </trkpt>
      <trkpt lat="49.98295" lon="4.69044">
        <ele>140.2</ele>
        <time>2024-04-06T10:22:45Z</time>
      </trkpt>
      <trkpt lat="49.98287" lon="4.6904">
        <ele>139.6</ele>
        <time>2024-04-06T10:22:46Z</time>
      </trkpt>
      <trkpt lat="49.98279" lon="4.69036">
        <ele>139.4</ele>
        <time>2024-04-06T10:22:47Z</time>
      </trkpt>
      <trkpt lat="49.98271" lon="4.69032">
        <ele>139.4</ele>
        <time>2024-04-06T10:22:48Z</time>
      </trkpt>
      <trkpt lat="49.98263" lon="4.69027">
        <ele>139.2</ele>
        <time>2024-04-06T10:22:49Z</time>
      </trkpt>
      <trkpt lat="49.98256" lon="4.69023">
        <ele>139</ele>
        <time>2024-04-06T10:22:50Z</time>
      </trkpt>
      <trkpt lat="49.98248" lon="4.69019">
        <ele>138.6</ele>
        <time>2024-04-06T10:22:51Z</time>
      </trkpt>
      <trkpt lat="49.9824" lon="4.69015">
        <ele>138.6</ele>
        <time>2024-04-06T10:22:52Z</time>
      </trkpt>
      <trkpt lat="49.98232" lon="4.69011">
        <ele>138.4</ele>
        <time>2024-04-06T10:22:53Z</time>
      </trkpt>
      <trkpt lat="49.98224" lon="4.69007">
        <ele>138.4</ele>
        <time>2024-04-06T10:22:54Z</time>
      </trkpt>
      <trkpt lat="49.98216" lon="4.69003">
        <ele>138.2</ele>
        <time>2024-04-06T10:22:55Z</time>
      </trkpt>
      <trkpt lat="49.98208" lon="4.68999">
        <ele>138.4</ele>
        <time>2024-04-06T10:22:56Z</time>
      </trkpt>
      <trkpt lat="49.982" lon="4.68995">
        <ele>138.2</ele>
        <time>2024-04-06T10:22:57Z</time>
      </trkpt>
      <trkpt lat="49.98192" lon="4.68991">
        <ele>138.2</ele>
        <time>2024-04-06T10:22:58Z</time>
      </trkpt>
      <trkpt lat="49.98184" lon="4.68986">
        <ele>138.2</ele>
        <time>2024-04-06T10:22:59Z</time>
      </trkpt>
      <trkpt lat="49.98176" lon="4.68982">
        <ele>138.2</ele>
        <time>2024-04-06T10:23:00Z</time>
      </trkpt>
      <trkpt lat="49.98168" lon="4.68978">
        <ele>138</ele>
        <time>2024-04-06T10:23:01Z</time>
      </trkpt>
      <trkpt lat="49.98159" lon="4.68974">
        <ele>137.8</ele>
        <time>2024-04-06T10:23:02Z</time>
      </trkpt>
      <trkpt lat="49.98151" lon="4.6897">
        <ele>137.8</ele>
        <time>2024-04-06T10:23:03Z</time>
      </trkpt>
      <trkpt lat="49.98143" lon="4.68965">
        <ele>137.8</ele>
        <time>2024-04-06T10:23:04Z</time>
      </trkpt>
      <trkpt lat="49.98135" lon="4.68961">
        <ele>138</ele>
        <time>2024-04-06T10:23:05Z</time>
      </trkpt>
      <trkpt lat="49.98127" lon="4.68957">
        <ele>137.8</ele>
        <time>2024-04-06T10:23:06Z</time>
      </trkpt>
      <trkpt lat="49.9812" lon="4.68953">
        <ele>137.8</ele>
        <time>2024-04-06T10:23:07Z</time>
      </trkpt>
      <trkpt lat="49.98112" lon="4.68949">
        <ele>137.4</ele>
        <time>2024-04-06T10:23:08Z</time>
      </trkpt>
      <trkpt lat="49.98104" lon="4.68945">
        <ele>137.6</ele>
        <time>2024-04-06T10:23:09Z</time>
      </trkpt>
      <trkpt lat="49.98097" lon="4.68941">
        <ele>137.4</ele>
        <time>2024-04-06T10:23:10Z</time>
      </trkpt>
      <trkpt lat="49.98089" lon="4.68938">
        <ele>137.2</ele>
        <time>2024-04-06T10:23:11Z</time>
      </trkpt>
      <trkpt lat="49.98081" lon="4.68934">
        <ele>136.8</ele>
        <time>2024-04-06T10:23:12Z</time>
      </trkpt>
      <trkpt lat="49.98074" lon="4.6893">
        <ele>136.6</ele>
        <time>2024-04-06T10:23:13Z</time>
      </trkpt>
      <trkpt lat="49.98066" lon="4.68926">
        <ele>136.6</ele>
        <time>2024-04-06T10:23:14Z</time>
      </trkpt>
      <trkpt lat="49.98058" lon="4.68922">
        <ele>136</ele>
        <time>2024-04-06T10:23:15Z</time>
      </trkpt>
      <trkpt lat="49.98051" lon="4.68917">
        <ele>136</ele>
        <time>2024-04-06T10:23:16Z</time>
      </trkpt>
      <trkpt lat="49.98043" lon="4.68913">
        <ele>135.6</ele>
        <time>2024-04-06T10:23:17Z</time>
      </trkpt>
      <trkpt lat="49.98036" lon="4.68908">
        <ele>135.6</ele>
        <time>2024-04-06T10:23:18Z</time>
      </trkpt>
      <trkpt lat="49.98028" lon="4.68903">
        <ele>135.4</ele>
        <time>2024-04-06T10:23:19Z</time>
      </trkpt>
      <trkpt lat="49.98021" lon="4.68897">
        <ele>135.2</ele>
        <time>2024-04-06T10:23:20Z</time>
      </trkpt>
      <trkpt lat="49.98015" lon="4.68891">
        <ele>135</ele>
        <time>2024-04-06T10:23:21Z</time>
      </trkpt>
      <trkpt lat="49.98008" lon="4.68884">
        <ele>134.8</ele>
        <time>2024-04-06T10:23:22Z</time>
      </trkpt>
      <trkpt lat="49.98002" lon="4.68878">
        <ele>134.8</ele>
        <time>2024-04-06T10:23:23Z</time>
      </trkpt>
      <trkpt lat="49.97996" lon="4.6887">
        <ele>134.8</ele>
        <time>2024-04-06T10:23:24Z</time>
      </trkpt>
      <trkpt lat="49.9799" lon="4.68863">
        <ele>134.6</ele>
        <time>2024-04-06T10:23:25Z</time>
      </trkpt>
      <trkpt lat="49.97984" lon="4.68855">
        <ele>134.2</ele>
        <time>2024-04-06T10:23:26Z</time>
      </trkpt>
      <trkpt lat="49.97978" lon="4.68846">
        <ele>134</ele>
        <time>2024-04-06T10:23:27Z</time>
      </trkpt>
      <trkpt lat="49.97973" lon="4.68837">
        <ele>133.4</ele>
        <time>2024-04-06T10:23:28Z</time>
      </trkpt>
      <trkpt lat="49.97968" lon="4.68827">
        <ele>133</ele>
        <time>2024-04-06T10:23:29Z</time>
      </trkpt>
      <trkpt lat="49.97963" lon="4.68817">
        <ele>132.6</ele>
        <time>2024-04-06T10:23:30Z</time>
      </trkpt>
      <trkpt lat="49.97958" lon="4.68806">
        <ele>132.4</ele>
        <time>2024-04-06T10:23:31Z</time>
      </trkpt>
      <trkpt lat="49.97954" lon="4.68795">
        <ele>132.2</ele>
        <time>2024-04-06T10:23:32Z</time>
      </trkpt>
      <trkpt lat="49.9795" lon="4.68783">
        <ele>132.2</ele>
        <time>2024-04-06T10:23:33Z</time>
      </trkpt>
      <trkpt lat="49.97946" lon="4.68772">
        <ele>132.2</ele>
        <time>2024-04-06T10:23:34Z</time>
      </trkpt>
      <trkpt lat="49.97943" lon="4.68759">
        <ele>132.2</ele>
        <time>2024-04-06T10:23:35Z</time>
      </trkpt>
      <trkpt lat="49.9794" lon="4.68747">
        <ele>132.4</ele>
        <time>2024-04-06T10:23:36Z</time>
      </trkpt>
      <trkpt lat="49.97937" lon="4.68734">
        <ele>132.4</ele>
        <time>2024-04-06T10:23:37Z</time>
      </trkpt>
      <trkpt lat="49.97934" lon="4.68722">
        <ele>132.6</ele>
        <time>2024-04-06T10:23:38Z</time>
      </trkpt>
      <trkpt lat="49.97932" lon="4.68709">
        <ele>132.6</ele>
        <time>2024-04-06T10:23:39Z</time>
      </trkpt>
      <trkpt lat="49.97929" lon="4.68697">
        <ele>132.6</ele>
        <time>2024-04-06T10:23:40Z</time>
      </trkpt>
      <trkpt lat="49.97926" lon="4.68684">
        <ele>132.4</ele>
        <time>2024-04-06T10:23:41Z</time>
      </trkpt>
      <trkpt lat="49.97924" lon="4.68672">
        <ele>132.4</ele>
        <time>2024-04-06T10:23:42Z</time>
      </trkpt>
      <trkpt lat="49.97921" lon="4.68659">
        <ele>132.6</ele>
        <time>2024-04-06T10:23:43Z</time>
      </trkpt>
      <trkpt lat="49.97919" lon="4.68646">
        <ele>132.4</ele>
        <time>2024-04-06T10:23:44Z</time>
      </trkpt>
      <trkpt lat="49.97916" lon="4.68634">
        <ele>132.4</ele>
        <time>2024-04-06T10:23:45Z</time>
      </trkpt>
      <trkpt lat="49.97914" lon="4.68621">
        <ele>132</ele>
        <time>2024-04-06T10:23:46Z</time>
      </trkpt>
      <trkpt lat="49.97912" lon="4.68608">
        <ele>132</ele>
        <time>2024-04-06T10:23:47Z</time>
      </trkpt>
      <trkpt lat="49.97911" lon="4.68596">
        <ele>131.8</ele>
        <time>2024-04-06T10:23:48Z</time>
      </trkpt>
      <trkpt lat="49.97911" lon="4.68584">
        <ele>131.6</ele>
        <time>2024-04-06T10:23:49Z</time>
      </trkpt>
      <trkpt lat="49.9791" lon="4.68572">
        <ele>131.6</ele>
        <time>2024-04-06T10:23:50Z</time>
      </trkpt>
      <trkpt lat="49.97911" lon="4.6856">
        <ele>131.4</ele>
        <time>2024-04-06T10:23:51Z</time>
      </trkpt>
      <trkpt lat="49.97911" lon="4.68548">
        <ele>131</ele>
        <time>2024-04-06T10:23:52Z</time>
      </trkpt>
      <trkpt lat="49.97911" lon="4.68537">
        <ele>130.8</ele>
        <time>2024-04-06T10:23:53Z</time>
      </trkpt>
      <trkpt lat="49.97912" lon="4.68525">
        <ele>130.6</ele>
        <time>2024-04-06T10:23:54Z</time>
      </trkpt>
      <trkpt lat="49.97914" lon="4.68514">
        <ele>130.4</ele>
        <time>2024-04-06T10:23:55Z</time>
      </trkpt>
      <trkpt lat="49.97916" lon="4.68503">
        <ele>130.2</ele>
        <time>2024-04-06T10:23:56Z</time>
      </trkpt>
      <trkpt lat="49.97918" lon="4.68492">
        <ele>130</ele>
        <time>2024-04-06T10:23:57Z</time>
      </trkpt>
      <trkpt lat="49.9792" lon="4.68481">
        <ele>130</ele>
        <time>2024-04-06T10:23:58Z</time>
      </trkpt>
      <trkpt lat="49.97922" lon="4.68471">
        <ele>130</ele>
        <time>2024-04-06T10:23:59Z</time>
      </trkpt>
      <trkpt lat="49.97924" lon="4.6846">
        <ele>130</ele>
        <time>2024-04-06T10:24:00Z</time>
      </trkpt>
      <trkpt lat="49.97926" lon="4.68449">
        <ele>130</ele>
        <time>2024-04-06T10:24:01Z</time>
      </trkpt>
      <trkpt lat="49.97928" lon="4.68438">
        <ele>129.8</ele>
        <time>2024-04-06T10:24:02Z</time>
      </trkpt>
      <trkpt lat="49.9793" lon="4.68427">
        <ele>129.8</ele>
        <time>2024-04-06T10:24:03Z</time>
      </trkpt>
      <trkpt lat="49.97933" lon="4.68417">
        <ele>129.8</ele>
        <time>2024-04-06T10:24:04Z</time>
      </trkpt>
      <trkpt lat="49.97935" lon="4.68406">
        <ele>129.8</ele>
        <time>2024-04-06T10:24:05Z</time>
      </trkpt>
      <trkpt lat="49.97937" lon="4.68395">
        <ele>129.8</ele>
        <time>2024-04-06T10:24:06Z</time>
      </trkpt>
      <trkpt lat="49.97939" lon="4.68384">
        <ele>130</ele>
        <time>2024-04-06T10:24:07Z</time>
      </trkpt>
      <trkpt lat="49.97941" lon="4.68373">
        <ele>129.8</ele>
        <time>2024-04-06T10:24:08Z</time>
      </trkpt>
      <trkpt lat="49.97943" lon="4.68362">
        <ele>129.8</ele>
        <time>2024-04-06T10:24:09Z</time>
      </trkpt>
      <trkpt lat="49.97945" lon="4.68351">
        <ele>130</ele>
        <time>2024-04-06T10:24:10Z</time>
      </trkpt>
      <trkpt lat="49.97947" lon="4.6834">
        <ele>130</ele>
        <time>2024-04-06T10:24:11Z</time>
      </trkpt>
      <trkpt lat="49.9795" lon="4.68328">
        <ele>130.2</ele>
        <time>2024-04-06T10:24:12Z</time>
      </trkpt>
      <trkpt lat="49.97952" lon="4.68317">
        <ele>130.2</ele>
        <time>2024-04-06T10:24:13Z</time>
      </trkpt>
      <trkpt lat="49.97954" lon="4.68306">
        <ele>130.4</ele>
        <time>2024-04-06T10:24:14Z</time>
      </trkpt>
      <trkpt lat="49.97956" lon="4.68295">
        <ele>130.6</ele>
        <time>2024-04-06T10:24:15Z</time>
      </trkpt>
      <trkpt lat="49.97959" lon="4.68283">
        <ele>130.8</ele>
        <time>2024-04-06T10:24:16Z</time>
      </trkpt>
      <trkpt lat="49.97961" lon="4.68272">
        <ele>130.8</ele>
        <time>2024-04-06T10:24:17Z</time>
      </trkpt>
      <trkpt lat="49.97963" lon="4.68261">
        <ele>130.8</ele>
        <time>2024-04-06T10:24:18Z</time>
      </trkpt>
      <trkpt lat="49.97966" lon="4.6825">
        <ele>131</ele>
        <time>2024-04-06T10:24:19Z</time>
      </trkpt>
      <trkpt lat="49.97968" lon="4.68238">
        <ele>131</ele>
        <time>2024-04-06T10:24:20Z</time>
      </trkpt>
      <trkpt lat="49.9797" lon="4.68227">
        <ele>131</ele>
        <time>2024-04-06T10:24:21Z</time>
      </trkpt>
      <trkpt lat="49.97972" lon="4.68216">
        <ele>131</ele>
        <time>2024-04-06T10:24:22Z</time>
      </trkpt>
      <trkpt lat="49.97975" lon="4.68205">
        <ele>131</ele>
        <time>2024-04-06T10:24:23Z</time>
      </trkpt>
      <trkpt lat="49.97977" lon="4.68194">
        <ele>131</ele>
        <time>2024-04-06T10:24:24Z</time>
      </trkpt>
      <trkpt lat="49.97979" lon="4.68182">
        <ele>130.8</ele>
        <time>2024-04-06T10:24:25Z</time>
      </trkpt>
      <trkpt lat="49.97982" lon="4.68171">
        <ele>131</ele>
        <time>2024-04-06T10:24:26Z</time>
      </trkpt>
      <trkpt lat="49.97984" lon="4.6816">
        <ele>130.8</ele>
        <time>2024-04-06T10:24:27Z</time>
      </trkpt>
      <trkpt lat="49.97986" lon="4.6815">
        <ele>130.8</ele>
        <time>2024-04-06T10:24:28Z</time>
      </trkpt>
      <trkpt lat="49.97988" lon="4.68139">
        <ele>130.8</ele>
        <time>2024-04-06T10:24:29Z</time>
      </trkpt>
      <trkpt lat="49.9799" lon="4.68128">
        <ele>130.8</ele>
        <time>2024-04-06T10:24:30Z</time>
      </trkpt>
      <trkpt lat="49.97992" lon="4.68116">
        <ele>130.6</ele>
        <time>2024-04-06T10:24:31Z</time>
      </trkpt>
      <trkpt lat="49.97995" lon="4.68105">
        <ele>130.6</ele>
        <time>2024-04-06T10:24:32Z</time>
      </trkpt>
      <trkpt lat="49.97997" lon="4.68094">
        <ele>130.4</ele>
        <time>2024-04-06T10:24:33Z</time>
      </trkpt>
      <trkpt lat="49.97999" lon="4.68082">
        <ele>130.2</ele>
        <time>2024-04-06T10:24:34Z</time>
      </trkpt>
      <trkpt lat="49.98001" lon="4.68071">
        <ele>130.2</ele>
        <time>2024-04-06T10:24:35Z</time>
      </trkpt>
      <trkpt lat="49.98004" lon="4.6806">
        <ele>130</ele>
        <time>2024-04-06T10:24:36Z</time>
      </trkpt>
      <trkpt lat="49.98006" lon="4.68049">
        <ele>129.8</ele>
        <time>2024-04-06T10:24:37Z</time>
      </trkpt>
      <trkpt lat="49.98008" lon="4.68038">
        <ele>129.4</ele>
        <time>2024-04-06T10:24:38Z</time>
      </trkpt>
      <trkpt lat="49.98011" lon="4.68027">
        <ele>129.4</ele>
        <time>2024-04-06T10:24:39Z</time>
      </trkpt>
      <trkpt lat="49.98013" lon="4.68016">
        <ele>129.4</ele>
        <time>2024-04-06T10:24:40Z</time>
      </trkpt>
      <trkpt lat="49.98015" lon="4.68005">
        <ele>129.4</ele>
        <time>2024-04-06T10:24:41Z</time>
      </trkpt>
      <trkpt lat="49.98018" lon="4.67994">
        <ele>129.4</ele>
        <time>2024-04-06T10:24:42Z</time>
      </trkpt>
      <trkpt lat="49.98021" lon="4.67983">
        <ele>129.2</ele>
        <time>2024-04-06T10:24:43Z</time>
      </trkpt>
      <trkpt lat="49.98024" lon="4.67972">
        <ele>129.2</ele>
        <time>2024-04-06T10:24:44Z</time>
      </trkpt>
      <trkpt lat="49.98026" lon="4.67961">
        <ele>129.2</ele>
        <time>2024-04-06T10:24:45Z</time>
      </trkpt>
      <trkpt lat="49.98029" lon="4.67949">
        <ele>129.4</ele>
        <time>2024-04-06T10:24:46Z</time>
      </trkpt>
      <trkpt lat="49.98033" lon="4.67938">
        <ele>129.8</ele>
        <time>2024-04-06T10:24:47Z</time>
      </trkpt>
      <trkpt lat="49.98036" lon="4.67927">
        <ele>130</ele>
        <time>2024-04-06T10:24:48Z</time>
      </trkpt>
      <trkpt lat="49.98039" lon="4.67916">
        <ele>130</ele>
        <time>2024-04-06T10:24:49Z</time>
      </trkpt>
      <trkpt lat="49.98042" lon="4.67904">
        <ele>130</ele>
        <time>2024-04-06T10:24:50Z</time>
      </trkpt>
      <trkpt lat="49.98045" lon="4.67893">
        <ele>129.6</ele>
        <time>2024-04-06T10:24:51Z</time>
      </trkpt>
      <trkpt lat="49.98048" lon="4.67881">
        <ele>129.4</ele>
        <time>2024-04-06T10:24:52Z</time>
      </trkpt>
      <trkpt lat="49.98051" lon="4.67869">
        <ele>129.2</ele>
        <time>2024-04-06T10:24:53Z</time>
      </trkpt>
      <trkpt lat="49.98055" lon="4.67857">
        <ele>129.2</ele>
        <time>2024-04-06T10:24:54Z</time>
      </trkpt>
      <trkpt lat="49.98058" lon="4.67845">
        <ele>129.2</ele>
        <time>2024-04-06T10:24:55Z</time>
      </trkpt>
      <trkpt lat="49.98061" lon="4.67832">
        <ele>129.4</ele>
        <time>2024-04-06T10:24:56Z</time>
      </trkpt>
      <trkpt lat="49.98065" lon="4.6782">
        <ele>129.2</ele>
        <time>2024-04-06T10:24:57Z</time>
      </trkpt>
      <trkpt lat="49.98068" lon="4.67808">
        <ele>129.2</ele>
        <time>2024-04-06T10:24:58Z</time>
      </trkpt>
      <trkpt lat="49.98072" lon="4.67796">
        <ele>129.2</ele>
        <time>2024-04-06T10:24:59Z</time>
      </trkpt>
      <trkpt lat="49.98075" lon="4.67784">
        <ele>129.2</ele>
        <time>2024-04-06T10:25:00Z</time>
      </trkpt>
      <trkpt lat="49.98078" lon="4.67772">
        <ele>129.2</ele>
        <time>2024-04-06T10:25:01Z</time>
      </trkpt>
      <trkpt lat="49.98082" lon="4.67761">
        <ele>129.2</ele>
        <time>2024-04-06T10:25:02Z</time>
      </trkpt>
      <trkpt lat="49.98085" lon="4.67749">
        <ele>129</ele>
        <time>2024-04-06T10:25:03Z</time>
      </trkpt>
      <trkpt lat="49.98089" lon="4.67738">
        <ele>129</ele>
        <time>2024-04-06T10:25:04Z</time>
      </trkpt>
      <trkpt lat="49.98092" lon="4.67727">
        <ele>129</ele>
        <time>2024-04-06T10:25:05Z</time>
      </trkpt>
      <trkpt lat="49.98096" lon="4.67716">
        <ele>129</ele>
        <time>2024-04-06T10:25:06Z</time>
      </trkpt>
      <trkpt lat="49.98099" lon="4.67704">
        <ele>129</ele>
        <time>2024-04-06T10:25:07Z</time>
      </trkpt>
      <trkpt lat="49.98102" lon="4.67693">
        <ele>129</ele>
        <time>2024-04-06T10:25:08Z</time>
      </trkpt>
      <trkpt lat="49.98106" lon="4.67681">
        <ele>129</ele>
        <time>2024-04-06T10:25:09Z</time>
      </trkpt>
      <trkpt lat="49.98109" lon="4.67669">
        <ele>128.8</ele>
        <time>2024-04-06T10:25:10Z</time>
      </trkpt>
      <trkpt lat="49.98112" lon="4.67658">
        <ele>129</ele>
        <time>2024-04-06T10:25:11Z</time>
      </trkpt>
      <trkpt lat="49.98116" lon="4.67646">
        <ele>128.8</ele>
        <time>2024-04-06T10:25:12Z</time>
      </trkpt>
      <trkpt lat="49.98119" lon="4.67633">
        <ele>129</ele>
        <time>2024-04-06T10:25:13Z</time>
      </trkpt>
      <trkpt lat="49.98122" lon="4.67621">
        <ele>129</ele>
        <time>2024-04-06T10:25:14Z</time>
      </trkpt>
      <trkpt lat="49.98125" lon="4.67609">
        <ele>129</ele>
        <time>2024-04-06T10:25:15Z</time>
      </trkpt>
      <trkpt lat="49.98128" lon="4.67597">
        <ele>129</ele>
        <time>2024-04-06T10:25:16Z</time>
      </trkpt>
      <trkpt lat="49.9813" lon="4.67585">
        <ele>129</ele>
        <time>2024-04-06T10:25:17Z</time>
      </trkpt>
      <trkpt lat="49.98133" lon="4.67573">
        <ele>129</ele>
        <time>2024-04-06T10:25:18Z</time>
      </trkpt>
      <trkpt lat="49.98136" lon="4.6756">
        <ele>129</ele>
        <time>2024-04-06T10:25:19Z</time>
      </trkpt>
      <trkpt lat="49.98138" lon="4.67548">
        <ele>129</ele>
        <time>2024-04-06T10:25:20Z</time>
      </trkpt>
      <trkpt lat="49.98141" lon="4.67536">
        <ele>129</ele>
        <time>2024-04-06T10:25:21Z</time>
      </trkpt>
      <trkpt lat="49.98143" lon="4.67524">
        <ele>129</ele>
        <time>2024-04-06T10:25:22Z</time>
      </trkpt>
      <trkpt lat="49.98145" lon="4.67512">
        <ele>129</ele>
        <time>2024-04-06T10:25:23Z</time>
      </trkpt>
      <trkpt lat="49.98147" lon="4.675">
        <ele>129.2</ele>
        <time>2024-04-06T10:25:24Z</time>
      </trkpt>
      <trkpt lat="49.98148" lon="4.67488">
        <ele>129.2</ele>
        <time>2024-04-06T10:25:25Z</time>
      </trkpt>
      <trkpt lat="49.9815" lon="4.67476">
        <ele>129.2</ele>
        <time>2024-04-06T10:25:26Z</time>
      </trkpt>
      <trkpt lat="49.98151" lon="4.67464">
        <ele>129.2</ele>
        <time>2024-04-06T10:25:27Z</time>
      </trkpt>
      <trkpt lat="49.98152" lon="4.67453">
        <ele>129.4</ele>
        <time>2024-04-06T10:25:28Z</time>
      </trkpt>
      <trkpt lat="49.98154" lon="4.67441">
        <ele>129.4</ele>
        <time>2024-04-06T10:25:29Z</time>
      </trkpt>
      <trkpt lat="49.98155" lon="4.6743">
        <ele>129.2</ele>
        <time>2024-04-06T10:25:30Z</time>
      </trkpt>
      <trkpt lat="49.98156" lon="4.67419">
        <ele>129.2</ele>
        <time>2024-04-06T10:25:31Z</time>
      </trkpt>
      <trkpt lat="49.98157" lon="4.67408">
        <ele>129.2</ele>
        <time>2024-04-06T10:25:32Z</time>
      </trkpt>
      <trkpt lat="49.98158" lon="4.67397">
        <ele>129.2</ele>
        <time>2024-04-06T10:25:33Z</time>
      </trkpt>
      <trkpt lat="49.98159" lon="4.67386">
        <ele>129</ele>
        <time>2024-04-06T10:25:34Z</time>
      </trkpt>
      <trkpt lat="49.9816" lon="4.67375">
        <ele>129.2</ele>
        <time>2024-04-06T10:25:35Z</time>
      </trkpt>
      <trkpt lat="49.98161" lon="4.67364">
        <ele>129.2</ele>
        <time>2024-04-06T10:25:36Z</time>
      </trkpt>
      <trkpt lat="49.98162" lon="4.67352">
        <ele>129.2</ele>
        <time>2024-04-06T10:25:37Z</time>
      </trkpt>
      <trkpt lat="49.98163" lon="4.67341">
        <ele>129</ele>
        <time>2024-04-06T10:25:38Z</time>
      </trkpt>
      <trkpt lat="49.98164" lon="4.67329">
        <ele>129</ele>
        <time>2024-04-06T10:25:39Z</time>
      </trkpt>
      <trkpt lat="49.98165" lon="4.67317">
        <ele>129.2</ele>
        <time>2024-04-06T10:25:40Z</time>
      </trkpt>
      <trkpt lat="49.98166" lon="4.67305">
        <ele>129</ele>
        <time>2024-04-06T10:25:41Z</time>
      </trkpt>
      <trkpt lat="49.98167" lon="4.67293">
        <ele>129.2</ele>
        <time>2024-04-06T10:25:42Z</time>
      </trkpt>
      <trkpt lat="49.98168" lon="4.6728">
        <ele>129</ele>
        <time>2024-04-06T10:25:43Z</time>
      </trkpt>
      <trkpt lat="49.98169" lon="4.67268">
        <ele>129</ele>
        <time>2024-04-06T10:25:44Z</time>
      </trkpt>
      <trkpt lat="49.9817" lon="4.67255">
        <ele>129</ele>
        <time>2024-04-06T10:25:45Z</time>
      </trkpt>
      <trkpt lat="49.9817" lon="4.67243">
        <ele>129.2</ele>
        <time>2024-04-06T10:25:46Z</time>
      </trkpt>
      <trkpt lat="49.98171" lon="4.6723">
        <ele>129.2</ele>
        <time>2024-04-06T10:25:47Z</time>
      </trkpt>
      <trkpt lat="49.98171" lon="4.67217">
        <ele>129.4</ele>
        <time>2024-04-06T10:25:48Z</time>
      </trkpt>
      <trkpt lat="49.98171" lon="4.67205">
        <ele>129.4</ele>
        <time>2024-04-06T10:25:49Z</time>
      </trkpt>
      <trkpt lat="49.98171" lon="4.67192">
        <ele>129.4</ele>
        <time>2024-04-06T10:25:50Z</time>
      </trkpt>
      <trkpt lat="49.98171" lon="4.6718">
        <ele>129.4</ele>
        <time>2024-04-06T10:25:51Z</time>
      </trkpt>
      <trkpt lat="49.98171" lon="4.67167">
        <ele>129.4</ele>
        <time>2024-04-06T10:25:52Z</time>
      </trkpt>
      <trkpt lat="49.98171" lon="4.67155">
        <ele>129.4</ele>
        <time>2024-04-06T10:25:53Z</time>
      </trkpt>
      <trkpt lat="49.98171" lon="4.67142">
        <ele>129.4</ele>
        <time>2024-04-06T10:25:54Z</time>
      </trkpt>
      <trkpt lat="49.9817" lon="4.67129">
        <ele>129.4</ele>
        <time>2024-04-06T10:25:55Z</time>
      </trkpt>
      <trkpt lat="49.9817" lon="4.67117">
        <ele>129.4</ele>
        <time>2024-04-06T10:25:56Z</time>
      </trkpt>
      <trkpt lat="49.9817" lon="4.67104">
        <ele>129.4</ele>
        <time>2024-04-06T10:25:57Z</time>
      </trkpt>
      <trkpt lat="49.98169" lon="4.67091">
        <ele>129.4</ele>
        <time>2024-04-06T10:25:58Z</time>
      </trkpt>
      <trkpt lat="49.98169" lon="4.67078">
        <ele>129.4</ele>
        <time>2024-04-06T10:25:59Z</time>
      </trkpt>
      <trkpt lat="49.98168" lon="4.67065">
        <ele>129.4</ele>
        <time>2024-04-06T10:26:00Z</time>
      </trkpt>
      <trkpt lat="49.98167" lon="4.67053">
        <ele>129.4</ele>
        <time>2024-04-06T10:26:01Z</time>
      </trkpt>
      <trkpt lat="49.98167" lon="4.6704">
        <ele>129.4</ele>
        <time>2024-04-06T10:26:02Z</time>
      </trkpt>
      <trkpt lat="49.98166" lon="4.67028">
        <ele>129.4</ele>
        <time>2024-04-06T10:26:03Z</time>
      </trkpt>
      <trkpt lat="49.98165" lon="4.67015">
        <ele>129.2</ele>
        <time>2024-04-06T10:26:04Z</time>
      </trkpt>
      <trkpt lat="49.98164" lon="4.67003">
        <ele>129.2</ele>
        <time>2024-04-06T10:26:05Z</time>
      </trkpt>
      <trkpt lat="49.98163" lon="4.66991">
        <ele>129</ele>
        <time>2024-04-06T10:26:06Z</time>
      </trkpt>
      <trkpt lat="49.98162" lon="4.66978">
        <ele>129</ele>
        <time>2024-04-06T10:26:07Z</time>
      </trkpt>
      <trkpt lat="49.98161" lon="4.66966">
        <ele>128.8</ele>
        <time>2024-04-06T10:26:08Z</time>
      </trkpt>
      <trkpt lat="49.9816" lon="4.66954">
        <ele>128.6</ele>
        <time>2024-04-06T10:26:09Z</time>
      </trkpt>
      <trkpt lat="49.98158" lon="4.66942">
        <ele>128.6</ele>
        <time>2024-04-06T10:26:10Z</time>
      </trkpt>
      <trkpt lat="49.98156" lon="4.66929">
        <ele>128.8</ele>
        <time>2024-04-06T10:26:11Z</time>
      </trkpt>
      <trkpt lat="49.98154" lon="4.66917">
        <ele>128.8</ele>
        <time>2024-04-06T10:26:12Z</time>
      </trkpt>
      <trkpt lat="49.98152" lon="4.66905">
        <ele>128.8</ele>
        <time>2024-04-06T10:26:13Z</time>
      </trkpt>
      <trkpt lat="49.9815" lon="4.66892">
        <ele>128.6</ele>
        <time>2024-04-06T10:26:14Z</time>
      </trkpt>
      <trkpt lat="49.98149" lon="4.6688">
        <ele>128.6</ele>
        <time>2024-04-06T10:26:15Z</time>
      </trkpt>
      <trkpt lat="49.98147" lon="4.66869">
        <ele>128.6</ele>
        <time>2024-04-06T10:26:16Z</time>
      </trkpt>
      <trkpt lat="49.98145" lon="4.66857">
        <ele>128.6</ele>
        <time>2024-04-06T10:26:17Z</time>
      </trkpt>
      <trkpt lat="49.98142" lon="4.66846">
        <ele>128.6</ele>
        <time>2024-04-06T10:26:18Z</time>
      </trkpt>
      <trkpt lat="49.9814" lon="4.66834">
        <ele>128.4</ele>
        <time>2024-04-06T10:26:19Z</time>
      </trkpt>
      <trkpt lat="49.98138" lon="4.66822">
        <ele>128.6</ele>
        <time>2024-04-06T10:26:20Z</time>
      </trkpt>
      <trkpt lat="49.98136" lon="4.66811">
        <ele>128.6</ele>
        <time>2024-04-06T10:26:21Z</time>
      </trkpt>
      <trkpt lat="49.98134" lon="4.66799">
        <ele>129</ele>
        <time>2024-04-06T10:26:22Z</time>
      </trkpt>
      <trkpt lat="49.98132" lon="4.66788">
        <ele>129.2</ele>
        <time>2024-04-06T10:26:23Z</time>
      </trkpt>
      <trkpt lat="49.98129" lon="4.66776">
        <ele>129.2</ele>
        <time>2024-04-06T10:26:24Z</time>
      </trkpt>
      <trkpt lat="49.98127" lon="4.66764">
        <ele>129.2</ele>
        <time>2024-04-06T10:26:25Z</time>
      </trkpt>
      <trkpt lat="49.98124" lon="4.66753">
        <ele>129.2</ele>
        <time>2024-04-06T10:26:26Z</time>
      </trkpt>
      <trkpt lat="49.98121" lon="4.66741">
        <ele>129.2</ele>
        <time>2024-04-06T10:26:27Z</time>
      </trkpt>
      <trkpt lat="49.98118" lon="4.66729">
        <ele>129.2</ele>
        <time>2024-04-06T10:26:28Z</time>
      </trkpt>
      <trkpt lat="49.98115" lon="4.66718">
        <ele>129.4</ele>
        <time>2024-04-06T10:26:29Z</time>
      </trkpt>
      <trkpt lat="49.98111" lon="4.66707">
        <ele>129.4</ele>
        <time>2024-04-06T10:26:30Z</time>
      </trkpt>
      <trkpt lat="49.98108" lon="4.66696">
        <ele>129.2</ele>
        <time>2024-04-06T10:26:31Z</time>
      </trkpt>
      <trkpt lat="49.98104" lon="4.66685">
        <ele>129.2</ele>
        <time>2024-04-06T10:26:32Z</time>
      </trkpt>
      <trkpt lat="49.981" lon="4.66674">
        <ele>129.2</ele>
        <time>2024-04-06T10:26:33Z</time>
      </trkpt>
      <trkpt lat="49.98096" lon="4.66663">
        <ele>129</ele>
        <time>2024-04-06T10:26:34Z</time>
      </trkpt>
      <trkpt lat="49.98092" lon="4.66653">
        <ele>129</ele>
        <time>2024-04-06T10:26:35Z</time>
      </trkpt>
      <trkpt lat="49.98088" lon="4.66643">
        <ele>129</ele>
        <time>2024-04-06T10:26:36Z</time>
      </trkpt>
      <trkpt lat="49.98083" lon="4.66633">
        <ele>129</ele>
        <time>2024-04-06T10:26:37Z</time>
      </trkpt>
      <trkpt lat="49.98079" lon="4.66624">
        <ele>129</ele>
        <time>2024-04-06T10:26:38Z</time>
      </trkpt>
      <trkpt lat="49.98075" lon="4.66614">
        <ele>129</ele>
        <time>2024-04-06T10:26:39Z</time>
      </trkpt>
      <trkpt lat="49.9807" lon="4.66605">
        <ele>128.8</ele>
        <time>2024-04-06T10:26:40Z</time>
      </trkpt>
      <trkpt lat="49.98066" lon="4.66595">
        <ele>128.8</ele>
        <time>2024-04-06T10:26:41Z</time>
      </trkpt>
      <trkpt lat="49.98061" lon="4.66585">
        <ele>128.6</ele>
        <time>2024-04-06T10:26:42Z</time>
      </trkpt>
      <trkpt lat="49.98056" lon="4.66576">
        <ele>128.4</ele>
        <time>2024-04-06T10:26:43Z</time>
      </trkpt>
      <trkpt lat="49.98051" lon="4.66567">
        <ele>128.4</ele>
        <time>2024-04-06T10:26:44Z</time>
      </trkpt>
      <trkpt lat="49.98046" lon="4.66557">
        <ele>128.6</ele>
        <time>2024-04-06T10:26:45Z</time>
      </trkpt>
      <trkpt lat="49.98041" lon="4.66548">
        <ele>128.6</ele>
        <time>2024-04-06T10:26:46Z</time>
      </trkpt>
      <trkpt lat="49.98036" lon="4.66539">
        <ele>128.4</ele>
        <time>2024-04-06T10:26:47Z</time>
      </trkpt>
      <trkpt lat="49.9803" lon="4.6653">
        <ele>128.4</ele>
        <time>2024-04-06T10:26:48Z</time>
      </trkpt>
      <trkpt lat="49.98024" lon="4.66521">
        <ele>128.4</ele>
        <time>2024-04-06T10:26:49Z</time>
      </trkpt>
      <trkpt lat="49.98019" lon="4.66512">
        <ele>128.6</ele>
        <time>2024-04-06T10:26:50Z</time>
      </trkpt>
      <trkpt lat="49.98013" lon="4.66503">
        <ele>128.4</ele>
        <time>2024-04-06T10:26:51Z</time>
      </trkpt>
      <trkpt lat="49.98008" lon="4.66494">
        <ele>128.8</ele>
        <time>2024-04-06T10:26:52Z</time>
      </trkpt>
      <trkpt lat="49.98002" lon="4.66485">
        <ele>129</ele>
        <time>2024-04-06T10:26:53Z</time>
      </trkpt>
      <trkpt lat="49.97997" lon="4.66476">
        <ele>129</ele>
        <time>2024-04-06T10:26:54Z</time>
      </trkpt>
      <trkpt lat="49.97991" lon="4.66467">
        <ele>129.2</ele>
        <time>2024-04-06T10:26:55Z</time>
      </trkpt>
      <trkpt lat="49.97986" lon="4.66459">
        <ele>129.2</ele>
        <time>2024-04-06T10:26:56Z</time>
      </trkpt>
      <trkpt lat="49.9798" lon="4.6645">
        <ele>129</ele>
        <time>2024-04-06T10:26:57Z</time>
      </trkpt>
      <trkpt lat="49.97974" lon="4.66442">
        <ele>129</ele>
        <time>2024-04-06T10:26:58Z</time>
      </trkpt>
      <trkpt lat="49.97968" lon="4.66433">
        <ele>129.2</ele>
        <time>2024-04-06T10:26:59Z</time>
      </trkpt>
      <trkpt lat="49.97963" lon="4.66425">
        <ele>129.2</ele>
        <time>2024-04-06T10:27:00Z</time>
      </trkpt>
      <trkpt lat="49.97958" lon="4.66416">
        <ele>129.2</ele>
        <time>2024-04-06T10:27:01Z</time>
      </trkpt>
      <trkpt lat="49.97952" lon="4.66408">
        <ele>129.2</ele>
        <time>2024-04-06T10:27:02Z</time>
      </trkpt>
      <trkpt lat="49.97946" lon="4.664">
        <ele>129.2</ele>
        <time>2024-04-06T10:27:03Z</time>
      </trkpt>
      <trkpt lat="49.97941" lon="4.66392">
        <ele>129.2</ele>
        <time>2024-04-06T10:27:04Z</time>
      </trkpt>
      <trkpt lat="49.97935" lon="4.66384">
        <ele>129.2</ele>
        <time>2024-04-06T10:27:05Z</time>
      </trkpt>
      <trkpt lat="49.97929" lon="4.66376">
        <ele>129</ele>
        <time>2024-04-06T10:27:06Z</time>
      </trkpt>
      <trkpt lat="49.97923" lon="4.66368">
        <ele>129.2</ele>
        <time>2024-04-06T10:27:07Z</time>
      </trkpt>
      <trkpt lat="49.97917" lon="4.6636">
        <ele>129.2</ele>
        <time>2024-04-06T10:27:08Z</time>
      </trkpt>
      <trkpt lat="49.9791" lon="4.66352">
        <ele>129.2</ele>
        <time>2024-04-06T10:27:09Z</time>
      </trkpt>
      <trkpt lat="49.97904" lon="4.66344">
        <ele>129.2</ele>
        <time>2024-04-06T10:27:10Z</time>
      </trkpt>
      <trkpt lat="49.97897" lon="4.66336">
        <ele>129.2</ele>
        <time>2024-04-06T10:27:11Z</time>
      </trkpt>
      <trkpt lat="49.9789" lon="4.66329">
        <ele>129</ele>
        <time>2024-04-06T10:27:12Z</time>
      </trkpt>
      <trkpt lat="49.97884" lon="4.66322">
        <ele>128.8</ele>
        <time>2024-04-06T10:27:13Z</time>
      </trkpt>
      <trkpt lat="49.97877" lon="4.66315">
        <ele>128.6</ele>
        <time>2024-04-06T10:27:14Z</time>
      </trkpt>
      <trkpt lat="49.97871" lon="4.66308">
        <ele>128.4</ele>
        <time>2024-04-06T10:27:15Z</time>
      </trkpt>
      <trkpt lat="49.97864" lon="4.66302">
        <ele>128.4</ele>
        <time>2024-04-06T10:27:16Z</time>
      </trkpt>
      <trkpt lat="49.97858" lon="4.66296">
        <ele>128.4</ele>
        <time>2024-04-06T10:27:17Z</time>
      </trkpt>
      <trkpt lat="49.97851" lon="4.66289">
        <ele>128.4</ele>
        <time>2024-04-06T10:27:18Z</time>
      </trkpt>
      <trkpt lat="49.97845" lon="4.66283">
        <ele>128.4</ele>
        <time>2024-04-06T10:27:19Z</time>
      </trkpt>
      <trkpt lat="49.97838" lon="4.66276">
        <ele>128.2</ele>
        <time>2024-04-06T10:27:20Z</time>
      </trkpt>
      <trkpt lat="49.97831" lon="4.6627">
        <ele>128.2</ele>
        <time>2024-04-06T10:27:21Z</time>
      </trkpt>
      <trkpt lat="49.97825" lon="4.66264">
        <ele>128.4</ele>
        <time>2024-04-06T10:27:22Z</time>
      </trkpt>
      <trkpt lat="49.97818" lon="4.66258">
        <ele>128.4</ele>
        <time>2024-04-06T10:27:23Z</time>
      </trkpt>
      <trkpt lat="49.97811" lon="4.66252">
        <ele>128.2</ele>
        <time>2024-04-06T10:27:24Z</time>
      </trkpt>
      <trkpt lat="49.97805" lon="4.66246">
        <ele>128.2</ele>
        <time>2024-04-06T10:27:25Z</time>
      </trkpt>
      <trkpt lat="49.97798" lon="4.6624">
        <ele>128</ele>
        <time>2024-04-06T10:27:26Z</time>
      </trkpt>
      <trkpt lat="49.97791" lon="4.66235">
        <ele>128.2</ele>
        <time>2024-04-06T10:27:27Z</time>
      </trkpt>
      <trkpt lat="49.97784" lon="4.66229">
        <ele>128.2</ele>
        <time>2024-04-06T10:27:28Z</time>
      </trkpt>
      <trkpt lat="49.97777" lon="4.66223">
        <ele>128</ele>
        <time>2024-04-06T10:27:29Z</time>
      </trkpt>
      <trkpt lat="49.9777" lon="4.66217">
        <ele>128.2</ele>
        <time>2024-04-06T10:27:30Z</time>
      </trkpt>
      <trkpt lat="49.97763" lon="4.66212">
        <ele>128.2</ele>
        <time>2024-04-06T10:27:31Z</time>
      </trkpt>
      <trkpt lat="49.97755" lon="4.66206">
        <ele>128.2</ele>
        <time>2024-04-06T10:27:32Z</time>
      </trkpt>
      <trkpt lat="49.97748" lon="4.66201">
        <ele>128.2</ele>
        <time>2024-04-06T10:27:33Z</time>
      </trkpt>
      <trkpt lat="49.97741" lon="4.66196">
        <ele>128.4</ele>
        <time>2024-04-06T10:27:34Z</time>
      </trkpt>
      <trkpt lat="49.97733" lon="4.66191">
        <ele>128.2</ele>
        <time>2024-04-06T10:27:35Z</time>
      </trkpt>
      <trkpt lat="49.97726" lon="4.66187">
        <ele>128.6</ele>
        <time>2024-04-06T10:27:36Z</time>
      </trkpt>
      <trkpt lat="49.97718" lon="4.66183">
        <ele>128.6</ele>
        <time>2024-04-06T10:27:37Z</time>
      </trkpt>
      <trkpt lat="49.97711" lon="4.66179">
        <ele>128.6</ele>
        <time>2024-04-06T10:27:38Z</time>
      </trkpt>
      <trkpt lat="49.97703" lon="4.66174">
        <ele>128.8</ele>
        <time>2024-04-06T10:27:39Z</time>
      </trkpt>
      <trkpt lat="49.97695" lon="4.6617">
        <ele>128.8</ele>
        <time>2024-04-06T10:27:40Z</time>
      </trkpt>
      <trkpt lat="49.97687" lon="4.66165">
        <ele>128.8</ele>
        <time>2024-04-06T10:27:41Z</time>
      </trkpt>
      <trkpt lat="49.9768" lon="4.66161">
        <ele>128.8</ele>
        <time>2024-04-06T10:27:42Z</time>
      </trkpt>
      <trkpt lat="49.97672" lon="4.66158">
        <ele>128.8</ele>
        <time>2024-04-06T10:27:43Z</time>
      </trkpt>
      <trkpt lat="49.97665" lon="4.66155">
        <ele>129</ele>
        <time>2024-04-06T10:27:44Z</time>
      </trkpt>
      <trkpt lat="49.97657" lon="4.66152">
        <ele>128.8</ele>
        <time>2024-04-06T10:27:45Z</time>
      </trkpt>
      <trkpt lat="49.9765" lon="4.66149">
        <ele>128.8</ele>
        <time>2024-04-06T10:27:46Z</time>
      </trkpt>
      <trkpt lat="49.97642" lon="4.66146">
        <ele>129</ele>
        <time>2024-04-06T10:27:47Z</time>
      </trkpt>
      <trkpt lat="49.97635" lon="4.66143">
        <ele>128.6</ele>
        <time>2024-04-06T10:27:48Z</time>
      </trkpt>
      <trkpt lat="49.97628" lon="4.6614">
        <ele>128.8</ele>
        <time>2024-04-06T10:27:49Z</time>
      </trkpt>
      <trkpt lat="49.9762" lon="4.66137">
        <ele>128.8</ele>
        <time>2024-04-06T10:27:50Z</time>
      </trkpt>
      <trkpt lat="49.97613" lon="4.66135">
        <ele>128.8</ele>
        <time>2024-04-06T10:27:51Z</time>
      </trkpt>
      <trkpt lat="49.97605" lon="4.66132">
        <ele>129</ele>
        <time>2024-04-06T10:27:52Z</time>
      </trkpt>
      <trkpt lat="49.97598" lon="4.66129">
        <ele>129</ele>
        <time>2024-04-06T10:27:53Z</time>
      </trkpt>
      <trkpt lat="49.9759" lon="4.66125">
        <ele>129</ele>
        <time>2024-04-06T10:27:54Z</time>
      </trkpt>
      <trkpt lat="49.97583" lon="4.66122">
        <ele>129</ele>
        <time>2024-04-06T10:27:55Z</time>
      </trkpt>
      <trkpt lat="49.97575" lon="4.6612">
        <ele>129</ele>
        <time>2024-04-06T10:27:56Z</time>
      </trkpt>
      <trkpt lat="49.97568" lon="4.66117">
        <ele>129</ele>
        <time>2024-04-06T10:27:57Z</time>
      </trkpt>
      <trkpt lat="49.9756" lon="4.66113">
        <ele>129</ele>
        <time>2024-04-06T10:27:58Z</time>
      </trkpt>
      <trkpt lat="49.97553" lon="4.6611">
        <ele>129</ele>
        <time>2024-04-06T10:27:59Z</time>
      </trkpt>
      <trkpt lat="49.97546" lon="4.66107">
        <ele>129</ele>
        <time>2024-04-06T10:28:00Z</time>
      </trkpt>
      <trkpt lat="49.97538" lon="4.66104">
        <ele>129</ele>
        <time>2024-04-06T10:28:01Z</time>
      </trkpt>
      <trkpt lat="49.97531" lon="4.661">
        <ele>128.8</ele>
        <time>2024-04-06T10:28:02Z</time>
      </trkpt>
      <trkpt lat="49.97523" lon="4.66097">
        <ele>128.8</ele>
        <time>2024-04-06T10:28:03Z</time>
      </trkpt>
      <trkpt lat="49.97516" lon="4.66094">
        <ele>129</ele>
        <time>2024-04-06T10:28:04Z</time>
      </trkpt>
      <trkpt lat="49.97509" lon="4.66091">
        <ele>129.2</ele>
        <time>2024-04-06T10:28:05Z</time>
      </trkpt>
      <trkpt lat="49.97501" lon="4.66089">
        <ele>129.2</ele>
        <time>2024-04-06T10:28:06Z</time>
      </trkpt>
      <trkpt lat="49.97494" lon="4.66087">
        <ele>129.2</ele>
        <time>2024-04-06T10:28:07Z</time>
      </trkpt>
      <trkpt lat="49.97486" lon="4.66084">
        <ele>129.2</ele>
        <time>2024-04-06T10:28:08Z</time>
      </trkpt>
      <trkpt lat="49.97478" lon="4.66082">
        <ele>129.4</ele>
        <time>2024-04-06T10:28:09Z</time>
      </trkpt>
      <trkpt lat="49.9747" lon="4.6608">
        <ele>129.2</ele>
        <time>2024-04-06T10:28:10Z</time>
      </trkpt>
      <trkpt lat="49.97462" lon="4.66078">
        <ele>129.4</ele>
        <time>2024-04-06T10:28:11Z</time>
      </trkpt>
      <trkpt lat="49.97454" lon="4.66076">
        <ele>129.4</ele>
        <time>2024-04-06T10:28:12Z</time>
      </trkpt>
      <trkpt lat="49.97447" lon="4.66075">
        <ele>129.4</ele>
        <time>2024-04-06T10:28:13Z</time>
      </trkpt>
      <trkpt lat="49.97439" lon="4.66072">
        <ele>129.4</ele>
        <time>2024-04-06T10:28:14Z</time>
      </trkpt>
      <trkpt lat="49.97432" lon="4.66071">
        <ele>129.4</ele>
        <time>2024-04-06T10:28:15Z</time>
      </trkpt>
      <trkpt lat="49.97424" lon="4.66069">
        <ele>129.6</ele>
        <time>2024-04-06T10:28:16Z</time>
      </trkpt>
      <trkpt lat="49.97417" lon="4.66067">
        <ele>129.4</ele>
        <time>2024-04-06T10:28:17Z</time>
      </trkpt>
      <trkpt lat="49.97409" lon="4.66066">
        <ele>129.4</ele>
        <time>2024-04-06T10:28:18Z</time>
      </trkpt>
      <trkpt lat="49.97402" lon="4.66065">
        <ele>129.4</ele>
        <time>2024-04-06T10:28:19Z</time>
      </trkpt>
      <trkpt lat="49.97394" lon="4.66063">
        <ele>129.6</ele>
        <time>2024-04-06T10:28:20Z</time>
      </trkpt>
      <trkpt lat="49.97386" lon="4.66062">
        <ele>129.6</ele>
        <time>2024-04-06T10:28:21Z</time>
      </trkpt>
      <trkpt lat="49.97378" lon="4.6606">
        <ele>129.6</ele>
        <time>2024-04-06T10:28:22Z</time>
      </trkpt>
      <trkpt lat="49.9737" lon="4.66059">
        <ele>129.6</ele>
        <time>2024-04-06T10:28:23Z</time>
      </trkpt>
      <trkpt lat="49.97362" lon="4.66058">
        <ele>129.8</ele>
        <time>2024-04-06T10:28:24Z</time>
      </trkpt>
      <trkpt lat="49.97354" lon="4.66057">
        <ele>129.6</ele>
        <time>2024-04-06T10:28:25Z</time>
      </trkpt>
      <trkpt lat="49.97345" lon="4.66056">
        <ele>129.8</ele>
        <time>2024-04-06T10:28:26Z</time>
      </trkpt>
      <trkpt lat="49.97337" lon="4.66056">
        <ele>129.8</ele>
        <time>2024-04-06T10:28:27Z</time>
      </trkpt>
      <trkpt lat="49.97329" lon="4.66056">
        <ele>129.8</ele>
        <time>2024-04-06T10:28:28Z</time>
      </trkpt>
      <trkpt lat="49.9732" lon="4.66056">
        <ele>129.8</ele>
        <time>2024-04-06T10:28:29Z</time>
      </trkpt>
      <trkpt lat="49.97312" lon="4.66057">
        <ele>129.8</ele>
        <time>2024-04-06T10:28:30Z</time>
      </trkpt>
      <trkpt lat="49.97304" lon="4.66058">
        <ele>130.2</ele>
        <time>2024-04-06T10:28:31Z</time>
      </trkpt>
      <trkpt lat="49.97296" lon="4.66059">
        <ele>130.4</ele>
        <time>2024-04-06T10:28:32Z</time>
      </trkpt>
      <trkpt lat="49.97288" lon="4.66061">
        <ele>130.4</ele>
        <time>2024-04-06T10:28:33Z</time>
      </trkpt>
      <trkpt lat="49.97279" lon="4.66063">
        <ele>130.4</ele>
        <time>2024-04-06T10:28:34Z</time>
      </trkpt>
      <trkpt lat="49.97271" lon="4.66065">
        <ele>130.6</ele>
        <time>2024-04-06T10:28:35Z</time>
      </trkpt>
      <trkpt lat="49.97263" lon="4.66067">
        <ele>130.8</ele>
        <time>2024-04-06T10:28:36Z</time>
      </trkpt>
      <trkpt lat="49.97255" lon="4.6607">
        <ele>130.6</ele>
        <time>2024-04-06T10:28:37Z</time>
      </trkpt>
      <trkpt lat="49.97248" lon="4.66073">
        <ele>130.8</ele>
        <time>2024-04-06T10:28:38Z</time>
      </trkpt>
      <trkpt lat="49.9724" lon="4.66075">
        <ele>130.8</ele>
        <time>2024-04-06T10:28:39Z</time>
      </trkpt>
      <trkpt lat="49.97232" lon="4.66079">
        <ele>130.8</ele>
        <time>2024-04-06T10:28:40Z</time>
      </trkpt>
      <trkpt lat="49.97224" lon="4.66083">
        <ele>130.8</ele>
        <time>2024-04-06T10:28:41Z</time>
      </trkpt>
      <trkpt lat="49.97216" lon="4.66086">
        <ele>131</ele>
        <time>2024-04-06T10:28:42Z</time>
      </trkpt>
      <trkpt lat="49.97209" lon="4.66089">
        <ele>131</ele>
        <time>2024-04-06T10:28:43Z</time>
      </trkpt>
      <trkpt lat="49.97201" lon="4.66092">
        <ele>131</ele>
        <time>2024-04-06T10:28:44Z</time>
      </trkpt>
      <trkpt lat="49.97193" lon="4.66096">
        <ele>131</ele>
        <time>2024-04-06T10:28:45Z</time>
      </trkpt>
      <trkpt lat="49.97185" lon="4.66099">
        <ele>131</ele>
        <time>2024-04-06T10:28:46Z</time>
      </trkpt>
      <trkpt lat="49.97177" lon="4.66102">
        <ele>131.2</ele>
        <time>2024-04-06T10:28:47Z</time>
      </trkpt>
      <trkpt lat="49.97169" lon="4.66106">
        <ele>131.2</ele>
        <time>2024-04-06T10:28:48Z</time>
      </trkpt>
      <trkpt lat="49.97161" lon="4.66109">
        <ele>131.2</ele>
        <time>2024-04-06T10:28:49Z</time>
      </trkpt>
      <trkpt lat="49.97153" lon="4.66111">
        <ele>131.2</ele>
        <time>2024-04-06T10:28:50Z</time>
      </trkpt>
      <trkpt lat="49.97145" lon="4.66114">
        <ele>131.4</ele>
        <time>2024-04-06T10:28:51Z</time>
      </trkpt>
      <trkpt lat="49.97137" lon="4.66116">
        <ele>131.4</ele>
        <time>2024-04-06T10:28:52Z</time>
      </trkpt>
      <trkpt lat="49.97129" lon="4.66117">
        <ele>131.4</ele>
        <time>2024-04-06T10:28:53Z</time>
      </trkpt>
      <trkpt lat="49.97121" lon="4.66118">
        <ele>131.2</ele>
        <time>2024-04-06T10:28:54Z</time>
      </trkpt>
      <trkpt lat="49.97113" lon="4.66119">
        <ele>131.2</ele>
        <time>2024-04-06T10:28:55Z</time>
      </trkpt>
      <trkpt lat="49.97105" lon="4.66119">
        <ele>131.4</ele>
        <time>2024-04-06T10:28:56Z</time>
      </trkpt>
      <trkpt lat="49.97097" lon="4.66119">
        <ele>131</ele>
        <time>2024-04-06T10:28:57Z</time>
      </trkpt>
      <trkpt lat="49.9709" lon="4.66118">
        <ele>131</ele>
        <time>2024-04-06T10:28:58Z</time>
      </trkpt>
      <trkpt lat="49.97082" lon="4.66118">
        <ele>130.8</ele>
        <time>2024-04-06T10:28:59Z</time>
      </trkpt>
      <trkpt lat="49.97075" lon="4.66117">
        <ele>130.8</ele>
        <time>2024-04-06T10:29:00Z</time>
      </trkpt>
      <trkpt lat="49.97068" lon="4.66116">
        <ele>130.6</ele>
        <time>2024-04-06T10:29:01Z</time>
      </trkpt>
      <trkpt lat="49.97061" lon="4.66115">
        <ele>130.6</ele>
        <time>2024-04-06T10:29:02Z</time>
      </trkpt>
      <trkpt lat="49.97054" lon="4.66113">
        <ele>130.6</ele>
        <time>2024-04-06T10:29:03Z</time>
      </trkpt>
      <trkpt lat="49.97047" lon="4.66112">
        <ele>130.6</ele>
        <time>2024-04-06T10:29:04Z</time>
      </trkpt>
      <trkpt lat="49.9704" lon="4.66111">
        <ele>130.6</ele>
        <time>2024-04-06T10:29:05Z</time>
      </trkpt>
      <trkpt lat="49.97033" lon="4.6611">
        <ele>130.6</ele>
        <time>2024-04-06T10:29:06Z</time>
      </trkpt>
      <trkpt lat="49.97026" lon="4.66108">
        <ele>130.6</ele>
        <time>2024-04-06T10:29:07Z</time>
      </trkpt>
      <trkpt lat="49.97019" lon="4.66107">
        <ele>130.8</ele>
        <time>2024-04-06T10:29:08Z</time>
      </trkpt>
      <trkpt lat="49.97012" lon="4.66105">
        <ele>130.8</ele>
        <time>2024-04-06T10:29:09Z</time>
      </trkpt>
      <trkpt lat="49.97005" lon="4.66103">
        <ele>131</ele>
        <time>2024-04-06T10:29:10Z</time>
      </trkpt>
      <trkpt lat="49.96998" lon="4.66101">
        <ele>131.4</ele>
        <time>2024-04-06T10:29:11Z</time>
      </trkpt>
      <trkpt lat="49.96991" lon="4.66099">
        <ele>131.8</ele>
        <time>2024-04-06T10:29:12Z</time>
      </trkpt>
      <trkpt lat="49.96984" lon="4.66097">
        <ele>132.2</ele>
        <time>2024-04-06T10:29:13Z</time>
      </trkpt>
      <trkpt lat="49.96977" lon="4.66095">
        <ele>132.4</ele>
        <time>2024-04-06T10:29:14Z</time>
      </trkpt>
      <trkpt lat="49.96969" lon="4.66093">
        <ele>132.6</ele>
        <time>2024-04-06T10:29:15Z</time>
      </trkpt>
      <trkpt lat="49.96962" lon="4.6609">
        <ele>132.6</ele>
        <time>2024-04-06T10:29:16Z</time>
      </trkpt>
      <trkpt lat="49.96954" lon="4.66087">
        <ele>133</ele>
        <time>2024-04-06T10:29:17Z</time>
      </trkpt>
      <trkpt lat="49.96946" lon="4.66084">
        <ele>133.4</ele>
        <time>2024-04-06T10:29:18Z</time>
      </trkpt>
      <trkpt lat="49.96939" lon="4.66081">
        <ele>133.6</ele>
        <time>2024-04-06T10:29:19Z</time>
      </trkpt>
      <trkpt lat="49.96931" lon="4.66078">
        <ele>133.8</ele>
        <time>2024-04-06T10:29:20Z</time>
      </trkpt>
      <trkpt lat="49.96923" lon="4.66075">
        <ele>134</ele>
        <time>2024-04-06T10:29:21Z</time>
      </trkpt>
      <trkpt lat="49.96915" lon="4.66072">
        <ele>134.2</ele>
        <time>2024-04-06T10:29:22Z</time>
      </trkpt>
      <trkpt lat="49.96907" lon="4.66069">
        <ele>134</ele>
        <time>2024-04-06T10:29:23Z</time>
      </trkpt>
      <trkpt lat="49.96899" lon="4.66066">
        <ele>134.2</ele>
        <time>2024-04-06T10:29:24Z</time>
      </trkpt>
      <trkpt lat="49.96891" lon="4.66064">
        <ele>134.2</ele>
        <time>2024-04-06T10:29:25Z</time>
      </trkpt>
      <trkpt lat="49.96883" lon="4.66061">
        <ele>134</ele>
        <time>2024-04-06T10:29:26Z</time>
      </trkpt>
      <trkpt lat="49.96875" lon="4.66058">
        <ele>134</ele>
        <time>2024-04-06T10:29:27Z</time>
      </trkpt>
      <trkpt lat="49.96867" lon="4.66056">
        <ele>134</ele>
        <time>2024-04-06T10:29:28Z</time>
      </trkpt>
      <trkpt lat="49.96858" lon="4.66053">
        <ele>134.2</ele>
        <time>2024-04-06T10:29:29Z</time>
      </trkpt>
      <trkpt lat="49.96849" lon="4.6605">
        <ele>134.2</ele>
        <time>2024-04-06T10:29:30Z</time>
      </trkpt>
      <trkpt lat="49.96841" lon="4.66047">
        <ele>134</ele>
        <time>2024-04-06T10:29:31Z</time>
      </trkpt>
      <trkpt lat="49.96832" lon="4.66044">
        <ele>134</ele>
        <time>2024-04-06T10:29:32Z</time>
      </trkpt>
      <trkpt lat="49.96823" lon="4.66041">
        <ele>134</ele>
        <time>2024-04-06T10:29:33Z</time>
      </trkpt>
      <trkpt lat="49.96815" lon="4.66038">
        <ele>133.8</ele>
        <time>2024-04-06T10:29:34Z</time>
      </trkpt>
      <trkpt lat="49.96806" lon="4.66035">
        <ele>133.8</ele>
        <time>2024-04-06T10:29:35Z</time>
      </trkpt>
      <trkpt lat="49.96798" lon="4.66033">
        <ele>133.6</ele>
        <time>2024-04-06T10:29:36Z</time>
      </trkpt>
      <trkpt lat="49.9679" lon="4.6603">
        <ele>133.8</ele>
        <time>2024-04-06T10:29:37Z</time>
      </trkpt>
      <trkpt lat="49.96782" lon="4.66027">
        <ele>133.8</ele>
        <time>2024-04-06T10:29:38Z</time>
      </trkpt>
      <trkpt lat="49.96774" lon="4.66024">
        <ele>133.4</ele>
        <time>2024-04-06T10:29:39Z</time>
      </trkpt>
      <trkpt lat="49.96766" lon="4.66022">
        <ele>133.4</ele>
        <time>2024-04-06T10:29:40Z</time>
      </trkpt>
      <trkpt lat="49.96758" lon="4.66019">
        <ele>133</ele>
        <time>2024-04-06T10:29:41Z</time>
      </trkpt>
      <trkpt lat="49.9675" lon="4.66016">
        <ele>132.8</ele>
        <time>2024-04-06T10:29:42Z</time>
      </trkpt>
      <trkpt lat="49.96743" lon="4.66014">
        <ele>132.8</ele>
        <time>2024-04-06T10:29:43Z</time>
      </trkpt>
      <trkpt lat="49.96735" lon="4.66011">
        <ele>132.6</ele>
        <time>2024-04-06T10:29:44Z</time>
      </trkpt>
      <trkpt lat="49.96727" lon="4.66009">
        <ele>132.4</ele>
        <time>2024-04-06T10:29:45Z</time>
      </trkpt>
      <trkpt lat="49.96719" lon="4.66006">
        <ele>132.6</ele>
        <time>2024-04-06T10:29:46Z</time>
      </trkpt>
      <trkpt lat="49.96712" lon="4.66004">
        <ele>132.2</ele>
        <time>2024-04-06T10:29:47Z</time>
      </trkpt>
      <trkpt lat="49.96704" lon="4.66001">
        <ele>132.4</ele>
        <time>2024-04-06T10:29:48Z</time>
      </trkpt>
      <trkpt lat="49.96696" lon="4.65999">
        <ele>132.4</ele>
        <time>2024-04-06T10:29:49Z</time>
      </trkpt>
      <trkpt lat="49.96688" lon="4.65997">
        <ele>132.2</ele>
        <time>2024-04-06T10:29:50Z</time>
      </trkpt>
      <trkpt lat="49.96681" lon="4.65994">
        <ele>132.2</ele>
        <time>2024-04-06T10:29:51Z</time>
      </trkpt>
      <trkpt lat="49.96673" lon="4.65992">
        <ele>132</ele>
        <time>2024-04-06T10:29:52Z</time>
      </trkpt>
      <trkpt lat="49.96666" lon="4.6599">
        <ele>132</ele>
        <time>2024-04-06T10:29:53Z</time>
      </trkpt>
      <trkpt lat="49.96658" lon="4.65988">
        <ele>132</ele>
        <time>2024-04-06T10:29:54Z</time>
      </trkpt>
      <trkpt lat="49.96651" lon="4.65985">
        <ele>132</ele>
        <time>2024-04-06T10:29:55Z</time>
      </trkpt>
      <trkpt lat="49.96643" lon="4.65983">
        <ele>132</ele>
        <time>2024-04-06T10:29:56Z</time>
      </trkpt>
      <trkpt lat="49.96636" lon="4.65981">
        <ele>132</ele>
        <time>2024-04-06T10:29:57Z</time>
      </trkpt>
      <trkpt lat="49.96629" lon="4.65978">
        <ele>131.8</ele>
        <time>2024-04-06T10:29:58Z</time>
      </trkpt>
      <trkpt lat="49.96622" lon="4.65975">
        <ele>132</ele>
        <time>2024-04-06T10:29:59Z</time>
      </trkpt>
      <trkpt lat="49.96615" lon="4.65972">
        <ele>131.8</ele>
        <time>2024-04-06T10:30:00Z</time>
      </trkpt>
      <trkpt lat="49.96607" lon="4.6597">
        <ele>131.8</ele>
        <time>2024-04-06T10:30:01Z</time>
      </trkpt>
      <trkpt lat="49.966" lon="4.65968">
        <ele>131.8</ele>
        <time>2024-04-06T10:30:02Z</time>
      </trkpt>
      <trkpt lat="49.96592" lon="4.65966">
        <ele>131.8</ele>
        <time>2024-04-06T10:30:03Z</time>
      </trkpt>
      <trkpt lat="49.96584" lon="4.65963">
        <ele>132</ele>
        <time>2024-04-06T10:30:04Z</time>
      </trkpt>
      <trkpt lat="49.96577" lon="4.65961">
        <ele>132</ele>
        <time>2024-04-06T10:30:05Z</time>
      </trkpt>
      <trkpt lat="49.96569" lon="4.65959">
        <ele>132</ele>
        <time>2024-04-06T10:30:06Z</time>
      </trkpt>
      <trkpt lat="49.96562" lon="4.65956">
        <ele>131.6</ele>
        <time>2024-04-06T10:30:07Z</time>
      </trkpt>
      <trkpt lat="49.96554" lon="4.65954">
        <ele>131.6</ele>
        <time>2024-04-06T10:30:08Z</time>
      </trkpt>
      <trkpt lat="49.96547" lon="4.65951">
        <ele>131.6</ele>
        <time>2024-04-06T10:30:09Z</time>
      </trkpt>
      <trkpt lat="49.96539" lon="4.65949">
        <ele>131.4</ele>
        <time>2024-04-06T10:30:10Z</time>
      </trkpt>
      <trkpt lat="49.96532" lon="4.65947">
        <ele>131.4</ele>
        <time>2024-04-06T10:30:11Z</time>
      </trkpt>
      <trkpt lat="49.96525" lon="4.65944">
        <ele>131.6</ele>
        <time>2024-04-06T10:30:12Z</time>
      </trkpt>
      <trkpt lat="49.96518" lon="4.65942">
        <ele>131.6</ele>
        <time>2024-04-06T10:30:13Z</time>
      </trkpt>
      <trkpt lat="49.9651" lon="4.6594">
        <ele>131.4</ele>
        <time>2024-04-06T10:30:14Z</time>
      </trkpt>
      <trkpt lat="49.96502" lon="4.65938">
        <ele>131.6</ele>
        <time>2024-04-06T10:30:15Z</time>
      </trkpt>
      <trkpt lat="49.96495" lon="4.65935">
        <ele>131.6</ele>
        <time>2024-04-06T10:30:16Z</time>
      </trkpt>
      <trkpt lat="49.96487" lon="4.65933">
        <ele>131.6</ele>
        <time>2024-04-06T10:30:17Z</time>
      </trkpt>
      <trkpt lat="49.96479" lon="4.65931">
        <ele>131.4</ele>
        <time>2024-04-06T10:30:18Z</time>
      </trkpt>
      <trkpt lat="49.96472" lon="4.65928">
        <ele>131.6</ele>
        <time>2024-04-06T10:30:19Z</time>
      </trkpt>
      <trkpt lat="49.96465" lon="4.65925">
        <ele>131.4</ele>
        <time>2024-04-06T10:30:20Z</time>
      </trkpt>
      <trkpt lat="49.96457" lon="4.65923">
        <ele>131.4</ele>
        <time>2024-04-06T10:30:21Z</time>
      </trkpt>
      <trkpt lat="49.9645" lon="4.65921">
        <ele>131.2</ele>
        <time>2024-04-06T10:30:22Z</time>
      </trkpt>
      <trkpt lat="49.96443" lon="4.65918">
        <ele>131.2</ele>
        <time>2024-04-06T10:30:23Z</time>
      </trkpt>
      <trkpt lat="49.96435" lon="4.65916">
        <ele>131.2</ele>
        <time>2024-04-06T10:30:24Z</time>
      </trkpt>
      <trkpt lat="49.96428" lon="4.65914">
        <ele>131.2</ele>
        <time>2024-04-06T10:30:25Z</time>
      </trkpt>
      <trkpt lat="49.9642" lon="4.65912">
        <ele>131.2</ele>
        <time>2024-04-06T10:30:26Z</time>
      </trkpt>
      <trkpt lat="49.96413" lon="4.65909">
        <ele>131</ele>
        <time>2024-04-06T10:30:27Z</time>
      </trkpt>
      <trkpt lat="49.96405" lon="4.65907">
        <ele>130.8</ele>
        <time>2024-04-06T10:30:28Z</time>
      </trkpt>
      <trkpt lat="49.96397" lon="4.65904">
        <ele>131</ele>
        <time>2024-04-06T10:30:29Z</time>
      </trkpt>
      <trkpt lat="49.96389" lon="4.65901">
        <ele>130.8</ele>
        <time>2024-04-06T10:30:30Z</time>
      </trkpt>
      <trkpt lat="49.96381" lon="4.65898">
        <ele>130.8</ele>
        <time>2024-04-06T10:30:31Z</time>
      </trkpt>
      <trkpt lat="49.96373" lon="4.65895">
        <ele>130.8</ele>
        <time>2024-04-06T10:30:32Z</time>
      </trkpt>
      <trkpt lat="49.96366" lon="4.65892">
        <ele>130.8</ele>
        <time>2024-04-06T10:30:33Z</time>
      </trkpt>
      <trkpt lat="49.96358" lon="4.65889">
        <ele>131</ele>
        <time>2024-04-06T10:30:34Z</time>
      </trkpt>
      <trkpt lat="49.96351" lon="4.65885">
        <ele>131</ele>
        <time>2024-04-06T10:30:35Z</time>
      </trkpt>
      <trkpt lat="49.96344" lon="4.65882">
        <ele>131</ele>
        <time>2024-04-06T10:30:36Z</time>
      </trkpt>
      <trkpt lat="49.96336" lon="4.65879">
        <ele>131</ele>
        <time>2024-04-06T10:30:37Z</time>
      </trkpt>
      <trkpt lat="49.96329" lon="4.65875">
        <ele>131</ele>
        <time>2024-04-06T10:30:38Z</time>
      </trkpt>
      <trkpt lat="49.96322" lon="4.65871">
        <ele>130.8</ele>
        <time>2024-04-06T10:30:39Z</time>
      </trkpt>
      <trkpt lat="49.96315" lon="4.65868">
        <ele>131.2</ele>
        <time>2024-04-06T10:30:40Z</time>
      </trkpt>
      <trkpt lat="49.96308" lon="4.65864">
        <ele>131</ele>
        <time>2024-04-06T10:30:41Z</time>
      </trkpt>
      <trkpt lat="49.96301" lon="4.6586">
        <ele>131.2</ele>
        <time>2024-04-06T10:30:42Z</time>
      </trkpt>
      <trkpt lat="49.96294" lon="4.65856">
        <ele>131.2</ele>
        <time>2024-04-06T10:30:43Z</time>
      </trkpt>
      <trkpt lat="49.96287" lon="4.65852">
        <ele>131.4</ele>
        <time>2024-04-06T10:30:44Z</time>
      </trkpt>
      <trkpt lat="49.96281" lon="4.65847">
        <ele>131.2</ele>
        <time>2024-04-06T10:30:45Z</time>
      </trkpt>
      <trkpt lat="49.96274" lon="4.65843">
        <ele>131.2</ele>
        <time>2024-04-06T10:30:46Z</time>
      </trkpt>
      <trkpt lat="49.96267" lon="4.65839">
        <ele>131.2</ele>
        <time>2024-04-06T10:30:47Z</time>
      </trkpt>
      <trkpt lat="49.9626" lon="4.65834">
        <ele>131.4</ele>
        <time>2024-04-06T10:30:48Z</time>
      </trkpt>
      <trkpt lat="49.96253" lon="4.65829">
        <ele>131.4</ele>
        <time>2024-04-06T10:30:49Z</time>
      </trkpt>
      <trkpt lat="49.96247" lon="4.65824">
        <ele>131.6</ele>
        <time>2024-04-06T10:30:50Z</time>
      </trkpt>
      <trkpt lat="49.9624" lon="4.65819">
        <ele>131.8</ele>
        <time>2024-04-06T10:30:51Z</time>
      </trkpt>
      <trkpt lat="49.96233" lon="4.65814">
        <ele>131.8</ele>
        <time>2024-04-06T10:30:52Z</time>
      </trkpt>
      <trkpt lat="49.96226" lon="4.65809">
        <ele>131.6</ele>
        <time>2024-04-06T10:30:53Z</time>
      </trkpt>
      <trkpt lat="49.96219" lon="4.65804">
        <ele>131.8</ele>
        <time>2024-04-06T10:30:54Z</time>
      </trkpt>
      <trkpt lat="49.96213" lon="4.65799">
        <ele>131.6</ele>
        <time>2024-04-06T10:30:55Z</time>
      </trkpt>
      <trkpt lat="49.96206" lon="4.65794">
        <ele>131.6</ele>
        <time>2024-04-06T10:30:56Z</time>
      </trkpt>
      <trkpt lat="49.962" lon="4.65789">
        <ele>131.6</ele>
        <time>2024-04-06T10:30:57Z</time>
      </trkpt>
      <trkpt lat="49.96193" lon="4.65784">
        <ele>131.6</ele>
        <time>2024-04-06T10:30:58Z</time>
      </trkpt>
      <trkpt lat="49.96187" lon="4.65779">
        <ele>131.6</ele>
        <time>2024-04-06T10:30:59Z</time>
      </trkpt>
      <trkpt lat="49.9618" lon="4.65773">
        <ele>131.6</ele>
        <time>2024-04-06T10:31:00Z</time>
      </trkpt>
      <trkpt lat="49.96174" lon="4.65768">
        <ele>131.8</ele>
        <time>2024-04-06T10:31:01Z</time>
      </trkpt>
      <trkpt lat="49.96168" lon="4.65763">
        <ele>131.6</ele>
        <time>2024-04-06T10:31:02Z</time>
      </trkpt>
      <trkpt lat="49.96161" lon="4.65757">
        <ele>131.6</ele>
        <time>2024-04-06T10:31:03Z</time>
      </trkpt>
      <trkpt lat="49.96155" lon="4.65751">
        <ele>131.6</ele>
        <time>2024-04-06T10:31:04Z</time>
      </trkpt>
      <trkpt lat="49.96149" lon="4.65745">
        <ele>131.6</ele>
        <time>2024-04-06T10:31:05Z</time>
      </trkpt>
      <trkpt lat="49.96142" lon="4.6574">
        <ele>131.4</ele>
        <time>2024-04-06T10:31:06Z</time>
      </trkpt>
      <trkpt lat="49.96136" lon="4.65734">
        <ele>131.4</ele>
        <time>2024-04-06T10:31:07Z</time>
      </trkpt>
      <trkpt lat="49.9613" lon="4.65728">
        <ele>131.4</ele>
        <time>2024-04-06T10:31:08Z</time>
      </trkpt>
      <trkpt lat="49.96124" lon="4.65722">
        <ele>131</ele>
        <time>2024-04-06T10:31:09Z</time>
      </trkpt>
      <trkpt lat="49.96118" lon="4.65716">
        <ele>131.2</ele>
        <time>2024-04-06T10:31:10Z</time>
      </trkpt>
      <trkpt lat="49.96112" lon="4.6571">
        <ele>131.2</ele>
        <time>2024-04-06T10:31:11Z</time>
      </trkpt>
      <trkpt lat="49.96106" lon="4.65705">
        <ele>131</ele>
        <time>2024-04-06T10:31:12Z</time>
      </trkpt>
      <trkpt lat="49.961" lon="4.65699">
        <ele>131.2</ele>
        <time>2024-04-06T10:31:13Z</time>
      </trkpt>
      <trkpt lat="49.96094" lon="4.65693">
        <ele>131.2</ele>
        <time>2024-04-06T10:31:14Z</time>
      </trkpt>
      <trkpt lat="49.96088" lon="4.65687">
        <ele>131.2</ele>
        <time>2024-04-06T10:31:15Z</time>
      </trkpt>
      <trkpt lat="49.96082" lon="4.65682">
        <ele>131</ele>
        <time>2024-04-06T10:31:16Z</time>
      </trkpt>
      <trkpt lat="49.96075" lon="4.65677">
        <ele>131</ele>
        <time>2024-04-06T10:31:17Z</time>
      </trkpt>
      <trkpt lat="49.96069" lon="4.65671">
        <ele>131</ele>
        <time>2024-04-06T10:31:18Z</time>
      </trkpt>
      <trkpt lat="49.96063" lon="4.65666">
        <ele>131.4</ele>
        <time>2024-04-06T10:31:19Z</time>
      </trkpt>
      <trkpt lat="49.96057" lon="4.6566">
        <ele>131.6</ele>
        <time>2024-04-06T10:31:20Z</time>
      </trkpt>
      <trkpt lat="49.96051" lon="4.65655">
        <ele>131.8</ele>
        <time>2024-04-06T10:31:21Z</time>
      </trkpt>
      <trkpt lat="49.96045" lon="4.6565">
        <ele>132.2</ele>
        <time>2024-04-06T10:31:22Z</time>
      </trkpt>
      <trkpt lat="49.96039" lon="4.65645">
        <ele>132</ele>
        <time>2024-04-06T10:31:23Z</time>
      </trkpt>
      <trkpt lat="49.96032" lon="4.6564">
        <ele>132.4</ele>
        <time>2024-04-06T10:31:24Z</time>
      </trkpt>
      <trkpt lat="49.96026" lon="4.65636">
        <ele>132.8</ele>
        <time>2024-04-06T10:31:25Z</time>
      </trkpt>
      <trkpt lat="49.9602" lon="4.65631">
        <ele>132.8</ele>
        <time>2024-04-06T10:31:26Z</time>
      </trkpt>
      <trkpt lat="49.96013" lon="4.65627">
        <ele>133</ele>
        <time>2024-04-06T10:31:27Z</time>
      </trkpt>
      <trkpt lat="49.96007" lon="4.65622">
        <ele>133</ele>
        <time>2024-04-06T10:31:28Z</time>
      </trkpt>
      <trkpt lat="49.96001" lon="4.65618">
        <ele>133.2</ele>
        <time>2024-04-06T10:31:29Z</time>
      </trkpt>
      <trkpt lat="49.95995" lon="4.65613">
        <ele>133.4</ele>
        <time>2024-04-06T10:31:30Z</time>
      </trkpt>
      <trkpt lat="49.95989" lon="4.65609">
        <ele>133.2</ele>
        <time>2024-04-06T10:31:31Z</time>
      </trkpt>
      <trkpt lat="49.95983" lon="4.65604">
        <ele>133.2</ele>
        <time>2024-04-06T10:31:32Z</time>
      </trkpt>
      <trkpt lat="49.95977" lon="4.656">
        <ele>133.4</ele>
        <time>2024-04-06T10:31:33Z</time>
      </trkpt>
      <trkpt lat="49.95971" lon="4.65595">
        <ele>133.4</ele>
        <time>2024-04-06T10:31:34Z</time>
      </trkpt>
      <trkpt lat="49.95965" lon="4.6559">
        <ele>133.4</ele>
        <time>2024-04-06T10:31:35Z</time>
      </trkpt>
      <trkpt lat="49.95959" lon="4.65585">
        <ele>133.6</ele>
        <time>2024-04-06T10:31:36Z</time>
      </trkpt>
      <trkpt lat="49.95953" lon="4.6558">
        <ele>133.6</ele>
        <time>2024-04-06T10:31:37Z</time>
      </trkpt>
      <trkpt lat="49.95948" lon="4.65576">
        <ele>133.8</ele>
        <time>2024-04-06T10:31:38Z</time>
      </trkpt>
      <trkpt lat="49.95942" lon="4.65571">
        <ele>133.8</ele>
        <time>2024-04-06T10:31:39Z</time>
      </trkpt>
      <trkpt lat="49.95936" lon="4.65566">
        <ele>133.8</ele>
        <time>2024-04-06T10:31:40Z</time>
      </trkpt>
      <trkpt lat="49.9593" lon="4.65561">
        <ele>133.8</ele>
        <time>2024-04-06T10:31:41Z</time>
      </trkpt>
      <trkpt lat="49.95924" lon="4.65557">
        <ele>133.8</ele>
        <time>2024-04-06T10:31:42Z</time>
      </trkpt>
      <trkpt lat="49.95917" lon="4.65552">
        <ele>134</ele>
        <time>2024-04-06T10:31:43Z</time>
      </trkpt>
      <trkpt lat="49.95912" lon="4.65548">
        <ele>134</ele>
        <time>2024-04-06T10:31:44Z</time>
      </trkpt>
      <trkpt lat="49.95906" lon="4.65543">
        <ele>134</ele>
        <time>2024-04-06T10:31:45Z</time>
      </trkpt>
      <trkpt lat="49.959" lon="4.65539">
        <ele>134</ele>
        <time>2024-04-06T10:31:46Z</time>
      </trkpt>
      <trkpt lat="49.95894" lon="4.65535">
        <ele>134</ele>
        <time>2024-04-06T10:31:47Z</time>
      </trkpt>
      <trkpt lat="49.95888" lon="4.65531">
        <ele>134</ele>
        <time>2024-04-06T10:31:48Z</time>
      </trkpt>
      <trkpt lat="49.95882" lon="4.65527">
        <ele>134</ele>
        <time>2024-04-06T10:31:49Z</time>
      </trkpt>
      <trkpt lat="49.95876" lon="4.65524">
        <ele>133.8</ele>
        <time>2024-04-06T10:31:50Z</time>
      </trkpt>
      <trkpt lat="49.9587" lon="4.6552">
        <ele>133.8</ele>
        <time>2024-04-06T10:31:51Z</time>
      </trkpt>
      <trkpt lat="49.95865" lon="4.65516">
        <ele>134</ele>
        <time>2024-04-06T10:31:52Z</time>
      </trkpt>
      <trkpt lat="49.95859" lon="4.65512">
        <ele>134</ele>
        <time>2024-04-06T10:31:53Z</time>
      </trkpt>
      <trkpt lat="49.95853" lon="4.65509">
        <ele>134</ele>
        <time>2024-04-06T10:31:54Z</time>
      </trkpt>
      <trkpt lat="49.95848" lon="4.65505">
        <ele>134.2</ele>
        <time>2024-04-06T10:31:55Z</time>
      </trkpt>
      <trkpt lat="49.95842" lon="4.65501">
        <ele>134.2</ele>
        <time>2024-04-06T10:31:56Z</time>
      </trkpt>
      <trkpt lat="49.95836" lon="4.65498">
        <ele>134</ele>
        <time>2024-04-06T10:31:57Z</time>
      </trkpt>
      <trkpt lat="49.95831" lon="4.65495">
        <ele>134</ele>
        <time>2024-04-06T10:31:58Z</time>
      </trkpt>
      <trkpt lat="49.95825" lon="4.65492">
        <ele>134.2</ele>
        <time>2024-04-06T10:31:59Z</time>
      </trkpt>
      <trkpt lat="49.9582" lon="4.65489">
        <ele>134</ele>
        <time>2024-04-06T10:32:00Z</time>
      </trkpt>
      <trkpt lat="49.95814" lon="4.65485">
        <ele>134</ele>
        <time>2024-04-06T10:32:01Z</time>
      </trkpt>
      <trkpt lat="49.95809" lon="4.65482">
        <ele>134.2</ele>
        <time>2024-04-06T10:32:02Z</time>
      </trkpt>
      <trkpt lat="49.95803" lon="4.65479">
        <ele>134.4</ele>
        <time>2024-04-06T10:32:03Z</time>
      </trkpt>
      <trkpt lat="49.95798" lon="4.65475">
        <ele>134.6</ele>
        <time>2024-04-06T10:32:04Z</time>
      </trkpt>
      <trkpt lat="49.95793" lon="4.65472">
        <ele>134.6</ele>
        <time>2024-04-06T10:32:05Z</time>
      </trkpt>
      <trkpt lat="49.95788" lon="4.65469">
        <ele>134.8</ele>
        <time>2024-04-06T10:32:06Z</time>
      </trkpt>
      <trkpt lat="49.95782" lon="4.65465">
        <ele>134.8</ele>
        <time>2024-04-06T10:32:07Z</time>
      </trkpt>
      <trkpt lat="49.95777" lon="4.65462">
        <ele>134.8</ele>
        <time>2024-04-06T10:32:08Z</time>
      </trkpt>
      <trkpt lat="49.95772" lon="4.65458">
        <ele>135</ele>
        <time>2024-04-06T10:32:09Z</time>
      </trkpt>
      <trkpt lat="49.95767" lon="4.65455">
        <ele>135</ele>
        <time>2024-04-06T10:32:10Z</time>
      </trkpt>
      <trkpt lat="49.95761" lon="4.65451">
        <ele>135</ele>
        <time>2024-04-06T10:32:11Z</time>
      </trkpt>
      <trkpt lat="49.95756" lon="4.65448">
        <ele>135</ele>
        <time>2024-04-06T10:32:12Z</time>
      </trkpt>
      <trkpt lat="49.9575" lon="4.65444">
        <ele>135</ele>
        <time>2024-04-06T10:32:13Z</time>
      </trkpt>
      <trkpt lat="49.95744" lon="4.6544">
        <ele>135</ele>
        <time>2024-04-06T10:32:14Z</time>
      </trkpt>
      <trkpt lat="49.95739" lon="4.65437">
        <ele>135.2</ele>
        <time>2024-04-06T10:32:15Z</time>
      </trkpt>
      <trkpt lat="49.95734" lon="4.65433">
        <ele>135</ele>
        <time>2024-04-06T10:32:16Z</time>
      </trkpt>
      <trkpt lat="49.95728" lon="4.65429">
        <ele>135.2</ele>
        <time>2024-04-06T10:32:17Z</time>
      </trkpt>
      <trkpt lat="49.95723" lon="4.65426">
        <ele>135.2</ele>
        <time>2024-04-06T10:32:18Z</time>
      </trkpt>
      <trkpt lat="49.95718" lon="4.65422">
        <ele>135.2</ele>
        <time>2024-04-06T10:32:19Z</time>
      </trkpt>
      <trkpt lat="49.95713" lon="4.65418">
        <ele>135.6</ele>
        <time>2024-04-06T10:32:20Z</time>
      </trkpt>
      <trkpt lat="49.95708" lon="4.65415">
        <ele>135.8</ele>
        <time>2024-04-06T10:32:21Z</time>
      </trkpt>
      <trkpt lat="49.95702" lon="4.65412">
        <ele>136</ele>
        <time>2024-04-06T10:32:22Z</time>
      </trkpt>
      <trkpt lat="49.95697" lon="4.65408">
        <ele>135.8</ele>
        <time>2024-04-06T10:32:23Z</time>
      </trkpt>
      <trkpt lat="49.95692" lon="4.65405">
        <ele>136</ele>
        <time>2024-04-06T10:32:24Z</time>
      </trkpt>
      <trkpt lat="49.95687" lon="4.65401">
        <ele>136</ele>
        <time>2024-04-06T10:32:25Z</time>
      </trkpt>
      <trkpt lat="49.95682" lon="4.65398">
        <ele>136.2</ele>
        <time>2024-04-06T10:32:26Z</time>
      </trkpt>
      <trkpt lat="49.95677" lon="4.65394">
        <ele>136.2</ele>
        <time>2024-04-06T10:32:27Z</time>
      </trkpt>
      <trkpt lat="49.95672" lon="4.65391">
        <ele>136.2</ele>
        <time>2024-04-06T10:32:28Z</time>
      </trkpt>
      <trkpt lat="49.95667" lon="4.65387">
        <ele>136.2</ele>
        <time>2024-04-06T10:32:29Z</time>
      </trkpt>
      <trkpt lat="49.95662" lon="4.65383">
        <ele>136.2</ele>
        <time>2024-04-06T10:32:30Z</time>
      </trkpt>
      <trkpt lat="49.95658" lon="4.6538">
        <ele>136.2</ele>
        <time>2024-04-06T10:32:31Z</time>
      </trkpt>
      <trkpt lat="49.95653" lon="4.65376">
        <ele>136.2</ele>
        <time>2024-04-06T10:32:32Z</time>
      </trkpt>
      <trkpt lat="49.95648" lon="4.65372">
        <ele>136.4</ele>
        <time>2024-04-06T10:32:33Z</time>
      </trkpt>
      <trkpt lat="49.95644" lon="4.65368">
        <ele>136.4</ele>
        <time>2024-04-06T10:32:34Z</time>
      </trkpt>
      <trkpt lat="49.95639" lon="4.65365">
        <ele>136.8</ele>
        <time>2024-04-06T10:32:35Z</time>
      </trkpt>
      <trkpt lat="49.95634" lon="4.65362">
        <ele>136.6</ele>
        <time>2024-04-06T10:32:36Z</time>
      </trkpt>
      <trkpt lat="49.95628" lon="4.65359">
        <ele>136.8</ele>
        <time>2024-04-06T10:32:37Z</time>
      </trkpt>
      <trkpt lat="49.95623" lon="4.65356">
        <ele>136.8</ele>
        <time>2024-04-06T10:32:38Z</time>
      </trkpt>
      <trkpt lat="49.95617" lon="4.65352">
        <ele>136.8</ele>
        <time>2024-04-06T10:32:39Z</time>
      </trkpt>
      <trkpt lat="49.95612" lon="4.65349">
        <ele>137</ele>
        <time>2024-04-06T10:32:40Z</time>
      </trkpt>
      <trkpt lat="49.95606" lon="4.65347">
        <ele>137</ele>
        <time>2024-04-06T10:32:41Z</time>
      </trkpt>
      <trkpt lat="49.956" lon="4.65343">
        <ele>137.2</ele>
        <time>2024-04-06T10:32:42Z</time>
      </trkpt>
      <trkpt lat="49.95595" lon="4.6534">
        <ele>137.2</ele>
        <time>2024-04-06T10:32:43Z</time>
      </trkpt>
      <trkpt lat="49.95589" lon="4.65337">
        <ele>137.2</ele>
        <time>2024-04-06T10:32:44Z</time>
      </trkpt>
      <trkpt lat="49.95583" lon="4.65333">
        <ele>137.4</ele>
        <time>2024-04-06T10:32:45Z</time>
      </trkpt>
      <trkpt lat="49.95578" lon="4.6533">
        <ele>137.6</ele>
        <time>2024-04-06T10:32:46Z</time>
      </trkpt>
      <trkpt lat="49.95573" lon="4.65327">
        <ele>137.6</ele>
        <time>2024-04-06T10:32:47Z</time>
      </trkpt>
      <trkpt lat="49.95568" lon="4.65323">
        <ele>137.8</ele>
        <time>2024-04-06T10:32:48Z</time>
      </trkpt>
      <trkpt lat="49.95563" lon="4.6532">
        <ele>138</ele>
        <time>2024-04-06T10:32:49Z</time>
      </trkpt>
      <trkpt lat="49.95558" lon="4.65317">
        <ele>138.2</ele>
        <time>2024-04-06T10:32:50Z</time>
      </trkpt>
      <trkpt lat="49.95553" lon="4.65313">
        <ele>138.2</ele>
        <time>2024-04-06T10:32:51Z</time>
      </trkpt>
      <trkpt lat="49.95548" lon="4.6531">
        <ele>138.2</ele>
        <time>2024-04-06T10:32:52Z</time>
      </trkpt>
      <trkpt lat="49.95542" lon="4.65307">
        <ele>138.2</ele>
        <time>2024-04-06T10:32:53Z</time>
      </trkpt>
      <trkpt lat="49.95536" lon="4.65304">
        <ele>138.4</ele>
        <time>2024-04-06T10:32:54Z</time>
      </trkpt>
      <trkpt lat="49.95531" lon="4.65301">
        <ele>138.6</ele>
        <time>2024-04-06T10:32:55Z</time>
      </trkpt>
      <trkpt lat="49.95525" lon="4.65299">
        <ele>138.6</ele>
        <time>2024-04-06T10:32:56Z</time>
      </trkpt>
      <trkpt lat="49.95521" lon="4.65295">
        <ele>138.6</ele>
        <time>2024-04-06T10:32:57Z</time>
      </trkpt>
      <trkpt lat="49.95516" lon="4.65292">
        <ele>138.6</ele>
        <time>2024-04-06T10:32:58Z</time>
      </trkpt>
      <trkpt lat="49.9551" lon="4.65289">
        <ele>138.8</ele>
        <time>2024-04-06T10:32:59Z</time>
      </trkpt>
      <trkpt lat="49.95505" lon="4.65285">
        <ele>139.6</ele>
        <time>2024-04-06T10:33:00Z</time>
      </trkpt>
      <trkpt lat="49.95499" lon="4.65282">
        <ele>139.8</ele>
        <time>2024-04-06T10:33:01Z</time>
      </trkpt>
      <trkpt lat="49.95494" lon="4.65279">
        <ele>139.8</ele>
        <time>2024-04-06T10:33:02Z</time>
      </trkpt>
      <trkpt lat="49.95488" lon="4.65276">
        <ele>139.8</ele>
        <time>2024-04-06T10:33:03Z</time>
      </trkpt>
      <trkpt lat="49.95483" lon="4.65273">
        <ele>140</ele>
        <time>2024-04-06T10:33:04Z</time>
      </trkpt>
      <trkpt lat="49.95478" lon="4.6527">
        <ele>140</ele>
        <time>2024-04-06T10:33:05Z</time>
      </trkpt>
      <trkpt lat="49.95473" lon="4.65267">
        <ele>140</ele>
        <time>2024-04-06T10:33:06Z</time>
      </trkpt>
      <trkpt lat="49.95468" lon="4.65264">
        <ele>140</ele>
        <time>2024-04-06T10:33:07Z</time>
      </trkpt>
      <trkpt lat="49.95462" lon="4.65261">
        <ele>139.8</ele>
        <time>2024-04-06T10:33:08Z</time>
      </trkpt>
      <trkpt lat="49.95457" lon="4.65258">
        <ele>140</ele>
        <time>2024-04-06T10:33:09Z</time>
      </trkpt>
      <trkpt lat="49.95452" lon="4.65255">
        <ele>140</ele>
        <time>2024-04-06T10:33:10Z</time>
      </trkpt>
      <trkpt lat="49.95447" lon="4.65252">
        <ele>140.2</ele>
        <time>2024-04-06T10:33:11Z</time>
      </trkpt>
      <trkpt lat="49.95442" lon="4.65249">
        <ele>140.2</ele>
        <time>2024-04-06T10:33:12Z</time>
      </trkpt>
      <trkpt lat="49.95437" lon="4.65246">
        <ele>140</ele>
        <time>2024-04-06T10:33:13Z</time>
      </trkpt>
      <trkpt lat="49.95432" lon="4.65243">
        <ele>140</ele>
        <time>2024-04-06T10:33:14Z</time>
      </trkpt>
      <trkpt lat="49.95427" lon="4.6524">
        <ele>140</ele>
        <time>2024-04-06T10:33:15Z</time>
      </trkpt>
      <trkpt lat="49.95422" lon="4.65237">
        <ele>140</ele>
        <time>2024-04-06T10:33:16Z</time>
      </trkpt>
      <trkpt lat="49.95417" lon="4.65234">
        <ele>140</ele>
        <time>2024-04-06T10:33:17Z</time>
      </trkpt>
      <trkpt lat="49.95412" lon="4.65232">
        <ele>140.6</ele>
        <time>2024-04-06T10:33:18Z</time>
      </trkpt>
      <trkpt lat="49.95408" lon="4.65229">
        <ele>140.6</ele>
        <time>2024-04-06T10:33:19Z</time>
      </trkpt>
      <trkpt lat="49.95403" lon="4.65226">
        <ele>140.8</ele>
        <time>2024-04-06T10:33:20Z</time>
      </trkpt>
      <trkpt lat="49.95398" lon="4.65223">
        <ele>140.8</ele>
        <time>2024-04-06T10:33:21Z</time>
      </trkpt>
      <trkpt lat="49.95394" lon="4.6522">
        <ele>141.2</ele>
        <time>2024-04-06T10:33:22Z</time>
      </trkpt>
      <trkpt lat="49.95389" lon="4.65217">
        <ele>141.2</ele>
        <time>2024-04-06T10:33:23Z</time>
      </trkpt>
      <trkpt lat="49.95384" lon="4.65214">
        <ele>141.8</ele>
        <time>2024-04-06T10:33:24Z</time>
      </trkpt>
      <trkpt lat="49.95379" lon="4.65212">
        <ele>142</ele>
        <time>2024-04-06T10:33:25Z</time>
      </trkpt>
      <trkpt lat="49.95375" lon="4.65209">
        <ele>142.2</ele>
        <time>2024-04-06T10:33:26Z</time>
      </trkpt>
      <trkpt lat="49.9537" lon="4.65206">
        <ele>142.2</ele>
        <time>2024-04-06T10:33:27Z</time>
      </trkpt>
      <trkpt lat="49.95365" lon="4.65203">
        <ele>142.2</ele>
        <time>2024-04-06T10:33:28Z</time>
      </trkpt>
      <trkpt lat="49.95361" lon="4.652">
        <ele>142.8</ele>
        <time>2024-04-06T10:33:29Z</time>
      </trkpt>
      <trkpt lat="49.95356" lon="4.65198">
        <ele>142.8</ele>
        <time>2024-04-06T10:33:30Z</time>
      </trkpt>
      <trkpt lat="49.95352" lon="4.65195">
        <ele>143.2</ele>
        <time>2024-04-06T10:33:31Z</time>
      </trkpt>
      <trkpt lat="49.95347" lon="4.65192">
        <ele>143.6</ele>
        <time>2024-04-06T10:33:32Z</time>
      </trkpt>
      <trkpt lat="49.95343" lon="4.6519">
        <ele>143.8</ele>
        <time>2024-04-06T10:33:33Z</time>
      </trkpt>
      <trkpt lat="49.95339" lon="4.65187">
        <ele>143.8</ele>
        <time>2024-04-06T10:33:34Z</time>
      </trkpt>
      <trkpt lat="49.95334" lon="4.65184">
        <ele>143.8</ele>
        <time>2024-04-06T10:33:35Z</time>
      </trkpt>
      <trkpt lat="49.9533" lon="4.65182">
        <ele>144</ele>
        <time>2024-04-06T10:33:36Z</time>
      </trkpt>
      <trkpt lat="49.95325" lon="4.65179">
        <ele>144.2</ele>
        <time>2024-04-06T10:33:37Z</time>
      </trkpt>
      <trkpt lat="49.95321" lon="4.65176">
        <ele>144.2</ele>
        <time>2024-04-06T10:33:38Z</time>
      </trkpt>
      <trkpt lat="49.95317" lon="4.65174">
        <ele>144.4</ele>
        <time>2024-04-06T10:33:39Z</time>
      </trkpt>
      <trkpt lat="49.95312" lon="4.65171">
        <ele>144.4</ele>
        <time>2024-04-06T10:33:40Z</time>
      </trkpt>
      <trkpt lat="49.95308" lon="4.65168">
        <ele>144.4</ele>
        <time>2024-04-06T10:33:41Z</time>
      </trkpt>
      <trkpt lat="49.95303" lon="4.65165">
        <ele>144.4</ele>
        <time>2024-04-06T10:33:42Z</time>
      </trkpt>
      <trkpt lat="49.95299" lon="4.65163">
        <ele>144.4</ele>
        <time>2024-04-06T10:33:43Z</time>
      </trkpt>
      <trkpt lat="49.95294" lon="4.6516">
        <ele>144.6</ele>
        <time>2024-04-06T10:33:44Z</time>
      </trkpt>
      <trkpt lat="49.9529" lon="4.65157">
        <ele>144.6</ele>
        <time>2024-04-06T10:33:45Z</time>
      </trkpt>
      <trkpt lat="49.95285" lon="4.65154">
        <ele>144.6</ele>
        <time>2024-04-06T10:33:46Z</time>
      </trkpt>
      <trkpt lat="49.95281" lon="4.65152">
        <ele>145</ele>
        <time>2024-04-06T10:33:47Z</time>
      </trkpt>
      <trkpt lat="49.95276" lon="4.65149">
        <ele>145.2</ele>
        <time>2024-04-06T10:33:48Z</time>
      </trkpt>
      <trkpt lat="49.95272" lon="4.65146">
        <ele>145.4</ele>
        <time>2024-04-06T10:33:49Z</time>
      </trkpt>
      <trkpt lat="49.95267" lon="4.65143">
        <ele>145.4</ele>
        <time>2024-04-06T10:33:50Z</time>
      </trkpt>
      <trkpt lat="49.95262" lon="4.6514">
        <ele>145.8</ele>
        <time>2024-04-06T10:33:51Z</time>
      </trkpt>
      <trkpt lat="49.95257" lon="4.65137">
        <ele>146.2</ele>
        <time>2024-04-06T10:33:52Z</time>
      </trkpt>
      <trkpt lat="49.95252" lon="4.65134">
        <ele>146.2</ele>
        <time>2024-04-06T10:33:53Z</time>
      </trkpt>
      <trkpt lat="49.95248" lon="4.65131">
        <ele>146.4</ele>
        <time>2024-04-06T10:33:54Z</time>
      </trkpt>
      <trkpt lat="49.95243" lon="4.65128">
        <ele>146.4</ele>
        <time>2024-04-06T10:33:55Z</time>
      </trkpt>
      <trkpt lat="49.95238" lon="4.65124">
        <ele>146.6</ele>
        <time>2024-04-06T10:33:56Z</time>
      </trkpt>
      <trkpt lat="49.95233" lon="4.65121">
        <ele>146.8</ele>
        <time>2024-04-06T10:33:57Z</time>
      </trkpt>
      <trkpt lat="49.95227" lon="4.65118">
        <ele>146.8</ele>
        <time>2024-04-06T10:33:58Z</time>
      </trkpt>
      <trkpt lat="49.95222" lon="4.65114">
        <ele>146.8</ele>
        <time>2024-04-06T10:33:59Z</time>
      </trkpt>
      <trkpt lat="49.95217" lon="4.65111">
        <ele>146.8</ele>
        <time>2024-04-06T10:34:00Z</time>
      </trkpt>
      <trkpt lat="49.95212" lon="4.65108">
        <ele>146.8</ele>
        <time>2024-04-06T10:34:01Z</time>
      </trkpt>
      <trkpt lat="49.95206" lon="4.65104">
        <ele>146.8</ele>
        <time>2024-04-06T10:34:02Z</time>
      </trkpt>
      <trkpt lat="49.95201" lon="4.65101">
        <ele>147</ele>
        <time>2024-04-06T10:34:03Z</time>
      </trkpt>
      <trkpt lat="49.95196" lon="4.65097">
        <ele>147</ele>
        <time>2024-04-06T10:34:04Z</time>
      </trkpt>
      <trkpt lat="49.9519" lon="4.65094">
        <ele>147.2</ele>
        <time>2024-04-06T10:34:05Z</time>
      </trkpt>
      <trkpt lat="49.95185" lon="4.6509">
        <ele>147.2</ele>
        <time>2024-04-06T10:34:06Z</time>
      </trkpt>
      <trkpt lat="49.95179" lon="4.65086">
        <ele>147.4</ele>
        <time>2024-04-06T10:34:07Z</time>
      </trkpt>
      <trkpt lat="49.95173" lon="4.65083">
        <ele>147.4</ele>
        <time>2024-04-06T10:34:08Z</time>
      </trkpt>
      <trkpt lat="49.95167" lon="4.65079">
        <ele>147.4</ele>
        <time>2024-04-06T10:34:09Z</time>
      </trkpt>
      <trkpt lat="49.95161" lon="4.65075">
        <ele>147.4</ele>
        <time>2024-04-06T10:34:10Z</time>
      </trkpt>
      <trkpt lat="49.95156" lon="4.65071">
        <ele>147.4</ele>
        <time>2024-04-06T10:34:11Z</time>
      </trkpt>
      <trkpt lat="49.9515" lon="4.65068">
        <ele>147.4</ele>
        <time>2024-04-06T10:34:12Z</time>
      </trkpt>
      <trkpt lat="49.95144" lon="4.65064">
        <ele>147.4</ele>
        <time>2024-04-06T10:34:13Z</time>
      </trkpt>
      <trkpt lat="49.95138" lon="4.6506">
        <ele>147.4</ele>
        <time>2024-04-06T10:34:14Z</time>
      </trkpt>
      <trkpt lat="49.95131" lon="4.65056">
        <ele>147.4</ele>
        <time>2024-04-06T10:34:15Z</time>
      </trkpt>
      <trkpt lat="49.95125" lon="4.65052">
        <ele>147.4</ele>
        <time>2024-04-06T10:34:16Z</time>
      </trkpt>
      <trkpt lat="49.95119" lon="4.65048">
        <ele>147.4</ele>
        <time>2024-04-06T10:34:17Z</time>
      </trkpt>
      <trkpt lat="49.95113" lon="4.65044">
        <ele>147.2</ele>
        <time>2024-04-06T10:34:18Z</time>
      </trkpt>
      <trkpt lat="49.95107" lon="4.65039">
        <ele>147.4</ele>
        <time>2024-04-06T10:34:19Z</time>
      </trkpt>
      <trkpt lat="49.951" lon="4.65035">
        <ele>147.2</ele>
        <time>2024-04-06T10:34:20Z</time>
      </trkpt>
      <trkpt lat="49.95094" lon="4.65031">
        <ele>147.2</ele>
        <time>2024-04-06T10:34:21Z</time>
      </trkpt>
      <trkpt lat="49.95088" lon="4.65027">
        <ele>146.8</ele>
        <time>2024-04-06T10:34:22Z</time>
      </trkpt>
      <trkpt lat="49.95082" lon="4.65023">
        <ele>146.8</ele>
        <time>2024-04-06T10:34:23Z</time>
      </trkpt>
      <trkpt lat="49.95076" lon="4.65019">
        <ele>146.8</ele>
        <time>2024-04-06T10:34:24Z</time>
      </trkpt>
      <trkpt lat="49.9507" lon="4.65015">
        <ele>146.6</ele>
        <time>2024-04-06T10:34:25Z</time>
      </trkpt>
      <trkpt lat="49.95064" lon="4.65012">
        <ele>146.4</ele>
        <time>2024-04-06T10:34:26Z</time>
      </trkpt>
      <trkpt lat="49.95058" lon="4.65008">
        <ele>145.8</ele>
        <time>2024-04-06T10:34:27Z</time>
      </trkpt>
      <trkpt lat="49.95052" lon="4.65004">
        <ele>145.4</ele>
        <time>2024-04-06T10:34:28Z</time>
      </trkpt>
      <trkpt lat="49.95047" lon="4.65001">
        <ele>145.2</ele>
        <time>2024-04-06T10:34:29Z</time>
      </trkpt>
      <trkpt lat="49.95041" lon="4.64998">
        <ele>145</ele>
        <time>2024-04-06T10:34:30Z</time>
      </trkpt>
      <trkpt lat="49.95036" lon="4.64995">
        <ele>145.2</ele>
        <time>2024-04-06T10:34:31Z</time>
      </trkpt>
      <trkpt lat="49.95031" lon="4.64991">
        <ele>145</ele>
        <time>2024-04-06T10:34:32Z</time>
      </trkpt>
      <trkpt lat="49.95026" lon="4.64988">
        <ele>145.2</ele>
        <time>2024-04-06T10:34:33Z</time>
      </trkpt>
      <trkpt lat="49.9502" lon="4.64984">
        <ele>145.2</ele>
        <time>2024-04-06T10:34:34Z</time>
      </trkpt>
      <trkpt lat="49.95015" lon="4.6498">
        <ele>145</ele>
        <time>2024-04-06T10:34:35Z</time>
      </trkpt>
      <trkpt lat="49.9501" lon="4.64977">
        <ele>145</ele>
        <time>2024-04-06T10:34:36Z</time>
      </trkpt>
      <trkpt lat="49.95005" lon="4.64974">
        <ele>145</ele>
        <time>2024-04-06T10:34:37Z</time>
      </trkpt>
      <trkpt lat="49.95" lon="4.64971">
        <ele>145</ele>
        <time>2024-04-06T10:34:38Z</time>
      </trkpt>
      <trkpt lat="49.94995" lon="4.64968">
        <ele>145.8</ele>
        <time>2024-04-06T10:34:39Z</time>
      </trkpt>
      <trkpt lat="49.9499" lon="4.64965">
        <ele>146.4</ele>
        <time>2024-04-06T10:34:40Z</time>
      </trkpt>
      <trkpt lat="49.94985" lon="4.64962">
        <ele>146.8</ele>
        <time>2024-04-06T10:34:41Z</time>
      </trkpt>
      <trkpt lat="49.9498" lon="4.64959">
        <ele>147</ele>
        <time>2024-04-06T10:34:42Z</time>
      </trkpt>
      <trkpt lat="49.94975" lon="4.64956">
        <ele>147.4</ele>
        <time>2024-04-06T10:34:43Z</time>
      </trkpt>
      <trkpt lat="49.9497" lon="4.64953">
        <ele>147.4</ele>
        <time>2024-04-06T10:34:44Z</time>
      </trkpt>
      <trkpt lat="49.94966" lon="4.6495">
        <ele>147.6</ele>
        <time>2024-04-06T10:34:45Z</time>
      </trkpt>
      <trkpt lat="49.94961" lon="4.64947">
        <ele>147.6</ele>
        <time>2024-04-06T10:34:46Z</time>
      </trkpt>
      <trkpt lat="49.94956" lon="4.64944">
        <ele>147.8</ele>
        <time>2024-04-06T10:34:47Z</time>
      </trkpt>
      <trkpt lat="49.94952" lon="4.64941">
        <ele>147.8</ele>
        <time>2024-04-06T10:34:48Z</time>
      </trkpt>
      <trkpt lat="49.94948" lon="4.64938">
        <ele>147.8</ele>
        <time>2024-04-06T10:34:49Z</time>
      </trkpt>
      <trkpt lat="49.94943" lon="4.64936">
        <ele>148</ele>
        <time>2024-04-06T10:34:50Z</time>
      </trkpt>
      <trkpt lat="49.94939" lon="4.64933">
        <ele>148.2</ele>
        <time>2024-04-06T10:34:51Z</time>
      </trkpt>
      <trkpt lat="49.94935" lon="4.6493">
        <ele>148</ele>
        <time>2024-04-06T10:34:52Z</time>
      </trkpt>
      <trkpt lat="49.9493" lon="4.64927">
        <ele>148.2</ele>
        <time>2024-04-06T10:34:53Z</time>
      </trkpt>
      <trkpt lat="49.94926" lon="4.64925">
        <ele>148.4</ele>
        <time>2024-04-06T10:34:54Z</time>
      </trkpt>
      <trkpt lat="49.94922" lon="4.64922">
        <ele>148.6</ele>
        <time>2024-04-06T10:34:55Z</time>
      </trkpt>
      <trkpt lat="49.94918" lon="4.64919">
        <ele>148.8</ele>
        <time>2024-04-06T10:34:56Z</time>
      </trkpt>
      <trkpt lat="49.94914" lon="4.64916">
        <ele>149.2</ele>
        <time>2024-04-06T10:34:57Z</time>
      </trkpt>
      <trkpt lat="49.9491" lon="4.64914">
        <ele>149.6</ele>
        <time>2024-04-06T10:34:58Z</time>
      </trkpt>
      <trkpt lat="49.94906" lon="4.64911">
        <ele>149.8</ele>
        <time>2024-04-06T10:34:59Z</time>
      </trkpt>
      <trkpt lat="49.94902" lon="4.64908">
        <ele>150.4</ele>
        <time>2024-04-06T10:35:00Z</time>
      </trkpt>
      <trkpt lat="49.94898" lon="4.64905">
        <ele>150.4</ele>
        <time>2024-04-06T10:35:01Z</time>
      </trkpt>
      <trkpt lat="49.94893" lon="4.64902">
        <ele>150.8</ele>
        <time>2024-04-06T10:35:02Z</time>
      </trkpt>
      <trkpt lat="49.94889" lon="4.649">
        <ele>150.8</ele>
        <time>2024-04-06T10:35:03Z</time>
      </trkpt>
      <trkpt lat="49.94884" lon="4.64897">
        <ele>151</ele>
        <time>2024-04-06T10:35:04Z</time>
      </trkpt>
      <trkpt lat="49.9488" lon="4.64894">
        <ele>151</ele>
        <time>2024-04-06T10:35:05Z</time>
      </trkpt>
      <trkpt lat="49.94876" lon="4.64891">
        <ele>151</ele>
        <time>2024-04-06T10:35:06Z</time>
      </trkpt>
      <trkpt lat="49.94871" lon="4.64888">
        <ele>151.2</ele>
        <time>2024-04-06T10:35:07Z</time>
      </trkpt>
      <trkpt lat="49.94867" lon="4.64886">
        <ele>151.2</ele>
        <time>2024-04-06T10:35:08Z</time>
      </trkpt>
      <trkpt lat="49.94862" lon="4.64883">
        <ele>151.6</ele>
        <time>2024-04-06T10:35:09Z</time>
      </trkpt>
      <trkpt lat="49.94858" lon="4.6488">
        <ele>151.6</ele>
        <time>2024-04-06T10:35:10Z</time>
      </trkpt>
      <trkpt lat="49.94853" lon="4.64877">
        <ele>151.6</ele>
        <time>2024-04-06T10:35:11Z</time>
      </trkpt>
      <trkpt lat="49.94849" lon="4.64874">
        <ele>151.6</ele>
        <time>2024-04-06T10:35:12Z</time>
      </trkpt>
      <trkpt lat="49.94845" lon="4.64871">
        <ele>151.8</ele>
        <time>2024-04-06T10:35:13Z</time>
      </trkpt>
      <trkpt lat="49.94841" lon="4.64868">
        <ele>151.8</ele>
        <time>2024-04-06T10:35:14Z</time>
      </trkpt>
      <trkpt lat="49.94837" lon="4.64865">
        <ele>151.8</ele>
        <time>2024-04-06T10:35:15Z</time>
      </trkpt>
      <trkpt lat="49.94833" lon="4.64862">
        <ele>151.6</ele>
        <time>2024-04-06T10:35:16Z</time>
      </trkpt>
      <trkpt lat="49.94829" lon="4.64859">
        <ele>151.8</ele>
        <time>2024-04-06T10:35:17Z</time>
      </trkpt>
      <trkpt lat="49.94824" lon="4.64857">
        <ele>151.6</ele>
        <time>2024-04-06T10:35:18Z</time>
      </trkpt>
      <trkpt lat="49.9482" lon="4.64854">
        <ele>151.8</ele>
        <time>2024-04-06T10:35:19Z</time>
      </trkpt>
      <trkpt lat="49.94816" lon="4.64851">
        <ele>151.6</ele>
        <time>2024-04-06T10:35:20Z</time>
      </trkpt>
      <trkpt lat="49.94811" lon="4.64848">
        <ele>151.6</ele>
        <time>2024-04-06T10:35:21Z</time>
      </trkpt>
      <trkpt lat="49.94807" lon="4.64844">
        <ele>151.8</ele>
        <time>2024-04-06T10:35:22Z</time>
      </trkpt>
      <trkpt lat="49.94802" lon="4.64841">
        <ele>151.8</ele>
        <time>2024-04-06T10:35:23Z</time>
      </trkpt>
      <trkpt lat="49.94798" lon="4.64837">
        <ele>151.6</ele>
        <time>2024-04-06T10:35:24Z</time>
      </trkpt>
      <trkpt lat="49.94793" lon="4.64834">
        <ele>151.6</ele>
        <time>2024-04-06T10:35:25Z</time>
      </trkpt>
      <trkpt lat="49.94789" lon="4.6483">
        <ele>151.6</ele>
        <time>2024-04-06T10:35:26Z</time>
      </trkpt>
      <trkpt lat="49.94785" lon="4.64826">
        <ele>151.4</ele>
        <time>2024-04-06T10:35:27Z</time>
      </trkpt>
      <trkpt lat="49.94781" lon="4.64822">
        <ele>151.4</ele>
        <time>2024-04-06T10:35:28Z</time>
      </trkpt>
      <trkpt lat="49.94777" lon="4.64818">
        <ele>151.4</ele>
        <time>2024-04-06T10:35:29Z</time>
      </trkpt>
      <trkpt lat="49.94772" lon="4.64814">
        <ele>151.4</ele>
        <time>2024-04-06T10:35:30Z</time>
      </trkpt>
      <trkpt lat="49.94768" lon="4.6481">
        <ele>151.4</ele>
        <time>2024-04-06T10:35:31Z</time>
      </trkpt>
      <trkpt lat="49.94764" lon="4.64806">
        <ele>151.4</ele>
        <time>2024-04-06T10:35:32Z</time>
      </trkpt>
      <trkpt lat="49.9476" lon="4.64802">
        <ele>151.6</ele>
        <time>2024-04-06T10:35:33Z</time>
      </trkpt>
      <trkpt lat="49.94756" lon="4.64797">
        <ele>151.6</ele>
        <time>2024-04-06T10:35:34Z</time>
      </trkpt>
      <trkpt lat="49.94752" lon="4.64793">
        <ele>151.6</ele>
        <time>2024-04-06T10:35:35Z</time>
      </trkpt>
      <trkpt lat="49.94748" lon="4.64788">
        <ele>151.8</ele>
        <time>2024-04-06T10:35:36Z</time>
      </trkpt>
      <trkpt lat="49.94744" lon="4.64783">
        <ele>152</ele>
        <time>2024-04-06T10:35:37Z</time>
      </trkpt>
      <trkpt lat="49.9474" lon="4.64778">
        <ele>152.2</ele>
        <time>2024-04-06T10:35:38Z</time>
      </trkpt>
      <trkpt lat="49.94737" lon="4.64773">
        <ele>152.2</ele>
        <time>2024-04-06T10:35:39Z</time>
      </trkpt>
      <trkpt lat="49.94733" lon="4.64768">
        <ele>152.2</ele>
        <time>2024-04-06T10:35:40Z</time>
      </trkpt>
      <trkpt lat="49.94729" lon="4.64763">
        <ele>152.4</ele>
        <time>2024-04-06T10:35:41Z</time>
      </trkpt>
      <trkpt lat="49.94725" lon="4.64758">
        <ele>152.4</ele>
        <time>2024-04-06T10:35:42Z</time>
      </trkpt>
      <trkpt lat="49.94721" lon="4.64753">
        <ele>152.4</ele>
        <time>2024-04-06T10:35:43Z</time>
      </trkpt>
      <trkpt lat="49.94717" lon="4.64749">
        <ele>152.6</ele>
        <time>2024-04-06T10:35:44Z</time>
      </trkpt>
      <trkpt lat="49.94713" lon="4.64744">
        <ele>152.8</ele>
        <time>2024-04-06T10:35:45Z</time>
      </trkpt>
      <trkpt lat="49.94709" lon="4.64739">
        <ele>152.6</ele>
        <time>2024-04-06T10:35:46Z</time>
      </trkpt>
      <trkpt lat="49.94704" lon="4.64734">
        <ele>152.6</ele>
        <time>2024-04-06T10:35:47Z</time>
      </trkpt>
      <trkpt lat="49.94701" lon="4.64728">
        <ele>152.8</ele>
        <time>2024-04-06T10:35:48Z</time>
      </trkpt>
      <trkpt lat="49.94697" lon="4.64723">
        <ele>152.8</ele>
        <time>2024-04-06T10:35:49Z</time>
      </trkpt>
      <trkpt lat="49.94693" lon="4.64717">
        <ele>152.8</ele>
        <time>2024-04-06T10:35:50Z</time>
      </trkpt>
      <trkpt lat="49.9469" lon="4.64712">
        <ele>153</ele>
        <time>2024-04-06T10:35:51Z</time>
      </trkpt>
      <trkpt lat="49.94686" lon="4.64706">
        <ele>153</ele>
        <time>2024-04-06T10:35:52Z</time>
      </trkpt>
      <trkpt lat="49.94683" lon="4.64699">
        <ele>153</ele>
        <time>2024-04-06T10:35:53Z</time>
      </trkpt>
      <trkpt lat="49.9468" lon="4.64693">
        <ele>153</ele>
        <time>2024-04-06T10:35:54Z</time>
      </trkpt>
      <trkpt lat="49.94677" lon="4.64686">
        <ele>153</ele>
        <time>2024-04-06T10:35:55Z</time>
      </trkpt>
      <trkpt lat="49.94674" lon="4.6468">
        <ele>153</ele>
        <time>2024-04-06T10:35:56Z</time>
      </trkpt>
      <trkpt lat="49.94671" lon="4.64674">
        <ele>153</ele>
        <time>2024-04-06T10:35:57Z</time>
      </trkpt>
      <trkpt lat="49.94668" lon="4.64667">
        <ele>153.2</ele>
        <time>2024-04-06T10:35:58Z</time>
      </trkpt>
      <trkpt lat="49.94665" lon="4.6466">
        <ele>153.2</ele>
        <time>2024-04-06T10:35:59Z</time>
      </trkpt>
      <trkpt lat="49.94661" lon="4.64653">
        <ele>153.2</ele>
        <time>2024-04-06T10:36:00Z</time>
      </trkpt>
      <trkpt lat="49.94658" lon="4.64646">
        <ele>153.2</ele>
        <time>2024-04-06T10:36:01Z</time>
      </trkpt>
      <trkpt lat="49.94655" lon="4.64639">
        <ele>153.2</ele>
        <time>2024-04-06T10:36:02Z</time>
      </trkpt>
      <trkpt lat="49.94652" lon="4.64631">
        <ele>153.2</ele>
        <time>2024-04-06T10:36:03Z</time>
      </trkpt>
      <trkpt lat="49.94649" lon="4.64624">
        <ele>153.2</ele>
        <time>2024-04-06T10:36:04Z</time>
      </trkpt>
      <trkpt lat="49.94645" lon="4.64615">
        <ele>153.4</ele>
        <time>2024-04-06T10:36:05Z</time>
      </trkpt>
      <trkpt lat="49.94642" lon="4.64607">
        <ele>153.4</ele>
        <time>2024-04-06T10:36:06Z</time>
      </trkpt>
      <trkpt lat="49.94639" lon="4.64598">
        <ele>153.2</ele>
        <time>2024-04-06T10:36:07Z</time>
      </trkpt>
      <trkpt lat="49.94636" lon="4.64589">
        <ele>153.4</ele>
        <time>2024-04-06T10:36:08Z</time>
      </trkpt>
      <trkpt lat="49.94633" lon="4.6458">
        <ele>153.2</ele>
        <time>2024-04-06T10:36:09Z</time>
      </trkpt>
      <trkpt lat="49.9463" lon="4.64571">
        <ele>153</ele>
        <time>2024-04-06T10:36:10Z</time>
      </trkpt>
      <trkpt lat="49.94627" lon="4.64562">
        <ele>152.8</ele>
        <time>2024-04-06T10:36:11Z</time>
      </trkpt>
      <trkpt lat="49.94624" lon="4.64552">
        <ele>152.4</ele>
        <time>2024-04-06T10:36:12Z</time>
      </trkpt>
      <trkpt lat="49.94621" lon="4.64543">
        <ele>152.2</ele>
        <time>2024-04-06T10:36:13Z</time>
      </trkpt>
      <trkpt lat="49.94618" lon="4.64533">
        <ele>152</ele>
        <time>2024-04-06T10:36:14Z</time>
      </trkpt>
      <trkpt lat="49.94615" lon="4.64523">
        <ele>151.6</ele>
        <time>2024-04-06T10:36:15Z</time>
      </trkpt>
      <trkpt lat="49.94612" lon="4.64513">
        <ele>151.2</ele>
        <time>2024-04-06T10:36:16Z</time>
      </trkpt>
      <trkpt lat="49.94609" lon="4.64503">
        <ele>150.8</ele>
        <time>2024-04-06T10:36:17Z</time>
      </trkpt>
      <trkpt lat="49.94607" lon="4.64493">
        <ele>150.4</ele>
        <time>2024-04-06T10:36:18Z</time>
      </trkpt>
      <trkpt lat="49.94604" lon="4.64483">
        <ele>150.2</ele>
        <time>2024-04-06T10:36:19Z</time>
      </trkpt>
      <trkpt lat="49.94602" lon="4.64472">
        <ele>150.4</ele>
        <time>2024-04-06T10:36:20Z</time>
      </trkpt>
      <trkpt lat="49.946" lon="4.64461">
        <ele>149.8</ele>
        <time>2024-04-06T10:36:21Z</time>
      </trkpt>
      <trkpt lat="49.94598" lon="4.64449">
        <ele>149.6</ele>
        <time>2024-04-06T10:36:22Z</time>
      </trkpt>
      <trkpt lat="49.94596" lon="4.64437">
        <ele>149.2</ele>
        <time>2024-04-06T10:36:23Z</time>
      </trkpt>
      <trkpt lat="49.94594" lon="4.64424">
        <ele>149.2</ele>
        <time>2024-04-06T10:36:24Z</time>
      </trkpt>
      <trkpt lat="49.94592" lon="4.64412">
        <ele>149</ele>
        <time>2024-04-06T10:36:25Z</time>
      </trkpt>
      <trkpt lat="49.94589" lon="4.64399">
        <ele>149</ele>
        <time>2024-04-06T10:36:26Z</time>
      </trkpt>
      <trkpt lat="49.94588" lon="4.64387">
        <ele>148.8</ele>
        <time>2024-04-06T10:36:27Z</time>
      </trkpt>
      <trkpt lat="49.94586" lon="4.64374">
        <ele>148.6</ele>
        <time>2024-04-06T10:36:28Z</time>
      </trkpt>
      <trkpt lat="49.94584" lon="4.64362">
        <ele>148.4</ele>
        <time>2024-04-06T10:36:29Z</time>
      </trkpt>
      <trkpt lat="49.94582" lon="4.64349">
        <ele>148.2</ele>
        <time>2024-04-06T10:36:30Z</time>
      </trkpt>
      <trkpt lat="49.9458" lon="4.64335">
        <ele>147.6</ele>
        <time>2024-04-06T10:36:31Z</time>
      </trkpt>
      <trkpt lat="49.94578" lon="4.64322">
        <ele>146.8</ele>
        <time>2024-04-06T10:36:32Z</time>
      </trkpt>
      <trkpt lat="49.94576" lon="4.64309">
        <ele>146.2</ele>
        <time>2024-04-06T10:36:33Z</time>
      </trkpt>
      <trkpt lat="49.94574" lon="4.64296">
        <ele>145.4</ele>
        <time>2024-04-06T10:36:34Z</time>
      </trkpt>
      <trkpt lat="49.94572" lon="4.64284">
        <ele>144.8</ele>
        <time>2024-04-06T10:36:35Z</time>
      </trkpt>
      <trkpt lat="49.9457" lon="4.64272">
        <ele>144.6</ele>
        <time>2024-04-06T10:36:36Z</time>
      </trkpt>
      <trkpt lat="49.94568" lon="4.6426">
        <ele>144.4</ele>
        <time>2024-04-06T10:36:37Z</time>
      </trkpt>
      <trkpt lat="49.94567" lon="4.64247">
        <ele>144.2</ele>
        <time>2024-04-06T10:36:38Z</time>
      </trkpt>
      <trkpt lat="49.94566" lon="4.64235">
        <ele>143.8</ele>
        <time>2024-04-06T10:36:39Z</time>
      </trkpt>
      <trkpt lat="49.94564" lon="4.64223">
        <ele>143.4</ele>
        <time>2024-04-06T10:36:40Z</time>
      </trkpt>
      <trkpt lat="49.94563" lon="4.64211">
        <ele>143</ele>
        <time>2024-04-06T10:36:41Z</time>
      </trkpt>
      <trkpt lat="49.94561" lon="4.642">
        <ele>143</ele>
        <time>2024-04-06T10:36:42Z</time>
      </trkpt>
      <trkpt lat="49.9456" lon="4.64188">
        <ele>142.8</ele>
        <time>2024-04-06T10:36:43Z</time>
      </trkpt>
      <trkpt lat="49.94558" lon="4.64177">
        <ele>141.8</ele>
        <time>2024-04-06T10:36:44Z</time>
      </trkpt>
      <trkpt lat="49.94556" lon="4.64165">
        <ele>141</ele>
        <time>2024-04-06T10:36:45Z</time>
      </trkpt>
      <trkpt lat="49.94552" lon="4.64154">
        <ele>140.4</ele>
        <time>2024-04-06T10:36:46Z</time>
      </trkpt>
      <trkpt lat="49.94548" lon="4.64144">
        <ele>139.8</ele>
        <time>2024-04-06T10:36:47Z</time>
      </trkpt>
      <trkpt lat="49.94542" lon="4.64136">
        <ele>139.6</ele>
        <time>2024-04-06T10:36:48Z</time>
      </trkpt>
      <trkpt lat="49.94535" lon="4.64129">
        <ele>139.6</ele>
        <time>2024-04-06T10:36:49Z</time>
      </trkpt>
      <trkpt lat="49.94528" lon="4.64123">
        <ele>139.6</ele>
        <time>2024-04-06T10:36:50Z</time>
      </trkpt>
      <trkpt lat="49.9452" lon="4.64119">
        <ele>139.2</ele>
        <time>2024-04-06T10:36:51Z</time>
      </trkpt>
      <trkpt lat="49.94511" lon="4.64117">
        <ele>139.2</ele>
        <time>2024-04-06T10:36:52Z</time>
      </trkpt>
      <trkpt lat="49.94503" lon="4.64117">
        <ele>139</ele>
        <time>2024-04-06T10:36:53Z</time>
      </trkpt>
      <trkpt lat="49.94495" lon="4.64117">
        <ele>139</ele>
        <time>2024-04-06T10:36:54Z</time>
      </trkpt>
      <trkpt lat="49.94487" lon="4.64117">
        <ele>138.8</ele>
        <time>2024-04-06T10:36:55Z</time>
      </trkpt>
      <trkpt lat="49.94479" lon="4.64117">
        <ele>138.8</ele>
        <time>2024-04-06T10:36:56Z</time>
      </trkpt>
      <trkpt lat="49.94471" lon="4.64117">
        <ele>138.8</ele>
        <time>2024-04-06T10:36:57Z</time>
      </trkpt>
      <trkpt lat="49.94463" lon="4.64117">
        <ele>138.6</ele>
        <time>2024-04-06T10:36:58Z</time>
      </trkpt>
      <trkpt lat="49.94456" lon="4.64117">
        <ele>138</ele>
        <time>2024-04-06T10:36:59Z</time>
      </trkpt>
      <trkpt lat="49.94448" lon="4.64117">
        <ele>137.8</ele>
        <time>2024-04-06T10:37:00Z</time>
      </trkpt>
      <trkpt lat="49.94441" lon="4.64117">
        <ele>137.6</ele>
        <time>2024-04-06T10:37:01Z</time>
      </trkpt>
      <trkpt lat="49.94434" lon="4.64117">
        <ele>137.6</ele>
        <time>2024-04-06T10:37:02Z</time>
      </trkpt>
      <trkpt lat="49.94427" lon="4.64117">
        <ele>137.4</ele>
        <time>2024-04-06T10:37:03Z</time>
      </trkpt>
      <trkpt lat="49.9442" lon="4.64117">
        <ele>137.4</ele>
        <time>2024-04-06T10:37:04Z</time>
      </trkpt>
      <trkpt lat="49.94413" lon="4.64117">
        <ele>137.2</ele>
        <time>2024-04-06T10:37:05Z</time>
      </trkpt>
      <trkpt lat="49.94406" lon="4.64117">
        <ele>137.2</ele>
        <time>2024-04-06T10:37:06Z</time>
      </trkpt>
      <trkpt lat="49.944" lon="4.64117">
        <ele>137</ele>
        <time>2024-04-06T10:37:07Z</time>
      </trkpt>
      <trkpt lat="49.94393" lon="4.64117">
        <ele>137.2</ele>
        <time>2024-04-06T10:37:08Z</time>
      </trkpt>
      <trkpt lat="49.94386" lon="4.64117">
        <ele>137.2</ele>
        <time>2024-04-06T10:37:09Z</time>
      </trkpt>
      <trkpt lat="49.94379" lon="4.64117">
        <ele>137.2</ele>
        <time>2024-04-06T10:37:10Z</time>
      </trkpt>
      <trkpt lat="49.94372" lon="4.64117">
        <ele>137.2</ele>
        <time>2024-04-06T10:37:11Z</time>
      </trkpt>
      <trkpt lat="49.94365" lon="4.64117">
        <ele>137.2</ele>
        <time>2024-04-06T10:37:12Z</time>
      </trkpt>
      <trkpt lat="49.94358" lon="4.64117">
        <ele>137.2</ele>
        <time>2024-04-06T10:37:13Z</time>
      </trkpt>
      <trkpt lat="49.9435" lon="4.64117">
        <ele>137.4</ele>
        <time>2024-04-06T10:37:14Z</time>
      </trkpt>
      <trkpt lat="49.94343" lon="4.64117">
        <ele>137.2</ele>
        <time>2024-04-06T10:37:15Z</time>
      </trkpt>
      <trkpt lat="49.94336" lon="4.64117">
        <ele>137.8</ele>
        <time>2024-04-06T10:37:16Z</time>
      </trkpt>
      <trkpt lat="49.94329" lon="4.64117">
        <ele>138.2</ele>
        <time>2024-04-06T10:37:17Z</time>
      </trkpt>
      <trkpt lat="49.94323" lon="4.64117">
        <ele>138.6</ele>
        <time>2024-04-06T10:37:18Z</time>
      </trkpt>
      <trkpt lat="49.94316" lon="4.64117">
        <ele>138.6</ele>
        <time>2024-04-06T10:37:19Z</time>
      </trkpt>
      <trkpt lat="49.94309" lon="4.64117">
        <ele>138.8</ele>
        <time>2024-04-06T10:37:20Z</time>
      </trkpt>
      <trkpt lat="49.94303" lon="4.64116">
        <ele>139</ele>
        <time>2024-04-06T10:37:21Z</time>
      </trkpt>
      <trkpt lat="49.94296" lon="4.64116">
        <ele>139</ele>
        <time>2024-04-06T10:37:22Z</time>
      </trkpt>
      <trkpt lat="49.9429" lon="4.64116">
        <ele>139.2</ele>
        <time>2024-04-06T10:37:23Z</time>
      </trkpt>
      <trkpt lat="49.94284" lon="4.64116">
        <ele>139.2</ele>
        <time>2024-04-06T10:37:24Z</time>
      </trkpt>
      <trkpt lat="49.94278" lon="4.64116">
        <ele>139.4</ele>
        <time>2024-04-06T10:37:25Z</time>
      </trkpt>
      <trkpt lat="49.94272" lon="4.64116">
        <ele>139.6</ele>
        <time>2024-04-06T10:37:26Z</time>
      </trkpt>
      <trkpt lat="49.94267" lon="4.64116">
        <ele>139.8</ele>
        <time>2024-04-06T10:37:27Z</time>
      </trkpt>
      <trkpt lat="49.94261" lon="4.64115">
        <ele>139.6</ele>
        <time>2024-04-06T10:37:28Z</time>
      </trkpt>
      <trkpt lat="49.94255" lon="4.64115">
        <ele>140</ele>
        <time>2024-04-06T10:37:29Z</time>
      </trkpt>
      <trkpt lat="49.9425" lon="4.64115">
        <ele>140</ele>
        <time>2024-04-06T10:37:30Z</time>
      </trkpt>
      <trkpt lat="49.94245" lon="4.64115">
        <ele>140</ele>
        <time>2024-04-06T10:37:31Z</time>
      </trkpt>
      <trkpt lat="49.9424" lon="4.64116">
        <ele>140</ele>
        <time>2024-04-06T10:37:32Z</time>
      </trkpt>
      <trkpt lat="49.94235" lon="4.64115">
        <ele>140.2</ele>
        <time>2024-04-06T10:37:33Z</time>
      </trkpt>
      <trkpt lat="49.9423" lon="4.64115">
        <ele>140.4</ele>
        <time>2024-04-06T10:37:34Z</time>
      </trkpt>
      <trkpt lat="49.94225" lon="4.64115">
        <ele>140.6</ele>
        <time>2024-04-06T10:37:35Z</time>
      </trkpt>
      <trkpt lat="49.9422" lon="4.64115">
        <ele>140.6</ele>
        <time>2024-04-06T10:37:36Z</time>
      </trkpt>
      <trkpt lat="49.94216" lon="4.64115">
        <ele>140.8</ele>
        <time>2024-04-06T10:37:37Z</time>
      </trkpt>
      <trkpt lat="49.94211" lon="4.64115">
        <ele>141</ele>
        <time>2024-04-06T10:37:38Z</time>
      </trkpt>
      <trkpt lat="49.94206" lon="4.64114">
        <ele>141</ele>
        <time>2024-04-06T10:37:39Z</time>
      </trkpt>
      <trkpt lat="49.94201" lon="4.64114">
        <ele>141.2</ele>
        <time>2024-04-06T10:37:40Z</time>
      </trkpt>
      <trkpt lat="49.94196" lon="4.64113">
        <ele>141.2</ele>
        <time>2024-04-06T10:37:41Z</time>
      </trkpt>
      <trkpt lat="49.94191" lon="4.64111">
        <ele>141.4</ele>
        <time>2024-04-06T10:37:42Z</time>
      </trkpt>
      <trkpt lat="49.94187" lon="4.64106">
        <ele>141.6</ele>
        <time>2024-04-06T10:37:43Z</time>
      </trkpt>
      <trkpt lat="49.94184" lon="4.641">
        <ele>141.6</ele>
        <time>2024-04-06T10:37:44Z</time>
      </trkpt>
      <trkpt lat="49.94183" lon="4.64092">
        <ele>141.6</ele>
        <time>2024-04-06T10:37:45Z</time>
      </trkpt>
      <trkpt lat="49.94183" lon="4.64084">
        <ele>142.6</ele>
        <time>2024-04-06T10:37:46Z</time>
      </trkpt>
      <trkpt lat="49.94183" lon="4.64076">
        <ele>142.6</ele>
        <time>2024-04-06T10:37:47Z</time>
      </trkpt>
      <trkpt lat="49.94184" lon="4.64067">
        <ele>143.4</ele>
        <time>2024-04-06T10:37:48Z</time>
      </trkpt>
      <trkpt lat="49.94184" lon="4.64059">
        <ele>144</ele>
        <time>2024-04-06T10:37:49Z</time>
      </trkpt>
      <trkpt lat="49.94183" lon="4.6405">
        <ele>144.2</ele>
        <time>2024-04-06T10:37:50Z</time>
      </trkpt>
      <trkpt lat="49.94183" lon="4.64041">
        <ele>144.4</ele>
        <time>2024-04-06T10:37:51Z</time>
      </trkpt>
      <trkpt lat="49.94182" lon="4.64033">
        <ele>144.4</ele>
        <time>2024-04-06T10:37:52Z</time>
      </trkpt>
      <trkpt lat="49.9418" lon="4.64024">
        <ele>144.6</ele>
        <time>2024-04-06T10:37:53Z</time>
      </trkpt>
      <trkpt lat="49.94179" lon="4.64015">
        <ele>144.4</ele>
        <time>2024-04-06T10:37:54Z</time>
      </trkpt>
      <trkpt lat="49.94178" lon="4.64007">
        <ele>144.6</ele>
        <time>2024-04-06T10:37:55Z</time>
      </trkpt>
      <trkpt lat="49.94177" lon="4.63998">
        <ele>144.6</ele>
        <time>2024-04-06T10:37:56Z</time>
      </trkpt>
      <trkpt lat="49.94176" lon="4.6399">
        <ele>144.6</ele>
        <time>2024-04-06T10:37:57Z</time>
      </trkpt>
      <trkpt lat="49.94174" lon="4.63981">
        <ele>144.6</ele>
        <time>2024-04-06T10:37:58Z</time>
      </trkpt>
      <trkpt lat="49.94173" lon="4.63972">
        <ele>144.8</ele>
        <time>2024-04-06T10:37:59Z</time>
      </trkpt>
      <trkpt lat="49.94172" lon="4.63964">
        <ele>144.8</ele>
        <time>2024-04-06T10:38:00Z</time>
      </trkpt>
      <trkpt lat="49.94171" lon="4.63955">
        <ele>144.8</ele>
        <time>2024-04-06T10:38:01Z</time>
      </trkpt>
      <trkpt lat="49.9417" lon="4.63947">
        <ele>144.8</ele>
        <time>2024-04-06T10:38:02Z</time>
      </trkpt>
      <trkpt lat="49.94168" lon="4.63938">
        <ele>144.6</ele>
        <time>2024-04-06T10:38:03Z</time>
      </trkpt>
      <trkpt lat="49.94167" lon="4.6393">
        <ele>144.6</ele>
        <time>2024-04-06T10:38:04Z</time>
      </trkpt>
      <trkpt lat="49.94165" lon="4.63922">
        <ele>144.6</ele>
        <time>2024-04-06T10:38:05Z</time>
      </trkpt>
      <trkpt lat="49.94163" lon="4.63914">
        <ele>144.6</ele>
        <time>2024-04-06T10:38:06Z</time>
      </trkpt>
      <trkpt lat="49.94161" lon="4.63906">
        <ele>144.6</ele>
        <time>2024-04-06T10:38:07Z</time>
      </trkpt>
      <trkpt lat="49.94159" lon="4.63899">
        <ele>144.6</ele>
        <time>2024-04-06T10:38:08Z</time>
      </trkpt>
      <trkpt lat="49.94157" lon="4.63892">
        <ele>144.8</ele>
        <time>2024-04-06T10:38:09Z</time>
      </trkpt>
      <trkpt lat="49.94155" lon="4.63885">
        <ele>144.8</ele>
        <time>2024-04-06T10:38:10Z</time>
      </trkpt>
      <trkpt lat="49.94152" lon="4.63878">
        <ele>145</ele>
        <time>2024-04-06T10:38:11Z</time>
      </trkpt>
      <trkpt lat="49.9415" lon="4.63871">
        <ele>144.8</ele>
        <time>2024-04-06T10:38:12Z</time>
      </trkpt>
      <trkpt lat="49.94148" lon="4.63864">
        <ele>145.2</ele>
        <time>2024-04-06T10:38:13Z</time>
      </trkpt>
      <trkpt lat="49.94145" lon="4.63858">
        <ele>145.2</ele>
        <time>2024-04-06T10:38:14Z</time>
      </trkpt>
      <trkpt lat="49.94143" lon="4.63851">
        <ele>145.2</ele>
        <time>2024-04-06T10:38:15Z</time>
      </trkpt>
      <trkpt lat="49.94141" lon="4.63844">
        <ele>145.4</ele>
        <time>2024-04-06T10:38:16Z</time>
      </trkpt>
      <trkpt lat="49.94139" lon="4.63837">
        <ele>145.6</ele>
        <time>2024-04-06T10:38:17Z</time>
      </trkpt>
      <trkpt lat="49.94137" lon="4.63829">
        <ele>145.8</ele>
        <time>2024-04-06T10:38:18Z</time>
      </trkpt>
      <trkpt lat="49.94135" lon="4.63822">
        <ele>146</ele>
        <time>2024-04-06T10:38:19Z</time>
      </trkpt>
      <trkpt lat="49.94134" lon="4.63815">
        <ele>146.4</ele>
        <time>2024-04-06T10:38:20Z</time>
      </trkpt>
      <trkpt lat="49.94132" lon="4.63808">
        <ele>146.4</ele>
        <time>2024-04-06T10:38:21Z</time>
      </trkpt>
      <trkpt lat="49.9413" lon="4.63801">
        <ele>146.4</ele>
        <time>2024-04-06T10:38:22Z</time>
      </trkpt>
      <trkpt lat="49.94129" lon="4.63794">
        <ele>146.6</ele>
        <time>2024-04-06T10:38:23Z</time>
      </trkpt>
      <trkpt lat="49.94127" lon="4.63787">
        <ele>146.6</ele>
        <time>2024-04-06T10:38:24Z</time>
      </trkpt>
      <trkpt lat="49.94124" lon="4.63781">
        <ele>146.8</ele>
        <time>2024-04-06T10:38:25Z</time>
      </trkpt>
      <trkpt lat="49.94121" lon="4.63776">
        <ele>146.8</ele>
        <time>2024-04-06T10:38:26Z</time>
      </trkpt>
      <trkpt lat="49.94118" lon="4.63773">
        <ele>147</ele>
        <time>2024-04-06T10:38:27Z</time>
      </trkpt>
      <trkpt lat="49.94115" lon="4.63772">
        <ele>147</ele>
        <time>2024-04-06T10:38:28Z</time>
      </trkpt>
      <trkpt lat="49.94113" lon="4.63771">
        <ele>147</ele>
        <time>2024-04-06T10:38:29Z</time>
      </trkpt>
      <trkpt lat="49.9411" lon="4.63772">
        <ele>147.2</ele>
        <time>2024-04-06T10:38:30Z</time>
      </trkpt>
      <trkpt lat="49.94106" lon="4.63772">
        <ele>147.2</ele>
        <time>2024-04-06T10:38:31Z</time>
      </trkpt>
      <trkpt lat="49.94102" lon="4.63773">
        <ele>147</ele>
        <time>2024-04-06T10:38:32Z</time>
      </trkpt>
      <trkpt lat="49.94097" lon="4.63775">
        <ele>147.2</ele>
        <time>2024-04-06T10:38:33Z</time>
      </trkpt>
      <trkpt lat="49.94092" lon="4.63775">
        <ele>147.2</ele>
        <time>2024-04-06T10:38:34Z</time>
      </trkpt>
      <trkpt lat="49.94087" lon="4.63772">
        <ele>147</ele>
        <time>2024-04-06T10:38:35Z</time>
      </trkpt>
      <trkpt lat="49.94083" lon="4.63767">
        <ele>147</ele>
        <time>2024-04-06T10:38:36Z</time>
      </trkpt>
      <trkpt lat="49.94078" lon="4.6376">
        <ele>146.6</ele>
        <time>2024-04-06T10:38:37Z</time>
      </trkpt>
      <trkpt lat="49.94074" lon="4.63752">
        <ele>146.6</ele>
        <time>2024-04-06T10:38:38Z</time>
      </trkpt>
      <trkpt lat="49.9407" lon="4.63745">
        <ele>146.4</ele>
        <time>2024-04-06T10:38:39Z</time>
      </trkpt>
      <trkpt lat="49.94065" lon="4.63738">
        <ele>146</ele>
        <time>2024-04-06T10:38:40Z</time>
      </trkpt>
      <trkpt lat="49.9406" lon="4.6373">
        <ele>146</ele>
        <time>2024-04-06T10:38:41Z</time>
      </trkpt>
      <trkpt lat="49.94054" lon="4.63723">
        <ele>146</ele>
        <time>2024-04-06T10:38:42Z</time>
      </trkpt>
      <trkpt lat="49.94048" lon="4.63716">
        <ele>146</ele>
        <time>2024-04-06T10:38:43Z</time>
      </trkpt>
      <trkpt lat="49.94042" lon="4.63709">
        <ele>145.8</ele>
        <time>2024-04-06T10:38:44Z</time>
      </trkpt>
      <trkpt lat="49.94035" lon="4.63703">
        <ele>145.4</ele>
        <time>2024-04-06T10:38:45Z</time>
      </trkpt>
      <trkpt lat="49.94028" lon="4.63697">
        <ele>145.4</ele>
        <time>2024-04-06T10:38:46Z</time>
      </trkpt>
      <trkpt lat="49.94021" lon="4.63691">
        <ele>145.2</ele>
        <time>2024-04-06T10:38:47Z</time>
      </trkpt>
      <trkpt lat="49.94014" lon="4.63686">
        <ele>145.2</ele>
        <time>2024-04-06T10:38:48Z</time>
      </trkpt>
      <trkpt lat="49.94005" lon="4.63683">
        <ele>145</ele>
        <time>2024-04-06T10:38:49Z</time>
      </trkpt>
      <trkpt lat="49.93997" lon="4.6368">
        <ele>144.8</ele>
        <time>2024-04-06T10:38:50Z</time>
      </trkpt>
      <trkpt lat="49.93988" lon="4.63679">
        <ele>144.4</ele>
        <time>2024-04-06T10:38:51Z</time>
      </trkpt>
      <trkpt lat="49.93979" lon="4.63679">
        <ele>144</ele>
        <time>2024-04-06T10:38:52Z</time>
      </trkpt>
      <trkpt lat="49.9397" lon="4.63679">
        <ele>143.6</ele>
        <time>2024-04-06T10:38:53Z</time>
      </trkpt>
      <trkpt lat="49.93961" lon="4.63679">
        <ele>143.2</ele>
        <time>2024-04-06T10:38:54Z</time>
      </trkpt>
      <trkpt lat="49.93952" lon="4.63682">
        <ele>142.8</ele>
        <time>2024-04-06T10:38:55Z</time>
      </trkpt>
      <trkpt lat="49.93945" lon="4.63687">
        <ele>142.2</ele>
        <time>2024-04-06T10:38:56Z</time>
      </trkpt>
      <trkpt lat="49.93939" lon="4.63696">
        <ele>141.6</ele>
        <time>2024-04-06T10:38:57Z</time>
      </trkpt>
      <trkpt lat="49.93936" lon="4.63707">
        <ele>141</ele>
        <time>2024-04-06T10:38:58Z</time>
      </trkpt>
      <trkpt lat="49.93934" lon="4.63719">
        <ele>140.6</ele>
        <time>2024-04-06T10:38:59Z</time>
      </trkpt>
      <trkpt lat="49.93932" lon="4.6373">
        <ele>140.2</ele>
        <time>2024-04-06T10:39:00Z</time>
      </trkpt>
      <trkpt lat="49.93931" lon="4.63742">
        <ele>139.4</ele>
        <time>2024-04-06T10:39:01Z</time>
      </trkpt>
      <trkpt lat="49.9393" lon="4.63753">
        <ele>139</ele>
        <time>2024-04-06T10:39:02Z</time>
      </trkpt>
      <trkpt lat="49.93929" lon="4.63764">
        <ele>138.8</ele>
        <time>2024-04-06T10:39:03Z</time>
      </trkpt>
      <trkpt lat="49.93927" lon="4.63774">
        <ele>138.8</ele>
        <time>2024-04-06T10:39:04Z</time>
      </trkpt>
      <trkpt lat="49.93926" lon="4.63785">
        <ele>138.4</ele>
        <time>2024-04-06T10:39:05Z</time>
      </trkpt>
      <trkpt lat="49.93924" lon="4.63795">
        <ele>138.4</ele>
        <time>2024-04-06T10:39:06Z</time>
      </trkpt>
      <trkpt lat="49.93923" lon="4.63805">
        <ele>138.4</ele>
        <time>2024-04-06T10:39:07Z</time>
      </trkpt>
      <trkpt lat="49.93922" lon="4.63816">
        <ele>138.4</ele>
        <time>2024-04-06T10:39:08Z</time>
      </trkpt>
      <trkpt lat="49.9392" lon="4.63826">
        <ele>138.4</ele>
        <time>2024-04-06T10:39:09Z</time>
      </trkpt>
      <trkpt lat="49.93919" lon="4.63837">
        <ele>138.4</ele>
        <time>2024-04-06T10:39:10Z</time>
      </trkpt>
      <trkpt lat="49.93917" lon="4.63848">
        <ele>138.4</ele>
        <time>2024-04-06T10:39:11Z</time>
      </trkpt>
      <trkpt lat="49.93915" lon="4.63859">
        <ele>138.4</ele>
        <time>2024-04-06T10:39:12Z</time>
      </trkpt>
      <trkpt lat="49.93912" lon="4.6387">
        <ele>138.4</ele>
        <time>2024-04-06T10:39:13Z</time>
      </trkpt>
      <trkpt lat="49.93908" lon="4.6388">
        <ele>138.4</ele>
        <time>2024-04-06T10:39:14Z</time>
      </trkpt>
      <trkpt lat="49.93903" lon="4.6389">
        <ele>138.2</ele>
        <time>2024-04-06T10:39:15Z</time>
      </trkpt>
      <trkpt lat="49.93897" lon="4.63898">
        <ele>138.4</ele>
        <time>2024-04-06T10:39:16Z</time>
      </trkpt>
      <trkpt lat="49.9389" lon="4.63906">
        <ele>138.4</ele>
        <time>2024-04-06T10:39:17Z</time>
      </trkpt>
      <trkpt lat="49.93883" lon="4.63914">
        <ele>138.4</ele>
        <time>2024-04-06T10:39:18Z</time>
      </trkpt>
      <trkpt lat="49.93876" lon="4.63921">
        <ele>138.2</ele>
        <time>2024-04-06T10:39:19Z</time>
      </trkpt>
      <trkpt lat="49.9387" lon="4.63929">
        <ele>138</ele>
        <time>2024-04-06T10:39:20Z</time>
      </trkpt>
      <trkpt lat="49.93864" lon="4.63936">
        <ele>137.8</ele>
        <time>2024-04-06T10:39:21Z</time>
      </trkpt>
      <trkpt lat="49.93858" lon="4.63941">
        <ele>137.4</ele>
        <time>2024-04-06T10:39:22Z</time>
      </trkpt>
      <trkpt lat="49.93852" lon="4.63946">
        <ele>137.2</ele>
        <time>2024-04-06T10:39:23Z</time>
      </trkpt>
      <trkpt lat="49.93847" lon="4.6395">
        <ele>137.2</ele>
        <time>2024-04-06T10:39:24Z</time>
      </trkpt>
      <trkpt lat="49.93842" lon="4.63954">
        <ele>136.4</ele>
        <time>2024-04-06T10:39:25Z</time>
      </trkpt>
      <trkpt lat="49.93836" lon="4.63958">
        <ele>136</ele>
        <time>2024-04-06T10:39:26Z</time>
      </trkpt>
      <trkpt lat="49.93831" lon="4.63961">
        <ele>135.6</ele>
        <time>2024-04-06T10:39:27Z</time>
      </trkpt>
      <trkpt lat="49.93826" lon="4.63966">
        <ele>135.4</ele>
        <time>2024-04-06T10:39:28Z</time>
      </trkpt>
      <trkpt lat="49.9382" lon="4.63969">
        <ele>135.2</ele>
        <time>2024-04-06T10:39:29Z</time>
      </trkpt>
      <trkpt lat="49.93815" lon="4.63973">
        <ele>135.2</ele>
        <time>2024-04-06T10:39:30Z</time>
      </trkpt>
      <trkpt lat="49.93809" lon="4.63976">
        <ele>135.2</ele>
        <time>2024-04-06T10:39:31Z</time>
      </trkpt>
      <trkpt lat="49.93804" lon="4.6398">
        <ele>135.2</ele>
        <time>2024-04-06T10:39:32Z</time>
      </trkpt>
      <trkpt lat="49.93798" lon="4.63984">
        <ele>135.2</ele>
        <time>2024-04-06T10:39:33Z</time>
      </trkpt>
      <trkpt lat="49.93793" lon="4.63988">
        <ele>135.2</ele>
        <time>2024-04-06T10:39:34Z</time>
      </trkpt>
      <trkpt lat="49.93787" lon="4.63992">
        <ele>135.2</ele>
        <time>2024-04-06T10:39:35Z</time>
      </trkpt>
      <trkpt lat="49.93781" lon="4.63997">
        <ele>135.2</ele>
        <time>2024-04-06T10:39:36Z</time>
      </trkpt>
      <trkpt lat="49.93775" lon="4.64">
        <ele>135.2</ele>
        <time>2024-04-06T10:39:37Z</time>
      </trkpt>
      <trkpt lat="49.93769" lon="4.64005">
        <ele>135.2</ele>
        <time>2024-04-06T10:39:38Z</time>
      </trkpt>
      <trkpt lat="49.93763" lon="4.64009">
        <ele>135.4</ele>
        <time>2024-04-06T10:39:39Z</time>
      </trkpt>
      <trkpt lat="49.93757" lon="4.64013">
        <ele>135.2</ele>
        <time>2024-04-06T10:39:40Z</time>
      </trkpt>
      <trkpt lat="49.93752" lon="4.64017">
        <ele>135.4</ele>
        <time>2024-04-06T10:39:41Z</time>
      </trkpt>
      <trkpt lat="49.93746" lon="4.64021">
        <ele>135.4</ele>
        <time>2024-04-06T10:39:42Z</time>
      </trkpt>
      <trkpt lat="49.93741" lon="4.64025">
        <ele>135.4</ele>
        <time>2024-04-06T10:39:43Z</time>
      </trkpt>
      <trkpt lat="49.93735" lon="4.64029">
        <ele>135.6</ele>
        <time>2024-04-06T10:39:44Z</time>
      </trkpt>
      <trkpt lat="49.93729" lon="4.64032">
        <ele>135.8</ele>
        <time>2024-04-06T10:39:45Z</time>
      </trkpt>
      <trkpt lat="49.93724" lon="4.64035">
        <ele>135.8</ele>
        <time>2024-04-06T10:39:46Z</time>
      </trkpt>
      <trkpt lat="49.93719" lon="4.64037">
        <ele>135.8</ele>
        <time>2024-04-06T10:39:47Z</time>
      </trkpt>
      <trkpt lat="49.93713" lon="4.64039">
        <ele>135.8</ele>
        <time>2024-04-06T10:39:48Z</time>
      </trkpt>
      <trkpt lat="49.93708" lon="4.6404">
        <ele>136</ele>
        <time>2024-04-06T10:39:49Z</time>
      </trkpt>
      <trkpt lat="49.93703" lon="4.64042">
        <ele>136.2</ele>
        <time>2024-04-06T10:39:50Z</time>
      </trkpt>
      <trkpt lat="49.93698" lon="4.64044">
        <ele>136.2</ele>
        <time>2024-04-06T10:39:51Z</time>
      </trkpt>
      <trkpt lat="49.93692" lon="4.64045">
        <ele>136.4</ele>
        <time>2024-04-06T10:39:52Z</time>
      </trkpt>
      <trkpt lat="49.93688" lon="4.64046">
        <ele>136.4</ele>
        <time>2024-04-06T10:39:53Z</time>
      </trkpt>
      <trkpt lat="49.93683" lon="4.64047">
        <ele>136.4</ele>
        <time>2024-04-06T10:39:54Z</time>
      </trkpt>
      <trkpt lat="49.93678" lon="4.64048">
        <ele>136.4</ele>
        <time>2024-04-06T10:39:55Z</time>
      </trkpt>
      <trkpt lat="49.93674" lon="4.64048">
        <ele>137.2</ele>
        <time>2024-04-06T10:39:56Z</time>
      </trkpt>
      <trkpt lat="49.9367" lon="4.64049">
        <ele>137.6</ele>
        <time>2024-04-06T10:39:57Z</time>
      </trkpt>
      <trkpt lat="49.93666" lon="4.6405">
        <ele>138</ele>
        <time>2024-04-06T10:39:58Z</time>
      </trkpt>
      <trkpt lat="49.93662" lon="4.6405">
        <ele>138.4</ele>
        <time>2024-04-06T10:39:59Z</time>
      </trkpt>
      <trkpt lat="49.93658" lon="4.64051">
        <ele>138.6</ele>
        <time>2024-04-06T10:40:00Z</time>
      </trkpt>
      <trkpt lat="49.93653" lon="4.64052">
        <ele>138.8</ele>
        <time>2024-04-06T10:40:01Z</time>
      </trkpt>
      <trkpt lat="49.93649" lon="4.64053">
        <ele>139</ele>
        <time>2024-04-06T10:40:02Z</time>
      </trkpt>
      <trkpt lat="49.93645" lon="4.64054">
        <ele>139.2</ele>
        <time>2024-04-06T10:40:03Z</time>
      </trkpt>
      <trkpt lat="49.93641" lon="4.64054">
        <ele>139.2</ele>
        <time>2024-04-06T10:40:04Z</time>
      </trkpt>
      <trkpt lat="49.93637" lon="4.64054">
        <ele>139.4</ele>
        <time>2024-04-06T10:40:05Z</time>
      </trkpt>
      <trkpt lat="49.93633" lon="4.64054">
        <ele>139.6</ele>
        <time>2024-04-06T10:40:06Z</time>
      </trkpt>
      <trkpt lat="49.93629" lon="4.64054">
        <ele>140</ele>
        <time>2024-04-06T10:40:07Z</time>
      </trkpt>
      <trkpt lat="49.93624" lon="4.64054">
        <ele>140.4</ele>
        <time>2024-04-06T10:40:08Z</time>
      </trkpt>
      <trkpt lat="49.93619" lon="4.64053">
        <ele>140.6</ele>
        <time>2024-04-06T10:40:09Z</time>
      </trkpt>
      <trkpt lat="49.93614" lon="4.64052">
        <ele>140.6</ele>
        <time>2024-04-06T10:40:10Z</time>
      </trkpt>
      <trkpt lat="49.9361" lon="4.6405">
        <ele>141</ele>
        <time>2024-04-06T10:40:11Z</time>
      </trkpt>
      <trkpt lat="49.93605" lon="4.64048">
        <ele>141.2</ele>
        <time>2024-04-06T10:40:12Z</time>
      </trkpt>
      <trkpt lat="49.93601" lon="4.64046">
        <ele>141.6</ele>
        <time>2024-04-06T10:40:13Z</time>
      </trkpt>
      <trkpt lat="49.93596" lon="4.64045">
        <ele>142</ele>
        <time>2024-04-06T10:40:14Z</time>
      </trkpt>
      <trkpt lat="49.93592" lon="4.64044">
        <ele>142.4</ele>
        <time>2024-04-06T10:40:15Z</time>
      </trkpt>
      <trkpt lat="49.93587" lon="4.64042">
        <ele>143</ele>
        <time>2024-04-06T10:40:16Z</time>
      </trkpt>
      <trkpt lat="49.93583" lon="4.64041">
        <ele>143.4</ele>
        <time>2024-04-06T10:40:17Z</time>
      </trkpt>
      <trkpt lat="49.93578" lon="4.6404">
        <ele>143.6</ele>
        <time>2024-04-06T10:40:18Z</time>
      </trkpt>
      <trkpt lat="49.93574" lon="4.64038">
        <ele>143.6</ele>
        <time>2024-04-06T10:40:19Z</time>
      </trkpt>
      <trkpt lat="49.9357" lon="4.64037">
        <ele>144</ele>
        <time>2024-04-06T10:40:20Z</time>
      </trkpt>
      <trkpt lat="49.93566" lon="4.64035">
        <ele>144.4</ele>
        <time>2024-04-06T10:40:21Z</time>
      </trkpt>
      <trkpt lat="49.93562" lon="4.64033">
        <ele>144.6</ele>
        <time>2024-04-06T10:40:22Z</time>
      </trkpt>
      <trkpt lat="49.93558" lon="4.64031">
        <ele>144.6</ele>
        <time>2024-04-06T10:40:23Z</time>
      </trkpt>
      <trkpt lat="49.93554" lon="4.64029">
        <ele>144.8</ele>
        <time>2024-04-06T10:40:24Z</time>
      </trkpt>
      <trkpt lat="49.93551" lon="4.64028">
        <ele>145</ele>
        <time>2024-04-06T10:40:25Z</time>
      </trkpt>
      <trkpt lat="49.93547" lon="4.64026">
        <ele>145.2</ele>
        <time>2024-04-06T10:40:26Z</time>
      </trkpt>
      <trkpt lat="49.93543" lon="4.64025">
        <ele>145.2</ele>
        <time>2024-04-06T10:40:27Z</time>
      </trkpt>
      <trkpt lat="49.93538" lon="4.64023">
        <ele>145.4</ele>
        <time>2024-04-06T10:40:28Z</time>
      </trkpt>
      <trkpt lat="49.93534" lon="4.64021">
        <ele>145.6</ele>
        <time>2024-04-06T10:40:29Z</time>
      </trkpt>
      <trkpt lat="49.9353" lon="4.64019">
        <ele>145.6</ele>
        <time>2024-04-06T10:40:30Z</time>
      </trkpt>
      <trkpt lat="49.93527" lon="4.64018">
        <ele>145.6</ele>
        <time>2024-04-06T10:40:31Z</time>
      </trkpt>
      <trkpt lat="49.93523" lon="4.64016">
        <ele>145.8</ele>
        <time>2024-04-06T10:40:32Z</time>
      </trkpt>
      <trkpt lat="49.93519" lon="4.64015">
        <ele>145.6</ele>
        <time>2024-04-06T10:40:33Z</time>
      </trkpt>
      <trkpt lat="49.93515" lon="4.64014">
        <ele>145.8</ele>
        <time>2024-04-06T10:40:34Z</time>
      </trkpt>
      <trkpt lat="49.9351" lon="4.64013">
        <ele>145.8</ele>
        <time>2024-04-06T10:40:35Z</time>
      </trkpt>
      <trkpt lat="49.93506" lon="4.64013">
        <ele>145.8</ele>
        <time>2024-04-06T10:40:36Z</time>
      </trkpt>
      <trkpt lat="49.93502" lon="4.64013">
        <ele>146</ele>
        <time>2024-04-06T10:40:37Z</time>
      </trkpt>
      <trkpt lat="49.93498" lon="4.64014">
        <ele>146.2</ele>
        <time>2024-04-06T10:40:38Z</time>
      </trkpt>
      <trkpt lat="49.93494" lon="4.64015">
        <ele>146.2</ele>
        <time>2024-04-06T10:40:39Z</time>
      </trkpt>
      <trkpt lat="49.93489" lon="4.64016">
        <ele>146.4</ele>
        <time>2024-04-06T10:40:40Z</time>
      </trkpt>
      <trkpt lat="49.93485" lon="4.64017">
        <ele>146.4</ele>
        <time>2024-04-06T10:40:41Z</time>
      </trkpt>
      <trkpt lat="49.93481" lon="4.64017">
        <ele>146.6</ele>
        <time>2024-04-06T10:40:42Z</time>
      </trkpt>
      <trkpt lat="49.93477" lon="4.64018">
        <ele>146.6</ele>
        <time>2024-04-06T10:40:43Z</time>
      </trkpt>
      <trkpt lat="49.93474" lon="4.64018">
        <ele>147.2</ele>
        <time>2024-04-06T10:40:44Z</time>
      </trkpt>
      <trkpt lat="49.9347" lon="4.64019">
        <ele>147.8</ele>
        <time>2024-04-06T10:40:45Z</time>
      </trkpt>
      <trkpt lat="49.93467" lon="4.6402">
        <ele>148</ele>
        <time>2024-04-06T10:40:46Z</time>
      </trkpt>
      <trkpt lat="49.93464" lon="4.64021">
        <ele>148.4</ele>
        <time>2024-04-06T10:40:47Z</time>
      </trkpt>
      <trkpt lat="49.9346" lon="4.64021">
        <ele>148.8</ele>
        <time>2024-04-06T10:40:48Z</time>
      </trkpt>
      <trkpt lat="49.93457" lon="4.64021">
        <ele>149.2</ele>
        <time>2024-04-06T10:40:49Z</time>
      </trkpt>
      <trkpt lat="49.93454" lon="4.64022">
        <ele>149.2</ele>
        <time>2024-04-06T10:40:50Z</time>
      </trkpt>
      <trkpt lat="49.93451" lon="4.64023">
        <ele>149.4</ele>
        <time>2024-04-06T10:40:51Z</time>
      </trkpt>
      <trkpt lat="49.93448" lon="4.64023">
        <ele>149.6</ele>
        <time>2024-04-06T10:40:52Z</time>
      </trkpt>
      <trkpt lat="49.93444" lon="4.64024">
        <ele>150.2</ele>
        <time>2024-04-06T10:40:53Z</time>
      </trkpt>
      <trkpt lat="49.93441" lon="4.64024">
        <ele>150.2</ele>
        <time>2024-04-06T10:40:54Z</time>
      </trkpt>
      <trkpt lat="49.93438" lon="4.64024">
        <ele>150.6</ele>
        <time>2024-04-06T10:40:55Z</time>
      </trkpt>
      <trkpt lat="49.93435" lon="4.64025">
        <ele>150.8</ele>
        <time>2024-04-06T10:40:56Z</time>
      </trkpt>
      <trkpt lat="49.93432" lon="4.64026">
        <ele>151.2</ele>
        <time>2024-04-06T10:40:57Z</time>
      </trkpt>
      <trkpt lat="49.93429" lon="4.64027">
        <ele>151.2</ele>
        <time>2024-04-06T10:40:58Z</time>
      </trkpt>
      <trkpt lat="49.93425" lon="4.64028">
        <ele>151.4</ele>
        <time>2024-04-06T10:40:59Z</time>
      </trkpt>
      <trkpt lat="49.93422" lon="4.64029">
        <ele>151.6</ele>
        <time>2024-04-06T10:41:00Z</time>
      </trkpt>
      <trkpt lat="49.93418" lon="4.64031">
        <ele>151.6</ele>
        <time>2024-04-06T10:41:01Z</time>
      </trkpt>
      <trkpt lat="49.93415" lon="4.64032">
        <ele>151.6</ele>
        <time>2024-04-06T10:41:02Z</time>
      </trkpt>
      <trkpt lat="49.93411" lon="4.64032">
        <ele>151.8</ele>
        <time>2024-04-06T10:41:03Z</time>
      </trkpt>
      <trkpt lat="49.93408" lon="4.64033">
        <ele>152</ele>
        <time>2024-04-06T10:41:04Z</time>
      </trkpt>
      <trkpt lat="49.93405" lon="4.64033">
        <ele>152.2</ele>
        <time>2024-04-06T10:41:05Z</time>
      </trkpt>
      <trkpt lat="49.93402" lon="4.64034">
        <ele>152.2</ele>
        <time>2024-04-06T10:41:06Z</time>
      </trkpt>
      <trkpt lat="49.93398" lon="4.64036">
        <ele>152.4</ele>
        <time>2024-04-06T10:41:07Z</time>
      </trkpt>
      <trkpt lat="49.93395" lon="4.64036">
        <ele>152.4</ele>
        <time>2024-04-06T10:41:08Z</time>
      </trkpt>
      <trkpt lat="49.93393" lon="4.64037">
        <ele>152.6</ele>
        <time>2024-04-06T10:41:09Z</time>
      </trkpt>
      <trkpt lat="49.9339" lon="4.64037">
        <ele>152.4</ele>
        <time>2024-04-06T10:41:10Z</time>
      </trkpt>
      <trkpt lat="49.93388" lon="4.64038">
        <ele>152.6</ele>
        <time>2024-04-06T10:41:11Z</time>
      </trkpt>
      <trkpt lat="49.93386" lon="4.64039">
        <ele>152.8</ele>
        <time>2024-04-06T10:41:12Z</time>
      </trkpt>
      <trkpt lat="49.93385" lon="4.64039">
        <ele>153.4</ele>
        <time>2024-04-06T10:41:13Z</time>
      </trkpt>
      <trkpt lat="49.93383" lon="4.64039">
        <ele>153.6</ele>
        <time>2024-04-06T10:41:14Z</time>
      </trkpt>
      <trkpt lat="49.93382" lon="4.6404">
        <ele>153.6</ele>
        <time>2024-04-06T10:41:15Z</time>
      </trkpt>
      <trkpt lat="49.9338" lon="4.64041">
        <ele>153.8</ele>
        <time>2024-04-06T10:41:16Z</time>
      </trkpt>
      <trkpt lat="49.9338" lon="4.64044">
        <ele>153.8</ele>
        <time>2024-04-06T10:41:17Z</time>
      </trkpt>
      <trkpt lat="49.93381" lon="4.64046">
        <ele>153.8</ele>
        <time>2024-04-06T10:41:18Z</time>
      </trkpt>
      <trkpt lat="49.93384" lon="4.64046">
        <ele>154</ele>
        <time>2024-04-06T10:41:19Z</time>
      </trkpt>
      <trkpt lat="49.93386" lon="4.64046">
        <ele>154</ele>
        <time>2024-04-06T10:41:20Z</time>
      </trkpt>
      <trkpt lat="49.9339" lon="4.64045">
        <ele>154.2</ele>
        <time>2024-04-06T10:41:21Z</time>
      </trkpt>
      <trkpt lat="49.93394" lon="4.64045">
        <ele>154.2</ele>
        <time>2024-04-06T10:41:22Z</time>
      </trkpt>
      <trkpt lat="49.93397" lon="4.64044">
        <ele>154.2</ele>
        <time>2024-04-06T10:41:23Z</time>
      </trkpt>
      <trkpt lat="49.93401" lon="4.64043">
        <ele>154.2</ele>
        <time>2024-04-06T10:41:24Z</time>
      </trkpt>
      <trkpt lat="49.93406" lon="4.64042">
        <ele>154.2</ele>
        <time>2024-04-06T10:41:25Z</time>
      </trkpt>
      <trkpt lat="49.9341" lon="4.64041">
        <ele>154.2</ele>
        <time>2024-04-06T10:41:26Z</time>
      </trkpt>
      <trkpt lat="49.93415" lon="4.6404">
        <ele>154.4</ele>
        <time>2024-04-06T10:41:27Z</time>
      </trkpt>
      <trkpt lat="49.9342" lon="4.64039">
        <ele>154.4</ele>
        <time>2024-04-06T10:41:28Z</time>
      </trkpt>
      <trkpt lat="49.93425" lon="4.64037">
        <ele>154.4</ele>
        <time>2024-04-06T10:41:29Z</time>
      </trkpt>
      <trkpt lat="49.9343" lon="4.64036">
        <ele>154.2</ele>
        <time>2024-04-06T10:41:30Z</time>
      </trkpt>
      <trkpt lat="49.93435" lon="4.64035">
        <ele>154.2</ele>
        <time>2024-04-06T10:41:31Z</time>
      </trkpt>
      <trkpt lat="49.9344" lon="4.64034">
        <ele>154.2</ele>
        <time>2024-04-06T10:41:32Z</time>
      </trkpt>
      <trkpt lat="49.93446" lon="4.64033">
        <ele>154</ele>
        <time>2024-04-06T10:41:33Z</time>
      </trkpt>
      <trkpt lat="49.93451" lon="4.64032">
        <ele>154</ele>
        <time>2024-04-06T10:41:34Z</time>
      </trkpt>
      <trkpt lat="49.93457" lon="4.6403">
        <ele>153.8</ele>
        <time>2024-04-06T10:41:35Z</time>
      </trkpt>
      <trkpt lat="49.93463" lon="4.64029">
        <ele>153.4</ele>
        <time>2024-04-06T10:41:36Z</time>
      </trkpt>
      <trkpt lat="49.9347" lon="4.64028">
        <ele>153.4</ele>
        <time>2024-04-06T10:41:37Z</time>
      </trkpt>
      <trkpt lat="49.93476" lon="4.64027">
        <ele>153</ele>
        <time>2024-04-06T10:41:38Z</time>
      </trkpt>
      <trkpt lat="49.93483" lon="4.64027">
        <ele>153</ele>
        <time>2024-04-06T10:41:39Z</time>
      </trkpt>
      <trkpt lat="49.93489" lon="4.64027">
        <ele>152.8</ele>
        <time>2024-04-06T10:41:40Z</time>
      </trkpt>
      <trkpt lat="49.93497" lon="4.64027">
        <ele>152.8</ele>
        <time>2024-04-06T10:41:41Z</time>
      </trkpt>
      <trkpt lat="49.93504" lon="4.64028">
        <ele>152.4</ele>
        <time>2024-04-06T10:41:42Z</time>
      </trkpt>
      <trkpt lat="49.93511" lon="4.6403">
        <ele>152.4</ele>
        <time>2024-04-06T10:41:43Z</time>
      </trkpt>
      <trkpt lat="49.93519" lon="4.64031">
        <ele>151.8</ele>
        <time>2024-04-06T10:41:44Z</time>
      </trkpt>
      <trkpt lat="49.93527" lon="4.64033">
        <ele>151.2</ele>
        <time>2024-04-06T10:41:45Z</time>
      </trkpt>
      <trkpt lat="49.93534" lon="4.64035">
        <ele>150.4</ele>
        <time>2024-04-06T10:41:46Z</time>
      </trkpt>
      <trkpt lat="49.93542" lon="4.64037">
        <ele>150</ele>
        <time>2024-04-06T10:41:47Z</time>
      </trkpt>
      <trkpt lat="49.9355" lon="4.6404">
        <ele>149.4</ele>
        <time>2024-04-06T10:41:48Z</time>
      </trkpt>
      <trkpt lat="49.93558" lon="4.64043">
        <ele>149</ele>
        <time>2024-04-06T10:41:49Z</time>
      </trkpt>
      <trkpt lat="49.93566" lon="4.64046">
        <ele>148.8</ele>
        <time>2024-04-06T10:41:50Z</time>
      </trkpt>
      <trkpt lat="49.93574" lon="4.64049">
        <ele>148.6</ele>
        <time>2024-04-06T10:41:51Z</time>
      </trkpt>
      <trkpt lat="49.93581" lon="4.64052">
        <ele>148.4</ele>
        <time>2024-04-06T10:41:52Z</time>
      </trkpt>
      <trkpt lat="49.93589" lon="4.64055">
        <ele>148.2</ele>
        <time>2024-04-06T10:41:53Z</time>
      </trkpt>
      <trkpt lat="49.93597" lon="4.64058">
        <ele>147.4</ele>
        <time>2024-04-06T10:41:54Z</time>
      </trkpt>
      <trkpt lat="49.93604" lon="4.6406">
        <ele>147.2</ele>
        <time>2024-04-06T10:41:55Z</time>
      </trkpt>
      <trkpt lat="49.93612" lon="4.64063">
        <ele>146.8</ele>
        <time>2024-04-06T10:41:56Z</time>
      </trkpt>
      <trkpt lat="49.93619" lon="4.64065">
        <ele>146</ele>
        <time>2024-04-06T10:41:57Z</time>
      </trkpt>
      <trkpt lat="49.93626" lon="4.64065">
        <ele>145.4</ele>
        <time>2024-04-06T10:41:58Z</time>
      </trkpt>
      <trkpt lat="49.93633" lon="4.64065">
        <ele>145.2</ele>
        <time>2024-04-06T10:41:59Z</time>
      </trkpt>
      <trkpt lat="49.93641" lon="4.64064">
        <ele>144.8</ele>
        <time>2024-04-06T10:42:00Z</time>
      </trkpt>
      <trkpt lat="49.93649" lon="4.64063">
        <ele>144.6</ele>
        <time>2024-04-06T10:42:01Z</time>
      </trkpt>
      <trkpt lat="49.93657" lon="4.64061">
        <ele>144</ele>
        <time>2024-04-06T10:42:02Z</time>
      </trkpt>
      <trkpt lat="49.93666" lon="4.64059">
        <ele>143.6</ele>
        <time>2024-04-06T10:42:03Z</time>
      </trkpt>
      <trkpt lat="49.93674" lon="4.64057">
        <ele>143.6</ele>
        <time>2024-04-06T10:42:04Z</time>
      </trkpt>
      <trkpt lat="49.93683" lon="4.64055">
        <ele>142.6</ele>
        <time>2024-04-06T10:42:05Z</time>
      </trkpt>
      <trkpt lat="49.93692" lon="4.64052">
        <ele>142.6</ele>
        <time>2024-04-06T10:42:06Z</time>
      </trkpt>
      <trkpt lat="49.93701" lon="4.6405">
        <ele>142.4</ele>
        <time>2024-04-06T10:42:07Z</time>
      </trkpt>
      <trkpt lat="49.9371" lon="4.64047">
        <ele>142.2</ele>
        <time>2024-04-06T10:42:08Z</time>
      </trkpt>
      <trkpt lat="49.93719" lon="4.64044">
        <ele>142</ele>
        <time>2024-04-06T10:42:09Z</time>
      </trkpt>
      <trkpt lat="49.93729" lon="4.6404">
        <ele>141.6</ele>
        <time>2024-04-06T10:42:10Z</time>
      </trkpt>
      <trkpt lat="49.93738" lon="4.64034">
        <ele>141.6</ele>
        <time>2024-04-06T10:42:11Z</time>
      </trkpt>
      <trkpt lat="49.93747" lon="4.64029">
        <ele>141</ele>
        <time>2024-04-06T10:42:12Z</time>
      </trkpt>
      <trkpt lat="49.93755" lon="4.64023">
        <ele>140.2</ele>
        <time>2024-04-06T10:42:13Z</time>
      </trkpt>
      <trkpt lat="49.93764" lon="4.64017">
        <ele>139.8</ele>
        <time>2024-04-06T10:42:14Z</time>
      </trkpt>
      <trkpt lat="49.93772" lon="4.64012">
        <ele>139.6</ele>
        <time>2024-04-06T10:42:15Z</time>
      </trkpt>
      <trkpt lat="49.9378" lon="4.64005">
        <ele>139.2</ele>
        <time>2024-04-06T10:42:16Z</time>
      </trkpt>
      <trkpt lat="49.93788" lon="4.63999">
        <ele>138.4</ele>
        <time>2024-04-06T10:42:17Z</time>
      </trkpt>
      <trkpt lat="49.93795" lon="4.63993">
        <ele>137.8</ele>
        <time>2024-04-06T10:42:18Z</time>
      </trkpt>
      <trkpt lat="49.93803" lon="4.63987">
        <ele>137.2</ele>
        <time>2024-04-06T10:42:19Z</time>
      </trkpt>
      <trkpt lat="49.9381" lon="4.63982">
        <ele>137</ele>
        <time>2024-04-06T10:42:20Z</time>
      </trkpt>
      <trkpt lat="49.93817" lon="4.63977">
        <ele>136.8</ele>
        <time>2024-04-06T10:42:21Z</time>
      </trkpt>
      <trkpt lat="49.93823" lon="4.63972">
        <ele>136.6</ele>
        <time>2024-04-06T10:42:22Z</time>
      </trkpt>
      <trkpt lat="49.93829" lon="4.63968">
        <ele>136.4</ele>
        <time>2024-04-06T10:42:23Z</time>
      </trkpt>
      <trkpt lat="49.93834" lon="4.63965">
        <ele>136.4</ele>
        <time>2024-04-06T10:42:24Z</time>
      </trkpt>
      <trkpt lat="49.9384" lon="4.63962">
        <ele>136.4</ele>
        <time>2024-04-06T10:42:25Z</time>
      </trkpt>
      <trkpt lat="49.93844" lon="4.63964">
        <ele>136.4</ele>
        <time>2024-04-06T10:42:26Z</time>
      </trkpt>
      <trkpt lat="49.93848" lon="4.63969">
        <ele>136.4</ele>
        <time>2024-04-06T10:42:27Z</time>
      </trkpt>
      <trkpt lat="49.93852" lon="4.63976">
        <ele>136.2</ele>
        <time>2024-04-06T10:42:28Z</time>
      </trkpt>
      <trkpt lat="49.93854" lon="4.63985">
        <ele>136.2</ele>
        <time>2024-04-06T10:42:29Z</time>
      </trkpt>
      <trkpt lat="49.93855" lon="4.63993">
        <ele>136.2</ele>
        <time>2024-04-06T10:42:30Z</time>
      </trkpt>
      <trkpt lat="49.93856" lon="4.64002">
        <ele>136.4</ele>
        <time>2024-04-06T10:42:31Z</time>
      </trkpt>
      <trkpt lat="49.93857" lon="4.64011">
        <ele>136.6</ele>
        <time>2024-04-06T10:42:32Z</time>
      </trkpt>
      <trkpt lat="49.93857" lon="4.6402">
        <ele>136.4</ele>
        <time>2024-04-06T10:42:33Z</time>
      </trkpt>
      <trkpt lat="49.93857" lon="4.64029">
        <ele>136.6</ele>
        <time>2024-04-06T10:42:34Z</time>
      </trkpt>
      <trkpt lat="49.93858" lon="4.64037">
        <ele>136.6</ele>
        <time>2024-04-06T10:42:35Z</time>
      </trkpt>
      <trkpt lat="49.93859" lon="4.64045">
        <ele>136.8</ele>
        <time>2024-04-06T10:42:36Z</time>
      </trkpt>
      <trkpt lat="49.93859" lon="4.64053">
        <ele>136.8</ele>
        <time>2024-04-06T10:42:37Z</time>
      </trkpt>
      <trkpt lat="49.9386" lon="4.64061">
        <ele>137</ele>
        <time>2024-04-06T10:42:38Z</time>
      </trkpt>
      <trkpt lat="49.93861" lon="4.64069">
        <ele>137.2</ele>
        <time>2024-04-06T10:42:39Z</time>
      </trkpt>
      <trkpt lat="49.93861" lon="4.64077">
        <ele>137.2</ele>
        <time>2024-04-06T10:42:40Z</time>
      </trkpt>
      <trkpt lat="49.93861" lon="4.64086">
        <ele>137.4</ele>
        <time>2024-04-06T10:42:41Z</time>
      </trkpt>
      <trkpt lat="49.93862" lon="4.64095">
        <ele>137.4</ele>
        <time>2024-04-06T10:42:42Z</time>
      </trkpt>
      <trkpt lat="49.93862" lon="4.64104">
        <ele>137.6</ele>
        <time>2024-04-06T10:42:43Z</time>
      </trkpt>
      <trkpt lat="49.93863" lon="4.64112">
        <ele>137.6</ele>
        <time>2024-04-06T10:42:44Z</time>
      </trkpt>
      <trkpt lat="49.93863" lon="4.64121">
        <ele>137.6</ele>
        <time>2024-04-06T10:42:45Z</time>
      </trkpt>
      <trkpt lat="49.93864" lon="4.6413">
        <ele>137.8</ele>
        <time>2024-04-06T10:42:46Z</time>
      </trkpt>
      <trkpt lat="49.93864" lon="4.64138">
        <ele>138</ele>
        <time>2024-04-06T10:42:47Z</time>
      </trkpt>
      <trkpt lat="49.93864" lon="4.64147">
        <ele>138.2</ele>
        <time>2024-04-06T10:42:48Z</time>
      </trkpt>
      <trkpt lat="49.93865" lon="4.64155">
        <ele>138.4</ele>
        <time>2024-04-06T10:42:49Z</time>
      </trkpt>
      <trkpt lat="49.93865" lon="4.64164">
        <ele>138.4</ele>
        <time>2024-04-06T10:42:50Z</time>
      </trkpt>
      <trkpt lat="49.93865" lon="4.64172">
        <ele>138.6</ele>
        <time>2024-04-06T10:42:51Z</time>
      </trkpt>
      <trkpt lat="49.93866" lon="4.64179">
        <ele>138.8</ele>
        <time>2024-04-06T10:42:52Z</time>
      </trkpt>
      <trkpt lat="49.93867" lon="4.64187">
        <ele>138.8</ele>
        <time>2024-04-06T10:42:53Z</time>
      </trkpt>
      <trkpt lat="49.93867" lon="4.64194">
        <ele>138.8</ele>
        <time>2024-04-06T10:42:54Z</time>
      </trkpt>
      <trkpt lat="49.93868" lon="4.642">
        <ele>138.8</ele>
        <time>2024-04-06T10:42:55Z</time>
      </trkpt>
      <trkpt lat="49.93868" lon="4.64206">
        <ele>139</ele>
        <time>2024-04-06T10:42:56Z</time>
      </trkpt>
      <trkpt lat="49.93868" lon="4.64212">
        <ele>139.2</ele>
        <time>2024-04-06T10:42:57Z</time>
      </trkpt>
      <trkpt lat="49.93868" lon="4.64216">
        <ele>139.2</ele>
        <time>2024-04-06T10:42:58Z</time>
      </trkpt>
      <trkpt lat="49.9387" lon="4.64219">
        <ele>139.6</ele>
        <time>2024-04-06T10:42:59Z</time>
      </trkpt>
      <trkpt lat="49.93871" lon="4.6422">
        <ele>139.6</ele>
        <time>2024-04-06T10:43:00Z</time>
      </trkpt>
      <trkpt lat="49.93872" lon="4.6422">
        <ele>139.8</ele>
        <time>2024-04-06T10:43:01Z</time>
      </trkpt>
      <trkpt lat="49.93874" lon="4.64218">
        <ele>140.2</ele>
        <time>2024-04-06T10:43:02Z</time>
      </trkpt>
      <trkpt lat="49.93874" lon="4.64216">
        <ele>140.4</ele>
        <time>2024-04-06T10:43:03Z</time>
      </trkpt>
      <trkpt lat="49.93873" lon="4.64212">
        <ele>140.6</ele>
        <time>2024-04-06T10:43:04Z</time>
      </trkpt>
      <trkpt lat="49.93873" lon="4.64209">
        <ele>140.6</ele>
        <time>2024-04-06T10:43:05Z</time>
      </trkpt>
      <trkpt lat="49.93872" lon="4.64205">
        <ele>140.8</ele>
        <time>2024-04-06T10:43:06Z</time>
      </trkpt>
      <trkpt lat="49.93872" lon="4.642">
        <ele>141</ele>
        <time>2024-04-06T10:43:07Z</time>
      </trkpt>
      <trkpt lat="49.93871" lon="4.64194">
        <ele>141.2</ele>
        <time>2024-04-06T10:43:08Z</time>
      </trkpt>
      <trkpt lat="49.93872" lon="4.64188">
        <ele>141.2</ele>
        <time>2024-04-06T10:43:09Z</time>
      </trkpt>
      <trkpt lat="49.93872" lon="4.6418">
        <ele>141</ele>
        <time>2024-04-06T10:43:10Z</time>
      </trkpt>
      <trkpt lat="49.93872" lon="4.64172">
        <ele>141</ele>
        <time>2024-04-06T10:43:11Z</time>
      </trkpt>
      <trkpt lat="49.93871" lon="4.64164">
        <ele>141.2</ele>
        <time>2024-04-06T10:43:12Z</time>
      </trkpt>
      <trkpt lat="49.9387" lon="4.64155">
        <ele>141.2</ele>
        <time>2024-04-06T10:43:13Z</time>
      </trkpt>
      <trkpt lat="49.9387" lon="4.64146">
        <ele>141.2</ele>
        <time>2024-04-06T10:43:14Z</time>
      </trkpt>
      <trkpt lat="49.9387" lon="4.64136">
        <ele>141.2</ele>
        <time>2024-04-06T10:43:15Z</time>
      </trkpt>
      <trkpt lat="49.93869" lon="4.64125">
        <ele>141</ele>
        <time>2024-04-06T10:43:16Z</time>
      </trkpt>
      <trkpt lat="49.93869" lon="4.64115">
        <ele>141</ele>
        <time>2024-04-06T10:43:17Z</time>
      </trkpt>
      <trkpt lat="49.93868" lon="4.64104">
        <ele>141</ele>
        <time>2024-04-06T10:43:18Z</time>
      </trkpt>
      <trkpt lat="49.93867" lon="4.64093">
        <ele>141</ele>
        <time>2024-04-06T10:43:19Z</time>
      </trkpt>
      <trkpt lat="49.93866" lon="4.64083">
        <ele>141</ele>
        <time>2024-04-06T10:43:20Z</time>
      </trkpt>
      <trkpt lat="49.93865" lon="4.64072">
        <ele>141</ele>
        <time>2024-04-06T10:43:21Z</time>
      </trkpt>
      <trkpt lat="49.93864" lon="4.64064">
        <ele>141</ele>
        <time>2024-04-06T10:43:22Z</time>
      </trkpt>
      <trkpt lat="49.93864" lon="4.64056">
        <ele>141</ele>
        <time>2024-04-06T10:43:23Z</time>
      </trkpt>
      <trkpt lat="49.93863" lon="4.64048">
        <ele>140.8</ele>
        <time>2024-04-06T10:43:24Z</time>
      </trkpt>
      <trkpt lat="49.93862" lon="4.6404">
        <ele>140.4</ele>
        <time>2024-04-06T10:43:25Z</time>
      </trkpt>
      <trkpt lat="49.93861" lon="4.64033">
        <ele>140</ele>
        <time>2024-04-06T10:43:26Z</time>
      </trkpt>
      <trkpt lat="49.93861" lon="4.64026">
        <ele>139.6</ele>
        <time>2024-04-06T10:43:27Z</time>
      </trkpt>
      <trkpt lat="49.9386" lon="4.64019">
        <ele>139</ele>
        <time>2024-04-06T10:43:28Z</time>
      </trkpt>
      <trkpt lat="49.93859" lon="4.64012">
        <ele>138.2</ele>
        <time>2024-04-06T10:43:29Z</time>
      </trkpt>
      <trkpt lat="49.93859" lon="4.64005">
        <ele>137.8</ele>
        <time>2024-04-06T10:43:30Z</time>
      </trkpt>
      <trkpt lat="49.93858" lon="4.63997">
        <ele>137.6</ele>
        <time>2024-04-06T10:43:31Z</time>
      </trkpt>
      <trkpt lat="49.93858" lon="4.6399">
        <ele>137.2</ele>
        <time>2024-04-06T10:43:32Z</time>
      </trkpt>
      <trkpt lat="49.93858" lon="4.63982">
        <ele>136.8</ele>
        <time>2024-04-06T10:43:33Z</time>
      </trkpt>
      <trkpt lat="49.93858" lon="4.63975">
        <ele>136.6</ele>
        <time>2024-04-06T10:43:34Z</time>
      </trkpt>
      <trkpt lat="49.93858" lon="4.63968">
        <ele>136.4</ele>
        <time>2024-04-06T10:43:35Z</time>
      </trkpt>
      <trkpt lat="49.9386" lon="4.63961">
        <ele>136.2</ele>
        <time>2024-04-06T10:43:36Z</time>
      </trkpt>
      <trkpt lat="49.93861" lon="4.63954">
        <ele>135.8</ele>
        <time>2024-04-06T10:43:37Z</time>
      </trkpt>
      <trkpt lat="49.93863" lon="4.63948">
        <ele>135.6</ele>
        <time>2024-04-06T10:43:38Z</time>
      </trkpt>
      <trkpt lat="49.93867" lon="4.63942">
        <ele>135.4</ele>
        <time>2024-04-06T10:43:39Z</time>
      </trkpt>
      <trkpt lat="49.93871" lon="4.63937">
        <ele>135.2</ele>
        <time>2024-04-06T10:43:40Z</time>
      </trkpt>
      <trkpt lat="49.93875" lon="4.63932">
        <ele>135.2</ele>
        <time>2024-04-06T10:43:41Z</time>
      </trkpt>
      <trkpt lat="49.9388" lon="4.63927">
        <ele>135.2</ele>
        <time>2024-04-06T10:43:42Z</time>
      </trkpt>
      <trkpt lat="49.93885" lon="4.63922">
        <ele>135</ele>
        <time>2024-04-06T10:43:43Z</time>
      </trkpt>
      <trkpt lat="49.9389" lon="4.63917">
        <ele>135</ele>
        <time>2024-04-06T10:43:44Z</time>
      </trkpt>
      <trkpt lat="49.93894" lon="4.63911">
        <ele>135</ele>
        <time>2024-04-06T10:43:45Z</time>
      </trkpt>
      <trkpt lat="49.93898" lon="4.63906">
        <ele>135.2</ele>
        <time>2024-04-06T10:43:46Z</time>
      </trkpt>
      <trkpt lat="49.93902" lon="4.639">
        <ele>135</ele>
        <time>2024-04-06T10:43:47Z</time>
      </trkpt>
      <trkpt lat="49.93906" lon="4.63894">
        <ele>135.2</ele>
        <time>2024-04-06T10:43:48Z</time>
      </trkpt>
      <trkpt lat="49.9391" lon="4.63888">
        <ele>135.2</ele>
        <time>2024-04-06T10:43:49Z</time>
      </trkpt>
      <trkpt lat="49.93913" lon="4.6388">
        <ele>135.4</ele>
        <time>2024-04-06T10:43:50Z</time>
      </trkpt>
      <trkpt lat="49.93915" lon="4.63873">
        <ele>135.6</ele>
        <time>2024-04-06T10:43:51Z</time>
      </trkpt>
      <trkpt lat="49.93917" lon="4.63865">
        <ele>135.8</ele>
        <time>2024-04-06T10:43:52Z</time>
      </trkpt>
      <trkpt lat="49.93919" lon="4.63857">
        <ele>135.8</ele>
        <time>2024-04-06T10:43:53Z</time>
      </trkpt>
      <trkpt lat="49.93921" lon="4.63849">
        <ele>136.2</ele>
        <time>2024-04-06T10:43:54Z</time>
      </trkpt>
      <trkpt lat="49.93922" lon="4.6384">
        <ele>136.6</ele>
        <time>2024-04-06T10:43:55Z</time>
      </trkpt>
      <trkpt lat="49.93923" lon="4.63832">
        <ele>136.6</ele>
        <time>2024-04-06T10:43:56Z</time>
      </trkpt>
      <trkpt lat="49.93924" lon="4.63823">
        <ele>137</ele>
        <time>2024-04-06T10:43:57Z</time>
      </trkpt>
      <trkpt lat="49.93926" lon="4.63815">
        <ele>137.2</ele>
        <time>2024-04-06T10:43:58Z</time>
      </trkpt>
      <trkpt lat="49.93927" lon="4.63807">
        <ele>137.4</ele>
        <time>2024-04-06T10:43:59Z</time>
      </trkpt>
      <trkpt lat="49.93928" lon="4.63798">
        <ele>137.4</ele>
        <time>2024-04-06T10:44:00Z</time>
      </trkpt>
      <trkpt lat="49.9393" lon="4.6379">
        <ele>137.4</ele>
        <time>2024-04-06T10:44:01Z</time>
      </trkpt>
      <trkpt lat="49.93931" lon="4.63781">
        <ele>138.4</ele>
        <time>2024-04-06T10:44:02Z</time>
      </trkpt>
      <trkpt lat="49.93932" lon="4.63773">
        <ele>138.8</ele>
        <time>2024-04-06T10:44:03Z</time>
      </trkpt>
      <trkpt lat="49.93934" lon="4.63764">
        <ele>139.2</ele>
        <time>2024-04-06T10:44:04Z</time>
      </trkpt>
      <trkpt lat="49.93935" lon="4.63755">
        <ele>139.6</ele>
        <time>2024-04-06T10:44:05Z</time>
      </trkpt>
      <trkpt lat="49.93936" lon="4.63746">
        <ele>139.8</ele>
        <time>2024-04-06T10:44:06Z</time>
      </trkpt>
      <trkpt lat="49.93938" lon="4.63737">
        <ele>140</ele>
        <time>2024-04-06T10:44:07Z</time>
      </trkpt>
      <trkpt lat="49.93939" lon="4.63728">
        <ele>139.8</ele>
        <time>2024-04-06T10:44:08Z</time>
      </trkpt>
      <trkpt lat="49.93941" lon="4.63718">
        <ele>139.8</ele>
        <time>2024-04-06T10:44:09Z</time>
      </trkpt>
      <trkpt lat="49.93942" lon="4.63709">
        <ele>140</ele>
        <time>2024-04-06T10:44:10Z</time>
      </trkpt>
      <trkpt lat="49.93944" lon="4.63699">
        <ele>140</ele>
        <time>2024-04-06T10:44:11Z</time>
      </trkpt>
      <trkpt lat="49.93948" lon="4.63691">
        <ele>140.2</ele>
        <time>2024-04-06T10:44:12Z</time>
      </trkpt>
      <trkpt lat="49.93954" lon="4.63687">
        <ele>139.8</ele>
        <time>2024-04-06T10:44:13Z</time>
      </trkpt>
      <trkpt lat="49.93961" lon="4.63685">
        <ele>140</ele>
        <time>2024-04-06T10:44:14Z</time>
      </trkpt>
      <trkpt lat="49.93967" lon="4.63685">
        <ele>140</ele>
        <time>2024-04-06T10:44:15Z</time>
      </trkpt>
      <trkpt lat="49.93974" lon="4.63686">
        <ele>140</ele>
        <time>2024-04-06T10:44:16Z</time>
      </trkpt>
      <trkpt lat="49.9398" lon="4.63686">
        <ele>140</ele>
        <time>2024-04-06T10:44:17Z</time>
      </trkpt>
      <trkpt lat="49.93986" lon="4.63686">
        <ele>140</ele>
        <time>2024-04-06T10:44:18Z</time>
      </trkpt>
      <trkpt lat="49.93992" lon="4.63685">
        <ele>140</ele>
        <time>2024-04-06T10:44:19Z</time>
      </trkpt>
      <trkpt lat="49.93998" lon="4.63686">
        <ele>140</ele>
        <time>2024-04-06T10:44:20Z</time>
      </trkpt>
      <trkpt lat="49.94004" lon="4.63688">
        <ele>140</ele>
        <time>2024-04-06T10:44:21Z</time>
      </trkpt>
      <trkpt lat="49.94009" lon="4.6369">
        <ele>140</ele>
        <time>2024-04-06T10:44:22Z</time>
      </trkpt>
      <trkpt lat="49.94015" lon="4.63692">
        <ele>140</ele>
        <time>2024-04-06T10:44:23Z</time>
      </trkpt>
      <trkpt lat="49.9402" lon="4.63695">
        <ele>140</ele>
        <time>2024-04-06T10:44:24Z</time>
      </trkpt>
      <trkpt lat="49.94024" lon="4.63699">
        <ele>140</ele>
        <time>2024-04-06T10:44:25Z</time>
      </trkpt>
      <trkpt lat="49.94029" lon="4.63703">
        <ele>140.2</ele>
        <time>2024-04-06T10:44:26Z</time>
      </trkpt>
      <trkpt lat="49.94033" lon="4.63707">
        <ele>140.4</ele>
        <time>2024-04-06T10:44:27Z</time>
      </trkpt>
      <trkpt lat="49.94037" lon="4.63712">
        <ele>140.6</ele>
        <time>2024-04-06T10:44:28Z</time>
      </trkpt>
      <trkpt lat="49.94042" lon="4.63716">
        <ele>141</ele>
        <time>2024-04-06T10:44:29Z</time>
      </trkpt>
      <trkpt lat="49.94046" lon="4.63721">
        <ele>141.2</ele>
        <time>2024-04-06T10:44:30Z</time>
      </trkpt>
      <trkpt lat="49.94051" lon="4.63726">
        <ele>141.6</ele>
        <time>2024-04-06T10:44:31Z</time>
      </trkpt>
      <trkpt lat="49.94055" lon="4.63731">
        <ele>141.6</ele>
        <time>2024-04-06T10:44:32Z</time>
      </trkpt>
      <trkpt lat="49.94059" lon="4.63736">
        <ele>141.8</ele>
        <time>2024-04-06T10:44:33Z</time>
      </trkpt>
      <trkpt lat="49.94063" lon="4.63742">
        <ele>142</ele>
        <time>2024-04-06T10:44:34Z</time>
      </trkpt>
      <trkpt lat="49.94067" lon="4.63748">
        <ele>142.2</ele>
        <time>2024-04-06T10:44:35Z</time>
      </trkpt>
      <trkpt lat="49.9407" lon="4.63754">
        <ele>142.4</ele>
        <time>2024-04-06T10:44:36Z</time>
      </trkpt>
      <trkpt lat="49.94074" lon="4.6376">
        <ele>142.8</ele>
        <time>2024-04-06T10:44:37Z</time>
      </trkpt>
      <trkpt lat="49.94077" lon="4.63766">
        <ele>142.8</ele>
        <time>2024-04-06T10:44:38Z</time>
      </trkpt>
      <trkpt lat="49.94081" lon="4.63772">
        <ele>142.8</ele>
        <time>2024-04-06T10:44:39Z</time>
      </trkpt>
      <trkpt lat="49.94084" lon="4.63777">
        <ele>143</ele>
        <time>2024-04-06T10:44:40Z</time>
      </trkpt>
      <trkpt lat="49.94088" lon="4.63782">
        <ele>143</ele>
        <time>2024-04-06T10:44:41Z</time>
      </trkpt>
      <trkpt lat="49.94093" lon="4.63785">
        <ele>143.4</ele>
        <time>2024-04-06T10:44:42Z</time>
      </trkpt>
      <trkpt lat="49.94098" lon="4.63786">
        <ele>143.8</ele>
        <time>2024-04-06T10:44:43Z</time>
      </trkpt>
      <trkpt lat="49.94103" lon="4.63786">
        <ele>144.2</ele>
        <time>2024-04-06T10:44:44Z</time>
      </trkpt>
      <trkpt lat="49.94107" lon="4.63786">
        <ele>144.4</ele>
        <time>2024-04-06T10:44:45Z</time>
      </trkpt>
      <trkpt lat="49.94112" lon="4.63786">
        <ele>144.6</ele>
        <time>2024-04-06T10:44:46Z</time>
      </trkpt>
      <trkpt lat="49.94116" lon="4.63788">
        <ele>144.8</ele>
        <time>2024-04-06T10:44:47Z</time>
      </trkpt>
      <trkpt lat="49.9412" lon="4.63792">
        <ele>145</ele>
        <time>2024-04-06T10:44:48Z</time>
      </trkpt>
      <trkpt lat="49.94123" lon="4.63798">
        <ele>145.6</ele>
        <time>2024-04-06T10:44:49Z</time>
      </trkpt>
      <trkpt lat="49.94125" lon="4.63806">
        <ele>145.8</ele>
        <time>2024-04-06T10:44:50Z</time>
      </trkpt>
      <trkpt lat="49.94127" lon="4.63814">
        <ele>146.2</ele>
        <time>2024-04-06T10:44:51Z</time>
      </trkpt>
      <trkpt lat="49.9413" lon="4.63822">
        <ele>146.4</ele>
        <time>2024-04-06T10:44:52Z</time>
      </trkpt>
      <trkpt lat="49.94133" lon="4.63831">
        <ele>146.8</ele>
        <time>2024-04-06T10:44:53Z</time>
      </trkpt>
      <trkpt lat="49.94135" lon="4.6384">
        <ele>147</ele>
        <time>2024-04-06T10:44:54Z</time>
      </trkpt>
      <trkpt lat="49.94137" lon="4.63849">
        <ele>147.2</ele>
        <time>2024-04-06T10:44:55Z</time>
      </trkpt>
      <trkpt lat="49.9414" lon="4.63858">
        <ele>147.4</ele>
        <time>2024-04-06T10:44:56Z</time>
      </trkpt>
      <trkpt lat="49.94143" lon="4.63867">
        <ele>147.4</ele>
        <time>2024-04-06T10:44:57Z</time>
      </trkpt>
      <trkpt lat="49.94147" lon="4.63876">
        <ele>147.2</ele>
        <time>2024-04-06T10:44:58Z</time>
      </trkpt>
      <trkpt lat="49.9415" lon="4.63885">
        <ele>147.2</ele>
        <time>2024-04-06T10:44:59Z</time>
      </trkpt>
      <trkpt lat="49.94153" lon="4.63895">
        <ele>147.2</ele>
        <time>2024-04-06T10:45:00Z</time>
      </trkpt>
      <trkpt lat="49.94156" lon="4.63905">
        <ele>147.2</ele>
        <time>2024-04-06T10:45:01Z</time>
      </trkpt>
      <trkpt lat="49.94159" lon="4.63915">
        <ele>147.4</ele>
        <time>2024-04-06T10:45:02Z</time>
      </trkpt>
      <trkpt lat="49.94162" lon="4.63925">
        <ele>147.2</ele>
        <time>2024-04-06T10:45:03Z</time>
      </trkpt>
      <trkpt lat="49.94165" lon="4.63936">
        <ele>147.4</ele>
        <time>2024-04-06T10:45:04Z</time>
      </trkpt>
      <trkpt lat="49.94167" lon="4.63947">
        <ele>147</ele>
        <time>2024-04-06T10:45:05Z</time>
      </trkpt>
      <trkpt lat="49.94168" lon="4.63958">
        <ele>147</ele>
        <time>2024-04-06T10:45:06Z</time>
      </trkpt>
      <trkpt lat="49.94169" lon="4.6397">
        <ele>146.8</ele>
        <time>2024-04-06T10:45:07Z</time>
      </trkpt>
      <trkpt lat="49.94171" lon="4.63981">
        <ele>146.4</ele>
        <time>2024-04-06T10:45:08Z</time>
      </trkpt>
      <trkpt lat="49.94172" lon="4.63992">
        <ele>146.2</ele>
        <time>2024-04-06T10:45:09Z</time>
      </trkpt>
      <trkpt lat="49.94173" lon="4.64003">
        <ele>146</ele>
        <time>2024-04-06T10:45:10Z</time>
      </trkpt>
      <trkpt lat="49.94175" lon="4.64014">
        <ele>145.8</ele>
        <time>2024-04-06T10:45:11Z</time>
      </trkpt>
      <trkpt lat="49.94176" lon="4.64025">
        <ele>145.8</ele>
        <time>2024-04-06T10:45:12Z</time>
      </trkpt>
      <trkpt lat="49.94177" lon="4.64037">
        <ele>145.8</ele>
        <time>2024-04-06T10:45:13Z</time>
      </trkpt>
      <trkpt lat="49.94178" lon="4.64048">
        <ele>145.8</ele>
        <time>2024-04-06T10:45:14Z</time>
      </trkpt>
      <trkpt lat="49.94179" lon="4.64059">
        <ele>145.6</ele>
        <time>2024-04-06T10:45:15Z</time>
      </trkpt>
      <trkpt lat="49.94179" lon="4.64071">
        <ele>145.6</ele>
        <time>2024-04-06T10:45:16Z</time>
      </trkpt>
      <trkpt lat="49.94178" lon="4.64083">
        <ele>145.4</ele>
        <time>2024-04-06T10:45:17Z</time>
      </trkpt>
      <trkpt lat="49.94177" lon="4.64093">
        <ele>145.4</ele>
        <time>2024-04-06T10:45:18Z</time>
      </trkpt>
      <trkpt lat="49.94175" lon="4.64104">
        <ele>145.4</ele>
        <time>2024-04-06T10:45:19Z</time>
      </trkpt>
      <trkpt lat="49.94173" lon="4.64115">
        <ele>145.6</ele>
        <time>2024-04-06T10:45:20Z</time>
      </trkpt>
      <trkpt lat="49.94171" lon="4.64126">
        <ele>145.6</ele>
        <time>2024-04-06T10:45:21Z</time>
      </trkpt>
      <trkpt lat="49.9417" lon="4.64137">
        <ele>145.6</ele>
        <time>2024-04-06T10:45:22Z</time>
      </trkpt>
      <trkpt lat="49.94169" lon="4.64148">
        <ele>145.6</ele>
        <time>2024-04-06T10:45:23Z</time>
      </trkpt>
      <trkpt lat="49.94169" lon="4.64159">
        <ele>145.6</ele>
        <time>2024-04-06T10:45:24Z</time>
      </trkpt>
      <trkpt lat="49.94168" lon="4.6417">
        <ele>145.6</ele>
        <time>2024-04-06T10:45:25Z</time>
      </trkpt>
      <trkpt lat="49.94168" lon="4.64181">
        <ele>145.6</ele>
        <time>2024-04-06T10:45:26Z</time>
      </trkpt>
      <trkpt lat="49.94168" lon="4.64192">
        <ele>145.6</ele>
        <time>2024-04-06T10:45:27Z</time>
      </trkpt>
      <trkpt lat="49.94168" lon="4.64203">
        <ele>145.6</ele>
        <time>2024-04-06T10:45:28Z</time>
      </trkpt>
      <trkpt lat="49.94166" lon="4.64214">
        <ele>145.4</ele>
        <time>2024-04-06T10:45:29Z</time>
      </trkpt>
      <trkpt lat="49.94165" lon="4.64225">
        <ele>145.4</ele>
        <time>2024-04-06T10:45:30Z</time>
      </trkpt>
      <trkpt lat="49.94163" lon="4.64235">
        <ele>145.2</ele>
        <time>2024-04-06T10:45:31Z</time>
      </trkpt>
      <trkpt lat="49.94161" lon="4.64245">
        <ele>145</ele>
        <time>2024-04-06T10:45:32Z</time>
      </trkpt>
      <trkpt lat="49.94159" lon="4.64255">
        <ele>144.8</ele>
        <time>2024-04-06T10:45:33Z</time>
      </trkpt>
      <trkpt lat="49.94156" lon="4.64266">
        <ele>144.8</ele>
        <time>2024-04-06T10:45:34Z</time>
      </trkpt>
      <trkpt lat="49.94153" lon="4.64276">
        <ele>144.6</ele>
        <time>2024-04-06T10:45:35Z</time>
      </trkpt>
      <trkpt lat="49.9415" lon="4.64287">
        <ele>144.6</ele>
        <time>2024-04-06T10:45:36Z</time>
      </trkpt>
      <trkpt lat="49.94147" lon="4.64299">
        <ele>144.4</ele>
        <time>2024-04-06T10:45:37Z</time>
      </trkpt>
      <trkpt lat="49.94144" lon="4.64312">
        <ele>144.4</ele>
        <time>2024-04-06T10:45:38Z</time>
      </trkpt>
      <trkpt lat="49.94141" lon="4.64325">
        <ele>144.2</ele>
        <time>2024-04-06T10:45:39Z</time>
      </trkpt>
      <trkpt lat="49.94138" lon="4.64338">
        <ele>144</ele>
        <time>2024-04-06T10:45:40Z</time>
      </trkpt>
      <trkpt lat="49.94135" lon="4.64351">
        <ele>143.8</ele>
        <time>2024-04-06T10:45:41Z</time>
      </trkpt>
      <trkpt lat="49.94132" lon="4.64364">
        <ele>143</ele>
        <time>2024-04-06T10:45:42Z</time>
      </trkpt>
      <trkpt lat="49.94129" lon="4.64376">
        <ele>142.8</ele>
        <time>2024-04-06T10:45:43Z</time>
      </trkpt>
      <trkpt lat="49.94127" lon="4.64389">
        <ele>142.4</ele>
        <time>2024-04-06T10:45:44Z</time>
      </trkpt>
      <trkpt lat="49.94124" lon="4.64402">
        <ele>141.8</ele>
        <time>2024-04-06T10:45:45Z</time>
      </trkpt>
      <trkpt lat="49.94121" lon="4.64415">
        <ele>140.8</ele>
        <time>2024-04-06T10:45:46Z</time>
      </trkpt>
      <trkpt lat="49.94118" lon="4.64429">
        <ele>140.8</ele>
        <time>2024-04-06T10:45:47Z</time>
      </trkpt>
      <trkpt lat="49.94116" lon="4.64442">
        <ele>140.2</ele>
        <time>2024-04-06T10:45:48Z</time>
      </trkpt>
      <trkpt lat="49.94113" lon="4.64456">
        <ele>139.8</ele>
        <time>2024-04-06T10:45:49Z</time>
      </trkpt>
      <trkpt lat="49.94111" lon="4.64469">
        <ele>139.6</ele>
        <time>2024-04-06T10:45:50Z</time>
      </trkpt>
      <trkpt lat="49.94108" lon="4.64483">
        <ele>139.4</ele>
        <time>2024-04-06T10:45:51Z</time>
      </trkpt>
      <trkpt lat="49.94106" lon="4.64496">
        <ele>139.2</ele>
        <time>2024-04-06T10:45:52Z</time>
      </trkpt>
      <trkpt lat="49.94103" lon="4.6451">
        <ele>139.2</ele>
        <time>2024-04-06T10:45:53Z</time>
      </trkpt>
      <trkpt lat="49.94099" lon="4.64523">
        <ele>138.6</ele>
        <time>2024-04-06T10:45:54Z</time>
      </trkpt>
      <trkpt lat="49.94094" lon="4.64536">
        <ele>138.4</ele>
        <time>2024-04-06T10:45:55Z</time>
      </trkpt>
      <trkpt lat="49.94088" lon="4.64546">
        <ele>137.8</ele>
        <time>2024-04-06T10:45:56Z</time>
      </trkpt>
      <trkpt lat="49.94082" lon="4.64556">
        <ele>137.2</ele>
        <time>2024-04-06T10:45:57Z</time>
      </trkpt>
      <trkpt lat="49.94076" lon="4.64566">
        <ele>137</ele>
        <time>2024-04-06T10:45:58Z</time>
      </trkpt>
      <trkpt lat="49.9407" lon="4.64576">
        <ele>136.8</ele>
        <time>2024-04-06T10:45:59Z</time>
      </trkpt>
      <trkpt lat="49.94065" lon="4.64586">
        <ele>136.6</ele>
        <time>2024-04-06T10:46:00Z</time>
      </trkpt>
      <trkpt lat="49.94059" lon="4.64596">
        <ele>136.4</ele>
        <time>2024-04-06T10:46:01Z</time>
      </trkpt>
      <trkpt lat="49.94055" lon="4.64606">
        <ele>136.2</ele>
        <time>2024-04-06T10:46:02Z</time>
      </trkpt>
      <trkpt lat="49.9405" lon="4.64615">
        <ele>136</ele>
        <time>2024-04-06T10:46:03Z</time>
      </trkpt>
      <trkpt lat="49.94045" lon="4.64625">
        <ele>136</ele>
        <time>2024-04-06T10:46:04Z</time>
      </trkpt>
      <trkpt lat="49.94041" lon="4.64634">
        <ele>135.8</ele>
        <time>2024-04-06T10:46:05Z</time>
      </trkpt>
      <trkpt lat="49.94037" lon="4.64643">
        <ele>135.8</ele>
        <time>2024-04-06T10:46:06Z</time>
      </trkpt>
      <trkpt lat="49.94032" lon="4.64652">
        <ele>135.8</ele>
        <time>2024-04-06T10:46:07Z</time>
      </trkpt>
      <trkpt lat="49.94028" lon="4.64661">
        <ele>135.8</ele>
        <time>2024-04-06T10:46:08Z</time>
      </trkpt>
      <trkpt lat="49.94024" lon="4.6467">
        <ele>136.2</ele>
        <time>2024-04-06T10:46:09Z</time>
      </trkpt>
      <trkpt lat="49.9402" lon="4.6468">
        <ele>136</ele>
        <time>2024-04-06T10:46:10Z</time>
      </trkpt>
      <trkpt lat="49.94016" lon="4.64689">
        <ele>136</ele>
        <time>2024-04-06T10:46:11Z</time>
      </trkpt>
      <trkpt lat="49.94012" lon="4.64698">
        <ele>136</ele>
        <time>2024-04-06T10:46:12Z</time>
      </trkpt>
      <trkpt lat="49.94008" lon="4.64706">
        <ele>136</ele>
        <time>2024-04-06T10:46:13Z</time>
      </trkpt>
      <trkpt lat="49.94004" lon="4.64715">
        <ele>136</ele>
        <time>2024-04-06T10:46:14Z</time>
      </trkpt>
      <trkpt lat="49.94" lon="4.64723">
        <ele>136</ele>
        <time>2024-04-06T10:46:15Z</time>
      </trkpt>
      <trkpt lat="49.93997" lon="4.64731">
        <ele>136</ele>
        <time>2024-04-06T10:46:16Z</time>
      </trkpt>
      <trkpt lat="49.93993" lon="4.6474">
        <ele>135.8</ele>
        <time>2024-04-06T10:46:17Z</time>
      </trkpt>
      <trkpt lat="49.9399" lon="4.64748">
        <ele>135.8</ele>
        <time>2024-04-06T10:46:18Z</time>
      </trkpt>
      <trkpt lat="49.93986" lon="4.64756">
        <ele>136</ele>
        <time>2024-04-06T10:46:19Z</time>
      </trkpt>
      <trkpt lat="49.93982" lon="4.64764">
        <ele>136</ele>
        <time>2024-04-06T10:46:20Z</time>
      </trkpt>
      <trkpt lat="49.93979" lon="4.64772">
        <ele>136</ele>
        <time>2024-04-06T10:46:21Z</time>
      </trkpt>
      <trkpt lat="49.93975" lon="4.64781">
        <ele>136</ele>
        <time>2024-04-06T10:46:22Z</time>
      </trkpt>
      <trkpt lat="49.93971" lon="4.64789">
        <ele>136</ele>
        <time>2024-04-06T10:46:23Z</time>
      </trkpt>
      <trkpt lat="49.93968" lon="4.64797">
        <ele>136</ele>
        <time>2024-04-06T10:46:24Z</time>
      </trkpt>
      <trkpt lat="49.93964" lon="4.64805">
        <ele>136</ele>
        <time>2024-04-06T10:46:25Z</time>
      </trkpt>
      <trkpt lat="49.93961" lon="4.64812">
        <ele>135.6</ele>
        <time>2024-04-06T10:46:26Z</time>
      </trkpt>
      <trkpt lat="49.93957" lon="4.6482">
        <ele>135.6</ele>
        <time>2024-04-06T10:46:27Z</time>
      </trkpt>
      <trkpt lat="49.93953" lon="4.64828">
        <ele>135.6</ele>
        <time>2024-04-06T10:46:28Z</time>
      </trkpt>
      <trkpt lat="49.93949" lon="4.64836">
        <ele>135.6</ele>
        <time>2024-04-06T10:46:29Z</time>
      </trkpt>
      <trkpt lat="49.93944" lon="4.64844">
        <ele>135.6</ele>
        <time>2024-04-06T10:46:30Z</time>
      </trkpt>
      <trkpt lat="49.9394" lon="4.64851">
        <ele>135.4</ele>
        <time>2024-04-06T10:46:31Z</time>
      </trkpt>
      <trkpt lat="49.93936" lon="4.64859">
        <ele>135.4</ele>
        <time>2024-04-06T10:46:32Z</time>
      </trkpt>
      <trkpt lat="49.93931" lon="4.64866">
        <ele>136</ele>
        <time>2024-04-06T10:46:33Z</time>
      </trkpt>
      <trkpt lat="49.93927" lon="4.64874">
        <ele>136</ele>
        <time>2024-04-06T10:46:34Z</time>
      </trkpt>
      <trkpt lat="49.93922" lon="4.64881">
        <ele>136</ele>
        <time>2024-04-06T10:46:35Z</time>
      </trkpt>
      <trkpt lat="49.93917" lon="4.64889">
        <ele>136</ele>
        <time>2024-04-06T10:46:36Z</time>
      </trkpt>
      <trkpt lat="49.93912" lon="4.64896">
        <ele>136</ele>
        <time>2024-04-06T10:46:37Z</time>
      </trkpt>
      <trkpt lat="49.93906" lon="4.64904">
        <ele>136</ele>
        <time>2024-04-06T10:46:38Z</time>
      </trkpt>
      <trkpt lat="49.93901" lon="4.64911">
        <ele>136.2</ele>
        <time>2024-04-06T10:46:39Z</time>
      </trkpt>
      <trkpt lat="49.93896" lon="4.64918">
        <ele>136</ele>
        <time>2024-04-06T10:46:40Z</time>
      </trkpt>
      <trkpt lat="49.93891" lon="4.64924">
        <ele>136.4</ele>
        <time>2024-04-06T10:46:41Z</time>
      </trkpt>
      <trkpt lat="49.93886" lon="4.64931">
        <ele>136.6</ele>
        <time>2024-04-06T10:46:42Z</time>
      </trkpt>
      <trkpt lat="49.93881" lon="4.64937">
        <ele>136.8</ele>
        <time>2024-04-06T10:46:43Z</time>
      </trkpt>
      <trkpt lat="49.93876" lon="4.64943">
        <ele>136.8</ele>
        <time>2024-04-06T10:46:44Z</time>
      </trkpt>
      <trkpt lat="49.9387" lon="4.64949">
        <ele>136.8</ele>
        <time>2024-04-06T10:46:45Z</time>
      </trkpt>
      <trkpt lat="49.93865" lon="4.64955">
        <ele>136.8</ele>
        <time>2024-04-06T10:46:46Z</time>
      </trkpt>
      <trkpt lat="49.93859" lon="4.64961">
        <ele>137</ele>
        <time>2024-04-06T10:46:47Z</time>
      </trkpt>
      <trkpt lat="49.93854" lon="4.64967">
        <ele>137</ele>
        <time>2024-04-06T10:46:48Z</time>
      </trkpt>
      <trkpt lat="49.93848" lon="4.64973">
        <ele>136.8</ele>
        <time>2024-04-06T10:46:49Z</time>
      </trkpt>
      <trkpt lat="49.93843" lon="4.64978">
        <ele>136.8</ele>
        <time>2024-04-06T10:46:50Z</time>
      </trkpt>
      <trkpt lat="49.93837" lon="4.64984">
        <ele>136.8</ele>
        <time>2024-04-06T10:46:51Z</time>
      </trkpt>
      <trkpt lat="49.93831" lon="4.64989">
        <ele>136.6</ele>
        <time>2024-04-06T10:46:52Z</time>
      </trkpt>
      <trkpt lat="49.93825" lon="4.64994">
        <ele>136.6</ele>
        <time>2024-04-06T10:46:53Z</time>
      </trkpt>
      <trkpt lat="49.93819" lon="4.65">
        <ele>136.4</ele>
        <time>2024-04-06T10:46:54Z</time>
      </trkpt>
      <trkpt lat="49.93813" lon="4.65005">
        <ele>136.4</ele>
        <time>2024-04-06T10:46:55Z</time>
      </trkpt>
      <trkpt lat="49.93807" lon="4.6501">
        <ele>136.2</ele>
        <time>2024-04-06T10:46:56Z</time>
      </trkpt>
      <trkpt lat="49.93801" lon="4.65016">
        <ele>136.4</ele>
        <time>2024-04-06T10:46:57Z</time>
      </trkpt>
      <trkpt lat="49.93795" lon="4.65021">
        <ele>136.2</ele>
        <time>2024-04-06T10:46:58Z</time>
      </trkpt>
      <trkpt lat="49.93789" lon="4.65026">
        <ele>136.4</ele>
        <time>2024-04-06T10:46:59Z</time>
      </trkpt>
      <trkpt lat="49.93783" lon="4.65031">
        <ele>136.2</ele>
        <time>2024-04-06T10:47:00Z</time>
      </trkpt>
      <trkpt lat="49.93776" lon="4.65036">
        <ele>136.2</ele>
        <time>2024-04-06T10:47:01Z</time>
      </trkpt>
      <trkpt lat="49.9377" lon="4.65041">
        <ele>136.2</ele>
        <time>2024-04-06T10:47:02Z</time>
      </trkpt>
      <trkpt lat="49.93763" lon="4.65046">
        <ele>136.2</ele>
        <time>2024-04-06T10:47:03Z</time>
      </trkpt>
      <trkpt lat="49.93757" lon="4.65051">
        <ele>136.2</ele>
        <time>2024-04-06T10:47:04Z</time>
      </trkpt>
      <trkpt lat="49.9375" lon="4.65055">
        <ele>136.2</ele>
        <time>2024-04-06T10:47:05Z</time>
      </trkpt>
      <trkpt lat="49.93744" lon="4.6506">
        <ele>136.2</ele>
        <time>2024-04-06T10:47:06Z</time>
      </trkpt>
      <trkpt lat="49.93737" lon="4.65065">
        <ele>136.2</ele>
        <time>2024-04-06T10:47:07Z</time>
      </trkpt>
      <trkpt lat="49.9373" lon="4.65069">
        <ele>136</ele>
        <time>2024-04-06T10:47:08Z</time>
      </trkpt>
      <trkpt lat="49.93723" lon="4.65073">
        <ele>136</ele>
        <time>2024-04-06T10:47:09Z</time>
      </trkpt>
      <trkpt lat="49.93715" lon="4.65077">
        <ele>136</ele>
        <time>2024-04-06T10:47:10Z</time>
      </trkpt>
      <trkpt lat="49.93708" lon="4.65081">
        <ele>135.8</ele>
        <time>2024-04-06T10:47:11Z</time>
      </trkpt>
      <trkpt lat="49.93701" lon="4.65085">
        <ele>136</ele>
        <time>2024-04-06T10:47:12Z</time>
      </trkpt>
      <trkpt lat="49.93693" lon="4.65088">
        <ele>135.8</ele>
        <time>2024-04-06T10:47:13Z</time>
      </trkpt>
      <trkpt lat="49.93686" lon="4.65092">
        <ele>136</ele>
        <time>2024-04-06T10:47:14Z</time>
      </trkpt>
      <trkpt lat="49.93678" lon="4.65095">
        <ele>136</ele>
        <time>2024-04-06T10:47:15Z</time>
      </trkpt>
      <trkpt lat="49.93671" lon="4.65098">
        <ele>135.8</ele>
        <time>2024-04-06T10:47:16Z</time>
      </trkpt>
      <trkpt lat="49.93663" lon="4.65101">
        <ele>135.6</ele>
        <time>2024-04-06T10:47:17Z</time>
      </trkpt>
      <trkpt lat="49.93656" lon="4.65104">
        <ele>135.6</ele>
        <time>2024-04-06T10:47:18Z</time>
      </trkpt>
      <trkpt lat="49.93648" lon="4.65107">
        <ele>135.4</ele>
        <time>2024-04-06T10:47:19Z</time>
      </trkpt>
      <trkpt lat="49.93641" lon="4.65109">
        <ele>135.6</ele>
        <time>2024-04-06T10:47:20Z</time>
      </trkpt>
      <trkpt lat="49.93634" lon="4.65112">
        <ele>135.4</ele>
        <time>2024-04-06T10:47:21Z</time>
      </trkpt>
      <trkpt lat="49.93626" lon="4.65114">
        <ele>135.4</ele>
        <time>2024-04-06T10:47:22Z</time>
      </trkpt>
      <trkpt lat="49.9362" lon="4.65115">
        <ele>135.6</ele>
        <time>2024-04-06T10:47:23Z</time>
      </trkpt>
      <trkpt lat="49.93613" lon="4.65117">
        <ele>135.6</ele>
        <time>2024-04-06T10:47:24Z</time>
      </trkpt>
      <trkpt lat="49.93607" lon="4.65118">
        <ele>135.6</ele>
        <time>2024-04-06T10:47:25Z</time>
      </trkpt>
      <trkpt lat="49.93601" lon="4.65118">
        <ele>135.6</ele>
        <time>2024-04-06T10:47:26Z</time>
      </trkpt>
      <trkpt lat="49.93597" lon="4.65119">
        <ele>135.6</ele>
        <time>2024-04-06T10:47:27Z</time>
      </trkpt>
      <trkpt lat="49.93593" lon="4.65119">
        <ele>135.6</ele>
        <time>2024-04-06T10:47:28Z</time>
      </trkpt>
      <trkpt lat="49.93591" lon="4.65119">
        <ele>135.8</ele>
        <time>2024-04-06T10:47:29Z</time>
      </trkpt>
      <trkpt lat="49.93589" lon="4.65118">
        <ele>135.8</ele>
        <time>2024-04-06T10:47:30Z</time>
      </trkpt>
      <trkpt lat="49.93589" lon="4.65118">
        <ele>135.8</ele>
        <time>2024-04-06T10:47:31Z</time>
      </trkpt>
      <trkpt lat="49.93589" lon="4.65118">
        <ele>136</ele>
        <time>2024-04-06T10:47:32Z</time>
      </trkpt>
      <trkpt lat="49.93586" lon="4.65114">
        <ele>137.4</ele>
        <time>2024-04-06T10:47:46Z</time>
      </trkpt>
      <trkpt lat="49.93584" lon="4.65111">
        <ele>137.4</ele>
        <time>2024-04-06T10:47:47Z</time>
      </trkpt>
      <trkpt lat="49.93581" lon="4.65109">
        <ele>137.2</ele>
        <time>2024-04-06T10:47:48Z</time>
      </trkpt>
      <trkpt lat="49.93578" lon="4.65108">
        <ele>137.2</ele>
        <time>2024-04-06T10:47:49Z</time>
      </trkpt>
      <trkpt lat="49.93575" lon="4.65106">
        <ele>137.2</ele>
        <time>2024-04-06T10:47:50Z</time>
      </trkpt>
      <trkpt lat="49.93571" lon="4.65105">
        <ele>137.2</ele>
        <time>2024-04-06T10:47:51Z</time>
      </trkpt>
      <trkpt lat="49.93567" lon="4.65103">
        <ele>137.2</ele>
        <time>2024-04-06T10:47:52Z</time>
      </trkpt>
      <trkpt lat="49.93563" lon="4.651">
        <ele>137.2</ele>
        <time>2024-04-06T10:47:53Z</time>
      </trkpt>
      <trkpt lat="49.93559" lon="4.65098">
        <ele>137.2</ele>
        <time>2024-04-06T10:47:54Z</time>
      </trkpt>
      <trkpt lat="49.93554" lon="4.65095">
        <ele>137.2</ele>
        <time>2024-04-06T10:47:55Z</time>
      </trkpt>
      <trkpt lat="49.9355" lon="4.65091">
        <ele>137.2</ele>
        <time>2024-04-06T10:47:56Z</time>
      </trkpt>
      <trkpt lat="49.93545" lon="4.65088">
        <ele>137</ele>
        <time>2024-04-06T10:47:57Z</time>
      </trkpt>
      <trkpt lat="49.9354" lon="4.65084">
        <ele>136.6</ele>
        <time>2024-04-06T10:47:58Z</time>
      </trkpt>
      <trkpt lat="49.93535" lon="4.6508">
        <ele>136.6</ele>
        <time>2024-04-06T10:47:59Z</time>
      </trkpt>
      <trkpt lat="49.9353" lon="4.65075">
        <ele>136</ele>
        <time>2024-04-06T10:48:00Z</time>
      </trkpt>
      <trkpt lat="49.93524" lon="4.6507">
        <ele>135.6</ele>
        <time>2024-04-06T10:48:01Z</time>
      </trkpt>
      <trkpt lat="49.93518" lon="4.65066">
        <ele>135.6</ele>
        <time>2024-04-06T10:48:02Z</time>
      </trkpt>
      <trkpt lat="49.93511" lon="4.65062">
        <ele>135</ele>
        <time>2024-04-06T10:48:03Z</time>
      </trkpt>
      <trkpt lat="49.93505" lon="4.65058">
        <ele>134.2</ele>
        <time>2024-04-06T10:48:04Z</time>
      </trkpt>
      <trkpt lat="49.93499" lon="4.65054">
        <ele>133.4</ele>
        <time>2024-04-06T10:48:05Z</time>
      </trkpt>
      <trkpt lat="49.93492" lon="4.65048">
        <ele>133.2</ele>
        <time>2024-04-06T10:48:06Z</time>
      </trkpt>
      <trkpt lat="49.93487" lon="4.65043">
        <ele>132.6</ele>
        <time>2024-04-06T10:48:07Z</time>
      </trkpt>
      <trkpt lat="49.93481" lon="4.65037">
        <ele>132.2</ele>
        <time>2024-04-06T10:48:08Z</time>
      </trkpt>
      <trkpt lat="49.93475" lon="4.65031">
        <ele>132</ele>
        <time>2024-04-06T10:48:09Z</time>
      </trkpt>
      <trkpt lat="49.93469" lon="4.65025">
        <ele>131.8</ele>
        <time>2024-04-06T10:48:10Z</time>
      </trkpt>
      <trkpt lat="49.93464" lon="4.65018">
        <ele>131.8</ele>
        <time>2024-04-06T10:48:11Z</time>
      </trkpt>
      <trkpt lat="49.93458" lon="4.65011">
        <ele>131.8</ele>
        <time>2024-04-06T10:48:12Z</time>
      </trkpt>
      <trkpt lat="49.93452" lon="4.65005">
        <ele>131.8</ele>
        <time>2024-04-06T10:48:13Z</time>
      </trkpt>
      <trkpt lat="49.93447" lon="4.64998">
        <ele>131.8</ele>
        <time>2024-04-06T10:48:14Z</time>
      </trkpt>
      <trkpt lat="49.93441" lon="4.64991">
        <ele>131.6</ele>
        <time>2024-04-06T10:48:15Z</time>
      </trkpt>
      <trkpt lat="49.93436" lon="4.64985">
        <ele>131.8</ele>
        <time>2024-04-06T10:48:16Z</time>
      </trkpt>
      <trkpt lat="49.93431" lon="4.64978">
        <ele>131.8</ele>
        <time>2024-04-06T10:48:17Z</time>
      </trkpt>
      <trkpt lat="49.93425" lon="4.64971">
        <ele>131.8</ele>
        <time>2024-04-06T10:48:18Z</time>
      </trkpt>
      <trkpt lat="49.9342" lon="4.64964">
        <ele>131.8</ele>
        <time>2024-04-06T10:48:19Z</time>
      </trkpt>
      <trkpt lat="49.93414" lon="4.64957">
        <ele>131.8</ele>
        <time>2024-04-06T10:48:20Z</time>
      </trkpt>
      <trkpt lat="49.93408" lon="4.64949">
        <ele>132</ele>
        <time>2024-04-06T10:48:21Z</time>
      </trkpt>
      <trkpt lat="49.93403" lon="4.64942">
        <ele>132.2</ele>
        <time>2024-04-06T10:48:22Z</time>
      </trkpt>
      <trkpt lat="49.93397" lon="4.64935">
        <ele>132.2</ele>
        <time>2024-04-06T10:48:23Z</time>
      </trkpt>
      <trkpt lat="49.93392" lon="4.64927">
        <ele>132.2</ele>
        <time>2024-04-06T10:48:24Z</time>
      </trkpt>
      <trkpt lat="49.93386" lon="4.64919">
        <ele>132</ele>
        <time>2024-04-06T10:48:25Z</time>
      </trkpt>
      <trkpt lat="49.93381" lon="4.64912">
        <ele>132</ele>
        <time>2024-04-06T10:48:26Z</time>
      </trkpt>
      <trkpt lat="49.93375" lon="4.64905">
        <ele>132.2</ele>
        <time>2024-04-06T10:48:27Z</time>
      </trkpt>
      <trkpt lat="49.93369" lon="4.64897">
        <ele>132</ele>
        <time>2024-04-06T10:48:28Z</time>
      </trkpt>
      <trkpt lat="49.93364" lon="4.6489">
        <ele>132</ele>
        <time>2024-04-06T10:48:29Z</time>
      </trkpt>
      <trkpt lat="49.93358" lon="4.64883">
        <ele>132</ele>
        <time>2024-04-06T10:48:30Z</time>
      </trkpt>
      <trkpt lat="49.93352" lon="4.64875">
        <ele>132</ele>
        <time>2024-04-06T10:48:31Z</time>
      </trkpt>
      <trkpt lat="49.93347" lon="4.64868">
        <ele>132</ele>
        <time>2024-04-06T10:48:32Z</time>
      </trkpt>
      <trkpt lat="49.93341" lon="4.64861">
        <ele>132.2</ele>
        <time>2024-04-06T10:48:33Z</time>
      </trkpt>
      <trkpt lat="49.93335" lon="4.64854">
        <ele>132.2</ele>
        <time>2024-04-06T10:48:34Z</time>
      </trkpt>
      <trkpt lat="49.9333" lon="4.64847">
        <ele>132</ele>
        <time>2024-04-06T10:48:35Z</time>
      </trkpt>
      <trkpt lat="49.93324" lon="4.6484">
        <ele>132</ele>
        <time>2024-04-06T10:48:36Z</time>
      </trkpt>
      <trkpt lat="49.93318" lon="4.64832">
        <ele>132</ele>
        <time>2024-04-06T10:48:37Z</time>
      </trkpt>
      <trkpt lat="49.93313" lon="4.64825">
        <ele>131.8</ele>
        <time>2024-04-06T10:48:38Z</time>
      </trkpt>
      <trkpt lat="49.93307" lon="4.64817">
        <ele>132</ele>
        <time>2024-04-06T10:48:39Z</time>
      </trkpt>
      <trkpt lat="49.93301" lon="4.6481">
        <ele>132</ele>
        <time>2024-04-06T10:48:40Z</time>
      </trkpt>
      <trkpt lat="49.93295" lon="4.64802">
        <ele>131.8</ele>
        <time>2024-04-06T10:48:41Z</time>
      </trkpt>
      <trkpt lat="49.93289" lon="4.64795">
        <ele>131.8</ele>
        <time>2024-04-06T10:48:42Z</time>
      </trkpt>
      <trkpt lat="49.93283" lon="4.64788">
        <ele>131.8</ele>
        <time>2024-04-06T10:48:43Z</time>
      </trkpt>
      <trkpt lat="49.93277" lon="4.64781">
        <ele>131.6</ele>
        <time>2024-04-06T10:48:44Z</time>
      </trkpt>
      <trkpt lat="49.93271" lon="4.64774">
        <ele>131.6</ele>
        <time>2024-04-06T10:48:45Z</time>
      </trkpt>
      <trkpt lat="49.93265" lon="4.64768">
        <ele>131.8</ele>
        <time>2024-04-06T10:48:46Z</time>
      </trkpt>
      <trkpt lat="49.9326" lon="4.64762">
        <ele>131.8</ele>
        <time>2024-04-06T10:48:47Z</time>
      </trkpt>
      <trkpt lat="49.93254" lon="4.64757">
        <ele>131.6</ele>
        <time>2024-04-06T10:48:48Z</time>
      </trkpt>
      <trkpt lat="49.93249" lon="4.64751">
        <ele>131.8</ele>
        <time>2024-04-06T10:48:49Z</time>
      </trkpt>
      <trkpt lat="49.93244" lon="4.64746">
        <ele>131.8</ele>
        <time>2024-04-06T10:48:50Z</time>
      </trkpt>
      <trkpt lat="49.93238" lon="4.6474">
        <ele>132</ele>
        <time>2024-04-06T10:48:51Z</time>
      </trkpt>
      <trkpt lat="49.93232" lon="4.64735">
        <ele>132</ele>
        <time>2024-04-06T10:48:52Z</time>
      </trkpt>
      <trkpt lat="49.93227" lon="4.64729">
        <ele>132.2</ele>
        <time>2024-04-06T10:48:53Z</time>
      </trkpt>
      <trkpt lat="49.93221" lon="4.64723">
        <ele>132</ele>
        <time>2024-04-06T10:48:54Z</time>
      </trkpt>
      <trkpt lat="49.93215" lon="4.64717">
        <ele>132.4</ele>
        <time>2024-04-06T10:48:55Z</time>
      </trkpt>
      <trkpt lat="49.93209" lon="4.64711">
        <ele>132.6</ele>
        <time>2024-04-06T10:48:56Z</time>
      </trkpt>
      <trkpt lat="49.93204" lon="4.64706">
        <ele>132.8</ele>
        <time>2024-04-06T10:48:57Z</time>
      </trkpt>
      <trkpt lat="49.93198" lon="4.647">
        <ele>132.8</ele>
        <time>2024-04-06T10:48:58Z</time>
      </trkpt>
      <trkpt lat="49.93193" lon="4.64695">
        <ele>132.8</ele>
        <time>2024-04-06T10:48:59Z</time>
      </trkpt>
      <trkpt lat="49.93188" lon="4.64689">
        <ele>133</ele>
        <time>2024-04-06T10:49:00Z</time>
      </trkpt>
      <trkpt lat="49.93183" lon="4.64682">
        <ele>133.2</ele>
        <time>2024-04-06T10:49:01Z</time>
      </trkpt>
      <trkpt lat="49.93178" lon="4.64676">
        <ele>133.2</ele>
        <time>2024-04-06T10:49:02Z</time>
      </trkpt>
      <trkpt lat="49.93173" lon="4.64669">
        <ele>133.2</ele>
        <time>2024-04-06T10:49:03Z</time>
      </trkpt>
      <trkpt lat="49.93167" lon="4.64662">
        <ele>133.2</ele>
        <time>2024-04-06T10:49:04Z</time>
      </trkpt>
      <trkpt lat="49.93162" lon="4.64655">
        <ele>133.4</ele>
        <time>2024-04-06T10:49:05Z</time>
      </trkpt>
      <trkpt lat="49.93156" lon="4.64649">
        <ele>133.4</ele>
        <time>2024-04-06T10:49:06Z</time>
      </trkpt>
      <trkpt lat="49.93151" lon="4.64642">
        <ele>133.2</ele>
        <time>2024-04-06T10:49:07Z</time>
      </trkpt>
      <trkpt lat="49.93145" lon="4.64635">
        <ele>133.4</ele>
        <time>2024-04-06T10:49:08Z</time>
      </trkpt>
      <trkpt lat="49.93139" lon="4.64629">
        <ele>133.2</ele>
        <time>2024-04-06T10:49:09Z</time>
      </trkpt>
      <trkpt lat="49.93133" lon="4.64622">
        <ele>133</ele>
        <time>2024-04-06T10:49:10Z</time>
      </trkpt>
      <trkpt lat="49.93127" lon="4.64615">
        <ele>133.2</ele>
        <time>2024-04-06T10:49:11Z</time>
      </trkpt>
      <trkpt lat="49.93121" lon="4.64609">
        <ele>133.2</ele>
        <time>2024-04-06T10:49:12Z</time>
      </trkpt>
      <trkpt lat="49.93115" lon="4.64602">
        <ele>133.2</ele>
        <time>2024-04-06T10:49:13Z</time>
      </trkpt>
      <trkpt lat="49.93109" lon="4.64596">
        <ele>133.2</ele>
        <time>2024-04-06T10:49:14Z</time>
      </trkpt>
      <trkpt lat="49.93103" lon="4.64589">
        <ele>133.2</ele>
        <time>2024-04-06T10:49:15Z</time>
      </trkpt>
      <trkpt lat="49.93097" lon="4.64583">
        <ele>133.4</ele>
        <time>2024-04-06T10:49:16Z</time>
      </trkpt>
      <trkpt lat="49.93091" lon="4.64577">
        <ele>133.4</ele>
        <time>2024-04-06T10:49:17Z</time>
      </trkpt>
      <trkpt lat="49.93085" lon="4.64571">
        <ele>133.6</ele>
        <time>2024-04-06T10:49:18Z</time>
      </trkpt>
      <trkpt lat="49.93079" lon="4.64565">
        <ele>133.4</ele>
        <time>2024-04-06T10:49:19Z</time>
      </trkpt>
      <trkpt lat="49.93073" lon="4.64559">
        <ele>133.6</ele>
        <time>2024-04-06T10:49:20Z</time>
      </trkpt>
      <trkpt lat="49.93066" lon="4.64554">
        <ele>133.4</ele>
        <time>2024-04-06T10:49:21Z</time>
      </trkpt>
      <trkpt lat="49.93059" lon="4.64549">
        <ele>133.4</ele>
        <time>2024-04-06T10:49:22Z</time>
      </trkpt>
      <trkpt lat="49.93052" lon="4.64544">
        <ele>133.6</ele>
        <time>2024-04-06T10:49:23Z</time>
      </trkpt>
      <trkpt lat="49.93045" lon="4.64539">
        <ele>133.6</ele>
        <time>2024-04-06T10:49:24Z</time>
      </trkpt>
      <trkpt lat="49.93039" lon="4.64535">
        <ele>133.6</ele>
        <time>2024-04-06T10:49:25Z</time>
      </trkpt>
      <trkpt lat="49.93032" lon="4.64531">
        <ele>133.4</ele>
        <time>2024-04-06T10:49:26Z</time>
      </trkpt>
      <trkpt lat="49.93025" lon="4.64526">
        <ele>133.6</ele>
        <time>2024-04-06T10:49:27Z</time>
      </trkpt>
      <trkpt lat="49.93017" lon="4.64523">
        <ele>133.4</ele>
        <time>2024-04-06T10:49:28Z</time>
      </trkpt>
      <trkpt lat="49.9301" lon="4.64519">
        <ele>133.6</ele>
        <time>2024-04-06T10:49:29Z</time>
      </trkpt>
      <trkpt lat="49.93003" lon="4.64516">
        <ele>133.6</ele>
        <time>2024-04-06T10:49:30Z</time>
      </trkpt>
      <trkpt lat="49.92995" lon="4.64513">
        <ele>133.6</ele>
        <time>2024-04-06T10:49:31Z</time>
      </trkpt>
      <trkpt lat="49.92988" lon="4.6451">
        <ele>133.6</ele>
        <time>2024-04-06T10:49:32Z</time>
      </trkpt>
      <trkpt lat="49.9298" lon="4.64507">
        <ele>133.6</ele>
        <time>2024-04-06T10:49:33Z</time>
      </trkpt>
      <trkpt lat="49.92972" lon="4.64504">
        <ele>133.4</ele>
        <time>2024-04-06T10:49:34Z</time>
      </trkpt>
      <trkpt lat="49.92964" lon="4.64503">
        <ele>133.4</ele>
        <time>2024-04-06T10:49:35Z</time>
      </trkpt>
      <trkpt lat="49.92955" lon="4.64502">
        <ele>133.4</ele>
        <time>2024-04-06T10:49:36Z</time>
      </trkpt>
      <trkpt lat="49.92947" lon="4.645">
        <ele>133.4</ele>
        <time>2024-04-06T10:49:37Z</time>
      </trkpt>
      <trkpt lat="49.92938" lon="4.64499">
        <ele>133.2</ele>
        <time>2024-04-06T10:49:38Z</time>
      </trkpt>
      <trkpt lat="49.9293" lon="4.64499">
        <ele>133.2</ele>
        <time>2024-04-06T10:49:39Z</time>
      </trkpt>
      <trkpt lat="49.92921" lon="4.64499">
        <ele>133.2</ele>
        <time>2024-04-06T10:49:40Z</time>
      </trkpt>
      <trkpt lat="49.92913" lon="4.64498">
        <ele>133.2</ele>
        <time>2024-04-06T10:49:41Z</time>
      </trkpt>
      <trkpt lat="49.92905" lon="4.64498">
        <ele>133</ele>
        <time>2024-04-06T10:49:42Z</time>
      </trkpt>
      <trkpt lat="49.92897" lon="4.64497">
        <ele>133</ele>
        <time>2024-04-06T10:49:43Z</time>
      </trkpt>
      <trkpt lat="49.92889" lon="4.64497">
        <ele>132.2</ele>
        <time>2024-04-06T10:49:44Z</time>
      </trkpt>
      <trkpt lat="49.92881" lon="4.64497">
        <ele>131.8</ele>
        <time>2024-04-06T10:49:45Z</time>
      </trkpt>
      <trkpt lat="49.92874" lon="4.64497">
        <ele>131.8</ele>
        <time>2024-04-06T10:49:46Z</time>
      </trkpt>
      <trkpt lat="49.92866" lon="4.64496">
        <ele>131.8</ele>
        <time>2024-04-06T10:49:47Z</time>
      </trkpt>
      <trkpt lat="49.92859" lon="4.64495">
        <ele>131.6</ele>
        <time>2024-04-06T10:49:48Z</time>
      </trkpt>
      <trkpt lat="49.92851" lon="4.64495">
        <ele>131.4</ele>
        <time>2024-04-06T10:49:49Z</time>
      </trkpt>
      <trkpt lat="49.92843" lon="4.64495">
        <ele>131.6</ele>
        <time>2024-04-06T10:49:50Z</time>
      </trkpt>
      <trkpt lat="49.92836" lon="4.64495">
        <ele>131.6</ele>
        <time>2024-04-06T10:49:51Z</time>
      </trkpt>
      <trkpt lat="49.92828" lon="4.64494">
        <ele>131.6</ele>
        <time>2024-04-06T10:49:52Z</time>
      </trkpt>
      <trkpt lat="49.92821" lon="4.64494">
        <ele>131.4</ele>
        <time>2024-04-06T10:49:53Z</time>
      </trkpt>
      <trkpt lat="49.92813" lon="4.64494">
        <ele>131.6</ele>
        <time>2024-04-06T10:49:54Z</time>
      </trkpt>
      <trkpt lat="49.92806" lon="4.64494">
        <ele>131.4</ele>
        <time>2024-04-06T10:49:55Z</time>
      </trkpt>
      <trkpt lat="49.92798" lon="4.64494">
        <ele>131.4</ele>
        <time>2024-04-06T10:49:56Z</time>
      </trkpt>
      <trkpt lat="49.9279" lon="4.64494">
        <ele>131.2</ele>
        <time>2024-04-06T10:49:57Z</time>
      </trkpt>
      <trkpt lat="49.92783" lon="4.64493">
        <ele>130.8</ele>
        <time>2024-04-06T10:49:58Z</time>
      </trkpt>
      <trkpt lat="49.92776" lon="4.64494">
        <ele>130.6</ele>
        <time>2024-04-06T10:49:59Z</time>
      </trkpt>
      <trkpt lat="49.92768" lon="4.64494">
        <ele>130.8</ele>
        <time>2024-04-06T10:50:00Z</time>
      </trkpt>
      <trkpt lat="49.9276" lon="4.64495">
        <ele>130.8</ele>
        <time>2024-04-06T10:50:01Z</time>
      </trkpt>
      <trkpt lat="49.92753" lon="4.64496">
        <ele>131</ele>
        <time>2024-04-06T10:50:02Z</time>
      </trkpt>
      <trkpt lat="49.92745" lon="4.64499">
        <ele>131</ele>
        <time>2024-04-06T10:50:03Z</time>
      </trkpt>
      <trkpt lat="49.92737" lon="4.64502">
        <ele>131</ele>
        <time>2024-04-06T10:50:04Z</time>
      </trkpt>
      <trkpt lat="49.9273" lon="4.64505">
        <ele>131</ele>
        <time>2024-04-06T10:50:05Z</time>
      </trkpt>
      <trkpt lat="49.92722" lon="4.64507">
        <ele>131</ele>
        <time>2024-04-06T10:50:06Z</time>
      </trkpt>
      <trkpt lat="49.92714" lon="4.6451">
        <ele>131</ele>
        <time>2024-04-06T10:50:07Z</time>
      </trkpt>
      <trkpt lat="49.92707" lon="4.64514">
        <ele>130.8</ele>
        <time>2024-04-06T10:50:08Z</time>
      </trkpt>
      <trkpt lat="49.927" lon="4.64517">
        <ele>131</ele>
        <time>2024-04-06T10:50:09Z</time>
      </trkpt>
      <trkpt lat="49.92692" lon="4.6452">
        <ele>131</ele>
        <time>2024-04-06T10:50:10Z</time>
      </trkpt>
      <trkpt lat="49.92685" lon="4.64524">
        <ele>131</ele>
        <time>2024-04-06T10:50:11Z</time>
      </trkpt>
      <trkpt lat="49.92677" lon="4.64528">
        <ele>131</ele>
        <time>2024-04-06T10:50:12Z</time>
      </trkpt>
      <trkpt lat="49.9267" lon="4.64531">
        <ele>131</ele>
        <time>2024-04-06T10:50:13Z</time>
      </trkpt>
      <trkpt lat="49.92663" lon="4.64535">
        <ele>130.8</ele>
        <time>2024-04-06T10:50:14Z</time>
      </trkpt>
      <trkpt lat="49.92656" lon="4.64539">
        <ele>130.8</ele>
        <time>2024-04-06T10:50:15Z</time>
      </trkpt>
      <trkpt lat="49.92649" lon="4.64543">
        <ele>131</ele>
        <time>2024-04-06T10:50:16Z</time>
      </trkpt>
      <trkpt lat="49.92642" lon="4.64548">
        <ele>130.8</ele>
        <time>2024-04-06T10:50:17Z</time>
      </trkpt>
      <trkpt lat="49.92635" lon="4.64552">
        <ele>130.8</ele>
        <time>2024-04-06T10:50:18Z</time>
      </trkpt>
      <trkpt lat="49.92628" lon="4.64557">
        <ele>130.8</ele>
        <time>2024-04-06T10:50:19Z</time>
      </trkpt>
      <trkpt lat="49.92621" lon="4.64562">
        <ele>130.8</ele>
        <time>2024-04-06T10:50:20Z</time>
      </trkpt>
      <trkpt lat="49.92614" lon="4.64567">
        <ele>130.8</ele>
        <time>2024-04-06T10:50:21Z</time>
      </trkpt>
      <trkpt lat="49.92607" lon="4.64572">
        <ele>130.8</ele>
        <time>2024-04-06T10:50:22Z</time>
      </trkpt>
      <trkpt lat="49.92601" lon="4.64576">
        <ele>130.8</ele>
        <time>2024-04-06T10:50:23Z</time>
      </trkpt>
      <trkpt lat="49.92595" lon="4.64581">
        <ele>130.8</ele>
        <time>2024-04-06T10:50:24Z</time>
      </trkpt>
      <trkpt lat="49.92588" lon="4.64587">
        <ele>130.8</ele>
        <time>2024-04-06T10:50:25Z</time>
      </trkpt>
      <trkpt lat="49.92582" lon="4.64594">
        <ele>130.8</ele>
        <time>2024-04-06T10:50:26Z</time>
      </trkpt>
      <trkpt lat="49.92576" lon="4.64601">
        <ele>130.8</ele>
        <time>2024-04-06T10:50:27Z</time>
      </trkpt>
      <trkpt lat="49.9257" lon="4.64608">
        <ele>130.8</ele>
        <time>2024-04-06T10:50:28Z</time>
      </trkpt>
      <trkpt lat="49.92564" lon="4.64615">
        <ele>130.8</ele>
        <time>2024-04-06T10:50:29Z</time>
      </trkpt>
      <trkpt lat="49.92558" lon="4.64622">
        <ele>130.8</ele>
        <time>2024-04-06T10:50:30Z</time>
      </trkpt>
      <trkpt lat="49.92553" lon="4.6463">
        <ele>130.8</ele>
        <time>2024-04-06T10:50:31Z</time>
      </trkpt>
      <trkpt lat="49.92547" lon="4.64637">
        <ele>130.8</ele>
        <time>2024-04-06T10:50:32Z</time>
      </trkpt>
      <trkpt lat="49.92541" lon="4.64645">
        <ele>130.8</ele>
        <time>2024-04-06T10:50:33Z</time>
      </trkpt>
      <trkpt lat="49.92535" lon="4.64652">
        <ele>131</ele>
        <time>2024-04-06T10:50:34Z</time>
      </trkpt>
      <trkpt lat="49.92529" lon="4.64659">
        <ele>131</ele>
        <time>2024-04-06T10:50:35Z</time>
      </trkpt>
      <trkpt lat="49.92524" lon="4.64666">
        <ele>131</ele>
        <time>2024-04-06T10:50:36Z</time>
      </trkpt>
      <trkpt lat="49.92517" lon="4.64673">
        <ele>131</ele>
        <time>2024-04-06T10:50:37Z</time>
      </trkpt>
      <trkpt lat="49.92511" lon="4.6468">
        <ele>131.2</ele>
        <time>2024-04-06T10:50:38Z</time>
      </trkpt>
      <trkpt lat="49.92505" lon="4.64687">
        <ele>131</ele>
        <time>2024-04-06T10:50:39Z</time>
      </trkpt>
      <trkpt lat="49.92499" lon="4.64695">
        <ele>131</ele>
        <time>2024-04-06T10:50:40Z</time>
      </trkpt>
      <trkpt lat="49.92493" lon="4.64702">
        <ele>131.2</ele>
        <time>2024-04-06T10:50:41Z</time>
      </trkpt>
      <trkpt lat="49.92488" lon="4.64711">
        <ele>131.4</ele>
        <time>2024-04-06T10:50:42Z</time>
      </trkpt>
      <trkpt lat="49.92482" lon="4.64719">
        <ele>131.4</ele>
        <time>2024-04-06T10:50:43Z</time>
      </trkpt>
      <trkpt lat="49.92476" lon="4.64726">
        <ele>131.4</ele>
        <time>2024-04-06T10:50:44Z</time>
      </trkpt>
      <trkpt lat="49.9247" lon="4.64734">
        <ele>131.4</ele>
        <time>2024-04-06T10:50:45Z</time>
      </trkpt>
      <trkpt lat="49.92465" lon="4.64743">
        <ele>131.6</ele>
        <time>2024-04-06T10:50:46Z</time>
      </trkpt>
      <trkpt lat="49.9246" lon="4.64751">
        <ele>131.6</ele>
        <time>2024-04-06T10:50:47Z</time>
      </trkpt>
      <trkpt lat="49.92454" lon="4.64761">
        <ele>131.6</ele>
        <time>2024-04-06T10:50:48Z</time>
      </trkpt>
      <trkpt lat="49.92449" lon="4.6477">
        <ele>131.6</ele>
        <time>2024-04-06T10:50:49Z</time>
      </trkpt>
      <trkpt lat="49.92444" lon="4.6478">
        <ele>131.6</ele>
        <time>2024-04-06T10:50:50Z</time>
      </trkpt>
      <trkpt lat="49.92439" lon="4.6479">
        <ele>131.8</ele>
        <time>2024-04-06T10:50:51Z</time>
      </trkpt>
      <trkpt lat="49.92435" lon="4.64801">
        <ele>131.8</ele>
        <time>2024-04-06T10:50:52Z</time>
      </trkpt>
      <trkpt lat="49.92431" lon="4.64812">
        <ele>132</ele>
        <time>2024-04-06T10:50:53Z</time>
      </trkpt>
      <trkpt lat="49.92427" lon="4.64824">
        <ele>132</ele>
        <time>2024-04-06T10:50:54Z</time>
      </trkpt>
      <trkpt lat="49.92424" lon="4.64835">
        <ele>131.8</ele>
        <time>2024-04-06T10:50:55Z</time>
      </trkpt>
      <trkpt lat="49.9242" lon="4.64847">
        <ele>131.8</ele>
        <time>2024-04-06T10:50:56Z</time>
      </trkpt>
      <trkpt lat="49.92417" lon="4.64858">
        <ele>131.8</ele>
        <time>2024-04-06T10:50:57Z</time>
      </trkpt>
      <trkpt lat="49.92414" lon="4.6487">
        <ele>131.6</ele>
        <time>2024-04-06T10:50:58Z</time>
      </trkpt>
      <trkpt lat="49.92411" lon="4.64881">
        <ele>131.4</ele>
        <time>2024-04-06T10:50:59Z</time>
      </trkpt>
      <trkpt lat="49.92407" lon="4.64892">
        <ele>131.4</ele>
        <time>2024-04-06T10:51:00Z</time>
      </trkpt>
      <trkpt lat="49.92405" lon="4.64904">
        <ele>131.4</ele>
        <time>2024-04-06T10:51:01Z</time>
      </trkpt>
      <trkpt lat="49.92402" lon="4.64915">
        <ele>131.4</ele>
        <time>2024-04-06T10:51:02Z</time>
      </trkpt>
      <trkpt lat="49.924" lon="4.64926">
        <ele>131.4</ele>
        <time>2024-04-06T10:51:03Z</time>
      </trkpt>
      <trkpt lat="49.92398" lon="4.64938">
        <ele>131.2</ele>
        <time>2024-04-06T10:51:04Z</time>
      </trkpt>
      <trkpt lat="49.92396" lon="4.64949">
        <ele>131.4</ele>
        <time>2024-04-06T10:51:05Z</time>
      </trkpt>
      <trkpt lat="49.92395" lon="4.64961">
        <ele>131.2</ele>
        <time>2024-04-06T10:51:06Z</time>
      </trkpt>
      <trkpt lat="49.92395" lon="4.64973">
        <ele>131.2</ele>
        <time>2024-04-06T10:51:07Z</time>
      </trkpt>
      <trkpt lat="49.92396" lon="4.64984">
        <ele>131.2</ele>
        <time>2024-04-06T10:51:08Z</time>
      </trkpt>
      <trkpt lat="49.92397" lon="4.64995">
        <ele>131</ele>
        <time>2024-04-06T10:51:09Z</time>
      </trkpt>
      <trkpt lat="49.92398" lon="4.65006">
        <ele>131.2</ele>
        <time>2024-04-06T10:51:10Z</time>
      </trkpt>
      <trkpt lat="49.92401" lon="4.65016">
        <ele>131.2</ele>
        <time>2024-04-06T10:51:11Z</time>
      </trkpt>
      <trkpt lat="49.92403" lon="4.65027">
        <ele>131.2</ele>
        <time>2024-04-06T10:51:12Z</time>
      </trkpt>
      <trkpt lat="49.92406" lon="4.65037">
        <ele>131.2</ele>
        <time>2024-04-06T10:51:13Z</time>
      </trkpt>
      <trkpt lat="49.92408" lon="4.65047">
        <ele>131.4</ele>
        <time>2024-04-06T10:51:14Z</time>
      </trkpt>
      <trkpt lat="49.92411" lon="4.65058">
        <ele>131.4</ele>
        <time>2024-04-06T10:51:15Z</time>
      </trkpt>
      <trkpt lat="49.92413" lon="4.65068">
        <ele>131.2</ele>
        <time>2024-04-06T10:51:16Z</time>
      </trkpt>
      <trkpt lat="49.92415" lon="4.65078">
        <ele>131.4</ele>
        <time>2024-04-06T10:51:17Z</time>
      </trkpt>
      <trkpt lat="49.92418" lon="4.65089">
        <ele>131.2</ele>
        <time>2024-04-06T10:51:18Z</time>
      </trkpt>
      <trkpt lat="49.9242" lon="4.65099">
        <ele>131</ele>
        <time>2024-04-06T10:51:19Z</time>
      </trkpt>
      <trkpt lat="49.92423" lon="4.65109">
        <ele>131</ele>
        <time>2024-04-06T10:51:20Z</time>
      </trkpt>
      <trkpt lat="49.92425" lon="4.65119">
        <ele>131</ele>
        <time>2024-04-06T10:51:21Z</time>
      </trkpt>
      <trkpt lat="49.92427" lon="4.65129">
        <ele>131.2</ele>
        <time>2024-04-06T10:51:22Z</time>
      </trkpt>
      <trkpt lat="49.9243" lon="4.6514">
        <ele>131</ele>
        <time>2024-04-06T10:51:23Z</time>
      </trkpt>
      <trkpt lat="49.92434" lon="4.65149">
        <ele>130.8</ele>
        <time>2024-04-06T10:51:24Z</time>
      </trkpt>
      <trkpt lat="49.92438" lon="4.65159">
        <ele>130.6</ele>
        <time>2024-04-06T10:51:25Z</time>
      </trkpt>
      <trkpt lat="49.92443" lon="4.65168">
        <ele>130.8</ele>
        <time>2024-04-06T10:51:26Z</time>
      </trkpt>
      <trkpt lat="49.92447" lon="4.65177">
        <ele>130.6</ele>
        <time>2024-04-06T10:51:27Z</time>
      </trkpt>
      <trkpt lat="49.92452" lon="4.65186">
        <ele>130.6</ele>
        <time>2024-04-06T10:51:28Z</time>
      </trkpt>
      <trkpt lat="49.92457" lon="4.65195">
        <ele>130.4</ele>
        <time>2024-04-06T10:51:29Z</time>
      </trkpt>
      <trkpt lat="49.92462" lon="4.65203">
        <ele>130.4</ele>
        <time>2024-04-06T10:51:30Z</time>
      </trkpt>
      <trkpt lat="49.92467" lon="4.65211">
        <ele>130.2</ele>
        <time>2024-04-06T10:51:31Z</time>
      </trkpt>
      <trkpt lat="49.92472" lon="4.65219">
        <ele>130.4</ele>
        <time>2024-04-06T10:51:32Z</time>
      </trkpt>
      <trkpt lat="49.92477" lon="4.65226">
        <ele>130</ele>
        <time>2024-04-06T10:51:33Z</time>
      </trkpt>
      <trkpt lat="49.92482" lon="4.65234">
        <ele>130</ele>
        <time>2024-04-06T10:51:34Z</time>
      </trkpt>
      <trkpt lat="49.92486" lon="4.65242">
        <ele>129.8</ele>
        <time>2024-04-06T10:51:35Z</time>
      </trkpt>
      <trkpt lat="49.92491" lon="4.6525">
        <ele>130</ele>
        <time>2024-04-06T10:51:36Z</time>
      </trkpt>
      <trkpt lat="49.92495" lon="4.65259">
        <ele>129.8</ele>
        <time>2024-04-06T10:51:37Z</time>
      </trkpt>
      <trkpt lat="49.925" lon="4.65268">
        <ele>129.8</ele>
        <time>2024-04-06T10:51:38Z</time>
      </trkpt>
      <trkpt lat="49.92505" lon="4.65277">
        <ele>129.6</ele>
        <time>2024-04-06T10:51:39Z</time>
      </trkpt>
      <trkpt lat="49.9251" lon="4.65286">
        <ele>129.6</ele>
        <time>2024-04-06T10:51:40Z</time>
      </trkpt>
      <trkpt lat="49.92515" lon="4.65295">
        <ele>129.6</ele>
        <time>2024-04-06T10:51:41Z</time>
      </trkpt>
      <trkpt lat="49.9252" lon="4.65304">
        <ele>129.6</ele>
        <time>2024-04-06T10:51:42Z</time>
      </trkpt>
      <trkpt lat="49.92525" lon="4.65313">
        <ele>129.6</ele>
        <time>2024-04-06T10:51:43Z</time>
      </trkpt>
      <trkpt lat="49.9253" lon="4.65322">
        <ele>129.6</ele>
        <time>2024-04-06T10:51:44Z</time>
      </trkpt>
      <trkpt lat="49.92536" lon="4.65331">
        <ele>129.6</ele>
        <time>2024-04-06T10:51:45Z</time>
      </trkpt>
      <trkpt lat="49.92541" lon="4.65339">
        <ele>129.6</ele>
        <time>2024-04-06T10:51:46Z</time>
      </trkpt>
      <trkpt lat="49.92546" lon="4.65348">
        <ele>130</ele>
        <time>2024-04-06T10:51:47Z</time>
      </trkpt>
      <trkpt lat="49.92552" lon="4.65357">
        <ele>130</ele>
        <time>2024-04-06T10:51:48Z</time>
      </trkpt>
      <trkpt lat="49.92557" lon="4.65365">
        <ele>130</ele>
        <time>2024-04-06T10:51:49Z</time>
      </trkpt>
      <trkpt lat="49.92562" lon="4.65374">
        <ele>130</ele>
        <time>2024-04-06T10:51:50Z</time>
      </trkpt>
      <trkpt lat="49.92568" lon="4.65382">
        <ele>130</ele>
        <time>2024-04-06T10:51:51Z</time>
      </trkpt>
      <trkpt lat="49.92573" lon="4.6539">
        <ele>130</ele>
        <time>2024-04-06T10:51:52Z</time>
      </trkpt>
      <trkpt lat="49.92578" lon="4.65398">
        <ele>130</ele>
        <time>2024-04-06T10:51:53Z</time>
      </trkpt>
      <trkpt lat="49.92584" lon="4.65406">
        <ele>130.2</ele>
        <time>2024-04-06T10:51:54Z</time>
      </trkpt>
      <trkpt lat="49.92589" lon="4.65414">
        <ele>130</ele>
        <time>2024-04-06T10:51:55Z</time>
      </trkpt>
      <trkpt lat="49.92594" lon="4.65422">
        <ele>130</ele>
        <time>2024-04-06T10:51:56Z</time>
      </trkpt>
      <trkpt lat="49.92599" lon="4.65431">
        <ele>130.2</ele>
        <time>2024-04-06T10:51:57Z</time>
      </trkpt>
      <trkpt lat="49.92604" lon="4.65439">
        <ele>130.2</ele>
        <time>2024-04-06T10:51:58Z</time>
      </trkpt>
      <trkpt lat="49.92609" lon="4.65447">
        <ele>130</ele>
        <time>2024-04-06T10:51:59Z</time>
      </trkpt>
      <trkpt lat="49.92614" lon="4.65455">
        <ele>130</ele>
        <time>2024-04-06T10:52:00Z</time>
      </trkpt>
      <trkpt lat="49.92618" lon="4.65463">
        <ele>130</ele>
        <time>2024-04-06T10:52:01Z</time>
      </trkpt>
      <trkpt lat="49.92623" lon="4.65471">
        <ele>129.8</ele>
        <time>2024-04-06T10:52:02Z</time>
      </trkpt>
      <trkpt lat="49.92627" lon="4.65479">
        <ele>129.8</ele>
        <time>2024-04-06T10:52:03Z</time>
      </trkpt>
      <trkpt lat="49.92632" lon="4.65487">
        <ele>129.8</ele>
        <time>2024-04-06T10:52:04Z</time>
      </trkpt>
      <trkpt lat="49.92636" lon="4.65495">
        <ele>129.6</ele>
        <time>2024-04-06T10:52:05Z</time>
      </trkpt>
      <trkpt lat="49.92641" lon="4.65504">
        <ele>129.4</ele>
        <time>2024-04-06T10:52:06Z</time>
      </trkpt>
      <trkpt lat="49.92645" lon="4.65512">
        <ele>129.4</ele>
        <time>2024-04-06T10:52:07Z</time>
      </trkpt>
      <trkpt lat="49.9265" lon="4.6552">
        <ele>129.6</ele>
        <time>2024-04-06T10:52:08Z</time>
      </trkpt>
      <trkpt lat="49.92655" lon="4.65529">
        <ele>129.6</ele>
        <time>2024-04-06T10:52:09Z</time>
      </trkpt>
      <trkpt lat="49.92659" lon="4.65537">
        <ele>129.4</ele>
        <time>2024-04-06T10:52:10Z</time>
      </trkpt>
      <trkpt lat="49.92664" lon="4.65545">
        <ele>129.6</ele>
        <time>2024-04-06T10:52:11Z</time>
      </trkpt>
      <trkpt lat="49.92669" lon="4.65553">
        <ele>129.4</ele>
        <time>2024-04-06T10:52:12Z</time>
      </trkpt>
      <trkpt lat="49.92674" lon="4.65561">
        <ele>129.6</ele>
        <time>2024-04-06T10:52:13Z</time>
      </trkpt>
      <trkpt lat="49.92678" lon="4.6557">
        <ele>129.4</ele>
        <time>2024-04-06T10:52:14Z</time>
      </trkpt>
      <trkpt lat="49.92683" lon="4.65578">
        <ele>129.6</ele>
        <time>2024-04-06T10:52:15Z</time>
      </trkpt>
      <trkpt lat="49.92688" lon="4.65586">
        <ele>129.6</ele>
        <time>2024-04-06T10:52:16Z</time>
      </trkpt>
      <trkpt lat="49.92693" lon="4.65594">
        <ele>129.8</ele>
        <time>2024-04-06T10:52:17Z</time>
      </trkpt>
      <trkpt lat="49.92699" lon="4.65602">
        <ele>129.6</ele>
        <time>2024-04-06T10:52:18Z</time>
      </trkpt>
      <trkpt lat="49.92704" lon="4.6561">
        <ele>129.8</ele>
        <time>2024-04-06T10:52:19Z</time>
      </trkpt>
      <trkpt lat="49.92709" lon="4.65618">
        <ele>129.8</ele>
        <time>2024-04-06T10:52:20Z</time>
      </trkpt>
      <trkpt lat="49.92715" lon="4.65625">
        <ele>129.8</ele>
        <time>2024-04-06T10:52:21Z</time>
      </trkpt>
      <trkpt lat="49.9272" lon="4.65633">
        <ele>129.6</ele>
        <time>2024-04-06T10:52:22Z</time>
      </trkpt>
      <trkpt lat="49.92726" lon="4.6564">
        <ele>129.6</ele>
        <time>2024-04-06T10:52:23Z</time>
      </trkpt>
      <trkpt lat="49.92731" lon="4.65647">
        <ele>129.8</ele>
        <time>2024-04-06T10:52:24Z</time>
      </trkpt>
      <trkpt lat="49.92737" lon="4.65653">
        <ele>129.8</ele>
        <time>2024-04-06T10:52:25Z</time>
      </trkpt>
      <trkpt lat="49.92742" lon="4.6566">
        <ele>129.8</ele>
        <time>2024-04-06T10:52:26Z</time>
      </trkpt>
      <trkpt lat="49.92747" lon="4.65667">
        <ele>129.8</ele>
        <time>2024-04-06T10:52:27Z</time>
      </trkpt>
      <trkpt lat="49.92753" lon="4.65674">
        <ele>129.8</ele>
        <time>2024-04-06T10:52:28Z</time>
      </trkpt>
      <trkpt lat="49.92758" lon="4.65681">
        <ele>129.6</ele>
        <time>2024-04-06T10:52:29Z</time>
      </trkpt>
      <trkpt lat="49.92764" lon="4.65689">
        <ele>129.4</ele>
        <time>2024-04-06T10:52:30Z</time>
      </trkpt>
      <trkpt lat="49.92769" lon="4.65696">
        <ele>129.2</ele>
        <time>2024-04-06T10:52:31Z</time>
      </trkpt>
      <trkpt lat="49.92774" lon="4.65703">
        <ele>129.2</ele>
        <time>2024-04-06T10:52:32Z</time>
      </trkpt>
      <trkpt lat="49.9278" lon="4.65711">
        <ele>129.2</ele>
        <time>2024-04-06T10:52:33Z</time>
      </trkpt>
      <trkpt lat="49.92785" lon="4.65719">
        <ele>129.2</ele>
        <time>2024-04-06T10:52:34Z</time>
      </trkpt>
      <trkpt lat="49.9279" lon="4.65727">
        <ele>129</ele>
        <time>2024-04-06T10:52:35Z</time>
      </trkpt>
      <trkpt lat="49.92796" lon="4.65735">
        <ele>129</ele>
        <time>2024-04-06T10:52:36Z</time>
      </trkpt>
      <trkpt lat="49.92801" lon="4.65743">
        <ele>129</ele>
        <time>2024-04-06T10:52:37Z</time>
      </trkpt>
      <trkpt lat="49.92806" lon="4.65752">
        <ele>128.8</ele>
        <time>2024-04-06T10:52:38Z</time>
      </trkpt>
      <trkpt lat="49.92812" lon="4.6576">
        <ele>128.8</ele>
        <time>2024-04-06T10:52:39Z</time>
      </trkpt>
      <trkpt lat="49.92817" lon="4.65768">
        <ele>128.8</ele>
        <time>2024-04-06T10:52:40Z</time>
      </trkpt>
      <trkpt lat="49.92822" lon="4.65776">
        <ele>128.8</ele>
        <time>2024-04-06T10:52:41Z</time>
      </trkpt>
      <trkpt lat="49.92827" lon="4.65785">
        <ele>128.8</ele>
        <time>2024-04-06T10:52:42Z</time>
      </trkpt>
      <trkpt lat="49.92833" lon="4.65793">
        <ele>128.6</ele>
        <time>2024-04-06T10:52:43Z</time>
      </trkpt>
      <trkpt lat="49.92838" lon="4.65802">
        <ele>128.6</ele>
        <time>2024-04-06T10:52:44Z</time>
      </trkpt>
      <trkpt lat="49.92843" lon="4.65811">
        <ele>128.4</ele>
        <time>2024-04-06T10:52:45Z</time>
      </trkpt>
      <trkpt lat="49.92847" lon="4.65821">
        <ele>128.6</ele>
        <time>2024-04-06T10:52:46Z</time>
      </trkpt>
      <trkpt lat="49.92852" lon="4.6583">
        <ele>128.4</ele>
        <time>2024-04-06T10:52:47Z</time>
      </trkpt>
      <trkpt lat="49.92856" lon="4.65839">
        <ele>128.4</ele>
        <time>2024-04-06T10:52:48Z</time>
      </trkpt>
      <trkpt lat="49.92861" lon="4.65849">
        <ele>128.4</ele>
        <time>2024-04-06T10:52:49Z</time>
      </trkpt>
      <trkpt lat="49.92865" lon="4.65858">
        <ele>128.4</ele>
        <time>2024-04-06T10:52:50Z</time>
      </trkpt>
      <trkpt lat="49.9287" lon="4.65867">
        <ele>128.4</ele>
        <time>2024-04-06T10:52:51Z</time>
      </trkpt>
      <trkpt lat="49.92874" lon="4.65876">
        <ele>128.2</ele>
        <time>2024-04-06T10:52:52Z</time>
      </trkpt>
      <trkpt lat="49.92879" lon="4.65885">
        <ele>128.2</ele>
        <time>2024-04-06T10:52:53Z</time>
      </trkpt>
      <trkpt lat="49.92883" lon="4.65894">
        <ele>128</ele>
        <time>2024-04-06T10:52:54Z</time>
      </trkpt>
      <trkpt lat="49.92888" lon="4.65903">
        <ele>128.2</ele>
        <time>2024-04-06T10:52:55Z</time>
      </trkpt>
      <trkpt lat="49.92892" lon="4.65911">
        <ele>128.2</ele>
        <time>2024-04-06T10:52:56Z</time>
      </trkpt>
      <trkpt lat="49.92897" lon="4.6592">
        <ele>128.2</ele>
        <time>2024-04-06T10:52:57Z</time>
      </trkpt>
      <trkpt lat="49.92901" lon="4.65929">
        <ele>128.2</ele>
        <time>2024-04-06T10:52:58Z</time>
      </trkpt>
      <trkpt lat="49.92906" lon="4.65938">
        <ele>128.2</ele>
        <time>2024-04-06T10:52:59Z</time>
      </trkpt>
      <trkpt lat="49.9291" lon="4.65947">
        <ele>128</ele>
        <time>2024-04-06T10:53:00Z</time>
      </trkpt>
      <trkpt lat="49.92914" lon="4.65956">
        <ele>128.2</ele>
        <time>2024-04-06T10:53:01Z</time>
      </trkpt>
      <trkpt lat="49.92919" lon="4.65965">
        <ele>128.2</ele>
        <time>2024-04-06T10:53:02Z</time>
      </trkpt>
      <trkpt lat="49.92923" lon="4.65974">
        <ele>128.2</ele>
        <time>2024-04-06T10:53:03Z</time>
      </trkpt>
      <trkpt lat="49.92928" lon="4.65983">
        <ele>128.4</ele>
        <time>2024-04-06T10:53:04Z</time>
      </trkpt>
      <trkpt lat="49.92932" lon="4.65992">
        <ele>128.4</ele>
        <time>2024-04-06T10:53:05Z</time>
      </trkpt>
      <trkpt lat="49.92936" lon="4.66001">
        <ele>128.2</ele>
        <time>2024-04-06T10:53:06Z</time>
      </trkpt>
      <trkpt lat="49.92941" lon="4.6601">
        <ele>128.4</ele>
        <time>2024-04-06T10:53:07Z</time>
      </trkpt>
      <trkpt lat="49.92945" lon="4.66019">
        <ele>128.4</ele>
        <time>2024-04-06T10:53:08Z</time>
      </trkpt>
      <trkpt lat="49.9295" lon="4.66029">
        <ele>128.2</ele>
        <time>2024-04-06T10:53:09Z</time>
      </trkpt>
      <trkpt lat="49.92954" lon="4.66038">
        <ele>128.4</ele>
        <time>2024-04-06T10:53:10Z</time>
      </trkpt>
      <trkpt lat="49.92959" lon="4.66047">
        <ele>128.4</ele>
        <time>2024-04-06T10:53:11Z</time>
      </trkpt>
      <trkpt lat="49.92963" lon="4.66057">
        <ele>128.4</ele>
        <time>2024-04-06T10:53:12Z</time>
      </trkpt>
      <trkpt lat="49.92968" lon="4.66065">
        <ele>128.4</ele>
        <time>2024-04-06T10:53:13Z</time>
      </trkpt>
      <trkpt lat="49.92972" lon="4.66075">
        <ele>128.2</ele>
        <time>2024-04-06T10:53:14Z</time>
      </trkpt>
      <trkpt lat="49.92976" lon="4.66084">
        <ele>128.4</ele>
        <time>2024-04-06T10:53:15Z</time>
      </trkpt>
      <trkpt lat="49.9298" lon="4.66094">
        <ele>128.4</ele>
        <time>2024-04-06T10:53:16Z</time>
      </trkpt>
      <trkpt lat="49.92984" lon="4.66103">
        <ele>128.4</ele>
        <time>2024-04-06T10:53:17Z</time>
      </trkpt>
      <trkpt lat="49.92988" lon="4.66112">
        <ele>128.4</ele>
        <time>2024-04-06T10:53:18Z</time>
      </trkpt>
      <trkpt lat="49.92992" lon="4.66122">
        <ele>128.2</ele>
        <time>2024-04-06T10:53:19Z</time>
      </trkpt>
      <trkpt lat="49.92996" lon="4.66131">
        <ele>128</ele>
        <time>2024-04-06T10:53:20Z</time>
      </trkpt>
      <trkpt lat="49.93" lon="4.66141">
        <ele>128</ele>
        <time>2024-04-06T10:53:21Z</time>
      </trkpt>
      <trkpt lat="49.93003" lon="4.66151">
        <ele>128</ele>
        <time>2024-04-06T10:53:22Z</time>
      </trkpt>
      <trkpt lat="49.93007" lon="4.6616">
        <ele>127.8</ele>
        <time>2024-04-06T10:53:23Z</time>
      </trkpt>
      <trkpt lat="49.93011" lon="4.6617">
        <ele>127.8</ele>
        <time>2024-04-06T10:53:24Z</time>
      </trkpt>
      <trkpt lat="49.93015" lon="4.66181">
        <ele>127.8</ele>
        <time>2024-04-06T10:53:25Z</time>
      </trkpt>
      <trkpt lat="49.93018" lon="4.66191">
        <ele>127.8</ele>
        <time>2024-04-06T10:53:26Z</time>
      </trkpt>
      <trkpt lat="49.93022" lon="4.66201">
        <ele>127.8</ele>
        <time>2024-04-06T10:53:27Z</time>
      </trkpt>
      <trkpt lat="49.93026" lon="4.66212">
        <ele>127.8</ele>
        <time>2024-04-06T10:53:28Z</time>
      </trkpt>
      <trkpt lat="49.9303" lon="4.66223">
        <ele>127.8</ele>
        <time>2024-04-06T10:53:29Z</time>
      </trkpt>
      <trkpt lat="49.93034" lon="4.66233">
        <ele>127.8</ele>
        <time>2024-04-06T10:53:30Z</time>
      </trkpt>
      <trkpt lat="49.93038" lon="4.66244">
        <ele>127.8</ele>
        <time>2024-04-06T10:53:31Z</time>
      </trkpt>
      <trkpt lat="49.93042" lon="4.66255">
        <ele>127.8</ele>
        <time>2024-04-06T10:53:32Z</time>
      </trkpt>
      <trkpt lat="49.93045" lon="4.66266">
        <ele>127.8</ele>
        <time>2024-04-06T10:53:33Z</time>
      </trkpt>
      <trkpt lat="49.93049" lon="4.66276">
        <ele>127.6</ele>
        <time>2024-04-06T10:53:34Z</time>
      </trkpt>
      <trkpt lat="49.93053" lon="4.66287">
        <ele>127.6</ele>
        <time>2024-04-06T10:53:35Z</time>
      </trkpt>
      <trkpt lat="49.93057" lon="4.66298">
        <ele>127.8</ele>
        <time>2024-04-06T10:53:36Z</time>
      </trkpt>
      <trkpt lat="49.93061" lon="4.66308">
        <ele>127.8</ele>
        <time>2024-04-06T10:53:37Z</time>
      </trkpt>
      <trkpt lat="49.93065" lon="4.66319">
        <ele>128</ele>
        <time>2024-04-06T10:53:38Z</time>
      </trkpt>
      <trkpt lat="49.93068" lon="4.6633">
        <ele>128</ele>
        <time>2024-04-06T10:53:39Z</time>
      </trkpt>
      <trkpt lat="49.93072" lon="4.66341">
        <ele>128.2</ele>
        <time>2024-04-06T10:53:40Z</time>
      </trkpt>
      <trkpt lat="49.93076" lon="4.66352">
        <ele>128</ele>
        <time>2024-04-06T10:53:41Z</time>
      </trkpt>
      <trkpt lat="49.9308" lon="4.66363">
        <ele>128</ele>
        <time>2024-04-06T10:53:42Z</time>
      </trkpt>
      <trkpt lat="49.93083" lon="4.66373">
        <ele>128.2</ele>
        <time>2024-04-06T10:53:43Z</time>
      </trkpt>
      <trkpt lat="49.93087" lon="4.66384">
        <ele>128</ele>
        <time>2024-04-06T10:53:44Z</time>
      </trkpt>
      <trkpt lat="49.93091" lon="4.66395">
        <ele>128.2</ele>
        <time>2024-04-06T10:53:45Z</time>
      </trkpt>
      <trkpt lat="49.93095" lon="4.66406">
        <ele>128</ele>
        <time>2024-04-06T10:53:46Z</time>
      </trkpt>
      <trkpt lat="49.93098" lon="4.66417">
        <ele>128.2</ele>
        <time>2024-04-06T10:53:47Z</time>
      </trkpt>
      <trkpt lat="49.93102" lon="4.66427">
        <ele>128.2</ele>
        <time>2024-04-06T10:53:48Z</time>
      </trkpt>
      <trkpt lat="49.93106" lon="4.66438">
        <ele>128.4</ele>
        <time>2024-04-06T10:53:49Z</time>
      </trkpt>
      <trkpt lat="49.93109" lon="4.6645">
        <ele>128.6</ele>
        <time>2024-04-06T10:53:50Z</time>
      </trkpt>
      <trkpt lat="49.93113" lon="4.66461">
        <ele>128.6</ele>
        <time>2024-04-06T10:53:51Z</time>
      </trkpt>
      <trkpt lat="49.93116" lon="4.66472">
        <ele>128.8</ele>
        <time>2024-04-06T10:53:52Z</time>
      </trkpt>
      <trkpt lat="49.93119" lon="4.66484">
        <ele>128.8</ele>
        <time>2024-04-06T10:53:53Z</time>
      </trkpt>
      <trkpt lat="49.93122" lon="4.66495">
        <ele>128.8</ele>
        <time>2024-04-06T10:53:54Z</time>
      </trkpt>
      <trkpt lat="49.93125" lon="4.66506">
        <ele>129</ele>
        <time>2024-04-06T10:53:55Z</time>
      </trkpt>
      <trkpt lat="49.93128" lon="4.66518">
        <ele>128.8</ele>
        <time>2024-04-06T10:53:56Z</time>
      </trkpt>
      <trkpt lat="49.93131" lon="4.66529">
        <ele>129</ele>
        <time>2024-04-06T10:53:57Z</time>
      </trkpt>
      <trkpt lat="49.93134" lon="4.66541">
        <ele>129</ele>
        <time>2024-04-06T10:53:58Z</time>
      </trkpt>
      <trkpt lat="49.93138" lon="4.66552">
        <ele>129</ele>
        <time>2024-04-06T10:53:59Z</time>
      </trkpt>
      <trkpt lat="49.93141" lon="4.66563">
        <ele>129.2</ele>
        <time>2024-04-06T10:54:00Z</time>
      </trkpt>
      <trkpt lat="49.93144" lon="4.66575">
        <ele>129</ele>
        <time>2024-04-06T10:54:01Z</time>
      </trkpt>
      <trkpt lat="49.93146" lon="4.66587">
        <ele>129</ele>
        <time>2024-04-06T10:54:02Z</time>
      </trkpt>
      <trkpt lat="49.93149" lon="4.66598">
        <ele>129.2</ele>
        <time>2024-04-06T10:54:03Z</time>
      </trkpt>
      <trkpt lat="49.93152" lon="4.66609">
        <ele>129.2</ele>
        <time>2024-04-06T10:54:04Z</time>
      </trkpt>
      <trkpt lat="49.93155" lon="4.66621">
        <ele>129.2</ele>
        <time>2024-04-06T10:54:05Z</time>
      </trkpt>
      <trkpt lat="49.93157" lon="4.66632">
        <ele>129.2</ele>
        <time>2024-04-06T10:54:06Z</time>
      </trkpt>
      <trkpt lat="49.9316" lon="4.66644">
        <ele>129.2</ele>
        <time>2024-04-06T10:54:07Z</time>
      </trkpt>
      <trkpt lat="49.93163" lon="4.66655">
        <ele>129</ele>
        <time>2024-04-06T10:54:08Z</time>
      </trkpt>
      <trkpt lat="49.93166" lon="4.66667">
        <ele>129</ele>
        <time>2024-04-06T10:54:09Z</time>
      </trkpt>
      <trkpt lat="49.93169" lon="4.66679">
        <ele>129</ele>
        <time>2024-04-06T10:54:10Z</time>
      </trkpt>
      <trkpt lat="49.93171" lon="4.66691">
        <ele>129</ele>
        <time>2024-04-06T10:54:11Z</time>
      </trkpt>
      <trkpt lat="49.93174" lon="4.66702">
        <ele>129</ele>
        <time>2024-04-06T10:54:12Z</time>
      </trkpt>
      <trkpt lat="49.93177" lon="4.66714">
        <ele>129</ele>
        <time>2024-04-06T10:54:13Z</time>
      </trkpt>
      <trkpt lat="49.93179" lon="4.66726">
        <ele>129.2</ele>
        <time>2024-04-06T10:54:14Z</time>
      </trkpt>
      <trkpt lat="49.93182" lon="4.66737">
        <ele>129.2</ele>
        <time>2024-04-06T10:54:15Z</time>
      </trkpt>
      <trkpt lat="49.93185" lon="4.66749">
        <ele>129.2</ele>
        <time>2024-04-06T10:54:16Z</time>
      </trkpt>
      <trkpt lat="49.93188" lon="4.66761">
        <ele>129</ele>
        <time>2024-04-06T10:54:17Z</time>
      </trkpt>
      <trkpt lat="49.9319" lon="4.66773">
        <ele>129</ele>
        <time>2024-04-06T10:54:18Z</time>
      </trkpt>
      <trkpt lat="49.93193" lon="4.66785">
        <ele>129</ele>
        <time>2024-04-06T10:54:19Z</time>
      </trkpt>
      <trkpt lat="49.93195" lon="4.66797">
        <ele>129</ele>
        <time>2024-04-06T10:54:20Z</time>
      </trkpt>
      <trkpt lat="49.93198" lon="4.66808">
        <ele>128.8</ele>
        <time>2024-04-06T10:54:21Z</time>
      </trkpt>
      <trkpt lat="49.93201" lon="4.6682">
        <ele>129</ele>
        <time>2024-04-06T10:54:22Z</time>
      </trkpt>
      <trkpt lat="49.93203" lon="4.66832">
        <ele>129</ele>
        <time>2024-04-06T10:54:23Z</time>
      </trkpt>
      <trkpt lat="49.93206" lon="4.66845">
        <ele>128.8</ele>
        <time>2024-04-06T10:54:24Z</time>
      </trkpt>
      <trkpt lat="49.93209" lon="4.66856">
        <ele>128.8</ele>
        <time>2024-04-06T10:54:25Z</time>
      </trkpt>
      <trkpt lat="49.93212" lon="4.66868">
        <ele>128.8</ele>
        <time>2024-04-06T10:54:26Z</time>
      </trkpt>
      <trkpt lat="49.93214" lon="4.6688">
        <ele>128.8</ele>
        <time>2024-04-06T10:54:27Z</time>
      </trkpt>
      <trkpt lat="49.93217" lon="4.66892">
        <ele>128.8</ele>
        <time>2024-04-06T10:54:28Z</time>
      </trkpt>
      <trkpt lat="49.9322" lon="4.66904">
        <ele>128.6</ele>
        <time>2024-04-06T10:54:29Z</time>
      </trkpt>
      <trkpt lat="49.93223" lon="4.66915">
        <ele>128.8</ele>
        <time>2024-04-06T10:54:30Z</time>
      </trkpt>
      <trkpt lat="49.93226" lon="4.66927">
        <ele>128.8</ele>
        <time>2024-04-06T10:54:31Z</time>
      </trkpt>
      <trkpt lat="49.93229" lon="4.66939">
        <ele>128.6</ele>
        <time>2024-04-06T10:54:32Z</time>
      </trkpt>
      <trkpt lat="49.93231" lon="4.66951">
        <ele>128.6</ele>
        <time>2024-04-06T10:54:33Z</time>
      </trkpt>
      <trkpt lat="49.93234" lon="4.66963">
        <ele>128.8</ele>
        <time>2024-04-06T10:54:34Z</time>
      </trkpt>
      <trkpt lat="49.93237" lon="4.66974">
        <ele>128.6</ele>
        <time>2024-04-06T10:54:35Z</time>
      </trkpt>
      <trkpt lat="49.9324" lon="4.66986">
        <ele>128.6</ele>
        <time>2024-04-06T10:54:36Z</time>
      </trkpt>
      <trkpt lat="49.93243" lon="4.66997">
        <ele>128.6</ele>
        <time>2024-04-06T10:54:37Z</time>
      </trkpt>
      <trkpt lat="49.93246" lon="4.67008">
        <ele>128.6</ele>
        <time>2024-04-06T10:54:38Z</time>
      </trkpt>
      <trkpt lat="49.93249" lon="4.67019">
        <ele>128.6</ele>
        <time>2024-04-06T10:54:39Z</time>
      </trkpt>
      <trkpt lat="49.93251" lon="4.6703">
        <ele>128.4</ele>
        <time>2024-04-06T10:54:40Z</time>
      </trkpt>
      <trkpt lat="49.93254" lon="4.67041">
        <ele>128.2</ele>
        <time>2024-04-06T10:54:41Z</time>
      </trkpt>
      <trkpt lat="49.93257" lon="4.67053">
        <ele>128.2</ele>
        <time>2024-04-06T10:54:42Z</time>
      </trkpt>
      <trkpt lat="49.93259" lon="4.67064">
        <ele>128</ele>
        <time>2024-04-06T10:54:43Z</time>
      </trkpt>
      <trkpt lat="49.93262" lon="4.67075">
        <ele>128</ele>
        <time>2024-04-06T10:54:44Z</time>
      </trkpt>
      <trkpt lat="49.93265" lon="4.67086">
        <ele>128</ele>
        <time>2024-04-06T10:54:45Z</time>
      </trkpt>
      <trkpt lat="49.93268" lon="4.67097">
        <ele>127.8</ele>
        <time>2024-04-06T10:54:46Z</time>
      </trkpt>
      <trkpt lat="49.9327" lon="4.67108">
        <ele>128</ele>
        <time>2024-04-06T10:54:47Z</time>
      </trkpt>
      <trkpt lat="49.93273" lon="4.67119">
        <ele>127.8</ele>
        <time>2024-04-06T10:54:48Z</time>
      </trkpt>
      <trkpt lat="49.93275" lon="4.6713">
        <ele>127.8</ele>
        <time>2024-04-06T10:54:49Z</time>
      </trkpt>
      <trkpt lat="49.93278" lon="4.67141">
        <ele>128.2</ele>
        <time>2024-04-06T10:54:50Z</time>
      </trkpt>
      <trkpt lat="49.9328" lon="4.67153">
        <ele>128</ele>
        <time>2024-04-06T10:54:51Z</time>
      </trkpt>
      <trkpt lat="49.93283" lon="4.67164">
        <ele>128.2</ele>
        <time>2024-04-06T10:54:52Z</time>
      </trkpt>
      <trkpt lat="49.93285" lon="4.67175">
        <ele>128.2</ele>
        <time>2024-04-06T10:54:53Z</time>
      </trkpt>
      <trkpt lat="49.93287" lon="4.67186">
        <ele>128.2</ele>
        <time>2024-04-06T10:54:54Z</time>
      </trkpt>
      <trkpt lat="49.93288" lon="4.67197">
        <ele>128.2</ele>
        <time>2024-04-06T10:54:55Z</time>
      </trkpt>
      <trkpt lat="49.9329" lon="4.67209">
        <ele>128.4</ele>
        <time>2024-04-06T10:54:56Z</time>
      </trkpt>
      <trkpt lat="49.93291" lon="4.6722">
        <ele>128.4</ele>
        <time>2024-04-06T10:54:57Z</time>
      </trkpt>
      <trkpt lat="49.93292" lon="4.67232">
        <ele>128.4</ele>
        <time>2024-04-06T10:54:58Z</time>
      </trkpt>
      <trkpt lat="49.93292" lon="4.67244">
        <ele>128.4</ele>
        <time>2024-04-06T10:54:59Z</time>
      </trkpt>
      <trkpt lat="49.93293" lon="4.67256">
        <ele>128.6</ele>
        <time>2024-04-06T10:55:00Z</time>
      </trkpt>
      <trkpt lat="49.93293" lon="4.67268">
        <ele>128.6</ele>
        <time>2024-04-06T10:55:01Z</time>
      </trkpt>
      <trkpt lat="49.93294" lon="4.6728">
        <ele>128.6</ele>
        <time>2024-04-06T10:55:02Z</time>
      </trkpt>
      <trkpt lat="49.93295" lon="4.67292">
        <ele>128.6</ele>
        <time>2024-04-06T10:55:03Z</time>
      </trkpt>
      <trkpt lat="49.93295" lon="4.67304">
        <ele>128.6</ele>
        <time>2024-04-06T10:55:04Z</time>
      </trkpt>
      <trkpt lat="49.93296" lon="4.67317">
        <ele>128.8</ele>
        <time>2024-04-06T10:55:05Z</time>
      </trkpt>
      <trkpt lat="49.93296" lon="4.67329">
        <ele>128.8</ele>
        <time>2024-04-06T10:55:06Z</time>
      </trkpt>
      <trkpt lat="49.93297" lon="4.67342">
        <ele>129</ele>
        <time>2024-04-06T10:55:07Z</time>
      </trkpt>
      <trkpt lat="49.93297" lon="4.67354">
        <ele>128.8</ele>
        <time>2024-04-06T10:55:08Z</time>
      </trkpt>
      <trkpt lat="49.93298" lon="4.67367">
        <ele>128.8</ele>
        <time>2024-04-06T10:55:09Z</time>
      </trkpt>
      <trkpt lat="49.93298" lon="4.67379">
        <ele>128.8</ele>
        <time>2024-04-06T10:55:10Z</time>
      </trkpt>
      <trkpt lat="49.93298" lon="4.67391">
        <ele>129</ele>
        <time>2024-04-06T10:55:11Z</time>
      </trkpt>
      <trkpt lat="49.93297" lon="4.67404">
        <ele>129</ele>
        <time>2024-04-06T10:55:12Z</time>
      </trkpt>
      <trkpt lat="49.93295" lon="4.67416">
        <ele>128.8</ele>
        <time>2024-04-06T10:55:13Z</time>
      </trkpt>
      <trkpt lat="49.93293" lon="4.67428">
        <ele>128.8</ele>
        <time>2024-04-06T10:55:14Z</time>
      </trkpt>
      <trkpt lat="49.93291" lon="4.67439">
        <ele>128.8</ele>
        <time>2024-04-06T10:55:15Z</time>
      </trkpt>
      <trkpt lat="49.93289" lon="4.67451">
        <ele>128.8</ele>
        <time>2024-04-06T10:55:16Z</time>
      </trkpt>
      <trkpt lat="49.93287" lon="4.67463">
        <ele>128.6</ele>
        <time>2024-04-06T10:55:17Z</time>
      </trkpt>
      <trkpt lat="49.93285" lon="4.67474">
        <ele>128.8</ele>
        <time>2024-04-06T10:55:18Z</time>
      </trkpt>
      <trkpt lat="49.93282" lon="4.67486">
        <ele>128.6</ele>
        <time>2024-04-06T10:55:19Z</time>
      </trkpt>
      <trkpt lat="49.9328" lon="4.67497">
        <ele>128.8</ele>
        <time>2024-04-06T10:55:20Z</time>
      </trkpt>
      <trkpt lat="49.93277" lon="4.67509">
        <ele>128.6</ele>
        <time>2024-04-06T10:55:21Z</time>
      </trkpt>
      <trkpt lat="49.93274" lon="4.6752">
        <ele>128.6</ele>
        <time>2024-04-06T10:55:22Z</time>
      </trkpt>
      <trkpt lat="49.93271" lon="4.67531">
        <ele>128.6</ele>
        <time>2024-04-06T10:55:23Z</time>
      </trkpt>
      <trkpt lat="49.93268" lon="4.67541">
        <ele>128.6</ele>
        <time>2024-04-06T10:55:24Z</time>
      </trkpt>
      <trkpt lat="49.93265" lon="4.67552">
        <ele>128.6</ele>
        <time>2024-04-06T10:55:25Z</time>
      </trkpt>
      <trkpt lat="49.93262" lon="4.67563">
        <ele>128.6</ele>
        <time>2024-04-06T10:55:26Z</time>
      </trkpt>
      <trkpt lat="49.93259" lon="4.67573">
        <ele>128.4</ele>
        <time>2024-04-06T10:55:27Z</time>
      </trkpt>
      <trkpt lat="49.93256" lon="4.67584">
        <ele>128.4</ele>
        <time>2024-04-06T10:55:28Z</time>
      </trkpt>
      <trkpt lat="49.93253" lon="4.67595">
        <ele>128.2</ele>
        <time>2024-04-06T10:55:29Z</time>
      </trkpt>
      <trkpt lat="49.9325" lon="4.67606">
        <ele>128.2</ele>
        <time>2024-04-06T10:55:30Z</time>
      </trkpt>
      <trkpt lat="49.93247" lon="4.67617">
        <ele>128.2</ele>
        <time>2024-04-06T10:55:31Z</time>
      </trkpt>
      <trkpt lat="49.93244" lon="4.67628">
        <ele>128</ele>
        <time>2024-04-06T10:55:32Z</time>
      </trkpt>
      <trkpt lat="49.93241" lon="4.67639">
        <ele>128</ele>
        <time>2024-04-06T10:55:33Z</time>
      </trkpt>
      <trkpt lat="49.93237" lon="4.67649">
        <ele>127.8</ele>
        <time>2024-04-06T10:55:34Z</time>
      </trkpt>
      <trkpt lat="49.93234" lon="4.6766">
        <ele>127.6</ele>
        <time>2024-04-06T10:55:35Z</time>
      </trkpt>
      <trkpt lat="49.9323" lon="4.6767">
        <ele>127.6</ele>
        <time>2024-04-06T10:55:36Z</time>
      </trkpt>
      <trkpt lat="49.93227" lon="4.6768">
        <ele>127.6</ele>
        <time>2024-04-06T10:55:37Z</time>
      </trkpt>
      <trkpt lat="49.93223" lon="4.6769">
        <ele>127.6</ele>
        <time>2024-04-06T10:55:38Z</time>
      </trkpt>
      <trkpt lat="49.93219" lon="4.677">
        <ele>127.6</ele>
        <time>2024-04-06T10:55:39Z</time>
      </trkpt>
      <trkpt lat="49.93215" lon="4.6771">
        <ele>127.4</ele>
        <time>2024-04-06T10:55:40Z</time>
      </trkpt>
      <trkpt lat="49.93211" lon="4.6772">
        <ele>127.6</ele>
        <time>2024-04-06T10:55:41Z</time>
      </trkpt>
      <trkpt lat="49.93206" lon="4.67729">
        <ele>127.6</ele>
        <time>2024-04-06T10:55:42Z</time>
      </trkpt>
      <trkpt lat="49.93201" lon="4.67738">
        <ele>127.4</ele>
        <time>2024-04-06T10:55:43Z</time>
      </trkpt>
      <trkpt lat="49.93195" lon="4.67747">
        <ele>127.6</ele>
        <time>2024-04-06T10:55:44Z</time>
      </trkpt>
      <trkpt lat="49.9319" lon="4.67756">
        <ele>127.6</ele>
        <time>2024-04-06T10:55:45Z</time>
      </trkpt>
      <trkpt lat="49.93184" lon="4.67764">
        <ele>127.6</ele>
        <time>2024-04-06T10:55:46Z</time>
      </trkpt>
      <trkpt lat="49.93177" lon="4.67771">
        <ele>127.8</ele>
        <time>2024-04-06T10:55:47Z</time>
      </trkpt>
      <trkpt lat="49.93171" lon="4.67779">
        <ele>127.8</ele>
        <time>2024-04-06T10:55:48Z</time>
      </trkpt>
      <trkpt lat="49.93164" lon="4.67787">
        <ele>127.8</ele>
        <time>2024-04-06T10:55:49Z</time>
      </trkpt>
      <trkpt lat="49.93158" lon="4.67794">
        <ele>127.8</ele>
        <time>2024-04-06T10:55:50Z</time>
      </trkpt>
      <trkpt lat="49.93151" lon="4.67801">
        <ele>127.6</ele>
        <time>2024-04-06T10:55:51Z</time>
      </trkpt>
      <trkpt lat="49.93145" lon="4.67807">
        <ele>127.6</ele>
        <time>2024-04-06T10:55:52Z</time>
      </trkpt>
      <trkpt lat="49.93138" lon="4.67813">
        <ele>127.8</ele>
        <time>2024-04-06T10:55:53Z</time>
      </trkpt>
      <trkpt lat="49.93131" lon="4.67819">
        <ele>127.8</ele>
        <time>2024-04-06T10:55:54Z</time>
      </trkpt>
      <trkpt lat="49.93124" lon="4.67825">
        <ele>127.8</ele>
        <time>2024-04-06T10:55:55Z</time>
      </trkpt>
      <trkpt lat="49.93118" lon="4.6783">
        <ele>127.6</ele>
        <time>2024-04-06T10:55:56Z</time>
      </trkpt>
      <trkpt lat="49.93111" lon="4.67835">
        <ele>127.8</ele>
        <time>2024-04-06T10:55:57Z</time>
      </trkpt>
      <trkpt lat="49.93104" lon="4.6784">
        <ele>127.8</ele>
        <time>2024-04-06T10:55:58Z</time>
      </trkpt>
      <trkpt lat="49.93097" lon="4.67844">
        <ele>127.8</ele>
        <time>2024-04-06T10:55:59Z</time>
      </trkpt>
      <trkpt lat="49.9309" lon="4.67848">
        <ele>127.8</ele>
        <time>2024-04-06T10:56:00Z</time>
      </trkpt>
      <trkpt lat="49.93083" lon="4.67852">
        <ele>127.6</ele>
        <time>2024-04-06T10:56:01Z</time>
      </trkpt>
      <trkpt lat="49.93075" lon="4.67856">
        <ele>127.8</ele>
        <time>2024-04-06T10:56:02Z</time>
      </trkpt>
      <trkpt lat="49.93068" lon="4.6786">
        <ele>127.8</ele>
        <time>2024-04-06T10:56:03Z</time>
      </trkpt>
      <trkpt lat="49.93061" lon="4.67864">
        <ele>127.6</ele>
        <time>2024-04-06T10:56:04Z</time>
      </trkpt>
      <trkpt lat="49.93054" lon="4.67868">
        <ele>127.8</ele>
        <time>2024-04-06T10:56:05Z</time>
      </trkpt>
      <trkpt lat="49.93046" lon="4.67873">
        <ele>127.8</ele>
        <time>2024-04-06T10:56:06Z</time>
      </trkpt>
      <trkpt lat="49.93039" lon="4.67877">
        <ele>127.8</ele>
        <time>2024-04-06T10:56:07Z</time>
      </trkpt>
      <trkpt lat="49.93032" lon="4.67881">
        <ele>127.8</ele>
        <time>2024-04-06T10:56:08Z</time>
      </trkpt>
      <trkpt lat="49.93025" lon="4.67886">
        <ele>127.8</ele>
        <time>2024-04-06T10:56:09Z</time>
      </trkpt>
      <trkpt lat="49.93017" lon="4.6789">
        <ele>128</ele>
        <time>2024-04-06T10:56:10Z</time>
      </trkpt>
      <trkpt lat="49.9301" lon="4.67894">
        <ele>128</ele>
        <time>2024-04-06T10:56:11Z</time>
      </trkpt>
      <trkpt lat="49.93003" lon="4.67898">
        <ele>128.2</ele>
        <time>2024-04-06T10:56:12Z</time>
      </trkpt>
      <trkpt lat="49.92996" lon="4.67902">
        <ele>128.2</ele>
        <time>2024-04-06T10:56:13Z</time>
      </trkpt>
      <trkpt lat="49.92989" lon="4.67906">
        <ele>128.2</ele>
        <time>2024-04-06T10:56:14Z</time>
      </trkpt>
      <trkpt lat="49.92982" lon="4.6791">
        <ele>128.2</ele>
        <time>2024-04-06T10:56:15Z</time>
      </trkpt>
      <trkpt lat="49.92974" lon="4.67914">
        <ele>128.4</ele>
        <time>2024-04-06T10:56:16Z</time>
      </trkpt>
      <trkpt lat="49.92967" lon="4.67918">
        <ele>128.4</ele>
        <time>2024-04-06T10:56:17Z</time>
      </trkpt>
      <trkpt lat="49.9296" lon="4.67921">
        <ele>128.4</ele>
        <time>2024-04-06T10:56:18Z</time>
      </trkpt>
      <trkpt lat="49.92953" lon="4.67924">
        <ele>128.2</ele>
        <time>2024-04-06T10:56:19Z</time>
      </trkpt>
      <trkpt lat="49.92946" lon="4.67928">
        <ele>128.2</ele>
        <time>2024-04-06T10:56:20Z</time>
      </trkpt>
      <trkpt lat="49.92939" lon="4.6793">
        <ele>128.2</ele>
        <time>2024-04-06T10:56:21Z</time>
      </trkpt>
      <trkpt lat="49.92932" lon="4.67933">
        <ele>128.2</ele>
        <time>2024-04-06T10:56:22Z</time>
      </trkpt>
      <trkpt lat="49.92925" lon="4.67936">
        <ele>128.2</ele>
        <time>2024-04-06T10:56:23Z</time>
      </trkpt>
      <trkpt lat="49.92918" lon="4.67939">
        <ele>128.2</ele>
        <time>2024-04-06T10:56:24Z</time>
      </trkpt>
      <trkpt lat="49.92911" lon="4.67941">
        <ele>128</ele>
        <time>2024-04-06T10:56:25Z</time>
      </trkpt>
      <trkpt lat="49.92904" lon="4.67943">
        <ele>128</ele>
        <time>2024-04-06T10:56:26Z</time>
      </trkpt>
      <trkpt lat="49.92896" lon="4.67945">
        <ele>127.8</ele>
        <time>2024-04-06T10:56:27Z</time>
      </trkpt>
      <trkpt lat="49.92889" lon="4.67946">
        <ele>127.8</ele>
        <time>2024-04-06T10:56:28Z</time>
      </trkpt>
      <trkpt lat="49.92882" lon="4.67947">
        <ele>127.8</ele>
        <time>2024-04-06T10:56:29Z</time>
      </trkpt>
      <trkpt lat="49.92875" lon="4.67949">
        <ele>127.6</ele>
        <time>2024-04-06T10:56:30Z</time>
      </trkpt>
      <trkpt lat="49.92868" lon="4.6795">
        <ele>127.8</ele>
        <time>2024-04-06T10:56:31Z</time>
      </trkpt>
      <trkpt lat="49.92862" lon="4.67951">
        <ele>127.6</ele>
        <time>2024-04-06T10:56:32Z</time>
      </trkpt>
      <trkpt lat="49.92855" lon="4.67951">
        <ele>127.6</ele>
        <time>2024-04-06T10:56:33Z</time>
      </trkpt>
      <trkpt lat="49.92847" lon="4.67952">
        <ele>127.8</ele>
        <time>2024-04-06T10:56:34Z</time>
      </trkpt>
      <trkpt lat="49.9284" lon="4.67952">
        <ele>127.8</ele>
        <time>2024-04-06T10:56:35Z</time>
      </trkpt>
      <trkpt lat="49.92833" lon="4.67953">
        <ele>128</ele>
        <time>2024-04-06T10:56:36Z</time>
      </trkpt>
      <trkpt lat="49.92826" lon="4.67953">
        <ele>127.8</ele>
        <time>2024-04-06T10:56:37Z</time>
      </trkpt>
      <trkpt lat="49.92819" lon="4.67953">
        <ele>128.4</ele>
        <time>2024-04-06T10:56:38Z</time>
      </trkpt>
      <trkpt lat="49.92812" lon="4.67952">
        <ele>128.6</ele>
        <time>2024-04-06T10:56:39Z</time>
      </trkpt>
      <trkpt lat="49.92805" lon="4.67952">
        <ele>128.8</ele>
        <time>2024-04-06T10:56:40Z</time>
      </trkpt>
      <trkpt lat="49.92798" lon="4.67951">
        <ele>128.8</ele>
        <time>2024-04-06T10:56:41Z</time>
      </trkpt>
      <trkpt lat="49.9279" lon="4.67951">
        <ele>128.8</ele>
        <time>2024-04-06T10:56:42Z</time>
      </trkpt>
      <trkpt lat="49.92783" lon="4.6795">
        <ele>128.8</ele>
        <time>2024-04-06T10:56:43Z</time>
      </trkpt>
      <trkpt lat="49.92776" lon="4.67949">
        <ele>128.8</ele>
        <time>2024-04-06T10:56:44Z</time>
      </trkpt>
      <trkpt lat="49.92769" lon="4.67949">
        <ele>128.8</ele>
        <time>2024-04-06T10:56:45Z</time>
      </trkpt>
      <trkpt lat="49.92762" lon="4.67948">
        <ele>129</ele>
        <time>2024-04-06T10:56:46Z</time>
      </trkpt>
      <trkpt lat="49.92755" lon="4.67948">
        <ele>128.8</ele>
        <time>2024-04-06T10:56:47Z</time>
      </trkpt>
      <trkpt lat="49.92748" lon="4.67947">
        <ele>129</ele>
        <time>2024-04-06T10:56:48Z</time>
      </trkpt>
      <trkpt lat="49.92741" lon="4.67946">
        <ele>129</ele>
        <time>2024-04-06T10:56:49Z</time>
      </trkpt>
      <trkpt lat="49.92734" lon="4.67946">
        <ele>129</ele>
        <time>2024-04-06T10:56:50Z</time>
      </trkpt>
      <trkpt lat="49.92727" lon="4.67945">
        <ele>128.8</ele>
        <time>2024-04-06T10:56:51Z</time>
      </trkpt>
      <trkpt lat="49.9272" lon="4.67944">
        <ele>128.6</ele>
        <time>2024-04-06T10:56:52Z</time>
      </trkpt>
      <trkpt lat="49.92713" lon="4.67944">
        <ele>128.4</ele>
        <time>2024-04-06T10:56:53Z</time>
      </trkpt>
      <trkpt lat="49.92707" lon="4.67943">
        <ele>128.4</ele>
        <time>2024-04-06T10:56:54Z</time>
      </trkpt>
      <trkpt lat="49.927" lon="4.67942">
        <ele>128.2</ele>
        <time>2024-04-06T10:56:55Z</time>
      </trkpt>
      <trkpt lat="49.92693" lon="4.67941">
        <ele>128.2</ele>
        <time>2024-04-06T10:56:56Z</time>
      </trkpt>
      <trkpt lat="49.92686" lon="4.67939">
        <ele>128</ele>
        <time>2024-04-06T10:56:57Z</time>
      </trkpt>
      <trkpt lat="49.9268" lon="4.67938">
        <ele>128.2</ele>
        <time>2024-04-06T10:56:58Z</time>
      </trkpt>
      <trkpt lat="49.92673" lon="4.67936">
        <ele>128</ele>
        <time>2024-04-06T10:56:59Z</time>
      </trkpt>
      <trkpt lat="49.92667" lon="4.67935">
        <ele>128</ele>
        <time>2024-04-06T10:57:00Z</time>
      </trkpt>
      <trkpt lat="49.9266" lon="4.67933">
        <ele>128</ele>
        <time>2024-04-06T10:57:01Z</time>
      </trkpt>
      <trkpt lat="49.92653" lon="4.67932">
        <ele>128.2</ele>
        <time>2024-04-06T10:57:02Z</time>
      </trkpt>
      <trkpt lat="49.92646" lon="4.67929">
        <ele>128.4</ele>
        <time>2024-04-06T10:57:03Z</time>
      </trkpt>
      <trkpt lat="49.9264" lon="4.67927">
        <ele>128.4</ele>
        <time>2024-04-06T10:57:04Z</time>
      </trkpt>
      <trkpt lat="49.92633" lon="4.67925">
        <ele>128.4</ele>
        <time>2024-04-06T10:57:05Z</time>
      </trkpt>
      <trkpt lat="49.92626" lon="4.67922">
        <ele>128.4</ele>
        <time>2024-04-06T10:57:06Z</time>
      </trkpt>
      <trkpt lat="49.92619" lon="4.67919">
        <ele>128.6</ele>
        <time>2024-04-06T10:57:07Z</time>
      </trkpt>
      <trkpt lat="49.92613" lon="4.67916">
        <ele>128.4</ele>
        <time>2024-04-06T10:57:08Z</time>
      </trkpt>
      <trkpt lat="49.92606" lon="4.67913">
        <ele>128.4</ele>
        <time>2024-04-06T10:57:09Z</time>
      </trkpt>
      <trkpt lat="49.92599" lon="4.6791">
        <ele>128.8</ele>
        <time>2024-04-06T10:57:10Z</time>
      </trkpt>
      <trkpt lat="49.92593" lon="4.67907">
        <ele>128.8</ele>
        <time>2024-04-06T10:57:11Z</time>
      </trkpt>
      <trkpt lat="49.92586" lon="4.67903">
        <ele>128.8</ele>
        <time>2024-04-06T10:57:12Z</time>
      </trkpt>
      <trkpt lat="49.92579" lon="4.67899">
        <ele>128.8</ele>
        <time>2024-04-06T10:57:13Z</time>
      </trkpt>
      <trkpt lat="49.92573" lon="4.67896">
        <ele>129</ele>
        <time>2024-04-06T10:57:14Z</time>
      </trkpt>
      <trkpt lat="49.92566" lon="4.67893">
        <ele>129</ele>
        <time>2024-04-06T10:57:15Z</time>
      </trkpt>
      <trkpt lat="49.92559" lon="4.67889">
        <ele>128.8</ele>
        <time>2024-04-06T10:57:16Z</time>
      </trkpt>
      <trkpt lat="49.92553" lon="4.67885">
        <ele>129</ele>
        <time>2024-04-06T10:57:17Z</time>
      </trkpt>
      <trkpt lat="49.92547" lon="4.67882">
        <ele>128.8</ele>
        <time>2024-04-06T10:57:18Z</time>
      </trkpt>
      <trkpt lat="49.9254" lon="4.67878">
        <ele>128.8</ele>
        <time>2024-04-06T10:57:19Z</time>
      </trkpt>
      <trkpt lat="49.92535" lon="4.67875">
        <ele>128.8</ele>
        <time>2024-04-06T10:57:20Z</time>
      </trkpt>
      <trkpt lat="49.92529" lon="4.67871">
        <ele>128.8</ele>
        <time>2024-04-06T10:57:21Z</time>
      </trkpt>
      <trkpt lat="49.92523" lon="4.67867">
        <ele>128.8</ele>
        <time>2024-04-06T10:57:22Z</time>
      </trkpt>
      <trkpt lat="49.92516" lon="4.67864">
        <ele>128.6</ele>
        <time>2024-04-06T10:57:23Z</time>
      </trkpt>
      <trkpt lat="49.92509" lon="4.6786">
        <ele>128.6</ele>
        <time>2024-04-06T10:57:24Z</time>
      </trkpt>
      <trkpt lat="49.92503" lon="4.67858">
        <ele>128.6</ele>
        <time>2024-04-06T10:57:25Z</time>
      </trkpt>
      <trkpt lat="49.92496" lon="4.67855">
        <ele>128.6</ele>
        <time>2024-04-06T10:57:26Z</time>
      </trkpt>
      <trkpt lat="49.92489" lon="4.67851">
        <ele>128.6</ele>
        <time>2024-04-06T10:57:27Z</time>
      </trkpt>
      <trkpt lat="49.92483" lon="4.67847">
        <ele>128.6</ele>
        <time>2024-04-06T10:57:28Z</time>
      </trkpt>
      <trkpt lat="49.92476" lon="4.67844">
        <ele>128.6</ele>
        <time>2024-04-06T10:57:29Z</time>
      </trkpt>
      <trkpt lat="49.9247" lon="4.6784">
        <ele>128.6</ele>
        <time>2024-04-06T10:57:30Z</time>
      </trkpt>
      <trkpt lat="49.92463" lon="4.67837">
        <ele>128.6</ele>
        <time>2024-04-06T10:57:31Z</time>
      </trkpt>
      <trkpt lat="49.92457" lon="4.67833">
        <ele>128.6</ele>
        <time>2024-04-06T10:57:32Z</time>
      </trkpt>
      <trkpt lat="49.9245" lon="4.6783">
        <ele>128.6</ele>
        <time>2024-04-06T10:57:33Z</time>
      </trkpt>
      <trkpt lat="49.92444" lon="4.67826">
        <ele>128.6</ele>
        <time>2024-04-06T10:57:34Z</time>
      </trkpt>
      <trkpt lat="49.92437" lon="4.67823">
        <ele>128.6</ele>
        <time>2024-04-06T10:57:35Z</time>
      </trkpt>
      <trkpt lat="49.9243" lon="4.67819">
        <ele>128.8</ele>
        <time>2024-04-06T10:57:36Z</time>
      </trkpt>
      <trkpt lat="49.92423" lon="4.67814">
        <ele>128.6</ele>
        <time>2024-04-06T10:57:37Z</time>
      </trkpt>
      <trkpt lat="49.92417" lon="4.67811">
        <ele>128.6</ele>
        <time>2024-04-06T10:57:38Z</time>
      </trkpt>
      <trkpt lat="49.9241" lon="4.67807">
        <ele>128.8</ele>
        <time>2024-04-06T10:57:39Z</time>
      </trkpt>
      <trkpt lat="49.92403" lon="4.67803">
        <ele>129</ele>
        <time>2024-04-06T10:57:40Z</time>
      </trkpt>
      <trkpt lat="49.92397" lon="4.678">
        <ele>128.8</ele>
        <time>2024-04-06T10:57:41Z</time>
      </trkpt>
      <trkpt lat="49.9239" lon="4.67796">
        <ele>129</ele>
        <time>2024-04-06T10:57:42Z</time>
      </trkpt>
      <trkpt lat="49.92384" lon="4.67793">
        <ele>129</ele>
        <time>2024-04-06T10:57:43Z</time>
      </trkpt>
      <trkpt lat="49.92377" lon="4.6779">
        <ele>129</ele>
        <time>2024-04-06T10:57:44Z</time>
      </trkpt>
      <trkpt lat="49.92371" lon="4.67787">
        <ele>129</ele>
        <time>2024-04-06T10:57:45Z</time>
      </trkpt>
      <trkpt lat="49.92365" lon="4.67784">
        <ele>129.2</ele>
        <time>2024-04-06T10:57:46Z</time>
      </trkpt>
      <trkpt lat="49.92358" lon="4.6778">
        <ele>129.2</ele>
        <time>2024-04-06T10:57:47Z</time>
      </trkpt>
      <trkpt lat="49.92352" lon="4.67776">
        <ele>129.2</ele>
        <time>2024-04-06T10:57:48Z</time>
      </trkpt>
      <trkpt lat="49.92346" lon="4.67772">
        <ele>129.2</ele>
        <time>2024-04-06T10:57:49Z</time>
      </trkpt>
      <trkpt lat="49.9234" lon="4.67768">
        <ele>129.2</ele>
        <time>2024-04-06T10:57:50Z</time>
      </trkpt>
      <trkpt lat="49.92333" lon="4.67764">
        <ele>129.2</ele>
        <time>2024-04-06T10:57:51Z</time>
      </trkpt>
      <trkpt lat="49.92327" lon="4.6776">
        <ele>129.2</ele>
        <time>2024-04-06T10:57:52Z</time>
      </trkpt>
      <trkpt lat="49.92321" lon="4.67756">
        <ele>129.2</ele>
        <time>2024-04-06T10:57:53Z</time>
      </trkpt>
      <trkpt lat="49.92315" lon="4.67753">
        <ele>129.2</ele>
        <time>2024-04-06T10:57:54Z</time>
      </trkpt>
      <trkpt lat="49.92309" lon="4.67749">
        <ele>129.2</ele>
        <time>2024-04-06T10:57:55Z</time>
      </trkpt>
      <trkpt lat="49.92303" lon="4.67745">
        <ele>129</ele>
        <time>2024-04-06T10:57:56Z</time>
      </trkpt>
      <trkpt lat="49.92297" lon="4.67742">
        <ele>129</ele>
        <time>2024-04-06T10:57:57Z</time>
      </trkpt>
      <trkpt lat="49.92291" lon="4.67738">
        <ele>129</ele>
        <time>2024-04-06T10:57:58Z</time>
      </trkpt>
      <trkpt lat="49.92285" lon="4.67735">
        <ele>129</ele>
        <time>2024-04-06T10:57:59Z</time>
      </trkpt>
      <trkpt lat="49.92279" lon="4.67732">
        <ele>129</ele>
        <time>2024-04-06T10:58:00Z</time>
      </trkpt>
      <trkpt lat="49.92273" lon="4.67728">
        <ele>128.8</ele>
        <time>2024-04-06T10:58:01Z</time>
      </trkpt>
      <trkpt lat="49.92266" lon="4.67725">
        <ele>128.8</ele>
        <time>2024-04-06T10:58:02Z</time>
      </trkpt>
      <trkpt lat="49.9226" lon="4.67721">
        <ele>128.6</ele>
        <time>2024-04-06T10:58:03Z</time>
      </trkpt>
      <trkpt lat="49.92254" lon="4.67718">
        <ele>128.8</ele>
        <time>2024-04-06T10:58:04Z</time>
      </trkpt>
      <trkpt lat="49.92248" lon="4.67714">
        <ele>128.6</ele>
        <time>2024-04-06T10:58:05Z</time>
      </trkpt>
      <trkpt lat="49.92242" lon="4.67711">
        <ele>128.4</ele>
        <time>2024-04-06T10:58:06Z</time>
      </trkpt>
      <trkpt lat="49.92236" lon="4.67708">
        <ele>128.4</ele>
        <time>2024-04-06T10:58:07Z</time>
      </trkpt>
      <trkpt lat="49.9223" lon="4.67704">
        <ele>128.4</ele>
        <time>2024-04-06T10:58:08Z</time>
      </trkpt>
      <trkpt lat="49.92224" lon="4.67701">
        <ele>128.6</ele>
        <time>2024-04-06T10:58:09Z</time>
      </trkpt>
      <trkpt lat="49.92218" lon="4.67698">
        <ele>128.6</ele>
        <time>2024-04-06T10:58:10Z</time>
      </trkpt>
      <trkpt lat="49.92212" lon="4.67694">
        <ele>128.6</ele>
        <time>2024-04-06T10:58:11Z</time>
      </trkpt>
      <trkpt lat="49.92207" lon="4.67691">
        <ele>128.6</ele>
        <time>2024-04-06T10:58:12Z</time>
      </trkpt>
      <trkpt lat="49.92201" lon="4.67688">
        <ele>128.8</ele>
        <time>2024-04-06T10:58:13Z</time>
      </trkpt>
      <trkpt lat="49.92196" lon="4.67686">
        <ele>128.8</ele>
        <time>2024-04-06T10:58:14Z</time>
      </trkpt>
      <trkpt lat="49.92191" lon="4.67683">
        <ele>128.8</ele>
        <time>2024-04-06T10:58:15Z</time>
      </trkpt>
      <trkpt lat="49.92186" lon="4.67681">
        <ele>129</ele>
        <time>2024-04-06T10:58:16Z</time>
      </trkpt>
      <trkpt lat="49.92181" lon="4.6768">
        <ele>129</ele>
        <time>2024-04-06T10:58:17Z</time>
      </trkpt>
      <trkpt lat="49.92177" lon="4.6768">
        <ele>129</ele>
        <time>2024-04-06T10:58:18Z</time>
      </trkpt>
      <trkpt lat="49.92172" lon="4.67681">
        <ele>129</ele>
        <time>2024-04-06T10:58:19Z</time>
      </trkpt>
      <trkpt lat="49.92167" lon="4.67682">
        <ele>129</ele>
        <time>2024-04-06T10:58:20Z</time>
      </trkpt>
      <trkpt lat="49.92163" lon="4.67681">
        <ele>129.2</ele>
        <time>2024-04-06T10:58:21Z</time>
      </trkpt>
      <trkpt lat="49.92158" lon="4.67681">
        <ele>129.2</ele>
        <time>2024-04-06T10:58:22Z</time>
      </trkpt>
      <trkpt lat="49.92153" lon="4.6768">
        <ele>129.4</ele>
        <time>2024-04-06T10:58:23Z</time>
      </trkpt>
      <trkpt lat="49.92149" lon="4.67679">
        <ele>129.6</ele>
        <time>2024-04-06T10:58:24Z</time>
      </trkpt>
      <trkpt lat="49.92144" lon="4.67678">
        <ele>129.6</ele>
        <time>2024-04-06T10:58:25Z</time>
      </trkpt>
      <trkpt lat="49.9214" lon="4.67677">
        <ele>129.8</ele>
        <time>2024-04-06T10:58:26Z</time>
      </trkpt>
      <trkpt lat="49.92135" lon="4.67676">
        <ele>130</ele>
        <time>2024-04-06T10:58:27Z</time>
      </trkpt>
      <trkpt lat="49.9213" lon="4.67675">
        <ele>130</ele>
        <time>2024-04-06T10:58:28Z</time>
      </trkpt>
      <trkpt lat="49.92125" lon="4.67673">
        <ele>130</ele>
        <time>2024-04-06T10:58:29Z</time>
      </trkpt>
      <trkpt lat="49.92121" lon="4.67671">
        <ele>130.4</ele>
        <time>2024-04-06T10:58:30Z</time>
      </trkpt>
      <trkpt lat="49.92118" lon="4.67669">
        <ele>130.4</ele>
        <time>2024-04-06T10:58:31Z</time>
      </trkpt>
      <trkpt lat="49.92115" lon="4.67665">
        <ele>130.4</ele>
        <time>2024-04-06T10:58:32Z</time>
      </trkpt>
      <trkpt lat="49.92112" lon="4.67662">
        <ele>130.6</ele>
        <time>2024-04-06T10:58:33Z</time>
      </trkpt>
      <trkpt lat="49.92109" lon="4.67658">
        <ele>130.6</ele>
        <time>2024-04-06T10:58:34Z</time>
      </trkpt>
      <trkpt lat="49.92106" lon="4.67656">
        <ele>130.8</ele>
        <time>2024-04-06T10:58:35Z</time>
      </trkpt>
      <trkpt lat="49.92103" lon="4.67655">
        <ele>131</ele>
        <time>2024-04-06T10:58:36Z</time>
      </trkpt>
      <trkpt lat="49.92099" lon="4.67654">
        <ele>131</ele>
        <time>2024-04-06T10:58:37Z</time>
      </trkpt>
      <trkpt lat="49.92095" lon="4.67654">
        <ele>131.2</ele>
        <time>2024-04-06T10:58:38Z</time>
      </trkpt>
      <trkpt lat="49.9209" lon="4.67653">
        <ele>131.4</ele>
        <time>2024-04-06T10:58:39Z</time>
      </trkpt>
      <trkpt lat="49.92084" lon="4.67652">
        <ele>131.4</ele>
        <time>2024-04-06T10:58:40Z</time>
      </trkpt>
      <trkpt lat="49.92078" lon="4.6765">
        <ele>131.4</ele>
        <time>2024-04-06T10:58:41Z</time>
      </trkpt>
      <trkpt lat="49.92072" lon="4.67649">
        <ele>131.4</ele>
        <time>2024-04-06T10:58:42Z</time>
      </trkpt>
      <trkpt lat="49.92066" lon="4.67647">
        <ele>131.4</ele>
        <time>2024-04-06T10:58:43Z</time>
      </trkpt>
      <trkpt lat="49.92059" lon="4.67645">
        <ele>131.4</ele>
        <time>2024-04-06T10:58:44Z</time>
      </trkpt>
      <trkpt lat="49.92053" lon="4.67643">
        <ele>131.4</ele>
        <time>2024-04-06T10:58:45Z</time>
      </trkpt>
      <trkpt lat="49.92047" lon="4.6764">
        <ele>131.4</ele>
        <time>2024-04-06T10:58:46Z</time>
      </trkpt>
      <trkpt lat="49.92041" lon="4.67638">
        <ele>131.4</ele>
        <time>2024-04-06T10:58:47Z</time>
      </trkpt>
      <trkpt lat="49.92034" lon="4.67637">
        <ele>131.4</ele>
        <time>2024-04-06T10:58:48Z</time>
      </trkpt>
      <trkpt lat="49.92028" lon="4.67635">
        <ele>131.2</ele>
        <time>2024-04-06T10:58:49Z</time>
      </trkpt>
      <trkpt lat="49.92022" lon="4.67633">
        <ele>131.2</ele>
        <time>2024-04-06T10:58:50Z</time>
      </trkpt>
      <trkpt lat="49.92016" lon="4.67632">
        <ele>131.2</ele>
        <time>2024-04-06T10:58:51Z</time>
      </trkpt>
      <trkpt lat="49.92011" lon="4.6763">
        <ele>131.2</ele>
        <time>2024-04-06T10:58:52Z</time>
      </trkpt>
      <trkpt lat="49.92005" lon="4.67628">
        <ele>131.2</ele>
        <time>2024-04-06T10:58:53Z</time>
      </trkpt>
      <trkpt lat="49.91999" lon="4.67626">
        <ele>131.4</ele>
        <time>2024-04-06T10:58:54Z</time>
      </trkpt>
      <trkpt lat="49.91993" lon="4.67625">
        <ele>131.2</ele>
        <time>2024-04-06T10:58:55Z</time>
      </trkpt>
      <trkpt lat="49.91987" lon="4.67623">
        <ele>131.2</ele>
        <time>2024-04-06T10:58:56Z</time>
      </trkpt>
      <trkpt lat="49.91981" lon="4.67622">
        <ele>131.2</ele>
        <time>2024-04-06T10:58:57Z</time>
      </trkpt>
      <trkpt lat="49.91975" lon="4.6762">
        <ele>131.2</ele>
        <time>2024-04-06T10:58:58Z</time>
      </trkpt>
      <trkpt lat="49.91969" lon="4.67618">
        <ele>131.2</ele>
        <time>2024-04-06T10:58:59Z</time>
      </trkpt>
      <trkpt lat="49.91963" lon="4.67616">
        <ele>131.4</ele>
        <time>2024-04-06T10:59:00Z</time>
      </trkpt>
      <trkpt lat="49.91956" lon="4.67614">
        <ele>131.4</ele>
        <time>2024-04-06T10:59:01Z</time>
      </trkpt>
      <trkpt lat="49.9195" lon="4.67612">
        <ele>131.4</ele>
        <time>2024-04-06T10:59:02Z</time>
      </trkpt>
      <trkpt lat="49.91943" lon="4.6761">
        <ele>131.8</ele>
        <time>2024-04-06T10:59:03Z</time>
      </trkpt>
      <trkpt lat="49.91937" lon="4.67608">
        <ele>131.8</ele>
        <time>2024-04-06T10:59:04Z</time>
      </trkpt>
      <trkpt lat="49.91931" lon="4.67606">
        <ele>132</ele>
        <time>2024-04-06T10:59:05Z</time>
      </trkpt>
      <trkpt lat="49.91924" lon="4.67604">
        <ele>131.8</ele>
        <time>2024-04-06T10:59:06Z</time>
      </trkpt>
      <trkpt lat="49.91918" lon="4.67602">
        <ele>132</ele>
        <time>2024-04-06T10:59:07Z</time>
      </trkpt>
      <trkpt lat="49.91911" lon="4.676">
        <ele>131.8</ele>
        <time>2024-04-06T10:59:08Z</time>
      </trkpt>
      <trkpt lat="49.91905" lon="4.67598">
        <ele>132</ele>
        <time>2024-04-06T10:59:09Z</time>
      </trkpt>
      <trkpt lat="49.91899" lon="4.67595">
        <ele>131.8</ele>
        <time>2024-04-06T10:59:10Z</time>
      </trkpt>
      <trkpt lat="49.91892" lon="4.67593">
        <ele>132</ele>
        <time>2024-04-06T10:59:11Z</time>
      </trkpt>
      <trkpt lat="49.91886" lon="4.67591">
        <ele>132</ele>
        <time>2024-04-06T10:59:12Z</time>
      </trkpt>
      <trkpt lat="49.91879" lon="4.67589">
        <ele>132</ele>
        <time>2024-04-06T10:59:13Z</time>
      </trkpt>
      <trkpt lat="49.91873" lon="4.67588">
        <ele>132</ele>
        <time>2024-04-06T10:59:14Z</time>
      </trkpt>
      <trkpt lat="49.91866" lon="4.67586">
        <ele>132</ele>
        <time>2024-04-06T10:59:15Z</time>
      </trkpt>
      <trkpt lat="49.9186" lon="4.67584">
        <ele>132</ele>
        <time>2024-04-06T10:59:16Z</time>
      </trkpt>
      <trkpt lat="49.91853" lon="4.67582">
        <ele>132</ele>
        <time>2024-04-06T10:59:17Z</time>
      </trkpt>
      <trkpt lat="49.91847" lon="4.6758">
        <ele>132</ele>
        <time>2024-04-06T10:59:18Z</time>
      </trkpt>
      <trkpt lat="49.9184" lon="4.67577">
        <ele>132</ele>
        <time>2024-04-06T10:59:19Z</time>
      </trkpt>
      <trkpt lat="49.91834" lon="4.67575">
        <ele>132</ele>
        <time>2024-04-06T10:59:20Z</time>
      </trkpt>
      <trkpt lat="49.91827" lon="4.67573">
        <ele>131.8</ele>
        <time>2024-04-06T10:59:21Z</time>
      </trkpt>
      <trkpt lat="49.91821" lon="4.67571">
        <ele>131.8</ele>
        <time>2024-04-06T10:59:22Z</time>
      </trkpt>
      <trkpt lat="49.91814" lon="4.6757">
        <ele>131.6</ele>
        <time>2024-04-06T10:59:23Z</time>
      </trkpt>
      <trkpt lat="49.91807" lon="4.67567">
        <ele>131.6</ele>
        <time>2024-04-06T10:59:24Z</time>
      </trkpt>
      <trkpt lat="49.918" lon="4.67566">
        <ele>131.6</ele>
        <time>2024-04-06T10:59:25Z</time>
      </trkpt>
      <trkpt lat="49.91794" lon="4.67565">
        <ele>131.6</ele>
        <time>2024-04-06T10:59:26Z</time>
      </trkpt>
      <trkpt lat="49.91787" lon="4.67563">
        <ele>131.6</ele>
        <time>2024-04-06T10:59:27Z</time>
      </trkpt>
      <trkpt lat="49.9178" lon="4.67561">
        <ele>131.6</ele>
        <time>2024-04-06T10:59:28Z</time>
      </trkpt>
      <trkpt lat="49.91774" lon="4.6756">
        <ele>131.4</ele>
        <time>2024-04-06T10:59:29Z</time>
      </trkpt>
      <trkpt lat="49.91767" lon="4.67558">
        <ele>131.4</ele>
        <time>2024-04-06T10:59:30Z</time>
      </trkpt>
      <trkpt lat="49.91761" lon="4.67556">
        <ele>131.4</ele>
        <time>2024-04-06T10:59:31Z</time>
      </trkpt>
      <trkpt lat="49.91754" lon="4.67554">
        <ele>131.6</ele>
        <time>2024-04-06T10:59:32Z</time>
      </trkpt>
      <trkpt lat="49.91747" lon="4.67552">
        <ele>131.4</ele>
        <time>2024-04-06T10:59:33Z</time>
      </trkpt>
      <trkpt lat="49.91741" lon="4.6755">
        <ele>131.2</ele>
        <time>2024-04-06T10:59:34Z</time>
      </trkpt>
      <trkpt lat="49.91734" lon="4.67548">
        <ele>131.2</ele>
        <time>2024-04-06T10:59:35Z</time>
      </trkpt>
      <trkpt lat="49.91728" lon="4.67546">
        <ele>131</ele>
        <time>2024-04-06T10:59:36Z</time>
      </trkpt>
      <trkpt lat="49.91721" lon="4.67544">
        <ele>131</ele>
        <time>2024-04-06T10:59:37Z</time>
      </trkpt>
      <trkpt lat="49.91715" lon="4.67542">
        <ele>131</ele>
        <time>2024-04-06T10:59:38Z</time>
      </trkpt>
      <trkpt lat="49.91708" lon="4.67541">
        <ele>130.8</ele>
        <time>2024-04-06T10:59:39Z</time>
      </trkpt>
      <trkpt lat="49.91702" lon="4.67539">
        <ele>130.8</ele>
        <time>2024-04-06T10:59:40Z</time>
      </trkpt>
      <trkpt lat="49.91696" lon="4.67537">
        <ele>130.6</ele>
        <time>2024-04-06T10:59:41Z</time>
      </trkpt>
      <trkpt lat="49.91689" lon="4.67535">
        <ele>130.6</ele>
        <time>2024-04-06T10:59:42Z</time>
      </trkpt>
      <trkpt lat="49.91683" lon="4.67533">
        <ele>130.4</ele>
        <time>2024-04-06T10:59:43Z</time>
      </trkpt>
      <trkpt lat="49.91676" lon="4.67532">
        <ele>130.4</ele>
        <time>2024-04-06T10:59:44Z</time>
      </trkpt>
      <trkpt lat="49.9167" lon="4.67531">
        <ele>130.2</ele>
        <time>2024-04-06T10:59:45Z</time>
      </trkpt>
      <trkpt lat="49.91664" lon="4.67529">
        <ele>130.2</ele>
        <time>2024-04-06T10:59:46Z</time>
      </trkpt>
      <trkpt lat="49.91658" lon="4.67528">
        <ele>130.2</ele>
        <time>2024-04-06T10:59:47Z</time>
      </trkpt>
      <trkpt lat="49.91652" lon="4.67526">
        <ele>130.2</ele>
        <time>2024-04-06T10:59:48Z</time>
      </trkpt>
      <trkpt lat="49.91645" lon="4.67525">
        <ele>130</ele>
        <time>2024-04-06T10:59:49Z</time>
      </trkpt>
      <trkpt lat="49.91639" lon="4.67524">
        <ele>130</ele>
        <time>2024-04-06T10:59:50Z</time>
      </trkpt>
      <trkpt lat="49.91633" lon="4.67523">
        <ele>130</ele>
        <time>2024-04-06T10:59:51Z</time>
      </trkpt>
      <trkpt lat="49.91626" lon="4.67523">
        <ele>129.6</ele>
        <time>2024-04-06T10:59:52Z</time>
      </trkpt>
      <trkpt lat="49.9162" lon="4.67523">
        <ele>129.4</ele>
        <time>2024-04-06T10:59:53Z</time>
      </trkpt>
      <trkpt lat="49.91614" lon="4.67524">
        <ele>129.4</ele>
        <time>2024-04-06T10:59:54Z</time>
      </trkpt>
      <trkpt lat="49.91607" lon="4.67525">
        <ele>129.4</ele>
        <time>2024-04-06T10:59:55Z</time>
      </trkpt>
      <trkpt lat="49.91601" lon="4.67526">
        <ele>129.4</ele>
        <time>2024-04-06T10:59:56Z</time>
      </trkpt>
      <trkpt lat="49.91595" lon="4.67527">
        <ele>129.4</ele>
        <time>2024-04-06T10:59:57Z</time>
      </trkpt>
      <trkpt lat="49.91588" lon="4.67529">
        <ele>129.8</ele>
        <time>2024-04-06T10:59:58Z</time>
      </trkpt>
      <trkpt lat="49.91582" lon="4.67531">
        <ele>130</ele>
        <time>2024-04-06T10:59:59Z</time>
      </trkpt>
      <trkpt lat="49.91575" lon="4.67534">
        <ele>130.2</ele>
        <time>2024-04-06T11:00:00Z</time>
      </trkpt>
      <trkpt lat="49.91569" lon="4.67536">
        <ele>130.4</ele>
        <time>2024-04-06T11:00:01Z</time>
      </trkpt>
      <trkpt lat="49.91562" lon="4.67539">
        <ele>130.6</ele>
        <time>2024-04-06T11:00:02Z</time>
      </trkpt>
      <trkpt lat="49.91555" lon="4.67541">
        <ele>130.4</ele>
        <time>2024-04-06T11:00:03Z</time>
      </trkpt>
      <trkpt lat="49.91548" lon="4.67544">
        <ele>130.6</ele>
        <time>2024-04-06T11:00:04Z</time>
      </trkpt>
      <trkpt lat="49.91542" lon="4.67547">
        <ele>130.4</ele>
        <time>2024-04-06T11:00:05Z</time>
      </trkpt>
      <trkpt lat="49.91535" lon="4.6755">
        <ele>130.4</ele>
        <time>2024-04-06T11:00:06Z</time>
      </trkpt>
      <trkpt lat="49.91528" lon="4.67553">
        <ele>130.2</ele>
        <time>2024-04-06T11:00:07Z</time>
      </trkpt>
      <trkpt lat="49.91522" lon="4.67556">
        <ele>130.2</ele>
        <time>2024-04-06T11:00:08Z</time>
      </trkpt>
      <trkpt lat="49.91515" lon="4.67558">
        <ele>130.2</ele>
        <time>2024-04-06T11:00:09Z</time>
      </trkpt>
      <trkpt lat="49.91509" lon="4.67561">
        <ele>130.2</ele>
        <time>2024-04-06T11:00:10Z</time>
      </trkpt>
      <trkpt lat="49.91502" lon="4.67563">
        <ele>130.2</ele>
        <time>2024-04-06T11:00:11Z</time>
      </trkpt>
      <trkpt lat="49.91496" lon="4.67565">
        <ele>130.6</ele>
        <time>2024-04-06T11:00:12Z</time>
      </trkpt>
      <trkpt lat="49.9149" lon="4.67568">
        <ele>130.4</ele>
        <time>2024-04-06T11:00:13Z</time>
      </trkpt>
      <trkpt lat="49.91484" lon="4.67571">
        <ele>130.6</ele>
        <time>2024-04-06T11:00:14Z</time>
      </trkpt>
      <trkpt lat="49.91478" lon="4.67573">
        <ele>130.6</ele>
        <time>2024-04-06T11:00:15Z</time>
      </trkpt>
      <trkpt lat="49.91472" lon="4.67576">
        <ele>130.8</ele>
        <time>2024-04-06T11:00:16Z</time>
      </trkpt>
      <trkpt lat="49.91465" lon="4.67579">
        <ele>130.6</ele>
        <time>2024-04-06T11:00:17Z</time>
      </trkpt>
      <trkpt lat="49.91459" lon="4.67582">
        <ele>130.8</ele>
        <time>2024-04-06T11:00:18Z</time>
      </trkpt>
      <trkpt lat="49.91453" lon="4.67584">
        <ele>130.8</ele>
        <time>2024-04-06T11:00:19Z</time>
      </trkpt>
      <trkpt lat="49.91447" lon="4.67587">
        <ele>130.6</ele>
        <time>2024-04-06T11:00:20Z</time>
      </trkpt>
      <trkpt lat="49.91441" lon="4.6759">
        <ele>130.8</ele>
        <time>2024-04-06T11:00:21Z</time>
      </trkpt>
      <trkpt lat="49.91434" lon="4.67592">
        <ele>131</ele>
        <time>2024-04-06T11:00:22Z</time>
      </trkpt>
      <trkpt lat="49.91428" lon="4.67595">
        <ele>131</ele>
        <time>2024-04-06T11:00:23Z</time>
      </trkpt>
      <trkpt lat="49.91422" lon="4.67597">
        <ele>131.2</ele>
        <time>2024-04-06T11:00:24Z</time>
      </trkpt>
      <trkpt lat="49.91415" lon="4.676">
        <ele>131.4</ele>
        <time>2024-04-06T11:00:25Z</time>
      </trkpt>
      <trkpt lat="49.91409" lon="4.67602">
        <ele>131.4</ele>
        <time>2024-04-06T11:00:26Z</time>
      </trkpt>
      <trkpt lat="49.91402" lon="4.67605">
        <ele>131.4</ele>
        <time>2024-04-06T11:00:27Z</time>
      </trkpt>
      <trkpt lat="49.91396" lon="4.67607">
        <ele>131.4</ele>
        <time>2024-04-06T11:00:28Z</time>
      </trkpt>
      <trkpt lat="49.91389" lon="4.6761">
        <ele>131.4</ele>
        <time>2024-04-06T11:00:29Z</time>
      </trkpt>
      <trkpt lat="49.91383" lon="4.67612">
        <ele>131.4</ele>
        <time>2024-04-06T11:00:30Z</time>
      </trkpt>
      <trkpt lat="49.91376" lon="4.67615">
        <ele>131.4</ele>
        <time>2024-04-06T11:00:31Z</time>
      </trkpt>
      <trkpt lat="49.9137" lon="4.67618">
        <ele>131.6</ele>
        <time>2024-04-06T11:00:32Z</time>
      </trkpt>
      <trkpt lat="49.91363" lon="4.6762">
        <ele>131.4</ele>
        <time>2024-04-06T11:00:33Z</time>
      </trkpt>
      <trkpt lat="49.91357" lon="4.67623">
        <ele>131.6</ele>
        <time>2024-04-06T11:00:34Z</time>
      </trkpt>
      <trkpt lat="49.9135" lon="4.67625">
        <ele>131.6</ele>
        <time>2024-04-06T11:00:35Z</time>
      </trkpt>
      <trkpt lat="49.91343" lon="4.67628">
        <ele>131.6</ele>
        <time>2024-04-06T11:00:36Z</time>
      </trkpt>
      <trkpt lat="49.91337" lon="4.67631">
        <ele>131.6</ele>
        <time>2024-04-06T11:00:37Z</time>
      </trkpt>
      <trkpt lat="49.91331" lon="4.67633">
        <ele>131.4</ele>
        <time>2024-04-06T11:00:38Z</time>
      </trkpt>
      <trkpt lat="49.91324" lon="4.67636">
        <ele>131.6</ele>
        <time>2024-04-06T11:00:39Z</time>
      </trkpt>
      <trkpt lat="49.91318" lon="4.67639">
        <ele>131.4</ele>
        <time>2024-04-06T11:00:40Z</time>
      </trkpt>
      <trkpt lat="49.91311" lon="4.67641">
        <ele>131.6</ele>
        <time>2024-04-06T11:00:41Z</time>
      </trkpt>
      <trkpt lat="49.91305" lon="4.67644">
        <ele>131.6</ele>
        <time>2024-04-06T11:00:42Z</time>
      </trkpt>
      <trkpt lat="49.91298" lon="4.67647">
        <ele>131.4</ele>
        <time>2024-04-06T11:00:43Z</time>
      </trkpt>
      <trkpt lat="49.91292" lon="4.67649">
        <ele>131.6</ele>
        <time>2024-04-06T11:00:44Z</time>
      </trkpt>
      <trkpt lat="49.91285" lon="4.67652">
        <ele>131.6</ele>
        <time>2024-04-06T11:00:45Z</time>
      </trkpt>
      <trkpt lat="49.91278" lon="4.67654">
        <ele>131.6</ele>
        <time>2024-04-06T11:00:46Z</time>
      </trkpt>
      <trkpt lat="49.91272" lon="4.67657">
        <ele>131.6</ele>
        <time>2024-04-06T11:00:47Z</time>
      </trkpt>
      <trkpt lat="49.91265" lon="4.6766">
        <ele>131.8</ele>
        <time>2024-04-06T11:00:48Z</time>
      </trkpt>
      <trkpt lat="49.91258" lon="4.67662">
        <ele>131.8</ele>
        <time>2024-04-06T11:00:49Z</time>
      </trkpt>
      <trkpt lat="49.91251" lon="4.67665">
        <ele>131.6</ele>
        <time>2024-04-06T11:00:50Z</time>
      </trkpt>
      <trkpt lat="49.91245" lon="4.67668">
        <ele>131.8</ele>
        <time>2024-04-06T11:00:51Z</time>
      </trkpt>
      <trkpt lat="49.91238" lon="4.67671">
        <ele>131.8</ele>
        <time>2024-04-06T11:00:52Z</time>
      </trkpt>
      <trkpt lat="49.91231" lon="4.67673">
        <ele>131.8</ele>
        <time>2024-04-06T11:00:53Z</time>
      </trkpt>
      <trkpt lat="49.91224" lon="4.67676">
        <ele>131.8</ele>
        <time>2024-04-06T11:00:54Z</time>
      </trkpt>
      <trkpt lat="49.91218" lon="4.67678">
        <ele>131.6</ele>
        <time>2024-04-06T11:00:55Z</time>
      </trkpt>
      <trkpt lat="49.91211" lon="4.67681">
        <ele>131.8</ele>
        <time>2024-04-06T11:00:56Z</time>
      </trkpt>
      <trkpt lat="49.91204" lon="4.67683">
        <ele>131.8</ele>
        <time>2024-04-06T11:00:57Z</time>
      </trkpt>
      <trkpt lat="49.91197" lon="4.67686">
        <ele>132</ele>
        <time>2024-04-06T11:00:58Z</time>
      </trkpt>
      <trkpt lat="49.9119" lon="4.67689">
        <ele>132</ele>
        <time>2024-04-06T11:00:59Z</time>
      </trkpt>
      <trkpt lat="49.91183" lon="4.67692">
        <ele>131.8</ele>
        <time>2024-04-06T11:01:00Z</time>
      </trkpt>
      <trkpt lat="49.91176" lon="4.67695">
        <ele>131.8</ele>
        <time>2024-04-06T11:01:01Z</time>
      </trkpt>
      <trkpt lat="49.91169" lon="4.67698">
        <ele>131.8</ele>
        <time>2024-04-06T11:01:02Z</time>
      </trkpt>
      <trkpt lat="49.91162" lon="4.67701">
        <ele>131.8</ele>
        <time>2024-04-06T11:01:03Z</time>
      </trkpt>
      <trkpt lat="49.91155" lon="4.67704">
        <ele>132</ele>
        <time>2024-04-06T11:01:04Z</time>
      </trkpt>
      <trkpt lat="49.91148" lon="4.67707">
        <ele>132</ele>
        <time>2024-04-06T11:01:05Z</time>
      </trkpt>
      <trkpt lat="49.91141" lon="4.67711">
        <ele>132</ele>
        <time>2024-04-06T11:01:06Z</time>
      </trkpt>
      <trkpt lat="49.91135" lon="4.67714">
        <ele>132</ele>
        <time>2024-04-06T11:01:07Z</time>
      </trkpt>
      <trkpt lat="49.91128" lon="4.67718">
        <ele>132</ele>
        <time>2024-04-06T11:01:08Z</time>
      </trkpt>
      <trkpt lat="49.91121" lon="4.67721">
        <ele>132.2</ele>
        <time>2024-04-06T11:01:09Z</time>
      </trkpt>
      <trkpt lat="49.91114" lon="4.67724">
        <ele>132.2</ele>
        <time>2024-04-06T11:01:10Z</time>
      </trkpt>
      <trkpt lat="49.91107" lon="4.67727">
        <ele>132.2</ele>
        <time>2024-04-06T11:01:11Z</time>
      </trkpt>
      <trkpt lat="49.911" lon="4.6773">
        <ele>132.4</ele>
        <time>2024-04-06T11:01:12Z</time>
      </trkpt>
      <trkpt lat="49.91093" lon="4.67734">
        <ele>132.4</ele>
        <time>2024-04-06T11:01:13Z</time>
      </trkpt>
      <trkpt lat="49.91086" lon="4.67738">
        <ele>132.6</ele>
        <time>2024-04-06T11:01:14Z</time>
      </trkpt>
      <trkpt lat="49.91079" lon="4.67742">
        <ele>132.8</ele>
        <time>2024-04-06T11:01:15Z</time>
      </trkpt>
      <trkpt lat="49.91072" lon="4.67746">
        <ele>132.8</ele>
        <time>2024-04-06T11:01:16Z</time>
      </trkpt>
      <trkpt lat="49.91065" lon="4.6775">
        <ele>133</ele>
        <time>2024-04-06T11:01:17Z</time>
      </trkpt>
      <trkpt lat="49.91058" lon="4.67753">
        <ele>132.8</ele>
        <time>2024-04-06T11:01:18Z</time>
      </trkpt>
      <trkpt lat="49.91051" lon="4.67757">
        <ele>132.8</ele>
        <time>2024-04-06T11:01:19Z</time>
      </trkpt>
      <trkpt lat="49.91044" lon="4.67761">
        <ele>132.8</ele>
        <time>2024-04-06T11:01:20Z</time>
      </trkpt>
      <trkpt lat="49.91036" lon="4.67765">
        <ele>132.8</ele>
        <time>2024-04-06T11:01:21Z</time>
      </trkpt>
      <trkpt lat="49.91029" lon="4.67769">
        <ele>133</ele>
        <time>2024-04-06T11:01:22Z</time>
      </trkpt>
      <trkpt lat="49.91022" lon="4.67773">
        <ele>133</ele>
        <time>2024-04-06T11:01:23Z</time>
      </trkpt>
      <trkpt lat="49.91015" lon="4.67777">
        <ele>133</ele>
        <time>2024-04-06T11:01:24Z</time>
      </trkpt>
      <trkpt lat="49.91008" lon="4.6778">
        <ele>133</ele>
        <time>2024-04-06T11:01:25Z</time>
      </trkpt>
      <trkpt lat="49.91001" lon="4.67784">
        <ele>133.2</ele>
        <time>2024-04-06T11:01:26Z</time>
      </trkpt>
      <trkpt lat="49.90993" lon="4.67788">
        <ele>133</ele>
        <time>2024-04-06T11:01:27Z</time>
      </trkpt>
      <trkpt lat="49.90986" lon="4.67792">
        <ele>133</ele>
        <time>2024-04-06T11:01:28Z</time>
      </trkpt>
      <trkpt lat="49.90979" lon="4.67796">
        <ele>133</ele>
        <time>2024-04-06T11:01:29Z</time>
      </trkpt>
      <trkpt lat="49.90971" lon="4.678">
        <ele>133</ele>
        <time>2024-04-06T11:01:30Z</time>
      </trkpt>
      <trkpt lat="49.90964" lon="4.67804">
        <ele>133</ele>
        <time>2024-04-06T11:01:31Z</time>
      </trkpt>
      <trkpt lat="49.90956" lon="4.67808">
        <ele>133</ele>
        <time>2024-04-06T11:01:32Z</time>
      </trkpt>
      <trkpt lat="49.90949" lon="4.67812">
        <ele>133</ele>
        <time>2024-04-06T11:01:33Z</time>
      </trkpt>
      <trkpt lat="49.90942" lon="4.67816">
        <ele>133</ele>
        <time>2024-04-06T11:01:34Z</time>
      </trkpt>
      <trkpt lat="49.90934" lon="4.6782">
        <ele>133</ele>
        <time>2024-04-06T11:01:35Z</time>
      </trkpt>
      <trkpt lat="49.90927" lon="4.67825">
        <ele>133</ele>
        <time>2024-04-06T11:01:36Z</time>
      </trkpt>
      <trkpt lat="49.9092" lon="4.67829">
        <ele>133.2</ele>
        <time>2024-04-06T11:01:37Z</time>
      </trkpt>
      <trkpt lat="49.90912" lon="4.67833">
        <ele>133.2</ele>
        <time>2024-04-06T11:01:38Z</time>
      </trkpt>
      <trkpt lat="49.90905" lon="4.67838">
        <ele>133.2</ele>
        <time>2024-04-06T11:01:39Z</time>
      </trkpt>
      <trkpt lat="49.90898" lon="4.67842">
        <ele>133.2</ele>
        <time>2024-04-06T11:01:40Z</time>
      </trkpt>
      <trkpt lat="49.90891" lon="4.67846">
        <ele>133</ele>
        <time>2024-04-06T11:01:41Z</time>
      </trkpt>
      <trkpt lat="49.90884" lon="4.6785">
        <ele>133</ele>
        <time>2024-04-06T11:01:42Z</time>
      </trkpt>
      <trkpt lat="49.90877" lon="4.67854">
        <ele>133</ele>
        <time>2024-04-06T11:01:43Z</time>
      </trkpt>
      <trkpt lat="49.9087" lon="4.67858">
        <ele>133</ele>
        <time>2024-04-06T11:01:44Z</time>
      </trkpt>
      <trkpt lat="49.90863" lon="4.67862">
        <ele>133</ele>
        <time>2024-04-06T11:01:45Z</time>
      </trkpt>
      <trkpt lat="49.90856" lon="4.67866">
        <ele>133.2</ele>
        <time>2024-04-06T11:01:46Z</time>
      </trkpt>
      <trkpt lat="49.90849" lon="4.6787">
        <ele>133.2</ele>
        <time>2024-04-06T11:01:47Z</time>
      </trkpt>
      <trkpt lat="49.90842" lon="4.67874">
        <ele>132.8</ele>
        <time>2024-04-06T11:01:48Z</time>
      </trkpt>
      <trkpt lat="49.90835" lon="4.67877">
        <ele>132.6</ele>
        <time>2024-04-06T11:01:49Z</time>
      </trkpt>
      <trkpt lat="49.90828" lon="4.67881">
        <ele>132.4</ele>
        <time>2024-04-06T11:01:50Z</time>
      </trkpt>
      <trkpt lat="49.90821" lon="4.67885">
        <ele>132.2</ele>
        <time>2024-04-06T11:01:51Z</time>
      </trkpt>
      <trkpt lat="49.90814" lon="4.67888">
        <ele>132</ele>
        <time>2024-04-06T11:01:52Z</time>
      </trkpt>
      <trkpt lat="49.90807" lon="4.67891">
        <ele>132</ele>
        <time>2024-04-06T11:01:53Z</time>
      </trkpt>
      <trkpt lat="49.908" lon="4.67895">
        <ele>132</ele>
        <time>2024-04-06T11:01:54Z</time>
      </trkpt>
      <trkpt lat="49.90793" lon="4.67898">
        <ele>132</ele>
        <time>2024-04-06T11:01:55Z</time>
      </trkpt>
      <trkpt lat="49.90786" lon="4.67902">
        <ele>131.8</ele>
        <time>2024-04-06T11:01:56Z</time>
      </trkpt>
      <trkpt lat="49.90779" lon="4.67907">
        <ele>131.8</ele>
        <time>2024-04-06T11:01:57Z</time>
      </trkpt>
      <trkpt lat="49.90771" lon="4.67911">
        <ele>132</ele>
        <time>2024-04-06T11:01:58Z</time>
      </trkpt>
      <trkpt lat="49.90764" lon="4.67915">
        <ele>132</ele>
        <time>2024-04-06T11:01:59Z</time>
      </trkpt>
      <trkpt lat="49.90756" lon="4.67919">
        <ele>132</ele>
        <time>2024-04-06T11:02:00Z</time>
      </trkpt>
      <trkpt lat="49.90749" lon="4.67924">
        <ele>132</ele>
        <time>2024-04-06T11:02:01Z</time>
      </trkpt>
      <trkpt lat="49.90742" lon="4.67929">
        <ele>132</ele>
        <time>2024-04-06T11:02:02Z</time>
      </trkpt>
      <trkpt lat="49.90735" lon="4.67933">
        <ele>132</ele>
        <time>2024-04-06T11:02:03Z</time>
      </trkpt>
      <trkpt lat="49.90728" lon="4.67939">
        <ele>132</ele>
        <time>2024-04-06T11:02:04Z</time>
      </trkpt>
      <trkpt lat="49.90721" lon="4.67944">
        <ele>132</ele>
        <time>2024-04-06T11:02:05Z</time>
      </trkpt>
      <trkpt lat="49.90714" lon="4.6795">
        <ele>132</ele>
        <time>2024-04-06T11:02:06Z</time>
      </trkpt>
      <trkpt lat="49.90707" lon="4.67956">
        <ele>132.2</ele>
        <time>2024-04-06T11:02:07Z</time>
      </trkpt>
      <trkpt lat="49.907" lon="4.67962">
        <ele>132.2</ele>
        <time>2024-04-06T11:02:08Z</time>
      </trkpt>
      <trkpt lat="49.90694" lon="4.67968">
        <ele>132.2</ele>
        <time>2024-04-06T11:02:09Z</time>
      </trkpt>
      <trkpt lat="49.90687" lon="4.67974">
        <ele>132.2</ele>
        <time>2024-04-06T11:02:10Z</time>
      </trkpt>
      <trkpt lat="49.90681" lon="4.67981">
        <ele>132.2</ele>
        <time>2024-04-06T11:02:11Z</time>
      </trkpt>
      <trkpt lat="49.90674" lon="4.67987">
        <ele>132.4</ele>
        <time>2024-04-06T11:02:12Z</time>
      </trkpt>
      <trkpt lat="49.90668" lon="4.67993">
        <ele>132.4</ele>
        <time>2024-04-06T11:02:13Z</time>
      </trkpt>
      <trkpt lat="49.90662" lon="4.67999">
        <ele>132.4</ele>
        <time>2024-04-06T11:02:14Z</time>
      </trkpt>
      <trkpt lat="49.90656" lon="4.68005">
        <ele>132.4</ele>
        <time>2024-04-06T11:02:15Z</time>
      </trkpt>
      <trkpt lat="49.9065" lon="4.68012">
        <ele>132.4</ele>
        <time>2024-04-06T11:02:16Z</time>
      </trkpt>
      <trkpt lat="49.90644" lon="4.68018">
        <ele>132.6</ele>
        <time>2024-04-06T11:02:17Z</time>
      </trkpt>
      <trkpt lat="49.90638" lon="4.68025">
        <ele>132.4</ele>
        <time>2024-04-06T11:02:18Z</time>
      </trkpt>
      <trkpt lat="49.90632" lon="4.68031">
        <ele>132.4</ele>
        <time>2024-04-06T11:02:19Z</time>
      </trkpt>
      <trkpt lat="49.90627" lon="4.68037">
        <ele>132.8</ele>
        <time>2024-04-06T11:02:20Z</time>
      </trkpt>
      <trkpt lat="49.90621" lon="4.68042">
        <ele>133.2</ele>
        <time>2024-04-06T11:02:21Z</time>
      </trkpt>
      <trkpt lat="49.90615" lon="4.68047">
        <ele>133.2</ele>
        <time>2024-04-06T11:02:22Z</time>
      </trkpt>
      <trkpt lat="49.9061" lon="4.68052">
        <ele>133.4</ele>
        <time>2024-04-06T11:02:23Z</time>
      </trkpt>
      <trkpt lat="49.90606" lon="4.68056">
        <ele>133.4</ele>
        <time>2024-04-06T11:02:24Z</time>
      </trkpt>
      <trkpt lat="49.90602" lon="4.6806">
        <ele>133.6</ele>
        <time>2024-04-06T11:02:25Z</time>
      </trkpt>
      <trkpt lat="49.90599" lon="4.68063">
        <ele>133.6</ele>
        <time>2024-04-06T11:02:26Z</time>
      </trkpt>
      <trkpt lat="49.90597" lon="4.68066">
        <ele>133.6</ele>
        <time>2024-04-06T11:02:27Z</time>
      </trkpt>
      <trkpt lat="49.90595" lon="4.68069">
        <ele>133.6</ele>
        <time>2024-04-06T11:02:28Z</time>
      </trkpt>
      <trkpt lat="49.90595" lon="4.68072">
        <ele>133.6</ele>
        <time>2024-04-06T11:02:29Z</time>
      </trkpt>
      <trkpt lat="49.90595" lon="4.68076">
        <ele>133.6</ele>
        <time>2024-04-06T11:02:30Z</time>
      </trkpt>
      <trkpt lat="49.90595" lon="4.68081">
        <ele>133.8</ele>
        <time>2024-04-06T11:02:31Z</time>
      </trkpt>
      <trkpt lat="49.90595" lon="4.68086">
        <ele>133.6</ele>
        <time>2024-04-06T11:02:32Z</time>
      </trkpt>
      <trkpt lat="49.90594" lon="4.68091">
        <ele>133.6</ele>
        <time>2024-04-06T11:02:33Z</time>
      </trkpt>
      <trkpt lat="49.90591" lon="4.68095">
        <ele>133.8</ele>
        <time>2024-04-06T11:02:34Z</time>
      </trkpt>
      <trkpt lat="49.90589" lon="4.681">
        <ele>134</ele>
        <time>2024-04-06T11:02:35Z</time>
      </trkpt>
      <trkpt lat="49.90586" lon="4.68104">
        <ele>134</ele>
        <time>2024-04-06T11:02:36Z</time>
      </trkpt>
      <trkpt lat="49.90583" lon="4.68108">
        <ele>134.2</ele>
        <time>2024-04-06T11:02:37Z</time>
      </trkpt>
      <trkpt lat="49.90579" lon="4.68112">
        <ele>134.4</ele>
        <time>2024-04-06T11:02:38Z</time>
      </trkpt>
      <trkpt lat="49.90575" lon="4.68116">
        <ele>134.4</ele>
        <time>2024-04-06T11:02:39Z</time>
      </trkpt>
      <trkpt lat="49.90572" lon="4.68121">
        <ele>134.4</ele>
        <time>2024-04-06T11:02:40Z</time>
      </trkpt>
      <trkpt lat="49.90569" lon="4.68125">
        <ele>134.6</ele>
        <time>2024-04-06T11:02:41Z</time>
      </trkpt>
      <trkpt lat="49.90566" lon="4.68127">
        <ele>134.6</ele>
        <time>2024-04-06T11:02:42Z</time>
      </trkpt>
      <trkpt lat="49.90564" lon="4.68129">
        <ele>134.8</ele>
        <time>2024-04-06T11:02:43Z</time>
      </trkpt>
      <trkpt lat="49.90561" lon="4.68128">
        <ele>135</ele>
        <time>2024-04-06T11:02:44Z</time>
      </trkpt>
      <trkpt lat="49.90558" lon="4.68127">
        <ele>135</ele>
        <time>2024-04-06T11:02:45Z</time>
      </trkpt>
      <trkpt lat="49.90555" lon="4.68124">
        <ele>135</ele>
        <time>2024-04-06T11:02:46Z</time>
      </trkpt>
      <trkpt lat="49.90552" lon="4.68121">
        <ele>135</ele>
        <time>2024-04-06T11:02:47Z</time>
      </trkpt>
      <trkpt lat="49.90549" lon="4.6812">
        <ele>135</ele>
        <time>2024-04-06T11:02:48Z</time>
      </trkpt>
      <trkpt lat="49.90545" lon="4.6812">
        <ele>135</ele>
        <time>2024-04-06T11:02:49Z</time>
      </trkpt>
      <trkpt lat="49.90542" lon="4.68122">
        <ele>135</ele>
        <time>2024-04-06T11:02:50Z</time>
      </trkpt>
      <trkpt lat="49.90538" lon="4.68127">
        <ele>135</ele>
        <time>2024-04-06T11:02:51Z</time>
      </trkpt>
      <trkpt lat="49.90535" lon="4.68132">
        <ele>135</ele>
        <time>2024-04-06T11:02:52Z</time>
      </trkpt>
      <trkpt lat="49.90531" lon="4.68138">
        <ele>135</ele>
        <time>2024-04-06T11:02:53Z</time>
      </trkpt>
      <trkpt lat="49.90527" lon="4.68143">
        <ele>134.8</ele>
        <time>2024-04-06T11:02:54Z</time>
      </trkpt>
      <trkpt lat="49.90523" lon="4.6815">
        <ele>135</ele>
        <time>2024-04-06T11:02:55Z</time>
      </trkpt>
      <trkpt lat="49.90519" lon="4.68156">
        <ele>134.8</ele>
        <time>2024-04-06T11:02:56Z</time>
      </trkpt>
      <trkpt lat="49.90515" lon="4.68163">
        <ele>134.8</ele>
        <time>2024-04-06T11:02:57Z</time>
      </trkpt>
      <trkpt lat="49.9051" lon="4.6817">
        <ele>134.8</ele>
        <time>2024-04-06T11:02:58Z</time>
      </trkpt>
      <trkpt lat="49.90506" lon="4.68177">
        <ele>134.8</ele>
        <time>2024-04-06T11:02:59Z</time>
      </trkpt>
      <trkpt lat="49.90502" lon="4.68184">
        <ele>134.8</ele>
        <time>2024-04-06T11:03:00Z</time>
      </trkpt>
      <trkpt lat="49.90497" lon="4.68192">
        <ele>134.6</ele>
        <time>2024-04-06T11:03:01Z</time>
      </trkpt>
      <trkpt lat="49.90493" lon="4.68199">
        <ele>134.6</ele>
        <time>2024-04-06T11:03:02Z</time>
      </trkpt>
      <trkpt lat="49.90488" lon="4.68207">
        <ele>134.6</ele>
        <time>2024-04-06T11:03:03Z</time>
      </trkpt>
      <trkpt lat="49.90484" lon="4.68214">
        <ele>134.4</ele>
        <time>2024-04-06T11:03:04Z</time>
      </trkpt>
      <trkpt lat="49.9048" lon="4.68221">
        <ele>134.6</ele>
        <time>2024-04-06T11:03:05Z</time>
      </trkpt>
      <trkpt lat="49.90475" lon="4.68229">
        <ele>134.4</ele>
        <time>2024-04-06T11:03:06Z</time>
      </trkpt>
      <trkpt lat="49.9047" lon="4.68236">
        <ele>134.4</ele>
        <time>2024-04-06T11:03:07Z</time>
      </trkpt>
      <trkpt lat="49.90466" lon="4.68244">
        <ele>134.4</ele>
        <time>2024-04-06T11:03:08Z</time>
      </trkpt>
      <trkpt lat="49.90461" lon="4.68251">
        <ele>134.4</ele>
        <time>2024-04-06T11:03:09Z</time>
      </trkpt>
      <trkpt lat="49.90456" lon="4.68259">
        <ele>134.4</ele>
        <time>2024-04-06T11:03:10Z</time>
      </trkpt>
      <trkpt lat="49.90452" lon="4.68267">
        <ele>134.4</ele>
        <time>2024-04-06T11:03:11Z</time>
      </trkpt>
      <trkpt lat="49.90447" lon="4.68275">
        <ele>134.4</ele>
        <time>2024-04-06T11:03:12Z</time>
      </trkpt>
      <trkpt lat="49.90442" lon="4.68283">
        <ele>134.4</ele>
        <time>2024-04-06T11:03:13Z</time>
      </trkpt>
      <trkpt lat="49.90437" lon="4.68291">
        <ele>134.4</ele>
        <time>2024-04-06T11:03:14Z</time>
      </trkpt>
      <trkpt lat="49.90432" lon="4.68299">
        <ele>134.2</ele>
        <time>2024-04-06T11:03:15Z</time>
      </trkpt>
      <trkpt lat="49.90427" lon="4.68307">
        <ele>134.2</ele>
        <time>2024-04-06T11:03:16Z</time>
      </trkpt>
      <trkpt lat="49.90422" lon="4.68314">
        <ele>134.2</ele>
        <time>2024-04-06T11:03:17Z</time>
      </trkpt>
      <trkpt lat="49.90417" lon="4.68322">
        <ele>134.4</ele>
        <time>2024-04-06T11:03:18Z</time>
      </trkpt>
      <trkpt lat="49.90412" lon="4.6833">
        <ele>134.2</ele>
        <time>2024-04-06T11:03:19Z</time>
      </trkpt>
      <trkpt lat="49.90407" lon="4.68338">
        <ele>134.2</ele>
        <time>2024-04-06T11:03:20Z</time>
      </trkpt>
      <trkpt lat="49.90402" lon="4.68347">
        <ele>134.2</ele>
        <time>2024-04-06T11:03:21Z</time>
      </trkpt>
      <trkpt lat="49.90398" lon="4.68355">
        <ele>134.2</ele>
        <time>2024-04-06T11:03:22Z</time>
      </trkpt>
      <trkpt lat="49.90394" lon="4.68365">
        <ele>134</ele>
        <time>2024-04-06T11:03:23Z</time>
      </trkpt>
      <trkpt lat="49.90391" lon="4.68377">
        <ele>133.8</ele>
        <time>2024-04-06T11:03:24Z</time>
      </trkpt>
      <trkpt lat="49.90387" lon="4.68389">
        <ele>134</ele>
        <time>2024-04-06T11:03:25Z</time>
      </trkpt>
      <trkpt lat="49.90385" lon="4.68402">
        <ele>133.8</ele>
        <time>2024-04-06T11:03:26Z</time>
      </trkpt>
      <trkpt lat="49.90382" lon="4.68415">
        <ele>133.8</ele>
        <time>2024-04-06T11:03:27Z</time>
      </trkpt>
      <trkpt lat="49.9038" lon="4.68428">
        <ele>133.6</ele>
        <time>2024-04-06T11:03:28Z</time>
      </trkpt>
      <trkpt lat="49.90378" lon="4.68441">
        <ele>133.6</ele>
        <time>2024-04-06T11:03:29Z</time>
      </trkpt>
      <trkpt lat="49.90377" lon="4.68454">
        <ele>133.8</ele>
        <time>2024-04-06T11:03:30Z</time>
      </trkpt>
      <trkpt lat="49.90377" lon="4.68466">
        <ele>133.4</ele>
        <time>2024-04-06T11:03:31Z</time>
      </trkpt>
      <trkpt lat="49.90379" lon="4.68477">
        <ele>133.2</ele>
        <time>2024-04-06T11:03:32Z</time>
      </trkpt>
      <trkpt lat="49.90383" lon="4.68486">
        <ele>132.8</ele>
        <time>2024-04-06T11:03:33Z</time>
      </trkpt>
      <trkpt lat="49.90389" lon="4.68492">
        <ele>132.8</ele>
        <time>2024-04-06T11:03:34Z</time>
      </trkpt>
      <trkpt lat="49.90395" lon="4.68496">
        <ele>132.4</ele>
        <time>2024-04-06T11:03:35Z</time>
      </trkpt>
      <trkpt lat="49.90401" lon="4.68497">
        <ele>132.2</ele>
        <time>2024-04-06T11:03:36Z</time>
      </trkpt>
      <trkpt lat="49.90406" lon="4.68496">
        <ele>132.2</ele>
        <time>2024-04-06T11:03:37Z</time>
      </trkpt>
      <trkpt lat="49.90411" lon="4.68495">
        <ele>132</ele>
        <time>2024-04-06T11:03:38Z</time>
      </trkpt>
      <trkpt lat="49.90416" lon="4.68494">
        <ele>132</ele>
        <time>2024-04-06T11:03:39Z</time>
      </trkpt>
      <trkpt lat="49.9042" lon="4.68494">
        <ele>132.2</ele>
        <time>2024-04-06T11:03:40Z</time>
      </trkpt>
      <trkpt lat="49.90424" lon="4.68495">
        <ele>132</ele>
        <time>2024-04-06T11:03:41Z</time>
      </trkpt>
      <trkpt lat="49.90427" lon="4.68496">
        <ele>132</ele>
        <time>2024-04-06T11:03:42Z</time>
      </trkpt>
      <trkpt lat="49.9043" lon="4.68498">
        <ele>132</ele>
        <time>2024-04-06T11:03:43Z</time>
      </trkpt>
      <trkpt lat="49.90433" lon="4.68499">
        <ele>132</ele>
        <time>2024-04-06T11:03:44Z</time>
      </trkpt>
      <trkpt lat="49.90436" lon="4.68502">
        <ele>132.4</ele>
        <time>2024-04-06T11:03:45Z</time>
      </trkpt>
      <trkpt lat="49.90438" lon="4.68505">
        <ele>132.6</ele>
        <time>2024-04-06T11:03:46Z</time>
      </trkpt>
      <trkpt lat="49.9044" lon="4.68508">
        <ele>133</ele>
        <time>2024-04-06T11:03:47Z</time>
      </trkpt>
      <trkpt lat="49.90442" lon="4.68512">
        <ele>133.4</ele>
        <time>2024-04-06T11:03:48Z</time>
      </trkpt>
      <trkpt lat="49.90444" lon="4.68515">
        <ele>134.2</ele>
        <time>2024-04-06T11:03:49Z</time>
      </trkpt>
      <trkpt lat="49.90446" lon="4.68518">
        <ele>134.8</ele>
        <time>2024-04-06T11:03:50Z</time>
      </trkpt>
      <trkpt lat="49.90448" lon="4.68522">
        <ele>135.6</ele>
        <time>2024-04-06T11:03:51Z</time>
      </trkpt>
      <trkpt lat="49.90451" lon="4.68525">
        <ele>136.4</ele>
        <time>2024-04-06T11:03:52Z</time>
      </trkpt>
      <trkpt lat="49.90453" lon="4.68528">
        <ele>136.8</ele>
        <time>2024-04-06T11:03:53Z</time>
      </trkpt>
      <trkpt lat="49.90456" lon="4.68531">
        <ele>137.4</ele>
        <time>2024-04-06T11:03:54Z</time>
      </trkpt>
      <trkpt lat="49.90458" lon="4.68533">
        <ele>137.8</ele>
        <time>2024-04-06T11:03:55Z</time>
      </trkpt>
      <trkpt lat="49.90461" lon="4.68536">
        <ele>138.4</ele>
        <time>2024-04-06T11:03:56Z</time>
      </trkpt>
      <trkpt lat="49.90464" lon="4.68539">
        <ele>138.8</ele>
        <time>2024-04-06T11:03:57Z</time>
      </trkpt>
      <trkpt lat="49.90467" lon="4.68542">
        <ele>138.8</ele>
        <time>2024-04-06T11:03:58Z</time>
      </trkpt>
      <trkpt lat="49.90469" lon="4.68544">
        <ele>139.4</ele>
        <time>2024-04-06T11:03:59Z</time>
      </trkpt>
      <trkpt lat="49.90471" lon="4.68547">
        <ele>139.6</ele>
        <time>2024-04-06T11:04:00Z</time>
      </trkpt>
      <trkpt lat="49.90474" lon="4.68549">
        <ele>140</ele>
        <time>2024-04-06T11:04:01Z</time>
      </trkpt>
      <trkpt lat="49.90476" lon="4.68552">
        <ele>140.4</ele>
        <time>2024-04-06T11:04:02Z</time>
      </trkpt>
      <trkpt lat="49.90479" lon="4.68554">
        <ele>140.8</ele>
        <time>2024-04-06T11:04:03Z</time>
      </trkpt>
      <trkpt lat="49.90482" lon="4.68556">
        <ele>141.2</ele>
        <time>2024-04-06T11:04:04Z</time>
      </trkpt>
      <trkpt lat="49.90484" lon="4.68558">
        <ele>141.4</ele>
        <time>2024-04-06T11:04:05Z</time>
      </trkpt>
      <trkpt lat="49.90487" lon="4.6856">
        <ele>141.8</ele>
        <time>2024-04-06T11:04:06Z</time>
      </trkpt>
      <trkpt lat="49.90489" lon="4.68563">
        <ele>142.2</ele>
        <time>2024-04-06T11:04:07Z</time>
      </trkpt>
      <trkpt lat="49.90492" lon="4.68565">
        <ele>142.8</ele>
        <time>2024-04-06T11:04:08Z</time>
      </trkpt>
      <trkpt lat="49.90494" lon="4.68568">
        <ele>143.4</ele>
        <time>2024-04-06T11:04:09Z</time>
      </trkpt>
      <trkpt lat="49.90496" lon="4.68571">
        <ele>143.8</ele>
        <time>2024-04-06T11:04:10Z</time>
      </trkpt>
      <trkpt lat="49.90499" lon="4.68574">
        <ele>144.2</ele>
        <time>2024-04-06T11:04:11Z</time>
      </trkpt>
      <trkpt lat="49.90501" lon="4.68576">
        <ele>144.6</ele>
        <time>2024-04-06T11:04:12Z</time>
      </trkpt>
      <trkpt lat="49.90502" lon="4.68579">
        <ele>145.2</ele>
        <time>2024-04-06T11:04:13Z</time>
      </trkpt>
      <trkpt lat="49.90504" lon="4.68581">
        <ele>145.4</ele>
        <time>2024-04-06T11:04:14Z</time>
      </trkpt>
      <trkpt lat="49.90506" lon="4.68584">
        <ele>145.6</ele>
        <time>2024-04-06T11:04:15Z</time>
      </trkpt>
      <trkpt lat="49.90507" lon="4.68588">
        <ele>145.8</ele>
        <time>2024-04-06T11:04:16Z</time>
      </trkpt>
      <trkpt lat="49.90508" lon="4.68593">
        <ele>146.2</ele>
        <time>2024-04-06T11:04:17Z</time>
      </trkpt>
      <trkpt lat="49.90508" lon="4.68598">
        <ele>146.6</ele>
        <time>2024-04-06T11:04:18Z</time>
      </trkpt>
      <trkpt lat="49.90509" lon="4.68604">
        <ele>147</ele>
        <time>2024-04-06T11:04:19Z</time>
      </trkpt>
      <trkpt lat="49.90509" lon="4.6861">
        <ele>147.4</ele>
        <time>2024-04-06T11:04:20Z</time>
      </trkpt>
      <trkpt lat="49.9051" lon="4.68617">
        <ele>147.4</ele>
        <time>2024-04-06T11:04:21Z</time>
      </trkpt>
      <trkpt lat="49.90511" lon="4.68624">
        <ele>147.8</ele>
        <time>2024-04-06T11:04:22Z</time>
      </trkpt>
      <trkpt lat="49.90511" lon="4.68632">
        <ele>148</ele>
        <time>2024-04-06T11:04:23Z</time>
      </trkpt>
      <trkpt lat="49.90512" lon="4.6864">
        <ele>148</ele>
        <time>2024-04-06T11:04:24Z</time>
      </trkpt>
      <trkpt lat="49.90512" lon="4.68649">
        <ele>148.2</ele>
        <time>2024-04-06T11:04:25Z</time>
      </trkpt>
      <trkpt lat="49.90512" lon="4.68658">
        <ele>148.2</ele>
        <time>2024-04-06T11:04:26Z</time>
      </trkpt>
      <trkpt lat="49.90513" lon="4.68668">
        <ele>148</ele>
        <time>2024-04-06T11:04:27Z</time>
      </trkpt>
      <trkpt lat="49.90513" lon="4.68677">
        <ele>148.2</ele>
        <time>2024-04-06T11:04:28Z</time>
      </trkpt>
      <trkpt lat="49.90513" lon="4.68687">
        <ele>148.2</ele>
        <time>2024-04-06T11:04:29Z</time>
      </trkpt>
      <trkpt lat="49.90513" lon="4.68698">
        <ele>148.2</ele>
        <time>2024-04-06T11:04:30Z</time>
      </trkpt>
      <trkpt lat="49.90514" lon="4.68709">
        <ele>148</ele>
        <time>2024-04-06T11:04:31Z</time>
      </trkpt>
      <trkpt lat="49.90514" lon="4.68721">
        <ele>148</ele>
        <time>2024-04-06T11:04:32Z</time>
      </trkpt>
      <trkpt lat="49.90515" lon="4.68732">
        <ele>147.8</ele>
        <time>2024-04-06T11:04:33Z</time>
      </trkpt>
      <trkpt lat="49.90515" lon="4.68745">
        <ele>147.4</ele>
        <time>2024-04-06T11:04:34Z</time>
      </trkpt>
      <trkpt lat="49.90516" lon="4.68757">
        <ele>147.2</ele>
        <time>2024-04-06T11:04:35Z</time>
      </trkpt>
      <trkpt lat="49.90516" lon="4.6877">
        <ele>147</ele>
        <time>2024-04-06T11:04:36Z</time>
      </trkpt>
      <trkpt lat="49.90516" lon="4.68783">
        <ele>146.4</ele>
        <time>2024-04-06T11:04:37Z</time>
      </trkpt>
      <trkpt lat="49.90517" lon="4.68796">
        <ele>145.4</ele>
        <time>2024-04-06T11:04:38Z</time>
      </trkpt>
      <trkpt lat="49.90517" lon="4.68809">
        <ele>145</ele>
        <time>2024-04-06T11:04:39Z</time>
      </trkpt>
      <trkpt lat="49.90518" lon="4.68822">
        <ele>144.6</ele>
        <time>2024-04-06T11:04:40Z</time>
      </trkpt>
      <trkpt lat="49.90518" lon="4.68835">
        <ele>144.6</ele>
        <time>2024-04-06T11:04:41Z</time>
      </trkpt>
      <trkpt lat="49.90519" lon="4.68846">
        <ele>144.4</ele>
        <time>2024-04-06T11:04:42Z</time>
      </trkpt>
      <trkpt lat="49.90519" lon="4.68858">
        <ele>144.2</ele>
        <time>2024-04-06T11:04:43Z</time>
      </trkpt>
      <trkpt lat="49.9052" lon="4.68869">
        <ele>144</ele>
        <time>2024-04-06T11:04:44Z</time>
      </trkpt>
      <trkpt lat="49.90521" lon="4.68879">
        <ele>143.8</ele>
        <time>2024-04-06T11:04:45Z</time>
      </trkpt>
      <trkpt lat="49.90521" lon="4.6889">
        <ele>143.8</ele>
        <time>2024-04-06T11:04:46Z</time>
      </trkpt>
      <trkpt lat="49.90521" lon="4.689">
        <ele>143.8</ele>
        <time>2024-04-06T11:04:47Z</time>
      </trkpt>
      <trkpt lat="49.90522" lon="4.68911">
        <ele>143.8</ele>
        <time>2024-04-06T11:04:48Z</time>
      </trkpt>
      <trkpt lat="49.90522" lon="4.68921">
        <ele>143.8</ele>
        <time>2024-04-06T11:04:49Z</time>
      </trkpt>
      <trkpt lat="49.90523" lon="4.68932">
        <ele>144</ele>
        <time>2024-04-06T11:04:50Z</time>
      </trkpt>
      <trkpt lat="49.90523" lon="4.68943">
        <ele>143.8</ele>
        <time>2024-04-06T11:04:51Z</time>
      </trkpt>
      <trkpt lat="49.90523" lon="4.68953">
        <ele>143.8</ele>
        <time>2024-04-06T11:04:52Z</time>
      </trkpt>
      <trkpt lat="49.90523" lon="4.68964">
        <ele>143.8</ele>
        <time>2024-04-06T11:04:53Z</time>
      </trkpt>
      <trkpt lat="49.90524" lon="4.68975">
        <ele>144</ele>
        <time>2024-04-06T11:04:54Z</time>
      </trkpt>
      <trkpt lat="49.90524" lon="4.68986">
        <ele>144</ele>
        <time>2024-04-06T11:04:55Z</time>
      </trkpt>
      <trkpt lat="49.90525" lon="4.68998">
        <ele>143.8</ele>
        <time>2024-04-06T11:04:56Z</time>
      </trkpt>
      <trkpt lat="49.90525" lon="4.69009">
        <ele>143.8</ele>
        <time>2024-04-06T11:04:57Z</time>
      </trkpt>
      <trkpt lat="49.90526" lon="4.69021">
        <ele>143.8</ele>
        <time>2024-04-06T11:04:58Z</time>
      </trkpt>
      <trkpt lat="49.90529" lon="4.69033">
        <ele>143.8</ele>
        <time>2024-04-06T11:04:59Z</time>
      </trkpt>
      <trkpt lat="49.90532" lon="4.69044">
        <ele>143.8</ele>
        <time>2024-04-06T11:05:00Z</time>
      </trkpt>
      <trkpt lat="49.90536" lon="4.69055">
        <ele>143.8</ele>
        <time>2024-04-06T11:05:01Z</time>
      </trkpt>
      <trkpt lat="49.90541" lon="4.69064">
        <ele>143.8</ele>
        <time>2024-04-06T11:05:02Z</time>
      </trkpt>
      <trkpt lat="49.90547" lon="4.69073">
        <ele>143.8</ele>
        <time>2024-04-06T11:05:03Z</time>
      </trkpt>
      <trkpt lat="49.90553" lon="4.69081">
        <ele>143.4</ele>
        <time>2024-04-06T11:05:04Z</time>
      </trkpt>
      <trkpt lat="49.90559" lon="4.69087">
        <ele>143</ele>
        <time>2024-04-06T11:05:05Z</time>
      </trkpt>
      <trkpt lat="49.90566" lon="4.69093">
        <ele>142.6</ele>
        <time>2024-04-06T11:05:06Z</time>
      </trkpt>
      <trkpt lat="49.90573" lon="4.69098">
        <ele>142.2</ele>
        <time>2024-04-06T11:05:07Z</time>
      </trkpt>
      <trkpt lat="49.9058" lon="4.69102">
        <ele>142.2</ele>
        <time>2024-04-06T11:05:08Z</time>
      </trkpt>
      <trkpt lat="49.90587" lon="4.69104">
        <ele>142</ele>
        <time>2024-04-06T11:05:09Z</time>
      </trkpt>
      <trkpt lat="49.90594" lon="4.69106">
        <ele>141.8</ele>
        <time>2024-04-06T11:05:10Z</time>
      </trkpt>
      <trkpt lat="49.90601" lon="4.69107">
        <ele>141.8</ele>
        <time>2024-04-06T11:05:11Z</time>
      </trkpt>
      <trkpt lat="49.90607" lon="4.69107">
        <ele>141.6</ele>
        <time>2024-04-06T11:05:12Z</time>
      </trkpt>
      <trkpt lat="49.90613" lon="4.69107">
        <ele>141.6</ele>
        <time>2024-04-06T11:05:13Z</time>
      </trkpt>
      <trkpt lat="49.9062" lon="4.69107">
        <ele>141.6</ele>
        <time>2024-04-06T11:05:14Z</time>
      </trkpt>
      <trkpt lat="49.90626" lon="4.69107">
        <ele>141.6</ele>
        <time>2024-04-06T11:05:15Z</time>
      </trkpt>
      <trkpt lat="49.90632" lon="4.69106">
        <ele>141.6</ele>
        <time>2024-04-06T11:05:16Z</time>
      </trkpt>
      <trkpt lat="49.90638" lon="4.69105">
        <ele>141.4</ele>
        <time>2024-04-06T11:05:17Z</time>
      </trkpt>
      <trkpt lat="49.90643" lon="4.69104">
        <ele>141.4</ele>
        <time>2024-04-06T11:05:18Z</time>
      </trkpt>
      <trkpt lat="49.90649" lon="4.69102">
        <ele>141.4</ele>
        <time>2024-04-06T11:05:19Z</time>
      </trkpt>
      <trkpt lat="49.90654" lon="4.69101">
        <ele>141.6</ele>
        <time>2024-04-06T11:05:20Z</time>
      </trkpt>
      <trkpt lat="49.90659" lon="4.69102">
        <ele>141.6</ele>
        <time>2024-04-06T11:05:21Z</time>
      </trkpt>
      <trkpt lat="49.90665" lon="4.69103">
        <ele>141.4</ele>
        <time>2024-04-06T11:05:22Z</time>
      </trkpt>
      <trkpt lat="49.90671" lon="4.69102">
        <ele>141.6</ele>
        <time>2024-04-06T11:05:23Z</time>
      </trkpt>
      <trkpt lat="49.90677" lon="4.69102">
        <ele>142</ele>
        <time>2024-04-06T11:05:24Z</time>
      </trkpt>
      <trkpt lat="49.90682" lon="4.69101">
        <ele>142</ele>
        <time>2024-04-06T11:05:25Z</time>
      </trkpt>
      <trkpt lat="49.90688" lon="4.69101">
        <ele>142.4</ele>
        <time>2024-04-06T11:05:26Z</time>
      </trkpt>
      <trkpt lat="49.90694" lon="4.691">
        <ele>142.6</ele>
        <time>2024-04-06T11:05:27Z</time>
      </trkpt>
      <trkpt lat="49.90699" lon="4.69099">
        <ele>142.8</ele>
        <time>2024-04-06T11:05:28Z</time>
      </trkpt>
      <trkpt lat="49.90704" lon="4.69099">
        <ele>142.8</ele>
        <time>2024-04-06T11:05:29Z</time>
      </trkpt>
      <trkpt lat="49.9071" lon="4.69099">
        <ele>143</ele>
        <time>2024-04-06T11:05:30Z</time>
      </trkpt>
      <trkpt lat="49.90715" lon="4.69099">
        <ele>143</ele>
        <time>2024-04-06T11:05:31Z</time>
      </trkpt>
      <trkpt lat="49.9072" lon="4.69098">
        <ele>143.2</ele>
        <time>2024-04-06T11:05:32Z</time>
      </trkpt>
      <trkpt lat="49.90726" lon="4.69098">
        <ele>143.2</ele>
        <time>2024-04-06T11:05:33Z</time>
      </trkpt>
      <trkpt lat="49.90731" lon="4.69098">
        <ele>143.4</ele>
        <time>2024-04-06T11:05:34Z</time>
      </trkpt>
      <trkpt lat="49.90736" lon="4.69098">
        <ele>143.6</ele>
        <time>2024-04-06T11:05:35Z</time>
      </trkpt>
      <trkpt lat="49.90741" lon="4.69099">
        <ele>143.8</ele>
        <time>2024-04-06T11:05:36Z</time>
      </trkpt>
      <trkpt lat="49.90746" lon="4.69099">
        <ele>144.2</ele>
        <time>2024-04-06T11:05:37Z</time>
      </trkpt>
      <trkpt lat="49.90751" lon="4.69101">
        <ele>144.2</ele>
        <time>2024-04-06T11:05:38Z</time>
      </trkpt>
      <trkpt lat="49.90756" lon="4.69102">
        <ele>144.4</ele>
        <time>2024-04-06T11:05:39Z</time>
      </trkpt>
      <trkpt lat="49.90761" lon="4.69103">
        <ele>144.6</ele>
        <time>2024-04-06T11:05:40Z</time>
      </trkpt>
      <trkpt lat="49.90765" lon="4.69104">
        <ele>144.8</ele>
        <time>2024-04-06T11:05:41Z</time>
      </trkpt>
      <trkpt lat="49.9077" lon="4.69106">
        <ele>144.6</ele>
        <time>2024-04-06T11:05:42Z</time>
      </trkpt>
      <trkpt lat="49.90775" lon="4.69107">
        <ele>144.8</ele>
        <time>2024-04-06T11:05:43Z</time>
      </trkpt>
      <trkpt lat="49.90779" lon="4.69109">
        <ele>145</ele>
        <time>2024-04-06T11:05:44Z</time>
      </trkpt>
      <trkpt lat="49.90783" lon="4.69111">
        <ele>145.2</ele>
        <time>2024-04-06T11:05:45Z</time>
      </trkpt>
      <trkpt lat="49.90787" lon="4.69113">
        <ele>145.4</ele>
        <time>2024-04-06T11:05:46Z</time>
      </trkpt>
      <trkpt lat="49.90791" lon="4.69115">
        <ele>145.4</ele>
        <time>2024-04-06T11:05:47Z</time>
      </trkpt>
      <trkpt lat="49.90796" lon="4.69116">
        <ele>145.6</ele>
        <time>2024-04-06T11:05:48Z</time>
      </trkpt>
      <trkpt lat="49.908" lon="4.69118">
        <ele>145.8</ele>
        <time>2024-04-06T11:05:49Z</time>
      </trkpt>
      <trkpt lat="49.90804" lon="4.6912">
        <ele>146.2</ele>
        <time>2024-04-06T11:05:50Z</time>
      </trkpt>
      <trkpt lat="49.90808" lon="4.69123">
        <ele>146.6</ele>
        <time>2024-04-06T11:05:51Z</time>
      </trkpt>
      <trkpt lat="49.90812" lon="4.69125">
        <ele>146.8</ele>
        <time>2024-04-06T11:05:52Z</time>
      </trkpt>
      <trkpt lat="49.90816" lon="4.69128">
        <ele>147.2</ele>
        <time>2024-04-06T11:05:53Z</time>
      </trkpt>
      <trkpt lat="49.90819" lon="4.6913">
        <ele>147.2</ele>
        <time>2024-04-06T11:05:54Z</time>
      </trkpt>
      <trkpt lat="49.90823" lon="4.69133">
        <ele>147.6</ele>
        <time>2024-04-06T11:05:55Z</time>
      </trkpt>
      <trkpt lat="49.90827" lon="4.69136">
        <ele>148</ele>
        <time>2024-04-06T11:05:56Z</time>
      </trkpt>
      <trkpt lat="49.90831" lon="4.69139">
        <ele>148.6</ele>
        <time>2024-04-06T11:05:57Z</time>
      </trkpt>
      <trkpt lat="49.90834" lon="4.69143">
        <ele>148.8</ele>
        <time>2024-04-06T11:05:58Z</time>
      </trkpt>
      <trkpt lat="49.90838" lon="4.69146">
        <ele>149</ele>
        <time>2024-04-06T11:05:59Z</time>
      </trkpt>
      <trkpt lat="49.90841" lon="4.6915">
        <ele>149.2</ele>
        <time>2024-04-06T11:06:00Z</time>
      </trkpt>
      <trkpt lat="49.90845" lon="4.69153">
        <ele>149.4</ele>
        <time>2024-04-06T11:06:01Z</time>
      </trkpt>
      <trkpt lat="49.90848" lon="4.69157">
        <ele>149.4</ele>
        <time>2024-04-06T11:06:02Z</time>
      </trkpt>
      <trkpt lat="49.90852" lon="4.69161">
        <ele>149.4</ele>
        <time>2024-04-06T11:06:03Z</time>
      </trkpt>
      <trkpt lat="49.90855" lon="4.69164">
        <ele>149.6</ele>
        <time>2024-04-06T11:06:04Z</time>
      </trkpt>
      <trkpt lat="49.90859" lon="4.69168">
        <ele>149.4</ele>
        <time>2024-04-06T11:06:05Z</time>
      </trkpt>
      <trkpt lat="49.90862" lon="4.69172">
        <ele>149.6</ele>
        <time>2024-04-06T11:06:06Z</time>
      </trkpt>
      <trkpt lat="49.90865" lon="4.69176">
        <ele>149.6</ele>
        <time>2024-04-06T11:06:07Z</time>
      </trkpt>
      <trkpt lat="49.90868" lon="4.6918">
        <ele>149.8</ele>
        <time>2024-04-06T11:06:08Z</time>
      </trkpt>
      <trkpt lat="49.90872" lon="4.69184">
        <ele>149.8</ele>
        <time>2024-04-06T11:06:09Z</time>
      </trkpt>
      <trkpt lat="49.90875" lon="4.69187">
        <ele>150</ele>
        <time>2024-04-06T11:06:10Z</time>
      </trkpt>
      <trkpt lat="49.90878" lon="4.69191">
        <ele>150.6</ele>
        <time>2024-04-06T11:06:11Z</time>
      </trkpt>
      <trkpt lat="49.90881" lon="4.69195">
        <ele>151</ele>
        <time>2024-04-06T11:06:12Z</time>
      </trkpt>
      <trkpt lat="49.90884" lon="4.69198">
        <ele>151.2</ele>
        <time>2024-04-06T11:06:13Z</time>
      </trkpt>
      <trkpt lat="49.90887" lon="4.69202">
        <ele>151.6</ele>
        <time>2024-04-06T11:06:14Z</time>
      </trkpt>
      <trkpt lat="49.9089" lon="4.69206">
        <ele>151.6</ele>
        <time>2024-04-06T11:06:15Z</time>
      </trkpt>
      <trkpt lat="49.90893" lon="4.6921">
        <ele>151.6</ele>
        <time>2024-04-06T11:06:16Z</time>
      </trkpt>
      <trkpt lat="49.90896" lon="4.69213">
        <ele>152</ele>
        <time>2024-04-06T11:06:17Z</time>
      </trkpt>
      <trkpt lat="49.90899" lon="4.69217">
        <ele>151.8</ele>
        <time>2024-04-06T11:06:18Z</time>
      </trkpt>
      <trkpt lat="49.90902" lon="4.6922">
        <ele>151.8</ele>
        <time>2024-04-06T11:06:19Z</time>
      </trkpt>
      <trkpt lat="49.90905" lon="4.69224">
        <ele>152.2</ele>
        <time>2024-04-06T11:06:20Z</time>
      </trkpt>
      <trkpt lat="49.90908" lon="4.69228">
        <ele>152</ele>
        <time>2024-04-06T11:06:21Z</time>
      </trkpt>
      <trkpt lat="49.90912" lon="4.69231">
        <ele>152.2</ele>
        <time>2024-04-06T11:06:22Z</time>
      </trkpt>
      <trkpt lat="49.90914" lon="4.69235">
        <ele>152.2</ele>
        <time>2024-04-06T11:06:23Z</time>
      </trkpt>
      <trkpt lat="49.90917" lon="4.69239">
        <ele>152.2</ele>
        <time>2024-04-06T11:06:24Z</time>
      </trkpt>
      <trkpt lat="49.9092" lon="4.69243">
        <ele>152.4</ele>
        <time>2024-04-06T11:06:25Z</time>
      </trkpt>
      <trkpt lat="49.90923" lon="4.69247">
        <ele>152.2</ele>
        <time>2024-04-06T11:06:26Z</time>
      </trkpt>
      <trkpt lat="49.90926" lon="4.6925">
        <ele>152.4</ele>
        <time>2024-04-06T11:06:27Z</time>
      </trkpt>
      <trkpt lat="49.90929" lon="4.69254">
        <ele>152.6</ele>
        <time>2024-04-06T11:06:28Z</time>
      </trkpt>
      <trkpt lat="49.90932" lon="4.69258">
        <ele>152.8</ele>
        <time>2024-04-06T11:06:29Z</time>
      </trkpt>
      <trkpt lat="49.90935" lon="4.69261">
        <ele>152.8</ele>
        <time>2024-04-06T11:06:30Z</time>
      </trkpt>
      <trkpt lat="49.90939" lon="4.69265">
        <ele>153</ele>
        <time>2024-04-06T11:06:31Z</time>
      </trkpt>
      <trkpt lat="49.90942" lon="4.69269">
        <ele>153.4</ele>
        <time>2024-04-06T11:06:32Z</time>
      </trkpt>
      <trkpt lat="49.90945" lon="4.69272">
        <ele>153.4</ele>
        <time>2024-04-06T11:06:33Z</time>
      </trkpt>
      <trkpt lat="49.90948" lon="4.69276">
        <ele>153.8</ele>
        <time>2024-04-06T11:06:34Z</time>
      </trkpt>
      <trkpt lat="49.90951" lon="4.6928">
        <ele>153.8</ele>
        <time>2024-04-06T11:06:35Z</time>
      </trkpt>
      <trkpt lat="49.90954" lon="4.69283">
        <ele>154</ele>
        <time>2024-04-06T11:06:36Z</time>
      </trkpt>
      <trkpt lat="49.90957" lon="4.69287">
        <ele>154</ele>
        <time>2024-04-06T11:06:37Z</time>
      </trkpt>
      <trkpt lat="49.9096" lon="4.69291">
        <ele>154</ele>
        <time>2024-04-06T11:06:38Z</time>
      </trkpt>
      <trkpt lat="49.90963" lon="4.69295">
        <ele>154.2</ele>
        <time>2024-04-06T11:06:39Z</time>
      </trkpt>
      <trkpt lat="49.90966" lon="4.69298">
        <ele>154.4</ele>
        <time>2024-04-06T11:06:40Z</time>
      </trkpt>
      <trkpt lat="49.90969" lon="4.69302">
        <ele>154.4</ele>
        <time>2024-04-06T11:06:41Z</time>
      </trkpt>
      <trkpt lat="49.90972" lon="4.69306">
        <ele>155</ele>
        <time>2024-04-06T11:06:42Z</time>
      </trkpt>
      <trkpt lat="49.90976" lon="4.6931">
        <ele>155.4</ele>
        <time>2024-04-06T11:06:43Z</time>
      </trkpt>
      <trkpt lat="49.90979" lon="4.69314">
        <ele>155.6</ele>
        <time>2024-04-06T11:06:44Z</time>
      </trkpt>
      <trkpt lat="49.90982" lon="4.69318">
        <ele>155.8</ele>
        <time>2024-04-06T11:06:45Z</time>
      </trkpt>
      <trkpt lat="49.90985" lon="4.69322">
        <ele>155.8</ele>
        <time>2024-04-06T11:06:46Z</time>
      </trkpt>
      <trkpt lat="49.90988" lon="4.69326">
        <ele>156.2</ele>
        <time>2024-04-06T11:06:47Z</time>
      </trkpt>
      <trkpt lat="49.90991" lon="4.6933">
        <ele>156.2</ele>
        <time>2024-04-06T11:06:48Z</time>
      </trkpt>
      <trkpt lat="49.90994" lon="4.69334">
        <ele>156.4</ele>
        <time>2024-04-06T11:06:49Z</time>
      </trkpt>
      <trkpt lat="49.90997" lon="4.69338">
        <ele>156.6</ele>
        <time>2024-04-06T11:06:50Z</time>
      </trkpt>
      <trkpt lat="49.91001" lon="4.69342">
        <ele>156.6</ele>
        <time>2024-04-06T11:06:51Z</time>
      </trkpt>
      <trkpt lat="49.91004" lon="4.69346">
        <ele>156.8</ele>
        <time>2024-04-06T11:06:52Z</time>
      </trkpt>
      <trkpt lat="49.91007" lon="4.6935">
        <ele>157</ele>
        <time>2024-04-06T11:06:53Z</time>
      </trkpt>
      <trkpt lat="49.9101" lon="4.69354">
        <ele>157</ele>
        <time>2024-04-06T11:06:54Z</time>
      </trkpt>
      <trkpt lat="49.91013" lon="4.69358">
        <ele>157</ele>
        <time>2024-04-06T11:06:55Z</time>
      </trkpt>
      <trkpt lat="49.91016" lon="4.69361">
        <ele>157.2</ele>
        <time>2024-04-06T11:06:56Z</time>
      </trkpt>
      <trkpt lat="49.9102" lon="4.69365">
        <ele>157.2</ele>
        <time>2024-04-06T11:06:57Z</time>
      </trkpt>
      <trkpt lat="49.91023" lon="4.69369">
        <ele>157.4</ele>
        <time>2024-04-06T11:06:58Z</time>
      </trkpt>
      <trkpt lat="49.91026" lon="4.69373">
        <ele>157.2</ele>
        <time>2024-04-06T11:06:59Z</time>
      </trkpt>
      <trkpt lat="49.91029" lon="4.69377">
        <ele>157.6</ele>
        <time>2024-04-06T11:07:00Z</time>
      </trkpt>
      <trkpt lat="49.91032" lon="4.69381">
        <ele>157.6</ele>
        <time>2024-04-06T11:07:01Z</time>
      </trkpt>
      <trkpt lat="49.91036" lon="4.69385">
        <ele>157.6</ele>
        <time>2024-04-06T11:07:02Z</time>
      </trkpt>
      <trkpt lat="49.91039" lon="4.69389">
        <ele>157.8</ele>
        <time>2024-04-06T11:07:03Z</time>
      </trkpt>
      <trkpt lat="49.91042" lon="4.69394">
        <ele>157.6</ele>
        <time>2024-04-06T11:07:04Z</time>
      </trkpt>
      <trkpt lat="49.91046" lon="4.69398">
        <ele>157.8</ele>
        <time>2024-04-06T11:07:05Z</time>
      </trkpt>
      <trkpt lat="49.91049" lon="4.69402">
        <ele>158.2</ele>
        <time>2024-04-06T11:07:06Z</time>
      </trkpt>
      <trkpt lat="49.91052" lon="4.69406">
        <ele>158.6</ele>
        <time>2024-04-06T11:07:07Z</time>
      </trkpt>
      <trkpt lat="49.91056" lon="4.6941">
        <ele>158.8</ele>
        <time>2024-04-06T11:07:08Z</time>
      </trkpt>
      <trkpt lat="49.91059" lon="4.69414">
        <ele>158.8</ele>
        <time>2024-04-06T11:07:09Z</time>
      </trkpt>
      <trkpt lat="49.91062" lon="4.69418">
        <ele>159.2</ele>
        <time>2024-04-06T11:07:10Z</time>
      </trkpt>
      <trkpt lat="49.91065" lon="4.69422">
        <ele>159</ele>
        <time>2024-04-06T11:07:11Z</time>
      </trkpt>
      <trkpt lat="49.91069" lon="4.69426">
        <ele>159.2</ele>
        <time>2024-04-06T11:07:12Z</time>
      </trkpt>
      <trkpt lat="49.91072" lon="4.6943">
        <ele>159.2</ele>
        <time>2024-04-06T11:07:13Z</time>
      </trkpt>
      <trkpt lat="49.91075" lon="4.69433">
        <ele>159.4</ele>
        <time>2024-04-06T11:07:14Z</time>
      </trkpt>
      <trkpt lat="49.91078" lon="4.69437">
        <ele>159.2</ele>
        <time>2024-04-06T11:07:15Z</time>
      </trkpt>
      <trkpt lat="49.91082" lon="4.69441">
        <ele>159.4</ele>
        <time>2024-04-06T11:07:16Z</time>
      </trkpt>
      <trkpt lat="49.91085" lon="4.69445">
        <ele>159.4</ele>
        <time>2024-04-06T11:07:17Z</time>
      </trkpt>
      <trkpt lat="49.91089" lon="4.69448">
        <ele>159.4</ele>
        <time>2024-04-06T11:07:18Z</time>
      </trkpt>
      <trkpt lat="49.91092" lon="4.69452">
        <ele>159.4</ele>
        <time>2024-04-06T11:07:19Z</time>
      </trkpt>
      <trkpt lat="49.91096" lon="4.69456">
        <ele>159.6</ele>
        <time>2024-04-06T11:07:20Z</time>
      </trkpt>
      <trkpt lat="49.91099" lon="4.6946">
        <ele>159.8</ele>
        <time>2024-04-06T11:07:21Z</time>
      </trkpt>
      <trkpt lat="49.91102" lon="4.69465">
        <ele>159.8</ele>
        <time>2024-04-06T11:07:22Z</time>
      </trkpt>
      <trkpt lat="49.91105" lon="4.6947">
        <ele>160</ele>
        <time>2024-04-06T11:07:23Z</time>
      </trkpt>
      <trkpt lat="49.91107" lon="4.69475">
        <ele>160.2</ele>
        <time>2024-04-06T11:07:24Z</time>
      </trkpt>
      <trkpt lat="49.9111" lon="4.69481">
        <ele>160.4</ele>
        <time>2024-04-06T11:07:25Z</time>
      </trkpt>
      <trkpt lat="49.91113" lon="4.69487">
        <ele>160.6</ele>
        <time>2024-04-06T11:07:26Z</time>
      </trkpt>
      <trkpt lat="49.91116" lon="4.69492">
        <ele>160.8</ele>
        <time>2024-04-06T11:07:27Z</time>
      </trkpt>
      <trkpt lat="49.91118" lon="4.69498">
        <ele>161</ele>
        <time>2024-04-06T11:07:28Z</time>
      </trkpt>
      <trkpt lat="49.91121" lon="4.69503">
        <ele>161.2</ele>
        <time>2024-04-06T11:07:29Z</time>
      </trkpt>
      <trkpt lat="49.91124" lon="4.69509">
        <ele>161.4</ele>
        <time>2024-04-06T11:07:30Z</time>
      </trkpt>
      <trkpt lat="49.91127" lon="4.69514">
        <ele>161.6</ele>
        <time>2024-04-06T11:07:31Z</time>
      </trkpt>
      <trkpt lat="49.91129" lon="4.6952">
        <ele>161.6</ele>
        <time>2024-04-06T11:07:32Z</time>
      </trkpt>
      <trkpt lat="49.91132" lon="4.69525">
        <ele>161.8</ele>
        <time>2024-04-06T11:07:33Z</time>
      </trkpt>
      <trkpt lat="49.91134" lon="4.69531">
        <ele>161.8</ele>
        <time>2024-04-06T11:07:34Z</time>
      </trkpt>
      <trkpt lat="49.91137" lon="4.69537">
        <ele>162.2</ele>
        <time>2024-04-06T11:07:35Z</time>
      </trkpt>
      <trkpt lat="49.91139" lon="4.69542">
        <ele>162.4</ele>
        <time>2024-04-06T11:07:36Z</time>
      </trkpt>
      <trkpt lat="49.91141" lon="4.69548">
        <ele>162.6</ele>
        <time>2024-04-06T11:07:37Z</time>
      </trkpt>
      <trkpt lat="49.91144" lon="4.69554">
        <ele>162.6</ele>
        <time>2024-04-06T11:07:38Z</time>
      </trkpt>
      <trkpt lat="49.91146" lon="4.6956">
        <ele>162.8</ele>
        <time>2024-04-06T11:07:39Z</time>
      </trkpt>
      <trkpt lat="49.91148" lon="4.69565">
        <ele>163</ele>
        <time>2024-04-06T11:07:40Z</time>
      </trkpt>
      <trkpt lat="49.9115" lon="4.69571">
        <ele>163.2</ele>
        <time>2024-04-06T11:07:41Z</time>
      </trkpt>
      <trkpt lat="49.91152" lon="4.69577">
        <ele>163</ele>
        <time>2024-04-06T11:07:42Z</time>
      </trkpt>
      <trkpt lat="49.91154" lon="4.69583">
        <ele>163.2</ele>
        <time>2024-04-06T11:07:43Z</time>
      </trkpt>
      <trkpt lat="49.91155" lon="4.69589">
        <ele>163.2</ele>
        <time>2024-04-06T11:07:44Z</time>
      </trkpt>
      <trkpt lat="49.91157" lon="4.69596">
        <ele>163.4</ele>
        <time>2024-04-06T11:07:45Z</time>
      </trkpt>
      <trkpt lat="49.91159" lon="4.69602">
        <ele>163.4</ele>
        <time>2024-04-06T11:07:46Z</time>
      </trkpt>
      <trkpt lat="49.9116" lon="4.69608">
        <ele>163.4</ele>
        <time>2024-04-06T11:07:47Z</time>
      </trkpt>
      <trkpt lat="49.91162" lon="4.69615">
        <ele>163.8</ele>
        <time>2024-04-06T11:07:48Z</time>
      </trkpt>
      <trkpt lat="49.91163" lon="4.69622">
        <ele>163.6</ele>
        <time>2024-04-06T11:07:49Z</time>
      </trkpt>
      <trkpt lat="49.91164" lon="4.69628">
        <ele>163.8</ele>
        <time>2024-04-06T11:07:50Z</time>
      </trkpt>
      <trkpt lat="49.91165" lon="4.69635">
        <ele>164</ele>
        <time>2024-04-06T11:07:51Z</time>
      </trkpt>
      <trkpt lat="49.91166" lon="4.69642">
        <ele>164</ele>
        <time>2024-04-06T11:07:52Z</time>
      </trkpt>
      <trkpt lat="49.91167" lon="4.69649">
        <ele>164</ele>
        <time>2024-04-06T11:07:53Z</time>
      </trkpt>
      <trkpt lat="49.91168" lon="4.69655">
        <ele>164</ele>
        <time>2024-04-06T11:07:54Z</time>
      </trkpt>
      <trkpt lat="49.91169" lon="4.69662">
        <ele>164.2</ele>
        <time>2024-04-06T11:07:55Z</time>
      </trkpt>
      <trkpt lat="49.9117" lon="4.69668">
        <ele>164.4</ele>
        <time>2024-04-06T11:07:56Z</time>
      </trkpt>
      <trkpt lat="49.9117" lon="4.69675">
        <ele>164.4</ele>
        <time>2024-04-06T11:07:57Z</time>
      </trkpt>
      <trkpt lat="49.91171" lon="4.69681">
        <ele>164.6</ele>
        <time>2024-04-06T11:07:58Z</time>
      </trkpt>
      <trkpt lat="49.91171" lon="4.69688">
        <ele>164.8</ele>
        <time>2024-04-06T11:07:59Z</time>
      </trkpt>
      <trkpt lat="49.91172" lon="4.69694">
        <ele>164.8</ele>
        <time>2024-04-06T11:08:00Z</time>
      </trkpt>
      <trkpt lat="49.91172" lon="4.69701">
        <ele>165</ele>
        <time>2024-04-06T11:08:01Z</time>
      </trkpt>
      <trkpt lat="49.91172" lon="4.69707">
        <ele>165</ele>
        <time>2024-04-06T11:08:02Z</time>
      </trkpt>
      <trkpt lat="49.91172" lon="4.69714">
        <ele>165.2</ele>
        <time>2024-04-06T11:08:03Z</time>
      </trkpt>
      <trkpt lat="49.91172" lon="4.69721">
        <ele>165.2</ele>
        <time>2024-04-06T11:08:04Z</time>
      </trkpt>
      <trkpt lat="49.91172" lon="4.69727">
        <ele>165.2</ele>
        <time>2024-04-06T11:08:05Z</time>
      </trkpt>
      <trkpt lat="49.91171" lon="4.69734">
        <ele>165.4</ele>
        <time>2024-04-06T11:08:06Z</time>
      </trkpt>
      <trkpt lat="49.91171" lon="4.69741">
        <ele>165.6</ele>
        <time>2024-04-06T11:08:07Z</time>
      </trkpt>
      <trkpt lat="49.91171" lon="4.69748">
        <ele>165.6</ele>
        <time>2024-04-06T11:08:08Z</time>
      </trkpt>
      <trkpt lat="49.9117" lon="4.69755">
        <ele>165.8</ele>
        <time>2024-04-06T11:08:09Z</time>
      </trkpt>
      <trkpt lat="49.9117" lon="4.69762">
        <ele>166.2</ele>
        <time>2024-04-06T11:08:10Z</time>
      </trkpt>
      <trkpt lat="49.91169" lon="4.69769">
        <ele>166.4</ele>
        <time>2024-04-06T11:08:11Z</time>
      </trkpt>
      <trkpt lat="49.91168" lon="4.69776">
        <ele>166.8</ele>
        <time>2024-04-06T11:08:12Z</time>
      </trkpt>
      <trkpt lat="49.91168" lon="4.69783">
        <ele>167.2</ele>
        <time>2024-04-06T11:08:13Z</time>
      </trkpt>
      <trkpt lat="49.91167" lon="4.6979">
        <ele>167.4</ele>
        <time>2024-04-06T11:08:14Z</time>
      </trkpt>
      <trkpt lat="49.91166" lon="4.69797">
        <ele>167.4</ele>
        <time>2024-04-06T11:08:15Z</time>
      </trkpt>
      <trkpt lat="49.91165" lon="4.69804">
        <ele>167.6</ele>
        <time>2024-04-06T11:08:16Z</time>
      </trkpt>
      <trkpt lat="49.91165" lon="4.69811">
        <ele>167.6</ele>
        <time>2024-04-06T11:08:17Z</time>
      </trkpt>
      <trkpt lat="49.91164" lon="4.69819">
        <ele>167.8</ele>
        <time>2024-04-06T11:08:18Z</time>
      </trkpt>
      <trkpt lat="49.91163" lon="4.69826">
        <ele>167.6</ele>
        <time>2024-04-06T11:08:19Z</time>
      </trkpt>
      <trkpt lat="49.91162" lon="4.69835">
        <ele>167.6</ele>
        <time>2024-04-06T11:08:20Z</time>
      </trkpt>
      <trkpt lat="49.9116" lon="4.69843">
        <ele>167.6</ele>
        <time>2024-04-06T11:08:21Z</time>
      </trkpt>
      <trkpt lat="49.91158" lon="4.69853">
        <ele>167.6</ele>
        <time>2024-04-06T11:08:22Z</time>
      </trkpt>
      <trkpt lat="49.91157" lon="4.69862">
        <ele>167.6</ele>
        <time>2024-04-06T11:08:23Z</time>
      </trkpt>
      <trkpt lat="49.91155" lon="4.69873">
        <ele>167.6</ele>
        <time>2024-04-06T11:08:24Z</time>
      </trkpt>
      <trkpt lat="49.91154" lon="4.69885">
        <ele>167.4</ele>
        <time>2024-04-06T11:08:25Z</time>
      </trkpt>
      <trkpt lat="49.91151" lon="4.69896">
        <ele>167.6</ele>
        <time>2024-04-06T11:08:26Z</time>
      </trkpt>
      <trkpt lat="49.91149" lon="4.69908">
        <ele>167.6</ele>
        <time>2024-04-06T11:08:27Z</time>
      </trkpt>
      <trkpt lat="49.91146" lon="4.6992">
        <ele>167.2</ele>
        <time>2024-04-06T11:08:28Z</time>
      </trkpt>
      <trkpt lat="49.91143" lon="4.69933">
        <ele>167</ele>
        <time>2024-04-06T11:08:29Z</time>
      </trkpt>
      <trkpt lat="49.91139" lon="4.69945">
        <ele>166.8</ele>
        <time>2024-04-06T11:08:30Z</time>
      </trkpt>
      <trkpt lat="49.91134" lon="4.69958">
        <ele>167</ele>
        <time>2024-04-06T11:08:31Z</time>
      </trkpt>
      <trkpt lat="49.91129" lon="4.6997">
        <ele>166.6</ele>
        <time>2024-04-06T11:08:32Z</time>
      </trkpt>
      <trkpt lat="49.91124" lon="4.69983">
        <ele>166.6</ele>
        <time>2024-04-06T11:08:33Z</time>
      </trkpt>
      <trkpt lat="49.91118" lon="4.69995">
        <ele>165.8</ele>
        <time>2024-04-06T11:08:34Z</time>
      </trkpt>
      <trkpt lat="49.91111" lon="4.70008">
        <ele>165.2</ele>
        <time>2024-04-06T11:08:35Z</time>
      </trkpt>
      <trkpt lat="49.91105" lon="4.7002">
        <ele>165</ele>
        <time>2024-04-06T11:08:36Z</time>
      </trkpt>
      <trkpt lat="49.91098" lon="4.70033">
        <ele>164</ele>
        <time>2024-04-06T11:08:37Z</time>
      </trkpt>
      <trkpt lat="49.91091" lon="4.70046">
        <ele>163</ele>
        <time>2024-04-06T11:08:38Z</time>
      </trkpt>
      <trkpt lat="49.91084" lon="4.70059">
        <ele>162.8</ele>
        <time>2024-04-06T11:08:39Z</time>
      </trkpt>
      <trkpt lat="49.91077" lon="4.70072">
        <ele>162.2</ele>
        <time>2024-04-06T11:08:40Z</time>
      </trkpt>
      <trkpt lat="49.9107" lon="4.70086">
        <ele>161.6</ele>
        <time>2024-04-06T11:08:41Z</time>
      </trkpt>
      <trkpt lat="49.91062" lon="4.701">
        <ele>160.2</ele>
        <time>2024-04-06T11:08:42Z</time>
      </trkpt>
      <trkpt lat="49.91055" lon="4.70114">
        <ele>159.4</ele>
        <time>2024-04-06T11:08:43Z</time>
      </trkpt>
      <trkpt lat="49.91047" lon="4.70128">
        <ele>158.6</ele>
        <time>2024-04-06T11:08:44Z</time>
      </trkpt>
      <trkpt lat="49.9104" lon="4.70143">
        <ele>157.4</ele>
        <time>2024-04-06T11:08:45Z</time>
      </trkpt>
      <trkpt lat="49.91032" lon="4.70158">
        <ele>156.8</ele>
        <time>2024-04-06T11:08:46Z</time>
      </trkpt>
      <trkpt lat="49.91024" lon="4.70173">
        <ele>156.2</ele>
        <time>2024-04-06T11:08:47Z</time>
      </trkpt>
      <trkpt lat="49.91016" lon="4.70189">
        <ele>155.8</ele>
        <time>2024-04-06T11:08:48Z</time>
      </trkpt>
      <trkpt lat="49.91008" lon="4.70204">
        <ele>154.8</ele>
        <time>2024-04-06T11:08:49Z</time>
      </trkpt>
      <trkpt lat="49.90999" lon="4.70219">
        <ele>153.8</ele>
        <time>2024-04-06T11:08:50Z</time>
      </trkpt>
      <trkpt lat="49.9099" lon="4.70233">
        <ele>153</ele>
        <time>2024-04-06T11:08:51Z</time>
      </trkpt>
      <trkpt lat="49.9098" lon="4.70245">
        <ele>152</ele>
        <time>2024-04-06T11:08:52Z</time>
      </trkpt>
      <trkpt lat="49.90969" lon="4.70256">
        <ele>151</ele>
        <time>2024-04-06T11:08:53Z</time>
      </trkpt>
      <trkpt lat="49.90958" lon="4.70267">
        <ele>151</ele>
        <time>2024-04-06T11:08:54Z</time>
      </trkpt>
      <trkpt lat="49.90946" lon="4.70275">
        <ele>149.6</ele>
        <time>2024-04-06T11:08:55Z</time>
      </trkpt>
      <trkpt lat="49.90935" lon="4.70283">
        <ele>148.8</ele>
        <time>2024-04-06T11:08:56Z</time>
      </trkpt>
      <trkpt lat="49.90923" lon="4.7029">
        <ele>147.4</ele>
        <time>2024-04-06T11:08:57Z</time>
      </trkpt>
      <trkpt lat="49.90912" lon="4.70295">
        <ele>145.8</ele>
        <time>2024-04-06T11:08:58Z</time>
      </trkpt>
      <trkpt lat="49.909" lon="4.703">
        <ele>144.6</ele>
        <time>2024-04-06T11:08:59Z</time>
      </trkpt>
      <trkpt lat="49.9089" lon="4.70306">
        <ele>144</ele>
        <time>2024-04-06T11:09:00Z</time>
      </trkpt>
      <trkpt lat="49.90879" lon="4.70311">
        <ele>142.8</ele>
        <time>2024-04-06T11:09:01Z</time>
      </trkpt>
      <trkpt lat="49.90869" lon="4.70316">
        <ele>142.2</ele>
        <time>2024-04-06T11:09:02Z</time>
      </trkpt>
      <trkpt lat="49.90858" lon="4.7032">
        <ele>141.8</ele>
        <time>2024-04-06T11:09:03Z</time>
      </trkpt>
      <trkpt lat="49.90848" lon="4.70325">
        <ele>141.6</ele>
        <time>2024-04-06T11:09:04Z</time>
      </trkpt>
      <trkpt lat="49.90838" lon="4.7033">
        <ele>141.4</ele>
        <time>2024-04-06T11:09:05Z</time>
      </trkpt>
      <trkpt lat="49.90828" lon="4.70334">
        <ele>140.8</ele>
        <time>2024-04-06T11:09:06Z</time>
      </trkpt>
      <trkpt lat="49.90818" lon="4.70338">
        <ele>140.6</ele>
        <time>2024-04-06T11:09:07Z</time>
      </trkpt>
      <trkpt lat="49.90809" lon="4.70343">
        <ele>140.4</ele>
        <time>2024-04-06T11:09:08Z</time>
      </trkpt>
      <trkpt lat="49.90799" lon="4.70347">
        <ele>140.4</ele>
        <time>2024-04-06T11:09:09Z</time>
      </trkpt>
      <trkpt lat="49.9079" lon="4.70351">
        <ele>140.2</ele>
        <time>2024-04-06T11:09:10Z</time>
      </trkpt>
      <trkpt lat="49.9078" lon="4.70356">
        <ele>140.2</ele>
        <time>2024-04-06T11:09:11Z</time>
      </trkpt>
      <trkpt lat="49.90771" lon="4.7036">
        <ele>140.4</ele>
        <time>2024-04-06T11:09:12Z</time>
      </trkpt>
      <trkpt lat="49.90763" lon="4.70364">
        <ele>140.4</ele>
        <time>2024-04-06T11:09:13Z</time>
      </trkpt>
      <trkpt lat="49.90754" lon="4.70368">
        <ele>140.4</ele>
        <time>2024-04-06T11:09:14Z</time>
      </trkpt>
      <trkpt lat="49.90746" lon="4.70372">
        <ele>140.4</ele>
        <time>2024-04-06T11:09:15Z</time>
      </trkpt>
      <trkpt lat="49.90737" lon="4.70375">
        <ele>140.6</ele>
        <time>2024-04-06T11:09:16Z</time>
      </trkpt>
      <trkpt lat="49.90729" lon="4.70379">
        <ele>140.8</ele>
        <time>2024-04-06T11:09:17Z</time>
      </trkpt>
      <trkpt lat="49.90721" lon="4.70383">
        <ele>140.6</ele>
        <time>2024-04-06T11:09:18Z</time>
      </trkpt>
      <trkpt lat="49.90713" lon="4.70387">
        <ele>140.8</ele>
        <time>2024-04-06T11:09:19Z</time>
      </trkpt>
      <trkpt lat="49.90705" lon="4.7039">
        <ele>140.8</ele>
        <time>2024-04-06T11:09:20Z</time>
      </trkpt>
      <trkpt lat="49.90698" lon="4.70393">
        <ele>141</ele>
        <time>2024-04-06T11:09:21Z</time>
      </trkpt>
      <trkpt lat="49.9069" lon="4.70396">
        <ele>140.8</ele>
        <time>2024-04-06T11:09:22Z</time>
      </trkpt>
      <trkpt lat="49.90682" lon="4.704">
        <ele>141</ele>
        <time>2024-04-06T11:09:23Z</time>
      </trkpt>
      <trkpt lat="49.90675" lon="4.70403">
        <ele>141</ele>
        <time>2024-04-06T11:09:24Z</time>
      </trkpt>
      <trkpt lat="49.90667" lon="4.70407">
        <ele>141</ele>
        <time>2024-04-06T11:09:25Z</time>
      </trkpt>
      <trkpt lat="49.9066" lon="4.70411">
        <ele>141</ele>
        <time>2024-04-06T11:09:26Z</time>
      </trkpt>
      <trkpt lat="49.90652" lon="4.70415">
        <ele>141.2</ele>
        <time>2024-04-06T11:09:27Z</time>
      </trkpt>
      <trkpt lat="49.90644" lon="4.70418">
        <ele>141.2</ele>
        <time>2024-04-06T11:09:28Z</time>
      </trkpt>
      <trkpt lat="49.90637" lon="4.70422">
        <ele>141.6</ele>
        <time>2024-04-06T11:09:29Z</time>
      </trkpt>
      <trkpt lat="49.9063" lon="4.70425">
        <ele>141.6</ele>
        <time>2024-04-06T11:09:30Z</time>
      </trkpt>
      <trkpt lat="49.90622" lon="4.70429">
        <ele>141.8</ele>
        <time>2024-04-06T11:09:31Z</time>
      </trkpt>
      <trkpt lat="49.90615" lon="4.70432">
        <ele>142</ele>
        <time>2024-04-06T11:09:32Z</time>
      </trkpt>
      <trkpt lat="49.90608" lon="4.70435">
        <ele>142</ele>
        <time>2024-04-06T11:09:33Z</time>
      </trkpt>
      <trkpt lat="49.90601" lon="4.70439">
        <ele>142</ele>
        <time>2024-04-06T11:09:34Z</time>
      </trkpt>
      <trkpt lat="49.90594" lon="4.70442">
        <ele>142</ele>
        <time>2024-04-06T11:09:35Z</time>
      </trkpt>
      <trkpt lat="49.90588" lon="4.70444">
        <ele>142.4</ele>
        <time>2024-04-06T11:09:36Z</time>
      </trkpt>
      <trkpt lat="49.90581" lon="4.70447">
        <ele>142.4</ele>
        <time>2024-04-06T11:09:37Z</time>
      </trkpt>
      <trkpt lat="49.90575" lon="4.70448">
        <ele>142.4</ele>
        <time>2024-04-06T11:09:38Z</time>
      </trkpt>
      <trkpt lat="49.90568" lon="4.7045">
        <ele>142.4</ele>
        <time>2024-04-06T11:09:39Z</time>
      </trkpt>
      <trkpt lat="49.90562" lon="4.70452">
        <ele>142.6</ele>
        <time>2024-04-06T11:09:40Z</time>
      </trkpt>
      <trkpt lat="49.90556" lon="4.70454">
        <ele>143</ele>
        <time>2024-04-06T11:09:41Z</time>
      </trkpt>
      <trkpt lat="49.9055" lon="4.70455">
        <ele>143</ele>
        <time>2024-04-06T11:09:42Z</time>
      </trkpt>
      <trkpt lat="49.90544" lon="4.70456">
        <ele>143.2</ele>
        <time>2024-04-06T11:09:43Z</time>
      </trkpt>
      <trkpt lat="49.90539" lon="4.70457">
        <ele>143.2</ele>
        <time>2024-04-06T11:09:44Z</time>
      </trkpt>
      <trkpt lat="49.90533" lon="4.70458">
        <ele>143.4</ele>
        <time>2024-04-06T11:09:45Z</time>
      </trkpt>
      <trkpt lat="49.90528" lon="4.7046">
        <ele>143.6</ele>
        <time>2024-04-06T11:09:46Z</time>
      </trkpt>
      <trkpt lat="49.90522" lon="4.70462">
        <ele>143.6</ele>
        <time>2024-04-06T11:09:47Z</time>
      </trkpt>
      <trkpt lat="49.90516" lon="4.70464">
        <ele>143.6</ele>
        <time>2024-04-06T11:09:48Z</time>
      </trkpt>
      <trkpt lat="49.90509" lon="4.70466">
        <ele>144</ele>
        <time>2024-04-06T11:09:49Z</time>
      </trkpt>
      <trkpt lat="49.90503" lon="4.70468">
        <ele>144</ele>
        <time>2024-04-06T11:09:50Z</time>
      </trkpt>
      <trkpt lat="49.90497" lon="4.70469">
        <ele>144.2</ele>
        <time>2024-04-06T11:09:51Z</time>
      </trkpt>
      <trkpt lat="49.90491" lon="4.70472">
        <ele>144.2</ele>
        <time>2024-04-06T11:09:52Z</time>
      </trkpt>
      <trkpt lat="49.90485" lon="4.70474">
        <ele>144.4</ele>
        <time>2024-04-06T11:09:53Z</time>
      </trkpt>
      <trkpt lat="49.90478" lon="4.70476">
        <ele>144.4</ele>
        <time>2024-04-06T11:09:54Z</time>
      </trkpt>
      <trkpt lat="49.90472" lon="4.70478">
        <ele>144.4</ele>
        <time>2024-04-06T11:09:55Z</time>
      </trkpt>
      <trkpt lat="49.90466" lon="4.7048">
        <ele>144.2</ele>
        <time>2024-04-06T11:09:56Z</time>
      </trkpt>
      <trkpt lat="49.9046" lon="4.70482">
        <ele>144.4</ele>
        <time>2024-04-06T11:09:57Z</time>
      </trkpt>
      <trkpt lat="49.90453" lon="4.70484">
        <ele>144.4</ele>
        <time>2024-04-06T11:09:58Z</time>
      </trkpt>
      <trkpt lat="49.90447" lon="4.70487">
        <ele>144.6</ele>
        <time>2024-04-06T11:09:59Z</time>
      </trkpt>
      <trkpt lat="49.90441" lon="4.70489">
        <ele>144.4</ele>
        <time>2024-04-06T11:10:00Z</time>
      </trkpt>
      <trkpt lat="49.90434" lon="4.7049">
        <ele>144.2</ele>
        <time>2024-04-06T11:10:01Z</time>
      </trkpt>
      <trkpt lat="49.90428" lon="4.70492">
        <ele>144.4</ele>
        <time>2024-04-06T11:10:02Z</time>
      </trkpt>
      <trkpt lat="49.90423" lon="4.70493">
        <ele>144.4</ele>
        <time>2024-04-06T11:10:03Z</time>
      </trkpt>
      <trkpt lat="49.90416" lon="4.70494">
        <ele>144.4</ele>
        <time>2024-04-06T11:10:04Z</time>
      </trkpt>
      <trkpt lat="49.90411" lon="4.70495">
        <ele>144.4</ele>
        <time>2024-04-06T11:10:05Z</time>
      </trkpt>
      <trkpt lat="49.90405" lon="4.70496">
        <ele>144.6</ele>
        <time>2024-04-06T11:10:06Z</time>
      </trkpt>
      <trkpt lat="49.90399" lon="4.70497">
        <ele>144.8</ele>
        <time>2024-04-06T11:10:07Z</time>
      </trkpt>
      <trkpt lat="49.90393" lon="4.70497">
        <ele>144.8</ele>
        <time>2024-04-06T11:10:08Z</time>
      </trkpt>
      <trkpt lat="49.90386" lon="4.70498">
        <ele>145</ele>
        <time>2024-04-06T11:10:09Z</time>
      </trkpt>
      <trkpt lat="49.9038" lon="4.70499">
        <ele>145.2</ele>
        <time>2024-04-06T11:10:10Z</time>
      </trkpt>
      <trkpt lat="49.90374" lon="4.70499">
        <ele>145.4</ele>
        <time>2024-04-06T11:10:11Z</time>
      </trkpt>
      <trkpt lat="49.90368" lon="4.70499">
        <ele>145.4</ele>
        <time>2024-04-06T11:10:12Z</time>
      </trkpt>
      <trkpt lat="49.90362" lon="4.70499">
        <ele>145.6</ele>
        <time>2024-04-06T11:10:13Z</time>
      </trkpt>
      <trkpt lat="49.90356" lon="4.70499">
        <ele>145.8</ele>
        <time>2024-04-06T11:10:14Z</time>
      </trkpt>
      <trkpt lat="49.9035" lon="4.70498">
        <ele>145.6</ele>
        <time>2024-04-06T11:10:15Z</time>
      </trkpt>
      <trkpt lat="49.90343" lon="4.70498">
        <ele>145.8</ele>
        <time>2024-04-06T11:10:16Z</time>
      </trkpt>
      <trkpt lat="49.90337" lon="4.70498">
        <ele>146.2</ele>
        <time>2024-04-06T11:10:17Z</time>
      </trkpt>
      <trkpt lat="49.90331" lon="4.70497">
        <ele>146.6</ele>
        <time>2024-04-06T11:10:18Z</time>
      </trkpt>
      <trkpt lat="49.90324" lon="4.70497">
        <ele>147.2</ele>
        <time>2024-04-06T11:10:19Z</time>
      </trkpt>
      <trkpt lat="49.90318" lon="4.70497">
        <ele>147.4</ele>
        <time>2024-04-06T11:10:20Z</time>
      </trkpt>
      <trkpt lat="49.90312" lon="4.70496">
        <ele>147.8</ele>
        <time>2024-04-06T11:10:21Z</time>
      </trkpt>
      <trkpt lat="49.90306" lon="4.70495">
        <ele>147.8</ele>
        <time>2024-04-06T11:10:22Z</time>
      </trkpt>
      <trkpt lat="49.90301" lon="4.70495">
        <ele>147.8</ele>
        <time>2024-04-06T11:10:23Z</time>
      </trkpt>
      <trkpt lat="49.90295" lon="4.70494">
        <ele>148</ele>
        <time>2024-04-06T11:10:24Z</time>
      </trkpt>
      <trkpt lat="49.90289" lon="4.70494">
        <ele>148</ele>
        <time>2024-04-06T11:10:25Z</time>
      </trkpt>
      <trkpt lat="49.90284" lon="4.70493">
        <ele>148</ele>
        <time>2024-04-06T11:10:26Z</time>
      </trkpt>
      <trkpt lat="49.90278" lon="4.70492">
        <ele>148.2</ele>
        <time>2024-04-06T11:10:27Z</time>
      </trkpt>
      <trkpt lat="49.90273" lon="4.70492">
        <ele>148.2</ele>
        <time>2024-04-06T11:10:28Z</time>
      </trkpt>
      <trkpt lat="49.90267" lon="4.70491">
        <ele>148.4</ele>
        <time>2024-04-06T11:10:29Z</time>
      </trkpt>
      <trkpt lat="49.90261" lon="4.70491">
        <ele>148.6</ele>
        <time>2024-04-06T11:10:30Z</time>
      </trkpt>
      <trkpt lat="49.90256" lon="4.7049">
        <ele>148.8</ele>
        <time>2024-04-06T11:10:31Z</time>
      </trkpt>
      <trkpt lat="49.9025" lon="4.70489">
        <ele>149</ele>
        <time>2024-04-06T11:10:32Z</time>
      </trkpt>
      <trkpt lat="49.90245" lon="4.70489">
        <ele>149.2</ele>
        <time>2024-04-06T11:10:33Z</time>
      </trkpt>
      <trkpt lat="49.90239" lon="4.70489">
        <ele>149.2</ele>
        <time>2024-04-06T11:10:34Z</time>
      </trkpt>
      <trkpt lat="49.90234" lon="4.70488">
        <ele>149.2</ele>
        <time>2024-04-06T11:10:35Z</time>
      </trkpt>
      <trkpt lat="49.90228" lon="4.70488">
        <ele>149.6</ele>
        <time>2024-04-06T11:10:36Z</time>
      </trkpt>
      <trkpt lat="49.90222" lon="4.70487">
        <ele>149.8</ele>
        <time>2024-04-06T11:10:37Z</time>
      </trkpt>
      <trkpt lat="49.90216" lon="4.70486">
        <ele>149.8</ele>
        <time>2024-04-06T11:10:38Z</time>
      </trkpt>
      <trkpt lat="49.9021" lon="4.70485">
        <ele>150</ele>
        <time>2024-04-06T11:10:39Z</time>
      </trkpt>
      <trkpt lat="49.90204" lon="4.70484">
        <ele>149.8</ele>
        <time>2024-04-06T11:10:40Z</time>
      </trkpt>
      <trkpt lat="49.90198" lon="4.70483">
        <ele>150</ele>
        <time>2024-04-06T11:10:41Z</time>
      </trkpt>
      <trkpt lat="49.90192" lon="4.70482">
        <ele>149.8</ele>
        <time>2024-04-06T11:10:42Z</time>
      </trkpt>
      <trkpt lat="49.90186" lon="4.70481">
        <ele>150</ele>
        <time>2024-04-06T11:10:43Z</time>
      </trkpt>
      <trkpt lat="49.90179" lon="4.7048">
        <ele>150</ele>
        <time>2024-04-06T11:10:44Z</time>
      </trkpt>
      <trkpt lat="49.90173" lon="4.70479">
        <ele>150</ele>
        <time>2024-04-06T11:10:45Z</time>
      </trkpt>
      <trkpt lat="49.90167" lon="4.70478">
        <ele>149.8</ele>
        <time>2024-04-06T11:10:46Z</time>
      </trkpt>
      <trkpt lat="49.9016" lon="4.70476">
        <ele>149.8</ele>
        <time>2024-04-06T11:10:47Z</time>
      </trkpt>
      <trkpt lat="49.90153" lon="4.70475">
        <ele>149.8</ele>
        <time>2024-04-06T11:10:48Z</time>
      </trkpt>
      <trkpt lat="49.90146" lon="4.70473">
        <ele>149.8</ele>
        <time>2024-04-06T11:10:49Z</time>
      </trkpt>
      <trkpt lat="49.90139" lon="4.70471">
        <ele>149.8</ele>
        <time>2024-04-06T11:10:50Z</time>
      </trkpt>
      <trkpt lat="49.90132" lon="4.70469">
        <ele>149.8</ele>
        <time>2024-04-06T11:10:51Z</time>
      </trkpt>
      <trkpt lat="49.90124" lon="4.70467">
        <ele>149.8</ele>
        <time>2024-04-06T11:10:52Z</time>
      </trkpt>
      <trkpt lat="49.90116" lon="4.70465">
        <ele>149.6</ele>
        <time>2024-04-06T11:10:53Z</time>
      </trkpt>
      <trkpt lat="49.90108" lon="4.70463">
        <ele>149.8</ele>
        <time>2024-04-06T11:10:54Z</time>
      </trkpt>
      <trkpt lat="49.901" lon="4.70461">
        <ele>149.6</ele>
        <time>2024-04-06T11:10:55Z</time>
      </trkpt>
      <trkpt lat="49.90092" lon="4.70459">
        <ele>149.6</ele>
        <time>2024-04-06T11:10:56Z</time>
      </trkpt>
      <trkpt lat="49.90084" lon="4.70457">
        <ele>149.6</ele>
        <time>2024-04-06T11:10:57Z</time>
      </trkpt>
      <trkpt lat="49.90075" lon="4.70455">
        <ele>149.4</ele>
        <time>2024-04-06T11:10:58Z</time>
      </trkpt>
      <trkpt lat="49.90066" lon="4.70454">
        <ele>149.2</ele>
        <time>2024-04-06T11:10:59Z</time>
      </trkpt>
      <trkpt lat="49.90057" lon="4.70453">
        <ele>149</ele>
        <time>2024-04-06T11:11:00Z</time>
      </trkpt>
      <trkpt lat="49.90047" lon="4.70452">
        <ele>148.8</ele>
        <time>2024-04-06T11:11:01Z</time>
      </trkpt>
      <trkpt lat="49.90037" lon="4.70451">
        <ele>148.6</ele>
        <time>2024-04-06T11:11:02Z</time>
      </trkpt>
      <trkpt lat="49.90027" lon="4.70449">
        <ele>148.2</ele>
        <time>2024-04-06T11:11:03Z</time>
      </trkpt>
      <trkpt lat="49.90016" lon="4.70448">
        <ele>148</ele>
        <time>2024-04-06T11:11:04Z</time>
      </trkpt>
      <trkpt lat="49.90006" lon="4.70447">
        <ele>147.2</ele>
        <time>2024-04-06T11:11:05Z</time>
      </trkpt>
      <trkpt lat="49.89995" lon="4.70445">
        <ele>147</ele>
        <time>2024-04-06T11:11:06Z</time>
      </trkpt>
      <trkpt lat="49.89983" lon="4.70443">
        <ele>146.6</ele>
        <time>2024-04-06T11:11:07Z</time>
      </trkpt>
      <trkpt lat="49.89972" lon="4.70441">
        <ele>146</ele>
        <time>2024-04-06T11:11:08Z</time>
      </trkpt>
      <trkpt lat="49.89961" lon="4.70438">
        <ele>145.4</ele>
        <time>2024-04-06T11:11:09Z</time>
      </trkpt>
      <trkpt lat="49.89949" lon="4.70435">
        <ele>144.6</ele>
        <time>2024-04-06T11:11:10Z</time>
      </trkpt>
      <trkpt lat="49.89938" lon="4.70432">
        <ele>143.4</ele>
        <time>2024-04-06T11:11:11Z</time>
      </trkpt>
      <trkpt lat="49.89927" lon="4.70429">
        <ele>143.4</ele>
        <time>2024-04-06T11:11:12Z</time>
      </trkpt>
      <trkpt lat="49.89916" lon="4.70425">
        <ele>142.4</ele>
        <time>2024-04-06T11:11:13Z</time>
      </trkpt>
      <trkpt lat="49.89905" lon="4.70422">
        <ele>142</ele>
        <time>2024-04-06T11:11:14Z</time>
      </trkpt>
      <trkpt lat="49.89894" lon="4.70418">
        <ele>141.6</ele>
        <time>2024-04-06T11:11:15Z</time>
      </trkpt>
      <trkpt lat="49.89884" lon="4.70415">
        <ele>141.2</ele>
        <time>2024-04-06T11:11:16Z</time>
      </trkpt>
      <trkpt lat="49.89873" lon="4.70411">
        <ele>139.4</ele>
        <time>2024-04-06T11:11:17Z</time>
      </trkpt>
      <trkpt lat="49.89863" lon="4.70408">
        <ele>137.4</ele>
        <time>2024-04-06T11:11:18Z</time>
      </trkpt>
      <trkpt lat="49.89852" lon="4.70405">
        <ele>136.2</ele>
        <time>2024-04-06T11:11:19Z</time>
      </trkpt>
      <trkpt lat="49.89842" lon="4.70402">
        <ele>135.6</ele>
        <time>2024-04-06T11:11:20Z</time>
      </trkpt>
      <trkpt lat="49.89833" lon="4.704">
        <ele>135.2</ele>
        <time>2024-04-06T11:11:21Z</time>
      </trkpt>
      <trkpt lat="49.89823" lon="4.70397">
        <ele>135</ele>
        <time>2024-04-06T11:11:22Z</time>
      </trkpt>
      <trkpt lat="49.89814" lon="4.70395">
        <ele>134.6</ele>
        <time>2024-04-06T11:11:23Z</time>
      </trkpt>
      <trkpt lat="49.89805" lon="4.70393">
        <ele>134.2</ele>
        <time>2024-04-06T11:11:24Z</time>
      </trkpt>
      <trkpt lat="49.89796" lon="4.70391">
        <ele>134</ele>
        <time>2024-04-06T11:11:25Z</time>
      </trkpt>
      <trkpt lat="49.89787" lon="4.70389">
        <ele>134</ele>
        <time>2024-04-06T11:11:26Z</time>
      </trkpt>
      <trkpt lat="49.89779" lon="4.70388">
        <ele>133.6</ele>
        <time>2024-04-06T11:11:27Z</time>
      </trkpt>
      <trkpt lat="49.8977" lon="4.70387">
        <ele>133.6</ele>
        <time>2024-04-06T11:11:28Z</time>
      </trkpt>
      <trkpt lat="49.89762" lon="4.70386">
        <ele>133.2</ele>
        <time>2024-04-06T11:11:29Z</time>
      </trkpt>
      <trkpt lat="49.89753" lon="4.70385">
        <ele>132.8</ele>
        <time>2024-04-06T11:11:30Z</time>
      </trkpt>
      <trkpt lat="49.89745" lon="4.70385">
        <ele>132.8</ele>
        <time>2024-04-06T11:11:31Z</time>
      </trkpt>
      <trkpt lat="49.89737" lon="4.70384">
        <ele>132.8</ele>
        <time>2024-04-06T11:11:32Z</time>
      </trkpt>
      <trkpt lat="49.8973" lon="4.70383">
        <ele>132.8</ele>
        <time>2024-04-06T11:11:33Z</time>
      </trkpt>
      <trkpt lat="49.89722" lon="4.70382">
        <ele>132.8</ele>
        <time>2024-04-06T11:11:34Z</time>
      </trkpt>
      <trkpt lat="49.89715" lon="4.70382">
        <ele>132.8</ele>
        <time>2024-04-06T11:11:35Z</time>
      </trkpt>
      <trkpt lat="49.89708" lon="4.70381">
        <ele>132.8</ele>
        <time>2024-04-06T11:11:36Z</time>
      </trkpt>
      <trkpt lat="49.89701" lon="4.7038">
        <ele>132.8</ele>
        <time>2024-04-06T11:11:37Z</time>
      </trkpt>
      <trkpt lat="49.89694" lon="4.7038">
        <ele>132.8</ele>
        <time>2024-04-06T11:11:38Z</time>
      </trkpt>
      <trkpt lat="49.89687" lon="4.70379">
        <ele>132.8</ele>
        <time>2024-04-06T11:11:39Z</time>
      </trkpt>
      <trkpt lat="49.89681" lon="4.70379">
        <ele>133</ele>
        <time>2024-04-06T11:11:40Z</time>
      </trkpt>
      <trkpt lat="49.89675" lon="4.70378">
        <ele>133.2</ele>
        <time>2024-04-06T11:11:41Z</time>
      </trkpt>
      <trkpt lat="49.89668" lon="4.70378">
        <ele>134</ele>
        <time>2024-04-06T11:11:42Z</time>
      </trkpt>
      <trkpt lat="49.89662" lon="4.70377">
        <ele>134.6</ele>
        <time>2024-04-06T11:11:43Z</time>
      </trkpt>
      <trkpt lat="49.89656" lon="4.70375">
        <ele>135</ele>
        <time>2024-04-06T11:11:44Z</time>
      </trkpt>
      <trkpt lat="49.8965" lon="4.70374">
        <ele>135.2</ele>
        <time>2024-04-06T11:11:45Z</time>
      </trkpt>
      <trkpt lat="49.89644" lon="4.70373">
        <ele>135.4</ele>
        <time>2024-04-06T11:11:46Z</time>
      </trkpt>
      <trkpt lat="49.89639" lon="4.70372">
        <ele>135.8</ele>
        <time>2024-04-06T11:11:47Z</time>
      </trkpt>
      <trkpt lat="49.89633" lon="4.7037">
        <ele>136</ele>
        <time>2024-04-06T11:11:48Z</time>
      </trkpt>
      <trkpt lat="49.89628" lon="4.70369">
        <ele>136.2</ele>
        <time>2024-04-06T11:11:49Z</time>
      </trkpt>
      <trkpt lat="49.89622" lon="4.70368">
        <ele>136.4</ele>
        <time>2024-04-06T11:11:50Z</time>
      </trkpt>
      <trkpt lat="49.89617" lon="4.70366">
        <ele>137</ele>
        <time>2024-04-06T11:11:51Z</time>
      </trkpt>
      <trkpt lat="49.89612" lon="4.70365">
        <ele>137.4</ele>
        <time>2024-04-06T11:11:52Z</time>
      </trkpt>
      <trkpt lat="49.89606" lon="4.70364">
        <ele>137.6</ele>
        <time>2024-04-06T11:11:53Z</time>
      </trkpt>
      <trkpt lat="49.89601" lon="4.70362">
        <ele>137.8</ele>
        <time>2024-04-06T11:11:54Z</time>
      </trkpt>
      <trkpt lat="49.89596" lon="4.70361">
        <ele>138</ele>
        <time>2024-04-06T11:11:55Z</time>
      </trkpt>
      <trkpt lat="49.89591" lon="4.70359">
        <ele>138.2</ele>
        <time>2024-04-06T11:11:56Z</time>
      </trkpt>
      <trkpt lat="49.89586" lon="4.70358">
        <ele>138.4</ele>
        <time>2024-04-06T11:11:57Z</time>
      </trkpt>
      <trkpt lat="49.89581" lon="4.70357">
        <ele>138.6</ele>
        <time>2024-04-06T11:11:58Z</time>
      </trkpt>
      <trkpt lat="49.89576" lon="4.70355">
        <ele>139</ele>
        <time>2024-04-06T11:11:59Z</time>
      </trkpt>
      <trkpt lat="49.89571" lon="4.70354">
        <ele>139.2</ele>
        <time>2024-04-06T11:12:00Z</time>
      </trkpt>
      <trkpt lat="49.89566" lon="4.70353">
        <ele>139.4</ele>
        <time>2024-04-06T11:12:01Z</time>
      </trkpt>
      <trkpt lat="49.89561" lon="4.70351">
        <ele>139.8</ele>
        <time>2024-04-06T11:12:02Z</time>
      </trkpt>
      <trkpt lat="49.89557" lon="4.7035">
        <ele>140</ele>
        <time>2024-04-06T11:12:03Z</time>
      </trkpt>
      <trkpt lat="49.89553" lon="4.70348">
        <ele>140</ele>
        <time>2024-04-06T11:12:04Z</time>
      </trkpt>
      <trkpt lat="49.89548" lon="4.70347">
        <ele>140.2</ele>
        <time>2024-04-06T11:12:05Z</time>
      </trkpt>
      <trkpt lat="49.89544" lon="4.70345">
        <ele>140.4</ele>
        <time>2024-04-06T11:12:06Z</time>
      </trkpt>
      <trkpt lat="49.8954" lon="4.70344">
        <ele>140.6</ele>
        <time>2024-04-06T11:12:07Z</time>
      </trkpt>
      <trkpt lat="49.89535" lon="4.70343">
        <ele>140.8</ele>
        <time>2024-04-06T11:12:08Z</time>
      </trkpt>
      <trkpt lat="49.89531" lon="4.70342">
        <ele>141</ele>
        <time>2024-04-06T11:12:09Z</time>
      </trkpt>
      <trkpt lat="49.89527" lon="4.70341">
        <ele>141.2</ele>
        <time>2024-04-06T11:12:10Z</time>
      </trkpt>
      <trkpt lat="49.89522" lon="4.7034">
        <ele>141.4</ele>
        <time>2024-04-06T11:12:11Z</time>
      </trkpt>
      <trkpt lat="49.89518" lon="4.70338">
        <ele>141.6</ele>
        <time>2024-04-06T11:12:12Z</time>
      </trkpt>
      <trkpt lat="49.89514" lon="4.70337">
        <ele>142</ele>
        <time>2024-04-06T11:12:13Z</time>
      </trkpt>
      <trkpt lat="49.89509" lon="4.70336">
        <ele>142</ele>
        <time>2024-04-06T11:12:14Z</time>
      </trkpt>
      <trkpt lat="49.89505" lon="4.70335">
        <ele>142.4</ele>
        <time>2024-04-06T11:12:15Z</time>
      </trkpt>
      <trkpt lat="49.89501" lon="4.70333">
        <ele>142.6</ele>
        <time>2024-04-06T11:12:16Z</time>
      </trkpt>
      <trkpt lat="49.89497" lon="4.70332">
        <ele>143</ele>
        <time>2024-04-06T11:12:17Z</time>
      </trkpt>
      <trkpt lat="49.89492" lon="4.70331">
        <ele>143.6</ele>
        <time>2024-04-06T11:12:18Z</time>
      </trkpt>
      <trkpt lat="49.89488" lon="4.7033">
        <ele>144</ele>
        <time>2024-04-06T11:12:19Z</time>
      </trkpt>
      <trkpt lat="49.89483" lon="4.70328">
        <ele>144.4</ele>
        <time>2024-04-06T11:12:20Z</time>
      </trkpt>
      <trkpt lat="49.89479" lon="4.70327">
        <ele>144.6</ele>
        <time>2024-04-06T11:12:21Z</time>
      </trkpt>
      <trkpt lat="49.89474" lon="4.70325">
        <ele>145</ele>
        <time>2024-04-06T11:12:22Z</time>
      </trkpt>
      <trkpt lat="49.8947" lon="4.70324">
        <ele>145.2</ele>
        <time>2024-04-06T11:12:23Z</time>
      </trkpt>
      <trkpt lat="49.89466" lon="4.70323">
        <ele>145.6</ele>
        <time>2024-04-06T11:12:24Z</time>
      </trkpt>
      <trkpt lat="49.89462" lon="4.70321">
        <ele>145.6</ele>
        <time>2024-04-06T11:12:25Z</time>
      </trkpt>
      <trkpt lat="49.89458" lon="4.7032">
        <ele>146</ele>
        <time>2024-04-06T11:12:26Z</time>
      </trkpt>
      <trkpt lat="49.89453" lon="4.70319">
        <ele>146</ele>
        <time>2024-04-06T11:12:27Z</time>
      </trkpt>
      <trkpt lat="49.89449" lon="4.70318">
        <ele>146.2</ele>
        <time>2024-04-06T11:12:28Z</time>
      </trkpt>
      <trkpt lat="49.89444" lon="4.70317">
        <ele>146.4</ele>
        <time>2024-04-06T11:12:29Z</time>
      </trkpt>
      <trkpt lat="49.8944" lon="4.70315">
        <ele>146.6</ele>
        <time>2024-04-06T11:12:30Z</time>
      </trkpt>
      <trkpt lat="49.89435" lon="4.70314">
        <ele>146.8</ele>
        <time>2024-04-06T11:12:31Z</time>
      </trkpt>
      <trkpt lat="49.89431" lon="4.70313">
        <ele>147.4</ele>
        <time>2024-04-06T11:12:32Z</time>
      </trkpt>
      <trkpt lat="49.89426" lon="4.70312">
        <ele>147.8</ele>
        <time>2024-04-06T11:12:33Z</time>
      </trkpt>
      <trkpt lat="49.89422" lon="4.70311">
        <ele>148</ele>
        <time>2024-04-06T11:12:34Z</time>
      </trkpt>
      <trkpt lat="49.89418" lon="4.7031">
        <ele>148</ele>
        <time>2024-04-06T11:12:35Z</time>
      </trkpt>
      <trkpt lat="49.89414" lon="4.70308">
        <ele>148.4</ele>
        <time>2024-04-06T11:12:36Z</time>
      </trkpt>
      <trkpt lat="49.8941" lon="4.70306">
        <ele>148.8</ele>
        <time>2024-04-06T11:12:37Z</time>
      </trkpt>
      <trkpt lat="49.89406" lon="4.70305">
        <ele>149.2</ele>
        <time>2024-04-06T11:12:38Z</time>
      </trkpt>
      <trkpt lat="49.89402" lon="4.70304">
        <ele>149.2</ele>
        <time>2024-04-06T11:12:39Z</time>
      </trkpt>
      <trkpt lat="49.89398" lon="4.70303">
        <ele>149.6</ele>
        <time>2024-04-06T11:12:40Z</time>
      </trkpt>
      <trkpt lat="49.89393" lon="4.70302">
        <ele>149.6</ele>
        <time>2024-04-06T11:12:41Z</time>
      </trkpt>
      <trkpt lat="49.89389" lon="4.70301">
        <ele>149.6</ele>
        <time>2024-04-06T11:12:42Z</time>
      </trkpt>
      <trkpt lat="49.89385" lon="4.703">
        <ele>149.8</ele>
        <time>2024-04-06T11:12:43Z</time>
      </trkpt>
      <trkpt lat="49.8938" lon="4.70299">
        <ele>150.2</ele>
        <time>2024-04-06T11:12:44Z</time>
      </trkpt>
      <trkpt lat="49.89376" lon="4.70298">
        <ele>150.8</ele>
        <time>2024-04-06T11:12:45Z</time>
      </trkpt>
      <trkpt lat="49.89371" lon="4.70297">
        <ele>151.4</ele>
        <time>2024-04-06T11:12:46Z</time>
      </trkpt>
      <trkpt lat="49.89367" lon="4.70295">
        <ele>151.6</ele>
        <time>2024-04-06T11:12:47Z</time>
      </trkpt>
      <trkpt lat="49.89362" lon="4.70294">
        <ele>152</ele>
        <time>2024-04-06T11:12:48Z</time>
      </trkpt>
      <trkpt lat="49.89357" lon="4.70292">
        <ele>152</ele>
        <time>2024-04-06T11:12:49Z</time>
      </trkpt>
      <trkpt lat="49.89353" lon="4.7029">
        <ele>152.6</ele>
        <time>2024-04-06T11:12:50Z</time>
      </trkpt>
      <trkpt lat="49.89349" lon="4.70288">
        <ele>152.6</ele>
        <time>2024-04-06T11:12:51Z</time>
      </trkpt>
      <trkpt lat="49.89345" lon="4.70287">
        <ele>152.8</ele>
        <time>2024-04-06T11:12:52Z</time>
      </trkpt>
      <trkpt lat="49.89341" lon="4.70285">
        <ele>153</ele>
        <time>2024-04-06T11:12:53Z</time>
      </trkpt>
      <trkpt lat="49.89336" lon="4.70283">
        <ele>153.2</ele>
        <time>2024-04-06T11:12:54Z</time>
      </trkpt>
      <trkpt lat="49.89332" lon="4.70282">
        <ele>153.4</ele>
        <time>2024-04-06T11:12:55Z</time>
      </trkpt>
      <trkpt lat="49.89328" lon="4.7028">
        <ele>153.4</ele>
        <time>2024-04-06T11:12:56Z</time>
      </trkpt>
      <trkpt lat="49.89323" lon="4.70278">
        <ele>153.8</ele>
        <time>2024-04-06T11:12:57Z</time>
      </trkpt>
      <trkpt lat="49.89319" lon="4.70276">
        <ele>154</ele>
        <time>2024-04-06T11:12:58Z</time>
      </trkpt>
      <trkpt lat="49.89315" lon="4.70273">
        <ele>154</ele>
        <time>2024-04-06T11:12:59Z</time>
      </trkpt>
      <trkpt lat="49.8931" lon="4.70271">
        <ele>154</ele>
        <time>2024-04-06T11:13:00Z</time>
      </trkpt>
      <trkpt lat="49.89306" lon="4.70269">
        <ele>154</ele>
        <time>2024-04-06T11:13:01Z</time>
      </trkpt>
      <trkpt lat="49.89301" lon="4.70267">
        <ele>154.4</ele>
        <time>2024-04-06T11:13:02Z</time>
      </trkpt>
      <trkpt lat="49.89297" lon="4.70264">
        <ele>154.8</ele>
        <time>2024-04-06T11:13:03Z</time>
      </trkpt>
      <trkpt lat="49.89293" lon="4.70262">
        <ele>154.8</ele>
        <time>2024-04-06T11:13:04Z</time>
      </trkpt>
      <trkpt lat="49.89288" lon="4.7026">
        <ele>155</ele>
        <time>2024-04-06T11:13:05Z</time>
      </trkpt>
      <trkpt lat="49.89283" lon="4.70258">
        <ele>155.2</ele>
        <time>2024-04-06T11:13:06Z</time>
      </trkpt>
      <trkpt lat="49.89279" lon="4.70255">
        <ele>155</ele>
        <time>2024-04-06T11:13:07Z</time>
      </trkpt>
      <trkpt lat="49.89275" lon="4.70252">
        <ele>155</ele>
        <time>2024-04-06T11:13:08Z</time>
      </trkpt>
      <trkpt lat="49.8927" lon="4.7025">
        <ele>155</ele>
        <time>2024-04-06T11:13:09Z</time>
      </trkpt>
      <trkpt lat="49.89266" lon="4.70247">
        <ele>155</ele>
        <time>2024-04-06T11:13:10Z</time>
      </trkpt>
      <trkpt lat="49.89261" lon="4.70244">
        <ele>155</ele>
        <time>2024-04-06T11:13:11Z</time>
      </trkpt>
      <trkpt lat="49.89257" lon="4.70241">
        <ele>155</ele>
        <time>2024-04-06T11:13:12Z</time>
      </trkpt>
      <trkpt lat="49.89252" lon="4.70238">
        <ele>155</ele>
        <time>2024-04-06T11:13:13Z</time>
      </trkpt>
      <trkpt lat="49.89247" lon="4.70235">
        <ele>155.2</ele>
        <time>2024-04-06T11:13:14Z</time>
      </trkpt>
      <trkpt lat="49.89242" lon="4.70232">
        <ele>155.2</ele>
        <time>2024-04-06T11:13:15Z</time>
      </trkpt>
      <trkpt lat="49.89237" lon="4.70229">
        <ele>155.2</ele>
        <time>2024-04-06T11:13:16Z</time>
      </trkpt>
      <trkpt lat="49.89232" lon="4.70225">
        <ele>155.2</ele>
        <time>2024-04-06T11:13:17Z</time>
      </trkpt>
      <trkpt lat="49.89227" lon="4.70222">
        <ele>155.2</ele>
        <time>2024-04-06T11:13:18Z</time>
      </trkpt>
      <trkpt lat="49.89222" lon="4.70219">
        <ele>155.2</ele>
        <time>2024-04-06T11:13:19Z</time>
      </trkpt>
      <trkpt lat="49.89217" lon="4.70216">
        <ele>155.4</ele>
        <time>2024-04-06T11:13:20Z</time>
      </trkpt>
      <trkpt lat="49.89212" lon="4.70213">
        <ele>155.6</ele>
        <time>2024-04-06T11:13:21Z</time>
      </trkpt>
      <trkpt lat="49.89206" lon="4.7021">
        <ele>155.8</ele>
        <time>2024-04-06T11:13:22Z</time>
      </trkpt>
      <trkpt lat="49.89201" lon="4.70206">
        <ele>156</ele>
        <time>2024-04-06T11:13:23Z</time>
      </trkpt>
      <trkpt lat="49.89195" lon="4.70203">
        <ele>156.4</ele>
        <time>2024-04-06T11:13:24Z</time>
      </trkpt>
      <trkpt lat="49.89189" lon="4.70199">
        <ele>156.6</ele>
        <time>2024-04-06T11:13:25Z</time>
      </trkpt>
      <trkpt lat="49.89184" lon="4.70196">
        <ele>156.8</ele>
        <time>2024-04-06T11:13:26Z</time>
      </trkpt>
      <trkpt lat="49.89178" lon="4.70192">
        <ele>157</ele>
        <time>2024-04-06T11:13:27Z</time>
      </trkpt>
      <trkpt lat="49.89172" lon="4.70188">
        <ele>157</ele>
        <time>2024-04-06T11:13:28Z</time>
      </trkpt>
      <trkpt lat="49.89166" lon="4.70185">
        <ele>157.2</ele>
        <time>2024-04-06T11:13:29Z</time>
      </trkpt>
      <trkpt lat="49.8916" lon="4.70182">
        <ele>157.2</ele>
        <time>2024-04-06T11:13:30Z</time>
      </trkpt>
      <trkpt lat="49.89154" lon="4.70179">
        <ele>157.4</ele>
        <time>2024-04-06T11:13:31Z</time>
      </trkpt>
      <trkpt lat="49.89148" lon="4.70176">
        <ele>157.4</ele>
        <time>2024-04-06T11:13:32Z</time>
      </trkpt>
      <trkpt lat="49.89141" lon="4.70173">
        <ele>157.4</ele>
        <time>2024-04-06T11:13:33Z</time>
      </trkpt>
      <trkpt lat="49.89135" lon="4.70171">
        <ele>157.4</ele>
        <time>2024-04-06T11:13:34Z</time>
      </trkpt>
      <trkpt lat="49.89129" lon="4.70169">
        <ele>157.4</ele>
        <time>2024-04-06T11:13:35Z</time>
      </trkpt>
      <trkpt lat="49.89123" lon="4.70167">
        <ele>157.4</ele>
        <time>2024-04-06T11:13:36Z</time>
      </trkpt>
      <trkpt lat="49.89116" lon="4.70166">
        <ele>157.8</ele>
        <time>2024-04-06T11:13:37Z</time>
      </trkpt>
      <trkpt lat="49.8911" lon="4.70164">
        <ele>158</ele>
        <time>2024-04-06T11:13:38Z</time>
      </trkpt>
      <trkpt lat="49.89103" lon="4.70163">
        <ele>158</ele>
        <time>2024-04-06T11:13:39Z</time>
      </trkpt>
      <trkpt lat="49.89096" lon="4.70163">
        <ele>158</ele>
        <time>2024-04-06T11:13:40Z</time>
      </trkpt>
      <trkpt lat="49.89089" lon="4.70162">
        <ele>157.8</ele>
        <time>2024-04-06T11:13:41Z</time>
      </trkpt>
      <trkpt lat="49.89082" lon="4.70161">
        <ele>157.6</ele>
        <time>2024-04-06T11:13:42Z</time>
      </trkpt>
      <trkpt lat="49.89075" lon="4.7016">
        <ele>157.6</ele>
        <time>2024-04-06T11:13:43Z</time>
      </trkpt>
      <trkpt lat="49.89068" lon="4.70159">
        <ele>157.6</ele>
        <time>2024-04-06T11:13:44Z</time>
      </trkpt>
      <trkpt lat="49.89061" lon="4.70158">
        <ele>157.4</ele>
        <time>2024-04-06T11:13:45Z</time>
      </trkpt>
      <trkpt lat="49.89054" lon="4.70158">
        <ele>157.4</ele>
        <time>2024-04-06T11:13:46Z</time>
      </trkpt>
      <trkpt lat="49.89047" lon="4.70157">
        <ele>157.4</ele>
        <time>2024-04-06T11:13:47Z</time>
      </trkpt>
      <trkpt lat="49.8904" lon="4.70156">
        <ele>157.6</ele>
        <time>2024-04-06T11:13:48Z</time>
      </trkpt>
      <trkpt lat="49.89033" lon="4.70156">
        <ele>157.6</ele>
        <time>2024-04-06T11:13:49Z</time>
      </trkpt>
      <trkpt lat="49.89025" lon="4.70156">
        <ele>157.6</ele>
        <time>2024-04-06T11:13:50Z</time>
      </trkpt>
      <trkpt lat="49.89018" lon="4.70155">
        <ele>157.4</ele>
        <time>2024-04-06T11:13:51Z</time>
      </trkpt>
      <trkpt lat="49.89011" lon="4.70154">
        <ele>157.6</ele>
        <time>2024-04-06T11:13:52Z</time>
      </trkpt>
      <trkpt lat="49.89004" lon="4.70153">
        <ele>157.4</ele>
        <time>2024-04-06T11:13:53Z</time>
      </trkpt>
      <trkpt lat="49.88996" lon="4.70152">
        <ele>157.2</ele>
        <time>2024-04-06T11:13:54Z</time>
      </trkpt>
      <trkpt lat="49.88989" lon="4.70151">
        <ele>157.2</ele>
        <time>2024-04-06T11:13:55Z</time>
      </trkpt>
      <trkpt lat="49.88982" lon="4.70151">
        <ele>157.2</ele>
        <time>2024-04-06T11:13:56Z</time>
      </trkpt>
      <trkpt lat="49.88975" lon="4.7015">
        <ele>157.2</ele>
        <time>2024-04-06T11:13:57Z</time>
      </trkpt>
      <trkpt lat="49.88967" lon="4.7015">
        <ele>157.2</ele>
        <time>2024-04-06T11:13:58Z</time>
      </trkpt>
      <trkpt lat="49.8896" lon="4.7015">
        <ele>157.2</ele>
        <time>2024-04-06T11:13:59Z</time>
      </trkpt>
      <trkpt lat="49.88952" lon="4.7015">
        <ele>157.2</ele>
        <time>2024-04-06T11:14:00Z</time>
      </trkpt>
      <trkpt lat="49.88945" lon="4.70149">
        <ele>157.2</ele>
        <time>2024-04-06T11:14:01Z</time>
      </trkpt>
      <trkpt lat="49.88937" lon="4.70149">
        <ele>157.4</ele>
        <time>2024-04-06T11:14:02Z</time>
      </trkpt>
      <trkpt lat="49.8893" lon="4.70148">
        <ele>157.2</ele>
        <time>2024-04-06T11:14:03Z</time>
      </trkpt>
      <trkpt lat="49.88923" lon="4.70148">
        <ele>157.4</ele>
        <time>2024-04-06T11:14:04Z</time>
      </trkpt>
      <trkpt lat="49.88915" lon="4.70148">
        <ele>157.4</ele>
        <time>2024-04-06T11:14:05Z</time>
      </trkpt>
      <trkpt lat="49.88908" lon="4.70148">
        <ele>157.4</ele>
        <time>2024-04-06T11:14:06Z</time>
      </trkpt>
      <trkpt lat="49.88901" lon="4.70149">
        <ele>157.4</ele>
        <time>2024-04-06T11:14:07Z</time>
      </trkpt>
      <trkpt lat="49.88893" lon="4.7015">
        <ele>157.4</ele>
        <time>2024-04-06T11:14:08Z</time>
      </trkpt>
      <trkpt lat="49.88886" lon="4.70151">
        <ele>157.4</ele>
        <time>2024-04-06T11:14:09Z</time>
      </trkpt>
      <trkpt lat="49.88878" lon="4.70152">
        <ele>157.4</ele>
        <time>2024-04-06T11:14:10Z</time>
      </trkpt>
      <trkpt lat="49.88871" lon="4.70153">
        <ele>157.6</ele>
        <time>2024-04-06T11:14:11Z</time>
      </trkpt>
      <trkpt lat="49.88863" lon="4.70154">
        <ele>157.6</ele>
        <time>2024-04-06T11:14:12Z</time>
      </trkpt>
      <trkpt lat="49.88856" lon="4.70155">
        <ele>157.6</ele>
        <time>2024-04-06T11:14:13Z</time>
      </trkpt>
      <trkpt lat="49.88848" lon="4.70156">
        <ele>157.6</ele>
        <time>2024-04-06T11:14:14Z</time>
      </trkpt>
      <trkpt lat="49.8884" lon="4.70158">
        <ele>157.6</ele>
        <time>2024-04-06T11:14:15Z</time>
      </trkpt>
      <trkpt lat="49.88832" lon="4.70159">
        <ele>157.8</ele>
        <time>2024-04-06T11:14:16Z</time>
      </trkpt>
      <trkpt lat="49.88824" lon="4.70161">
        <ele>157.6</ele>
        <time>2024-04-06T11:14:17Z</time>
      </trkpt>
      <trkpt lat="49.88816" lon="4.70162">
        <ele>157.8</ele>
        <time>2024-04-06T11:14:18Z</time>
      </trkpt>
      <trkpt lat="49.88807" lon="4.70164">
        <ele>157.8</ele>
        <time>2024-04-06T11:14:19Z</time>
      </trkpt>
      <trkpt lat="49.88798" lon="4.70166">
        <ele>157.6</ele>
        <time>2024-04-06T11:14:20Z</time>
      </trkpt>
      <trkpt lat="49.8879" lon="4.70167">
        <ele>157.6</ele>
        <time>2024-04-06T11:14:21Z</time>
      </trkpt>
      <trkpt lat="49.88781" lon="4.70169">
        <ele>157.6</ele>
        <time>2024-04-06T11:14:22Z</time>
      </trkpt>
      <trkpt lat="49.88772" lon="4.70171">
        <ele>157.4</ele>
        <time>2024-04-06T11:14:23Z</time>
      </trkpt>
      <trkpt lat="49.88763" lon="4.70172">
        <ele>157</ele>
        <time>2024-04-06T11:14:24Z</time>
      </trkpt>
      <trkpt lat="49.88755" lon="4.70174">
        <ele>157</ele>
        <time>2024-04-06T11:14:25Z</time>
      </trkpt>
      <trkpt lat="49.88746" lon="4.70176">
        <ele>156.8</ele>
        <time>2024-04-06T11:14:26Z</time>
      </trkpt>
      <trkpt lat="49.88737" lon="4.70178">
        <ele>156</ele>
        <time>2024-04-06T11:14:27Z</time>
      </trkpt>
      <trkpt lat="49.88728" lon="4.7018">
        <ele>154.8</ele>
        <time>2024-04-06T11:14:28Z</time>
      </trkpt>
      <trkpt lat="49.88719" lon="4.70182">
        <ele>153.2</ele>
        <time>2024-04-06T11:14:29Z</time>
      </trkpt>
      <trkpt lat="49.88711" lon="4.70184">
        <ele>152.6</ele>
        <time>2024-04-06T11:14:30Z</time>
      </trkpt>
      <trkpt lat="49.88702" lon="4.70185">
        <ele>151.8</ele>
        <time>2024-04-06T11:14:31Z</time>
      </trkpt>
      <trkpt lat="49.88693" lon="4.70187">
        <ele>151.4</ele>
        <time>2024-04-06T11:14:32Z</time>
      </trkpt>
      <trkpt lat="49.88685" lon="4.70189">
        <ele>151</ele>
        <time>2024-04-06T11:14:33Z</time>
      </trkpt>
      <trkpt lat="49.88677" lon="4.70191">
        <ele>150.6</ele>
        <time>2024-04-06T11:14:34Z</time>
      </trkpt>
      <trkpt lat="49.88669" lon="4.70192">
        <ele>150.6</ele>
        <time>2024-04-06T11:14:35Z</time>
      </trkpt>
      <trkpt lat="49.88661" lon="4.70194">
        <ele>150.4</ele>
        <time>2024-04-06T11:14:36Z</time>
      </trkpt>
      <trkpt lat="49.88653" lon="4.70196">
        <ele>150.4</ele>
        <time>2024-04-06T11:14:37Z</time>
      </trkpt>
      <trkpt lat="49.88645" lon="4.70197">
        <ele>150.2</ele>
        <time>2024-04-06T11:14:38Z</time>
      </trkpt>
      <trkpt lat="49.88638" lon="4.70199">
        <ele>150.2</ele>
        <time>2024-04-06T11:14:39Z</time>
      </trkpt>
      <trkpt lat="49.8863" lon="4.70201">
        <ele>150.4</ele>
        <time>2024-04-06T11:14:40Z</time>
      </trkpt>
      <trkpt lat="49.88623" lon="4.70202">
        <ele>150.6</ele>
        <time>2024-04-06T11:14:41Z</time>
      </trkpt>
      <trkpt lat="49.88616" lon="4.70204">
        <ele>151</ele>
        <time>2024-04-06T11:14:42Z</time>
      </trkpt>
      <trkpt lat="49.88609" lon="4.70205">
        <ele>151.2</ele>
        <time>2024-04-06T11:14:43Z</time>
      </trkpt>
      <trkpt lat="49.88602" lon="4.70206">
        <ele>151.2</ele>
        <time>2024-04-06T11:14:44Z</time>
      </trkpt>
      <trkpt lat="49.88595" lon="4.70208">
        <ele>151.6</ele>
        <time>2024-04-06T11:14:45Z</time>
      </trkpt>
      <trkpt lat="49.88589" lon="4.70209">
        <ele>151.8</ele>
        <time>2024-04-06T11:14:46Z</time>
      </trkpt>
      <trkpt lat="49.88582" lon="4.70211">
        <ele>152</ele>
        <time>2024-04-06T11:14:47Z</time>
      </trkpt>
      <trkpt lat="49.88576" lon="4.70212">
        <ele>152</ele>
        <time>2024-04-06T11:14:48Z</time>
      </trkpt>
      <trkpt lat="49.8857" lon="4.70213">
        <ele>152.2</ele>
        <time>2024-04-06T11:14:49Z</time>
      </trkpt>
      <trkpt lat="49.88564" lon="4.70214">
        <ele>152.4</ele>
        <time>2024-04-06T11:14:50Z</time>
      </trkpt>
      <trkpt lat="49.88558" lon="4.70216">
        <ele>152.4</ele>
        <time>2024-04-06T11:14:51Z</time>
      </trkpt>
      <trkpt lat="49.88552" lon="4.70217">
        <ele>152.6</ele>
        <time>2024-04-06T11:14:52Z</time>
      </trkpt>
      <trkpt lat="49.88546" lon="4.70218">
        <ele>152.6</ele>
        <time>2024-04-06T11:14:53Z</time>
      </trkpt>
      <trkpt lat="49.8854" lon="4.70219">
        <ele>152.8</ele>
        <time>2024-04-06T11:14:54Z</time>
      </trkpt>
      <trkpt lat="49.88534" lon="4.70221">
        <ele>152.8</ele>
        <time>2024-04-06T11:14:55Z</time>
      </trkpt>
      <trkpt lat="49.88528" lon="4.70222">
        <ele>152.8</ele>
        <time>2024-04-06T11:14:56Z</time>
      </trkpt>
      <trkpt lat="49.88522" lon="4.70223">
        <ele>153.2</ele>
        <time>2024-04-06T11:14:57Z</time>
      </trkpt>
      <trkpt lat="49.88516" lon="4.70224">
        <ele>153.6</ele>
        <time>2024-04-06T11:14:58Z</time>
      </trkpt>
      <trkpt lat="49.8851" lon="4.70225">
        <ele>154</ele>
        <time>2024-04-06T11:14:59Z</time>
      </trkpt>
      <trkpt lat="49.88504" lon="4.70226">
        <ele>154</ele>
        <time>2024-04-06T11:15:00Z</time>
      </trkpt>
      <trkpt lat="49.88498" lon="4.70228">
        <ele>154.6</ele>
        <time>2024-04-06T11:15:01Z</time>
      </trkpt>
      <trkpt lat="49.88492" lon="4.70229">
        <ele>154.8</ele>
        <time>2024-04-06T11:15:02Z</time>
      </trkpt>
      <trkpt lat="49.88486" lon="4.7023">
        <ele>155.2</ele>
        <time>2024-04-06T11:15:03Z</time>
      </trkpt>
      <trkpt lat="49.88481" lon="4.70232">
        <ele>155.2</ele>
        <time>2024-04-06T11:15:04Z</time>
      </trkpt>
      <trkpt lat="49.88475" lon="4.70233">
        <ele>155.4</ele>
        <time>2024-04-06T11:15:05Z</time>
      </trkpt>
      <trkpt lat="49.88469" lon="4.70234">
        <ele>155.4</ele>
        <time>2024-04-06T11:15:06Z</time>
      </trkpt>
      <trkpt lat="49.88463" lon="4.70235">
        <ele>155.8</ele>
        <time>2024-04-06T11:15:07Z</time>
      </trkpt>
      <trkpt lat="49.88458" lon="4.70236">
        <ele>156</ele>
        <time>2024-04-06T11:15:08Z</time>
      </trkpt>
      <trkpt lat="49.88452" lon="4.70237">
        <ele>156.2</ele>
        <time>2024-04-06T11:15:09Z</time>
      </trkpt>
      <trkpt lat="49.88447" lon="4.70238">
        <ele>156.2</ele>
        <time>2024-04-06T11:15:10Z</time>
      </trkpt>
      <trkpt lat="49.88441" lon="4.70239">
        <ele>156.4</ele>
        <time>2024-04-06T11:15:11Z</time>
      </trkpt>
      <trkpt lat="49.88435" lon="4.7024">
        <ele>156.4</ele>
        <time>2024-04-06T11:15:12Z</time>
      </trkpt>
      <trkpt lat="49.8843" lon="4.70241">
        <ele>156.8</ele>
        <time>2024-04-06T11:15:13Z</time>
      </trkpt>
      <trkpt lat="49.88424" lon="4.70243">
        <ele>157</ele>
        <time>2024-04-06T11:15:14Z</time>
      </trkpt>
      <trkpt lat="49.88418" lon="4.70244">
        <ele>157</ele>
        <time>2024-04-06T11:15:15Z</time>
      </trkpt>
      <trkpt lat="49.88412" lon="4.70245">
        <ele>157.6</ele>
        <time>2024-04-06T11:15:16Z</time>
      </trkpt>
      <trkpt lat="49.88406" lon="4.70247">
        <ele>158</ele>
        <time>2024-04-06T11:15:17Z</time>
      </trkpt>
      <trkpt lat="49.88401" lon="4.70248">
        <ele>158.2</ele>
        <time>2024-04-06T11:15:18Z</time>
      </trkpt>
      <trkpt lat="49.88395" lon="4.70249">
        <ele>158.4</ele>
        <time>2024-04-06T11:15:19Z</time>
      </trkpt>
      <trkpt lat="49.88389" lon="4.7025">
        <ele>158.6</ele>
        <time>2024-04-06T11:15:20Z</time>
      </trkpt>
      <trkpt lat="49.88383" lon="4.70251">
        <ele>158.8</ele>
        <time>2024-04-06T11:15:21Z</time>
      </trkpt>
      <trkpt lat="49.88378" lon="4.70252">
        <ele>159</ele>
        <time>2024-04-06T11:15:22Z</time>
      </trkpt>
      <trkpt lat="49.88372" lon="4.70254">
        <ele>159.2</ele>
        <time>2024-04-06T11:15:23Z</time>
      </trkpt>
      <trkpt lat="49.88366" lon="4.70255">
        <ele>159.4</ele>
        <time>2024-04-06T11:15:24Z</time>
      </trkpt>
      <trkpt lat="49.88361" lon="4.70256">
        <ele>159.8</ele>
        <time>2024-04-06T11:15:25Z</time>
      </trkpt>
      <trkpt lat="49.88355" lon="4.70257">
        <ele>160</ele>
        <time>2024-04-06T11:15:26Z</time>
      </trkpt>
      <trkpt lat="49.8835" lon="4.70258">
        <ele>160.4</ele>
        <time>2024-04-06T11:15:27Z</time>
      </trkpt>
      <trkpt lat="49.88344" lon="4.7026">
        <ele>160.4</ele>
        <time>2024-04-06T11:15:28Z</time>
      </trkpt>
      <trkpt lat="49.88338" lon="4.70261">
        <ele>160.6</ele>
        <time>2024-04-06T11:15:29Z</time>
      </trkpt>
      <trkpt lat="49.88333" lon="4.70262">
        <ele>160.8</ele>
        <time>2024-04-06T11:15:30Z</time>
      </trkpt>
      <trkpt lat="49.88327" lon="4.70263">
        <ele>160.8</ele>
        <time>2024-04-06T11:15:31Z</time>
      </trkpt>
      <trkpt lat="49.88321" lon="4.70264">
        <ele>160.8</ele>
        <time>2024-04-06T11:15:32Z</time>
      </trkpt>
      <trkpt lat="49.88316" lon="4.70265">
        <ele>161.2</ele>
        <time>2024-04-06T11:15:33Z</time>
      </trkpt>
      <trkpt lat="49.8831" lon="4.70266">
        <ele>161.4</ele>
        <time>2024-04-06T11:15:34Z</time>
      </trkpt>
      <trkpt lat="49.88304" lon="4.70267">
        <ele>162</ele>
        <time>2024-04-06T11:15:35Z</time>
      </trkpt>
      <trkpt lat="49.88299" lon="4.70268">
        <ele>162.4</ele>
        <time>2024-04-06T11:15:36Z</time>
      </trkpt>
      <trkpt lat="49.88293" lon="4.7027">
        <ele>162.6</ele>
        <time>2024-04-06T11:15:37Z</time>
      </trkpt>
      <trkpt lat="49.88287" lon="4.70271">
        <ele>162.8</ele>
        <time>2024-04-06T11:15:38Z</time>
      </trkpt>
      <trkpt lat="49.88282" lon="4.70272">
        <ele>163.2</ele>
        <time>2024-04-06T11:15:39Z</time>
      </trkpt>
      <trkpt lat="49.88276" lon="4.70273">
        <ele>163.2</ele>
        <time>2024-04-06T11:15:40Z</time>
      </trkpt>
      <trkpt lat="49.88271" lon="4.70274">
        <ele>163.4</ele>
        <time>2024-04-06T11:15:41Z</time>
      </trkpt>
      <trkpt lat="49.88265" lon="4.70275">
        <ele>163.6</ele>
        <time>2024-04-06T11:15:42Z</time>
      </trkpt>
      <trkpt lat="49.88259" lon="4.70276">
        <ele>163.6</ele>
        <time>2024-04-06T11:15:43Z</time>
      </trkpt>
      <trkpt lat="49.88254" lon="4.70278">
        <ele>164</ele>
        <time>2024-04-06T11:15:44Z</time>
      </trkpt>
      <trkpt lat="49.88248" lon="4.70279">
        <ele>164.2</ele>
        <time>2024-04-06T11:15:45Z</time>
      </trkpt>
      <trkpt lat="49.88242" lon="4.7028">
        <ele>164.4</ele>
        <time>2024-04-06T11:15:46Z</time>
      </trkpt>
      <trkpt lat="49.88237" lon="4.70281">
        <ele>164.6</ele>
        <time>2024-04-06T11:15:47Z</time>
      </trkpt>
      <trkpt lat="49.88231" lon="4.70282">
        <ele>164.4</ele>
        <time>2024-04-06T11:15:48Z</time>
      </trkpt>
      <trkpt lat="49.88225" lon="4.70284">
        <ele>164.4</ele>
        <time>2024-04-06T11:15:49Z</time>
      </trkpt>
      <trkpt lat="49.88219" lon="4.70285">
        <ele>164.6</ele>
        <time>2024-04-06T11:15:50Z</time>
      </trkpt>
      <trkpt lat="49.88213" lon="4.70286">
        <ele>164.8</ele>
        <time>2024-04-06T11:15:51Z</time>
      </trkpt>
      <trkpt lat="49.88207" lon="4.70287">
        <ele>164.8</ele>
        <time>2024-04-06T11:15:52Z</time>
      </trkpt>
      <trkpt lat="49.88201" lon="4.70288">
        <ele>164.8</ele>
        <time>2024-04-06T11:15:53Z</time>
      </trkpt>
      <trkpt lat="49.88194" lon="4.70289">
        <ele>165</ele>
        <time>2024-04-06T11:15:54Z</time>
      </trkpt>
      <trkpt lat="49.88188" lon="4.7029">
        <ele>165</ele>
        <time>2024-04-06T11:15:55Z</time>
      </trkpt>
      <trkpt lat="49.88182" lon="4.70292">
        <ele>165.2</ele>
        <time>2024-04-06T11:15:56Z</time>
      </trkpt>
      <trkpt lat="49.88176" lon="4.70293">
        <ele>165.4</ele>
        <time>2024-04-06T11:15:57Z</time>
      </trkpt>
      <trkpt lat="49.8817" lon="4.70294">
        <ele>165.6</ele>
        <time>2024-04-06T11:15:58Z</time>
      </trkpt>
      <trkpt lat="49.88163" lon="4.70295">
        <ele>165.6</ele>
        <time>2024-04-06T11:15:59Z</time>
      </trkpt>
      <trkpt lat="49.88157" lon="4.70296">
        <ele>166</ele>
        <time>2024-04-06T11:16:00Z</time>
      </trkpt>
      <trkpt lat="49.88151" lon="4.70297">
        <ele>166</ele>
        <time>2024-04-06T11:16:01Z</time>
      </trkpt>
      <trkpt lat="49.88145" lon="4.70298">
        <ele>166</ele>
        <time>2024-04-06T11:16:02Z</time>
      </trkpt>
      <trkpt lat="49.88138" lon="4.70298">
        <ele>166.2</ele>
        <time>2024-04-06T11:16:03Z</time>
      </trkpt>
      <trkpt lat="49.88132" lon="4.70299">
        <ele>166</ele>
        <time>2024-04-06T11:16:04Z</time>
      </trkpt>
      <trkpt lat="49.88126" lon="4.70299">
        <ele>166.2</ele>
        <time>2024-04-06T11:16:05Z</time>
      </trkpt>
      <trkpt lat="49.8812" lon="4.703">
        <ele>166.2</ele>
        <time>2024-04-06T11:16:06Z</time>
      </trkpt>
      <trkpt lat="49.88113" lon="4.70301">
        <ele>166.2</ele>
        <time>2024-04-06T11:16:07Z</time>
      </trkpt>
      <trkpt lat="49.88107" lon="4.70302">
        <ele>166.4</ele>
        <time>2024-04-06T11:16:08Z</time>
      </trkpt>
      <trkpt lat="49.881" lon="4.70302">
        <ele>166.4</ele>
        <time>2024-04-06T11:16:09Z</time>
      </trkpt>
      <trkpt lat="49.88094" lon="4.70302">
        <ele>166.2</ele>
        <time>2024-04-06T11:16:10Z</time>
      </trkpt>
      <trkpt lat="49.88087" lon="4.70303">
        <ele>166.4</ele>
        <time>2024-04-06T11:16:11Z</time>
      </trkpt>
      <trkpt lat="49.8808" lon="4.70303">
        <ele>166.4</ele>
        <time>2024-04-06T11:16:12Z</time>
      </trkpt>
      <trkpt lat="49.88074" lon="4.70304">
        <ele>166.6</ele>
        <time>2024-04-06T11:16:13Z</time>
      </trkpt>
      <trkpt lat="49.88067" lon="4.70304">
        <ele>166.6</ele>
        <time>2024-04-06T11:16:14Z</time>
      </trkpt>
      <trkpt lat="49.8806" lon="4.70305">
        <ele>166.6</ele>
        <time>2024-04-06T11:16:15Z</time>
      </trkpt>
      <trkpt lat="49.88054" lon="4.70305">
        <ele>166.8</ele>
        <time>2024-04-06T11:16:16Z</time>
      </trkpt>
      <trkpt lat="49.88047" lon="4.70306">
        <ele>166.8</ele>
        <time>2024-04-06T11:16:17Z</time>
      </trkpt>
      <trkpt lat="49.8804" lon="4.70307">
        <ele>166.6</ele>
        <time>2024-04-06T11:16:18Z</time>
      </trkpt>
      <trkpt lat="49.88034" lon="4.70308">
        <ele>166.6</ele>
        <time>2024-04-06T11:16:19Z</time>
      </trkpt>
      <trkpt lat="49.88027" lon="4.7031">
        <ele>166.8</ele>
        <time>2024-04-06T11:16:20Z</time>
      </trkpt>
      <trkpt lat="49.88021" lon="4.70312">
        <ele>166.8</ele>
        <time>2024-04-06T11:16:21Z</time>
      </trkpt>
      <trkpt lat="49.88014" lon="4.70315">
        <ele>166.6</ele>
        <time>2024-04-06T11:16:22Z</time>
      </trkpt>
      <trkpt lat="49.88007" lon="4.70319">
        <ele>166.8</ele>
        <time>2024-04-06T11:16:23Z</time>
      </trkpt>
      <trkpt lat="49.88001" lon="4.70323">
        <ele>166.8</ele>
        <time>2024-04-06T11:16:24Z</time>
      </trkpt>
      <trkpt lat="49.87994" lon="4.70327">
        <ele>166.8</ele>
        <time>2024-04-06T11:16:25Z</time>
      </trkpt>
      <trkpt lat="49.87988" lon="4.70332">
        <ele>166.8</ele>
        <time>2024-04-06T11:16:26Z</time>
      </trkpt>
      <trkpt lat="49.87982" lon="4.70337">
        <ele>167</ele>
        <time>2024-04-06T11:16:27Z</time>
      </trkpt>
      <trkpt lat="49.87976" lon="4.70342">
        <ele>167</ele>
        <time>2024-04-06T11:16:28Z</time>
      </trkpt>
      <trkpt lat="49.87971" lon="4.70348">
        <ele>167</ele>
        <time>2024-04-06T11:16:29Z</time>
      </trkpt>
      <trkpt lat="49.87965" lon="4.70354">
        <ele>167</ele>
        <time>2024-04-06T11:16:30Z</time>
      </trkpt>
      <trkpt lat="49.8796" lon="4.7036">
        <ele>167</ele>
        <time>2024-04-06T11:16:31Z</time>
      </trkpt>
      <trkpt lat="49.87955" lon="4.70366">
        <ele>167</ele>
        <time>2024-04-06T11:16:32Z</time>
      </trkpt>
      <trkpt lat="49.8795" lon="4.70373">
        <ele>167</ele>
        <time>2024-04-06T11:16:33Z</time>
      </trkpt>
      <trkpt lat="49.87945" lon="4.70378">
        <ele>167.2</ele>
        <time>2024-04-06T11:16:34Z</time>
      </trkpt>
      <trkpt lat="49.87939" lon="4.70383">
        <ele>167.2</ele>
        <time>2024-04-06T11:16:35Z</time>
      </trkpt>
      <trkpt lat="49.87934" lon="4.70387">
        <ele>167.2</ele>
        <time>2024-04-06T11:16:36Z</time>
      </trkpt>
      <trkpt lat="49.87928" lon="4.70391">
        <ele>167.2</ele>
        <time>2024-04-06T11:16:37Z</time>
      </trkpt>
      <trkpt lat="49.87923" lon="4.70395">
        <ele>167.2</ele>
        <time>2024-04-06T11:16:38Z</time>
      </trkpt>
      <trkpt lat="49.87918" lon="4.70398">
        <ele>167.6</ele>
        <time>2024-04-06T11:16:39Z</time>
      </trkpt>
      <trkpt lat="49.87913" lon="4.704">
        <ele>167.4</ele>
        <time>2024-04-06T11:16:40Z</time>
      </trkpt>
      <trkpt lat="49.87908" lon="4.70401">
        <ele>167.6</ele>
        <time>2024-04-06T11:16:41Z</time>
      </trkpt>
      <trkpt lat="49.87902" lon="4.70403">
        <ele>167.8</ele>
        <time>2024-04-06T11:16:42Z</time>
      </trkpt>
      <trkpt lat="49.87897" lon="4.70404">
        <ele>168</ele>
        <time>2024-04-06T11:16:43Z</time>
      </trkpt>
      <trkpt lat="49.87892" lon="4.70404">
        <ele>168.2</ele>
        <time>2024-04-06T11:16:44Z</time>
      </trkpt>
      <trkpt lat="49.87887" lon="4.70405">
        <ele>168.4</ele>
        <time>2024-04-06T11:16:45Z</time>
      </trkpt>
      <trkpt lat="49.87882" lon="4.70406">
        <ele>168.8</ele>
        <time>2024-04-06T11:16:46Z</time>
      </trkpt>
      <trkpt lat="49.87877" lon="4.70406">
        <ele>169.2</ele>
        <time>2024-04-06T11:16:47Z</time>
      </trkpt>
      <trkpt lat="49.87873" lon="4.70407">
        <ele>169.4</ele>
        <time>2024-04-06T11:16:48Z</time>
      </trkpt>
      <trkpt lat="49.87868" lon="4.70408">
        <ele>169.6</ele>
        <time>2024-04-06T11:16:49Z</time>
      </trkpt>
      <trkpt lat="49.87863" lon="4.70408">
        <ele>169.8</ele>
        <time>2024-04-06T11:16:50Z</time>
      </trkpt>
      <trkpt lat="49.87859" lon="4.70409">
        <ele>170.2</ele>
        <time>2024-04-06T11:16:51Z</time>
      </trkpt>
      <trkpt lat="49.87855" lon="4.70409">
        <ele>170.4</ele>
        <time>2024-04-06T11:16:52Z</time>
      </trkpt>
      <trkpt lat="49.8785" lon="4.7041">
        <ele>170.8</ele>
        <time>2024-04-06T11:16:53Z</time>
      </trkpt>
      <trkpt lat="49.87846" lon="4.7041">
        <ele>170.8</ele>
        <time>2024-04-06T11:16:54Z</time>
      </trkpt>
      <trkpt lat="49.87842" lon="4.70411">
        <ele>171.4</ele>
        <time>2024-04-06T11:16:55Z</time>
      </trkpt>
      <trkpt lat="49.87838" lon="4.70411">
        <ele>171.6</ele>
        <time>2024-04-06T11:16:56Z</time>
      </trkpt>
      <trkpt lat="49.87834" lon="4.70411">
        <ele>172.4</ele>
        <time>2024-04-06T11:16:57Z</time>
      </trkpt>
      <trkpt lat="49.8783" lon="4.70411">
        <ele>172.8</ele>
        <time>2024-04-06T11:16:58Z</time>
      </trkpt>
      <trkpt lat="49.87826" lon="4.70412">
        <ele>173.2</ele>
        <time>2024-04-06T11:16:59Z</time>
      </trkpt>
      <trkpt lat="49.87823" lon="4.70412">
        <ele>173.2</ele>
        <time>2024-04-06T11:17:00Z</time>
      </trkpt>
      <trkpt lat="49.87819" lon="4.70412">
        <ele>173.6</ele>
        <time>2024-04-06T11:17:01Z</time>
      </trkpt>
      <trkpt lat="49.87815" lon="4.70413">
        <ele>174</ele>
        <time>2024-04-06T11:17:02Z</time>
      </trkpt>
      <trkpt lat="49.87811" lon="4.70413">
        <ele>174.2</ele>
        <time>2024-04-06T11:17:03Z</time>
      </trkpt>
      <trkpt lat="49.87808" lon="4.70413">
        <ele>174.4</ele>
        <time>2024-04-06T11:17:04Z</time>
      </trkpt>
      <trkpt lat="49.87804" lon="4.70414">
        <ele>175</ele>
        <time>2024-04-06T11:17:05Z</time>
      </trkpt>
      <trkpt lat="49.878" lon="4.70414">
        <ele>175.2</ele>
        <time>2024-04-06T11:17:06Z</time>
      </trkpt>
      <trkpt lat="49.87797" lon="4.70415">
        <ele>175.4</ele>
        <time>2024-04-06T11:17:07Z</time>
      </trkpt>
      <trkpt lat="49.87793" lon="4.70415">
        <ele>175.4</ele>
        <time>2024-04-06T11:17:08Z</time>
      </trkpt>
      <trkpt lat="49.8779" lon="4.70416">
        <ele>175.6</ele>
        <time>2024-04-06T11:17:09Z</time>
      </trkpt>
      <trkpt lat="49.87786" lon="4.70416">
        <ele>176</ele>
        <time>2024-04-06T11:17:10Z</time>
      </trkpt>
      <trkpt lat="49.87782" lon="4.70417">
        <ele>176.2</ele>
        <time>2024-04-06T11:17:11Z</time>
      </trkpt>
      <trkpt lat="49.87779" lon="4.70417">
        <ele>176.4</ele>
        <time>2024-04-06T11:17:12Z</time>
      </trkpt>
      <trkpt lat="49.87775" lon="4.70417">
        <ele>176.6</ele>
        <time>2024-04-06T11:17:13Z</time>
      </trkpt>
      <trkpt lat="49.87771" lon="4.70417">
        <ele>177</ele>
        <time>2024-04-06T11:17:14Z</time>
      </trkpt>
      <trkpt lat="49.87767" lon="4.70417">
        <ele>177.6</ele>
        <time>2024-04-06T11:17:15Z</time>
      </trkpt>
      <trkpt lat="49.87764" lon="4.70418">
        <ele>178</ele>
        <time>2024-04-06T11:17:16Z</time>
      </trkpt>
      <trkpt lat="49.8776" lon="4.70418">
        <ele>178.4</ele>
        <time>2024-04-06T11:17:17Z</time>
      </trkpt>
      <trkpt lat="49.87756" lon="4.70418">
        <ele>178.8</ele>
        <time>2024-04-06T11:17:18Z</time>
      </trkpt>
      <trkpt lat="49.87752" lon="4.70418">
        <ele>179</ele>
        <time>2024-04-06T11:17:19Z</time>
      </trkpt>
      <trkpt lat="49.87748" lon="4.70418">
        <ele>179</ele>
        <time>2024-04-06T11:17:20Z</time>
      </trkpt>
      <trkpt lat="49.87744" lon="4.70418">
        <ele>179</ele>
        <time>2024-04-06T11:17:21Z</time>
      </trkpt>
      <trkpt lat="49.8774" lon="4.70419">
        <ele>179.2</ele>
        <time>2024-04-06T11:17:22Z</time>
      </trkpt>
      <trkpt lat="49.87736" lon="4.70419">
        <ele>179.4</ele>
        <time>2024-04-06T11:17:23Z</time>
      </trkpt>
      <trkpt lat="49.87731" lon="4.70419">
        <ele>179.6</ele>
        <time>2024-04-06T11:17:24Z</time>
      </trkpt>
      <trkpt lat="49.87727" lon="4.70419">
        <ele>179.6</ele>
        <time>2024-04-06T11:17:25Z</time>
      </trkpt>
      <trkpt lat="49.87723" lon="4.70419">
        <ele>179.8</ele>
        <time>2024-04-06T11:17:26Z</time>
      </trkpt>
      <trkpt lat="49.87719" lon="4.70419">
        <ele>179.8</ele>
        <time>2024-04-06T11:17:27Z</time>
      </trkpt>
      <trkpt lat="49.87714" lon="4.70419">
        <ele>180</ele>
        <time>2024-04-06T11:17:28Z</time>
      </trkpt>
      <trkpt lat="49.8771" lon="4.70419">
        <ele>180.4</ele>
        <time>2024-04-06T11:17:29Z</time>
      </trkpt>
      <trkpt lat="49.87706" lon="4.7042">
        <ele>180.4</ele>
        <time>2024-04-06T11:17:30Z</time>
      </trkpt>
      <trkpt lat="49.87702" lon="4.70419">
        <ele>180.4</ele>
        <time>2024-04-06T11:17:31Z</time>
      </trkpt>
      <trkpt lat="49.87697" lon="4.70419">
        <ele>180.4</ele>
        <time>2024-04-06T11:17:32Z</time>
      </trkpt>
      <trkpt lat="49.87693" lon="4.70418">
        <ele>180.6</ele>
        <time>2024-04-06T11:17:33Z</time>
      </trkpt>
      <trkpt lat="49.87688" lon="4.70418">
        <ele>180.8</ele>
        <time>2024-04-06T11:17:34Z</time>
      </trkpt>
      <trkpt lat="49.87684" lon="4.70417">
        <ele>180.8</ele>
        <time>2024-04-06T11:17:35Z</time>
      </trkpt>
      <trkpt lat="49.8768" lon="4.70416">
        <ele>181.2</ele>
        <time>2024-04-06T11:17:36Z</time>
      </trkpt>
      <trkpt lat="49.87675" lon="4.70416">
        <ele>181.2</ele>
        <time>2024-04-06T11:17:37Z</time>
      </trkpt>
      <trkpt lat="49.8767" lon="4.70414">
        <ele>181.2</ele>
        <time>2024-04-06T11:17:38Z</time>
      </trkpt>
      <trkpt lat="49.87666" lon="4.70413">
        <ele>181.4</ele>
        <time>2024-04-06T11:17:39Z</time>
      </trkpt>
      <trkpt lat="49.87661" lon="4.70411">
        <ele>181.4</ele>
        <time>2024-04-06T11:17:40Z</time>
      </trkpt>
      <trkpt lat="49.87656" lon="4.7041">
        <ele>181.4</ele>
        <time>2024-04-06T11:17:41Z</time>
      </trkpt>
      <trkpt lat="49.87651" lon="4.70407">
        <ele>181.8</ele>
        <time>2024-04-06T11:17:42Z</time>
      </trkpt>
      <trkpt lat="49.87647" lon="4.70404">
        <ele>181.8</ele>
        <time>2024-04-06T11:17:43Z</time>
      </trkpt>
      <trkpt lat="49.87642" lon="4.70401">
        <ele>181.8</ele>
        <time>2024-04-06T11:17:44Z</time>
      </trkpt>
      <trkpt lat="49.87637" lon="4.70398">
        <ele>181.8</ele>
        <time>2024-04-06T11:17:45Z</time>
      </trkpt>
      <trkpt lat="49.87632" lon="4.70395">
        <ele>181.8</ele>
        <time>2024-04-06T11:17:46Z</time>
      </trkpt>
      <trkpt lat="49.87627" lon="4.70391">
        <ele>182</ele>
        <time>2024-04-06T11:17:47Z</time>
      </trkpt>
      <trkpt lat="49.87621" lon="4.70387">
        <ele>181.8</ele>
        <time>2024-04-06T11:17:48Z</time>
      </trkpt>
      <trkpt lat="49.87616" lon="4.70383">
        <ele>181.8</ele>
        <time>2024-04-06T11:17:49Z</time>
      </trkpt>
      <trkpt lat="49.87611" lon="4.70378">
        <ele>181.8</ele>
        <time>2024-04-06T11:17:50Z</time>
      </trkpt>
      <trkpt lat="49.87605" lon="4.70372">
        <ele>181.8</ele>
        <time>2024-04-06T11:17:51Z</time>
      </trkpt>
      <trkpt lat="49.87599" lon="4.70366">
        <ele>181.6</ele>
        <time>2024-04-06T11:17:52Z</time>
      </trkpt>
      <trkpt lat="49.87593" lon="4.7036">
        <ele>181.6</ele>
        <time>2024-04-06T11:17:53Z</time>
      </trkpt>
      <trkpt lat="49.87587" lon="4.70353">
        <ele>181.2</ele>
        <time>2024-04-06T11:17:54Z</time>
      </trkpt>
      <trkpt lat="49.8758" lon="4.70346">
        <ele>181</ele>
        <time>2024-04-06T11:17:55Z</time>
      </trkpt>
      <trkpt lat="49.87574" lon="4.70338">
        <ele>180.8</ele>
        <time>2024-04-06T11:17:56Z</time>
      </trkpt>
      <trkpt lat="49.87567" lon="4.70329">
        <ele>180.6</ele>
        <time>2024-04-06T11:17:57Z</time>
      </trkpt>
      <trkpt lat="49.8756" lon="4.7032">
        <ele>180.6</ele>
        <time>2024-04-06T11:17:58Z</time>
      </trkpt>
      <trkpt lat="49.87554" lon="4.7031">
        <ele>180</ele>
        <time>2024-04-06T11:17:59Z</time>
      </trkpt>
      <trkpt lat="49.87547" lon="4.703">
        <ele>179.4</ele>
        <time>2024-04-06T11:18:00Z</time>
      </trkpt>
      <trkpt lat="49.8754" lon="4.7029">
        <ele>179</ele>
        <time>2024-04-06T11:18:01Z</time>
      </trkpt>
      <trkpt lat="49.87533" lon="4.70279">
        <ele>178.6</ele>
        <time>2024-04-06T11:18:02Z</time>
      </trkpt>
      <trkpt lat="49.87526" lon="4.70269">
        <ele>177.8</ele>
        <time>2024-04-06T11:18:03Z</time>
      </trkpt>
      <trkpt lat="49.87519" lon="4.70258">
        <ele>177.4</ele>
        <time>2024-04-06T11:18:04Z</time>
      </trkpt>
      <trkpt lat="49.87512" lon="4.70247">
        <ele>177</ele>
        <time>2024-04-06T11:18:05Z</time>
      </trkpt>
      <trkpt lat="49.87505" lon="4.70236">
        <ele>176</ele>
        <time>2024-04-06T11:18:06Z</time>
      </trkpt>
      <trkpt lat="49.87497" lon="4.70225">
        <ele>175</ele>
        <time>2024-04-06T11:18:07Z</time>
      </trkpt>
      <trkpt lat="49.8749" lon="4.70213">
        <ele>174.2</ele>
        <time>2024-04-06T11:18:08Z</time>
      </trkpt>
      <trkpt lat="49.87482" lon="4.70201">
        <ele>173.4</ele>
        <time>2024-04-06T11:18:09Z</time>
      </trkpt>
      <trkpt lat="49.87475" lon="4.7019">
        <ele>172.8</ele>
        <time>2024-04-06T11:18:10Z</time>
      </trkpt>
      <trkpt lat="49.87468" lon="4.70178">
        <ele>172.4</ele>
        <time>2024-04-06T11:18:11Z</time>
      </trkpt>
      <trkpt lat="49.8746" lon="4.70166">
        <ele>171.8</ele>
        <time>2024-04-06T11:18:12Z</time>
      </trkpt>
      <trkpt lat="49.87452" lon="4.70154">
        <ele>171.6</ele>
        <time>2024-04-06T11:18:13Z</time>
      </trkpt>
      <trkpt lat="49.87444" lon="4.70142">
        <ele>171.6</ele>
        <time>2024-04-06T11:18:14Z</time>
      </trkpt>
      <trkpt lat="49.87436" lon="4.70131">
        <ele>171.6</ele>
        <time>2024-04-06T11:18:15Z</time>
      </trkpt>
      <trkpt lat="49.87429" lon="4.70119">
        <ele>171</ele>
        <time>2024-04-06T11:18:16Z</time>
      </trkpt>
      <trkpt lat="49.87421" lon="4.70106">
        <ele>171</ele>
        <time>2024-04-06T11:18:17Z</time>
      </trkpt>
      <trkpt lat="49.87414" lon="4.70094">
        <ele>170.8</ele>
        <time>2024-04-06T11:18:18Z</time>
      </trkpt>
      <trkpt lat="49.87407" lon="4.70082">
        <ele>170</ele>
        <time>2024-04-06T11:18:19Z</time>
      </trkpt>
      <trkpt lat="49.874" lon="4.70068">
        <ele>169.2</ele>
        <time>2024-04-06T11:18:20Z</time>
      </trkpt>
      <trkpt lat="49.87393" lon="4.70055">
        <ele>168.8</ele>
        <time>2024-04-06T11:18:21Z</time>
      </trkpt>
      <trkpt lat="49.87387" lon="4.70041">
        <ele>168.2</ele>
        <time>2024-04-06T11:18:22Z</time>
      </trkpt>
      <trkpt lat="49.8738" lon="4.70027">
        <ele>168.2</ele>
        <time>2024-04-06T11:18:23Z</time>
      </trkpt>
      <trkpt lat="49.87374" lon="4.70012">
        <ele>168.2</ele>
        <time>2024-04-06T11:18:24Z</time>
      </trkpt>
      <trkpt lat="49.87368" lon="4.69998">
        <ele>167.4</ele>
        <time>2024-04-06T11:18:25Z</time>
      </trkpt>
      <trkpt lat="49.87363" lon="4.69984">
        <ele>166.2</ele>
        <time>2024-04-06T11:18:26Z</time>
      </trkpt>
      <trkpt lat="49.87358" lon="4.69969">
        <ele>165.6</ele>
        <time>2024-04-06T11:18:27Z</time>
      </trkpt>
      <trkpt lat="49.87354" lon="4.69955">
        <ele>165.2</ele>
        <time>2024-04-06T11:18:28Z</time>
      </trkpt>
      <trkpt lat="49.87351" lon="4.69941">
        <ele>164.8</ele>
        <time>2024-04-06T11:18:29Z</time>
      </trkpt>
      <trkpt lat="49.87348" lon="4.69928">
        <ele>164.6</ele>
        <time>2024-04-06T11:18:30Z</time>
      </trkpt>
      <trkpt lat="49.87344" lon="4.69916">
        <ele>164.6</ele>
        <time>2024-04-06T11:18:31Z</time>
      </trkpt>
      <trkpt lat="49.87341" lon="4.69905">
        <ele>164.6</ele>
        <time>2024-04-06T11:18:32Z</time>
      </trkpt>
      <trkpt lat="49.87338" lon="4.69894">
        <ele>164.4</ele>
        <time>2024-04-06T11:18:33Z</time>
      </trkpt>
      <trkpt lat="49.87336" lon="4.69884">
        <ele>164.4</ele>
        <time>2024-04-06T11:18:34Z</time>
      </trkpt>
      <trkpt lat="49.87333" lon="4.69874">
        <ele>164.4</ele>
        <time>2024-04-06T11:18:35Z</time>
      </trkpt>
      <trkpt lat="49.87331" lon="4.69864">
        <ele>164.4</ele>
        <time>2024-04-06T11:18:36Z</time>
      </trkpt>
      <trkpt lat="49.87329" lon="4.69855">
        <ele>164.6</ele>
        <time>2024-04-06T11:18:37Z</time>
      </trkpt>
      <trkpt lat="49.87326" lon="4.69847">
        <ele>164.8</ele>
        <time>2024-04-06T11:18:38Z</time>
      </trkpt>
      <trkpt lat="49.87325" lon="4.69839">
        <ele>164.8</ele>
        <time>2024-04-06T11:18:39Z</time>
      </trkpt>
      <trkpt lat="49.87323" lon="4.69832">
        <ele>164.8</ele>
        <time>2024-04-06T11:18:40Z</time>
      </trkpt>
      <trkpt lat="49.87321" lon="4.69825">
        <ele>165.4</ele>
        <time>2024-04-06T11:18:41Z</time>
      </trkpt>
      <trkpt lat="49.87319" lon="4.69818">
        <ele>166</ele>
        <time>2024-04-06T11:18:42Z</time>
      </trkpt>
      <trkpt lat="49.87317" lon="4.69811">
        <ele>166.6</ele>
        <time>2024-04-06T11:18:43Z</time>
      </trkpt>
      <trkpt lat="49.87316" lon="4.69805">
        <ele>167</ele>
        <time>2024-04-06T11:18:44Z</time>
      </trkpt>
      <trkpt lat="49.87314" lon="4.69799">
        <ele>167.6</ele>
        <time>2024-04-06T11:18:45Z</time>
      </trkpt>
      <trkpt lat="49.87312" lon="4.69792">
        <ele>168.2</ele>
        <time>2024-04-06T11:18:46Z</time>
      </trkpt>
      <trkpt lat="49.87311" lon="4.69786">
        <ele>168.8</ele>
        <time>2024-04-06T11:18:47Z</time>
      </trkpt>
      <trkpt lat="49.87309" lon="4.6978">
        <ele>169.2</ele>
        <time>2024-04-06T11:18:48Z</time>
      </trkpt>
      <trkpt lat="49.87308" lon="4.69774">
        <ele>169.8</ele>
        <time>2024-04-06T11:18:49Z</time>
      </trkpt>
      <trkpt lat="49.87306" lon="4.69768">
        <ele>170</ele>
        <time>2024-04-06T11:18:50Z</time>
      </trkpt>
      <trkpt lat="49.87305" lon="4.69763">
        <ele>170.4</ele>
        <time>2024-04-06T11:18:51Z</time>
      </trkpt>
      <trkpt lat="49.87303" lon="4.69757">
        <ele>170.8</ele>
        <time>2024-04-06T11:18:52Z</time>
      </trkpt>
      <trkpt lat="49.87301" lon="4.69751">
        <ele>171.2</ele>
        <time>2024-04-06T11:18:53Z</time>
      </trkpt>
      <trkpt lat="49.873" lon="4.69746">
        <ele>171.4</ele>
        <time>2024-04-06T11:18:54Z</time>
      </trkpt>
      <trkpt lat="49.87298" lon="4.69741">
        <ele>171.8</ele>
        <time>2024-04-06T11:18:55Z</time>
      </trkpt>
      <trkpt lat="49.87296" lon="4.69736">
        <ele>172.4</ele>
        <time>2024-04-06T11:18:56Z</time>
      </trkpt>
      <trkpt lat="49.87295" lon="4.69731">
        <ele>172.6</ele>
        <time>2024-04-06T11:18:57Z</time>
      </trkpt>
      <trkpt lat="49.87293" lon="4.69726">
        <ele>173.2</ele>
        <time>2024-04-06T11:18:58Z</time>
      </trkpt>
      <trkpt lat="49.87291" lon="4.69722">
        <ele>173.2</ele>
        <time>2024-04-06T11:18:59Z</time>
      </trkpt>
      <trkpt lat="49.87289" lon="4.69717">
        <ele>174</ele>
        <time>2024-04-06T11:19:00Z</time>
      </trkpt>
      <trkpt lat="49.87287" lon="4.69713">
        <ele>174</ele>
        <time>2024-04-06T11:19:01Z</time>
      </trkpt>
      <trkpt lat="49.87285" lon="4.69709">
        <ele>174.4</ele>
        <time>2024-04-06T11:19:02Z</time>
      </trkpt>
      <trkpt lat="49.87284" lon="4.69705">
        <ele>174.6</ele>
        <time>2024-04-06T11:19:03Z</time>
      </trkpt>
      <trkpt lat="49.87282" lon="4.69701">
        <ele>174.8</ele>
        <time>2024-04-06T11:19:04Z</time>
      </trkpt>
      <trkpt lat="49.8728" lon="4.69698">
        <ele>175.2</ele>
        <time>2024-04-06T11:19:05Z</time>
      </trkpt>
      <trkpt lat="49.87278" lon="4.69694">
        <ele>175.4</ele>
        <time>2024-04-06T11:19:06Z</time>
      </trkpt>
      <trkpt lat="49.87276" lon="4.6969">
        <ele>175.8</ele>
        <time>2024-04-06T11:19:07Z</time>
      </trkpt>
      <trkpt lat="49.87274" lon="4.69687">
        <ele>176</ele>
        <time>2024-04-06T11:19:08Z</time>
      </trkpt>
      <trkpt lat="49.87272" lon="4.69684">
        <ele>176.4</ele>
        <time>2024-04-06T11:19:09Z</time>
      </trkpt>
      <trkpt lat="49.87271" lon="4.69681">
        <ele>176.6</ele>
        <time>2024-04-06T11:19:10Z</time>
      </trkpt>
      <trkpt lat="49.87269" lon="4.69678">
        <ele>177</ele>
        <time>2024-04-06T11:19:11Z</time>
      </trkpt>
      <trkpt lat="49.87267" lon="4.69674">
        <ele>177.2</ele>
        <time>2024-04-06T11:19:12Z</time>
      </trkpt>
      <trkpt lat="49.87265" lon="4.69671">
        <ele>177.4</ele>
        <time>2024-04-06T11:19:13Z</time>
      </trkpt>
      <trkpt lat="49.87263" lon="4.69667">
        <ele>177.8</ele>
        <time>2024-04-06T11:19:14Z</time>
      </trkpt>
      <trkpt lat="49.87261" lon="4.69664">
        <ele>177.8</ele>
        <time>2024-04-06T11:19:15Z</time>
      </trkpt>
      <trkpt lat="49.87259" lon="4.6966">
        <ele>178.2</ele>
        <time>2024-04-06T11:19:16Z</time>
      </trkpt>
      <trkpt lat="49.87257" lon="4.69657">
        <ele>178.4</ele>
        <time>2024-04-06T11:19:17Z</time>
      </trkpt>
      <trkpt lat="49.87256" lon="4.69654">
        <ele>179</ele>
        <time>2024-04-06T11:19:18Z</time>
      </trkpt>
      <trkpt lat="49.87254" lon="4.69651">
        <ele>179.2</ele>
        <time>2024-04-06T11:19:19Z</time>
      </trkpt>
      <trkpt lat="49.87253" lon="4.69648">
        <ele>179.4</ele>
        <time>2024-04-06T11:19:20Z</time>
      </trkpt>
      <trkpt lat="49.87251" lon="4.69645">
        <ele>179.4</ele>
        <time>2024-04-06T11:19:21Z</time>
      </trkpt>
      <trkpt lat="49.87249" lon="4.69643">
        <ele>179.6</ele>
        <time>2024-04-06T11:19:22Z</time>
      </trkpt>
      <trkpt lat="49.87247" lon="4.69641">
        <ele>179.8</ele>
        <time>2024-04-06T11:19:23Z</time>
      </trkpt>
      <trkpt lat="49.87246" lon="4.69639">
        <ele>180.2</ele>
        <time>2024-04-06T11:19:24Z</time>
      </trkpt>
      <trkpt lat="49.87244" lon="4.69636">
        <ele>180.2</ele>
        <time>2024-04-06T11:19:25Z</time>
      </trkpt>
      <trkpt lat="49.87242" lon="4.69633">
        <ele>180.4</ele>
        <time>2024-04-06T11:19:26Z</time>
      </trkpt>
      <trkpt lat="49.8724" lon="4.6963">
        <ele>180.6</ele>
        <time>2024-04-06T11:19:27Z</time>
      </trkpt>
      <trkpt lat="49.87239" lon="4.69627">
        <ele>180.8</ele>
        <time>2024-04-06T11:19:28Z</time>
      </trkpt>
      <trkpt lat="49.87237" lon="4.69625">
        <ele>181</ele>
        <time>2024-04-06T11:19:29Z</time>
      </trkpt>
      <trkpt lat="49.87236" lon="4.69622">
        <ele>181.2</ele>
        <time>2024-04-06T11:19:30Z</time>
      </trkpt>
      <trkpt lat="49.87234" lon="4.6962">
        <ele>181.2</ele>
        <time>2024-04-06T11:19:31Z</time>
      </trkpt>
      <trkpt lat="49.87233" lon="4.69617">
        <ele>181.4</ele>
        <time>2024-04-06T11:19:32Z</time>
      </trkpt>
      <trkpt lat="49.87231" lon="4.69614">
        <ele>181.6</ele>
        <time>2024-04-06T11:19:33Z</time>
      </trkpt>
      <trkpt lat="49.87229" lon="4.69611">
        <ele>181.8</ele>
        <time>2024-04-06T11:19:34Z</time>
      </trkpt>
      <trkpt lat="49.87228" lon="4.69607">
        <ele>182.2</ele>
        <time>2024-04-06T11:19:35Z</time>
      </trkpt>
      <trkpt lat="49.87226" lon="4.69604">
        <ele>182.6</ele>
        <time>2024-04-06T11:19:36Z</time>
      </trkpt>
      <trkpt lat="49.87224" lon="4.696">
        <ele>182.8</ele>
        <time>2024-04-06T11:19:37Z</time>
      </trkpt>
      <trkpt lat="49.87223" lon="4.69596">
        <ele>183</ele>
        <time>2024-04-06T11:19:38Z</time>
      </trkpt>
      <trkpt lat="49.87221" lon="4.69593">
        <ele>183.2</ele>
        <time>2024-04-06T11:19:39Z</time>
      </trkpt>
      <trkpt lat="49.87219" lon="4.69589">
        <ele>183.2</ele>
        <time>2024-04-06T11:19:40Z</time>
      </trkpt>
      <trkpt lat="49.87217" lon="4.69585">
        <ele>183.6</ele>
        <time>2024-04-06T11:19:41Z</time>
      </trkpt>
      <trkpt lat="49.87216" lon="4.69581">
        <ele>183.6</ele>
        <time>2024-04-06T11:19:42Z</time>
      </trkpt>
      <trkpt lat="49.87214" lon="4.69577">
        <ele>183.8</ele>
        <time>2024-04-06T11:19:43Z</time>
      </trkpt>
      <trkpt lat="49.87213" lon="4.69573">
        <ele>184</ele>
        <time>2024-04-06T11:19:44Z</time>
      </trkpt>
      <trkpt lat="49.87211" lon="4.69569">
        <ele>184</ele>
        <time>2024-04-06T11:19:45Z</time>
      </trkpt>
      <trkpt lat="49.8721" lon="4.69566">
        <ele>184</ele>
        <time>2024-04-06T11:19:46Z</time>
      </trkpt>
      <trkpt lat="49.87209" lon="4.69563">
        <ele>184.2</ele>
        <time>2024-04-06T11:19:47Z</time>
      </trkpt>
      <trkpt lat="49.87209" lon="4.6956">
        <ele>184.4</ele>
        <time>2024-04-06T11:19:48Z</time>
      </trkpt>
      <trkpt lat="49.87208" lon="4.69557">
        <ele>184.6</ele>
        <time>2024-04-06T11:19:49Z</time>
      </trkpt>
      <trkpt lat="49.87207" lon="4.69553">
        <ele>185</ele>
        <time>2024-04-06T11:19:50Z</time>
      </trkpt>
      <trkpt lat="49.87206" lon="4.6955">
        <ele>185.2</ele>
        <time>2024-04-06T11:19:51Z</time>
      </trkpt>
      <trkpt lat="49.87206" lon="4.69546">
        <ele>185</ele>
        <time>2024-04-06T11:19:52Z</time>
      </trkpt>
      <trkpt lat="49.87205" lon="4.69542">
        <ele>185.2</ele>
        <time>2024-04-06T11:19:53Z</time>
      </trkpt>
      <trkpt lat="49.87204" lon="4.69538">
        <ele>185.4</ele>
        <time>2024-04-06T11:19:54Z</time>
      </trkpt>
      <trkpt lat="49.87203" lon="4.69534">
        <ele>185.6</ele>
        <time>2024-04-06T11:19:55Z</time>
      </trkpt>
      <trkpt lat="49.87202" lon="4.6953">
        <ele>185.8</ele>
        <time>2024-04-06T11:19:56Z</time>
      </trkpt>
      <trkpt lat="49.87201" lon="4.69526">
        <ele>186.2</ele>
        <time>2024-04-06T11:19:57Z</time>
      </trkpt>
      <trkpt lat="49.87201" lon="4.69524">
        <ele>186.4</ele>
        <time>2024-04-06T11:19:58Z</time>
      </trkpt>
      <trkpt lat="49.87201" lon="4.69523">
        <ele>186.6</ele>
        <time>2024-04-06T11:19:59Z</time>
      </trkpt>
      <trkpt lat="49.872" lon="4.69522">
        <ele>187.2</ele>
        <time>2024-04-06T11:20:00Z</time>
      </trkpt>
      <trkpt lat="49.872" lon="4.69522">
        <ele>187.4</ele>
        <time>2024-04-06T11:20:01Z</time>
      </trkpt>
      <trkpt lat="49.87197" lon="4.69515">
        <ele>188.8</ele>
        <time>2024-04-06T11:20:36Z</time>
      </trkpt>
      <trkpt lat="49.87197" lon="4.69513">
        <ele>189</ele>
        <time>2024-04-06T11:20:37Z</time>
      </trkpt>
      <trkpt lat="49.87196" lon="4.69511">
        <ele>188.8</ele>
        <time>2024-04-06T11:20:38Z</time>
      </trkpt>
      <trkpt lat="49.87196" lon="4.69508">
        <ele>188.8</ele>
        <time>2024-04-06T11:20:39Z</time>
      </trkpt>
      <trkpt lat="49.87195" lon="4.69505">
        <ele>189</ele>
        <time>2024-04-06T11:20:40Z</time>
      </trkpt>
      <trkpt lat="49.87195" lon="4.69502">
        <ele>189</ele>
        <time>2024-04-06T11:20:41Z</time>
      </trkpt>
      <trkpt lat="49.87194" lon="4.69499">
        <ele>188.8</ele>
        <time>2024-04-06T11:20:42Z</time>
      </trkpt>
      <trkpt lat="49.87194" lon="4.69495">
        <ele>189</ele>
        <time>2024-04-06T11:20:43Z</time>
      </trkpt>
      <trkpt lat="49.87193" lon="4.69492">
        <ele>189</ele>
        <time>2024-04-06T11:20:44Z</time>
      </trkpt>
      <trkpt lat="49.87193" lon="4.69488">
        <ele>189</ele>
        <time>2024-04-06T11:20:45Z</time>
      </trkpt>
      <trkpt lat="49.87193" lon="4.69484">
        <ele>189.2</ele>
        <time>2024-04-06T11:20:46Z</time>
      </trkpt>
      <trkpt lat="49.87192" lon="4.69479">
        <ele>189.2</ele>
        <time>2024-04-06T11:20:47Z</time>
      </trkpt>
      <trkpt lat="49.87192" lon="4.69475">
        <ele>189.4</ele>
        <time>2024-04-06T11:20:48Z</time>
      </trkpt>
      <trkpt lat="49.87192" lon="4.69471">
        <ele>189.6</ele>
        <time>2024-04-06T11:20:49Z</time>
      </trkpt>
      <trkpt lat="49.87192" lon="4.69467">
        <ele>189.6</ele>
        <time>2024-04-06T11:20:50Z</time>
      </trkpt>
      <trkpt lat="49.87192" lon="4.69462">
        <ele>189.8</ele>
        <time>2024-04-06T11:20:51Z</time>
      </trkpt>
      <trkpt lat="49.87191" lon="4.69458">
        <ele>189.8</ele>
        <time>2024-04-06T11:20:52Z</time>
      </trkpt>
      <trkpt lat="49.87191" lon="4.69454">
        <ele>189.8</ele>
        <time>2024-04-06T11:20:53Z</time>
      </trkpt>
      <trkpt lat="49.87191" lon="4.6945">
        <ele>190</ele>
        <time>2024-04-06T11:20:54Z</time>
      </trkpt>
      <trkpt lat="49.87191" lon="4.69446">
        <ele>190</ele>
        <time>2024-04-06T11:20:55Z</time>
      </trkpt>
      <trkpt lat="49.87191" lon="4.69441">
        <ele>190.4</ele>
        <time>2024-04-06T11:20:56Z</time>
      </trkpt>
      <trkpt lat="49.87191" lon="4.69437">
        <ele>190.6</ele>
        <time>2024-04-06T11:20:57Z</time>
      </trkpt>
      <trkpt lat="49.87192" lon="4.69433">
        <ele>191</ele>
        <time>2024-04-06T11:20:58Z</time>
      </trkpt>
      <trkpt lat="49.87192" lon="4.69428">
        <ele>191</ele>
        <time>2024-04-06T11:20:59Z</time>
      </trkpt>
      <trkpt lat="49.87192" lon="4.69423">
        <ele>191.2</ele>
        <time>2024-04-06T11:21:00Z</time>
      </trkpt>
      <trkpt lat="49.87193" lon="4.69418">
        <ele>191.4</ele>
        <time>2024-04-06T11:21:01Z</time>
      </trkpt>
      <trkpt lat="49.87193" lon="4.69413">
        <ele>191.6</ele>
        <time>2024-04-06T11:21:02Z</time>
      </trkpt>
      <trkpt lat="49.87193" lon="4.69408">
        <ele>192</ele>
        <time>2024-04-06T11:21:03Z</time>
      </trkpt>
      <trkpt lat="49.87194" lon="4.69403">
        <ele>192</ele>
        <time>2024-04-06T11:21:04Z</time>
      </trkpt>
      <trkpt lat="49.87194" lon="4.69397">
        <ele>192.4</ele>
        <time>2024-04-06T11:21:05Z</time>
      </trkpt>
      <trkpt lat="49.87194" lon="4.69392">
        <ele>192.6</ele>
        <time>2024-04-06T11:21:06Z</time>
      </trkpt>
      <trkpt lat="49.87195" lon="4.69387">
        <ele>192.8</ele>
        <time>2024-04-06T11:21:07Z</time>
      </trkpt>
      <trkpt lat="49.87195" lon="4.69382">
        <ele>193</ele>
        <time>2024-04-06T11:21:08Z</time>
      </trkpt>
      <trkpt lat="49.87196" lon="4.69376">
        <ele>193</ele>
        <time>2024-04-06T11:21:09Z</time>
      </trkpt>
      <trkpt lat="49.87197" lon="4.69371">
        <ele>193.4</ele>
        <time>2024-04-06T11:21:10Z</time>
      </trkpt>
      <trkpt lat="49.87197" lon="4.69366">
        <ele>193.4</ele>
        <time>2024-04-06T11:21:11Z</time>
      </trkpt>
      <trkpt lat="49.87198" lon="4.69361">
        <ele>193.4</ele>
        <time>2024-04-06T11:21:12Z</time>
      </trkpt>
      <trkpt lat="49.87199" lon="4.69356">
        <ele>193.6</ele>
        <time>2024-04-06T11:21:13Z</time>
      </trkpt>
      <trkpt lat="49.872" lon="4.69351">
        <ele>193.6</ele>
        <time>2024-04-06T11:21:14Z</time>
      </trkpt>
      <trkpt lat="49.87201" lon="4.69345">
        <ele>193.6</ele>
        <time>2024-04-06T11:21:15Z</time>
      </trkpt>
      <trkpt lat="49.87202" lon="4.6934">
        <ele>193.8</ele>
        <time>2024-04-06T11:21:16Z</time>
      </trkpt>
      <trkpt lat="49.87203" lon="4.69334">
        <ele>194</ele>
        <time>2024-04-06T11:21:17Z</time>
      </trkpt>
      <trkpt lat="49.87204" lon="4.69329">
        <ele>194.4</ele>
        <time>2024-04-06T11:21:18Z</time>
      </trkpt>
      <trkpt lat="49.87205" lon="4.69323">
        <ele>194.4</ele>
        <time>2024-04-06T11:21:19Z</time>
      </trkpt>
      <trkpt lat="49.87206" lon="4.69317">
        <ele>194.4</ele>
        <time>2024-04-06T11:21:20Z</time>
      </trkpt>
      <trkpt lat="49.87207" lon="4.69312">
        <ele>194.6</ele>
        <time>2024-04-06T11:21:21Z</time>
      </trkpt>
      <trkpt lat="49.87209" lon="4.69306">
        <ele>194.8</ele>
        <time>2024-04-06T11:21:22Z</time>
      </trkpt>
      <trkpt lat="49.8721" lon="4.69301">
        <ele>194.8</ele>
        <time>2024-04-06T11:21:23Z</time>
      </trkpt>
      <trkpt lat="49.87211" lon="4.69295">
        <ele>194.8</ele>
        <time>2024-04-06T11:21:24Z</time>
      </trkpt>
      <trkpt lat="49.87213" lon="4.6929">
        <ele>194.8</ele>
        <time>2024-04-06T11:21:25Z</time>
      </trkpt>
      <trkpt lat="49.87214" lon="4.69284">
        <ele>195.2</ele>
        <time>2024-04-06T11:21:26Z</time>
      </trkpt>
      <trkpt lat="49.87215" lon="4.69278">
        <ele>195.4</ele>
        <time>2024-04-06T11:21:27Z</time>
      </trkpt>
      <trkpt lat="49.87216" lon="4.69272">
        <ele>195.4</ele>
        <time>2024-04-06T11:21:28Z</time>
      </trkpt>
      <trkpt lat="49.87217" lon="4.69266">
        <ele>195.6</ele>
        <time>2024-04-06T11:21:29Z</time>
      </trkpt>
      <trkpt lat="49.87218" lon="4.6926">
        <ele>195.4</ele>
        <time>2024-04-06T11:21:30Z</time>
      </trkpt>
      <trkpt lat="49.87219" lon="4.69254">
        <ele>195.6</ele>
        <time>2024-04-06T11:21:31Z</time>
      </trkpt>
      <trkpt lat="49.8722" lon="4.69248">
        <ele>195.6</ele>
        <time>2024-04-06T11:21:32Z</time>
      </trkpt>
      <trkpt lat="49.8722" lon="4.69242">
        <ele>195.8</ele>
        <time>2024-04-06T11:21:33Z</time>
      </trkpt>
      <trkpt lat="49.87221" lon="4.69236">
        <ele>195.8</ele>
        <time>2024-04-06T11:21:34Z</time>
      </trkpt>
      <trkpt lat="49.87222" lon="4.6923">
        <ele>195.8</ele>
        <time>2024-04-06T11:21:35Z</time>
      </trkpt>
      <trkpt lat="49.87222" lon="4.69224">
        <ele>196</ele>
        <time>2024-04-06T11:21:36Z</time>
      </trkpt>
      <trkpt lat="49.87223" lon="4.69218">
        <ele>196.2</ele>
        <time>2024-04-06T11:21:37Z</time>
      </trkpt>
      <trkpt lat="49.87224" lon="4.69213">
        <ele>196.2</ele>
        <time>2024-04-06T11:21:38Z</time>
      </trkpt>
      <trkpt lat="49.87224" lon="4.69207">
        <ele>196.2</ele>
        <time>2024-04-06T11:21:39Z</time>
      </trkpt>
      <trkpt lat="49.87225" lon="4.69201">
        <ele>196.2</ele>
        <time>2024-04-06T11:21:40Z</time>
      </trkpt>
      <trkpt lat="49.87225" lon="4.69195">
        <ele>196.4</ele>
        <time>2024-04-06T11:21:41Z</time>
      </trkpt>
      <trkpt lat="49.87226" lon="4.69189">
        <ele>196.8</ele>
        <time>2024-04-06T11:21:42Z</time>
      </trkpt>
      <trkpt lat="49.87226" lon="4.69184">
        <ele>197</ele>
        <time>2024-04-06T11:21:43Z</time>
      </trkpt>
      <trkpt lat="49.87227" lon="4.69178">
        <ele>197.4</ele>
        <time>2024-04-06T11:21:44Z</time>
      </trkpt>
      <trkpt lat="49.87227" lon="4.69172">
        <ele>197.6</ele>
        <time>2024-04-06T11:21:45Z</time>
      </trkpt>
      <trkpt lat="49.87227" lon="4.69166">
        <ele>197.8</ele>
        <time>2024-04-06T11:21:46Z</time>
      </trkpt>
      <trkpt lat="49.87228" lon="4.69161">
        <ele>197.8</ele>
        <time>2024-04-06T11:21:47Z</time>
      </trkpt>
      <trkpt lat="49.87228" lon="4.69155">
        <ele>198</ele>
        <time>2024-04-06T11:21:48Z</time>
      </trkpt>
      <trkpt lat="49.87228" lon="4.6915">
        <ele>198</ele>
        <time>2024-04-06T11:21:49Z</time>
      </trkpt>
      <trkpt lat="49.87228" lon="4.69144">
        <ele>198.4</ele>
        <time>2024-04-06T11:21:50Z</time>
      </trkpt>
      <trkpt lat="49.87229" lon="4.69139">
        <ele>198.4</ele>
        <time>2024-04-06T11:21:51Z</time>
      </trkpt>
      <trkpt lat="49.87229" lon="4.69134">
        <ele>198.6</ele>
        <time>2024-04-06T11:21:52Z</time>
      </trkpt>
      <trkpt lat="49.8723" lon="4.69129">
        <ele>198.8</ele>
        <time>2024-04-06T11:21:53Z</time>
      </trkpt>
      <trkpt lat="49.8723" lon="4.69124">
        <ele>199</ele>
        <time>2024-04-06T11:21:54Z</time>
      </trkpt>
      <trkpt lat="49.8723" lon="4.6912">
        <ele>199.4</ele>
        <time>2024-04-06T11:21:55Z</time>
      </trkpt>
      <trkpt lat="49.87231" lon="4.69115">
        <ele>199.6</ele>
        <time>2024-04-06T11:21:56Z</time>
      </trkpt>
      <trkpt lat="49.87231" lon="4.6911">
        <ele>200</ele>
        <time>2024-04-06T11:21:57Z</time>
      </trkpt>
      <trkpt lat="49.87231" lon="4.69104">
        <ele>200.2</ele>
        <time>2024-04-06T11:21:58Z</time>
      </trkpt>
      <trkpt lat="49.87231" lon="4.691">
        <ele>200.4</ele>
        <time>2024-04-06T11:21:59Z</time>
      </trkpt>
      <trkpt lat="49.87232" lon="4.69095">
        <ele>200.4</ele>
        <time>2024-04-06T11:22:00Z</time>
      </trkpt>
      <trkpt lat="49.87232" lon="4.6909">
        <ele>200.8</ele>
        <time>2024-04-06T11:22:01Z</time>
      </trkpt>
      <trkpt lat="49.87232" lon="4.69085">
        <ele>201</ele>
        <time>2024-04-06T11:22:02Z</time>
      </trkpt>
      <trkpt lat="49.87233" lon="4.6908">
        <ele>201.2</ele>
        <time>2024-04-06T11:22:03Z</time>
      </trkpt>
      <trkpt lat="49.87233" lon="4.69076">
        <ele>201.4</ele>
        <time>2024-04-06T11:22:04Z</time>
      </trkpt>
      <trkpt lat="49.87233" lon="4.69071">
        <ele>201.6</ele>
        <time>2024-04-06T11:22:05Z</time>
      </trkpt>
      <trkpt lat="49.87233" lon="4.69066">
        <ele>201.8</ele>
        <time>2024-04-06T11:22:06Z</time>
      </trkpt>
      <trkpt lat="49.87234" lon="4.69061">
        <ele>202</ele>
        <time>2024-04-06T11:22:07Z</time>
      </trkpt>
      <trkpt lat="49.87234" lon="4.69057">
        <ele>202.4</ele>
        <time>2024-04-06T11:22:08Z</time>
      </trkpt>
      <trkpt lat="49.87234" lon="4.69052">
        <ele>202.4</ele>
        <time>2024-04-06T11:22:09Z</time>
      </trkpt>
      <trkpt lat="49.87235" lon="4.69047">
        <ele>202.6</ele>
        <time>2024-04-06T11:22:10Z</time>
      </trkpt>
      <trkpt lat="49.87235" lon="4.69042">
        <ele>203</ele>
        <time>2024-04-06T11:22:11Z</time>
      </trkpt>
      <trkpt lat="49.87235" lon="4.69037">
        <ele>203.4</ele>
        <time>2024-04-06T11:22:12Z</time>
      </trkpt>
      <trkpt lat="49.87235" lon="4.69032">
        <ele>203.4</ele>
        <time>2024-04-06T11:22:13Z</time>
      </trkpt>
      <trkpt lat="49.87236" lon="4.69027">
        <ele>203.6</ele>
        <time>2024-04-06T11:22:14Z</time>
      </trkpt>
      <trkpt lat="49.87236" lon="4.69022">
        <ele>204</ele>
        <time>2024-04-06T11:22:15Z</time>
      </trkpt>
      <trkpt lat="49.87236" lon="4.69018">
        <ele>204.2</ele>
        <time>2024-04-06T11:22:16Z</time>
      </trkpt>
      <trkpt lat="49.87236" lon="4.69013">
        <ele>204.4</ele>
        <time>2024-04-06T11:22:17Z</time>
      </trkpt>
      <trkpt lat="49.87237" lon="4.69008">
        <ele>204.4</ele>
        <time>2024-04-06T11:22:18Z</time>
      </trkpt>
      <trkpt lat="49.87237" lon="4.69003">
        <ele>204.6</ele>
        <time>2024-04-06T11:22:19Z</time>
      </trkpt>
      <trkpt lat="49.87237" lon="4.68998">
        <ele>204.8</ele>
        <time>2024-04-06T11:22:20Z</time>
      </trkpt>
      <trkpt lat="49.87237" lon="4.68994">
        <ele>205</ele>
        <time>2024-04-06T11:22:21Z</time>
      </trkpt>
      <trkpt lat="49.87238" lon="4.68989">
        <ele>205.2</ele>
        <time>2024-04-06T11:22:22Z</time>
      </trkpt>
      <trkpt lat="49.87238" lon="4.68984">
        <ele>205.2</ele>
        <time>2024-04-06T11:22:23Z</time>
      </trkpt>
      <trkpt lat="49.87238" lon="4.68979">
        <ele>205.6</ele>
        <time>2024-04-06T11:22:24Z</time>
      </trkpt>
      <trkpt lat="49.87238" lon="4.68975">
        <ele>206</ele>
        <time>2024-04-06T11:22:25Z</time>
      </trkpt>
      <trkpt lat="49.87238" lon="4.6897">
        <ele>206.4</ele>
        <time>2024-04-06T11:22:26Z</time>
      </trkpt>
      <trkpt lat="49.87238" lon="4.68965">
        <ele>206.4</ele>
        <time>2024-04-06T11:22:27Z</time>
      </trkpt>
      <trkpt lat="49.87238" lon="4.68961">
        <ele>206.4</ele>
        <time>2024-04-06T11:22:28Z</time>
      </trkpt>
      <trkpt lat="49.87239" lon="4.68956">
        <ele>206.8</ele>
        <time>2024-04-06T11:22:29Z</time>
      </trkpt>
      <trkpt lat="49.87239" lon="4.68952">
        <ele>206.8</ele>
        <time>2024-04-06T11:22:30Z</time>
      </trkpt>
      <trkpt lat="49.87239" lon="4.68947">
        <ele>207</ele>
        <time>2024-04-06T11:22:31Z</time>
      </trkpt>
      <trkpt lat="49.87239" lon="4.68943">
        <ele>207.2</ele>
        <time>2024-04-06T11:22:32Z</time>
      </trkpt>
      <trkpt lat="49.87239" lon="4.68938">
        <ele>207.2</ele>
        <time>2024-04-06T11:22:33Z</time>
      </trkpt>
      <trkpt lat="49.87239" lon="4.68933">
        <ele>207.4</ele>
        <time>2024-04-06T11:22:34Z</time>
      </trkpt>
      <trkpt lat="49.87239" lon="4.68928">
        <ele>207.4</ele>
        <time>2024-04-06T11:22:35Z</time>
      </trkpt>
      <trkpt lat="49.87238" lon="4.68924">
        <ele>207.4</ele>
        <time>2024-04-06T11:22:36Z</time>
      </trkpt>
      <trkpt lat="49.87238" lon="4.68919">
        <ele>207.6</ele>
        <time>2024-04-06T11:22:37Z</time>
      </trkpt>
      <trkpt lat="49.87238" lon="4.68914">
        <ele>208.2</ele>
        <time>2024-04-06T11:22:38Z</time>
      </trkpt>
      <trkpt lat="49.87238" lon="4.6891">
        <ele>208.4</ele>
        <time>2024-04-06T11:22:39Z</time>
      </trkpt>
      <trkpt lat="49.87238" lon="4.68906">
        <ele>208.8</ele>
        <time>2024-04-06T11:22:40Z</time>
      </trkpt>
      <trkpt lat="49.87238" lon="4.68901">
        <ele>209.2</ele>
        <time>2024-04-06T11:22:41Z</time>
      </trkpt>
      <trkpt lat="49.87238" lon="4.68897">
        <ele>209.6</ele>
        <time>2024-04-06T11:22:42Z</time>
      </trkpt>
      <trkpt lat="49.87238" lon="4.68892">
        <ele>209.6</ele>
        <time>2024-04-06T11:22:43Z</time>
      </trkpt>
      <trkpt lat="49.87238" lon="4.68888">
        <ele>209.8</ele>
        <time>2024-04-06T11:22:44Z</time>
      </trkpt>
      <trkpt lat="49.87238" lon="4.68884">
        <ele>210.2</ele>
        <time>2024-04-06T11:22:45Z</time>
      </trkpt>
      <trkpt lat="49.87238" lon="4.6888">
        <ele>210.4</ele>
        <time>2024-04-06T11:22:46Z</time>
      </trkpt>
      <trkpt lat="49.87237" lon="4.68876">
        <ele>210.6</ele>
        <time>2024-04-06T11:22:47Z</time>
      </trkpt>
      <trkpt lat="49.87237" lon="4.68872">
        <ele>211</ele>
        <time>2024-04-06T11:22:48Z</time>
      </trkpt>
      <trkpt lat="49.87237" lon="4.68868">
        <ele>211</ele>
        <time>2024-04-06T11:22:49Z</time>
      </trkpt>
      <trkpt lat="49.87236" lon="4.68864">
        <ele>211.4</ele>
        <time>2024-04-06T11:22:50Z</time>
      </trkpt>
      <trkpt lat="49.87236" lon="4.6886">
        <ele>211.6</ele>
        <time>2024-04-06T11:22:51Z</time>
      </trkpt>
      <trkpt lat="49.87236" lon="4.68856">
        <ele>211.8</ele>
        <time>2024-04-06T11:22:52Z</time>
      </trkpt>
      <trkpt lat="49.87236" lon="4.68853">
        <ele>212</ele>
        <time>2024-04-06T11:22:53Z</time>
      </trkpt>
      <trkpt lat="49.87236" lon="4.68849">
        <ele>212.2</ele>
        <time>2024-04-06T11:22:54Z</time>
      </trkpt>
      <trkpt lat="49.87236" lon="4.68845">
        <ele>212.2</ele>
        <time>2024-04-06T11:22:55Z</time>
      </trkpt>
      <trkpt lat="49.87235" lon="4.68841">
        <ele>212.4</ele>
        <time>2024-04-06T11:22:56Z</time>
      </trkpt>
      <trkpt lat="49.87235" lon="4.68837">
        <ele>212.8</ele>
        <time>2024-04-06T11:22:57Z</time>
      </trkpt>
      <trkpt lat="49.87235" lon="4.68833">
        <ele>213</ele>
        <time>2024-04-06T11:22:58Z</time>
      </trkpt>
      <trkpt lat="49.87235" lon="4.68829">
        <ele>213.4</ele>
        <time>2024-04-06T11:22:59Z</time>
      </trkpt>
      <trkpt lat="49.87235" lon="4.68825">
        <ele>213.6</ele>
        <time>2024-04-06T11:23:00Z</time>
      </trkpt>
      <trkpt lat="49.87235" lon="4.68821">
        <ele>213.6</ele>
        <time>2024-04-06T11:23:01Z</time>
      </trkpt>
      <trkpt lat="49.87235" lon="4.68817">
        <ele>213.6</ele>
        <time>2024-04-06T11:23:02Z</time>
      </trkpt>
      <trkpt lat="49.87235" lon="4.68813">
        <ele>214.2</ele>
        <time>2024-04-06T11:23:03Z</time>
      </trkpt>
      <trkpt lat="49.87235" lon="4.68809">
        <ele>214.4</ele>
        <time>2024-04-06T11:23:04Z</time>
      </trkpt>
      <trkpt lat="49.87235" lon="4.68805">
        <ele>214.8</ele>
        <time>2024-04-06T11:23:05Z</time>
      </trkpt>
      <trkpt lat="49.87235" lon="4.68801">
        <ele>215</ele>
        <time>2024-04-06T11:23:06Z</time>
      </trkpt>
      <trkpt lat="49.87235" lon="4.68797">
        <ele>215.4</ele>
        <time>2024-04-06T11:23:07Z</time>
      </trkpt>
      <trkpt lat="49.87235" lon="4.68793">
        <ele>215.6</ele>
        <time>2024-04-06T11:23:08Z</time>
      </trkpt>
      <trkpt lat="49.87235" lon="4.68789">
        <ele>216</ele>
        <time>2024-04-06T11:23:09Z</time>
      </trkpt>
      <trkpt lat="49.87235" lon="4.68785">
        <ele>216.2</ele>
        <time>2024-04-06T11:23:10Z</time>
      </trkpt>
      <trkpt lat="49.87235" lon="4.68781">
        <ele>216.6</ele>
        <time>2024-04-06T11:23:11Z</time>
      </trkpt>
      <trkpt lat="49.87235" lon="4.68777">
        <ele>217</ele>
        <time>2024-04-06T11:23:12Z</time>
      </trkpt>
      <trkpt lat="49.87235" lon="4.68773">
        <ele>217</ele>
        <time>2024-04-06T11:23:13Z</time>
      </trkpt>
      <trkpt lat="49.87235" lon="4.68769">
        <ele>217.4</ele>
        <time>2024-04-06T11:23:14Z</time>
      </trkpt>
      <trkpt lat="49.87235" lon="4.68765">
        <ele>217.4</ele>
        <time>2024-04-06T11:23:15Z</time>
      </trkpt>
      <trkpt lat="49.87235" lon="4.68761">
        <ele>217.4</ele>
        <time>2024-04-06T11:23:16Z</time>
      </trkpt>
      <trkpt lat="49.87235" lon="4.68758">
        <ele>217.6</ele>
        <time>2024-04-06T11:23:17Z</time>
      </trkpt>
      <trkpt lat="49.87235" lon="4.68754">
        <ele>217.8</ele>
        <time>2024-04-06T11:23:18Z</time>
      </trkpt>
      <trkpt lat="49.87236" lon="4.6875">
        <ele>218.4</ele>
        <time>2024-04-06T11:23:19Z</time>
      </trkpt>
      <trkpt lat="49.87236" lon="4.68746">
        <ele>218.4</ele>
        <time>2024-04-06T11:23:20Z</time>
      </trkpt>
      <trkpt lat="49.87236" lon="4.68742">
        <ele>218.6</ele>
        <time>2024-04-06T11:23:21Z</time>
      </trkpt>
      <trkpt lat="49.87236" lon="4.68739">
        <ele>218.8</ele>
        <time>2024-04-06T11:23:22Z</time>
      </trkpt>
      <trkpt lat="49.87235" lon="4.68735">
        <ele>219</ele>
        <time>2024-04-06T11:23:23Z</time>
      </trkpt>
      <trkpt lat="49.87235" lon="4.68731">
        <ele>219.4</ele>
        <time>2024-04-06T11:23:24Z</time>
      </trkpt>
      <trkpt lat="49.87235" lon="4.68728">
        <ele>219.6</ele>
        <time>2024-04-06T11:23:25Z</time>
      </trkpt>
      <trkpt lat="49.87235" lon="4.68724">
        <ele>220</ele>
        <time>2024-04-06T11:23:26Z</time>
      </trkpt>
      <trkpt lat="49.87235" lon="4.6872">
        <ele>220</ele>
        <time>2024-04-06T11:23:27Z</time>
      </trkpt>
      <trkpt lat="49.87235" lon="4.68716">
        <ele>220.2</ele>
        <time>2024-04-06T11:23:28Z</time>
      </trkpt>
      <trkpt lat="49.87235" lon="4.68712">
        <ele>220.6</ele>
        <time>2024-04-06T11:23:29Z</time>
      </trkpt>
      <trkpt lat="49.87235" lon="4.68708">
        <ele>220.8</ele>
        <time>2024-04-06T11:23:30Z</time>
      </trkpt>
      <trkpt lat="49.87235" lon="4.68704">
        <ele>221</ele>
        <time>2024-04-06T11:23:31Z</time>
      </trkpt>
      <trkpt lat="49.87235" lon="4.687">
        <ele>221.4</ele>
        <time>2024-04-06T11:23:32Z</time>
      </trkpt>
      <trkpt lat="49.87234" lon="4.68695">
        <ele>221.6</ele>
        <time>2024-04-06T11:23:33Z</time>
      </trkpt>
      <trkpt lat="49.87234" lon="4.68691">
        <ele>221.8</ele>
        <time>2024-04-06T11:23:34Z</time>
      </trkpt>
      <trkpt lat="49.87234" lon="4.68687">
        <ele>222</ele>
        <time>2024-04-06T11:23:35Z</time>
      </trkpt>
      <trkpt lat="49.87234" lon="4.68683">
        <ele>222.4</ele>
        <time>2024-04-06T11:23:36Z</time>
      </trkpt>
      <trkpt lat="49.87234" lon="4.68679">
        <ele>222.6</ele>
        <time>2024-04-06T11:23:37Z</time>
      </trkpt>
      <trkpt lat="49.87234" lon="4.68675">
        <ele>222.6</ele>
        <time>2024-04-06T11:23:38Z</time>
      </trkpt>
      <trkpt lat="49.87234" lon="4.68671">
        <ele>222.8</ele>
        <time>2024-04-06T11:23:39Z</time>
      </trkpt>
      <trkpt lat="49.87234" lon="4.68667">
        <ele>223</ele>
        <time>2024-04-06T11:23:40Z</time>
      </trkpt>
      <trkpt lat="49.87234" lon="4.68663">
        <ele>223.2</ele>
        <time>2024-04-06T11:23:41Z</time>
      </trkpt>
      <trkpt lat="49.87234" lon="4.68659">
        <ele>223.6</ele>
        <time>2024-04-06T11:23:42Z</time>
      </trkpt>
      <trkpt lat="49.87234" lon="4.68655">
        <ele>223.8</ele>
        <time>2024-04-06T11:23:43Z</time>
      </trkpt>
      <trkpt lat="49.87233" lon="4.68651">
        <ele>224</ele>
        <time>2024-04-06T11:23:44Z</time>
      </trkpt>
      <trkpt lat="49.87233" lon="4.68647">
        <ele>224.2</ele>
        <time>2024-04-06T11:23:45Z</time>
      </trkpt>
      <trkpt lat="49.87233" lon="4.68644">
        <ele>224.6</ele>
        <time>2024-04-06T11:23:46Z</time>
      </trkpt>
      <trkpt lat="49.87233" lon="4.6864">
        <ele>224.8</ele>
        <time>2024-04-06T11:23:47Z</time>
      </trkpt>
      <trkpt lat="49.87233" lon="4.68636">
        <ele>224.8</ele>
        <time>2024-04-06T11:23:48Z</time>
      </trkpt>
      <trkpt lat="49.87233" lon="4.68632">
        <ele>224.8</ele>
        <time>2024-04-06T11:23:49Z</time>
      </trkpt>
      <trkpt lat="49.87233" lon="4.68629">
        <ele>225.2</ele>
        <time>2024-04-06T11:23:50Z</time>
      </trkpt>
      <trkpt lat="49.87233" lon="4.68625">
        <ele>225.2</ele>
        <time>2024-04-06T11:23:51Z</time>
      </trkpt>
      <trkpt lat="49.87233" lon="4.68622">
        <ele>225.4</ele>
        <time>2024-04-06T11:23:52Z</time>
      </trkpt>
      <trkpt lat="49.87233" lon="4.68618">
        <ele>225.6</ele>
        <time>2024-04-06T11:23:53Z</time>
      </trkpt>
      <trkpt lat="49.87233" lon="4.68614">
        <ele>226</ele>
        <time>2024-04-06T11:23:54Z</time>
      </trkpt>
      <trkpt lat="49.87233" lon="4.68611">
        <ele>226</ele>
        <time>2024-04-06T11:23:55Z</time>
      </trkpt>
      <trkpt lat="49.87233" lon="4.68607">
        <ele>226.2</ele>
        <time>2024-04-06T11:23:56Z</time>
      </trkpt>
      <trkpt lat="49.87232" lon="4.68603">
        <ele>226.2</ele>
        <time>2024-04-06T11:23:57Z</time>
      </trkpt>
      <trkpt lat="49.87232" lon="4.686">
        <ele>226.4</ele>
        <time>2024-04-06T11:23:58Z</time>
      </trkpt>
      <trkpt lat="49.87232" lon="4.68596">
        <ele>226.8</ele>
        <time>2024-04-06T11:23:59Z</time>
      </trkpt>
      <trkpt lat="49.87232" lon="4.68592">
        <ele>227.2</ele>
        <time>2024-04-06T11:24:00Z</time>
      </trkpt>
      <trkpt lat="49.87232" lon="4.68588">
        <ele>228</ele>
        <time>2024-04-06T11:24:01Z</time>
      </trkpt>
      <trkpt lat="49.87232" lon="4.68585">
        <ele>228.2</ele>
        <time>2024-04-06T11:24:02Z</time>
      </trkpt>
      <trkpt lat="49.87231" lon="4.68581">
        <ele>228.6</ele>
        <time>2024-04-06T11:24:03Z</time>
      </trkpt>
      <trkpt lat="49.87231" lon="4.68577">
        <ele>228.6</ele>
        <time>2024-04-06T11:24:04Z</time>
      </trkpt>
      <trkpt lat="49.87231" lon="4.68573">
        <ele>229</ele>
        <time>2024-04-06T11:24:05Z</time>
      </trkpt>
      <trkpt lat="49.87231" lon="4.6857">
        <ele>229</ele>
        <time>2024-04-06T11:24:06Z</time>
      </trkpt>
      <trkpt lat="49.87231" lon="4.68566">
        <ele>229.4</ele>
        <time>2024-04-06T11:24:07Z</time>
      </trkpt>
      <trkpt lat="49.8723" lon="4.68562">
        <ele>229.4</ele>
        <time>2024-04-06T11:24:08Z</time>
      </trkpt>
      <trkpt lat="49.8723" lon="4.68558">
        <ele>229.8</ele>
        <time>2024-04-06T11:24:09Z</time>
      </trkpt>
      <trkpt lat="49.8723" lon="4.68554">
        <ele>230</ele>
        <time>2024-04-06T11:24:10Z</time>
      </trkpt>
      <trkpt lat="49.87229" lon="4.6855">
        <ele>230.4</ele>
        <time>2024-04-06T11:24:11Z</time>
      </trkpt>
      <trkpt lat="49.87229" lon="4.68546">
        <ele>230.8</ele>
        <time>2024-04-06T11:24:12Z</time>
      </trkpt>
      <trkpt lat="49.87229" lon="4.68542">
        <ele>230.8</ele>
        <time>2024-04-06T11:24:13Z</time>
      </trkpt>
      <trkpt lat="49.87228" lon="4.68538">
        <ele>230.8</ele>
        <time>2024-04-06T11:24:14Z</time>
      </trkpt>
      <trkpt lat="49.87228" lon="4.68534">
        <ele>231.2</ele>
        <time>2024-04-06T11:24:15Z</time>
      </trkpt>
      <trkpt lat="49.87228" lon="4.6853">
        <ele>231.4</ele>
        <time>2024-04-06T11:24:16Z</time>
      </trkpt>
      <trkpt lat="49.87227" lon="4.68526">
        <ele>231.4</ele>
        <time>2024-04-06T11:24:17Z</time>
      </trkpt>
      <trkpt lat="49.87227" lon="4.68522">
        <ele>231.8</ele>
        <time>2024-04-06T11:24:18Z</time>
      </trkpt>
      <trkpt lat="49.87226" lon="4.68518">
        <ele>231.8</ele>
        <time>2024-04-06T11:24:19Z</time>
      </trkpt>
      <trkpt lat="49.87226" lon="4.68515">
        <ele>231.8</ele>
        <time>2024-04-06T11:24:20Z</time>
      </trkpt>
      <trkpt lat="49.87226" lon="4.68511">
        <ele>231.8</ele>
        <time>2024-04-06T11:24:21Z</time>
      </trkpt>
      <trkpt lat="49.87225" lon="4.68507">
        <ele>232.2</ele>
        <time>2024-04-06T11:24:22Z</time>
      </trkpt>
      <trkpt lat="49.87225" lon="4.68503">
        <ele>232.2</ele>
        <time>2024-04-06T11:24:23Z</time>
      </trkpt>
      <trkpt lat="49.87224" lon="4.68499">
        <ele>232.4</ele>
        <time>2024-04-06T11:24:24Z</time>
      </trkpt>
      <trkpt lat="49.87224" lon="4.68494">
        <ele>232.6</ele>
        <time>2024-04-06T11:24:25Z</time>
      </trkpt>
      <trkpt lat="49.87223" lon="4.6849">
        <ele>232.8</ele>
        <time>2024-04-06T11:24:26Z</time>
      </trkpt>
      <trkpt lat="49.87223" lon="4.68487">
        <ele>233.2</ele>
        <time>2024-04-06T11:24:27Z</time>
      </trkpt>
      <trkpt lat="49.87222" lon="4.68483">
        <ele>233.4</ele>
        <time>2024-04-06T11:24:28Z</time>
      </trkpt>
      <trkpt lat="49.87222" lon="4.68479">
        <ele>233.4</ele>
        <time>2024-04-06T11:24:29Z</time>
      </trkpt>
      <trkpt lat="49.87221" lon="4.68475">
        <ele>233.8</ele>
        <time>2024-04-06T11:24:30Z</time>
      </trkpt>
      <trkpt lat="49.87221" lon="4.68471">
        <ele>234</ele>
        <time>2024-04-06T11:24:31Z</time>
      </trkpt>
      <trkpt lat="49.8722" lon="4.68467">
        <ele>234.2</ele>
        <time>2024-04-06T11:24:32Z</time>
      </trkpt>
      <trkpt lat="49.87219" lon="4.68463">
        <ele>234.4</ele>
        <time>2024-04-06T11:24:33Z</time>
      </trkpt>
      <trkpt lat="49.87219" lon="4.68459">
        <ele>234.4</ele>
        <time>2024-04-06T11:24:34Z</time>
      </trkpt>
      <trkpt lat="49.87218" lon="4.68455">
        <ele>234.6</ele>
        <time>2024-04-06T11:24:35Z</time>
      </trkpt>
      <trkpt lat="49.87218" lon="4.68451">
        <ele>234.8</ele>
        <time>2024-04-06T11:24:36Z</time>
      </trkpt>
      <trkpt lat="49.87217" lon="4.68448">
        <ele>235</ele>
        <time>2024-04-06T11:24:37Z</time>
      </trkpt>
      <trkpt lat="49.87216" lon="4.68444">
        <ele>235</ele>
        <time>2024-04-06T11:24:38Z</time>
      </trkpt>
      <trkpt lat="49.87216" lon="4.6844">
        <ele>235.2</ele>
        <time>2024-04-06T11:24:39Z</time>
      </trkpt>
      <trkpt lat="49.87215" lon="4.68436">
        <ele>235.2</ele>
        <time>2024-04-06T11:24:40Z</time>
      </trkpt>
      <trkpt lat="49.87215" lon="4.68432">
        <ele>235.6</ele>
        <time>2024-04-06T11:24:41Z</time>
      </trkpt>
      <trkpt lat="49.87214" lon="4.68429">
        <ele>235.6</ele>
        <time>2024-04-06T11:24:42Z</time>
      </trkpt>
      <trkpt lat="49.87214" lon="4.68425">
        <ele>235.6</ele>
        <time>2024-04-06T11:24:43Z</time>
      </trkpt>
      <trkpt lat="49.87213" lon="4.68422">
        <ele>235.6</ele>
        <time>2024-04-06T11:24:44Z</time>
      </trkpt>
      <trkpt lat="49.87212" lon="4.68418">
        <ele>236</ele>
        <time>2024-04-06T11:24:45Z</time>
      </trkpt>
      <trkpt lat="49.87212" lon="4.68414">
        <ele>236</ele>
        <time>2024-04-06T11:24:46Z</time>
      </trkpt>
      <trkpt lat="49.87211" lon="4.6841">
        <ele>236.2</ele>
        <time>2024-04-06T11:24:47Z</time>
      </trkpt>
      <trkpt lat="49.87211" lon="4.68407">
        <ele>236.4</ele>
        <time>2024-04-06T11:24:48Z</time>
      </trkpt>
      <trkpt lat="49.87211" lon="4.68403">
        <ele>236.4</ele>
        <time>2024-04-06T11:24:49Z</time>
      </trkpt>
      <trkpt lat="49.8721" lon="4.68399">
        <ele>236.6</ele>
        <time>2024-04-06T11:24:50Z</time>
      </trkpt>
      <trkpt lat="49.8721" lon="4.68395">
        <ele>237</ele>
        <time>2024-04-06T11:24:51Z</time>
      </trkpt>
      <trkpt lat="49.87209" lon="4.68392">
        <ele>237.2</ele>
        <time>2024-04-06T11:24:52Z</time>
      </trkpt>
      <trkpt lat="49.87209" lon="4.68388">
        <ele>237.4</ele>
        <time>2024-04-06T11:24:53Z</time>
      </trkpt>
      <trkpt lat="49.87209" lon="4.68385">
        <ele>237.6</ele>
        <time>2024-04-06T11:24:54Z</time>
      </trkpt>
      <trkpt lat="49.87209" lon="4.68381">
        <ele>237.8</ele>
        <time>2024-04-06T11:24:55Z</time>
      </trkpt>
      <trkpt lat="49.87208" lon="4.68377">
        <ele>238</ele>
        <time>2024-04-06T11:24:56Z</time>
      </trkpt>
      <trkpt lat="49.87208" lon="4.68374">
        <ele>238</ele>
        <time>2024-04-06T11:24:57Z</time>
      </trkpt>
      <trkpt lat="49.87208" lon="4.6837">
        <ele>238.2</ele>
        <time>2024-04-06T11:24:58Z</time>
      </trkpt>
      <trkpt lat="49.87208" lon="4.68367">
        <ele>238.4</ele>
        <time>2024-04-06T11:24:59Z</time>
      </trkpt>
      <trkpt lat="49.87208" lon="4.68364">
        <ele>238.8</ele>
        <time>2024-04-06T11:25:00Z</time>
      </trkpt>
      <trkpt lat="49.87209" lon="4.68361">
        <ele>238.8</ele>
        <time>2024-04-06T11:25:01Z</time>
      </trkpt>
      <trkpt lat="49.87209" lon="4.68357">
        <ele>239.4</ele>
        <time>2024-04-06T11:25:02Z</time>
      </trkpt>
      <trkpt lat="49.87209" lon="4.68354">
        <ele>239.4</ele>
        <time>2024-04-06T11:25:03Z</time>
      </trkpt>
      <trkpt lat="49.87209" lon="4.6835">
        <ele>239.8</ele>
        <time>2024-04-06T11:25:04Z</time>
      </trkpt>
      <trkpt lat="49.87209" lon="4.68347">
        <ele>240.2</ele>
        <time>2024-04-06T11:25:05Z</time>
      </trkpt>
      <trkpt lat="49.8721" lon="4.68344">
        <ele>240.2</ele>
        <time>2024-04-06T11:25:06Z</time>
      </trkpt>
      <trkpt lat="49.8721" lon="4.6834">
        <ele>240.4</ele>
        <time>2024-04-06T11:25:07Z</time>
      </trkpt>
      <trkpt lat="49.8721" lon="4.68337">
        <ele>240.6</ele>
        <time>2024-04-06T11:25:08Z</time>
      </trkpt>
      <trkpt lat="49.87211" lon="4.68333">
        <ele>241</ele>
        <time>2024-04-06T11:25:09Z</time>
      </trkpt>
      <trkpt lat="49.87211" lon="4.6833">
        <ele>241.4</ele>
        <time>2024-04-06T11:25:10Z</time>
      </trkpt>
      <trkpt lat="49.87212" lon="4.68327">
        <ele>241.6</ele>
        <time>2024-04-06T11:25:11Z</time>
      </trkpt>
      <trkpt lat="49.87212" lon="4.68324">
        <ele>241.8</ele>
        <time>2024-04-06T11:25:12Z</time>
      </trkpt>
      <trkpt lat="49.87212" lon="4.6832">
        <ele>242</ele>
        <time>2024-04-06T11:25:13Z</time>
      </trkpt>
      <trkpt lat="49.87213" lon="4.68317">
        <ele>242.4</ele>
        <time>2024-04-06T11:25:14Z</time>
      </trkpt>
      <trkpt lat="49.87213" lon="4.68314">
        <ele>242.6</ele>
        <time>2024-04-06T11:25:15Z</time>
      </trkpt>
      <trkpt lat="49.87214" lon="4.6831">
        <ele>243</ele>
        <time>2024-04-06T11:25:16Z</time>
      </trkpt>
      <trkpt lat="49.87215" lon="4.68307">
        <ele>243.2</ele>
        <time>2024-04-06T11:25:17Z</time>
      </trkpt>
      <trkpt lat="49.87215" lon="4.68304">
        <ele>243.4</ele>
        <time>2024-04-06T11:25:18Z</time>
      </trkpt>
      <trkpt lat="49.87216" lon="4.683">
        <ele>243.4</ele>
        <time>2024-04-06T11:25:19Z</time>
      </trkpt>
      <trkpt lat="49.87216" lon="4.68297">
        <ele>243.6</ele>
        <time>2024-04-06T11:25:20Z</time>
      </trkpt>
      <trkpt lat="49.87217" lon="4.68294">
        <ele>243.6</ele>
        <time>2024-04-06T11:25:21Z</time>
      </trkpt>
      <trkpt lat="49.87217" lon="4.68291">
        <ele>244</ele>
        <time>2024-04-06T11:25:22Z</time>
      </trkpt>
      <trkpt lat="49.87217" lon="4.68288">
        <ele>244.2</ele>
        <time>2024-04-06T11:25:23Z</time>
      </trkpt>
      <trkpt lat="49.87218" lon="4.68285">
        <ele>244.4</ele>
        <time>2024-04-06T11:25:24Z</time>
      </trkpt>
      <trkpt lat="49.87218" lon="4.68282">
        <ele>244.8</ele>
        <time>2024-04-06T11:25:25Z</time>
      </trkpt>
      <trkpt lat="49.87219" lon="4.68279">
        <ele>245.4</ele>
        <time>2024-04-06T11:25:26Z</time>
      </trkpt>
      <trkpt lat="49.8722" lon="4.68276">
        <ele>245.8</ele>
        <time>2024-04-06T11:25:27Z</time>
      </trkpt>
      <trkpt lat="49.8722" lon="4.68273">
        <ele>246.2</ele>
        <time>2024-04-06T11:25:28Z</time>
      </trkpt>
      <trkpt lat="49.87221" lon="4.68269">
        <ele>246.4</ele>
        <time>2024-04-06T11:25:29Z</time>
      </trkpt>
      <trkpt lat="49.87222" lon="4.68266">
        <ele>246.4</ele>
        <time>2024-04-06T11:25:30Z</time>
      </trkpt>
      <trkpt lat="49.87222" lon="4.68263">
        <ele>246.8</ele>
        <time>2024-04-06T11:25:31Z</time>
      </trkpt>
      <trkpt lat="49.87223" lon="4.6826">
        <ele>247</ele>
        <time>2024-04-06T11:25:32Z</time>
      </trkpt>
      <trkpt lat="49.87224" lon="4.68256">
        <ele>247.2</ele>
        <time>2024-04-06T11:25:33Z</time>
      </trkpt>
      <trkpt lat="49.87224" lon="4.68253">
        <ele>247.2</ele>
        <time>2024-04-06T11:25:34Z</time>
      </trkpt>
      <trkpt lat="49.87225" lon="4.6825">
        <ele>247.4</ele>
        <time>2024-04-06T11:25:35Z</time>
      </trkpt>
      <trkpt lat="49.87226" lon="4.68247">
        <ele>247.4</ele>
        <time>2024-04-06T11:25:36Z</time>
      </trkpt>
      <trkpt lat="49.87226" lon="4.68243">
        <ele>247.8</ele>
        <time>2024-04-06T11:25:37Z</time>
      </trkpt>
      <trkpt lat="49.87227" lon="4.6824">
        <ele>248</ele>
        <time>2024-04-06T11:25:38Z</time>
      </trkpt>
      <trkpt lat="49.87228" lon="4.68236">
        <ele>248</ele>
        <time>2024-04-06T11:25:39Z</time>
      </trkpt>
      <trkpt lat="49.87228" lon="4.68233">
        <ele>248.4</ele>
        <time>2024-04-06T11:25:40Z</time>
      </trkpt>
      <trkpt lat="49.87229" lon="4.6823">
        <ele>248.6</ele>
        <time>2024-04-06T11:25:41Z</time>
      </trkpt>
      <trkpt lat="49.8723" lon="4.68226">
        <ele>248.6</ele>
        <time>2024-04-06T11:25:42Z</time>
      </trkpt>
      <trkpt lat="49.87231" lon="4.68223">
        <ele>248.8</ele>
        <time>2024-04-06T11:25:43Z</time>
      </trkpt>
      <trkpt lat="49.87231" lon="4.68219">
        <ele>249</ele>
        <time>2024-04-06T11:25:44Z</time>
      </trkpt>
      <trkpt lat="49.87232" lon="4.68216">
        <ele>249.2</ele>
        <time>2024-04-06T11:25:45Z</time>
      </trkpt>
      <trkpt lat="49.87232" lon="4.68212">
        <ele>249.2</ele>
        <time>2024-04-06T11:25:46Z</time>
      </trkpt>
      <trkpt lat="49.87233" lon="4.68209">
        <ele>249.2</ele>
        <time>2024-04-06T11:25:47Z</time>
      </trkpt>
      <trkpt lat="49.87233" lon="4.68205">
        <ele>249.8</ele>
        <time>2024-04-06T11:25:48Z</time>
      </trkpt>
      <trkpt lat="49.87234" lon="4.68202">
        <ele>250</ele>
        <time>2024-04-06T11:25:49Z</time>
      </trkpt>
      <trkpt lat="49.87235" lon="4.68199">
        <ele>250.4</ele>
        <time>2024-04-06T11:25:50Z</time>
      </trkpt>
      <trkpt lat="49.87235" lon="4.68196">
        <ele>250.6</ele>
        <time>2024-04-06T11:25:51Z</time>
      </trkpt>
      <trkpt lat="49.87236" lon="4.68193">
        <ele>250.6</ele>
        <time>2024-04-06T11:25:52Z</time>
      </trkpt>
      <trkpt lat="49.87236" lon="4.6819">
        <ele>250.8</ele>
        <time>2024-04-06T11:25:53Z</time>
      </trkpt>
      <trkpt lat="49.87237" lon="4.68187">
        <ele>251</ele>
        <time>2024-04-06T11:25:54Z</time>
      </trkpt>
      <trkpt lat="49.87238" lon="4.68185">
        <ele>251</ele>
        <time>2024-04-06T11:25:55Z</time>
      </trkpt>
      <trkpt lat="49.87238" lon="4.68182">
        <ele>251.2</ele>
        <time>2024-04-06T11:25:56Z</time>
      </trkpt>
      <trkpt lat="49.87238" lon="4.68179">
        <ele>251.4</ele>
        <time>2024-04-06T11:25:57Z</time>
      </trkpt>
      <trkpt lat="49.87239" lon="4.68176">
        <ele>251.4</ele>
        <time>2024-04-06T11:25:58Z</time>
      </trkpt>
      <trkpt lat="49.8724" lon="4.68172">
        <ele>251.6</ele>
        <time>2024-04-06T11:25:59Z</time>
      </trkpt>
      <trkpt lat="49.8724" lon="4.68169">
        <ele>251.8</ele>
        <time>2024-04-06T11:26:00Z</time>
      </trkpt>
      <trkpt lat="49.87241" lon="4.68165">
        <ele>252</ele>
        <time>2024-04-06T11:26:01Z</time>
      </trkpt>
      <trkpt lat="49.87242" lon="4.68162">
        <ele>252.2</ele>
        <time>2024-04-06T11:26:02Z</time>
      </trkpt>
      <trkpt lat="49.87242" lon="4.68159">
        <ele>252.6</ele>
        <time>2024-04-06T11:26:03Z</time>
      </trkpt>
      <trkpt lat="49.87243" lon="4.68155">
        <ele>252.8</ele>
        <time>2024-04-06T11:26:04Z</time>
      </trkpt>
      <trkpt lat="49.87243" lon="4.68151">
        <ele>253</ele>
        <time>2024-04-06T11:26:05Z</time>
      </trkpt>
      <trkpt lat="49.87244" lon="4.68148">
        <ele>253.2</ele>
        <time>2024-04-06T11:26:06Z</time>
      </trkpt>
      <trkpt lat="49.87245" lon="4.68144">
        <ele>253.2</ele>
        <time>2024-04-06T11:26:07Z</time>
      </trkpt>
      <trkpt lat="49.87245" lon="4.6814">
        <ele>253.4</ele>
        <time>2024-04-06T11:26:08Z</time>
      </trkpt>
      <trkpt lat="49.87245" lon="4.68137">
        <ele>253.4</ele>
        <time>2024-04-06T11:26:09Z</time>
      </trkpt>
      <trkpt lat="49.87246" lon="4.68133">
        <ele>253.6</ele>
        <time>2024-04-06T11:26:10Z</time>
      </trkpt>
      <trkpt lat="49.87246" lon="4.6813">
        <ele>254</ele>
        <time>2024-04-06T11:26:11Z</time>
      </trkpt>
      <trkpt lat="49.87247" lon="4.68127">
        <ele>254</ele>
        <time>2024-04-06T11:26:12Z</time>
      </trkpt>
      <trkpt lat="49.87247" lon="4.68123">
        <ele>254</ele>
        <time>2024-04-06T11:26:13Z</time>
      </trkpt>
      <trkpt lat="49.87248" lon="4.6812">
        <ele>254.2</ele>
        <time>2024-04-06T11:26:14Z</time>
      </trkpt>
      <trkpt lat="49.87248" lon="4.68116">
        <ele>254.4</ele>
        <time>2024-04-06T11:26:15Z</time>
      </trkpt>
      <trkpt lat="49.87249" lon="4.68112">
        <ele>254.6</ele>
        <time>2024-04-06T11:26:16Z</time>
      </trkpt>
      <trkpt lat="49.87249" lon="4.68109">
        <ele>254.8</ele>
        <time>2024-04-06T11:26:17Z</time>
      </trkpt>
      <trkpt lat="49.8725" lon="4.68105">
        <ele>255</ele>
        <time>2024-04-06T11:26:18Z</time>
      </trkpt>
      <trkpt lat="49.8725" lon="4.68101">
        <ele>255</ele>
        <time>2024-04-06T11:26:19Z</time>
      </trkpt>
      <trkpt lat="49.8725" lon="4.68097">
        <ele>255.2</ele>
        <time>2024-04-06T11:26:20Z</time>
      </trkpt>
      <trkpt lat="49.8725" lon="4.68093">
        <ele>255.4</ele>
        <time>2024-04-06T11:26:21Z</time>
      </trkpt>
      <trkpt lat="49.87251" lon="4.6809">
        <ele>255.4</ele>
        <time>2024-04-06T11:26:22Z</time>
      </trkpt>
      <trkpt lat="49.87251" lon="4.68087">
        <ele>255.6</ele>
        <time>2024-04-06T11:26:23Z</time>
      </trkpt>
      <trkpt lat="49.87251" lon="4.68083">
        <ele>255.6</ele>
        <time>2024-04-06T11:26:24Z</time>
      </trkpt>
      <trkpt lat="49.87251" lon="4.68079">
        <ele>255.8</ele>
        <time>2024-04-06T11:26:25Z</time>
      </trkpt>
      <trkpt lat="49.87251" lon="4.68075">
        <ele>255.8</ele>
        <time>2024-04-06T11:26:26Z</time>
      </trkpt>
      <trkpt lat="49.87252" lon="4.68071">
        <ele>255.8</ele>
        <time>2024-04-06T11:26:27Z</time>
      </trkpt>
      <trkpt lat="49.87252" lon="4.68067">
        <ele>256</ele>
        <time>2024-04-06T11:26:28Z</time>
      </trkpt>
      <trkpt lat="49.87252" lon="4.68064">
        <ele>255.8</ele>
        <time>2024-04-06T11:26:29Z</time>
      </trkpt>
      <trkpt lat="49.87252" lon="4.6806">
        <ele>256.2</ele>
        <time>2024-04-06T11:26:30Z</time>
      </trkpt>
      <trkpt lat="49.87252" lon="4.68057">
        <ele>256.2</ele>
        <time>2024-04-06T11:26:31Z</time>
      </trkpt>
      <trkpt lat="49.87252" lon="4.68053">
        <ele>256.6</ele>
        <time>2024-04-06T11:26:32Z</time>
      </trkpt>
      <trkpt lat="49.87253" lon="4.68049">
        <ele>256.8</ele>
        <time>2024-04-06T11:26:33Z</time>
      </trkpt>
      <trkpt lat="49.87253" lon="4.68045">
        <ele>257.2</ele>
        <time>2024-04-06T11:26:34Z</time>
      </trkpt>
      <trkpt lat="49.87253" lon="4.68041">
        <ele>257.6</ele>
        <time>2024-04-06T11:26:35Z</time>
      </trkpt>
      <trkpt lat="49.87253" lon="4.68037">
        <ele>257.6</ele>
        <time>2024-04-06T11:26:36Z</time>
      </trkpt>
      <trkpt lat="49.87253" lon="4.68034">
        <ele>257.8</ele>
        <time>2024-04-06T11:26:37Z</time>
      </trkpt>
      <trkpt lat="49.87253" lon="4.6803">
        <ele>258</ele>
        <time>2024-04-06T11:26:38Z</time>
      </trkpt>
      <trkpt lat="49.87253" lon="4.68026">
        <ele>258.2</ele>
        <time>2024-04-06T11:26:39Z</time>
      </trkpt>
      <trkpt lat="49.87253" lon="4.68022">
        <ele>258.2</ele>
        <time>2024-04-06T11:26:40Z</time>
      </trkpt>
      <trkpt lat="49.87254" lon="4.68018">
        <ele>258.4</ele>
        <time>2024-04-06T11:26:41Z</time>
      </trkpt>
      <trkpt lat="49.87254" lon="4.68015">
        <ele>258.6</ele>
        <time>2024-04-06T11:26:42Z</time>
      </trkpt>
      <trkpt lat="49.87254" lon="4.68011">
        <ele>258.8</ele>
        <time>2024-04-06T11:26:43Z</time>
      </trkpt>
      <trkpt lat="49.87254" lon="4.68007">
        <ele>259</ele>
        <time>2024-04-06T11:26:44Z</time>
      </trkpt>
      <trkpt lat="49.87254" lon="4.68004">
        <ele>259</ele>
        <time>2024-04-06T11:26:45Z</time>
      </trkpt>
      <trkpt lat="49.87254" lon="4.68">
        <ele>259.2</ele>
        <time>2024-04-06T11:26:46Z</time>
      </trkpt>
      <trkpt lat="49.87254" lon="4.67996">
        <ele>259.4</ele>
        <time>2024-04-06T11:26:47Z</time>
      </trkpt>
      <trkpt lat="49.87254" lon="4.67992">
        <ele>259.8</ele>
        <time>2024-04-06T11:26:48Z</time>
      </trkpt>
      <trkpt lat="49.87254" lon="4.67989">
        <ele>259.8</ele>
        <time>2024-04-06T11:26:49Z</time>
      </trkpt>
      <trkpt lat="49.87254" lon="4.67985">
        <ele>260</ele>
        <time>2024-04-06T11:26:50Z</time>
      </trkpt>
      <trkpt lat="49.87255" lon="4.67981">
        <ele>260</ele>
        <time>2024-04-06T11:26:51Z</time>
      </trkpt>
      <trkpt lat="49.87255" lon="4.67977">
        <ele>260</ele>
        <time>2024-04-06T11:26:52Z</time>
      </trkpt>
      <trkpt lat="49.87255" lon="4.67973">
        <ele>260.4</ele>
        <time>2024-04-06T11:26:53Z</time>
      </trkpt>
      <trkpt lat="49.87255" lon="4.67968">
        <ele>260.6</ele>
        <time>2024-04-06T11:26:54Z</time>
      </trkpt>
      <trkpt lat="49.87255" lon="4.67964">
        <ele>261</ele>
        <time>2024-04-06T11:26:55Z</time>
      </trkpt>
      <trkpt lat="49.87255" lon="4.6796">
        <ele>261</ele>
        <time>2024-04-06T11:26:56Z</time>
      </trkpt>
      <trkpt lat="49.87256" lon="4.67956">
        <ele>261.2</ele>
        <time>2024-04-06T11:26:57Z</time>
      </trkpt>
      <trkpt lat="49.87256" lon="4.67952">
        <ele>261.4</ele>
        <time>2024-04-06T11:26:58Z</time>
      </trkpt>
      <trkpt lat="49.87256" lon="4.67949">
        <ele>261.6</ele>
        <time>2024-04-06T11:26:59Z</time>
      </trkpt>
      <trkpt lat="49.87256" lon="4.67944">
        <ele>261.8</ele>
        <time>2024-04-06T11:27:00Z</time>
      </trkpt>
      <trkpt lat="49.87256" lon="4.6794">
        <ele>261.8</ele>
        <time>2024-04-06T11:27:01Z</time>
      </trkpt>
      <trkpt lat="49.87257" lon="4.67935">
        <ele>262</ele>
        <time>2024-04-06T11:27:02Z</time>
      </trkpt>
      <trkpt lat="49.87257" lon="4.67931">
        <ele>262.2</ele>
        <time>2024-04-06T11:27:03Z</time>
      </trkpt>
      <trkpt lat="49.87257" lon="4.67927">
        <ele>262.2</ele>
        <time>2024-04-06T11:27:04Z</time>
      </trkpt>
      <trkpt lat="49.87257" lon="4.67922">
        <ele>262.6</ele>
        <time>2024-04-06T11:27:05Z</time>
      </trkpt>
      <trkpt lat="49.87258" lon="4.67918">
        <ele>262.8</ele>
        <time>2024-04-06T11:27:06Z</time>
      </trkpt>
      <trkpt lat="49.87258" lon="4.67912">
        <ele>262.8</ele>
        <time>2024-04-06T11:27:07Z</time>
      </trkpt>
      <trkpt lat="49.87258" lon="4.67907">
        <ele>263</ele>
        <time>2024-04-06T11:27:08Z</time>
      </trkpt>
      <trkpt lat="49.87258" lon="4.67902">
        <ele>263.2</ele>
        <time>2024-04-06T11:27:09Z</time>
      </trkpt>
      <trkpt lat="49.87258" lon="4.67897">
        <ele>263.2</ele>
        <time>2024-04-06T11:27:10Z</time>
      </trkpt>
      <trkpt lat="49.87258" lon="4.67893">
        <ele>263.4</ele>
        <time>2024-04-06T11:27:11Z</time>
      </trkpt>
      <trkpt lat="49.87259" lon="4.67888">
        <ele>263.6</ele>
        <time>2024-04-06T11:27:12Z</time>
      </trkpt>
      <trkpt lat="49.87259" lon="4.67882">
        <ele>263.6</ele>
        <time>2024-04-06T11:27:13Z</time>
      </trkpt>
      <trkpt lat="49.87259" lon="4.67877">
        <ele>263.6</ele>
        <time>2024-04-06T11:27:14Z</time>
      </trkpt>
      <trkpt lat="49.87259" lon="4.67872">
        <ele>263.8</ele>
        <time>2024-04-06T11:27:15Z</time>
      </trkpt>
      <trkpt lat="49.8726" lon="4.67867">
        <ele>264</ele>
        <time>2024-04-06T11:27:16Z</time>
      </trkpt>
      <trkpt lat="49.8726" lon="4.67862">
        <ele>263.8</ele>
        <time>2024-04-06T11:27:17Z</time>
      </trkpt>
      <trkpt lat="49.8726" lon="4.67857">
        <ele>264</ele>
        <time>2024-04-06T11:27:18Z</time>
      </trkpt>
      <trkpt lat="49.8726" lon="4.67851">
        <ele>264</ele>
        <time>2024-04-06T11:27:19Z</time>
      </trkpt>
      <trkpt lat="49.8726" lon="4.67845">
        <ele>264</ele>
        <time>2024-04-06T11:27:20Z</time>
      </trkpt>
      <trkpt lat="49.87261" lon="4.6784">
        <ele>264.2</ele>
        <time>2024-04-06T11:27:21Z</time>
      </trkpt>
      <trkpt lat="49.87262" lon="4.67835">
        <ele>264.2</ele>
        <time>2024-04-06T11:27:22Z</time>
      </trkpt>
      <trkpt lat="49.87262" lon="4.6783">
        <ele>264.2</ele>
        <time>2024-04-06T11:27:23Z</time>
      </trkpt>
      <trkpt lat="49.87263" lon="4.67825">
        <ele>264.2</ele>
        <time>2024-04-06T11:27:24Z</time>
      </trkpt>
      <trkpt lat="49.87265" lon="4.6782">
        <ele>264.4</ele>
        <time>2024-04-06T11:27:25Z</time>
      </trkpt>
      <trkpt lat="49.87266" lon="4.67815">
        <ele>264.4</ele>
        <time>2024-04-06T11:27:26Z</time>
      </trkpt>
      <trkpt lat="49.87266" lon="4.6781">
        <ele>264.6</ele>
        <time>2024-04-06T11:27:27Z</time>
      </trkpt>
      <trkpt lat="49.87267" lon="4.67805">
        <ele>264.6</ele>
        <time>2024-04-06T11:27:28Z</time>
      </trkpt>
      <trkpt lat="49.87268" lon="4.678">
        <ele>265</ele>
        <time>2024-04-06T11:27:29Z</time>
      </trkpt>
      <trkpt lat="49.87269" lon="4.67795">
        <ele>265</ele>
        <time>2024-04-06T11:27:30Z</time>
      </trkpt>
      <trkpt lat="49.87269" lon="4.6779">
        <ele>265.2</ele>
        <time>2024-04-06T11:27:31Z</time>
      </trkpt>
      <trkpt lat="49.8727" lon="4.67785">
        <ele>265.4</ele>
        <time>2024-04-06T11:27:32Z</time>
      </trkpt>
      <trkpt lat="49.87271" lon="4.67781">
        <ele>265.4</ele>
        <time>2024-04-06T11:27:33Z</time>
      </trkpt>
      <trkpt lat="49.87273" lon="4.67776">
        <ele>265.6</ele>
        <time>2024-04-06T11:27:34Z</time>
      </trkpt>
      <trkpt lat="49.87274" lon="4.67772">
        <ele>265.8</ele>
        <time>2024-04-06T11:27:35Z</time>
      </trkpt>
      <trkpt lat="49.87275" lon="4.67767">
        <ele>266</ele>
        <time>2024-04-06T11:27:36Z</time>
      </trkpt>
      <trkpt lat="49.87276" lon="4.67762">
        <ele>266.2</ele>
        <time>2024-04-06T11:27:37Z</time>
      </trkpt>
      <trkpt lat="49.87277" lon="4.67758">
        <ele>266.4</ele>
        <time>2024-04-06T11:27:38Z</time>
      </trkpt>
      <trkpt lat="49.87278" lon="4.67753">
        <ele>266.6</ele>
        <time>2024-04-06T11:27:39Z</time>
      </trkpt>
      <trkpt lat="49.87279" lon="4.67748">
        <ele>266.8</ele>
        <time>2024-04-06T11:27:40Z</time>
      </trkpt>
      <trkpt lat="49.8728" lon="4.67743">
        <ele>267</ele>
        <time>2024-04-06T11:27:41Z</time>
      </trkpt>
      <trkpt lat="49.87281" lon="4.67738">
        <ele>267.2</ele>
        <time>2024-04-06T11:27:42Z</time>
      </trkpt>
      <trkpt lat="49.87283" lon="4.67733">
        <ele>267.4</ele>
        <time>2024-04-06T11:27:43Z</time>
      </trkpt>
      <trkpt lat="49.87284" lon="4.67729">
        <ele>267.6</ele>
        <time>2024-04-06T11:27:44Z</time>
      </trkpt>
      <trkpt lat="49.87285" lon="4.67724">
        <ele>267.6</ele>
        <time>2024-04-06T11:27:45Z</time>
      </trkpt>
      <trkpt lat="49.87286" lon="4.67719">
        <ele>267.8</ele>
        <time>2024-04-06T11:27:46Z</time>
      </trkpt>
      <trkpt lat="49.87287" lon="4.67715">
        <ele>267.8</ele>
        <time>2024-04-06T11:27:47Z</time>
      </trkpt>
      <trkpt lat="49.87288" lon="4.67711">
        <ele>268</ele>
        <time>2024-04-06T11:27:48Z</time>
      </trkpt>
      <trkpt lat="49.87289" lon="4.67707">
        <ele>268.2</ele>
        <time>2024-04-06T11:27:49Z</time>
      </trkpt>
      <trkpt lat="49.8729" lon="4.67702">
        <ele>268.2</ele>
        <time>2024-04-06T11:27:50Z</time>
      </trkpt>
      <trkpt lat="49.87291" lon="4.67698">
        <ele>268.6</ele>
        <time>2024-04-06T11:27:51Z</time>
      </trkpt>
      <trkpt lat="49.87292" lon="4.67693">
        <ele>268.8</ele>
        <time>2024-04-06T11:27:52Z</time>
      </trkpt>
      <trkpt lat="49.87292" lon="4.67689">
        <ele>269</ele>
        <time>2024-04-06T11:27:53Z</time>
      </trkpt>
      <trkpt lat="49.87293" lon="4.67684">
        <ele>269</ele>
        <time>2024-04-06T11:27:54Z</time>
      </trkpt>
      <trkpt lat="49.87295" lon="4.6768">
        <ele>269</ele>
        <time>2024-04-06T11:27:55Z</time>
      </trkpt>
      <trkpt lat="49.87296" lon="4.67676">
        <ele>269</ele>
        <time>2024-04-06T11:27:56Z</time>
      </trkpt>
      <trkpt lat="49.87297" lon="4.67672">
        <ele>269.2</ele>
        <time>2024-04-06T11:27:57Z</time>
      </trkpt>
      <trkpt lat="49.87298" lon="4.67668">
        <ele>269.4</ele>
        <time>2024-04-06T11:27:58Z</time>
      </trkpt>
      <trkpt lat="49.87299" lon="4.67663">
        <ele>269.8</ele>
        <time>2024-04-06T11:27:59Z</time>
      </trkpt>
      <trkpt lat="49.873" lon="4.67659">
        <ele>270</ele>
        <time>2024-04-06T11:28:00Z</time>
      </trkpt>
      <trkpt lat="49.87301" lon="4.67655">
        <ele>270.2</ele>
        <time>2024-04-06T11:28:01Z</time>
      </trkpt>
      <trkpt lat="49.87302" lon="4.67651">
        <ele>270.4</ele>
        <time>2024-04-06T11:28:02Z</time>
      </trkpt>
      <trkpt lat="49.87303" lon="4.67646">
        <ele>270.6</ele>
        <time>2024-04-06T11:28:03Z</time>
      </trkpt>
      <trkpt lat="49.87304" lon="4.67642">
        <ele>270.6</ele>
        <time>2024-04-06T11:28:04Z</time>
      </trkpt>
      <trkpt lat="49.87305" lon="4.67638">
        <ele>270.8</ele>
        <time>2024-04-06T11:28:05Z</time>
      </trkpt>
      <trkpt lat="49.87306" lon="4.67633">
        <ele>271.2</ele>
        <time>2024-04-06T11:28:06Z</time>
      </trkpt>
      <trkpt lat="49.87307" lon="4.67629">
        <ele>271.4</ele>
        <time>2024-04-06T11:28:07Z</time>
      </trkpt>
      <trkpt lat="49.87308" lon="4.67624">
        <ele>271.2</ele>
        <time>2024-04-06T11:28:08Z</time>
      </trkpt>
      <trkpt lat="49.87309" lon="4.67619">
        <ele>271.4</ele>
        <time>2024-04-06T11:28:09Z</time>
      </trkpt>
      <trkpt lat="49.8731" lon="4.67615">
        <ele>271.8</ele>
        <time>2024-04-06T11:28:10Z</time>
      </trkpt>
      <trkpt lat="49.8731" lon="4.67611">
        <ele>271.8</ele>
        <time>2024-04-06T11:28:11Z</time>
      </trkpt>
      <trkpt lat="49.87311" lon="4.67606">
        <ele>272</ele>
        <time>2024-04-06T11:28:12Z</time>
      </trkpt>
      <trkpt lat="49.87312" lon="4.67602">
        <ele>272</ele>
        <time>2024-04-06T11:28:13Z</time>
      </trkpt>
      <trkpt lat="49.87313" lon="4.67598">
        <ele>272.4</ele>
        <time>2024-04-06T11:28:14Z</time>
      </trkpt>
      <trkpt lat="49.87314" lon="4.67593">
        <ele>272.6</ele>
        <time>2024-04-06T11:28:15Z</time>
      </trkpt>
      <trkpt lat="49.87315" lon="4.67588">
        <ele>272.8</ele>
        <time>2024-04-06T11:28:16Z</time>
      </trkpt>
      <trkpt lat="49.87317" lon="4.67584">
        <ele>272.8</ele>
        <time>2024-04-06T11:28:17Z</time>
      </trkpt>
      <trkpt lat="49.87317" lon="4.67579">
        <ele>273.2</ele>
        <time>2024-04-06T11:28:18Z</time>
      </trkpt>
      <trkpt lat="49.87318" lon="4.67575">
        <ele>273.2</ele>
        <time>2024-04-06T11:28:19Z</time>
      </trkpt>
      <trkpt lat="49.87319" lon="4.67569">
        <ele>273.2</ele>
        <time>2024-04-06T11:28:20Z</time>
      </trkpt>
      <trkpt lat="49.8732" lon="4.67565">
        <ele>273.4</ele>
        <time>2024-04-06T11:28:21Z</time>
      </trkpt>
      <trkpt lat="49.87322" lon="4.67559">
        <ele>273.4</ele>
        <time>2024-04-06T11:28:22Z</time>
      </trkpt>
      <trkpt lat="49.87323" lon="4.67554">
        <ele>273.4</ele>
        <time>2024-04-06T11:28:23Z</time>
      </trkpt>
      <trkpt lat="49.87324" lon="4.67549">
        <ele>273.8</ele>
        <time>2024-04-06T11:28:24Z</time>
      </trkpt>
      <trkpt lat="49.87325" lon="4.67544">
        <ele>274</ele>
        <time>2024-04-06T11:28:25Z</time>
      </trkpt>
      <trkpt lat="49.87326" lon="4.67539">
        <ele>274.2</ele>
        <time>2024-04-06T11:28:26Z</time>
      </trkpt>
      <trkpt lat="49.87328" lon="4.67534">
        <ele>274.4</ele>
        <time>2024-04-06T11:28:27Z</time>
      </trkpt>
      <trkpt lat="49.87329" lon="4.6753">
        <ele>274.4</ele>
        <time>2024-04-06T11:28:28Z</time>
      </trkpt>
      <trkpt lat="49.8733" lon="4.67525">
        <ele>274.4</ele>
        <time>2024-04-06T11:28:29Z</time>
      </trkpt>
      <trkpt lat="49.87331" lon="4.6752">
        <ele>274.6</ele>
        <time>2024-04-06T11:28:30Z</time>
      </trkpt>
      <trkpt lat="49.87333" lon="4.67515">
        <ele>274.8</ele>
        <time>2024-04-06T11:28:31Z</time>
      </trkpt>
      <trkpt lat="49.87334" lon="4.6751">
        <ele>274.8</ele>
        <time>2024-04-06T11:28:32Z</time>
      </trkpt>
      <trkpt lat="49.87335" lon="4.67504">
        <ele>275</ele>
        <time>2024-04-06T11:28:33Z</time>
      </trkpt>
      <trkpt lat="49.87337" lon="4.67499">
        <ele>274.8</ele>
        <time>2024-04-06T11:28:34Z</time>
      </trkpt>
      <trkpt lat="49.87338" lon="4.67494">
        <ele>275</ele>
        <time>2024-04-06T11:28:35Z</time>
      </trkpt>
      <trkpt lat="49.87339" lon="4.67489">
        <ele>275.4</ele>
        <time>2024-04-06T11:28:36Z</time>
      </trkpt>
      <trkpt lat="49.87341" lon="4.67484">
        <ele>275.4</ele>
        <time>2024-04-06T11:28:37Z</time>
      </trkpt>
      <trkpt lat="49.87342" lon="4.67479">
        <ele>275.6</ele>
        <time>2024-04-06T11:28:38Z</time>
      </trkpt>
      <trkpt lat="49.87343" lon="4.67474">
        <ele>276</ele>
        <time>2024-04-06T11:28:39Z</time>
      </trkpt>
      <trkpt lat="49.87344" lon="4.67469">
        <ele>276</ele>
        <time>2024-04-06T11:28:40Z</time>
      </trkpt>
      <trkpt lat="49.87345" lon="4.67464">
        <ele>276</ele>
        <time>2024-04-06T11:28:41Z</time>
      </trkpt>
      <trkpt lat="49.87346" lon="4.67459">
        <ele>276</ele>
        <time>2024-04-06T11:28:42Z</time>
      </trkpt>
      <trkpt lat="49.87347" lon="4.67454">
        <ele>276.2</ele>
        <time>2024-04-06T11:28:43Z</time>
      </trkpt>
      <trkpt lat="49.87348" lon="4.6745">
        <ele>276</ele>
        <time>2024-04-06T11:28:44Z</time>
      </trkpt>
      <trkpt lat="49.8735" lon="4.67445">
        <ele>276.2</ele>
        <time>2024-04-06T11:28:45Z</time>
      </trkpt>
      <trkpt lat="49.87351" lon="4.6744">
        <ele>276.2</ele>
        <time>2024-04-06T11:28:46Z</time>
      </trkpt>
      <trkpt lat="49.87351" lon="4.67434">
        <ele>276.4</ele>
        <time>2024-04-06T11:28:47Z</time>
      </trkpt>
      <trkpt lat="49.87352" lon="4.67429">
        <ele>276.4</ele>
        <time>2024-04-06T11:28:48Z</time>
      </trkpt>
      <trkpt lat="49.87353" lon="4.67423">
        <ele>276.6</ele>
        <time>2024-04-06T11:28:49Z</time>
      </trkpt>
      <trkpt lat="49.87354" lon="4.67418">
        <ele>276.6</ele>
        <time>2024-04-06T11:28:50Z</time>
      </trkpt>
      <trkpt lat="49.87355" lon="4.67412">
        <ele>276.8</ele>
        <time>2024-04-06T11:28:51Z</time>
      </trkpt>
      <trkpt lat="49.87356" lon="4.67407">
        <ele>277.2</ele>
        <time>2024-04-06T11:28:52Z</time>
      </trkpt>
      <trkpt lat="49.87357" lon="4.67401">
        <ele>277.2</ele>
        <time>2024-04-06T11:28:53Z</time>
      </trkpt>
      <trkpt lat="49.87358" lon="4.67395">
        <ele>277.4</ele>
        <time>2024-04-06T11:28:54Z</time>
      </trkpt>
      <trkpt lat="49.87359" lon="4.67389">
        <ele>277.6</ele>
        <time>2024-04-06T11:28:55Z</time>
      </trkpt>
      <trkpt lat="49.87359" lon="4.67384">
        <ele>277.6</ele>
        <time>2024-04-06T11:28:56Z</time>
      </trkpt>
      <trkpt lat="49.8736" lon="4.67378">
        <ele>277.8</ele>
        <time>2024-04-06T11:28:57Z</time>
      </trkpt>
      <trkpt lat="49.8736" lon="4.67372">
        <ele>278</ele>
        <time>2024-04-06T11:28:58Z</time>
      </trkpt>
      <trkpt lat="49.8736" lon="4.67367">
        <ele>278</ele>
        <time>2024-04-06T11:28:59Z</time>
      </trkpt>
      <trkpt lat="49.8736" lon="4.67361">
        <ele>278.2</ele>
        <time>2024-04-06T11:29:00Z</time>
      </trkpt>
      <trkpt lat="49.87361" lon="4.67355">
        <ele>278.2</ele>
        <time>2024-04-06T11:29:01Z</time>
      </trkpt>
      <trkpt lat="49.8736" lon="4.67349">
        <ele>278.4</ele>
        <time>2024-04-06T11:29:02Z</time>
      </trkpt>
      <trkpt lat="49.8736" lon="4.67343">
        <ele>278.6</ele>
        <time>2024-04-06T11:29:03Z</time>
      </trkpt>
      <trkpt lat="49.87359" lon="4.67337">
        <ele>278.8</ele>
        <time>2024-04-06T11:29:04Z</time>
      </trkpt>
      <trkpt lat="49.87358" lon="4.67331">
        <ele>278.8</ele>
        <time>2024-04-06T11:29:05Z</time>
      </trkpt>
      <trkpt lat="49.87357" lon="4.67325">
        <ele>279</ele>
        <time>2024-04-06T11:29:06Z</time>
      </trkpt>
      <trkpt lat="49.87355" lon="4.6732">
        <ele>279.2</ele>
        <time>2024-04-06T11:29:07Z</time>
      </trkpt>
      <trkpt lat="49.87354" lon="4.67314">
        <ele>279.2</ele>
        <time>2024-04-06T11:29:08Z</time>
      </trkpt>
      <trkpt lat="49.87352" lon="4.67308">
        <ele>279.2</ele>
        <time>2024-04-06T11:29:09Z</time>
      </trkpt>
      <trkpt lat="49.87351" lon="4.67303">
        <ele>279.2</ele>
        <time>2024-04-06T11:29:10Z</time>
      </trkpt>
      <trkpt lat="49.8735" lon="4.67298">
        <ele>279.2</ele>
        <time>2024-04-06T11:29:11Z</time>
      </trkpt>
      <trkpt lat="49.87348" lon="4.67293">
        <ele>279.4</ele>
        <time>2024-04-06T11:29:12Z</time>
      </trkpt>
      <trkpt lat="49.87346" lon="4.67288">
        <ele>279.6</ele>
        <time>2024-04-06T11:29:13Z</time>
      </trkpt>
      <trkpt lat="49.87345" lon="4.67283">
        <ele>279.4</ele>
        <time>2024-04-06T11:29:14Z</time>
      </trkpt>
      <trkpt lat="49.87343" lon="4.67278">
        <ele>279.6</ele>
        <time>2024-04-06T11:29:15Z</time>
      </trkpt>
      <trkpt lat="49.87342" lon="4.67273">
        <ele>279.6</ele>
        <time>2024-04-06T11:29:16Z</time>
      </trkpt>
      <trkpt lat="49.8734" lon="4.67268">
        <ele>279.8</ele>
        <time>2024-04-06T11:29:17Z</time>
      </trkpt>
      <trkpt lat="49.87338" lon="4.67263">
        <ele>279.8</ele>
        <time>2024-04-06T11:29:18Z</time>
      </trkpt>
      <trkpt lat="49.87336" lon="4.67259">
        <ele>280</ele>
        <time>2024-04-06T11:29:19Z</time>
      </trkpt>
      <trkpt lat="49.87334" lon="4.67254">
        <ele>280.4</ele>
        <time>2024-04-06T11:29:20Z</time>
      </trkpt>
      <trkpt lat="49.87331" lon="4.67249">
        <ele>280.4</ele>
        <time>2024-04-06T11:29:21Z</time>
      </trkpt>
      <trkpt lat="49.87329" lon="4.67244">
        <ele>280.4</ele>
        <time>2024-04-06T11:29:22Z</time>
      </trkpt>
      <trkpt lat="49.87327" lon="4.6724">
        <ele>280.8</ele>
        <time>2024-04-06T11:29:23Z</time>
      </trkpt>
      <trkpt lat="49.87325" lon="4.67235">
        <ele>281.2</ele>
        <time>2024-04-06T11:29:24Z</time>
      </trkpt>
      <trkpt lat="49.87323" lon="4.6723">
        <ele>281.6</ele>
        <time>2024-04-06T11:29:25Z</time>
      </trkpt>
      <trkpt lat="49.8732" lon="4.67226">
        <ele>281.8</ele>
        <time>2024-04-06T11:29:26Z</time>
      </trkpt>
      <trkpt lat="49.87318" lon="4.67221">
        <ele>282</ele>
        <time>2024-04-06T11:29:27Z</time>
      </trkpt>
      <trkpt lat="49.87315" lon="4.67217">
        <ele>282.2</ele>
        <time>2024-04-06T11:29:28Z</time>
      </trkpt>
      <trkpt lat="49.87313" lon="4.67212">
        <ele>282.2</ele>
        <time>2024-04-06T11:29:29Z</time>
      </trkpt>
      <trkpt lat="49.87311" lon="4.67208">
        <ele>282.6</ele>
        <time>2024-04-06T11:29:30Z</time>
      </trkpt>
      <trkpt lat="49.87308" lon="4.67204">
        <ele>282.8</ele>
        <time>2024-04-06T11:29:31Z</time>
      </trkpt>
      <trkpt lat="49.87306" lon="4.67199">
        <ele>283</ele>
        <time>2024-04-06T11:29:32Z</time>
      </trkpt>
      <trkpt lat="49.87303" lon="4.67195">
        <ele>283.2</ele>
        <time>2024-04-06T11:29:33Z</time>
      </trkpt>
      <trkpt lat="49.87301" lon="4.67191">
        <ele>283.4</ele>
        <time>2024-04-06T11:29:34Z</time>
      </trkpt>
      <trkpt lat="49.87299" lon="4.67187">
        <ele>283.8</ele>
        <time>2024-04-06T11:29:35Z</time>
      </trkpt>
      <trkpt lat="49.87296" lon="4.67183">
        <ele>284</ele>
        <time>2024-04-06T11:29:36Z</time>
      </trkpt>
      <trkpt lat="49.87294" lon="4.67179">
        <ele>284.4</ele>
        <time>2024-04-06T11:29:37Z</time>
      </trkpt>
      <trkpt lat="49.87292" lon="4.67175">
        <ele>284.4</ele>
        <time>2024-04-06T11:29:38Z</time>
      </trkpt>
      <trkpt lat="49.87289" lon="4.67171">
        <ele>284.8</ele>
        <time>2024-04-06T11:29:39Z</time>
      </trkpt>
      <trkpt lat="49.87287" lon="4.67167">
        <ele>285</ele>
        <time>2024-04-06T11:29:40Z</time>
      </trkpt>
      <trkpt lat="49.87284" lon="4.67164">
        <ele>285.2</ele>
        <time>2024-04-06T11:29:41Z</time>
      </trkpt>
      <trkpt lat="49.87282" lon="4.6716">
        <ele>285.2</ele>
        <time>2024-04-06T11:29:42Z</time>
      </trkpt>
      <trkpt lat="49.87279" lon="4.67156">
        <ele>285.2</ele>
        <time>2024-04-06T11:29:43Z</time>
      </trkpt>
      <trkpt lat="49.87277" lon="4.67152">
        <ele>285.2</ele>
        <time>2024-04-06T11:29:44Z</time>
      </trkpt>
      <trkpt lat="49.87275" lon="4.67148">
        <ele>285.4</ele>
        <time>2024-04-06T11:29:45Z</time>
      </trkpt>
      <trkpt lat="49.87272" lon="4.67144">
        <ele>285.4</ele>
        <time>2024-04-06T11:29:46Z</time>
      </trkpt>
      <trkpt lat="49.8727" lon="4.67141">
        <ele>285.4</ele>
        <time>2024-04-06T11:29:47Z</time>
      </trkpt>
      <trkpt lat="49.87267" lon="4.67137">
        <ele>285.6</ele>
        <time>2024-04-06T11:29:48Z</time>
      </trkpt>
      <trkpt lat="49.87265" lon="4.67133">
        <ele>285.6</ele>
        <time>2024-04-06T11:29:49Z</time>
      </trkpt>
      <trkpt lat="49.87263" lon="4.67129">
        <ele>285.8</ele>
        <time>2024-04-06T11:29:50Z</time>
      </trkpt>
      <trkpt lat="49.8726" lon="4.67125">
        <ele>285.8</ele>
        <time>2024-04-06T11:29:51Z</time>
      </trkpt>
      <trkpt lat="49.87258" lon="4.67121">
        <ele>285.8</ele>
        <time>2024-04-06T11:29:52Z</time>
      </trkpt>
      <trkpt lat="49.87256" lon="4.67117">
        <ele>286</ele>
        <time>2024-04-06T11:29:53Z</time>
      </trkpt>
      <trkpt lat="49.87253" lon="4.67113">
        <ele>286.2</ele>
        <time>2024-04-06T11:29:54Z</time>
      </trkpt>
      <trkpt lat="49.87251" lon="4.67109">
        <ele>286.2</ele>
        <time>2024-04-06T11:29:55Z</time>
      </trkpt>
      <trkpt lat="49.87248" lon="4.67105">
        <ele>286.4</ele>
        <time>2024-04-06T11:29:56Z</time>
      </trkpt>
      <trkpt lat="49.87246" lon="4.67101">
        <ele>286.4</ele>
        <time>2024-04-06T11:29:57Z</time>
      </trkpt>
      <trkpt lat="49.87244" lon="4.67096">
        <ele>286.8</ele>
        <time>2024-04-06T11:29:58Z</time>
      </trkpt>
      <trkpt lat="49.87241" lon="4.67093">
        <ele>286.8</ele>
        <time>2024-04-06T11:29:59Z</time>
      </trkpt>
      <trkpt lat="49.87239" lon="4.67089">
        <ele>287</ele>
        <time>2024-04-06T11:30:00Z</time>
      </trkpt>
      <trkpt lat="49.87237" lon="4.67085">
        <ele>287</ele>
        <time>2024-04-06T11:30:01Z</time>
      </trkpt>
      <trkpt lat="49.87235" lon="4.67081">
        <ele>287.4</ele>
        <time>2024-04-06T11:30:02Z</time>
      </trkpt>
      <trkpt lat="49.87232" lon="4.67077">
        <ele>287.6</ele>
        <time>2024-04-06T11:30:03Z</time>
      </trkpt>
      <trkpt lat="49.8723" lon="4.67072">
        <ele>287.6</ele>
        <time>2024-04-06T11:30:04Z</time>
      </trkpt>
      <trkpt lat="49.87228" lon="4.67068">
        <ele>287.8</ele>
        <time>2024-04-06T11:30:05Z</time>
      </trkpt>
      <trkpt lat="49.87226" lon="4.67065">
        <ele>287.8</ele>
        <time>2024-04-06T11:30:06Z</time>
      </trkpt>
      <trkpt lat="49.87223" lon="4.67061">
        <ele>288</ele>
        <time>2024-04-06T11:30:07Z</time>
      </trkpt>
      <trkpt lat="49.87221" lon="4.67057">
        <ele>288.2</ele>
        <time>2024-04-06T11:30:08Z</time>
      </trkpt>
      <trkpt lat="49.87219" lon="4.67053">
        <ele>288.2</ele>
        <time>2024-04-06T11:30:09Z</time>
      </trkpt>
      <trkpt lat="49.87216" lon="4.67049">
        <ele>288.4</ele>
        <time>2024-04-06T11:30:10Z</time>
      </trkpt>
      <trkpt lat="49.87214" lon="4.67046">
        <ele>288.6</ele>
        <time>2024-04-06T11:30:11Z</time>
      </trkpt>
      <trkpt lat="49.87212" lon="4.67042">
        <ele>288.6</ele>
        <time>2024-04-06T11:30:12Z</time>
      </trkpt>
      <trkpt lat="49.87209" lon="4.67037">
        <ele>288.6</ele>
        <time>2024-04-06T11:30:13Z</time>
      </trkpt>
      <trkpt lat="49.87207" lon="4.67033">
        <ele>288.8</ele>
        <time>2024-04-06T11:30:14Z</time>
      </trkpt>
      <trkpt lat="49.87204" lon="4.67029">
        <ele>288.8</ele>
        <time>2024-04-06T11:30:15Z</time>
      </trkpt>
      <trkpt lat="49.87202" lon="4.67025">
        <ele>289</ele>
        <time>2024-04-06T11:30:16Z</time>
      </trkpt>
      <trkpt lat="49.87199" lon="4.67021">
        <ele>289.2</ele>
        <time>2024-04-06T11:30:17Z</time>
      </trkpt>
      <trkpt lat="49.87197" lon="4.67017">
        <ele>289.4</ele>
        <time>2024-04-06T11:30:18Z</time>
      </trkpt>
      <trkpt lat="49.87194" lon="4.67014">
        <ele>289.6</ele>
        <time>2024-04-06T11:30:19Z</time>
      </trkpt>
      <trkpt lat="49.87192" lon="4.6701">
        <ele>289.6</ele>
        <time>2024-04-06T11:30:20Z</time>
      </trkpt>
      <trkpt lat="49.87189" lon="4.67006">
        <ele>289.6</ele>
        <time>2024-04-06T11:30:21Z</time>
      </trkpt>
      <trkpt lat="49.87186" lon="4.67002">
        <ele>289.8</ele>
        <time>2024-04-06T11:30:22Z</time>
      </trkpt>
      <trkpt lat="49.87184" lon="4.66998">
        <ele>289.6</ele>
        <time>2024-04-06T11:30:23Z</time>
      </trkpt>
      <trkpt lat="49.87181" lon="4.66994">
        <ele>289.8</ele>
        <time>2024-04-06T11:30:24Z</time>
      </trkpt>
      <trkpt lat="49.87178" lon="4.6699">
        <ele>290</ele>
        <time>2024-04-06T11:30:25Z</time>
      </trkpt>
      <trkpt lat="49.87176" lon="4.66985">
        <ele>290</ele>
        <time>2024-04-06T11:30:26Z</time>
      </trkpt>
      <trkpt lat="49.87173" lon="4.66981">
        <ele>290.2</ele>
        <time>2024-04-06T11:30:27Z</time>
      </trkpt>
      <trkpt lat="49.87171" lon="4.66977">
        <ele>290.2</ele>
        <time>2024-04-06T11:30:28Z</time>
      </trkpt>
      <trkpt lat="49.87168" lon="4.66972">
        <ele>290.4</ele>
        <time>2024-04-06T11:30:29Z</time>
      </trkpt>
      <trkpt lat="49.87166" lon="4.66968">
        <ele>290.6</ele>
        <time>2024-04-06T11:30:30Z</time>
      </trkpt>
      <trkpt lat="49.87163" lon="4.66964">
        <ele>290.6</ele>
        <time>2024-04-06T11:30:31Z</time>
      </trkpt>
      <trkpt lat="49.8716" lon="4.6696">
        <ele>290.8</ele>
        <time>2024-04-06T11:30:32Z</time>
      </trkpt>
      <trkpt lat="49.87157" lon="4.66956">
        <ele>290.8</ele>
        <time>2024-04-06T11:30:33Z</time>
      </trkpt>
      <trkpt lat="49.87154" lon="4.66952">
        <ele>291</ele>
        <time>2024-04-06T11:30:34Z</time>
      </trkpt>
      <trkpt lat="49.87152" lon="4.66948">
        <ele>291.2</ele>
        <time>2024-04-06T11:30:35Z</time>
      </trkpt>
      <trkpt lat="49.87149" lon="4.66944">
        <ele>291.2</ele>
        <time>2024-04-06T11:30:36Z</time>
      </trkpt>
      <trkpt lat="49.87146" lon="4.6694">
        <ele>291.4</ele>
        <time>2024-04-06T11:30:37Z</time>
      </trkpt>
      <trkpt lat="49.87142" lon="4.66937">
        <ele>291.4</ele>
        <time>2024-04-06T11:30:38Z</time>
      </trkpt>
      <trkpt lat="49.87139" lon="4.66933">
        <ele>291.6</ele>
        <time>2024-04-06T11:30:39Z</time>
      </trkpt>
      <trkpt lat="49.87136" lon="4.66929">
        <ele>291.8</ele>
        <time>2024-04-06T11:30:40Z</time>
      </trkpt>
      <trkpt lat="49.87133" lon="4.66925">
        <ele>291.8</ele>
        <time>2024-04-06T11:30:41Z</time>
      </trkpt>
      <trkpt lat="49.8713" lon="4.66922">
        <ele>292</ele>
        <time>2024-04-06T11:30:42Z</time>
      </trkpt>
      <trkpt lat="49.87126" lon="4.66919">
        <ele>292</ele>
        <time>2024-04-06T11:30:43Z</time>
      </trkpt>
      <trkpt lat="49.87123" lon="4.66915">
        <ele>292.4</ele>
        <time>2024-04-06T11:30:44Z</time>
      </trkpt>
      <trkpt lat="49.8712" lon="4.66912">
        <ele>292.6</ele>
        <time>2024-04-06T11:30:45Z</time>
      </trkpt>
      <trkpt lat="49.87117" lon="4.66909">
        <ele>292.6</ele>
        <time>2024-04-06T11:30:46Z</time>
      </trkpt>
      <trkpt lat="49.87113" lon="4.66906">
        <ele>292.8</ele>
        <time>2024-04-06T11:30:47Z</time>
      </trkpt>
      <trkpt lat="49.8711" lon="4.66903">
        <ele>292.8</ele>
        <time>2024-04-06T11:30:48Z</time>
      </trkpt>
      <trkpt lat="49.87107" lon="4.669">
        <ele>292.8</ele>
        <time>2024-04-06T11:30:49Z</time>
      </trkpt>
      <trkpt lat="49.87103" lon="4.66897">
        <ele>292.8</ele>
        <time>2024-04-06T11:30:50Z</time>
      </trkpt>
      <trkpt lat="49.871" lon="4.66894">
        <ele>293</ele>
        <time>2024-04-06T11:30:51Z</time>
      </trkpt>
      <trkpt lat="49.87097" lon="4.66891">
        <ele>293.2</ele>
        <time>2024-04-06T11:30:52Z</time>
      </trkpt>
      <trkpt lat="49.87093" lon="4.66889">
        <ele>293.6</ele>
        <time>2024-04-06T11:30:53Z</time>
      </trkpt>
      <trkpt lat="49.8709" lon="4.66886">
        <ele>293.8</ele>
        <time>2024-04-06T11:30:54Z</time>
      </trkpt>
      <trkpt lat="49.87087" lon="4.66884">
        <ele>294.2</ele>
        <time>2024-04-06T11:30:55Z</time>
      </trkpt>
      <trkpt lat="49.87083" lon="4.66882">
        <ele>294.2</ele>
        <time>2024-04-06T11:30:56Z</time>
      </trkpt>
      <trkpt lat="49.8708" lon="4.6688">
        <ele>294.4</ele>
        <time>2024-04-06T11:30:57Z</time>
      </trkpt>
      <trkpt lat="49.87077" lon="4.66878">
        <ele>294.6</ele>
        <time>2024-04-06T11:30:58Z</time>
      </trkpt>
      <trkpt lat="49.87073" lon="4.66876">
        <ele>294.8</ele>
        <time>2024-04-06T11:30:59Z</time>
      </trkpt>
      <trkpt lat="49.8707" lon="4.66874">
        <ele>294.8</ele>
        <time>2024-04-06T11:31:00Z</time>
      </trkpt>
      <trkpt lat="49.87067" lon="4.66871">
        <ele>294.8</ele>
        <time>2024-04-06T11:31:01Z</time>
      </trkpt>
      <trkpt lat="49.87063" lon="4.66869">
        <ele>295</ele>
        <time>2024-04-06T11:31:02Z</time>
      </trkpt>
      <trkpt lat="49.8706" lon="4.66867">
        <ele>295</ele>
        <time>2024-04-06T11:31:03Z</time>
      </trkpt>
      <trkpt lat="49.87057" lon="4.66865">
        <ele>295.2</ele>
        <time>2024-04-06T11:31:04Z</time>
      </trkpt>
      <trkpt lat="49.87054" lon="4.66863">
        <ele>295.2</ele>
        <time>2024-04-06T11:31:05Z</time>
      </trkpt>
      <trkpt lat="49.87051" lon="4.66861">
        <ele>295.4</ele>
        <time>2024-04-06T11:31:06Z</time>
      </trkpt>
      <trkpt lat="49.87048" lon="4.66859">
        <ele>295.4</ele>
        <time>2024-04-06T11:31:07Z</time>
      </trkpt>
      <trkpt lat="49.87045" lon="4.66858">
        <ele>295.8</ele>
        <time>2024-04-06T11:31:08Z</time>
      </trkpt>
      <trkpt lat="49.87044" lon="4.66857">
        <ele>296</ele>
        <time>2024-04-06T11:31:09Z</time>
      </trkpt>
      <trkpt lat="49.87042" lon="4.66856">
        <ele>296.4</ele>
        <time>2024-04-06T11:31:10Z</time>
      </trkpt>
      <trkpt lat="49.87041" lon="4.66854">
        <ele>296.6</ele>
        <time>2024-04-06T11:31:11Z</time>
      </trkpt>
      <trkpt lat="49.8704" lon="4.66853">
        <ele>296.6</ele>
        <time>2024-04-06T11:31:12Z</time>
      </trkpt>
      <trkpt lat="49.8704" lon="4.66852">
        <ele>297</ele>
        <time>2024-04-06T11:31:13Z</time>
      </trkpt>
      <trkpt lat="49.87039" lon="4.66851">
        <ele>297.8</ele>
        <time>2024-04-06T11:31:14Z</time>
      </trkpt>
      <trkpt lat="49.87039" lon="4.66849">
        <ele>298.2</ele>
        <time>2024-04-06T11:31:15Z</time>
      </trkpt>
      <trkpt lat="49.8704" lon="4.66846">
        <ele>298.6</ele>
        <time>2024-04-06T11:31:16Z</time>
      </trkpt>
      <trkpt lat="49.87041" lon="4.66842">
        <ele>299</ele>
        <time>2024-04-06T11:31:17Z</time>
      </trkpt>
      <trkpt lat="49.87042" lon="4.66837">
        <ele>299</ele>
        <time>2024-04-06T11:31:18Z</time>
      </trkpt>
      <trkpt lat="49.87044" lon="4.66833">
        <ele>299</ele>
        <time>2024-04-06T11:31:19Z</time>
      </trkpt>
      <trkpt lat="49.87045" lon="4.66828">
        <ele>299.2</ele>
        <time>2024-04-06T11:31:20Z</time>
      </trkpt>
      <trkpt lat="49.87046" lon="4.66822">
        <ele>299.4</ele>
        <time>2024-04-06T11:31:21Z</time>
      </trkpt>
      <trkpt lat="49.87047" lon="4.66817">
        <ele>299.4</ele>
        <time>2024-04-06T11:31:22Z</time>
      </trkpt>
      <trkpt lat="49.87048" lon="4.66812">
        <ele>299.4</ele>
        <time>2024-04-06T11:31:23Z</time>
      </trkpt>
      <trkpt lat="49.87049" lon="4.66807">
        <ele>299.4</ele>
        <time>2024-04-06T11:31:24Z</time>
      </trkpt>
      <trkpt lat="49.8705" lon="4.66802">
        <ele>299.4</ele>
        <time>2024-04-06T11:31:25Z</time>
      </trkpt>
      <trkpt lat="49.8705" lon="4.66797">
        <ele>299.6</ele>
        <time>2024-04-06T11:31:26Z</time>
      </trkpt>
      <trkpt lat="49.87051" lon="4.66791">
        <ele>299.6</ele>
        <time>2024-04-06T11:31:27Z</time>
      </trkpt>
      <trkpt lat="49.87051" lon="4.66786">
        <ele>299.6</ele>
        <time>2024-04-06T11:31:28Z</time>
      </trkpt>
      <trkpt lat="49.87052" lon="4.66781">
        <ele>299.8</ele>
        <time>2024-04-06T11:31:29Z</time>
      </trkpt>
      <trkpt lat="49.87053" lon="4.66776">
        <ele>300</ele>
        <time>2024-04-06T11:31:30Z</time>
      </trkpt>
      <trkpt lat="49.87053" lon="4.66771">
        <ele>300</ele>
        <time>2024-04-06T11:31:31Z</time>
      </trkpt>
      <trkpt lat="49.87054" lon="4.66766">
        <ele>300.4</ele>
        <time>2024-04-06T11:31:32Z</time>
      </trkpt>
      <trkpt lat="49.87055" lon="4.66761">
        <ele>300.6</ele>
        <time>2024-04-06T11:31:33Z</time>
      </trkpt>
      <trkpt lat="49.87055" lon="4.66756">
        <ele>300.6</ele>
        <time>2024-04-06T11:31:34Z</time>
      </trkpt>
      <trkpt lat="49.87056" lon="4.66752">
        <ele>300.8</ele>
        <time>2024-04-06T11:31:35Z</time>
      </trkpt>
      <trkpt lat="49.87057" lon="4.66747">
        <ele>301.2</ele>
        <time>2024-04-06T11:31:36Z</time>
      </trkpt>
      <trkpt lat="49.87057" lon="4.66742">
        <ele>301.6</ele>
        <time>2024-04-06T11:31:37Z</time>
      </trkpt>
      <trkpt lat="49.87058" lon="4.66737">
        <ele>302</ele>
        <time>2024-04-06T11:31:38Z</time>
      </trkpt>
      <trkpt lat="49.87058" lon="4.66732">
        <ele>302.4</ele>
        <time>2024-04-06T11:31:39Z</time>
      </trkpt>
      <trkpt lat="49.87059" lon="4.66727">
        <ele>302.8</ele>
        <time>2024-04-06T11:31:40Z</time>
      </trkpt>
      <trkpt lat="49.8706" lon="4.66722">
        <ele>303</ele>
        <time>2024-04-06T11:31:41Z</time>
      </trkpt>
      <trkpt lat="49.8706" lon="4.66717">
        <ele>303.4</ele>
        <time>2024-04-06T11:31:42Z</time>
      </trkpt>
      <trkpt lat="49.87061" lon="4.66712">
        <ele>303.8</ele>
        <time>2024-04-06T11:31:43Z</time>
      </trkpt>
      <trkpt lat="49.87061" lon="4.66707">
        <ele>303.8</ele>
        <time>2024-04-06T11:31:44Z</time>
      </trkpt>
      <trkpt lat="49.87062" lon="4.66702">
        <ele>304</ele>
        <time>2024-04-06T11:31:45Z</time>
      </trkpt>
      <trkpt lat="49.87062" lon="4.66697">
        <ele>304.2</ele>
        <time>2024-04-06T11:31:46Z</time>
      </trkpt>
      <trkpt lat="49.87063" lon="4.66692">
        <ele>304.4</ele>
        <time>2024-04-06T11:31:47Z</time>
      </trkpt>
      <trkpt lat="49.87063" lon="4.66687">
        <ele>304.4</ele>
        <time>2024-04-06T11:31:48Z</time>
      </trkpt>
      <trkpt lat="49.87064" lon="4.66682">
        <ele>304.6</ele>
        <time>2024-04-06T11:31:49Z</time>
      </trkpt>
      <trkpt lat="49.87064" lon="4.66677">
        <ele>304.8</ele>
        <time>2024-04-06T11:31:50Z</time>
      </trkpt>
      <trkpt lat="49.87065" lon="4.66672">
        <ele>305</ele>
        <time>2024-04-06T11:31:51Z</time>
      </trkpt>
      <trkpt lat="49.87066" lon="4.66667">
        <ele>305.4</ele>
        <time>2024-04-06T11:31:52Z</time>
      </trkpt>
      <trkpt lat="49.87066" lon="4.66662">
        <ele>305.4</ele>
        <time>2024-04-06T11:31:53Z</time>
      </trkpt>
      <trkpt lat="49.87067" lon="4.66658">
        <ele>305.8</ele>
        <time>2024-04-06T11:31:54Z</time>
      </trkpt>
      <trkpt lat="49.87068" lon="4.66653">
        <ele>306</ele>
        <time>2024-04-06T11:31:55Z</time>
      </trkpt>
      <trkpt lat="49.87068" lon="4.66648">
        <ele>306.4</ele>
        <time>2024-04-06T11:31:56Z</time>
      </trkpt>
      <trkpt lat="49.87068" lon="4.66644">
        <ele>306.4</ele>
        <time>2024-04-06T11:31:57Z</time>
      </trkpt>
      <trkpt lat="49.87069" lon="4.66639">
        <ele>306.6</ele>
        <time>2024-04-06T11:31:58Z</time>
      </trkpt>
      <trkpt lat="49.87069" lon="4.66634">
        <ele>306.8</ele>
        <time>2024-04-06T11:31:59Z</time>
      </trkpt>
      <trkpt lat="49.8707" lon="4.66629">
        <ele>307</ele>
        <time>2024-04-06T11:32:00Z</time>
      </trkpt>
      <trkpt lat="49.8707" lon="4.66625">
        <ele>307</ele>
        <time>2024-04-06T11:32:01Z</time>
      </trkpt>
      <trkpt lat="49.87071" lon="4.6662">
        <ele>307.2</ele>
        <time>2024-04-06T11:32:02Z</time>
      </trkpt>
      <trkpt lat="49.87071" lon="4.66615">
        <ele>307.4</ele>
        <time>2024-04-06T11:32:03Z</time>
      </trkpt>
      <trkpt lat="49.87072" lon="4.66611">
        <ele>307.6</ele>
        <time>2024-04-06T11:32:04Z</time>
      </trkpt>
      <trkpt lat="49.87073" lon="4.66606">
        <ele>307.8</ele>
        <time>2024-04-06T11:32:05Z</time>
      </trkpt>
      <trkpt lat="49.87073" lon="4.66601">
        <ele>308</ele>
        <time>2024-04-06T11:32:06Z</time>
      </trkpt>
      <trkpt lat="49.87074" lon="4.66597">
        <ele>308.2</ele>
        <time>2024-04-06T11:32:07Z</time>
      </trkpt>
      <trkpt lat="49.87074" lon="4.66592">
        <ele>308.4</ele>
        <time>2024-04-06T11:32:08Z</time>
      </trkpt>
      <trkpt lat="49.87075" lon="4.66587">
        <ele>308.6</ele>
        <time>2024-04-06T11:32:09Z</time>
      </trkpt>
      <trkpt lat="49.87075" lon="4.66582">
        <ele>308.8</ele>
        <time>2024-04-06T11:32:10Z</time>
      </trkpt>
      <trkpt lat="49.87076" lon="4.66577">
        <ele>309</ele>
        <time>2024-04-06T11:32:11Z</time>
      </trkpt>
      <trkpt lat="49.87076" lon="4.66572">
        <ele>309.2</ele>
        <time>2024-04-06T11:32:12Z</time>
      </trkpt>
      <trkpt lat="49.87077" lon="4.66567">
        <ele>309.4</ele>
        <time>2024-04-06T11:32:13Z</time>
      </trkpt>
      <trkpt lat="49.87078" lon="4.66563">
        <ele>309.6</ele>
        <time>2024-04-06T11:32:14Z</time>
      </trkpt>
      <trkpt lat="49.87078" lon="4.66558">
        <ele>309.8</ele>
        <time>2024-04-06T11:32:15Z</time>
      </trkpt>
      <trkpt lat="49.87079" lon="4.66553">
        <ele>309.8</ele>
        <time>2024-04-06T11:32:16Z</time>
      </trkpt>
      <trkpt lat="49.87079" lon="4.66548">
        <ele>309.8</ele>
        <time>2024-04-06T11:32:17Z</time>
      </trkpt>
      <trkpt lat="49.8708" lon="4.66544">
        <ele>310.2</ele>
        <time>2024-04-06T11:32:18Z</time>
      </trkpt>
      <trkpt lat="49.8708" lon="4.66539">
        <ele>310.4</ele>
        <time>2024-04-06T11:32:19Z</time>
      </trkpt>
      <trkpt lat="49.87081" lon="4.66534">
        <ele>311</ele>
        <time>2024-04-06T11:32:20Z</time>
      </trkpt>
      <trkpt lat="49.87081" lon="4.6653">
        <ele>311.2</ele>
        <time>2024-04-06T11:32:21Z</time>
      </trkpt>
      <trkpt lat="49.87082" lon="4.66525">
        <ele>311.6</ele>
        <time>2024-04-06T11:32:22Z</time>
      </trkpt>
      <trkpt lat="49.87082" lon="4.6652">
        <ele>311.8</ele>
        <time>2024-04-06T11:32:23Z</time>
      </trkpt>
      <trkpt lat="49.87083" lon="4.66516">
        <ele>312</ele>
        <time>2024-04-06T11:32:24Z</time>
      </trkpt>
      <trkpt lat="49.87083" lon="4.66511">
        <ele>312.2</ele>
        <time>2024-04-06T11:32:25Z</time>
      </trkpt>
      <trkpt lat="49.87084" lon="4.66506">
        <ele>312.6</ele>
        <time>2024-04-06T11:32:26Z</time>
      </trkpt>
      <trkpt lat="49.87085" lon="4.66501">
        <ele>312.6</ele>
        <time>2024-04-06T11:32:27Z</time>
      </trkpt>
      <trkpt lat="49.87085" lon="4.66496">
        <ele>312.8</ele>
        <time>2024-04-06T11:32:28Z</time>
      </trkpt>
      <trkpt lat="49.87086" lon="4.66491">
        <ele>312.8</ele>
        <time>2024-04-06T11:32:29Z</time>
      </trkpt>
      <trkpt lat="49.87087" lon="4.66486">
        <ele>312.8</ele>
        <time>2024-04-06T11:32:30Z</time>
      </trkpt>
      <trkpt lat="49.87087" lon="4.66481">
        <ele>313</ele>
        <time>2024-04-06T11:32:31Z</time>
      </trkpt>
      <trkpt lat="49.87088" lon="4.66476">
        <ele>313.6</ele>
        <time>2024-04-06T11:32:32Z</time>
      </trkpt>
      <trkpt lat="49.87089" lon="4.66471">
        <ele>313.8</ele>
        <time>2024-04-06T11:32:33Z</time>
      </trkpt>
      <trkpt lat="49.87089" lon="4.66467">
        <ele>313.8</ele>
        <time>2024-04-06T11:32:34Z</time>
      </trkpt>
      <trkpt lat="49.8709" lon="4.66462">
        <ele>314</ele>
        <time>2024-04-06T11:32:35Z</time>
      </trkpt>
      <trkpt lat="49.87091" lon="4.66457">
        <ele>314.2</ele>
        <time>2024-04-06T11:32:36Z</time>
      </trkpt>
      <trkpt lat="49.87091" lon="4.66452">
        <ele>314.2</ele>
        <time>2024-04-06T11:32:37Z</time>
      </trkpt>
      <trkpt lat="49.87092" lon="4.66447">
        <ele>314.4</ele>
        <time>2024-04-06T11:32:38Z</time>
      </trkpt>
      <trkpt lat="49.87092" lon="4.66442">
        <ele>314.6</ele>
        <time>2024-04-06T11:32:39Z</time>
      </trkpt>
      <trkpt lat="49.87093" lon="4.66437">
        <ele>314.8</ele>
        <time>2024-04-06T11:32:40Z</time>
      </trkpt>
      <trkpt lat="49.87093" lon="4.66432">
        <ele>315.2</ele>
        <time>2024-04-06T11:32:41Z</time>
      </trkpt>
      <trkpt lat="49.87094" lon="4.66427">
        <ele>315.4</ele>
        <time>2024-04-06T11:32:42Z</time>
      </trkpt>
      <trkpt lat="49.87095" lon="4.66422">
        <ele>315.6</ele>
        <time>2024-04-06T11:32:43Z</time>
      </trkpt>
      <trkpt lat="49.87095" lon="4.66418">
        <ele>315.8</ele>
        <time>2024-04-06T11:32:44Z</time>
      </trkpt>
      <trkpt lat="49.87096" lon="4.66413">
        <ele>315.8</ele>
        <time>2024-04-06T11:32:45Z</time>
      </trkpt>
      <trkpt lat="49.87096" lon="4.66408">
        <ele>316</ele>
        <time>2024-04-06T11:32:46Z</time>
      </trkpt>
      <trkpt lat="49.87097" lon="4.66403">
        <ele>316.2</ele>
        <time>2024-04-06T11:32:47Z</time>
      </trkpt>
      <trkpt lat="49.87097" lon="4.66398">
        <ele>316.4</ele>
        <time>2024-04-06T11:32:48Z</time>
      </trkpt>
      <trkpt lat="49.87098" lon="4.66393">
        <ele>316.4</ele>
        <time>2024-04-06T11:32:49Z</time>
      </trkpt>
      <trkpt lat="49.87098" lon="4.66388">
        <ele>316.6</ele>
        <time>2024-04-06T11:32:50Z</time>
      </trkpt>
      <trkpt lat="49.87099" lon="4.66383">
        <ele>317</ele>
        <time>2024-04-06T11:32:51Z</time>
      </trkpt>
      <trkpt lat="49.871" lon="4.66378">
        <ele>317.4</ele>
        <time>2024-04-06T11:32:52Z</time>
      </trkpt>
      <trkpt lat="49.871" lon="4.66373">
        <ele>317.6</ele>
        <time>2024-04-06T11:32:53Z</time>
      </trkpt>
      <trkpt lat="49.87101" lon="4.66368">
        <ele>317.8</ele>
        <time>2024-04-06T11:32:54Z</time>
      </trkpt>
      <trkpt lat="49.87101" lon="4.66363">
        <ele>318</ele>
        <time>2024-04-06T11:32:55Z</time>
      </trkpt>
      <trkpt lat="49.87102" lon="4.66357">
        <ele>318.2</ele>
        <time>2024-04-06T11:32:56Z</time>
      </trkpt>
      <trkpt lat="49.87103" lon="4.66352">
        <ele>318.4</ele>
        <time>2024-04-06T11:32:57Z</time>
      </trkpt>
      <trkpt lat="49.87103" lon="4.66346">
        <ele>318.6</ele>
        <time>2024-04-06T11:32:58Z</time>
      </trkpt>
      <trkpt lat="49.87104" lon="4.6634">
        <ele>318.8</ele>
        <time>2024-04-06T11:32:59Z</time>
      </trkpt>
      <trkpt lat="49.87105" lon="4.66335">
        <ele>318.8</ele>
        <time>2024-04-06T11:33:00Z</time>
      </trkpt>
      <trkpt lat="49.87105" lon="4.66329">
        <ele>319</ele>
        <time>2024-04-06T11:33:01Z</time>
      </trkpt>
      <trkpt lat="49.87106" lon="4.66323">
        <ele>319.2</ele>
        <time>2024-04-06T11:33:02Z</time>
      </trkpt>
      <trkpt lat="49.87107" lon="4.66317">
        <ele>319.4</ele>
        <time>2024-04-06T11:33:03Z</time>
      </trkpt>
      <trkpt lat="49.87107" lon="4.66311">
        <ele>319.6</ele>
        <time>2024-04-06T11:33:04Z</time>
      </trkpt>
      <trkpt lat="49.87108" lon="4.66304">
        <ele>319.8</ele>
        <time>2024-04-06T11:33:05Z</time>
      </trkpt>
      <trkpt lat="49.87109" lon="4.66298">
        <ele>319.8</ele>
        <time>2024-04-06T11:33:06Z</time>
      </trkpt>
      <trkpt lat="49.8711" lon="4.66291">
        <ele>319.8</ele>
        <time>2024-04-06T11:33:07Z</time>
      </trkpt>
      <trkpt lat="49.8711" lon="4.66284">
        <ele>320</ele>
        <time>2024-04-06T11:33:08Z</time>
      </trkpt>
      <trkpt lat="49.87111" lon="4.66276">
        <ele>320.2</ele>
        <time>2024-04-06T11:33:09Z</time>
      </trkpt>
      <trkpt lat="49.87112" lon="4.66269">
        <ele>320.2</ele>
        <time>2024-04-06T11:33:10Z</time>
      </trkpt>
      <trkpt lat="49.87113" lon="4.66261">
        <ele>320.4</ele>
        <time>2024-04-06T11:33:11Z</time>
      </trkpt>
      <trkpt lat="49.87114" lon="4.66252">
        <ele>320.4</ele>
        <time>2024-04-06T11:33:12Z</time>
      </trkpt>
      <trkpt lat="49.87115" lon="4.66243">
        <ele>320.6</ele>
        <time>2024-04-06T11:33:13Z</time>
      </trkpt>
      <trkpt lat="49.87116" lon="4.66233">
        <ele>320.4</ele>
        <time>2024-04-06T11:33:14Z</time>
      </trkpt>
      <trkpt lat="49.87117" lon="4.66223">
        <ele>320.6</ele>
        <time>2024-04-06T11:33:15Z</time>
      </trkpt>
      <trkpt lat="49.87118" lon="4.66212">
        <ele>320.6</ele>
        <time>2024-04-06T11:33:16Z</time>
      </trkpt>
      <trkpt lat="49.87119" lon="4.662">
        <ele>320.6</ele>
        <time>2024-04-06T11:33:17Z</time>
      </trkpt>
      <trkpt lat="49.8712" lon="4.66188">
        <ele>320.4</ele>
        <time>2024-04-06T11:33:18Z</time>
      </trkpt>
      <trkpt lat="49.87122" lon="4.66176">
        <ele>320.6</ele>
        <time>2024-04-06T11:33:19Z</time>
      </trkpt>
      <trkpt lat="49.87123" lon="4.66163">
        <ele>320.6</ele>
        <time>2024-04-06T11:33:20Z</time>
      </trkpt>
      <trkpt lat="49.87124" lon="4.6615">
        <ele>320.4</ele>
        <time>2024-04-06T11:33:21Z</time>
      </trkpt>
      <trkpt lat="49.87125" lon="4.66136">
        <ele>320.2</ele>
        <time>2024-04-06T11:33:22Z</time>
      </trkpt>
      <trkpt lat="49.87126" lon="4.66123">
        <ele>319.8</ele>
        <time>2024-04-06T11:33:23Z</time>
      </trkpt>
      <trkpt lat="49.87128" lon="4.66109">
        <ele>319</ele>
        <time>2024-04-06T11:33:24Z</time>
      </trkpt>
      <trkpt lat="49.8713" lon="4.66094">
        <ele>318.2</ele>
        <time>2024-04-06T11:33:25Z</time>
      </trkpt>
      <trkpt lat="49.87131" lon="4.66079">
        <ele>317.8</ele>
        <time>2024-04-06T11:33:26Z</time>
      </trkpt>
      <trkpt lat="49.87133" lon="4.66064">
        <ele>317.4</ele>
        <time>2024-04-06T11:33:27Z</time>
      </trkpt>
      <trkpt lat="49.87135" lon="4.66049">
        <ele>317</ele>
        <time>2024-04-06T11:33:28Z</time>
      </trkpt>
      <trkpt lat="49.87137" lon="4.66033">
        <ele>316.6</ele>
        <time>2024-04-06T11:33:29Z</time>
      </trkpt>
      <trkpt lat="49.87139" lon="4.66018">
        <ele>316.2</ele>
        <time>2024-04-06T11:33:30Z</time>
      </trkpt>
      <trkpt lat="49.87141" lon="4.66003">
        <ele>316</ele>
        <time>2024-04-06T11:33:31Z</time>
      </trkpt>
      <trkpt lat="49.87143" lon="4.65987">
        <ele>315.2</ele>
        <time>2024-04-06T11:33:32Z</time>
      </trkpt>
      <trkpt lat="49.87146" lon="4.65972">
        <ele>315.2</ele>
        <time>2024-04-06T11:33:33Z</time>
      </trkpt>
      <trkpt lat="49.87148" lon="4.65956">
        <ele>314.6</ele>
        <time>2024-04-06T11:33:34Z</time>
      </trkpt>
      <trkpt lat="49.87151" lon="4.6594">
        <ele>313.8</ele>
        <time>2024-04-06T11:33:35Z</time>
      </trkpt>
      <trkpt lat="49.87153" lon="4.65925">
        <ele>313.6</ele>
        <time>2024-04-06T11:33:36Z</time>
      </trkpt>
      <trkpt lat="49.87155" lon="4.65909">
        <ele>313.2</ele>
        <time>2024-04-06T11:33:37Z</time>
      </trkpt>
      <trkpt lat="49.87158" lon="4.65893">
        <ele>312.4</ele>
        <time>2024-04-06T11:33:38Z</time>
      </trkpt>
      <trkpt lat="49.8716" lon="4.65877">
        <ele>312</ele>
        <time>2024-04-06T11:33:39Z</time>
      </trkpt>
      <trkpt lat="49.87163" lon="4.65861">
        <ele>311.6</ele>
        <time>2024-04-06T11:33:40Z</time>
      </trkpt>
      <trkpt lat="49.87166" lon="4.65845">
        <ele>311.2</ele>
        <time>2024-04-06T11:33:41Z</time>
      </trkpt>
      <trkpt lat="49.87168" lon="4.65829">
        <ele>310.6</ele>
        <time>2024-04-06T11:33:42Z</time>
      </trkpt>
      <trkpt lat="49.87171" lon="4.65813">
        <ele>309.6</ele>
        <time>2024-04-06T11:33:43Z</time>
      </trkpt>
      <trkpt lat="49.87173" lon="4.65797">
        <ele>309</ele>
        <time>2024-04-06T11:33:44Z</time>
      </trkpt>
      <trkpt lat="49.87175" lon="4.65781">
        <ele>308.4</ele>
        <time>2024-04-06T11:33:45Z</time>
      </trkpt>
      <trkpt lat="49.87178" lon="4.65765">
        <ele>308</ele>
        <time>2024-04-06T11:33:46Z</time>
      </trkpt>
      <trkpt lat="49.8718" lon="4.65749">
        <ele>307.8</ele>
        <time>2024-04-06T11:33:47Z</time>
      </trkpt>
      <trkpt lat="49.87183" lon="4.65733">
        <ele>307.6</ele>
        <time>2024-04-06T11:33:48Z</time>
      </trkpt>
      <trkpt lat="49.87185" lon="4.65717">
        <ele>307.4</ele>
        <time>2024-04-06T11:33:49Z</time>
      </trkpt>
      <trkpt lat="49.87187" lon="4.65702">
        <ele>307.4</ele>
        <time>2024-04-06T11:33:50Z</time>
      </trkpt>
      <trkpt lat="49.8719" lon="4.65686">
        <ele>307</ele>
        <time>2024-04-06T11:33:51Z</time>
      </trkpt>
      <trkpt lat="49.87192" lon="4.6567">
        <ele>306.6</ele>
        <time>2024-04-06T11:33:52Z</time>
      </trkpt>
      <trkpt lat="49.87194" lon="4.65654">
        <ele>306</ele>
        <time>2024-04-06T11:33:53Z</time>
      </trkpt>
      <trkpt lat="49.87196" lon="4.65639">
        <ele>305.8</ele>
        <time>2024-04-06T11:33:54Z</time>
      </trkpt>
      <trkpt lat="49.87198" lon="4.65624">
        <ele>305.8</ele>
        <time>2024-04-06T11:33:55Z</time>
      </trkpt>
      <trkpt lat="49.872" lon="4.65608">
        <ele>305.8</ele>
        <time>2024-04-06T11:33:56Z</time>
      </trkpt>
      <trkpt lat="49.87203" lon="4.65593">
        <ele>305.4</ele>
        <time>2024-04-06T11:33:57Z</time>
      </trkpt>
      <trkpt lat="49.87205" lon="4.65578">
        <ele>305.2</ele>
        <time>2024-04-06T11:33:58Z</time>
      </trkpt>
      <trkpt lat="49.87208" lon="4.65563">
        <ele>304.6</ele>
        <time>2024-04-06T11:33:59Z</time>
      </trkpt>
      <trkpt lat="49.8721" lon="4.65549">
        <ele>304.2</ele>
        <time>2024-04-06T11:34:00Z</time>
      </trkpt>
      <trkpt lat="49.87212" lon="4.65534">
        <ele>304.2</ele>
        <time>2024-04-06T11:34:01Z</time>
      </trkpt>
      <trkpt lat="49.87215" lon="4.6552">
        <ele>304.2</ele>
        <time>2024-04-06T11:34:02Z</time>
      </trkpt>
      <trkpt lat="49.87217" lon="4.65506">
        <ele>304</ele>
        <time>2024-04-06T11:34:03Z</time>
      </trkpt>
      <trkpt lat="49.87219" lon="4.65491">
        <ele>303.8</ele>
        <time>2024-04-06T11:34:04Z</time>
      </trkpt>
      <trkpt lat="49.87221" lon="4.65477">
        <ele>303.6</ele>
        <time>2024-04-06T11:34:05Z</time>
      </trkpt>
      <trkpt lat="49.87223" lon="4.65463">
        <ele>303.4</ele>
        <time>2024-04-06T11:34:06Z</time>
      </trkpt>
      <trkpt lat="49.87225" lon="4.65449">
        <ele>303.6</ele>
        <time>2024-04-06T11:34:07Z</time>
      </trkpt>
      <trkpt lat="49.87228" lon="4.65435">
        <ele>303.4</ele>
        <time>2024-04-06T11:34:08Z</time>
      </trkpt>
      <trkpt lat="49.8723" lon="4.65421">
        <ele>303.2</ele>
        <time>2024-04-06T11:34:09Z</time>
      </trkpt>
      <trkpt lat="49.87232" lon="4.65407">
        <ele>303.2</ele>
        <time>2024-04-06T11:34:10Z</time>
      </trkpt>
      <trkpt lat="49.87234" lon="4.65393">
        <ele>303.2</ele>
        <time>2024-04-06T11:34:11Z</time>
      </trkpt>
      <trkpt lat="49.87237" lon="4.65379">
        <ele>303.2</ele>
        <time>2024-04-06T11:34:12Z</time>
      </trkpt>
      <trkpt lat="49.87239" lon="4.65366">
        <ele>303</ele>
        <time>2024-04-06T11:34:13Z</time>
      </trkpt>
      <trkpt lat="49.87241" lon="4.65353">
        <ele>303</ele>
        <time>2024-04-06T11:34:14Z</time>
      </trkpt>
      <trkpt lat="49.87244" lon="4.6534">
        <ele>303</ele>
        <time>2024-04-06T11:34:15Z</time>
      </trkpt>
      <trkpt lat="49.87246" lon="4.65326">
        <ele>302.8</ele>
        <time>2024-04-06T11:34:16Z</time>
      </trkpt>
      <trkpt lat="49.87248" lon="4.65313">
        <ele>302.8</ele>
        <time>2024-04-06T11:34:17Z</time>
      </trkpt>
      <trkpt lat="49.8725" lon="4.653">
        <ele>302.4</ele>
        <time>2024-04-06T11:34:18Z</time>
      </trkpt>
      <trkpt lat="49.87252" lon="4.65287">
        <ele>302.2</ele>
        <time>2024-04-06T11:34:19Z</time>
      </trkpt>
      <trkpt lat="49.87254" lon="4.65274">
        <ele>302.2</ele>
        <time>2024-04-06T11:34:20Z</time>
      </trkpt>
      <trkpt lat="49.87256" lon="4.6526">
        <ele>302</ele>
        <time>2024-04-06T11:34:21Z</time>
      </trkpt>
      <trkpt lat="49.87259" lon="4.65247">
        <ele>302</ele>
        <time>2024-04-06T11:34:22Z</time>
      </trkpt>
      <trkpt lat="49.87261" lon="4.65234">
        <ele>302</ele>
        <time>2024-04-06T11:34:23Z</time>
      </trkpt>
      <trkpt lat="49.87263" lon="4.65221">
        <ele>301.8</ele>
        <time>2024-04-06T11:34:24Z</time>
      </trkpt>
      <trkpt lat="49.87264" lon="4.65208">
        <ele>301.6</ele>
        <time>2024-04-06T11:34:25Z</time>
      </trkpt>
      <trkpt lat="49.87266" lon="4.65196">
        <ele>301.6</ele>
        <time>2024-04-06T11:34:26Z</time>
      </trkpt>
      <trkpt lat="49.87267" lon="4.65183">
        <ele>301.4</ele>
        <time>2024-04-06T11:34:27Z</time>
      </trkpt>
      <trkpt lat="49.87269" lon="4.6517">
        <ele>301</ele>
        <time>2024-04-06T11:34:28Z</time>
      </trkpt>
      <trkpt lat="49.87271" lon="4.65157">
        <ele>300.8</ele>
        <time>2024-04-06T11:34:29Z</time>
      </trkpt>
      <trkpt lat="49.87273" lon="4.65145">
        <ele>300.8</ele>
        <time>2024-04-06T11:34:30Z</time>
      </trkpt>
      <trkpt lat="49.87275" lon="4.65133">
        <ele>300.6</ele>
        <time>2024-04-06T11:34:31Z</time>
      </trkpt>
      <trkpt lat="49.87276" lon="4.65121">
        <ele>300.6</ele>
        <time>2024-04-06T11:34:32Z</time>
      </trkpt>
      <trkpt lat="49.87278" lon="4.65111">
        <ele>300.4</ele>
        <time>2024-04-06T11:34:33Z</time>
      </trkpt>
      <trkpt lat="49.8728" lon="4.65101">
        <ele>300.4</ele>
        <time>2024-04-06T11:34:34Z</time>
      </trkpt>
      <trkpt lat="49.87281" lon="4.65092">
        <ele>300.4</ele>
        <time>2024-04-06T11:34:35Z</time>
      </trkpt>
      <trkpt lat="49.87282" lon="4.65083">
        <ele>300.4</ele>
        <time>2024-04-06T11:34:36Z</time>
      </trkpt>
      <trkpt lat="49.87281" lon="4.65077">
        <ele>300.4</ele>
        <time>2024-04-06T11:34:37Z</time>
      </trkpt>
      <trkpt lat="49.87279" lon="4.65074">
        <ele>300.4</ele>
        <time>2024-04-06T11:34:38Z</time>
      </trkpt>
      <trkpt lat="49.87276" lon="4.65075">
        <ele>300.4</ele>
        <time>2024-04-06T11:34:39Z</time>
      </trkpt>
      <trkpt lat="49.87274" lon="4.65078">
        <ele>300.4</ele>
        <time>2024-04-06T11:34:40Z</time>
      </trkpt>
      <trkpt lat="49.87272" lon="4.65082">
        <ele>300.4</ele>
        <time>2024-04-06T11:34:41Z</time>
      </trkpt>
      <trkpt lat="49.8727" lon="4.65088">
        <ele>300.4</ele>
        <time>2024-04-06T11:34:42Z</time>
      </trkpt>
      <trkpt lat="49.87267" lon="4.65095">
        <ele>300.2</ele>
        <time>2024-04-06T11:34:43Z</time>
      </trkpt>
      <trkpt lat="49.87264" lon="4.65103">
        <ele>300.2</ele>
        <time>2024-04-06T11:34:44Z</time>
      </trkpt>
      <trkpt lat="49.8726" lon="4.65112">
        <ele>300.2</ele>
        <time>2024-04-06T11:34:45Z</time>
      </trkpt>
      <trkpt lat="49.87256" lon="4.6512">
        <ele>300.4</ele>
        <time>2024-04-06T11:34:46Z</time>
      </trkpt>
      <trkpt lat="49.87253" lon="4.6513">
        <ele>300.2</ele>
        <time>2024-04-06T11:34:47Z</time>
      </trkpt>
      <trkpt lat="49.87249" lon="4.65139">
        <ele>300.2</ele>
        <time>2024-04-06T11:34:48Z</time>
      </trkpt>
      <trkpt lat="49.87245" lon="4.65149">
        <ele>300</ele>
        <time>2024-04-06T11:34:49Z</time>
      </trkpt>
      <trkpt lat="49.8724" lon="4.65159">
        <ele>299.6</ele>
        <time>2024-04-06T11:34:50Z</time>
      </trkpt>
      <trkpt lat="49.87236" lon="4.6517">
        <ele>299</ele>
        <time>2024-04-06T11:34:51Z</time>
      </trkpt>
      <trkpt lat="49.87232" lon="4.6518">
        <ele>298.6</ele>
        <time>2024-04-06T11:34:52Z</time>
      </trkpt>
      <trkpt lat="49.87228" lon="4.65191">
        <ele>298.2</ele>
        <time>2024-04-06T11:34:53Z</time>
      </trkpt>
      <trkpt lat="49.87223" lon="4.65201">
        <ele>298</ele>
        <time>2024-04-06T11:34:54Z</time>
      </trkpt>
      <trkpt lat="49.87219" lon="4.65212">
        <ele>297</ele>
        <time>2024-04-06T11:34:55Z</time>
      </trkpt>
      <trkpt lat="49.87215" lon="4.65222">
        <ele>296.6</ele>
        <time>2024-04-06T11:34:56Z</time>
      </trkpt>
      <trkpt lat="49.87211" lon="4.65233">
        <ele>296.4</ele>
        <time>2024-04-06T11:34:57Z</time>
      </trkpt>
      <trkpt lat="49.87206" lon="4.65243">
        <ele>296</ele>
        <time>2024-04-06T11:34:58Z</time>
      </trkpt>
      <trkpt lat="49.87202" lon="4.65253">
        <ele>296</ele>
        <time>2024-04-06T11:34:59Z</time>
      </trkpt>
      <trkpt lat="49.87198" lon="4.65264">
        <ele>295.8</ele>
        <time>2024-04-06T11:35:00Z</time>
      </trkpt>
      <trkpt lat="49.87194" lon="4.65274">
        <ele>295.6</ele>
        <time>2024-04-06T11:35:01Z</time>
      </trkpt>
      <trkpt lat="49.87189" lon="4.65284">
        <ele>295.6</ele>
        <time>2024-04-06T11:35:02Z</time>
      </trkpt>
      <trkpt lat="49.87185" lon="4.65294">
        <ele>295.4</ele>
        <time>2024-04-06T11:35:03Z</time>
      </trkpt>
      <trkpt lat="49.87181" lon="4.65305">
        <ele>295.4</ele>
        <time>2024-04-06T11:35:04Z</time>
      </trkpt>
      <trkpt lat="49.87177" lon="4.65315">
        <ele>295.2</ele>
        <time>2024-04-06T11:35:05Z</time>
      </trkpt>
      <trkpt lat="49.87173" lon="4.65325">
        <ele>295.4</ele>
        <time>2024-04-06T11:35:06Z</time>
      </trkpt>
      <trkpt lat="49.87168" lon="4.65336">
        <ele>295.2</ele>
        <time>2024-04-06T11:35:07Z</time>
      </trkpt>
      <trkpt lat="49.87164" lon="4.65346">
        <ele>295.2</ele>
        <time>2024-04-06T11:35:08Z</time>
      </trkpt>
      <trkpt lat="49.8716" lon="4.65357">
        <ele>294.8</ele>
        <time>2024-04-06T11:35:09Z</time>
      </trkpt>
      <trkpt lat="49.87156" lon="4.65368">
        <ele>294.8</ele>
        <time>2024-04-06T11:35:10Z</time>
      </trkpt>
      <trkpt lat="49.87152" lon="4.65378">
        <ele>294.8</ele>
        <time>2024-04-06T11:35:11Z</time>
      </trkpt>
      <trkpt lat="49.87148" lon="4.65389">
        <ele>294.8</ele>
        <time>2024-04-06T11:35:12Z</time>
      </trkpt>
      <trkpt lat="49.87143" lon="4.65399">
        <ele>294.6</ele>
        <time>2024-04-06T11:35:13Z</time>
      </trkpt>
      <trkpt lat="49.87139" lon="4.65409">
        <ele>294.6</ele>
        <time>2024-04-06T11:35:14Z</time>
      </trkpt>
      <trkpt lat="49.87135" lon="4.6542">
        <ele>294.6</ele>
        <time>2024-04-06T11:35:15Z</time>
      </trkpt>
      <trkpt lat="49.87131" lon="4.6543">
        <ele>294.4</ele>
        <time>2024-04-06T11:35:16Z</time>
      </trkpt>
      <trkpt lat="49.87126" lon="4.65441">
        <ele>294.2</ele>
        <time>2024-04-06T11:35:17Z</time>
      </trkpt>
      <trkpt lat="49.87122" lon="4.65451">
        <ele>293.8</ele>
        <time>2024-04-06T11:35:18Z</time>
      </trkpt>
      <trkpt lat="49.87118" lon="4.65462">
        <ele>293.6</ele>
        <time>2024-04-06T11:35:19Z</time>
      </trkpt>
      <trkpt lat="49.87113" lon="4.65472">
        <ele>293.6</ele>
        <time>2024-04-06T11:35:20Z</time>
      </trkpt>
      <trkpt lat="49.87109" lon="4.65483">
        <ele>293.2</ele>
        <time>2024-04-06T11:35:21Z</time>
      </trkpt>
      <trkpt lat="49.87104" lon="4.65493">
        <ele>293</ele>
        <time>2024-04-06T11:35:22Z</time>
      </trkpt>
      <trkpt lat="49.871" lon="4.65503">
        <ele>292.8</ele>
        <time>2024-04-06T11:35:23Z</time>
      </trkpt>
      <trkpt lat="49.87095" lon="4.65513">
        <ele>292.8</ele>
        <time>2024-04-06T11:35:24Z</time>
      </trkpt>
      <trkpt lat="49.8709" lon="4.65523">
        <ele>292.6</ele>
        <time>2024-04-06T11:35:25Z</time>
      </trkpt>
      <trkpt lat="49.87085" lon="4.65533">
        <ele>292.2</ele>
        <time>2024-04-06T11:35:26Z</time>
      </trkpt>
      <trkpt lat="49.8708" lon="4.65542">
        <ele>292.2</ele>
        <time>2024-04-06T11:35:27Z</time>
      </trkpt>
      <trkpt lat="49.87075" lon="4.65551">
        <ele>292</ele>
        <time>2024-04-06T11:35:28Z</time>
      </trkpt>
      <trkpt lat="49.87069" lon="4.65559">
        <ele>292.2</ele>
        <time>2024-04-06T11:35:29Z</time>
      </trkpt>
      <trkpt lat="49.87063" lon="4.65568">
        <ele>292</ele>
        <time>2024-04-06T11:35:30Z</time>
      </trkpt>
      <trkpt lat="49.87057" lon="4.65575">
        <ele>292</ele>
        <time>2024-04-06T11:35:31Z</time>
      </trkpt>
      <trkpt lat="49.8705" lon="4.65582">
        <ele>291.8</ele>
        <time>2024-04-06T11:35:32Z</time>
      </trkpt>
      <trkpt lat="49.87043" lon="4.65589">
        <ele>291.4</ele>
        <time>2024-04-06T11:35:33Z</time>
      </trkpt>
      <trkpt lat="49.87035" lon="4.65595">
        <ele>291</ele>
        <time>2024-04-06T11:35:34Z</time>
      </trkpt>
      <trkpt lat="49.87028" lon="4.65601">
        <ele>290.8</ele>
        <time>2024-04-06T11:35:35Z</time>
      </trkpt>
      <trkpt lat="49.8702" lon="4.65606">
        <ele>290.8</ele>
        <time>2024-04-06T11:35:36Z</time>
      </trkpt>
      <trkpt lat="49.87012" lon="4.6561">
        <ele>290.6</ele>
        <time>2024-04-06T11:35:37Z</time>
      </trkpt>
      <trkpt lat="49.87004" lon="4.65615">
        <ele>290.6</ele>
        <time>2024-04-06T11:35:38Z</time>
      </trkpt>
      <trkpt lat="49.86997" lon="4.65619">
        <ele>290.4</ele>
        <time>2024-04-06T11:35:39Z</time>
      </trkpt>
      <trkpt lat="49.86989" lon="4.65624">
        <ele>290.4</ele>
        <time>2024-04-06T11:35:40Z</time>
      </trkpt>
      <trkpt lat="49.86981" lon="4.65628">
        <ele>290.4</ele>
        <time>2024-04-06T11:35:41Z</time>
      </trkpt>
      <trkpt lat="49.86974" lon="4.65633">
        <ele>290.4</ele>
        <time>2024-04-06T11:35:42Z</time>
      </trkpt>
      <trkpt lat="49.86966" lon="4.65636">
        <ele>290.2</ele>
        <time>2024-04-06T11:35:43Z</time>
      </trkpt>
      <trkpt lat="49.86958" lon="4.65641">
        <ele>290</ele>
        <time>2024-04-06T11:35:44Z</time>
      </trkpt>
      <trkpt lat="49.86951" lon="4.65645">
        <ele>290</ele>
        <time>2024-04-06T11:35:45Z</time>
      </trkpt>
      <trkpt lat="49.86943" lon="4.65649">
        <ele>289.8</ele>
        <time>2024-04-06T11:35:46Z</time>
      </trkpt>
      <trkpt lat="49.86936" lon="4.65653">
        <ele>289.4</ele>
        <time>2024-04-06T11:35:47Z</time>
      </trkpt>
      <trkpt lat="49.86929" lon="4.65656">
        <ele>289.2</ele>
        <time>2024-04-06T11:35:48Z</time>
      </trkpt>
      <trkpt lat="49.86922" lon="4.6566">
        <ele>289.2</ele>
        <time>2024-04-06T11:35:49Z</time>
      </trkpt>
      <trkpt lat="49.86915" lon="4.65664">
        <ele>289</ele>
        <time>2024-04-06T11:35:50Z</time>
      </trkpt>
      <trkpt lat="49.86909" lon="4.65667">
        <ele>288.8</ele>
        <time>2024-04-06T11:35:51Z</time>
      </trkpt>
      <trkpt lat="49.86902" lon="4.65671">
        <ele>288.8</ele>
        <time>2024-04-06T11:35:52Z</time>
      </trkpt>
      <trkpt lat="49.86896" lon="4.65674">
        <ele>288.8</ele>
        <time>2024-04-06T11:35:53Z</time>
      </trkpt>
      <trkpt lat="49.8689" lon="4.65678">
        <ele>288.6</ele>
        <time>2024-04-06T11:35:54Z</time>
      </trkpt>
      <trkpt lat="49.86884" lon="4.65682">
        <ele>288.4</ele>
        <time>2024-04-06T11:35:55Z</time>
      </trkpt>
      <trkpt lat="49.86878" lon="4.65685">
        <ele>288.6</ele>
        <time>2024-04-06T11:35:56Z</time>
      </trkpt>
      <trkpt lat="49.86872" lon="4.65689">
        <ele>288.4</ele>
        <time>2024-04-06T11:35:57Z</time>
      </trkpt>
      <trkpt lat="49.86866" lon="4.65692">
        <ele>288.4</ele>
        <time>2024-04-06T11:35:58Z</time>
      </trkpt>
      <trkpt lat="49.86859" lon="4.65696">
        <ele>288.4</ele>
        <time>2024-04-06T11:35:59Z</time>
      </trkpt>
      <trkpt lat="49.86853" lon="4.657">
        <ele>288.4</ele>
        <time>2024-04-06T11:36:00Z</time>
      </trkpt>
      <trkpt lat="49.86846" lon="4.65704">
        <ele>288.4</ele>
        <time>2024-04-06T11:36:01Z</time>
      </trkpt>
      <trkpt lat="49.86839" lon="4.65707">
        <ele>288.4</ele>
        <time>2024-04-06T11:36:02Z</time>
      </trkpt>
      <trkpt lat="49.86832" lon="4.65711">
        <ele>288.8</ele>
        <time>2024-04-06T11:36:03Z</time>
      </trkpt>
      <trkpt lat="49.86825" lon="4.65714">
        <ele>289</ele>
        <time>2024-04-06T11:36:04Z</time>
      </trkpt>
      <trkpt lat="49.86818" lon="4.65718">
        <ele>289</ele>
        <time>2024-04-06T11:36:05Z</time>
      </trkpt>
      <trkpt lat="49.86811" lon="4.65722">
        <ele>289</ele>
        <time>2024-04-06T11:36:06Z</time>
      </trkpt>
      <trkpt lat="49.86804" lon="4.65726">
        <ele>289</ele>
        <time>2024-04-06T11:36:07Z</time>
      </trkpt>
      <trkpt lat="49.86796" lon="4.6573">
        <ele>289.2</ele>
        <time>2024-04-06T11:36:08Z</time>
      </trkpt>
      <trkpt lat="49.86789" lon="4.65734">
        <ele>289.2</ele>
        <time>2024-04-06T11:36:09Z</time>
      </trkpt>
      <trkpt lat="49.86782" lon="4.65739">
        <ele>289.4</ele>
        <time>2024-04-06T11:36:10Z</time>
      </trkpt>
      <trkpt lat="49.86774" lon="4.65743">
        <ele>289.4</ele>
        <time>2024-04-06T11:36:11Z</time>
      </trkpt>
      <trkpt lat="49.86766" lon="4.65747">
        <ele>289.6</ele>
        <time>2024-04-06T11:36:12Z</time>
      </trkpt>
      <trkpt lat="49.86759" lon="4.65751">
        <ele>289.6</ele>
        <time>2024-04-06T11:36:13Z</time>
      </trkpt>
      <trkpt lat="49.86751" lon="4.65755">
        <ele>289.6</ele>
        <time>2024-04-06T11:36:14Z</time>
      </trkpt>
      <trkpt lat="49.86743" lon="4.65759">
        <ele>289.4</ele>
        <time>2024-04-06T11:36:15Z</time>
      </trkpt>
      <trkpt lat="49.86736" lon="4.65763">
        <ele>289.4</ele>
        <time>2024-04-06T11:36:16Z</time>
      </trkpt>
      <trkpt lat="49.86728" lon="4.65768">
        <ele>289.2</ele>
        <time>2024-04-06T11:36:17Z</time>
      </trkpt>
      <trkpt lat="49.8672" lon="4.65772">
        <ele>289</ele>
        <time>2024-04-06T11:36:18Z</time>
      </trkpt>
      <trkpt lat="49.86712" lon="4.65776">
        <ele>288.6</ele>
        <time>2024-04-06T11:36:19Z</time>
      </trkpt>
      <trkpt lat="49.86704" lon="4.6578">
        <ele>288.4</ele>
        <time>2024-04-06T11:36:20Z</time>
      </trkpt>
      <trkpt lat="49.86696" lon="4.65785">
        <ele>288.4</ele>
        <time>2024-04-06T11:36:21Z</time>
      </trkpt>
      <trkpt lat="49.86689" lon="4.65789">
        <ele>288.2</ele>
        <time>2024-04-06T11:36:22Z</time>
      </trkpt>
      <trkpt lat="49.8668" lon="4.65794">
        <ele>287.8</ele>
        <time>2024-04-06T11:36:23Z</time>
      </trkpt>
      <trkpt lat="49.86672" lon="4.65799">
        <ele>287.8</ele>
        <time>2024-04-06T11:36:24Z</time>
      </trkpt>
      <trkpt lat="49.86664" lon="4.65803">
        <ele>287.6</ele>
        <time>2024-04-06T11:36:25Z</time>
      </trkpt>
      <trkpt lat="49.86656" lon="4.65808">
        <ele>287</ele>
        <time>2024-04-06T11:36:26Z</time>
      </trkpt>
      <trkpt lat="49.86647" lon="4.65813">
        <ele>286.8</ele>
        <time>2024-04-06T11:36:27Z</time>
      </trkpt>
      <trkpt lat="49.86639" lon="4.65818">
        <ele>286.2</ele>
        <time>2024-04-06T11:36:28Z</time>
      </trkpt>
      <trkpt lat="49.86631" lon="4.65823">
        <ele>286.2</ele>
        <time>2024-04-06T11:36:29Z</time>
      </trkpt>
      <trkpt lat="49.86623" lon="4.65828">
        <ele>285.4</ele>
        <time>2024-04-06T11:36:30Z</time>
      </trkpt>
      <trkpt lat="49.86615" lon="4.65833">
        <ele>285.4</ele>
        <time>2024-04-06T11:36:31Z</time>
      </trkpt>
      <trkpt lat="49.86607" lon="4.65837">
        <ele>285.2</ele>
        <time>2024-04-06T11:36:32Z</time>
      </trkpt>
      <trkpt lat="49.86599" lon="4.65843">
        <ele>285.2</ele>
        <time>2024-04-06T11:36:33Z</time>
      </trkpt>
      <trkpt lat="49.86591" lon="4.65848">
        <ele>285</ele>
        <time>2024-04-06T11:36:34Z</time>
      </trkpt>
      <trkpt lat="49.86584" lon="4.65854">
        <ele>284.6</ele>
        <time>2024-04-06T11:36:35Z</time>
      </trkpt>
      <trkpt lat="49.86575" lon="4.6586">
        <ele>284.2</ele>
        <time>2024-04-06T11:36:36Z</time>
      </trkpt>
      <trkpt lat="49.86567" lon="4.65866">
        <ele>283.4</ele>
        <time>2024-04-06T11:36:37Z</time>
      </trkpt>
      <trkpt lat="49.8656" lon="4.65873">
        <ele>282.6</ele>
        <time>2024-04-06T11:36:38Z</time>
      </trkpt>
      <trkpt lat="49.86551" lon="4.6588">
        <ele>282.2</ele>
        <time>2024-04-06T11:36:39Z</time>
      </trkpt>
      <trkpt lat="49.86543" lon="4.65887">
        <ele>282</ele>
        <time>2024-04-06T11:36:40Z</time>
      </trkpt>
      <trkpt lat="49.86534" lon="4.65894">
        <ele>281.6</ele>
        <time>2024-04-06T11:36:41Z</time>
      </trkpt>
      <trkpt lat="49.86526" lon="4.65901">
        <ele>281</ele>
        <time>2024-04-06T11:36:42Z</time>
      </trkpt>
      <trkpt lat="49.86517" lon="4.65908">
        <ele>280.6</ele>
        <time>2024-04-06T11:36:43Z</time>
      </trkpt>
      <trkpt lat="49.86508" lon="4.65916">
        <ele>280</ele>
        <time>2024-04-06T11:36:44Z</time>
      </trkpt>
      <trkpt lat="49.86499" lon="4.65923">
        <ele>279</ele>
        <time>2024-04-06T11:36:45Z</time>
      </trkpt>
      <trkpt lat="49.8649" lon="4.6593">
        <ele>278</ele>
        <time>2024-04-06T11:36:46Z</time>
      </trkpt>
      <trkpt lat="49.86481" lon="4.65937">
        <ele>277.8</ele>
        <time>2024-04-06T11:36:47Z</time>
      </trkpt>
      <trkpt lat="49.86472" lon="4.65945">
        <ele>277.4</ele>
        <time>2024-04-06T11:36:48Z</time>
      </trkpt>
      <trkpt lat="49.86462" lon="4.65952">
        <ele>276.8</ele>
        <time>2024-04-06T11:36:49Z</time>
      </trkpt>
      <trkpt lat="49.86453" lon="4.65959">
        <ele>276.6</ele>
        <time>2024-04-06T11:36:50Z</time>
      </trkpt>
      <trkpt lat="49.86444" lon="4.65966">
        <ele>276.4</ele>
        <time>2024-04-06T11:36:51Z</time>
      </trkpt>
      <trkpt lat="49.86435" lon="4.65973">
        <ele>276</ele>
        <time>2024-04-06T11:36:52Z</time>
      </trkpt>
      <trkpt lat="49.86426" lon="4.65981">
        <ele>275.6</ele>
        <time>2024-04-06T11:36:53Z</time>
      </trkpt>
      <trkpt lat="49.86417" lon="4.65988">
        <ele>275.2</ele>
        <time>2024-04-06T11:36:54Z</time>
      </trkpt>
      <trkpt lat="49.86408" lon="4.65995">
        <ele>274.6</ele>
        <time>2024-04-06T11:36:55Z</time>
      </trkpt>
      <trkpt lat="49.86399" lon="4.66001">
        <ele>274</ele>
        <time>2024-04-06T11:36:56Z</time>
      </trkpt>
      <trkpt lat="49.8639" lon="4.66006">
        <ele>273.2</ele>
        <time>2024-04-06T11:36:57Z</time>
      </trkpt>
      <trkpt lat="49.86381" lon="4.6601">
        <ele>272.4</ele>
        <time>2024-04-06T11:36:58Z</time>
      </trkpt>
      <trkpt lat="49.86371" lon="4.66014">
        <ele>271.2</ele>
        <time>2024-04-06T11:36:59Z</time>
      </trkpt>
      <trkpt lat="49.86362" lon="4.66015">
        <ele>269.8</ele>
        <time>2024-04-06T11:37:00Z</time>
      </trkpt>
      <trkpt lat="49.86353" lon="4.66016">
        <ele>268.6</ele>
        <time>2024-04-06T11:37:01Z</time>
      </trkpt>
      <trkpt lat="49.86343" lon="4.66015">
        <ele>268</ele>
        <time>2024-04-06T11:37:02Z</time>
      </trkpt>
      <trkpt lat="49.86334" lon="4.66014">
        <ele>267.8</ele>
        <time>2024-04-06T11:37:03Z</time>
      </trkpt>
      <trkpt lat="49.86324" lon="4.66011">
        <ele>266.6</ele>
        <time>2024-04-06T11:37:04Z</time>
      </trkpt>
      <trkpt lat="49.86315" lon="4.66007">
        <ele>266.6</ele>
        <time>2024-04-06T11:37:05Z</time>
      </trkpt>
      <trkpt lat="49.86306" lon="4.66002">
        <ele>265.8</ele>
        <time>2024-04-06T11:37:06Z</time>
      </trkpt>
      <trkpt lat="49.86297" lon="4.65996">
        <ele>264.8</ele>
        <time>2024-04-06T11:37:07Z</time>
      </trkpt>
      <trkpt lat="49.86288" lon="4.6599">
        <ele>264.2</ele>
        <time>2024-04-06T11:37:08Z</time>
      </trkpt>
      <trkpt lat="49.8628" lon="4.65982">
        <ele>264.2</ele>
        <time>2024-04-06T11:37:09Z</time>
      </trkpt>
      <trkpt lat="49.86272" lon="4.65975">
        <ele>263.6</ele>
        <time>2024-04-06T11:37:10Z</time>
      </trkpt>
      <trkpt lat="49.86264" lon="4.65967">
        <ele>263.2</ele>
        <time>2024-04-06T11:37:11Z</time>
      </trkpt>
      <trkpt lat="49.86256" lon="4.65959">
        <ele>263</ele>
        <time>2024-04-06T11:37:12Z</time>
      </trkpt>
      <trkpt lat="49.86248" lon="4.65952">
        <ele>262.8</ele>
        <time>2024-04-06T11:37:13Z</time>
      </trkpt>
      <trkpt lat="49.86239" lon="4.65945">
        <ele>262.8</ele>
        <time>2024-04-06T11:37:14Z</time>
      </trkpt>
      <trkpt lat="49.8623" lon="4.6594">
        <ele>262.4</ele>
        <time>2024-04-06T11:37:15Z</time>
      </trkpt>
      <trkpt lat="49.86221" lon="4.65936">
        <ele>262.4</ele>
        <time>2024-04-06T11:37:16Z</time>
      </trkpt>
      <trkpt lat="49.86212" lon="4.65934">
        <ele>262</ele>
        <time>2024-04-06T11:37:17Z</time>
      </trkpt>
      <trkpt lat="49.86202" lon="4.65933">
        <ele>261.6</ele>
        <time>2024-04-06T11:37:18Z</time>
      </trkpt>
      <trkpt lat="49.86193" lon="4.65933">
        <ele>261</ele>
        <time>2024-04-06T11:37:19Z</time>
      </trkpt>
      <trkpt lat="49.86183" lon="4.65936">
        <ele>260.8</ele>
        <time>2024-04-06T11:37:20Z</time>
      </trkpt>
      <trkpt lat="49.86174" lon="4.65941">
        <ele>260.6</ele>
        <time>2024-04-06T11:37:21Z</time>
      </trkpt>
      <trkpt lat="49.86165" lon="4.65947">
        <ele>260.2</ele>
        <time>2024-04-06T11:37:22Z</time>
      </trkpt>
      <trkpt lat="49.86156" lon="4.65954">
        <ele>260</ele>
        <time>2024-04-06T11:37:23Z</time>
      </trkpt>
      <trkpt lat="49.86148" lon="4.65961">
        <ele>260.2</ele>
        <time>2024-04-06T11:37:24Z</time>
      </trkpt>
      <trkpt lat="49.86139" lon="4.6597">
        <ele>259.8</ele>
        <time>2024-04-06T11:37:25Z</time>
      </trkpt>
      <trkpt lat="49.86131" lon="4.65979">
        <ele>259.2</ele>
        <time>2024-04-06T11:37:26Z</time>
      </trkpt>
      <trkpt lat="49.86123" lon="4.65987">
        <ele>259</ele>
        <time>2024-04-06T11:37:27Z</time>
      </trkpt>
      <trkpt lat="49.86116" lon="4.65996">
        <ele>258.6</ele>
        <time>2024-04-06T11:37:28Z</time>
      </trkpt>
      <trkpt lat="49.86108" lon="4.66005">
        <ele>258.6</ele>
        <time>2024-04-06T11:37:29Z</time>
      </trkpt>
      <trkpt lat="49.86101" lon="4.66013">
        <ele>258</ele>
        <time>2024-04-06T11:37:30Z</time>
      </trkpt>
      <trkpt lat="49.86094" lon="4.66021">
        <ele>256.8</ele>
        <time>2024-04-06T11:37:31Z</time>
      </trkpt>
      <trkpt lat="49.86086" lon="4.66029">
        <ele>255.4</ele>
        <time>2024-04-06T11:37:32Z</time>
      </trkpt>
      <trkpt lat="49.86079" lon="4.66036">
        <ele>254.6</ele>
        <time>2024-04-06T11:37:33Z</time>
      </trkpt>
      <trkpt lat="49.86072" lon="4.66044">
        <ele>254.4</ele>
        <time>2024-04-06T11:37:34Z</time>
      </trkpt>
      <trkpt lat="49.86066" lon="4.66052">
        <ele>254.2</ele>
        <time>2024-04-06T11:37:35Z</time>
      </trkpt>
      <trkpt lat="49.86059" lon="4.6606">
        <ele>254.2</ele>
        <time>2024-04-06T11:37:36Z</time>
      </trkpt>
      <trkpt lat="49.86052" lon="4.66067">
        <ele>254.2</ele>
        <time>2024-04-06T11:37:37Z</time>
      </trkpt>
      <trkpt lat="49.86046" lon="4.66074">
        <ele>254.2</ele>
        <time>2024-04-06T11:37:38Z</time>
      </trkpt>
      <trkpt lat="49.86039" lon="4.6608">
        <ele>254.2</ele>
        <time>2024-04-06T11:37:39Z</time>
      </trkpt>
      <trkpt lat="49.86033" lon="4.66087">
        <ele>254.2</ele>
        <time>2024-04-06T11:37:40Z</time>
      </trkpt>
      <trkpt lat="49.86027" lon="4.66093">
        <ele>254.2</ele>
        <time>2024-04-06T11:37:41Z</time>
      </trkpt>
      <trkpt lat="49.8602" lon="4.66099">
        <ele>254</ele>
        <time>2024-04-06T11:37:42Z</time>
      </trkpt>
      <trkpt lat="49.86013" lon="4.66103">
        <ele>254.2</ele>
        <time>2024-04-06T11:37:43Z</time>
      </trkpt>
      <trkpt lat="49.86006" lon="4.66105">
        <ele>254.4</ele>
        <time>2024-04-06T11:37:44Z</time>
      </trkpt>
      <trkpt lat="49.85998" lon="4.66104">
        <ele>254.6</ele>
        <time>2024-04-06T11:37:45Z</time>
      </trkpt>
      <trkpt lat="49.85991" lon="4.66101">
        <ele>254.8</ele>
        <time>2024-04-06T11:37:46Z</time>
      </trkpt>
      <trkpt lat="49.85984" lon="4.66097">
        <ele>255</ele>
        <time>2024-04-06T11:37:47Z</time>
      </trkpt>
      <trkpt lat="49.85977" lon="4.66093">
        <ele>255</ele>
        <time>2024-04-06T11:37:48Z</time>
      </trkpt>
      <trkpt lat="49.8597" lon="4.66089">
        <ele>255.2</ele>
        <time>2024-04-06T11:37:49Z</time>
      </trkpt>
      <trkpt lat="49.85964" lon="4.66085">
        <ele>255.2</ele>
        <time>2024-04-06T11:37:50Z</time>
      </trkpt>
      <trkpt lat="49.85958" lon="4.66081">
        <ele>255.2</ele>
        <time>2024-04-06T11:37:51Z</time>
      </trkpt>
      <trkpt lat="49.85951" lon="4.66078">
        <ele>255.2</ele>
        <time>2024-04-06T11:37:52Z</time>
      </trkpt>
      <trkpt lat="49.85946" lon="4.66074">
        <ele>256</ele>
        <time>2024-04-06T11:37:53Z</time>
      </trkpt>
      <trkpt lat="49.8594" lon="4.66069">
        <ele>256</ele>
        <time>2024-04-06T11:37:54Z</time>
      </trkpt>
      <trkpt lat="49.85935" lon="4.66064">
        <ele>256.2</ele>
        <time>2024-04-06T11:37:55Z</time>
      </trkpt>
      <trkpt lat="49.85931" lon="4.66057">
        <ele>256.2</ele>
        <time>2024-04-06T11:37:56Z</time>
      </trkpt>
      <trkpt lat="49.85926" lon="4.66049">
        <ele>256.4</ele>
        <time>2024-04-06T11:37:57Z</time>
      </trkpt>
      <trkpt lat="49.85922" lon="4.66041">
        <ele>256.4</ele>
        <time>2024-04-06T11:37:58Z</time>
      </trkpt>
      <trkpt lat="49.85917" lon="4.66033">
        <ele>256.6</ele>
        <time>2024-04-06T11:37:59Z</time>
      </trkpt>
      <trkpt lat="49.85912" lon="4.66023">
        <ele>256.6</ele>
        <time>2024-04-06T11:38:00Z</time>
      </trkpt>
      <trkpt lat="49.85907" lon="4.66014">
        <ele>256.6</ele>
        <time>2024-04-06T11:38:01Z</time>
      </trkpt>
      <trkpt lat="49.85901" lon="4.66004">
        <ele>256.6</ele>
        <time>2024-04-06T11:38:02Z</time>
      </trkpt>
      <trkpt lat="49.85895" lon="4.65994">
        <ele>256.6</ele>
        <time>2024-04-06T11:38:03Z</time>
      </trkpt>
      <trkpt lat="49.85889" lon="4.65985">
        <ele>256.6</ele>
        <time>2024-04-06T11:38:04Z</time>
      </trkpt>
      <trkpt lat="49.85882" lon="4.65976">
        <ele>256.6</ele>
        <time>2024-04-06T11:38:05Z</time>
      </trkpt>
      <trkpt lat="49.85875" lon="4.65967">
        <ele>256.6</ele>
        <time>2024-04-06T11:38:06Z</time>
      </trkpt>
      <trkpt lat="49.85869" lon="4.65958">
        <ele>256.4</ele>
        <time>2024-04-06T11:38:07Z</time>
      </trkpt>
      <trkpt lat="49.85863" lon="4.6595">
        <ele>256.4</ele>
        <time>2024-04-06T11:38:08Z</time>
      </trkpt>
      <trkpt lat="49.85856" lon="4.65942">
        <ele>256.4</ele>
        <time>2024-04-06T11:38:09Z</time>
      </trkpt>
      <trkpt lat="49.8585" lon="4.65934">
        <ele>255.8</ele>
        <time>2024-04-06T11:38:10Z</time>
      </trkpt>
      <trkpt lat="49.85844" lon="4.65926">
        <ele>255.2</ele>
        <time>2024-04-06T11:38:11Z</time>
      </trkpt>
      <trkpt lat="49.85837" lon="4.65918">
        <ele>254.8</ele>
        <time>2024-04-06T11:38:12Z</time>
      </trkpt>
      <trkpt lat="49.8583" lon="4.65912">
        <ele>254.8</ele>
        <time>2024-04-06T11:38:13Z</time>
      </trkpt>
      <trkpt lat="49.85823" lon="4.65905">
        <ele>254.6</ele>
        <time>2024-04-06T11:38:14Z</time>
      </trkpt>
      <trkpt lat="49.85816" lon="4.65899">
        <ele>254.6</ele>
        <time>2024-04-06T11:38:15Z</time>
      </trkpt>
      <trkpt lat="49.85809" lon="4.65893">
        <ele>254.6</ele>
        <time>2024-04-06T11:38:16Z</time>
      </trkpt>
      <trkpt lat="49.85802" lon="4.65888">
        <ele>254.6</ele>
        <time>2024-04-06T11:38:17Z</time>
      </trkpt>
      <trkpt lat="49.85795" lon="4.65882">
        <ele>254.6</ele>
        <time>2024-04-06T11:38:18Z</time>
      </trkpt>
      <trkpt lat="49.85788" lon="4.65877">
        <ele>254.2</ele>
        <time>2024-04-06T11:38:19Z</time>
      </trkpt>
      <trkpt lat="49.8578" lon="4.65872">
        <ele>254.4</ele>
        <time>2024-04-06T11:38:20Z</time>
      </trkpt>
      <trkpt lat="49.85773" lon="4.65866">
        <ele>254.4</ele>
        <time>2024-04-06T11:38:21Z</time>
      </trkpt>
      <trkpt lat="49.85766" lon="4.65861">
        <ele>254</ele>
        <time>2024-04-06T11:38:22Z</time>
      </trkpt>
      <trkpt lat="49.85758" lon="4.65855">
        <ele>254.2</ele>
        <time>2024-04-06T11:38:23Z</time>
      </trkpt>
      <trkpt lat="49.8575" lon="4.65849">
        <ele>254.4</ele>
        <time>2024-04-06T11:38:24Z</time>
      </trkpt>
      <trkpt lat="49.85742" lon="4.65844">
        <ele>254.4</ele>
        <time>2024-04-06T11:38:25Z</time>
      </trkpt>
      <trkpt lat="49.85734" lon="4.65838">
        <ele>254.4</ele>
        <time>2024-04-06T11:38:26Z</time>
      </trkpt>
      <trkpt lat="49.85726" lon="4.65832">
        <ele>254.2</ele>
        <time>2024-04-06T11:38:27Z</time>
      </trkpt>
      <trkpt lat="49.85718" lon="4.65826">
        <ele>254</ele>
        <time>2024-04-06T11:38:28Z</time>
      </trkpt>
      <trkpt lat="49.8571" lon="4.6582">
        <ele>254.2</ele>
        <time>2024-04-06T11:38:29Z</time>
      </trkpt>
      <trkpt lat="49.85702" lon="4.65814">
        <ele>254.2</ele>
        <time>2024-04-06T11:38:30Z</time>
      </trkpt>
      <trkpt lat="49.85694" lon="4.65808">
        <ele>254.2</ele>
        <time>2024-04-06T11:38:31Z</time>
      </trkpt>
      <trkpt lat="49.85686" lon="4.65803">
        <ele>254</ele>
        <time>2024-04-06T11:38:32Z</time>
      </trkpt>
      <trkpt lat="49.85679" lon="4.65797">
        <ele>253.8</ele>
        <time>2024-04-06T11:38:33Z</time>
      </trkpt>
      <trkpt lat="49.85671" lon="4.65791">
        <ele>253.8</ele>
        <time>2024-04-06T11:38:34Z</time>
      </trkpt>
      <trkpt lat="49.85664" lon="4.65785">
        <ele>253.4</ele>
        <time>2024-04-06T11:38:35Z</time>
      </trkpt>
      <trkpt lat="49.85657" lon="4.65779">
        <ele>253.4</ele>
        <time>2024-04-06T11:38:36Z</time>
      </trkpt>
      <trkpt lat="49.85649" lon="4.65773">
        <ele>253.2</ele>
        <time>2024-04-06T11:38:37Z</time>
      </trkpt>
      <trkpt lat="49.85642" lon="4.65767">
        <ele>253.4</ele>
        <time>2024-04-06T11:38:38Z</time>
      </trkpt>
      <trkpt lat="49.85635" lon="4.65761">
        <ele>253.2</ele>
        <time>2024-04-06T11:38:39Z</time>
      </trkpt>
      <trkpt lat="49.85627" lon="4.65755">
        <ele>253</ele>
        <time>2024-04-06T11:38:40Z</time>
      </trkpt>
      <trkpt lat="49.8562" lon="4.65748">
        <ele>253</ele>
        <time>2024-04-06T11:38:41Z</time>
      </trkpt>
      <trkpt lat="49.85613" lon="4.65742">
        <ele>252.8</ele>
        <time>2024-04-06T11:38:42Z</time>
      </trkpt>
      <trkpt lat="49.85606" lon="4.65736">
        <ele>252.8</ele>
        <time>2024-04-06T11:38:43Z</time>
      </trkpt>
      <trkpt lat="49.85599" lon="4.65729">
        <ele>252.8</ele>
        <time>2024-04-06T11:38:44Z</time>
      </trkpt>
      <trkpt lat="49.85592" lon="4.65723">
        <ele>252.8</ele>
        <time>2024-04-06T11:38:45Z</time>
      </trkpt>
      <trkpt lat="49.85585" lon="4.65716">
        <ele>252.8</ele>
        <time>2024-04-06T11:38:46Z</time>
      </trkpt>
      <trkpt lat="49.85578" lon="4.65709">
        <ele>252.4</ele>
        <time>2024-04-06T11:38:47Z</time>
      </trkpt>
      <trkpt lat="49.85571" lon="4.65702">
        <ele>252.4</ele>
        <time>2024-04-06T11:38:48Z</time>
      </trkpt>
      <trkpt lat="49.85564" lon="4.65696">
        <ele>252.4</ele>
        <time>2024-04-06T11:38:49Z</time>
      </trkpt>
      <trkpt lat="49.85557" lon="4.65689">
        <ele>252.4</ele>
        <time>2024-04-06T11:38:50Z</time>
      </trkpt>
      <trkpt lat="49.8555" lon="4.65682">
        <ele>252.4</ele>
        <time>2024-04-06T11:38:51Z</time>
      </trkpt>
      <trkpt lat="49.85543" lon="4.65675">
        <ele>252.6</ele>
        <time>2024-04-06T11:38:52Z</time>
      </trkpt>
      <trkpt lat="49.85537" lon="4.65668">
        <ele>252.6</ele>
        <time>2024-04-06T11:38:53Z</time>
      </trkpt>
      <trkpt lat="49.85531" lon="4.65661">
        <ele>252.6</ele>
        <time>2024-04-06T11:38:54Z</time>
      </trkpt>
      <trkpt lat="49.85524" lon="4.65654">
        <ele>252.4</ele>
        <time>2024-04-06T11:38:55Z</time>
      </trkpt>
      <trkpt lat="49.85518" lon="4.65647">
        <ele>252.4</ele>
        <time>2024-04-06T11:38:56Z</time>
      </trkpt>
      <trkpt lat="49.85511" lon="4.65639">
        <ele>252.4</ele>
        <time>2024-04-06T11:38:57Z</time>
      </trkpt>
      <trkpt lat="49.85505" lon="4.65631">
        <ele>252.2</ele>
        <time>2024-04-06T11:38:58Z</time>
      </trkpt>
      <trkpt lat="49.85498" lon="4.65624">
        <ele>252.2</ele>
        <time>2024-04-06T11:38:59Z</time>
      </trkpt>
      <trkpt lat="49.85492" lon="4.65616">
        <ele>252.2</ele>
        <time>2024-04-06T11:39:00Z</time>
      </trkpt>
      <trkpt lat="49.85486" lon="4.65608">
        <ele>252.2</ele>
        <time>2024-04-06T11:39:01Z</time>
      </trkpt>
      <trkpt lat="49.8548" lon="4.65601">
        <ele>252.2</ele>
        <time>2024-04-06T11:39:02Z</time>
      </trkpt>
      <trkpt lat="49.85474" lon="4.65593">
        <ele>252.2</ele>
        <time>2024-04-06T11:39:03Z</time>
      </trkpt>
      <trkpt lat="49.85467" lon="4.65585">
        <ele>252</ele>
        <time>2024-04-06T11:39:04Z</time>
      </trkpt>
      <trkpt lat="49.85461" lon="4.65576">
        <ele>252.2</ele>
        <time>2024-04-06T11:39:05Z</time>
      </trkpt>
      <trkpt lat="49.85455" lon="4.65568">
        <ele>252.2</ele>
        <time>2024-04-06T11:39:06Z</time>
      </trkpt>
      <trkpt lat="49.85449" lon="4.65559">
        <ele>252</ele>
        <time>2024-04-06T11:39:07Z</time>
      </trkpt>
      <trkpt lat="49.85443" lon="4.6555">
        <ele>252</ele>
        <time>2024-04-06T11:39:08Z</time>
      </trkpt>
      <trkpt lat="49.85437" lon="4.65541">
        <ele>252</ele>
        <time>2024-04-06T11:39:09Z</time>
      </trkpt>
      <trkpt lat="49.85431" lon="4.65532">
        <ele>252</ele>
        <time>2024-04-06T11:39:10Z</time>
      </trkpt>
      <trkpt lat="49.85425" lon="4.65524">
        <ele>252</ele>
        <time>2024-04-06T11:39:11Z</time>
      </trkpt>
      <trkpt lat="49.85419" lon="4.65515">
        <ele>251.8</ele>
        <time>2024-04-06T11:39:12Z</time>
      </trkpt>
      <trkpt lat="49.85413" lon="4.65507">
        <ele>251.8</ele>
        <time>2024-04-06T11:39:13Z</time>
      </trkpt>
      <trkpt lat="49.85408" lon="4.65498">
        <ele>251.6</ele>
        <time>2024-04-06T11:39:14Z</time>
      </trkpt>
      <trkpt lat="49.85402" lon="4.6549">
        <ele>251.2</ele>
        <time>2024-04-06T11:39:15Z</time>
      </trkpt>
      <trkpt lat="49.85397" lon="4.65481">
        <ele>251.2</ele>
        <time>2024-04-06T11:39:16Z</time>
      </trkpt>
      <trkpt lat="49.85392" lon="4.65473">
        <ele>251.2</ele>
        <time>2024-04-06T11:39:17Z</time>
      </trkpt>
      <trkpt lat="49.85387" lon="4.65465">
        <ele>251.2</ele>
        <time>2024-04-06T11:39:18Z</time>
      </trkpt>
      <trkpt lat="49.85382" lon="4.65458">
        <ele>251.4</ele>
        <time>2024-04-06T11:39:19Z</time>
      </trkpt>
      <trkpt lat="49.85377" lon="4.6545">
        <ele>251.6</ele>
        <time>2024-04-06T11:39:20Z</time>
      </trkpt>
      <trkpt lat="49.85372" lon="4.65443">
        <ele>251.8</ele>
        <time>2024-04-06T11:39:21Z</time>
      </trkpt>
      <trkpt lat="49.85367" lon="4.65435">
        <ele>251.8</ele>
        <time>2024-04-06T11:39:22Z</time>
      </trkpt>
      <trkpt lat="49.85363" lon="4.65427">
        <ele>252</ele>
        <time>2024-04-06T11:39:23Z</time>
      </trkpt>
      <trkpt lat="49.85359" lon="4.6542">
        <ele>251.8</ele>
        <time>2024-04-06T11:39:24Z</time>
      </trkpt>
      <trkpt lat="49.85354" lon="4.65413">
        <ele>251.6</ele>
        <time>2024-04-06T11:39:25Z</time>
      </trkpt>
      <trkpt lat="49.8535" lon="4.65405">
        <ele>251.6</ele>
        <time>2024-04-06T11:39:26Z</time>
      </trkpt>
      <trkpt lat="49.85346" lon="4.65398">
        <ele>251.6</ele>
        <time>2024-04-06T11:39:27Z</time>
      </trkpt>
      <trkpt lat="49.85342" lon="4.6539">
        <ele>251.6</ele>
        <time>2024-04-06T11:39:28Z</time>
      </trkpt>
      <trkpt lat="49.85338" lon="4.65383">
        <ele>251.6</ele>
        <time>2024-04-06T11:39:29Z</time>
      </trkpt>
      <trkpt lat="49.85333" lon="4.65375">
        <ele>251.8</ele>
        <time>2024-04-06T11:39:30Z</time>
      </trkpt>
      <trkpt lat="49.85329" lon="4.65367">
        <ele>251.8</ele>
        <time>2024-04-06T11:39:31Z</time>
      </trkpt>
      <trkpt lat="49.85324" lon="4.65359">
        <ele>252</ele>
        <time>2024-04-06T11:39:32Z</time>
      </trkpt>
      <trkpt lat="49.8532" lon="4.65351">
        <ele>252.4</ele>
        <time>2024-04-06T11:39:33Z</time>
      </trkpt>
      <trkpt lat="49.85316" lon="4.65342">
        <ele>252.6</ele>
        <time>2024-04-06T11:39:34Z</time>
      </trkpt>
      <trkpt lat="49.85312" lon="4.65334">
        <ele>252.8</ele>
        <time>2024-04-06T11:39:35Z</time>
      </trkpt>
      <trkpt lat="49.85308" lon="4.65326">
        <ele>253</ele>
        <time>2024-04-06T11:39:36Z</time>
      </trkpt>
      <trkpt lat="49.85304" lon="4.65317">
        <ele>253</ele>
        <time>2024-04-06T11:39:37Z</time>
      </trkpt>
      <trkpt lat="49.853" lon="4.65309">
        <ele>253.2</ele>
        <time>2024-04-06T11:39:38Z</time>
      </trkpt>
      <trkpt lat="49.85296" lon="4.65301">
        <ele>253.2</ele>
        <time>2024-04-06T11:39:39Z</time>
      </trkpt>
      <trkpt lat="49.85292" lon="4.65293">
        <ele>253.2</ele>
        <time>2024-04-06T11:39:40Z</time>
      </trkpt>
      <trkpt lat="49.85288" lon="4.65285">
        <ele>253.2</ele>
        <time>2024-04-06T11:39:41Z</time>
      </trkpt>
      <trkpt lat="49.85284" lon="4.65276">
        <ele>253.2</ele>
        <time>2024-04-06T11:39:42Z</time>
      </trkpt>
      <trkpt lat="49.8528" lon="4.65268">
        <ele>253.4</ele>
        <time>2024-04-06T11:39:43Z</time>
      </trkpt>
      <trkpt lat="49.85276" lon="4.65259">
        <ele>253.6</ele>
        <time>2024-04-06T11:39:44Z</time>
      </trkpt>
      <trkpt lat="49.85272" lon="4.65251">
        <ele>253.6</ele>
        <time>2024-04-06T11:39:45Z</time>
      </trkpt>
      <trkpt lat="49.85268" lon="4.65242">
        <ele>253.8</ele>
        <time>2024-04-06T11:39:46Z</time>
      </trkpt>
      <trkpt lat="49.85264" lon="4.65233">
        <ele>254</ele>
        <time>2024-04-06T11:39:47Z</time>
      </trkpt>
      <trkpt lat="49.8526" lon="4.65224">
        <ele>254.2</ele>
        <time>2024-04-06T11:39:48Z</time>
      </trkpt>
      <trkpt lat="49.85256" lon="4.65215">
        <ele>254.2</ele>
        <time>2024-04-06T11:39:49Z</time>
      </trkpt>
      <trkpt lat="49.85252" lon="4.65206">
        <ele>254.4</ele>
        <time>2024-04-06T11:39:50Z</time>
      </trkpt>
      <trkpt lat="49.85248" lon="4.65197">
        <ele>254.4</ele>
        <time>2024-04-06T11:39:51Z</time>
      </trkpt>
      <trkpt lat="49.85244" lon="4.65189">
        <ele>254.6</ele>
        <time>2024-04-06T11:39:52Z</time>
      </trkpt>
      <trkpt lat="49.85241" lon="4.6518">
        <ele>254.6</ele>
        <time>2024-04-06T11:39:53Z</time>
      </trkpt>
      <trkpt lat="49.85237" lon="4.65171">
        <ele>254.6</ele>
        <time>2024-04-06T11:39:54Z</time>
      </trkpt>
      <trkpt lat="49.85234" lon="4.65163">
        <ele>254.8</ele>
        <time>2024-04-06T11:39:55Z</time>
      </trkpt>
      <trkpt lat="49.8523" lon="4.65154">
        <ele>254.8</ele>
        <time>2024-04-06T11:39:56Z</time>
      </trkpt>
      <trkpt lat="49.85227" lon="4.65145">
        <ele>255</ele>
        <time>2024-04-06T11:39:57Z</time>
      </trkpt>
      <trkpt lat="49.85224" lon="4.65137">
        <ele>254.8</ele>
        <time>2024-04-06T11:39:58Z</time>
      </trkpt>
      <trkpt lat="49.85221" lon="4.65129">
        <ele>254.8</ele>
        <time>2024-04-06T11:39:59Z</time>
      </trkpt>
      <trkpt lat="49.85218" lon="4.65121">
        <ele>254.8</ele>
        <time>2024-04-06T11:40:00Z</time>
      </trkpt>
      <trkpt lat="49.85215" lon="4.65113">
        <ele>255</ele>
        <time>2024-04-06T11:40:01Z</time>
      </trkpt>
      <trkpt lat="49.85212" lon="4.65105">
        <ele>255</ele>
        <time>2024-04-06T11:40:02Z</time>
      </trkpt>
      <trkpt lat="49.8521" lon="4.65097">
        <ele>255.2</ele>
        <time>2024-04-06T11:40:03Z</time>
      </trkpt>
      <trkpt lat="49.85207" lon="4.65088">
        <ele>255.8</ele>
        <time>2024-04-06T11:40:04Z</time>
      </trkpt>
      <trkpt lat="49.85204" lon="4.6508">
        <ele>256</ele>
        <time>2024-04-06T11:40:05Z</time>
      </trkpt>
      <trkpt lat="49.85201" lon="4.65072">
        <ele>256.6</ele>
        <time>2024-04-06T11:40:06Z</time>
      </trkpt>
      <trkpt lat="49.85199" lon="4.65064">
        <ele>256.8</ele>
        <time>2024-04-06T11:40:07Z</time>
      </trkpt>
      <trkpt lat="49.85196" lon="4.65056">
        <ele>257</ele>
        <time>2024-04-06T11:40:08Z</time>
      </trkpt>
      <trkpt lat="49.85193" lon="4.65047">
        <ele>257</ele>
        <time>2024-04-06T11:40:09Z</time>
      </trkpt>
      <trkpt lat="49.8519" lon="4.65039">
        <ele>257.2</ele>
        <time>2024-04-06T11:40:10Z</time>
      </trkpt>
      <trkpt lat="49.85187" lon="4.6503">
        <ele>257.4</ele>
        <time>2024-04-06T11:40:11Z</time>
      </trkpt>
      <trkpt lat="49.85184" lon="4.65022">
        <ele>257.4</ele>
        <time>2024-04-06T11:40:12Z</time>
      </trkpt>
      <trkpt lat="49.85181" lon="4.65013">
        <ele>257.4</ele>
        <time>2024-04-06T11:40:13Z</time>
      </trkpt>
      <trkpt lat="49.85178" lon="4.65005">
        <ele>257.6</ele>
        <time>2024-04-06T11:40:14Z</time>
      </trkpt>
      <trkpt lat="49.85175" lon="4.64996">
        <ele>257.8</ele>
        <time>2024-04-06T11:40:15Z</time>
      </trkpt>
      <trkpt lat="49.85172" lon="4.64987">
        <ele>257.6</ele>
        <time>2024-04-06T11:40:16Z</time>
      </trkpt>
      <trkpt lat="49.85169" lon="4.64977">
        <ele>257.6</ele>
        <time>2024-04-06T11:40:17Z</time>
      </trkpt>
      <trkpt lat="49.85165" lon="4.64968">
        <ele>258.2</ele>
        <time>2024-04-06T11:40:18Z</time>
      </trkpt>
      <trkpt lat="49.85162" lon="4.64958">
        <ele>258.6</ele>
        <time>2024-04-06T11:40:19Z</time>
      </trkpt>
      <trkpt lat="49.85158" lon="4.64949">
        <ele>258.8</ele>
        <time>2024-04-06T11:40:20Z</time>
      </trkpt>
      <trkpt lat="49.85155" lon="4.64939">
        <ele>258.8</ele>
        <time>2024-04-06T11:40:21Z</time>
      </trkpt>
      <trkpt lat="49.85152" lon="4.6493">
        <ele>259</ele>
        <time>2024-04-06T11:40:22Z</time>
      </trkpt>
      <trkpt lat="49.85148" lon="4.6492">
        <ele>259.2</ele>
        <time>2024-04-06T11:40:23Z</time>
      </trkpt>
      <trkpt lat="49.85145" lon="4.6491">
        <ele>259.2</ele>
        <time>2024-04-06T11:40:24Z</time>
      </trkpt>
      <trkpt lat="49.85142" lon="4.649">
        <ele>259.2</ele>
        <time>2024-04-06T11:40:25Z</time>
      </trkpt>
      <trkpt lat="49.85138" lon="4.64891">
        <ele>259.2</ele>
        <time>2024-04-06T11:40:26Z</time>
      </trkpt>
      <trkpt lat="49.85135" lon="4.64881">
        <ele>259.2</ele>
        <time>2024-04-06T11:40:27Z</time>
      </trkpt>
      <trkpt lat="49.85131" lon="4.64871">
        <ele>259.2</ele>
        <time>2024-04-06T11:40:28Z</time>
      </trkpt>
      <trkpt lat="49.85128" lon="4.64861">
        <ele>259.2</ele>
        <time>2024-04-06T11:40:29Z</time>
      </trkpt>
      <trkpt lat="49.85124" lon="4.64851">
        <ele>259.4</ele>
        <time>2024-04-06T11:40:30Z</time>
      </trkpt>
      <trkpt lat="49.85121" lon="4.6484">
        <ele>259.4</ele>
        <time>2024-04-06T11:40:31Z</time>
      </trkpt>
      <trkpt lat="49.85118" lon="4.6483">
        <ele>259.4</ele>
        <time>2024-04-06T11:40:32Z</time>
      </trkpt>
      <trkpt lat="49.85114" lon="4.6482">
        <ele>259.4</ele>
        <time>2024-04-06T11:40:33Z</time>
      </trkpt>
      <trkpt lat="49.85111" lon="4.64809">
        <ele>259.2</ele>
        <time>2024-04-06T11:40:34Z</time>
      </trkpt>
      <trkpt lat="49.85108" lon="4.64799">
        <ele>259.4</ele>
        <time>2024-04-06T11:40:35Z</time>
      </trkpt>
      <trkpt lat="49.85105" lon="4.64789">
        <ele>259.4</ele>
        <time>2024-04-06T11:40:36Z</time>
      </trkpt>
      <trkpt lat="49.85102" lon="4.64778">
        <ele>259.4</ele>
        <time>2024-04-06T11:40:37Z</time>
      </trkpt>
      <trkpt lat="49.851" lon="4.64768">
        <ele>259.4</ele>
        <time>2024-04-06T11:40:38Z</time>
      </trkpt>
      <trkpt lat="49.85097" lon="4.64757">
        <ele>259.4</ele>
        <time>2024-04-06T11:40:39Z</time>
      </trkpt>
      <trkpt lat="49.85095" lon="4.64747">
        <ele>259.6</ele>
        <time>2024-04-06T11:40:40Z</time>
      </trkpt>
      <trkpt lat="49.85092" lon="4.64736">
        <ele>259.6</ele>
        <time>2024-04-06T11:40:41Z</time>
      </trkpt>
      <trkpt lat="49.8509" lon="4.64725">
        <ele>259.6</ele>
        <time>2024-04-06T11:40:42Z</time>
      </trkpt>
      <trkpt lat="49.85088" lon="4.64714">
        <ele>259.4</ele>
        <time>2024-04-06T11:40:43Z</time>
      </trkpt>
      <trkpt lat="49.85086" lon="4.64703">
        <ele>259.4</ele>
        <time>2024-04-06T11:40:44Z</time>
      </trkpt>
      <trkpt lat="49.85084" lon="4.64691">
        <ele>259.4</ele>
        <time>2024-04-06T11:40:45Z</time>
      </trkpt>
      <trkpt lat="49.85082" lon="4.64679">
        <ele>259.6</ele>
        <time>2024-04-06T11:40:46Z</time>
      </trkpt>
      <trkpt lat="49.85081" lon="4.64668">
        <ele>259.6</ele>
        <time>2024-04-06T11:40:47Z</time>
      </trkpt>
      <trkpt lat="49.85079" lon="4.64655">
        <ele>259.4</ele>
        <time>2024-04-06T11:40:48Z</time>
      </trkpt>
      <trkpt lat="49.85078" lon="4.64643">
        <ele>259.6</ele>
        <time>2024-04-06T11:40:49Z</time>
      </trkpt>
      <trkpt lat="49.85076" lon="4.6463">
        <ele>259.6</ele>
        <time>2024-04-06T11:40:50Z</time>
      </trkpt>
      <trkpt lat="49.85075" lon="4.64618">
        <ele>259.6</ele>
        <time>2024-04-06T11:40:51Z</time>
      </trkpt>
      <trkpt lat="49.85074" lon="4.64605">
        <ele>259.4</ele>
        <time>2024-04-06T11:40:52Z</time>
      </trkpt>
      <trkpt lat="49.85073" lon="4.64593">
        <ele>259.4</ele>
        <time>2024-04-06T11:40:53Z</time>
      </trkpt>
      <trkpt lat="49.85071" lon="4.6458">
        <ele>259.2</ele>
        <time>2024-04-06T11:40:54Z</time>
      </trkpt>
      <trkpt lat="49.85071" lon="4.64568">
        <ele>259.2</ele>
        <time>2024-04-06T11:40:55Z</time>
      </trkpt>
      <trkpt lat="49.8507" lon="4.64556">
        <ele>259.2</ele>
        <time>2024-04-06T11:40:56Z</time>
      </trkpt>
      <trkpt lat="49.8507" lon="4.64543">
        <ele>259</ele>
        <time>2024-04-06T11:40:57Z</time>
      </trkpt>
      <trkpt lat="49.8507" lon="4.6453">
        <ele>258.8</ele>
        <time>2024-04-06T11:40:58Z</time>
      </trkpt>
      <trkpt lat="49.8507" lon="4.64516">
        <ele>258.6</ele>
        <time>2024-04-06T11:40:59Z</time>
      </trkpt>
      <trkpt lat="49.85072" lon="4.64502">
        <ele>258.6</ele>
        <time>2024-04-06T11:41:00Z</time>
      </trkpt>
      <trkpt lat="49.85073" lon="4.64488">
        <ele>258.4</ele>
        <time>2024-04-06T11:41:01Z</time>
      </trkpt>
      <trkpt lat="49.85076" lon="4.64475">
        <ele>258</ele>
        <time>2024-04-06T11:41:02Z</time>
      </trkpt>
      <trkpt lat="49.8508" lon="4.64463">
        <ele>257.8</ele>
        <time>2024-04-06T11:41:03Z</time>
      </trkpt>
      <trkpt lat="49.85086" lon="4.64451">
        <ele>257.2</ele>
        <time>2024-04-06T11:41:04Z</time>
      </trkpt>
      <trkpt lat="49.85092" lon="4.64441">
        <ele>257</ele>
        <time>2024-04-06T11:41:05Z</time>
      </trkpt>
      <trkpt lat="49.85099" lon="4.64432">
        <ele>256.8</ele>
        <time>2024-04-06T11:41:06Z</time>
      </trkpt>
      <trkpt lat="49.85106" lon="4.64421">
        <ele>256.8</ele>
        <time>2024-04-06T11:41:07Z</time>
      </trkpt>
      <trkpt lat="49.85113" lon="4.6441">
        <ele>256.6</ele>
        <time>2024-04-06T11:41:08Z</time>
      </trkpt>
      <trkpt lat="49.85119" lon="4.64399">
        <ele>256.6</ele>
        <time>2024-04-06T11:41:09Z</time>
      </trkpt>
      <trkpt lat="49.85126" lon="4.64386">
        <ele>256.4</ele>
        <time>2024-04-06T11:41:10Z</time>
      </trkpt>
      <trkpt lat="49.85132" lon="4.64373">
        <ele>256.4</ele>
        <time>2024-04-06T11:41:11Z</time>
      </trkpt>
      <trkpt lat="49.85138" lon="4.64359">
        <ele>255.8</ele>
        <time>2024-04-06T11:41:12Z</time>
      </trkpt>
      <trkpt lat="49.85143" lon="4.64345">
        <ele>255.6</ele>
        <time>2024-04-06T11:41:13Z</time>
      </trkpt>
      <trkpt lat="49.85148" lon="4.6433">
        <ele>255.2</ele>
        <time>2024-04-06T11:41:14Z</time>
      </trkpt>
      <trkpt lat="49.85152" lon="4.64314">
        <ele>254.6</ele>
        <time>2024-04-06T11:41:15Z</time>
      </trkpt>
      <trkpt lat="49.85155" lon="4.64299">
        <ele>254</ele>
        <time>2024-04-06T11:41:16Z</time>
      </trkpt>
      <trkpt lat="49.85157" lon="4.64283">
        <ele>253.6</ele>
        <time>2024-04-06T11:41:17Z</time>
      </trkpt>
      <trkpt lat="49.85159" lon="4.64268">
        <ele>253.4</ele>
        <time>2024-04-06T11:41:18Z</time>
      </trkpt>
      <trkpt lat="49.85161" lon="4.64252">
        <ele>252.8</ele>
        <time>2024-04-06T11:41:19Z</time>
      </trkpt>
      <trkpt lat="49.85162" lon="4.64236">
        <ele>252.6</ele>
        <time>2024-04-06T11:41:20Z</time>
      </trkpt>
      <trkpt lat="49.85163" lon="4.6422">
        <ele>252.2</ele>
        <time>2024-04-06T11:41:21Z</time>
      </trkpt>
      <trkpt lat="49.85163" lon="4.64205">
        <ele>252</ele>
        <time>2024-04-06T11:41:22Z</time>
      </trkpt>
      <trkpt lat="49.85163" lon="4.6419">
        <ele>251.8</ele>
        <time>2024-04-06T11:41:23Z</time>
      </trkpt>
      <trkpt lat="49.85163" lon="4.64175">
        <ele>251.2</ele>
        <time>2024-04-06T11:41:24Z</time>
      </trkpt>
      <trkpt lat="49.85163" lon="4.64161">
        <ele>251</ele>
        <time>2024-04-06T11:41:25Z</time>
      </trkpt>
      <trkpt lat="49.85163" lon="4.64146">
        <ele>250.8</ele>
        <time>2024-04-06T11:41:26Z</time>
      </trkpt>
      <trkpt lat="49.85163" lon="4.64133">
        <ele>250.8</ele>
        <time>2024-04-06T11:41:27Z</time>
      </trkpt>
      <trkpt lat="49.85163" lon="4.6412">
        <ele>250.8</ele>
        <time>2024-04-06T11:41:28Z</time>
      </trkpt>
      <trkpt lat="49.85163" lon="4.64107">
        <ele>250.8</ele>
        <time>2024-04-06T11:41:29Z</time>
      </trkpt>
      <trkpt lat="49.85163" lon="4.64094">
        <ele>250.8</ele>
        <time>2024-04-06T11:41:30Z</time>
      </trkpt>
      <trkpt lat="49.85163" lon="4.64082">
        <ele>250.8</ele>
        <time>2024-04-06T11:41:31Z</time>
      </trkpt>
      <trkpt lat="49.85163" lon="4.6407">
        <ele>250.8</ele>
        <time>2024-04-06T11:41:32Z</time>
      </trkpt>
      <trkpt lat="49.85163" lon="4.64058">
        <ele>250.8</ele>
        <time>2024-04-06T11:41:33Z</time>
      </trkpt>
      <trkpt lat="49.85163" lon="4.64047">
        <ele>250.8</ele>
        <time>2024-04-06T11:41:34Z</time>
      </trkpt>
      <trkpt lat="49.85163" lon="4.64035">
        <ele>250.8</ele>
        <time>2024-04-06T11:41:35Z</time>
      </trkpt>
      <trkpt lat="49.85163" lon="4.64024">
        <ele>251</ele>
        <time>2024-04-06T11:41:36Z</time>
      </trkpt>
      <trkpt lat="49.85164" lon="4.64013">
        <ele>251.4</ele>
        <time>2024-04-06T11:41:37Z</time>
      </trkpt>
      <trkpt lat="49.85164" lon="4.64002">
        <ele>251.6</ele>
        <time>2024-04-06T11:41:38Z</time>
      </trkpt>
      <trkpt lat="49.85164" lon="4.63992">
        <ele>251.8</ele>
        <time>2024-04-06T11:41:39Z</time>
      </trkpt>
      <trkpt lat="49.85165" lon="4.63981">
        <ele>252</ele>
        <time>2024-04-06T11:41:40Z</time>
      </trkpt>
      <trkpt lat="49.85165" lon="4.63971">
        <ele>252.2</ele>
        <time>2024-04-06T11:41:41Z</time>
      </trkpt>
      <trkpt lat="49.85165" lon="4.63961">
        <ele>252.2</ele>
        <time>2024-04-06T11:41:42Z</time>
      </trkpt>
      <trkpt lat="49.85165" lon="4.63951">
        <ele>252.4</ele>
        <time>2024-04-06T11:41:43Z</time>
      </trkpt>
      <trkpt lat="49.85166" lon="4.6394">
        <ele>252.2</ele>
        <time>2024-04-06T11:41:44Z</time>
      </trkpt>
      <trkpt lat="49.85166" lon="4.6393">
        <ele>252.6</ele>
        <time>2024-04-06T11:41:45Z</time>
      </trkpt>
      <trkpt lat="49.85166" lon="4.6392">
        <ele>253</ele>
        <time>2024-04-06T11:41:46Z</time>
      </trkpt>
      <trkpt lat="49.85167" lon="4.63911">
        <ele>253.2</ele>
        <time>2024-04-06T11:41:47Z</time>
      </trkpt>
      <trkpt lat="49.85168" lon="4.63902">
        <ele>253.4</ele>
        <time>2024-04-06T11:41:48Z</time>
      </trkpt>
      <trkpt lat="49.85168" lon="4.63893">
        <ele>253.6</ele>
        <time>2024-04-06T11:41:49Z</time>
      </trkpt>
      <trkpt lat="49.85169" lon="4.63883">
        <ele>253.6</ele>
        <time>2024-04-06T11:41:50Z</time>
      </trkpt>
      <trkpt lat="49.85169" lon="4.63873">
        <ele>253.8</ele>
        <time>2024-04-06T11:41:51Z</time>
      </trkpt>
      <trkpt lat="49.85169" lon="4.63864">
        <ele>254</ele>
        <time>2024-04-06T11:41:52Z</time>
      </trkpt>
      <trkpt lat="49.8517" lon="4.63854">
        <ele>254.6</ele>
        <time>2024-04-06T11:41:53Z</time>
      </trkpt>
      <trkpt lat="49.8517" lon="4.63844">
        <ele>255</ele>
        <time>2024-04-06T11:41:54Z</time>
      </trkpt>
      <trkpt lat="49.8517" lon="4.63834">
        <ele>255.2</ele>
        <time>2024-04-06T11:41:55Z</time>
      </trkpt>
      <trkpt lat="49.8517" lon="4.63824">
        <ele>255.4</ele>
        <time>2024-04-06T11:41:56Z</time>
      </trkpt>
      <trkpt lat="49.8517" lon="4.63815">
        <ele>255.8</ele>
        <time>2024-04-06T11:41:57Z</time>
      </trkpt>
      <trkpt lat="49.8517" lon="4.63805">
        <ele>256</ele>
        <time>2024-04-06T11:41:58Z</time>
      </trkpt>
      <trkpt lat="49.8517" lon="4.63795">
        <ele>256</ele>
        <time>2024-04-06T11:41:59Z</time>
      </trkpt>
      <trkpt lat="49.8517" lon="4.63785">
        <ele>256.2</ele>
        <time>2024-04-06T11:42:00Z</time>
      </trkpt>
      <trkpt lat="49.8517" lon="4.63775">
        <ele>256.8</ele>
        <time>2024-04-06T11:42:01Z</time>
      </trkpt>
      <trkpt lat="49.8517" lon="4.63765">
        <ele>257</ele>
        <time>2024-04-06T11:42:02Z</time>
      </trkpt>
      <trkpt lat="49.8517" lon="4.63755">
        <ele>257.2</ele>
        <time>2024-04-06T11:42:03Z</time>
      </trkpt>
      <trkpt lat="49.8517" lon="4.63745">
        <ele>257.4</ele>
        <time>2024-04-06T11:42:04Z</time>
      </trkpt>
      <trkpt lat="49.8517" lon="4.63735">
        <ele>257.6</ele>
        <time>2024-04-06T11:42:05Z</time>
      </trkpt>
      <trkpt lat="49.8517" lon="4.63726">
        <ele>257.8</ele>
        <time>2024-04-06T11:42:06Z</time>
      </trkpt>
      <trkpt lat="49.8517" lon="4.63718">
        <ele>257.8</ele>
        <time>2024-04-06T11:42:07Z</time>
      </trkpt>
      <trkpt lat="49.8517" lon="4.63709">
        <ele>258.2</ele>
        <time>2024-04-06T11:42:08Z</time>
      </trkpt>
      <trkpt lat="49.85171" lon="4.637">
        <ele>258.4</ele>
        <time>2024-04-06T11:42:09Z</time>
      </trkpt>
      <trkpt lat="49.85171" lon="4.63692">
        <ele>258.4</ele>
        <time>2024-04-06T11:42:10Z</time>
      </trkpt>
      <trkpt lat="49.85171" lon="4.63683">
        <ele>258.8</ele>
        <time>2024-04-06T11:42:11Z</time>
      </trkpt>
      <trkpt lat="49.85171" lon="4.63674">
        <ele>259</ele>
        <time>2024-04-06T11:42:12Z</time>
      </trkpt>
      <trkpt lat="49.85171" lon="4.63665">
        <ele>259.2</ele>
        <time>2024-04-06T11:42:13Z</time>
      </trkpt>
      <trkpt lat="49.85171" lon="4.63656">
        <ele>259.2</ele>
        <time>2024-04-06T11:42:14Z</time>
      </trkpt>
      <trkpt lat="49.85172" lon="4.63647">
        <ele>259.2</ele>
        <time>2024-04-06T11:42:15Z</time>
      </trkpt>
      <trkpt lat="49.85172" lon="4.63638">
        <ele>259.4</ele>
        <time>2024-04-06T11:42:16Z</time>
      </trkpt>
      <trkpt lat="49.85173" lon="4.63629">
        <ele>259.6</ele>
        <time>2024-04-06T11:42:17Z</time>
      </trkpt>
      <trkpt lat="49.85173" lon="4.6362">
        <ele>260</ele>
        <time>2024-04-06T11:42:18Z</time>
      </trkpt>
      <trkpt lat="49.85174" lon="4.63611">
        <ele>260.2</ele>
        <time>2024-04-06T11:42:19Z</time>
      </trkpt>
      <trkpt lat="49.85173" lon="4.636">
        <ele>260.4</ele>
        <time>2024-04-06T11:42:20Z</time>
      </trkpt>
      <trkpt lat="49.85174" lon="4.63591">
        <ele>260.6</ele>
        <time>2024-04-06T11:42:21Z</time>
      </trkpt>
      <trkpt lat="49.85174" lon="4.63583">
        <ele>260.6</ele>
        <time>2024-04-06T11:42:22Z</time>
      </trkpt>
      <trkpt lat="49.85175" lon="4.63575">
        <ele>261</ele>
        <time>2024-04-06T11:42:23Z</time>
      </trkpt>
      <trkpt lat="49.85175" lon="4.63566">
        <ele>261</ele>
        <time>2024-04-06T11:42:24Z</time>
      </trkpt>
      <trkpt lat="49.85176" lon="4.63558">
        <ele>261</ele>
        <time>2024-04-06T11:42:25Z</time>
      </trkpt>
      <trkpt lat="49.85177" lon="4.6355">
        <ele>261.2</ele>
        <time>2024-04-06T11:42:26Z</time>
      </trkpt>
      <trkpt lat="49.85176" lon="4.63541">
        <ele>261.4</ele>
        <time>2024-04-06T11:42:27Z</time>
      </trkpt>
      <trkpt lat="49.85176" lon="4.63532">
        <ele>261.6</ele>
        <time>2024-04-06T11:42:28Z</time>
      </trkpt>
      <trkpt lat="49.85176" lon="4.63523">
        <ele>261.8</ele>
        <time>2024-04-06T11:42:29Z</time>
      </trkpt>
      <trkpt lat="49.85177" lon="4.63514">
        <ele>261.8</ele>
        <time>2024-04-06T11:42:30Z</time>
      </trkpt>
      <trkpt lat="49.85177" lon="4.63506">
        <ele>261.8</ele>
        <time>2024-04-06T11:42:31Z</time>
      </trkpt>
      <trkpt lat="49.85177" lon="4.63498">
        <ele>262.2</ele>
        <time>2024-04-06T11:42:32Z</time>
      </trkpt>
      <trkpt lat="49.85177" lon="4.63488">
        <ele>262.2</ele>
        <time>2024-04-06T11:42:33Z</time>
      </trkpt>
      <trkpt lat="49.85176" lon="4.63479">
        <ele>262.2</ele>
        <time>2024-04-06T11:42:34Z</time>
      </trkpt>
      <trkpt lat="49.85176" lon="4.6347">
        <ele>262.2</ele>
        <time>2024-04-06T11:42:35Z</time>
      </trkpt>
      <trkpt lat="49.85176" lon="4.63461">
        <ele>262.2</ele>
        <time>2024-04-06T11:42:36Z</time>
      </trkpt>
      <trkpt lat="49.85176" lon="4.63452">
        <ele>262.4</ele>
        <time>2024-04-06T11:42:37Z</time>
      </trkpt>
      <trkpt lat="49.85176" lon="4.63443">
        <ele>262.4</ele>
        <time>2024-04-06T11:42:38Z</time>
      </trkpt>
      <trkpt lat="49.85176" lon="4.63435">
        <ele>262.6</ele>
        <time>2024-04-06T11:42:39Z</time>
      </trkpt>
      <trkpt lat="49.85177" lon="4.63427">
        <ele>262.8</ele>
        <time>2024-04-06T11:42:40Z</time>
      </trkpt>
      <trkpt lat="49.85177" lon="4.63418">
        <ele>263.2</ele>
        <time>2024-04-06T11:42:41Z</time>
      </trkpt>
      <trkpt lat="49.85177" lon="4.6341">
        <ele>263.4</ele>
        <time>2024-04-06T11:42:42Z</time>
      </trkpt>
      <trkpt lat="49.85178" lon="4.63402">
        <ele>263.4</ele>
        <time>2024-04-06T11:42:43Z</time>
      </trkpt>
      <trkpt lat="49.85178" lon="4.63394">
        <ele>263.6</ele>
        <time>2024-04-06T11:42:44Z</time>
      </trkpt>
      <trkpt lat="49.85178" lon="4.63386">
        <ele>263.4</ele>
        <time>2024-04-06T11:42:45Z</time>
      </trkpt>
      <trkpt lat="49.85178" lon="4.63378">
        <ele>263.6</ele>
        <time>2024-04-06T11:42:46Z</time>
      </trkpt>
      <trkpt lat="49.85179" lon="4.6337">
        <ele>263.8</ele>
        <time>2024-04-06T11:42:47Z</time>
      </trkpt>
      <trkpt lat="49.85179" lon="4.63363">
        <ele>263.8</ele>
        <time>2024-04-06T11:42:48Z</time>
      </trkpt>
      <trkpt lat="49.8518" lon="4.63356">
        <ele>263.8</ele>
        <time>2024-04-06T11:42:49Z</time>
      </trkpt>
      <trkpt lat="49.8518" lon="4.63348">
        <ele>264</ele>
        <time>2024-04-06T11:42:50Z</time>
      </trkpt>
      <trkpt lat="49.8518" lon="4.63339">
        <ele>264</ele>
        <time>2024-04-06T11:42:51Z</time>
      </trkpt>
      <trkpt lat="49.85178" lon="4.63328">
        <ele>264</ele>
        <time>2024-04-06T11:42:52Z</time>
      </trkpt>
      <trkpt lat="49.85176" lon="4.63318">
        <ele>263.8</ele>
        <time>2024-04-06T11:42:53Z</time>
      </trkpt>
      <trkpt lat="49.85176" lon="4.63309">
        <ele>264.2</ele>
        <time>2024-04-06T11:42:54Z</time>
      </trkpt>
      <trkpt lat="49.85175" lon="4.63301">
        <ele>264.2</ele>
        <time>2024-04-06T11:42:55Z</time>
      </trkpt>
      <trkpt lat="49.85174" lon="4.63293">
        <ele>264.4</ele>
        <time>2024-04-06T11:42:56Z</time>
      </trkpt>
      <trkpt lat="49.85174" lon="4.63284">
        <ele>264.4</ele>
        <time>2024-04-06T11:42:57Z</time>
      </trkpt>
      <trkpt lat="49.85174" lon="4.63275">
        <ele>264.4</ele>
        <time>2024-04-06T11:42:58Z</time>
      </trkpt>
      <trkpt lat="49.85174" lon="4.63265">
        <ele>264.6</ele>
        <time>2024-04-06T11:42:59Z</time>
      </trkpt>
      <trkpt lat="49.85174" lon="4.63256">
        <ele>264.8</ele>
        <time>2024-04-06T11:43:00Z</time>
      </trkpt>
      <trkpt lat="49.85173" lon="4.63246">
        <ele>265</ele>
        <time>2024-04-06T11:43:01Z</time>
      </trkpt>
      <trkpt lat="49.85173" lon="4.63237">
        <ele>265</ele>
        <time>2024-04-06T11:43:02Z</time>
      </trkpt>
      <trkpt lat="49.85173" lon="4.6323">
        <ele>265.6</ele>
        <time>2024-04-06T11:43:03Z</time>
      </trkpt>
      <trkpt lat="49.85173" lon="4.63222">
        <ele>266</ele>
        <time>2024-04-06T11:43:04Z</time>
      </trkpt>
      <trkpt lat="49.85173" lon="4.63215">
        <ele>266.4</ele>
        <time>2024-04-06T11:43:05Z</time>
      </trkpt>
      <trkpt lat="49.85173" lon="4.63208">
        <ele>266.6</ele>
        <time>2024-04-06T11:43:06Z</time>
      </trkpt>
      <trkpt lat="49.85173" lon="4.632">
        <ele>266.4</ele>
        <time>2024-04-06T11:43:07Z</time>
      </trkpt>
      <trkpt lat="49.85171" lon="4.6319">
        <ele>266.6</ele>
        <time>2024-04-06T11:43:08Z</time>
      </trkpt>
      <trkpt lat="49.85171" lon="4.63182">
        <ele>266.8</ele>
        <time>2024-04-06T11:43:09Z</time>
      </trkpt>
      <trkpt lat="49.85171" lon="4.63173">
        <ele>266.8</ele>
        <time>2024-04-06T11:43:10Z</time>
      </trkpt>
      <trkpt lat="49.85171" lon="4.63165">
        <ele>266.8</ele>
        <time>2024-04-06T11:43:11Z</time>
      </trkpt>
      <trkpt lat="49.85171" lon="4.63156">
        <ele>267</ele>
        <time>2024-04-06T11:43:12Z</time>
      </trkpt>
      <trkpt lat="49.8517" lon="4.63148">
        <ele>266.8</ele>
        <time>2024-04-06T11:43:13Z</time>
      </trkpt>
      <trkpt lat="49.8517" lon="4.6314">
        <ele>267</ele>
        <time>2024-04-06T11:43:14Z</time>
      </trkpt>
      <trkpt lat="49.8517" lon="4.63132">
        <ele>267</ele>
        <time>2024-04-06T11:43:15Z</time>
      </trkpt>
      <trkpt lat="49.8517" lon="4.63125">
        <ele>267.2</ele>
        <time>2024-04-06T11:43:16Z</time>
      </trkpt>
      <trkpt lat="49.8517" lon="4.63117">
        <ele>267.4</ele>
        <time>2024-04-06T11:43:17Z</time>
      </trkpt>
      <trkpt lat="49.8517" lon="4.63109">
        <ele>267.6</ele>
        <time>2024-04-06T11:43:18Z</time>
      </trkpt>
      <trkpt lat="49.8517" lon="4.63102">
        <ele>267.6</ele>
        <time>2024-04-06T11:43:19Z</time>
      </trkpt>
      <trkpt lat="49.8517" lon="4.63096">
        <ele>267.8</ele>
        <time>2024-04-06T11:43:20Z</time>
      </trkpt>
      <trkpt lat="49.8517" lon="4.6309">
        <ele>268.6</ele>
        <time>2024-04-06T11:43:21Z</time>
      </trkpt>
      <trkpt lat="49.8517" lon="4.63084">
        <ele>269.2</ele>
        <time>2024-04-06T11:43:22Z</time>
      </trkpt>
      <trkpt lat="49.8517" lon="4.63078">
        <ele>269.6</ele>
        <time>2024-04-06T11:43:23Z</time>
      </trkpt>
      <trkpt lat="49.85171" lon="4.63071">
        <ele>269.8</ele>
        <time>2024-04-06T11:43:24Z</time>
      </trkpt>
      <trkpt lat="49.85171" lon="4.63065">
        <ele>270.2</ele>
        <time>2024-04-06T11:43:25Z</time>
      </trkpt>
      <trkpt lat="49.85171" lon="4.63057">
        <ele>270.4</ele>
        <time>2024-04-06T11:43:26Z</time>
      </trkpt>
      <trkpt lat="49.85171" lon="4.63051">
        <ele>270.4</ele>
        <time>2024-04-06T11:43:27Z</time>
      </trkpt>
      <trkpt lat="49.85171" lon="4.63045">
        <ele>270.6</ele>
        <time>2024-04-06T11:43:28Z</time>
      </trkpt>
      <trkpt lat="49.85171" lon="4.63038">
        <ele>270.8</ele>
        <time>2024-04-06T11:43:29Z</time>
      </trkpt>
      <trkpt lat="49.85172" lon="4.63032">
        <ele>271.2</ele>
        <time>2024-04-06T11:43:30Z</time>
      </trkpt>
      <trkpt lat="49.85172" lon="4.63025">
        <ele>271.4</ele>
        <time>2024-04-06T11:43:31Z</time>
      </trkpt>
      <trkpt lat="49.85172" lon="4.63019">
        <ele>271.8</ele>
        <time>2024-04-06T11:43:32Z</time>
      </trkpt>
      <trkpt lat="49.85172" lon="4.63012">
        <ele>272</ele>
        <time>2024-04-06T11:43:33Z</time>
      </trkpt>
      <trkpt lat="49.85173" lon="4.63007">
        <ele>272.2</ele>
        <time>2024-04-06T11:43:34Z</time>
      </trkpt>
      <trkpt lat="49.85173" lon="4.63001">
        <ele>272.4</ele>
        <time>2024-04-06T11:43:35Z</time>
      </trkpt>
      <trkpt lat="49.85174" lon="4.62995">
        <ele>272.6</ele>
        <time>2024-04-06T11:43:36Z</time>
      </trkpt>
      <trkpt lat="49.85175" lon="4.62989">
        <ele>273</ele>
        <time>2024-04-06T11:43:37Z</time>
      </trkpt>
      <trkpt lat="49.85175" lon="4.62983">
        <ele>273.4</ele>
        <time>2024-04-06T11:43:38Z</time>
      </trkpt>
      <trkpt lat="49.85175" lon="4.62977">
        <ele>273.4</ele>
        <time>2024-04-06T11:43:39Z</time>
      </trkpt>
      <trkpt lat="49.85175" lon="4.62971">
        <ele>273.4</ele>
        <time>2024-04-06T11:43:40Z</time>
      </trkpt>
      <trkpt lat="49.85175" lon="4.62965">
        <ele>273.6</ele>
        <time>2024-04-06T11:43:41Z</time>
      </trkpt>
      <trkpt lat="49.85175" lon="4.6296">
        <ele>273.8</ele>
        <time>2024-04-06T11:43:42Z</time>
      </trkpt>
      <trkpt lat="49.85174" lon="4.62954">
        <ele>274</ele>
        <time>2024-04-06T11:43:43Z</time>
      </trkpt>
      <trkpt lat="49.85174" lon="4.62948">
        <ele>274.4</ele>
        <time>2024-04-06T11:43:44Z</time>
      </trkpt>
      <trkpt lat="49.85174" lon="4.62942">
        <ele>274.8</ele>
        <time>2024-04-06T11:43:45Z</time>
      </trkpt>
      <trkpt lat="49.85173" lon="4.62935">
        <ele>275</ele>
        <time>2024-04-06T11:43:46Z</time>
      </trkpt>
      <trkpt lat="49.85173" lon="4.6293">
        <ele>275.2</ele>
        <time>2024-04-06T11:43:47Z</time>
      </trkpt>
      <trkpt lat="49.85173" lon="4.62923">
        <ele>275.2</ele>
        <time>2024-04-06T11:43:48Z</time>
      </trkpt>
      <trkpt lat="49.85173" lon="4.62916">
        <ele>275.6</ele>
        <time>2024-04-06T11:43:49Z</time>
      </trkpt>
      <trkpt lat="49.85172" lon="4.62909">
        <ele>275.6</ele>
        <time>2024-04-06T11:43:50Z</time>
      </trkpt>
      <trkpt lat="49.85172" lon="4.62902">
        <ele>275.8</ele>
        <time>2024-04-06T11:43:51Z</time>
      </trkpt>
      <trkpt lat="49.85172" lon="4.62896">
        <ele>276</ele>
        <time>2024-04-06T11:43:52Z</time>
      </trkpt>
      <trkpt lat="49.85172" lon="4.6289">
        <ele>276.2</ele>
        <time>2024-04-06T11:43:53Z</time>
      </trkpt>
      <trkpt lat="49.85172" lon="4.62884">
        <ele>276.2</ele>
        <time>2024-04-06T11:43:54Z</time>
      </trkpt>
      <trkpt lat="49.85172" lon="4.62878">
        <ele>276.4</ele>
        <time>2024-04-06T11:43:55Z</time>
      </trkpt>
      <trkpt lat="49.85172" lon="4.62872">
        <ele>276.6</ele>
        <time>2024-04-06T11:43:56Z</time>
      </trkpt>
      <trkpt lat="49.85171" lon="4.62865">
        <ele>276.6</ele>
        <time>2024-04-06T11:43:57Z</time>
      </trkpt>
      <trkpt lat="49.85171" lon="4.62858">
        <ele>276.6</ele>
        <time>2024-04-06T11:43:58Z</time>
      </trkpt>
      <trkpt lat="49.85171" lon="4.62852">
        <ele>276.6</ele>
        <time>2024-04-06T11:43:59Z</time>
      </trkpt>
      <trkpt lat="49.85171" lon="4.62847">
        <ele>277.4</ele>
        <time>2024-04-06T11:44:00Z</time>
      </trkpt>
      <trkpt lat="49.85172" lon="4.62841">
        <ele>278</ele>
        <time>2024-04-06T11:44:01Z</time>
      </trkpt>
      <trkpt lat="49.85172" lon="4.62835">
        <ele>278</ele>
        <time>2024-04-06T11:44:02Z</time>
      </trkpt>
      <trkpt lat="49.85172" lon="4.62828">
        <ele>278.4</ele>
        <time>2024-04-06T11:44:03Z</time>
      </trkpt>
      <trkpt lat="49.85172" lon="4.62823">
        <ele>278.6</ele>
        <time>2024-04-06T11:44:04Z</time>
      </trkpt>
      <trkpt lat="49.85171" lon="4.62817">
        <ele>278.6</ele>
        <time>2024-04-06T11:44:05Z</time>
      </trkpt>
      <trkpt lat="49.85171" lon="4.62812">
        <ele>278.6</ele>
        <time>2024-04-06T11:44:06Z</time>
      </trkpt>
      <trkpt lat="49.85172" lon="4.62807">
        <ele>279</ele>
        <time>2024-04-06T11:44:07Z</time>
      </trkpt>
      <trkpt lat="49.85172" lon="4.62802">
        <ele>279.2</ele>
        <time>2024-04-06T11:44:08Z</time>
      </trkpt>
      <trkpt lat="49.85173" lon="4.62797">
        <ele>279.4</ele>
        <time>2024-04-06T11:44:09Z</time>
      </trkpt>
      <trkpt lat="49.85173" lon="4.62791">
        <ele>279.4</ele>
        <time>2024-04-06T11:44:10Z</time>
      </trkpt>
      <trkpt lat="49.85173" lon="4.62786">
        <ele>279.8</ele>
        <time>2024-04-06T11:44:11Z</time>
      </trkpt>
      <trkpt lat="49.85172" lon="4.6278">
        <ele>280</ele>
        <time>2024-04-06T11:44:12Z</time>
      </trkpt>
      <trkpt lat="49.85172" lon="4.62773">
        <ele>280</ele>
        <time>2024-04-06T11:44:13Z</time>
      </trkpt>
      <trkpt lat="49.85172" lon="4.62767">
        <ele>280.2</ele>
        <time>2024-04-06T11:44:14Z</time>
      </trkpt>
      <trkpt lat="49.85172" lon="4.6276">
        <ele>280.4</ele>
        <time>2024-04-06T11:44:15Z</time>
      </trkpt>
      <trkpt lat="49.85172" lon="4.62754">
        <ele>280.6</ele>
        <time>2024-04-06T11:44:16Z</time>
      </trkpt>
      <trkpt lat="49.85172" lon="4.62748">
        <ele>280.8</ele>
        <time>2024-04-06T11:44:17Z</time>
      </trkpt>
      <trkpt lat="49.85172" lon="4.62742">
        <ele>280.8</ele>
        <time>2024-04-06T11:44:18Z</time>
      </trkpt>
      <trkpt lat="49.85172" lon="4.62736">
        <ele>281</ele>
        <time>2024-04-06T11:44:19Z</time>
      </trkpt>
      <trkpt lat="49.85172" lon="4.6273">
        <ele>281</ele>
        <time>2024-04-06T11:44:20Z</time>
      </trkpt>
      <trkpt lat="49.85172" lon="4.62723">
        <ele>281.2</ele>
        <time>2024-04-06T11:44:21Z</time>
      </trkpt>
      <trkpt lat="49.85171" lon="4.62716">
        <ele>281.2</ele>
        <time>2024-04-06T11:44:22Z</time>
      </trkpt>
      <trkpt lat="49.8517" lon="4.62708">
        <ele>281.2</ele>
        <time>2024-04-06T11:44:23Z</time>
      </trkpt>
      <trkpt lat="49.8517" lon="4.62701">
        <ele>281.4</ele>
        <time>2024-04-06T11:44:24Z</time>
      </trkpt>
      <trkpt lat="49.85169" lon="4.62694">
        <ele>281.6</ele>
        <time>2024-04-06T11:44:25Z</time>
      </trkpt>
      <trkpt lat="49.85169" lon="4.62687">
        <ele>281.8</ele>
        <time>2024-04-06T11:44:26Z</time>
      </trkpt>
      <trkpt lat="49.85169" lon="4.6268">
        <ele>281.8</ele>
        <time>2024-04-06T11:44:27Z</time>
      </trkpt>
      <trkpt lat="49.85168" lon="4.62672">
        <ele>282</ele>
        <time>2024-04-06T11:44:28Z</time>
      </trkpt>
      <trkpt lat="49.85168" lon="4.62666">
        <ele>282</ele>
        <time>2024-04-06T11:44:29Z</time>
      </trkpt>
      <trkpt lat="49.85167" lon="4.62659">
        <ele>282.2</ele>
        <time>2024-04-06T11:44:30Z</time>
      </trkpt>
      <trkpt lat="49.85167" lon="4.62652">
        <ele>282.4</ele>
        <time>2024-04-06T11:44:31Z</time>
      </trkpt>
      <trkpt lat="49.85167" lon="4.62646">
        <ele>282.4</ele>
        <time>2024-04-06T11:44:32Z</time>
      </trkpt>
      <trkpt lat="49.85167" lon="4.62639">
        <ele>282.6</ele>
        <time>2024-04-06T11:44:33Z</time>
      </trkpt>
      <trkpt lat="49.85167" lon="4.62633">
        <ele>282.6</ele>
        <time>2024-04-06T11:44:34Z</time>
      </trkpt>
      <trkpt lat="49.85167" lon="4.62626">
        <ele>282.8</ele>
        <time>2024-04-06T11:44:35Z</time>
      </trkpt>
      <trkpt lat="49.85167" lon="4.62619">
        <ele>282.8</ele>
        <time>2024-04-06T11:44:36Z</time>
      </trkpt>
      <trkpt lat="49.85167" lon="4.62612">
        <ele>283</ele>
        <time>2024-04-06T11:44:37Z</time>
      </trkpt>
      <trkpt lat="49.85167" lon="4.62606">
        <ele>283.2</ele>
        <time>2024-04-06T11:44:38Z</time>
      </trkpt>
      <trkpt lat="49.85168" lon="4.626">
        <ele>283.4</ele>
        <time>2024-04-06T11:44:39Z</time>
      </trkpt>
      <trkpt lat="49.85169" lon="4.62594">
        <ele>283.4</ele>
        <time>2024-04-06T11:44:40Z</time>
      </trkpt>
      <trkpt lat="49.85169" lon="4.62588">
        <ele>283.6</ele>
        <time>2024-04-06T11:44:41Z</time>
      </trkpt>
      <trkpt lat="49.85169" lon="4.62581">
        <ele>283.4</ele>
        <time>2024-04-06T11:44:42Z</time>
      </trkpt>
      <trkpt lat="49.85169" lon="4.62574">
        <ele>283.6</ele>
        <time>2024-04-06T11:44:43Z</time>
      </trkpt>
      <trkpt lat="49.8517" lon="4.62568">
        <ele>283.6</ele>
        <time>2024-04-06T11:44:44Z</time>
      </trkpt>
      <trkpt lat="49.8517" lon="4.62561">
        <ele>283.8</ele>
        <time>2024-04-06T11:44:45Z</time>
      </trkpt>
      <trkpt lat="49.8517" lon="4.62555">
        <ele>283.8</ele>
        <time>2024-04-06T11:44:46Z</time>
      </trkpt>
      <trkpt lat="49.8517" lon="4.62548">
        <ele>283.8</ele>
        <time>2024-04-06T11:44:47Z</time>
      </trkpt>
      <trkpt lat="49.85169" lon="4.62541">
        <ele>283.8</ele>
        <time>2024-04-06T11:44:48Z</time>
      </trkpt>
      <trkpt lat="49.85169" lon="4.62534">
        <ele>284</ele>
        <time>2024-04-06T11:44:49Z</time>
      </trkpt>
      <trkpt lat="49.85169" lon="4.62527">
        <ele>284.4</ele>
        <time>2024-04-06T11:44:50Z</time>
      </trkpt>
      <trkpt lat="49.85169" lon="4.62521">
        <ele>284.4</ele>
        <time>2024-04-06T11:44:51Z</time>
      </trkpt>
      <trkpt lat="49.85169" lon="4.62514">
        <ele>284.4</ele>
        <time>2024-04-06T11:44:52Z</time>
      </trkpt>
      <trkpt lat="49.85169" lon="4.62507">
        <ele>284.6</ele>
        <time>2024-04-06T11:44:53Z</time>
      </trkpt>
      <trkpt lat="49.85169" lon="4.625">
        <ele>284.6</ele>
        <time>2024-04-06T11:44:54Z</time>
      </trkpt>
      <trkpt lat="49.85169" lon="4.62494">
        <ele>284.8</ele>
        <time>2024-04-06T11:44:55Z</time>
      </trkpt>
      <trkpt lat="49.85169" lon="4.62487">
        <ele>284.8</ele>
        <time>2024-04-06T11:44:56Z</time>
      </trkpt>
      <trkpt lat="49.8517" lon="4.62481">
        <ele>284.8</ele>
        <time>2024-04-06T11:44:57Z</time>
      </trkpt>
      <trkpt lat="49.8517" lon="4.62474">
        <ele>285</ele>
        <time>2024-04-06T11:44:58Z</time>
      </trkpt>
      <trkpt lat="49.8517" lon="4.62467">
        <ele>285</ele>
        <time>2024-04-06T11:44:59Z</time>
      </trkpt>
      <trkpt lat="49.85169" lon="4.6246">
        <ele>285.2</ele>
        <time>2024-04-06T11:45:00Z</time>
      </trkpt>
      <trkpt lat="49.85169" lon="4.62453">
        <ele>285.2</ele>
        <time>2024-04-06T11:45:01Z</time>
      </trkpt>
      <trkpt lat="49.85169" lon="4.62446">
        <ele>285.2</ele>
        <time>2024-04-06T11:45:02Z</time>
      </trkpt>
      <trkpt lat="49.85169" lon="4.6244">
        <ele>285.2</ele>
        <time>2024-04-06T11:45:03Z</time>
      </trkpt>
      <trkpt lat="49.85169" lon="4.62433">
        <ele>285.4</ele>
        <time>2024-04-06T11:45:04Z</time>
      </trkpt>
      <trkpt lat="49.85169" lon="4.62427">
        <ele>285.6</ele>
        <time>2024-04-06T11:45:05Z</time>
      </trkpt>
      <trkpt lat="49.85169" lon="4.62421">
        <ele>285.4</ele>
        <time>2024-04-06T11:45:06Z</time>
      </trkpt>
      <trkpt lat="49.85169" lon="4.62414">
        <ele>285.6</ele>
        <time>2024-04-06T11:45:07Z</time>
      </trkpt>
      <trkpt lat="49.8517" lon="4.62408">
        <ele>286.2</ele>
        <time>2024-04-06T11:45:08Z</time>
      </trkpt>
      <trkpt lat="49.8517" lon="4.62401">
        <ele>286.2</ele>
        <time>2024-04-06T11:45:09Z</time>
      </trkpt>
      <trkpt lat="49.8517" lon="4.62395">
        <ele>286.4</ele>
        <time>2024-04-06T11:45:10Z</time>
      </trkpt>
      <trkpt lat="49.8517" lon="4.62387">
        <ele>286.6</ele>
        <time>2024-04-06T11:45:11Z</time>
      </trkpt>
      <trkpt lat="49.8517" lon="4.6238">
        <ele>286.6</ele>
        <time>2024-04-06T11:45:12Z</time>
      </trkpt>
      <trkpt lat="49.8517" lon="4.62372">
        <ele>286.6</ele>
        <time>2024-04-06T11:45:13Z</time>
      </trkpt>
      <trkpt lat="49.85169" lon="4.62365">
        <ele>286.8</ele>
        <time>2024-04-06T11:45:14Z</time>
      </trkpt>
      <trkpt lat="49.85169" lon="4.62357">
        <ele>287</ele>
        <time>2024-04-06T11:45:15Z</time>
      </trkpt>
      <trkpt lat="49.85169" lon="4.6235">
        <ele>287</ele>
        <time>2024-04-06T11:45:16Z</time>
      </trkpt>
      <trkpt lat="49.85168" lon="4.62341">
        <ele>287</ele>
        <time>2024-04-06T11:45:17Z</time>
      </trkpt>
      <trkpt lat="49.85168" lon="4.62333">
        <ele>287.2</ele>
        <time>2024-04-06T11:45:18Z</time>
      </trkpt>
      <trkpt lat="49.85167" lon="4.62325">
        <ele>287.2</ele>
        <time>2024-04-06T11:45:19Z</time>
      </trkpt>
      <trkpt lat="49.85167" lon="4.62317">
        <ele>287.4</ele>
        <time>2024-04-06T11:45:20Z</time>
      </trkpt>
      <trkpt lat="49.85167" lon="4.6231">
        <ele>287.4</ele>
        <time>2024-04-06T11:45:21Z</time>
      </trkpt>
      <trkpt lat="49.85166" lon="4.62303">
        <ele>287.2</ele>
        <time>2024-04-06T11:45:22Z</time>
      </trkpt>
      <trkpt lat="49.85166" lon="4.62295">
        <ele>287.4</ele>
        <time>2024-04-06T11:45:23Z</time>
      </trkpt>
      <trkpt lat="49.85166" lon="4.62288">
        <ele>287.6</ele>
        <time>2024-04-06T11:45:24Z</time>
      </trkpt>
      <trkpt lat="49.85165" lon="4.62281">
        <ele>287.6</ele>
        <time>2024-04-06T11:45:25Z</time>
      </trkpt>
      <trkpt lat="49.85165" lon="4.62274">
        <ele>287.6</ele>
        <time>2024-04-06T11:45:26Z</time>
      </trkpt>
      <trkpt lat="49.85165" lon="4.62267">
        <ele>287.8</ele>
        <time>2024-04-06T11:45:27Z</time>
      </trkpt>
      <trkpt lat="49.85164" lon="4.6226">
        <ele>287.8</ele>
        <time>2024-04-06T11:45:28Z</time>
      </trkpt>
      <trkpt lat="49.85164" lon="4.62254">
        <ele>287.8</ele>
        <time>2024-04-06T11:45:29Z</time>
      </trkpt>
      <trkpt lat="49.85164" lon="4.62248">
        <ele>287.8</ele>
        <time>2024-04-06T11:45:30Z</time>
      </trkpt>
      <trkpt lat="49.85164" lon="4.62241">
        <ele>287.8</ele>
        <time>2024-04-06T11:45:31Z</time>
      </trkpt>
      <trkpt lat="49.85164" lon="4.62235">
        <ele>288</ele>
        <time>2024-04-06T11:45:32Z</time>
      </trkpt>
      <trkpt lat="49.85163" lon="4.62229">
        <ele>288</ele>
        <time>2024-04-06T11:45:33Z</time>
      </trkpt>
      <trkpt lat="49.85163" lon="4.62223">
        <ele>288</ele>
        <time>2024-04-06T11:45:34Z</time>
      </trkpt>
      <trkpt lat="49.85163" lon="4.62217">
        <ele>288.2</ele>
        <time>2024-04-06T11:45:35Z</time>
      </trkpt>
      <trkpt lat="49.85163" lon="4.6221">
        <ele>288.2</ele>
        <time>2024-04-06T11:45:36Z</time>
      </trkpt>
      <trkpt lat="49.85163" lon="4.62204">
        <ele>288.6</ele>
        <time>2024-04-06T11:45:37Z</time>
      </trkpt>
      <trkpt lat="49.85162" lon="4.62198">
        <ele>289.2</ele>
        <time>2024-04-06T11:45:38Z</time>
      </trkpt>
      <trkpt lat="49.85162" lon="4.62192">
        <ele>290</ele>
        <time>2024-04-06T11:45:39Z</time>
      </trkpt>
      <trkpt lat="49.85163" lon="4.62187">
        <ele>290.2</ele>
        <time>2024-04-06T11:45:40Z</time>
      </trkpt>
      <trkpt lat="49.85163" lon="4.62181">
        <ele>290.4</ele>
        <time>2024-04-06T11:45:41Z</time>
      </trkpt>
      <trkpt lat="49.85163" lon="4.62176">
        <ele>290.8</ele>
        <time>2024-04-06T11:45:42Z</time>
      </trkpt>
      <trkpt lat="49.85163" lon="4.62171">
        <ele>291</ele>
        <time>2024-04-06T11:45:43Z</time>
      </trkpt>
      <trkpt lat="49.85163" lon="4.62166">
        <ele>291.4</ele>
        <time>2024-04-06T11:45:44Z</time>
      </trkpt>
      <trkpt lat="49.85163" lon="4.62161">
        <ele>291.8</ele>
        <time>2024-04-06T11:45:45Z</time>
      </trkpt>
      <trkpt lat="49.85163" lon="4.62155">
        <ele>291.8</ele>
        <time>2024-04-06T11:45:46Z</time>
      </trkpt>
      <trkpt lat="49.85164" lon="4.6215">
        <ele>292</ele>
        <time>2024-04-06T11:45:47Z</time>
      </trkpt>
      <trkpt lat="49.85164" lon="4.62145">
        <ele>292.2</ele>
        <time>2024-04-06T11:45:48Z</time>
      </trkpt>
      <trkpt lat="49.85163" lon="4.62139">
        <ele>292.4</ele>
        <time>2024-04-06T11:45:49Z</time>
      </trkpt>
      <trkpt lat="49.85163" lon="4.62134">
        <ele>292.6</ele>
        <time>2024-04-06T11:45:50Z</time>
      </trkpt>
      <trkpt lat="49.85163" lon="4.62129">
        <ele>292.6</ele>
        <time>2024-04-06T11:45:51Z</time>
      </trkpt>
      <trkpt lat="49.85163" lon="4.62123">
        <ele>292.8</ele>
        <time>2024-04-06T11:45:52Z</time>
      </trkpt>
      <trkpt lat="49.85163" lon="4.62118">
        <ele>293</ele>
        <time>2024-04-06T11:45:53Z</time>
      </trkpt>
      <trkpt lat="49.85163" lon="4.62112">
        <ele>293.2</ele>
        <time>2024-04-06T11:45:54Z</time>
      </trkpt>
      <trkpt lat="49.85163" lon="4.62107">
        <ele>293.4</ele>
        <time>2024-04-06T11:45:55Z</time>
      </trkpt>
      <trkpt lat="49.85163" lon="4.62102">
        <ele>293.6</ele>
        <time>2024-04-06T11:45:56Z</time>
      </trkpt>
      <trkpt lat="49.85164" lon="4.62096">
        <ele>293.6</ele>
        <time>2024-04-06T11:45:57Z</time>
      </trkpt>
      <trkpt lat="49.85164" lon="4.62091">
        <ele>293.6</ele>
        <time>2024-04-06T11:45:58Z</time>
      </trkpt>
      <trkpt lat="49.85164" lon="4.62086">
        <ele>293.6</ele>
        <time>2024-04-06T11:45:59Z</time>
      </trkpt>
      <trkpt lat="49.85163" lon="4.6208">
        <ele>294</ele>
        <time>2024-04-06T11:46:00Z</time>
      </trkpt>
      <trkpt lat="49.85163" lon="4.62075">
        <ele>294.4</ele>
        <time>2024-04-06T11:46:01Z</time>
      </trkpt>
      <trkpt lat="49.85163" lon="4.6207">
        <ele>295</ele>
        <time>2024-04-06T11:46:02Z</time>
      </trkpt>
      <trkpt lat="49.85163" lon="4.62064">
        <ele>295.6</ele>
        <time>2024-04-06T11:46:03Z</time>
      </trkpt>
      <trkpt lat="49.85163" lon="4.62059">
        <ele>295.8</ele>
        <time>2024-04-06T11:46:04Z</time>
      </trkpt>
      <trkpt lat="49.85164" lon="4.62054">
        <ele>296.2</ele>
        <time>2024-04-06T11:46:05Z</time>
      </trkpt>
      <trkpt lat="49.85164" lon="4.62049">
        <ele>296.6</ele>
        <time>2024-04-06T11:46:06Z</time>
      </trkpt>
      <trkpt lat="49.85164" lon="4.62044">
        <ele>296.6</ele>
        <time>2024-04-06T11:46:07Z</time>
      </trkpt>
      <trkpt lat="49.85164" lon="4.62039">
        <ele>296.8</ele>
        <time>2024-04-06T11:46:08Z</time>
      </trkpt>
      <trkpt lat="49.85164" lon="4.62034">
        <ele>297</ele>
        <time>2024-04-06T11:46:09Z</time>
      </trkpt>
      <trkpt lat="49.85164" lon="4.62029">
        <ele>297</ele>
        <time>2024-04-06T11:46:10Z</time>
      </trkpt>
      <trkpt lat="49.85163" lon="4.62024">
        <ele>297.4</ele>
        <time>2024-04-06T11:46:11Z</time>
      </trkpt>
      <trkpt lat="49.85163" lon="4.62018">
        <ele>297.4</ele>
        <time>2024-04-06T11:46:12Z</time>
      </trkpt>
      <trkpt lat="49.85163" lon="4.62013">
        <ele>297.6</ele>
        <time>2024-04-06T11:46:13Z</time>
      </trkpt>
      <trkpt lat="49.85164" lon="4.62008">
        <ele>297.6</ele>
        <time>2024-04-06T11:46:14Z</time>
      </trkpt>
      <trkpt lat="49.85164" lon="4.62003">
        <ele>298.4</ele>
        <time>2024-04-06T11:46:15Z</time>
      </trkpt>
      <trkpt lat="49.85164" lon="4.61998">
        <ele>298.6</ele>
        <time>2024-04-06T11:46:16Z</time>
      </trkpt>
      <trkpt lat="49.85165" lon="4.61993">
        <ele>299</ele>
        <time>2024-04-06T11:46:17Z</time>
      </trkpt>
      <trkpt lat="49.85166" lon="4.61989">
        <ele>299.2</ele>
        <time>2024-04-06T11:46:18Z</time>
      </trkpt>
      <trkpt lat="49.85167" lon="4.61986">
        <ele>299.6</ele>
        <time>2024-04-06T11:46:19Z</time>
      </trkpt>
      <trkpt lat="49.85169" lon="4.61982">
        <ele>299.8</ele>
        <time>2024-04-06T11:46:20Z</time>
      </trkpt>
      <trkpt lat="49.85171" lon="4.61979">
        <ele>299.8</ele>
        <time>2024-04-06T11:46:21Z</time>
      </trkpt>
      <trkpt lat="49.85174" lon="4.61977">
        <ele>300.2</ele>
        <time>2024-04-06T11:46:22Z</time>
      </trkpt>
      <trkpt lat="49.85176" lon="4.61978">
        <ele>300.2</ele>
        <time>2024-04-06T11:46:23Z</time>
      </trkpt>
      <trkpt lat="49.85179" lon="4.6198">
        <ele>300.6</ele>
        <time>2024-04-06T11:46:24Z</time>
      </trkpt>
      <trkpt lat="49.85183" lon="4.61984">
        <ele>301</ele>
        <time>2024-04-06T11:46:25Z</time>
      </trkpt>
      <trkpt lat="49.85187" lon="4.61988">
        <ele>301.2</ele>
        <time>2024-04-06T11:46:26Z</time>
      </trkpt>
      <trkpt lat="49.85192" lon="4.61992">
        <ele>301.2</ele>
        <time>2024-04-06T11:46:27Z</time>
      </trkpt>
      <trkpt lat="49.85196" lon="4.61997">
        <ele>301.4</ele>
        <time>2024-04-06T11:46:28Z</time>
      </trkpt>
      <trkpt lat="49.85201" lon="4.62001">
        <ele>301.4</ele>
        <time>2024-04-06T11:46:29Z</time>
      </trkpt>
      <trkpt lat="49.85206" lon="4.62006">
        <ele>301.4</ele>
        <time>2024-04-06T11:46:30Z</time>
      </trkpt>
      <trkpt lat="49.85211" lon="4.62011">
        <ele>301.4</ele>
        <time>2024-04-06T11:46:31Z</time>
      </trkpt>
      <trkpt lat="49.85217" lon="4.62016">
        <ele>301.4</ele>
        <time>2024-04-06T11:46:32Z</time>
      </trkpt>
      <trkpt lat="49.85223" lon="4.62021">
        <ele>301.6</ele>
        <time>2024-04-06T11:46:33Z</time>
      </trkpt>
      <trkpt lat="49.8523" lon="4.62026">
        <ele>301.4</ele>
        <time>2024-04-06T11:46:34Z</time>
      </trkpt>
      <trkpt lat="49.85237" lon="4.62032">
        <ele>301.4</ele>
        <time>2024-04-06T11:46:35Z</time>
      </trkpt>
      <trkpt lat="49.85245" lon="4.62037">
        <ele>301.2</ele>
        <time>2024-04-06T11:46:36Z</time>
      </trkpt>
      <trkpt lat="49.85252" lon="4.62042">
        <ele>300.8</ele>
        <time>2024-04-06T11:46:37Z</time>
      </trkpt>
      <trkpt lat="49.8526" lon="4.62047">
        <ele>300.6</ele>
        <time>2024-04-06T11:46:38Z</time>
      </trkpt>
      <trkpt lat="49.85268" lon="4.62052">
        <ele>300</ele>
        <time>2024-04-06T11:46:39Z</time>
      </trkpt>
      <trkpt lat="49.85277" lon="4.62057">
        <ele>299.4</ele>
        <time>2024-04-06T11:46:40Z</time>
      </trkpt>
      <trkpt lat="49.85285" lon="4.62062">
        <ele>298.8</ele>
        <time>2024-04-06T11:46:41Z</time>
      </trkpt>
      <trkpt lat="49.85294" lon="4.62067">
        <ele>298.6</ele>
        <time>2024-04-06T11:46:42Z</time>
      </trkpt>
      <trkpt lat="49.85303" lon="4.62072">
        <ele>298.2</ele>
        <time>2024-04-06T11:46:43Z</time>
      </trkpt>
      <trkpt lat="49.85312" lon="4.62078">
        <ele>298</ele>
        <time>2024-04-06T11:46:44Z</time>
      </trkpt>
      <trkpt lat="49.85321" lon="4.62084">
        <ele>297.6</ele>
        <time>2024-04-06T11:46:45Z</time>
      </trkpt>
      <trkpt lat="49.8533" lon="4.62089">
        <ele>297.6</ele>
        <time>2024-04-06T11:46:46Z</time>
      </trkpt>
      <trkpt lat="49.85339" lon="4.62096">
        <ele>297</ele>
        <time>2024-04-06T11:46:47Z</time>
      </trkpt>
      <trkpt lat="49.85349" lon="4.62102">
        <ele>296.4</ele>
        <time>2024-04-06T11:46:48Z</time>
      </trkpt>
      <trkpt lat="49.85359" lon="4.62109">
        <ele>296</ele>
        <time>2024-04-06T11:46:49Z</time>
      </trkpt>
      <trkpt lat="49.85369" lon="4.62115">
        <ele>295.4</ele>
        <time>2024-04-06T11:46:50Z</time>
      </trkpt>
      <trkpt lat="49.85379" lon="4.6212">
        <ele>294.6</ele>
        <time>2024-04-06T11:46:51Z</time>
      </trkpt>
      <trkpt lat="49.85389" lon="4.62125">
        <ele>294.2</ele>
        <time>2024-04-06T11:46:52Z</time>
      </trkpt>
      <trkpt lat="49.854" lon="4.62131">
        <ele>293.4</ele>
        <time>2024-04-06T11:46:53Z</time>
      </trkpt>
      <trkpt lat="49.85411" lon="4.62138">
        <ele>292.8</ele>
        <time>2024-04-06T11:46:54Z</time>
      </trkpt>
      <trkpt lat="49.85422" lon="4.62145">
        <ele>292.6</ele>
        <time>2024-04-06T11:46:55Z</time>
      </trkpt>
      <trkpt lat="49.85433" lon="4.62152">
        <ele>291.8</ele>
        <time>2024-04-06T11:46:56Z</time>
      </trkpt>
      <trkpt lat="49.85445" lon="4.62159">
        <ele>291.4</ele>
        <time>2024-04-06T11:46:57Z</time>
      </trkpt>
      <trkpt lat="49.85456" lon="4.62166">
        <ele>291</ele>
        <time>2024-04-06T11:46:58Z</time>
      </trkpt>
      <trkpt lat="49.85468" lon="4.62172">
        <ele>290.6</ele>
        <time>2024-04-06T11:46:59Z</time>
      </trkpt>
      <trkpt lat="49.85479" lon="4.62179">
        <ele>290</ele>
        <time>2024-04-06T11:47:00Z</time>
      </trkpt>
      <trkpt lat="49.85491" lon="4.62186">
        <ele>289.8</ele>
        <time>2024-04-06T11:47:01Z</time>
      </trkpt>
      <trkpt lat="49.85502" lon="4.62193">
        <ele>289</ele>
        <time>2024-04-06T11:47:02Z</time>
      </trkpt>
      <trkpt lat="49.85514" lon="4.622">
        <ele>288.6</ele>
        <time>2024-04-06T11:47:03Z</time>
      </trkpt>
      <trkpt lat="49.85526" lon="4.62208">
        <ele>288.2</ele>
        <time>2024-04-06T11:47:04Z</time>
      </trkpt>
      <trkpt lat="49.85538" lon="4.62215">
        <ele>287.6</ele>
        <time>2024-04-06T11:47:05Z</time>
      </trkpt>
      <trkpt lat="49.8555" lon="4.62223">
        <ele>286.8</ele>
        <time>2024-04-06T11:47:06Z</time>
      </trkpt>
      <trkpt lat="49.85562" lon="4.6223">
        <ele>285.8</ele>
        <time>2024-04-06T11:47:07Z</time>
      </trkpt>
      <trkpt lat="49.85574" lon="4.62238">
        <ele>285.8</ele>
        <time>2024-04-06T11:47:08Z</time>
      </trkpt>
      <trkpt lat="49.85586" lon="4.62246">
        <ele>285.2</ele>
        <time>2024-04-06T11:47:09Z</time>
      </trkpt>
      <trkpt lat="49.85598" lon="4.62254">
        <ele>284.4</ele>
        <time>2024-04-06T11:47:10Z</time>
      </trkpt>
      <trkpt lat="49.85609" lon="4.62263">
        <ele>284</ele>
        <time>2024-04-06T11:47:11Z</time>
      </trkpt>
      <trkpt lat="49.85621" lon="4.62273">
        <ele>283</ele>
        <time>2024-04-06T11:47:12Z</time>
      </trkpt>
      <trkpt lat="49.85632" lon="4.62284">
        <ele>282</ele>
        <time>2024-04-06T11:47:13Z</time>
      </trkpt>
      <trkpt lat="49.85643" lon="4.62295">
        <ele>281.2</ele>
        <time>2024-04-06T11:47:14Z</time>
      </trkpt>
      <trkpt lat="49.85654" lon="4.62307">
        <ele>280.2</ele>
        <time>2024-04-06T11:47:15Z</time>
      </trkpt>
      <trkpt lat="49.85664" lon="4.62319">
        <ele>279.8</ele>
        <time>2024-04-06T11:47:16Z</time>
      </trkpt>
      <trkpt lat="49.85674" lon="4.62333">
        <ele>279.4</ele>
        <time>2024-04-06T11:47:17Z</time>
      </trkpt>
      <trkpt lat="49.85683" lon="4.62347">
        <ele>278.2</ele>
        <time>2024-04-06T11:47:18Z</time>
      </trkpt>
      <trkpt lat="49.85692" lon="4.62362">
        <ele>277.2</ele>
        <time>2024-04-06T11:47:19Z</time>
      </trkpt>
      <trkpt lat="49.857" lon="4.62377">
        <ele>276.6</ele>
        <time>2024-04-06T11:47:20Z</time>
      </trkpt>
      <trkpt lat="49.85708" lon="4.62393">
        <ele>275.8</ele>
        <time>2024-04-06T11:47:21Z</time>
      </trkpt>
      <trkpt lat="49.85716" lon="4.62409">
        <ele>275</ele>
        <time>2024-04-06T11:47:22Z</time>
      </trkpt>
      <trkpt lat="49.85723" lon="4.62426">
        <ele>274.2</ele>
        <time>2024-04-06T11:47:23Z</time>
      </trkpt>
      <trkpt lat="49.85729" lon="4.62442">
        <ele>273.8</ele>
        <time>2024-04-06T11:47:24Z</time>
      </trkpt>
      <trkpt lat="49.85735" lon="4.62459">
        <ele>273</ele>
        <time>2024-04-06T11:47:25Z</time>
      </trkpt>
      <trkpt lat="49.85741" lon="4.62476">
        <ele>272</ele>
        <time>2024-04-06T11:47:26Z</time>
      </trkpt>
      <trkpt lat="49.85748" lon="4.62493">
        <ele>271.2</ele>
        <time>2024-04-06T11:47:27Z</time>
      </trkpt>
      <trkpt lat="49.85753" lon="4.62509">
        <ele>270.6</ele>
        <time>2024-04-06T11:47:28Z</time>
      </trkpt>
      <trkpt lat="49.85759" lon="4.62526">
        <ele>269.8</ele>
        <time>2024-04-06T11:47:29Z</time>
      </trkpt>
      <trkpt lat="49.85765" lon="4.62542">
        <ele>269.6</ele>
        <time>2024-04-06T11:47:30Z</time>
      </trkpt>
      <trkpt lat="49.85771" lon="4.62557">
        <ele>269.4</ele>
        <time>2024-04-06T11:47:31Z</time>
      </trkpt>
      <trkpt lat="49.85777" lon="4.62573">
        <ele>269.4</ele>
        <time>2024-04-06T11:47:32Z</time>
      </trkpt>
      <trkpt lat="49.85783" lon="4.62589">
        <ele>269.2</ele>
        <time>2024-04-06T11:47:33Z</time>
      </trkpt>
      <trkpt lat="49.85789" lon="4.62604">
        <ele>269</ele>
        <time>2024-04-06T11:47:34Z</time>
      </trkpt>
      <trkpt lat="49.85795" lon="4.62619">
        <ele>268.6</ele>
        <time>2024-04-06T11:47:35Z</time>
      </trkpt>
      <trkpt lat="49.85802" lon="4.62633">
        <ele>268.4</ele>
        <time>2024-04-06T11:47:36Z</time>
      </trkpt>
      <trkpt lat="49.85808" lon="4.62647">
        <ele>268.2</ele>
        <time>2024-04-06T11:47:37Z</time>
      </trkpt>
      <trkpt lat="49.85815" lon="4.62661">
        <ele>268</ele>
        <time>2024-04-06T11:47:38Z</time>
      </trkpt>
      <trkpt lat="49.85822" lon="4.62674">
        <ele>267.6</ele>
        <time>2024-04-06T11:47:39Z</time>
      </trkpt>
      <trkpt lat="49.8583" lon="4.62686">
        <ele>267.6</ele>
        <time>2024-04-06T11:47:40Z</time>
      </trkpt>
      <trkpt lat="49.85838" lon="4.62698">
        <ele>267.4</ele>
        <time>2024-04-06T11:47:41Z</time>
      </trkpt>
      <trkpt lat="49.85846" lon="4.6271">
        <ele>267.4</ele>
        <time>2024-04-06T11:47:42Z</time>
      </trkpt>
      <trkpt lat="49.85855" lon="4.62721">
        <ele>267.2</ele>
        <time>2024-04-06T11:47:43Z</time>
      </trkpt>
      <trkpt lat="49.85863" lon="4.62731">
        <ele>267</ele>
        <time>2024-04-06T11:47:44Z</time>
      </trkpt>
      <trkpt lat="49.85872" lon="4.62741">
        <ele>266.8</ele>
        <time>2024-04-06T11:47:45Z</time>
      </trkpt>
      <trkpt lat="49.85882" lon="4.6275">
        <ele>266.6</ele>
        <time>2024-04-06T11:47:46Z</time>
      </trkpt>
      <trkpt lat="49.85892" lon="4.62758">
        <ele>266.2</ele>
        <time>2024-04-06T11:47:47Z</time>
      </trkpt>
      <trkpt lat="49.85903" lon="4.62766">
        <ele>266</ele>
        <time>2024-04-06T11:47:48Z</time>
      </trkpt>
      <trkpt lat="49.85914" lon="4.62773">
        <ele>266</ele>
        <time>2024-04-06T11:47:49Z</time>
      </trkpt>
      <trkpt lat="49.85925" lon="4.6278">
        <ele>265.8</ele>
        <time>2024-04-06T11:47:50Z</time>
      </trkpt>
      <trkpt lat="49.85937" lon="4.62786">
        <ele>265.6</ele>
        <time>2024-04-06T11:47:51Z</time>
      </trkpt>
      <trkpt lat="49.85949" lon="4.62791">
        <ele>265.4</ele>
        <time>2024-04-06T11:47:52Z</time>
      </trkpt>
      <trkpt lat="49.85961" lon="4.62796">
        <ele>265.4</ele>
        <time>2024-04-06T11:47:53Z</time>
      </trkpt>
      <trkpt lat="49.85972" lon="4.628">
        <ele>265.4</ele>
        <time>2024-04-06T11:47:54Z</time>
      </trkpt>
      <trkpt lat="49.85984" lon="4.62805">
        <ele>264.6</ele>
        <time>2024-04-06T11:47:55Z</time>
      </trkpt>
      <trkpt lat="49.85996" lon="4.62809">
        <ele>264.2</ele>
        <time>2024-04-06T11:47:56Z</time>
      </trkpt>
      <trkpt lat="49.86008" lon="4.62813">
        <ele>263.4</ele>
        <time>2024-04-06T11:47:57Z</time>
      </trkpt>
      <trkpt lat="49.8602" lon="4.62817">
        <ele>263</ele>
        <time>2024-04-06T11:47:58Z</time>
      </trkpt>
      <trkpt lat="49.86032" lon="4.62821">
        <ele>262.4</ele>
        <time>2024-04-06T11:47:59Z</time>
      </trkpt>
      <trkpt lat="49.86045" lon="4.62826">
        <ele>261.6</ele>
        <time>2024-04-06T11:48:00Z</time>
      </trkpt>
      <trkpt lat="49.86058" lon="4.6283">
        <ele>260.8</ele>
        <time>2024-04-06T11:48:01Z</time>
      </trkpt>
      <trkpt lat="49.8607" lon="4.62835">
        <ele>259.8</ele>
        <time>2024-04-06T11:48:02Z</time>
      </trkpt>
      <trkpt lat="49.86083" lon="4.62839">
        <ele>258.4</ele>
        <time>2024-04-06T11:48:03Z</time>
      </trkpt>
      <trkpt lat="49.86095" lon="4.62844">
        <ele>257.6</ele>
        <time>2024-04-06T11:48:04Z</time>
      </trkpt>
      <trkpt lat="49.86108" lon="4.62849">
        <ele>257</ele>
        <time>2024-04-06T11:48:05Z</time>
      </trkpt>
      <trkpt lat="49.8612" lon="4.62854">
        <ele>256.4</ele>
        <time>2024-04-06T11:48:06Z</time>
      </trkpt>
      <trkpt lat="49.86132" lon="4.62859">
        <ele>255.8</ele>
        <time>2024-04-06T11:48:07Z</time>
      </trkpt>
      <trkpt lat="49.86144" lon="4.62865">
        <ele>254.8</ele>
        <time>2024-04-06T11:48:08Z</time>
      </trkpt>
      <trkpt lat="49.86155" lon="4.62871">
        <ele>254</ele>
        <time>2024-04-06T11:48:09Z</time>
      </trkpt>
      <trkpt lat="49.86167" lon="4.62877">
        <ele>253</ele>
        <time>2024-04-06T11:48:10Z</time>
      </trkpt>
      <trkpt lat="49.86178" lon="4.62883">
        <ele>251.6</ele>
        <time>2024-04-06T11:48:11Z</time>
      </trkpt>
      <trkpt lat="49.86189" lon="4.62888">
        <ele>250.8</ele>
        <time>2024-04-06T11:48:12Z</time>
      </trkpt>
      <trkpt lat="49.86199" lon="4.62893">
        <ele>249.4</ele>
        <time>2024-04-06T11:48:13Z</time>
      </trkpt>
      <trkpt lat="49.86209" lon="4.62899">
        <ele>248.8</ele>
        <time>2024-04-06T11:48:14Z</time>
      </trkpt>
      <trkpt lat="49.86219" lon="4.62904">
        <ele>248.6</ele>
        <time>2024-04-06T11:48:15Z</time>
      </trkpt>
      <trkpt lat="49.86229" lon="4.62909">
        <ele>248.2</ele>
        <time>2024-04-06T11:48:16Z</time>
      </trkpt>
      <trkpt lat="49.86238" lon="4.62914">
        <ele>248.2</ele>
        <time>2024-04-06T11:48:17Z</time>
      </trkpt>
      <trkpt lat="49.86248" lon="4.62919">
        <ele>248</ele>
        <time>2024-04-06T11:48:18Z</time>
      </trkpt>
      <trkpt lat="49.86257" lon="4.62924">
        <ele>247.8</ele>
        <time>2024-04-06T11:48:19Z</time>
      </trkpt>
      <trkpt lat="49.86266" lon="4.62929">
        <ele>247.6</ele>
        <time>2024-04-06T11:48:20Z</time>
      </trkpt>
      <trkpt lat="49.86275" lon="4.62933">
        <ele>247.4</ele>
        <time>2024-04-06T11:48:21Z</time>
      </trkpt>
      <trkpt lat="49.86284" lon="4.62938">
        <ele>247.2</ele>
        <time>2024-04-06T11:48:22Z</time>
      </trkpt>
      <trkpt lat="49.86293" lon="4.62942">
        <ele>247.4</ele>
        <time>2024-04-06T11:48:23Z</time>
      </trkpt>
      <trkpt lat="49.86302" lon="4.62947">
        <ele>247.2</ele>
        <time>2024-04-06T11:48:24Z</time>
      </trkpt>
      <trkpt lat="49.8631" lon="4.62951">
        <ele>247</ele>
        <time>2024-04-06T11:48:25Z</time>
      </trkpt>
      <trkpt lat="49.86319" lon="4.62955">
        <ele>246.8</ele>
        <time>2024-04-06T11:48:26Z</time>
      </trkpt>
      <trkpt lat="49.86327" lon="4.6296">
        <ele>246.8</ele>
        <time>2024-04-06T11:48:27Z</time>
      </trkpt>
      <trkpt lat="49.86335" lon="4.62964">
        <ele>246.8</ele>
        <time>2024-04-06T11:48:28Z</time>
      </trkpt>
      <trkpt lat="49.86344" lon="4.62968">
        <ele>246.6</ele>
        <time>2024-04-06T11:48:29Z</time>
      </trkpt>
      <trkpt lat="49.86352" lon="4.62973">
        <ele>246.6</ele>
        <time>2024-04-06T11:48:30Z</time>
      </trkpt>
      <trkpt lat="49.8636" lon="4.62977">
        <ele>246.6</ele>
        <time>2024-04-06T11:48:31Z</time>
      </trkpt>
      <trkpt lat="49.86368" lon="4.62981">
        <ele>246.8</ele>
        <time>2024-04-06T11:48:32Z</time>
      </trkpt>
      <trkpt lat="49.86376" lon="4.62985">
        <ele>246.8</ele>
        <time>2024-04-06T11:48:33Z</time>
      </trkpt>
      <trkpt lat="49.86384" lon="4.62989">
        <ele>246.8</ele>
        <time>2024-04-06T11:48:34Z</time>
      </trkpt>
      <trkpt lat="49.86391" lon="4.62993">
        <ele>246.6</ele>
        <time>2024-04-06T11:48:35Z</time>
      </trkpt>
      <trkpt lat="49.86399" lon="4.62997">
        <ele>246.8</ele>
        <time>2024-04-06T11:48:36Z</time>
      </trkpt>
      <trkpt lat="49.86407" lon="4.63001">
        <ele>246.6</ele>
        <time>2024-04-06T11:48:37Z</time>
      </trkpt>
      <trkpt lat="49.86414" lon="4.63005">
        <ele>246.6</ele>
        <time>2024-04-06T11:48:38Z</time>
      </trkpt>
      <trkpt lat="49.86421" lon="4.63009">
        <ele>246.6</ele>
        <time>2024-04-06T11:48:39Z</time>
      </trkpt>
      <trkpt lat="49.86429" lon="4.63012">
        <ele>246.6</ele>
        <time>2024-04-06T11:48:40Z</time>
      </trkpt>
      <trkpt lat="49.86436" lon="4.63016">
        <ele>246.6</ele>
        <time>2024-04-06T11:48:41Z</time>
      </trkpt>
      <trkpt lat="49.86443" lon="4.6302">
        <ele>246.6</ele>
        <time>2024-04-06T11:48:42Z</time>
      </trkpt>
      <trkpt lat="49.8645" lon="4.63023">
        <ele>246.8</ele>
        <time>2024-04-06T11:48:43Z</time>
      </trkpt>
      <trkpt lat="49.86457" lon="4.63026">
        <ele>246.8</ele>
        <time>2024-04-06T11:48:44Z</time>
      </trkpt>
      <trkpt lat="49.86464" lon="4.6303">
        <ele>246.8</ele>
        <time>2024-04-06T11:48:45Z</time>
      </trkpt>
      <trkpt lat="49.86471" lon="4.63034">
        <ele>247</ele>
        <time>2024-04-06T11:48:46Z</time>
      </trkpt>
      <trkpt lat="49.86478" lon="4.63037">
        <ele>247.2</ele>
        <time>2024-04-06T11:48:47Z</time>
      </trkpt>
      <trkpt lat="49.86484" lon="4.63041">
        <ele>247.4</ele>
        <time>2024-04-06T11:48:48Z</time>
      </trkpt>
      <trkpt lat="49.86491" lon="4.63044">
        <ele>248</ele>
        <time>2024-04-06T11:48:49Z</time>
      </trkpt>
      <trkpt lat="49.86497" lon="4.63047">
        <ele>248.4</ele>
        <time>2024-04-06T11:48:50Z</time>
      </trkpt>
      <trkpt lat="49.86503" lon="4.6305">
        <ele>248.6</ele>
        <time>2024-04-06T11:48:51Z</time>
      </trkpt>
      <trkpt lat="49.86509" lon="4.63053">
        <ele>248.8</ele>
        <time>2024-04-06T11:48:52Z</time>
      </trkpt>
      <trkpt lat="49.86515" lon="4.63056">
        <ele>249</ele>
        <time>2024-04-06T11:48:53Z</time>
      </trkpt>
      <trkpt lat="49.86521" lon="4.63059">
        <ele>249</ele>
        <time>2024-04-06T11:48:54Z</time>
      </trkpt>
      <trkpt lat="49.86527" lon="4.63062">
        <ele>249.2</ele>
        <time>2024-04-06T11:48:55Z</time>
      </trkpt>
      <trkpt lat="49.86533" lon="4.63065">
        <ele>249.4</ele>
        <time>2024-04-06T11:48:56Z</time>
      </trkpt>
      <trkpt lat="49.86539" lon="4.63068">
        <ele>249.4</ele>
        <time>2024-04-06T11:48:57Z</time>
      </trkpt>
      <trkpt lat="49.86545" lon="4.63071">
        <ele>249.6</ele>
        <time>2024-04-06T11:48:58Z</time>
      </trkpt>
      <trkpt lat="49.8655" lon="4.63073">
        <ele>250</ele>
        <time>2024-04-06T11:48:59Z</time>
      </trkpt>
      <trkpt lat="49.86556" lon="4.63076">
        <ele>250</ele>
        <time>2024-04-06T11:49:00Z</time>
      </trkpt>
      <trkpt lat="49.86561" lon="4.63079">
        <ele>250.2</ele>
        <time>2024-04-06T11:49:01Z</time>
      </trkpt>
      <trkpt lat="49.86567" lon="4.63082">
        <ele>250.2</ele>
        <time>2024-04-06T11:49:02Z</time>
      </trkpt>
      <trkpt lat="49.86572" lon="4.63085">
        <ele>250.6</ele>
        <time>2024-04-06T11:49:03Z</time>
      </trkpt>
      <trkpt lat="49.86578" lon="4.63088">
        <ele>250.8</ele>
        <time>2024-04-06T11:49:04Z</time>
      </trkpt>
      <trkpt lat="49.86583" lon="4.63091">
        <ele>251</ele>
        <time>2024-04-06T11:49:05Z</time>
      </trkpt>
      <trkpt lat="49.86588" lon="4.63093">
        <ele>251.4</ele>
        <time>2024-04-06T11:49:06Z</time>
      </trkpt>
      <trkpt lat="49.86593" lon="4.63096">
        <ele>251.8</ele>
        <time>2024-04-06T11:49:07Z</time>
      </trkpt>
      <trkpt lat="49.86598" lon="4.63099">
        <ele>252</ele>
        <time>2024-04-06T11:49:08Z</time>
      </trkpt>
      <trkpt lat="49.86603" lon="4.63101">
        <ele>252.6</ele>
        <time>2024-04-06T11:49:09Z</time>
      </trkpt>
      <trkpt lat="49.86609" lon="4.63104">
        <ele>252.8</ele>
        <time>2024-04-06T11:49:10Z</time>
      </trkpt>
      <trkpt lat="49.86614" lon="4.63107">
        <ele>252.8</ele>
        <time>2024-04-06T11:49:11Z</time>
      </trkpt>
      <trkpt lat="49.86618" lon="4.63109">
        <ele>253</ele>
        <time>2024-04-06T11:49:12Z</time>
      </trkpt>
      <trkpt lat="49.86623" lon="4.63112">
        <ele>253.4</ele>
        <time>2024-04-06T11:49:13Z</time>
      </trkpt>
      <trkpt lat="49.86628" lon="4.63114">
        <ele>253.6</ele>
        <time>2024-04-06T11:49:14Z</time>
      </trkpt>
      <trkpt lat="49.86633" lon="4.63117">
        <ele>254</ele>
        <time>2024-04-06T11:49:15Z</time>
      </trkpt>
      <trkpt lat="49.86637" lon="4.63119">
        <ele>254.2</ele>
        <time>2024-04-06T11:49:16Z</time>
      </trkpt>
      <trkpt lat="49.86642" lon="4.63122">
        <ele>254.6</ele>
        <time>2024-04-06T11:49:17Z</time>
      </trkpt>
      <trkpt lat="49.86647" lon="4.63124">
        <ele>254.8</ele>
        <time>2024-04-06T11:49:18Z</time>
      </trkpt>
      <trkpt lat="49.86652" lon="4.63127">
        <ele>254.8</ele>
        <time>2024-04-06T11:49:19Z</time>
      </trkpt>
      <trkpt lat="49.86657" lon="4.6313">
        <ele>255.4</ele>
        <time>2024-04-06T11:49:20Z</time>
      </trkpt>
      <trkpt lat="49.86662" lon="4.63132">
        <ele>255.4</ele>
        <time>2024-04-06T11:49:21Z</time>
      </trkpt>
      <trkpt lat="49.86666" lon="4.63135">
        <ele>255.8</ele>
        <time>2024-04-06T11:49:22Z</time>
      </trkpt>
      <trkpt lat="49.86671" lon="4.63138">
        <ele>256.4</ele>
        <time>2024-04-06T11:49:23Z</time>
      </trkpt>
      <trkpt lat="49.86676" lon="4.6314">
        <ele>256.6</ele>
        <time>2024-04-06T11:49:24Z</time>
      </trkpt>
      <trkpt lat="49.86681" lon="4.63143">
        <ele>256.6</ele>
        <time>2024-04-06T11:49:25Z</time>
      </trkpt>
      <trkpt lat="49.86686" lon="4.63145">
        <ele>257.2</ele>
        <time>2024-04-06T11:49:26Z</time>
      </trkpt>
      <trkpt lat="49.86691" lon="4.63148">
        <ele>257.2</ele>
        <time>2024-04-06T11:49:27Z</time>
      </trkpt>
      <trkpt lat="49.86697" lon="4.6315">
        <ele>257.8</ele>
        <time>2024-04-06T11:49:28Z</time>
      </trkpt>
      <trkpt lat="49.86702" lon="4.63153">
        <ele>258.2</ele>
        <time>2024-04-06T11:49:29Z</time>
      </trkpt>
      <trkpt lat="49.86707" lon="4.63155">
        <ele>258.2</ele>
        <time>2024-04-06T11:49:30Z</time>
      </trkpt>
      <trkpt lat="49.86712" lon="4.63158">
        <ele>258.8</ele>
        <time>2024-04-06T11:49:31Z</time>
      </trkpt>
      <trkpt lat="49.86717" lon="4.63161">
        <ele>259</ele>
        <time>2024-04-06T11:49:32Z</time>
      </trkpt>
      <trkpt lat="49.86722" lon="4.63164">
        <ele>259.4</ele>
        <time>2024-04-06T11:49:33Z</time>
      </trkpt>
      <trkpt lat="49.86727" lon="4.63168">
        <ele>259.8</ele>
        <time>2024-04-06T11:49:34Z</time>
      </trkpt>
      <trkpt lat="49.86732" lon="4.6317">
        <ele>260</ele>
        <time>2024-04-06T11:49:35Z</time>
      </trkpt>
      <trkpt lat="49.86737" lon="4.63173">
        <ele>260.2</ele>
        <time>2024-04-06T11:49:36Z</time>
      </trkpt>
      <trkpt lat="49.86742" lon="4.63176">
        <ele>260.2</ele>
        <time>2024-04-06T11:49:37Z</time>
      </trkpt>
      <trkpt lat="49.86747" lon="4.63179">
        <ele>260.2</ele>
        <time>2024-04-06T11:49:38Z</time>
      </trkpt>
      <trkpt lat="49.86752" lon="4.63182">
        <ele>260.2</ele>
        <time>2024-04-06T11:49:39Z</time>
      </trkpt>
      <trkpt lat="49.86757" lon="4.63185">
        <ele>260.6</ele>
        <time>2024-04-06T11:49:40Z</time>
      </trkpt>
      <trkpt lat="49.86762" lon="4.63188">
        <ele>260.6</ele>
        <time>2024-04-06T11:49:41Z</time>
      </trkpt>
      <trkpt lat="49.86767" lon="4.6319">
        <ele>261.2</ele>
        <time>2024-04-06T11:49:42Z</time>
      </trkpt>
      <trkpt lat="49.86773" lon="4.63193">
        <ele>261.4</ele>
        <time>2024-04-06T11:49:43Z</time>
      </trkpt>
      <trkpt lat="49.86779" lon="4.63195">
        <ele>261.8</ele>
        <time>2024-04-06T11:49:44Z</time>
      </trkpt>
      <trkpt lat="49.86784" lon="4.63198">
        <ele>261.8</ele>
        <time>2024-04-06T11:49:45Z</time>
      </trkpt>
      <trkpt lat="49.8679" lon="4.63201">
        <ele>261.8</ele>
        <time>2024-04-06T11:49:46Z</time>
      </trkpt>
      <trkpt lat="49.86795" lon="4.63204">
        <ele>262</ele>
        <time>2024-04-06T11:49:47Z</time>
      </trkpt>
      <trkpt lat="49.86801" lon="4.63207">
        <ele>262</ele>
        <time>2024-04-06T11:49:48Z</time>
      </trkpt>
      <trkpt lat="49.86807" lon="4.63209">
        <ele>262</ele>
        <time>2024-04-06T11:49:49Z</time>
      </trkpt>
      <trkpt lat="49.86812" lon="4.63212">
        <ele>262</ele>
        <time>2024-04-06T11:49:50Z</time>
      </trkpt>
      <trkpt lat="49.86818" lon="4.63214">
        <ele>262</ele>
        <time>2024-04-06T11:49:51Z</time>
      </trkpt>
      <trkpt lat="49.86825" lon="4.63216">
        <ele>262.2</ele>
        <time>2024-04-06T11:49:52Z</time>
      </trkpt>
      <trkpt lat="49.86832" lon="4.63218">
        <ele>262.2</ele>
        <time>2024-04-06T11:49:53Z</time>
      </trkpt>
      <trkpt lat="49.86839" lon="4.63219">
        <ele>262.2</ele>
        <time>2024-04-06T11:49:54Z</time>
      </trkpt>
      <trkpt lat="49.86845" lon="4.6322">
        <ele>262.2</ele>
        <time>2024-04-06T11:49:55Z</time>
      </trkpt>
      <trkpt lat="49.86852" lon="4.63221">
        <ele>262.2</ele>
        <time>2024-04-06T11:49:56Z</time>
      </trkpt>
      <trkpt lat="49.86859" lon="4.63222">
        <ele>262.2</ele>
        <time>2024-04-06T11:49:57Z</time>
      </trkpt>
      <trkpt lat="49.86865" lon="4.63221">
        <ele>262.4</ele>
        <time>2024-04-06T11:49:58Z</time>
      </trkpt>
      <trkpt lat="49.86872" lon="4.6322">
        <ele>262.4</ele>
        <time>2024-04-06T11:49:59Z</time>
      </trkpt>
      <trkpt lat="49.86878" lon="4.63218">
        <ele>262.4</ele>
        <time>2024-04-06T11:50:00Z</time>
      </trkpt>
      <trkpt lat="49.86885" lon="4.63217">
        <ele>262.6</ele>
        <time>2024-04-06T11:50:01Z</time>
      </trkpt>
      <trkpt lat="49.86891" lon="4.63215">
        <ele>262.6</ele>
        <time>2024-04-06T11:50:02Z</time>
      </trkpt>
      <trkpt lat="49.86897" lon="4.63214">
        <ele>262.6</ele>
        <time>2024-04-06T11:50:03Z</time>
      </trkpt>
      <trkpt lat="49.86903" lon="4.63212">
        <ele>262.8</ele>
        <time>2024-04-06T11:50:04Z</time>
      </trkpt>
      <trkpt lat="49.86909" lon="4.6321">
        <ele>262.8</ele>
        <time>2024-04-06T11:50:05Z</time>
      </trkpt>
      <trkpt lat="49.86914" lon="4.63207">
        <ele>262.8</ele>
        <time>2024-04-06T11:50:06Z</time>
      </trkpt>
      <trkpt lat="49.8692" lon="4.63204">
        <ele>262.8</ele>
        <time>2024-04-06T11:50:07Z</time>
      </trkpt>
      <trkpt lat="49.86926" lon="4.632">
        <ele>262.8</ele>
        <time>2024-04-06T11:50:08Z</time>
      </trkpt>
      <trkpt lat="49.8693" lon="4.63195">
        <ele>263</ele>
        <time>2024-04-06T11:50:09Z</time>
      </trkpt>
      <trkpt lat="49.86934" lon="4.63187">
        <ele>263.2</ele>
        <time>2024-04-06T11:50:10Z</time>
      </trkpt>
      <trkpt lat="49.86936" lon="4.63179">
        <ele>263.4</ele>
        <time>2024-04-06T11:50:11Z</time>
      </trkpt>
      <trkpt lat="49.86937" lon="4.6317">
        <ele>263.6</ele>
        <time>2024-04-06T11:50:12Z</time>
      </trkpt>
      <trkpt lat="49.86938" lon="4.63161">
        <ele>263.6</ele>
        <time>2024-04-06T11:50:13Z</time>
      </trkpt>
      <trkpt lat="49.86938" lon="4.63151">
        <ele>264</ele>
        <time>2024-04-06T11:50:14Z</time>
      </trkpt>
      <trkpt lat="49.86938" lon="4.63141">
        <ele>264</ele>
        <time>2024-04-06T11:50:15Z</time>
      </trkpt>
      <trkpt lat="49.86938" lon="4.63132">
        <ele>264</ele>
        <time>2024-04-06T11:50:16Z</time>
      </trkpt>
      <trkpt lat="49.86938" lon="4.63123">
        <ele>264.2</ele>
        <time>2024-04-06T11:50:17Z</time>
      </trkpt>
      <trkpt lat="49.86938" lon="4.63114">
        <ele>264.4</ele>
        <time>2024-04-06T11:50:18Z</time>
      </trkpt>
      <trkpt lat="49.86938" lon="4.63105">
        <ele>264.4</ele>
        <time>2024-04-06T11:50:19Z</time>
      </trkpt>
      <trkpt lat="49.86938" lon="4.63095">
        <ele>264.8</ele>
        <time>2024-04-06T11:50:20Z</time>
      </trkpt>
      <trkpt lat="49.86939" lon="4.63086">
        <ele>264.6</ele>
        <time>2024-04-06T11:50:21Z</time>
      </trkpt>
      <trkpt lat="49.86939" lon="4.63077">
        <ele>265</ele>
        <time>2024-04-06T11:50:22Z</time>
      </trkpt>
      <trkpt lat="49.86939" lon="4.63068">
        <ele>265.2</ele>
        <time>2024-04-06T11:50:23Z</time>
      </trkpt>
      <trkpt lat="49.86939" lon="4.6306">
        <ele>265.2</ele>
        <time>2024-04-06T11:50:24Z</time>
      </trkpt>
      <trkpt lat="49.8694" lon="4.63051">
        <ele>265.4</ele>
        <time>2024-04-06T11:50:25Z</time>
      </trkpt>
      <trkpt lat="49.8694" lon="4.63041">
        <ele>265.4</ele>
        <time>2024-04-06T11:50:26Z</time>
      </trkpt>
      <trkpt lat="49.8694" lon="4.63031">
        <ele>265.8</ele>
        <time>2024-04-06T11:50:27Z</time>
      </trkpt>
      <trkpt lat="49.86941" lon="4.6302">
        <ele>266.6</ele>
        <time>2024-04-06T11:50:28Z</time>
      </trkpt>
      <trkpt lat="49.86941" lon="4.63008">
        <ele>267</ele>
        <time>2024-04-06T11:50:29Z</time>
      </trkpt>
      <trkpt lat="49.86942" lon="4.62996">
        <ele>267</ele>
        <time>2024-04-06T11:50:30Z</time>
      </trkpt>
      <trkpt lat="49.86942" lon="4.62983">
        <ele>267.4</ele>
        <time>2024-04-06T11:50:31Z</time>
      </trkpt>
      <trkpt lat="49.86942" lon="4.62969">
        <ele>267.2</ele>
        <time>2024-04-06T11:50:32Z</time>
      </trkpt>
      <trkpt lat="49.86942" lon="4.62955">
        <ele>267.4</ele>
        <time>2024-04-06T11:50:33Z</time>
      </trkpt>
      <trkpt lat="49.86941" lon="4.6294">
        <ele>267.4</ele>
        <time>2024-04-06T11:50:34Z</time>
      </trkpt>
      <trkpt lat="49.86941" lon="4.62926">
        <ele>267.4</ele>
        <time>2024-04-06T11:50:35Z</time>
      </trkpt>
      <trkpt lat="49.86941" lon="4.62911">
        <ele>267.4</ele>
        <time>2024-04-06T11:50:36Z</time>
      </trkpt>
      <trkpt lat="49.86941" lon="4.62895">
        <ele>267.2</ele>
        <time>2024-04-06T11:50:37Z</time>
      </trkpt>
      <trkpt lat="49.86941" lon="4.62879">
        <ele>267.4</ele>
        <time>2024-04-06T11:50:38Z</time>
      </trkpt>
      <trkpt lat="49.86941" lon="4.62864">
        <ele>267.2</ele>
        <time>2024-04-06T11:50:39Z</time>
      </trkpt>
      <trkpt lat="49.86941" lon="4.62848">
        <ele>266.8</ele>
        <time>2024-04-06T11:50:40Z</time>
      </trkpt>
      <trkpt lat="49.86941" lon="4.62832">
        <ele>266.4</ele>
        <time>2024-04-06T11:50:41Z</time>
      </trkpt>
      <trkpt lat="49.86941" lon="4.62816">
        <ele>266</ele>
        <time>2024-04-06T11:50:42Z</time>
      </trkpt>
      <trkpt lat="49.86941" lon="4.62799">
        <ele>265.6</ele>
        <time>2024-04-06T11:50:43Z</time>
      </trkpt>
      <trkpt lat="49.86941" lon="4.62783">
        <ele>265.6</ele>
        <time>2024-04-06T11:50:44Z</time>
      </trkpt>
      <trkpt lat="49.86942" lon="4.62766">
        <ele>265</ele>
        <time>2024-04-06T11:50:45Z</time>
      </trkpt>
      <trkpt lat="49.86942" lon="4.6275">
        <ele>264.2</ele>
        <time>2024-04-06T11:50:46Z</time>
      </trkpt>
      <trkpt lat="49.86941" lon="4.62733">
        <ele>263.2</ele>
        <time>2024-04-06T11:50:47Z</time>
      </trkpt>
      <trkpt lat="49.86941" lon="4.62717">
        <ele>262.8</ele>
        <time>2024-04-06T11:50:48Z</time>
      </trkpt>
      <trkpt lat="49.86941" lon="4.62701">
        <ele>262.4</ele>
        <time>2024-04-06T11:50:49Z</time>
      </trkpt>
      <trkpt lat="49.86941" lon="4.62685">
        <ele>262</ele>
        <time>2024-04-06T11:50:50Z</time>
      </trkpt>
      <trkpt lat="49.86941" lon="4.62669">
        <ele>261.6</ele>
        <time>2024-04-06T11:50:51Z</time>
      </trkpt>
      <trkpt lat="49.86942" lon="4.62653">
        <ele>261.4</ele>
        <time>2024-04-06T11:50:52Z</time>
      </trkpt>
      <trkpt lat="49.86941" lon="4.62638">
        <ele>261</ele>
        <time>2024-04-06T11:50:53Z</time>
      </trkpt>
      <trkpt lat="49.86941" lon="4.62622">
        <ele>261</ele>
        <time>2024-04-06T11:50:54Z</time>
      </trkpt>
      <trkpt lat="49.86941" lon="4.62607">
        <ele>259.6</ele>
        <time>2024-04-06T11:50:55Z</time>
      </trkpt>
      <trkpt lat="49.86941" lon="4.62592">
        <ele>259.2</ele>
        <time>2024-04-06T11:50:56Z</time>
      </trkpt>
      <trkpt lat="49.86941" lon="4.62576">
        <ele>258.8</ele>
        <time>2024-04-06T11:50:57Z</time>
      </trkpt>
      <trkpt lat="49.86941" lon="4.62561">
        <ele>258.6</ele>
        <time>2024-04-06T11:50:58Z</time>
      </trkpt>
      <trkpt lat="49.86941" lon="4.62546">
        <ele>258.4</ele>
        <time>2024-04-06T11:50:59Z</time>
      </trkpt>
      <trkpt lat="49.86941" lon="4.62532">
        <ele>258.4</ele>
        <time>2024-04-06T11:51:00Z</time>
      </trkpt>
      <trkpt lat="49.86941" lon="4.62517">
        <ele>258.4</ele>
        <time>2024-04-06T11:51:01Z</time>
      </trkpt>
      <trkpt lat="49.86941" lon="4.62503">
        <ele>258.2</ele>
        <time>2024-04-06T11:51:02Z</time>
      </trkpt>
      <trkpt lat="49.86941" lon="4.62489">
        <ele>258.2</ele>
        <time>2024-04-06T11:51:03Z</time>
      </trkpt>
      <trkpt lat="49.86941" lon="4.62475">
        <ele>258</ele>
        <time>2024-04-06T11:51:04Z</time>
      </trkpt>
      <trkpt lat="49.86941" lon="4.62461">
        <ele>258</ele>
        <time>2024-04-06T11:51:05Z</time>
      </trkpt>
      <trkpt lat="49.86941" lon="4.62448">
        <ele>258</ele>
        <time>2024-04-06T11:51:06Z</time>
      </trkpt>
      <trkpt lat="49.86941" lon="4.62434">
        <ele>258</ele>
        <time>2024-04-06T11:51:07Z</time>
      </trkpt>
      <trkpt lat="49.86941" lon="4.62421">
        <ele>258</ele>
        <time>2024-04-06T11:51:08Z</time>
      </trkpt>
      <trkpt lat="49.86941" lon="4.62408">
        <ele>258.2</ele>
        <time>2024-04-06T11:51:09Z</time>
      </trkpt>
      <trkpt lat="49.8694" lon="4.62395">
        <ele>258.2</ele>
        <time>2024-04-06T11:51:10Z</time>
      </trkpt>
      <trkpt lat="49.8694" lon="4.62383">
        <ele>258.2</ele>
        <time>2024-04-06T11:51:11Z</time>
      </trkpt>
      <trkpt lat="49.8694" lon="4.62371">
        <ele>258.2</ele>
        <time>2024-04-06T11:51:12Z</time>
      </trkpt>
      <trkpt lat="49.8694" lon="4.6236">
        <ele>258.2</ele>
        <time>2024-04-06T11:51:13Z</time>
      </trkpt>
      <trkpt lat="49.8694" lon="4.62348">
        <ele>258.2</ele>
        <time>2024-04-06T11:51:14Z</time>
      </trkpt>
      <trkpt lat="49.8694" lon="4.62336">
        <ele>258.2</ele>
        <time>2024-04-06T11:51:15Z</time>
      </trkpt>
      <trkpt lat="49.86941" lon="4.62325">
        <ele>258.4</ele>
        <time>2024-04-06T11:51:16Z</time>
      </trkpt>
      <trkpt lat="49.86941" lon="4.62313">
        <ele>258.2</ele>
        <time>2024-04-06T11:51:17Z</time>
      </trkpt>
      <trkpt lat="49.86942" lon="4.62302">
        <ele>258.4</ele>
        <time>2024-04-06T11:51:18Z</time>
      </trkpt>
      <trkpt lat="49.86942" lon="4.62291">
        <ele>258.8</ele>
        <time>2024-04-06T11:51:19Z</time>
      </trkpt>
      <trkpt lat="49.86942" lon="4.62279">
        <ele>259.6</ele>
        <time>2024-04-06T11:51:20Z</time>
      </trkpt>
      <trkpt lat="49.86942" lon="4.62267">
        <ele>260.2</ele>
        <time>2024-04-06T11:51:21Z</time>
      </trkpt>
      <trkpt lat="49.86942" lon="4.62256">
        <ele>260.8</ele>
        <time>2024-04-06T11:51:22Z</time>
      </trkpt>
      <trkpt lat="49.86943" lon="4.62244">
        <ele>261.2</ele>
        <time>2024-04-06T11:51:23Z</time>
      </trkpt>
      <trkpt lat="49.86944" lon="4.62232">
        <ele>261.4</ele>
        <time>2024-04-06T11:51:24Z</time>
      </trkpt>
      <trkpt lat="49.86944" lon="4.62219">
        <ele>261.6</ele>
        <time>2024-04-06T11:51:25Z</time>
      </trkpt>
      <trkpt lat="49.86945" lon="4.62207">
        <ele>261.6</ele>
        <time>2024-04-06T11:51:26Z</time>
      </trkpt>
      <trkpt lat="49.86945" lon="4.62193">
        <ele>261.8</ele>
        <time>2024-04-06T11:51:27Z</time>
      </trkpt>
      <trkpt lat="49.86946" lon="4.6218">
        <ele>261.6</ele>
        <time>2024-04-06T11:51:28Z</time>
      </trkpt>
      <trkpt lat="49.86947" lon="4.62166">
        <ele>261.6</ele>
        <time>2024-04-06T11:51:29Z</time>
      </trkpt>
      <trkpt lat="49.86947" lon="4.62152">
        <ele>261.6</ele>
        <time>2024-04-06T11:51:30Z</time>
      </trkpt>
      <trkpt lat="49.86948" lon="4.62138">
        <ele>261.6</ele>
        <time>2024-04-06T11:51:31Z</time>
      </trkpt>
      <trkpt lat="49.86948" lon="4.62124">
        <ele>261.6</ele>
        <time>2024-04-06T11:51:32Z</time>
      </trkpt>
      <trkpt lat="49.86949" lon="4.62109">
        <ele>261.6</ele>
        <time>2024-04-06T11:51:33Z</time>
      </trkpt>
      <trkpt lat="49.86949" lon="4.62094">
        <ele>261.6</ele>
        <time>2024-04-06T11:51:34Z</time>
      </trkpt>
      <trkpt lat="49.86948" lon="4.62075">
        <ele>261.4</ele>
        <time>2024-04-06T11:51:35Z</time>
      </trkpt>
      <trkpt lat="49.86947" lon="4.62055">
        <ele>261.2</ele>
        <time>2024-04-06T11:51:36Z</time>
      </trkpt>
      <trkpt lat="49.86946" lon="4.62036">
        <ele>261</ele>
        <time>2024-04-06T11:51:37Z</time>
      </trkpt>
      <trkpt lat="49.86946" lon="4.62018">
        <ele>260.6</ele>
        <time>2024-04-06T11:51:38Z</time>
      </trkpt>
      <trkpt lat="49.86945" lon="4.62">
        <ele>260</ele>
        <time>2024-04-06T11:51:39Z</time>
      </trkpt>
      <trkpt lat="49.86945" lon="4.61982">
        <ele>259.2</ele>
        <time>2024-04-06T11:51:40Z</time>
      </trkpt>
      <trkpt lat="49.86945" lon="4.61965">
        <ele>258.8</ele>
        <time>2024-04-06T11:51:41Z</time>
      </trkpt>
      <trkpt lat="49.86944" lon="4.61949">
        <ele>258.4</ele>
        <time>2024-04-06T11:51:42Z</time>
      </trkpt>
      <trkpt lat="49.86944" lon="4.61933">
        <ele>257.8</ele>
        <time>2024-04-06T11:51:43Z</time>
      </trkpt>
      <trkpt lat="49.86944" lon="4.61917">
        <ele>257.4</ele>
        <time>2024-04-06T11:51:44Z</time>
      </trkpt>
      <trkpt lat="49.86944" lon="4.61901">
        <ele>256.8</ele>
        <time>2024-04-06T11:51:45Z</time>
      </trkpt>
      <trkpt lat="49.86944" lon="4.61886">
        <ele>256</ele>
        <time>2024-04-06T11:51:46Z</time>
      </trkpt>
      <trkpt lat="49.86944" lon="4.61871">
        <ele>255</ele>
        <time>2024-04-06T11:51:47Z</time>
      </trkpt>
      <trkpt lat="49.86944" lon="4.61856">
        <ele>254.6</ele>
        <time>2024-04-06T11:51:48Z</time>
      </trkpt>
      <trkpt lat="49.86944" lon="4.6184">
        <ele>254.2</ele>
        <time>2024-04-06T11:51:49Z</time>
      </trkpt>
      <trkpt lat="49.86944" lon="4.61825">
        <ele>254.2</ele>
        <time>2024-04-06T11:51:50Z</time>
      </trkpt>
      <trkpt lat="49.86944" lon="4.6181">
        <ele>254</ele>
        <time>2024-04-06T11:51:51Z</time>
      </trkpt>
      <trkpt lat="49.86944" lon="4.61794">
        <ele>253.8</ele>
        <time>2024-04-06T11:51:52Z</time>
      </trkpt>
      <trkpt lat="49.86945" lon="4.61779">
        <ele>253.8</ele>
        <time>2024-04-06T11:51:53Z</time>
      </trkpt>
      <trkpt lat="49.86945" lon="4.61765">
        <ele>253.8</ele>
        <time>2024-04-06T11:51:54Z</time>
      </trkpt>
      <trkpt lat="49.86945" lon="4.61751">
        <ele>253.8</ele>
        <time>2024-04-06T11:51:55Z</time>
      </trkpt>
      <trkpt lat="49.86945" lon="4.61736">
        <ele>253.4</ele>
        <time>2024-04-06T11:51:56Z</time>
      </trkpt>
      <trkpt lat="49.86946" lon="4.61722">
        <ele>253.4</ele>
        <time>2024-04-06T11:51:57Z</time>
      </trkpt>
      <trkpt lat="49.86946" lon="4.61708">
        <ele>253.4</ele>
        <time>2024-04-06T11:51:58Z</time>
      </trkpt>
      <trkpt lat="49.86946" lon="4.61695">
        <ele>253.4</ele>
        <time>2024-04-06T11:51:59Z</time>
      </trkpt>
      <trkpt lat="49.86946" lon="4.61682">
        <ele>253.4</ele>
        <time>2024-04-06T11:52:00Z</time>
      </trkpt>
      <trkpt lat="49.86946" lon="4.61669">
        <ele>253.2</ele>
        <time>2024-04-06T11:52:01Z</time>
      </trkpt>
      <trkpt lat="49.86946" lon="4.61655">
        <ele>253.4</ele>
        <time>2024-04-06T11:52:02Z</time>
      </trkpt>
      <trkpt lat="49.86947" lon="4.61642">
        <ele>253.4</ele>
        <time>2024-04-06T11:52:03Z</time>
      </trkpt>
      <trkpt lat="49.86947" lon="4.61628">
        <ele>253.2</ele>
        <time>2024-04-06T11:52:04Z</time>
      </trkpt>
      <trkpt lat="49.86947" lon="4.61614">
        <ele>253.2</ele>
        <time>2024-04-06T11:52:05Z</time>
      </trkpt>
      <trkpt lat="49.86948" lon="4.61601">
        <ele>253</ele>
        <time>2024-04-06T11:52:06Z</time>
      </trkpt>
      <trkpt lat="49.86948" lon="4.61588">
        <ele>253</ele>
        <time>2024-04-06T11:52:07Z</time>
      </trkpt>
      <trkpt lat="49.86948" lon="4.61573">
        <ele>252.8</ele>
        <time>2024-04-06T11:52:08Z</time>
      </trkpt>
      <trkpt lat="49.86948" lon="4.61559">
        <ele>252.8</ele>
        <time>2024-04-06T11:52:09Z</time>
      </trkpt>
      <trkpt lat="49.86949" lon="4.61544">
        <ele>252.4</ele>
        <time>2024-04-06T11:52:10Z</time>
      </trkpt>
      <trkpt lat="49.8695" lon="4.61529">
        <ele>252.2</ele>
        <time>2024-04-06T11:52:11Z</time>
      </trkpt>
      <trkpt lat="49.8695" lon="4.61514">
        <ele>252</ele>
        <time>2024-04-06T11:52:12Z</time>
      </trkpt>
      <trkpt lat="49.86951" lon="4.61498">
        <ele>252</ele>
        <time>2024-04-06T11:52:13Z</time>
      </trkpt>
      <trkpt lat="49.86951" lon="4.61482">
        <ele>252</ele>
        <time>2024-04-06T11:52:14Z</time>
      </trkpt>
      <trkpt lat="49.86951" lon="4.61466">
        <ele>251.8</ele>
        <time>2024-04-06T11:52:15Z</time>
      </trkpt>
      <trkpt lat="49.86952" lon="4.61449">
        <ele>251.6</ele>
        <time>2024-04-06T11:52:16Z</time>
      </trkpt>
      <trkpt lat="49.86954" lon="4.61434">
        <ele>251.4</ele>
        <time>2024-04-06T11:52:17Z</time>
      </trkpt>
      <trkpt lat="49.86958" lon="4.61418">
        <ele>251</ele>
        <time>2024-04-06T11:52:18Z</time>
      </trkpt>
      <trkpt lat="49.86962" lon="4.61404">
        <ele>250.8</ele>
        <time>2024-04-06T11:52:19Z</time>
      </trkpt>
      <trkpt lat="49.86968" lon="4.61392">
        <ele>250.6</ele>
        <time>2024-04-06T11:52:20Z</time>
      </trkpt>
      <trkpt lat="49.86975" lon="4.6138">
        <ele>250.4</ele>
        <time>2024-04-06T11:52:21Z</time>
      </trkpt>
      <trkpt lat="49.86982" lon="4.61368">
        <ele>250.2</ele>
        <time>2024-04-06T11:52:22Z</time>
      </trkpt>
      <trkpt lat="49.86988" lon="4.61357">
        <ele>250.2</ele>
        <time>2024-04-06T11:52:23Z</time>
      </trkpt>
      <trkpt lat="49.86995" lon="4.61346">
        <ele>250</ele>
        <time>2024-04-06T11:52:24Z</time>
      </trkpt>
      <trkpt lat="49.87002" lon="4.61335">
        <ele>250</ele>
        <time>2024-04-06T11:52:25Z</time>
      </trkpt>
      <trkpt lat="49.87008" lon="4.61324">
        <ele>249.6</ele>
        <time>2024-04-06T11:52:26Z</time>
      </trkpt>
      <trkpt lat="49.87014" lon="4.61314">
        <ele>249.6</ele>
        <time>2024-04-06T11:52:27Z</time>
      </trkpt>
      <trkpt lat="49.87021" lon="4.61304">
        <ele>249.4</ele>
        <time>2024-04-06T11:52:28Z</time>
      </trkpt>
      <trkpt lat="49.87027" lon="4.61294">
        <ele>249.4</ele>
        <time>2024-04-06T11:52:29Z</time>
      </trkpt>
      <trkpt lat="49.87033" lon="4.61285">
        <ele>249.4</ele>
        <time>2024-04-06T11:52:30Z</time>
      </trkpt>
      <trkpt lat="49.87039" lon="4.61275">
        <ele>249.4</ele>
        <time>2024-04-06T11:52:31Z</time>
      </trkpt>
      <trkpt lat="49.87045" lon="4.61265">
        <ele>249.4</ele>
        <time>2024-04-06T11:52:32Z</time>
      </trkpt>
      <trkpt lat="49.87052" lon="4.61255">
        <ele>249.4</ele>
        <time>2024-04-06T11:52:33Z</time>
      </trkpt>
      <trkpt lat="49.87058" lon="4.61246">
        <ele>249.4</ele>
        <time>2024-04-06T11:52:34Z</time>
      </trkpt>
      <trkpt lat="49.87063" lon="4.61236">
        <ele>249.4</ele>
        <time>2024-04-06T11:52:35Z</time>
      </trkpt>
      <trkpt lat="49.87069" lon="4.61227">
        <ele>249.4</ele>
        <time>2024-04-06T11:52:36Z</time>
      </trkpt>
      <trkpt lat="49.87074" lon="4.61218">
        <ele>249.6</ele>
        <time>2024-04-06T11:52:37Z</time>
      </trkpt>
      <trkpt lat="49.8708" lon="4.61208">
        <ele>249.6</ele>
        <time>2024-04-06T11:52:38Z</time>
      </trkpt>
      <trkpt lat="49.87085" lon="4.61199">
        <ele>249.6</ele>
        <time>2024-04-06T11:52:39Z</time>
      </trkpt>
      <trkpt lat="49.8709" lon="4.61191">
        <ele>249.8</ele>
        <time>2024-04-06T11:52:40Z</time>
      </trkpt>
      <trkpt lat="49.87096" lon="4.61182">
        <ele>249.8</ele>
        <time>2024-04-06T11:52:41Z</time>
      </trkpt>
      <trkpt lat="49.87102" lon="4.61173">
        <ele>249.8</ele>
        <time>2024-04-06T11:52:42Z</time>
      </trkpt>
      <trkpt lat="49.87107" lon="4.61164">
        <ele>250</ele>
        <time>2024-04-06T11:52:43Z</time>
      </trkpt>
      <trkpt lat="49.87113" lon="4.61156">
        <ele>250</ele>
        <time>2024-04-06T11:52:44Z</time>
      </trkpt>
      <trkpt lat="49.87118" lon="4.61147">
        <ele>250.2</ele>
        <time>2024-04-06T11:52:45Z</time>
      </trkpt>
      <trkpt lat="49.87123" lon="4.61139">
        <ele>250.4</ele>
        <time>2024-04-06T11:52:46Z</time>
      </trkpt>
      <trkpt lat="49.87128" lon="4.6113">
        <ele>250.4</ele>
        <time>2024-04-06T11:52:47Z</time>
      </trkpt>
      <trkpt lat="49.87132" lon="4.61121">
        <ele>250.4</ele>
        <time>2024-04-06T11:52:48Z</time>
      </trkpt>
      <trkpt lat="49.87136" lon="4.61111">
        <ele>250.6</ele>
        <time>2024-04-06T11:52:49Z</time>
      </trkpt>
      <trkpt lat="49.8714" lon="4.611">
        <ele>250.6</ele>
        <time>2024-04-06T11:52:50Z</time>
      </trkpt>
      <trkpt lat="49.87144" lon="4.61089">
        <ele>250.8</ele>
        <time>2024-04-06T11:52:51Z</time>
      </trkpt>
      <trkpt lat="49.87146" lon="4.61077">
        <ele>250.8</ele>
        <time>2024-04-06T11:52:52Z</time>
      </trkpt>
      <trkpt lat="49.87148" lon="4.61065">
        <ele>250.8</ele>
        <time>2024-04-06T11:52:53Z</time>
      </trkpt>
      <trkpt lat="49.8715" lon="4.61053">
        <ele>251</ele>
        <time>2024-04-06T11:52:54Z</time>
      </trkpt>
      <trkpt lat="49.87151" lon="4.6104">
        <ele>251</ele>
        <time>2024-04-06T11:52:55Z</time>
      </trkpt>
      <trkpt lat="49.87153" lon="4.61028">
        <ele>251.2</ele>
        <time>2024-04-06T11:52:56Z</time>
      </trkpt>
      <trkpt lat="49.87155" lon="4.61015">
        <ele>251.4</ele>
        <time>2024-04-06T11:52:57Z</time>
      </trkpt>
      <trkpt lat="49.87157" lon="4.61003">
        <ele>251.6</ele>
        <time>2024-04-06T11:52:58Z</time>
      </trkpt>
      <trkpt lat="49.87159" lon="4.6099">
        <ele>251.8</ele>
        <time>2024-04-06T11:52:59Z</time>
      </trkpt>
      <trkpt lat="49.87161" lon="4.60977">
        <ele>251.8</ele>
        <time>2024-04-06T11:53:00Z</time>
      </trkpt>
      <trkpt lat="49.87163" lon="4.60964">
        <ele>252</ele>
        <time>2024-04-06T11:53:01Z</time>
      </trkpt>
      <trkpt lat="49.87165" lon="4.60951">
        <ele>252.2</ele>
        <time>2024-04-06T11:53:02Z</time>
      </trkpt>
      <trkpt lat="49.87167" lon="4.60939">
        <ele>252.2</ele>
        <time>2024-04-06T11:53:03Z</time>
      </trkpt>
      <trkpt lat="49.87169" lon="4.60926">
        <ele>252.2</ele>
        <time>2024-04-06T11:53:04Z</time>
      </trkpt>
      <trkpt lat="49.87171" lon="4.60913">
        <ele>252.2</ele>
        <time>2024-04-06T11:53:05Z</time>
      </trkpt>
      <trkpt lat="49.87173" lon="4.609">
        <ele>252.4</ele>
        <time>2024-04-06T11:53:06Z</time>
      </trkpt>
      <trkpt lat="49.87174" lon="4.60887">
        <ele>252.4</ele>
        <time>2024-04-06T11:53:07Z</time>
      </trkpt>
      <trkpt lat="49.87176" lon="4.60875">
        <ele>252.2</ele>
        <time>2024-04-06T11:53:08Z</time>
      </trkpt>
      <trkpt lat="49.87177" lon="4.60862">
        <ele>252</ele>
        <time>2024-04-06T11:53:09Z</time>
      </trkpt>
      <trkpt lat="49.87178" lon="4.6085">
        <ele>252.2</ele>
        <time>2024-04-06T11:53:10Z</time>
      </trkpt>
      <trkpt lat="49.8718" lon="4.60838">
        <ele>252</ele>
        <time>2024-04-06T11:53:11Z</time>
      </trkpt>
      <trkpt lat="49.87181" lon="4.60827">
        <ele>252</ele>
        <time>2024-04-06T11:53:12Z</time>
      </trkpt>
      <trkpt lat="49.87183" lon="4.60817">
        <ele>251.8</ele>
        <time>2024-04-06T11:53:13Z</time>
      </trkpt>
      <trkpt lat="49.87184" lon="4.60806">
        <ele>252</ele>
        <time>2024-04-06T11:53:14Z</time>
      </trkpt>
      <trkpt lat="49.87186" lon="4.60796">
        <ele>252</ele>
        <time>2024-04-06T11:53:15Z</time>
      </trkpt>
      <trkpt lat="49.87188" lon="4.60786">
        <ele>251.8</ele>
        <time>2024-04-06T11:53:16Z</time>
      </trkpt>
      <trkpt lat="49.87189" lon="4.60776">
        <ele>252</ele>
        <time>2024-04-06T11:53:17Z</time>
      </trkpt>
      <trkpt lat="49.87191" lon="4.60766">
        <ele>252</ele>
        <time>2024-04-06T11:53:18Z</time>
      </trkpt>
      <trkpt lat="49.87192" lon="4.60755">
        <ele>252</ele>
        <time>2024-04-06T11:53:19Z</time>
      </trkpt>
      <trkpt lat="49.87193" lon="4.60745">
        <ele>252</ele>
        <time>2024-04-06T11:53:20Z</time>
      </trkpt>
      <trkpt lat="49.87195" lon="4.60734">
        <ele>252</ele>
        <time>2024-04-06T11:53:21Z</time>
      </trkpt>
      <trkpt lat="49.87196" lon="4.60723">
        <ele>252</ele>
        <time>2024-04-06T11:53:22Z</time>
      </trkpt>
      <trkpt lat="49.87198" lon="4.60712">
        <ele>252</ele>
        <time>2024-04-06T11:53:23Z</time>
      </trkpt>
      <trkpt lat="49.87199" lon="4.60701">
        <ele>252.2</ele>
        <time>2024-04-06T11:53:24Z</time>
      </trkpt>
      <trkpt lat="49.87201" lon="4.60689">
        <ele>252.6</ele>
        <time>2024-04-06T11:53:25Z</time>
      </trkpt>
      <trkpt lat="49.87203" lon="4.60677">
        <ele>253.6</ele>
        <time>2024-04-06T11:53:26Z</time>
      </trkpt>
      <trkpt lat="49.87205" lon="4.60665">
        <ele>254.6</ele>
        <time>2024-04-06T11:53:27Z</time>
      </trkpt>
      <trkpt lat="49.87206" lon="4.60653">
        <ele>254.8</ele>
        <time>2024-04-06T11:53:28Z</time>
      </trkpt>
      <trkpt lat="49.87208" lon="4.60641">
        <ele>255.2</ele>
        <time>2024-04-06T11:53:29Z</time>
      </trkpt>
      <trkpt lat="49.8721" lon="4.60629">
        <ele>255.2</ele>
        <time>2024-04-06T11:53:30Z</time>
      </trkpt>
      <trkpt lat="49.87212" lon="4.60617">
        <ele>255.4</ele>
        <time>2024-04-06T11:53:31Z</time>
      </trkpt>
      <trkpt lat="49.87214" lon="4.60606">
        <ele>255.6</ele>
        <time>2024-04-06T11:53:32Z</time>
      </trkpt>
      <trkpt lat="49.87216" lon="4.60594">
        <ele>255.8</ele>
        <time>2024-04-06T11:53:33Z</time>
      </trkpt>
      <trkpt lat="49.87218" lon="4.60583">
        <ele>256</ele>
        <time>2024-04-06T11:53:34Z</time>
      </trkpt>
      <trkpt lat="49.8722" lon="4.60571">
        <ele>256</ele>
        <time>2024-04-06T11:53:35Z</time>
      </trkpt>
      <trkpt lat="49.87221" lon="4.60559">
        <ele>256</ele>
        <time>2024-04-06T11:53:36Z</time>
      </trkpt>
      <trkpt lat="49.87223" lon="4.60548">
        <ele>256</ele>
        <time>2024-04-06T11:53:37Z</time>
      </trkpt>
      <trkpt lat="49.87225" lon="4.60536">
        <ele>256.2</ele>
        <time>2024-04-06T11:53:38Z</time>
      </trkpt>
      <trkpt lat="49.87226" lon="4.60524">
        <ele>256.4</ele>
        <time>2024-04-06T11:53:39Z</time>
      </trkpt>
      <trkpt lat="49.87228" lon="4.60512">
        <ele>256.4</ele>
        <time>2024-04-06T11:53:40Z</time>
      </trkpt>
      <trkpt lat="49.8723" lon="4.605">
        <ele>256.4</ele>
        <time>2024-04-06T11:53:41Z</time>
      </trkpt>
      <trkpt lat="49.87231" lon="4.60488">
        <ele>256.2</ele>
        <time>2024-04-06T11:53:42Z</time>
      </trkpt>
      <trkpt lat="49.87233" lon="4.60476">
        <ele>256.4</ele>
        <time>2024-04-06T11:53:43Z</time>
      </trkpt>
      <trkpt lat="49.87234" lon="4.60464">
        <ele>256.4</ele>
        <time>2024-04-06T11:53:44Z</time>
      </trkpt>
      <trkpt lat="49.87236" lon="4.60452">
        <ele>256.2</ele>
        <time>2024-04-06T11:53:45Z</time>
      </trkpt>
      <trkpt lat="49.87238" lon="4.6044">
        <ele>256.2</ele>
        <time>2024-04-06T11:53:46Z</time>
      </trkpt>
      <trkpt lat="49.87239" lon="4.60428">
        <ele>256.4</ele>
        <time>2024-04-06T11:53:47Z</time>
      </trkpt>
      <trkpt lat="49.87241" lon="4.60416">
        <ele>256.2</ele>
        <time>2024-04-06T11:53:48Z</time>
      </trkpt>
      <trkpt lat="49.87243" lon="4.60404">
        <ele>256.2</ele>
        <time>2024-04-06T11:53:49Z</time>
      </trkpt>
      <trkpt lat="49.87245" lon="4.60391">
        <ele>256.2</ele>
        <time>2024-04-06T11:53:50Z</time>
      </trkpt>
      <trkpt lat="49.87247" lon="4.60378">
        <ele>256</ele>
        <time>2024-04-06T11:53:51Z</time>
      </trkpt>
      <trkpt lat="49.87249" lon="4.60365">
        <ele>256</ele>
        <time>2024-04-06T11:53:52Z</time>
      </trkpt>
      <trkpt lat="49.87251" lon="4.60351">
        <ele>256</ele>
        <time>2024-04-06T11:53:53Z</time>
      </trkpt>
      <trkpt lat="49.87253" lon="4.60338">
        <ele>255.8</ele>
        <time>2024-04-06T11:53:54Z</time>
      </trkpt>
      <trkpt lat="49.87255" lon="4.60324">
        <ele>255.8</ele>
        <time>2024-04-06T11:53:55Z</time>
      </trkpt>
      <trkpt lat="49.87257" lon="4.6031">
        <ele>255.4</ele>
        <time>2024-04-06T11:53:56Z</time>
      </trkpt>
      <trkpt lat="49.87259" lon="4.60297">
        <ele>255.4</ele>
        <time>2024-04-06T11:53:57Z</time>
      </trkpt>
      <trkpt lat="49.87261" lon="4.60284">
        <ele>255.2</ele>
        <time>2024-04-06T11:53:58Z</time>
      </trkpt>
      <trkpt lat="49.87262" lon="4.6027">
        <ele>255</ele>
        <time>2024-04-06T11:53:59Z</time>
      </trkpt>
      <trkpt lat="49.87265" lon="4.60256">
        <ele>254.8</ele>
        <time>2024-04-06T11:54:00Z</time>
      </trkpt>
      <trkpt lat="49.87267" lon="4.60242">
        <ele>254.8</ele>
        <time>2024-04-06T11:54:01Z</time>
      </trkpt>
      <trkpt lat="49.87269" lon="4.60227">
        <ele>254.8</ele>
        <time>2024-04-06T11:54:02Z</time>
      </trkpt>
      <trkpt lat="49.87271" lon="4.60213">
        <ele>254.8</ele>
        <time>2024-04-06T11:54:03Z</time>
      </trkpt>
      <trkpt lat="49.87273" lon="4.60198">
        <ele>254.8</ele>
        <time>2024-04-06T11:54:04Z</time>
      </trkpt>
      <trkpt lat="49.87275" lon="4.60183">
        <ele>254.4</ele>
        <time>2024-04-06T11:54:05Z</time>
      </trkpt>
      <trkpt lat="49.87278" lon="4.60167">
        <ele>254.4</ele>
        <time>2024-04-06T11:54:06Z</time>
      </trkpt>
      <trkpt lat="49.8728" lon="4.60152">
        <ele>254.2</ele>
        <time>2024-04-06T11:54:07Z</time>
      </trkpt>
      <trkpt lat="49.87282" lon="4.60136">
        <ele>254</ele>
        <time>2024-04-06T11:54:08Z</time>
      </trkpt>
      <trkpt lat="49.87285" lon="4.60119">
        <ele>253.6</ele>
        <time>2024-04-06T11:54:09Z</time>
      </trkpt>
      <trkpt lat="49.87287" lon="4.60103">
        <ele>253.4</ele>
        <time>2024-04-06T11:54:10Z</time>
      </trkpt>
      <trkpt lat="49.8729" lon="4.60087">
        <ele>253.4</ele>
        <time>2024-04-06T11:54:11Z</time>
      </trkpt>
      <trkpt lat="49.87292" lon="4.60071">
        <ele>253.2</ele>
        <time>2024-04-06T11:54:12Z</time>
      </trkpt>
      <trkpt lat="49.87294" lon="4.60056">
        <ele>252.4</ele>
        <time>2024-04-06T11:54:13Z</time>
      </trkpt>
      <trkpt lat="49.87296" lon="4.6004">
        <ele>251.6</ele>
        <time>2024-04-06T11:54:14Z</time>
      </trkpt>
      <trkpt lat="49.87298" lon="4.60025">
        <ele>251</ele>
        <time>2024-04-06T11:54:15Z</time>
      </trkpt>
      <trkpt lat="49.87301" lon="4.6001">
        <ele>250.6</ele>
        <time>2024-04-06T11:54:16Z</time>
      </trkpt>
      <trkpt lat="49.87303" lon="4.59996">
        <ele>250.4</ele>
        <time>2024-04-06T11:54:17Z</time>
      </trkpt>
      <trkpt lat="49.87305" lon="4.59981">
        <ele>250</ele>
        <time>2024-04-06T11:54:18Z</time>
      </trkpt>
      <trkpt lat="49.87307" lon="4.59967">
        <ele>250</ele>
        <time>2024-04-06T11:54:19Z</time>
      </trkpt>
      <trkpt lat="49.87309" lon="4.59953">
        <ele>250</ele>
        <time>2024-04-06T11:54:20Z</time>
      </trkpt>
      <trkpt lat="49.87311" lon="4.5994">
        <ele>250</ele>
        <time>2024-04-06T11:54:21Z</time>
      </trkpt>
      <trkpt lat="49.87313" lon="4.59926">
        <ele>249.8</ele>
        <time>2024-04-06T11:54:22Z</time>
      </trkpt>
      <trkpt lat="49.87315" lon="4.59913">
        <ele>249.6</ele>
        <time>2024-04-06T11:54:23Z</time>
      </trkpt>
      <trkpt lat="49.87317" lon="4.59899">
        <ele>249.8</ele>
        <time>2024-04-06T11:54:24Z</time>
      </trkpt>
      <trkpt lat="49.8732" lon="4.59885">
        <ele>249.6</ele>
        <time>2024-04-06T11:54:25Z</time>
      </trkpt>
      <trkpt lat="49.87323" lon="4.59872">
        <ele>249.6</ele>
        <time>2024-04-06T11:54:26Z</time>
      </trkpt>
      <trkpt lat="49.87327" lon="4.59859">
        <ele>249.6</ele>
        <time>2024-04-06T11:54:27Z</time>
      </trkpt>
      <trkpt lat="49.8733" lon="4.59845">
        <ele>249.6</ele>
        <time>2024-04-06T11:54:28Z</time>
      </trkpt>
      <trkpt lat="49.87333" lon="4.59832">
        <ele>249.6</ele>
        <time>2024-04-06T11:54:29Z</time>
      </trkpt>
      <trkpt lat="49.87336" lon="4.59818">
        <ele>249.6</ele>
        <time>2024-04-06T11:54:30Z</time>
      </trkpt>
      <trkpt lat="49.87339" lon="4.59804">
        <ele>249.6</ele>
        <time>2024-04-06T11:54:31Z</time>
      </trkpt>
      <trkpt lat="49.87342" lon="4.59791">
        <ele>249.6</ele>
        <time>2024-04-06T11:54:32Z</time>
      </trkpt>
      <trkpt lat="49.87344" lon="4.59778">
        <ele>249.8</ele>
        <time>2024-04-06T11:54:33Z</time>
      </trkpt>
      <trkpt lat="49.87346" lon="4.59764">
        <ele>249.8</ele>
        <time>2024-04-06T11:54:34Z</time>
      </trkpt>
      <trkpt lat="49.87347" lon="4.59752">
        <ele>249.8</ele>
        <time>2024-04-06T11:54:35Z</time>
      </trkpt>
      <trkpt lat="49.87348" lon="4.59739">
        <ele>249.8</ele>
        <time>2024-04-06T11:54:36Z</time>
      </trkpt>
      <trkpt lat="49.87348" lon="4.59727">
        <ele>250</ele>
        <time>2024-04-06T11:54:37Z</time>
      </trkpt>
      <trkpt lat="49.87348" lon="4.59715">
        <ele>250</ele>
        <time>2024-04-06T11:54:38Z</time>
      </trkpt>
      <trkpt lat="49.87349" lon="4.59703">
        <ele>249.8</ele>
        <time>2024-04-06T11:54:39Z</time>
      </trkpt>
      <trkpt lat="49.87349" lon="4.5969">
        <ele>250</ele>
        <time>2024-04-06T11:54:40Z</time>
      </trkpt>
      <trkpt lat="49.87349" lon="4.59677">
        <ele>250</ele>
        <time>2024-04-06T11:54:41Z</time>
      </trkpt>
      <trkpt lat="49.8735" lon="4.59664">
        <ele>250</ele>
        <time>2024-04-06T11:54:42Z</time>
      </trkpt>
      <trkpt lat="49.8735" lon="4.59651">
        <ele>250</ele>
        <time>2024-04-06T11:54:43Z</time>
      </trkpt>
      <trkpt lat="49.8735" lon="4.59638">
        <ele>250.6</ele>
        <time>2024-04-06T11:54:44Z</time>
      </trkpt>
      <trkpt lat="49.87351" lon="4.59625">
        <ele>250.8</ele>
        <time>2024-04-06T11:54:45Z</time>
      </trkpt>
      <trkpt lat="49.87351" lon="4.59612">
        <ele>251</ele>
        <time>2024-04-06T11:54:46Z</time>
      </trkpt>
      <trkpt lat="49.87351" lon="4.59598">
        <ele>251.4</ele>
        <time>2024-04-06T11:54:47Z</time>
      </trkpt>
      <trkpt lat="49.87351" lon="4.59585">
        <ele>251.4</ele>
        <time>2024-04-06T11:54:48Z</time>
      </trkpt>
      <trkpt lat="49.87351" lon="4.59572">
        <ele>251.4</ele>
        <time>2024-04-06T11:54:49Z</time>
      </trkpt>
      <trkpt lat="49.8735" lon="4.59558">
        <ele>251.6</ele>
        <time>2024-04-06T11:54:50Z</time>
      </trkpt>
      <trkpt lat="49.8735" lon="4.59544">
        <ele>251.6</ele>
        <time>2024-04-06T11:54:51Z</time>
      </trkpt>
      <trkpt lat="49.87349" lon="4.5953">
        <ele>251.6</ele>
        <time>2024-04-06T11:54:52Z</time>
      </trkpt>
      <trkpt lat="49.87349" lon="4.59514">
        <ele>251.8</ele>
        <time>2024-04-06T11:54:53Z</time>
      </trkpt>
      <trkpt lat="49.8735" lon="4.59499">
        <ele>251.6</ele>
        <time>2024-04-06T11:54:54Z</time>
      </trkpt>
      <trkpt lat="49.87351" lon="4.59484">
        <ele>251.8</ele>
        <time>2024-04-06T11:54:55Z</time>
      </trkpt>
      <trkpt lat="49.87353" lon="4.59468">
        <ele>251.6</ele>
        <time>2024-04-06T11:54:56Z</time>
      </trkpt>
      <trkpt lat="49.87355" lon="4.59453">
        <ele>251.6</ele>
        <time>2024-04-06T11:54:57Z</time>
      </trkpt>
      <trkpt lat="49.87357" lon="4.59438">
        <ele>251.4</ele>
        <time>2024-04-06T11:54:58Z</time>
      </trkpt>
      <trkpt lat="49.8736" lon="4.59424">
        <ele>251.4</ele>
        <time>2024-04-06T11:54:59Z</time>
      </trkpt>
      <trkpt lat="49.87363" lon="4.59409">
        <ele>251.4</ele>
        <time>2024-04-06T11:55:00Z</time>
      </trkpt>
      <trkpt lat="49.87367" lon="4.59396">
        <ele>251</ele>
        <time>2024-04-06T11:55:01Z</time>
      </trkpt>
      <trkpt lat="49.87371" lon="4.59383">
        <ele>250.4</ele>
        <time>2024-04-06T11:55:02Z</time>
      </trkpt>
      <trkpt lat="49.87375" lon="4.5937">
        <ele>250</ele>
        <time>2024-04-06T11:55:03Z</time>
      </trkpt>
      <trkpt lat="49.87379" lon="4.59357">
        <ele>249.6</ele>
        <time>2024-04-06T11:55:04Z</time>
      </trkpt>
      <trkpt lat="49.87383" lon="4.59344">
        <ele>249.4</ele>
        <time>2024-04-06T11:55:05Z</time>
      </trkpt>
      <trkpt lat="49.87388" lon="4.59332">
        <ele>249.4</ele>
        <time>2024-04-06T11:55:06Z</time>
      </trkpt>
      <trkpt lat="49.87392" lon="4.59319">
        <ele>249.4</ele>
        <time>2024-04-06T11:55:07Z</time>
      </trkpt>
      <trkpt lat="49.87396" lon="4.59307">
        <ele>249.4</ele>
        <time>2024-04-06T11:55:08Z</time>
      </trkpt>
      <trkpt lat="49.87401" lon="4.59294">
        <ele>249.2</ele>
        <time>2024-04-06T11:55:09Z</time>
      </trkpt>
      <trkpt lat="49.87405" lon="4.59282">
        <ele>249.2</ele>
        <time>2024-04-06T11:55:10Z</time>
      </trkpt>
      <trkpt lat="49.8741" lon="4.5927">
        <ele>249.2</ele>
        <time>2024-04-06T11:55:11Z</time>
      </trkpt>
      <trkpt lat="49.87414" lon="4.59257">
        <ele>249.2</ele>
        <time>2024-04-06T11:55:12Z</time>
      </trkpt>
      <trkpt lat="49.87419" lon="4.59245">
        <ele>249.2</ele>
        <time>2024-04-06T11:55:13Z</time>
      </trkpt>
      <trkpt lat="49.87423" lon="4.59232">
        <ele>249.2</ele>
        <time>2024-04-06T11:55:14Z</time>
      </trkpt>
      <trkpt lat="49.87428" lon="4.5922">
        <ele>249.4</ele>
        <time>2024-04-06T11:55:15Z</time>
      </trkpt>
      <trkpt lat="49.87432" lon="4.59207">
        <ele>249.4</ele>
        <time>2024-04-06T11:55:16Z</time>
      </trkpt>
      <trkpt lat="49.87436" lon="4.59194">
        <ele>249.6</ele>
        <time>2024-04-06T11:55:17Z</time>
      </trkpt>
      <trkpt lat="49.87441" lon="4.59182">
        <ele>249.6</ele>
        <time>2024-04-06T11:55:18Z</time>
      </trkpt>
      <trkpt lat="49.87445" lon="4.59169">
        <ele>249.8</ele>
        <time>2024-04-06T11:55:19Z</time>
      </trkpt>
      <trkpt lat="49.87449" lon="4.59157">
        <ele>249.8</ele>
        <time>2024-04-06T11:55:20Z</time>
      </trkpt>
      <trkpt lat="49.87454" lon="4.59144">
        <ele>249.8</ele>
        <time>2024-04-06T11:55:21Z</time>
      </trkpt>
      <trkpt lat="49.87459" lon="4.59132">
        <ele>249.8</ele>
        <time>2024-04-06T11:55:22Z</time>
      </trkpt>
      <trkpt lat="49.87464" lon="4.5912">
        <ele>249.8</ele>
        <time>2024-04-06T11:55:23Z</time>
      </trkpt>
      <trkpt lat="49.87469" lon="4.59109">
        <ele>250</ele>
        <time>2024-04-06T11:55:24Z</time>
      </trkpt>
      <trkpt lat="49.87474" lon="4.59097">
        <ele>250</ele>
        <time>2024-04-06T11:55:25Z</time>
      </trkpt>
      <trkpt lat="49.8748" lon="4.59086">
        <ele>250</ele>
        <time>2024-04-06T11:55:26Z</time>
      </trkpt>
      <trkpt lat="49.87485" lon="4.59075">
        <ele>249.8</ele>
        <time>2024-04-06T11:55:27Z</time>
      </trkpt>
      <trkpt lat="49.8749" lon="4.59063">
        <ele>249.8</ele>
        <time>2024-04-06T11:55:28Z</time>
      </trkpt>
      <trkpt lat="49.87496" lon="4.59052">
        <ele>250</ele>
        <time>2024-04-06T11:55:29Z</time>
      </trkpt>
      <trkpt lat="49.87501" lon="4.59041">
        <ele>250</ele>
        <time>2024-04-06T11:55:30Z</time>
      </trkpt>
      <trkpt lat="49.87507" lon="4.5903">
        <ele>250</ele>
        <time>2024-04-06T11:55:31Z</time>
      </trkpt>
      <trkpt lat="49.87512" lon="4.59019">
        <ele>250</ele>
        <time>2024-04-06T11:55:32Z</time>
      </trkpt>
      <trkpt lat="49.87518" lon="4.59009">
        <ele>250.2</ele>
        <time>2024-04-06T11:55:33Z</time>
      </trkpt>
      <trkpt lat="49.87525" lon="4.58999">
        <ele>250.2</ele>
        <time>2024-04-06T11:55:34Z</time>
      </trkpt>
      <trkpt lat="49.87532" lon="4.5899">
        <ele>250</ele>
        <time>2024-04-06T11:55:35Z</time>
      </trkpt>
      <trkpt lat="49.87541" lon="4.58982">
        <ele>250</ele>
        <time>2024-04-06T11:55:36Z</time>
      </trkpt>
      <trkpt lat="49.8755" lon="4.58975">
        <ele>250.2</ele>
        <time>2024-04-06T11:55:37Z</time>
      </trkpt>
      <trkpt lat="49.87559" lon="4.5897">
        <ele>250.2</ele>
        <time>2024-04-06T11:55:38Z</time>
      </trkpt>
      <trkpt lat="49.87569" lon="4.58967">
        <ele>250.2</ele>
        <time>2024-04-06T11:55:39Z</time>
      </trkpt>
      <trkpt lat="49.87579" lon="4.58965">
        <ele>250</ele>
        <time>2024-04-06T11:55:40Z</time>
      </trkpt>
      <trkpt lat="49.8759" lon="4.58964">
        <ele>249.6</ele>
        <time>2024-04-06T11:55:41Z</time>
      </trkpt>
      <trkpt lat="49.87601" lon="4.58965">
        <ele>249.4</ele>
        <time>2024-04-06T11:55:42Z</time>
      </trkpt>
      <trkpt lat="49.87612" lon="4.58966">
        <ele>249</ele>
        <time>2024-04-06T11:55:43Z</time>
      </trkpt>
      <trkpt lat="49.87624" lon="4.58967">
        <ele>248.8</ele>
        <time>2024-04-06T11:55:44Z</time>
      </trkpt>
      <trkpt lat="49.87635" lon="4.58967">
        <ele>248.8</ele>
        <time>2024-04-06T11:55:45Z</time>
      </trkpt>
      <trkpt lat="49.87646" lon="4.58969">
        <ele>248.2</ele>
        <time>2024-04-06T11:55:46Z</time>
      </trkpt>
      <trkpt lat="49.87656" lon="4.58972">
        <ele>248.2</ele>
        <time>2024-04-06T11:55:47Z</time>
      </trkpt>
      <trkpt lat="49.87666" lon="4.58977">
        <ele>247.8</ele>
        <time>2024-04-06T11:55:48Z</time>
      </trkpt>
      <trkpt lat="49.87676" lon="4.58981">
        <ele>247.6</ele>
        <time>2024-04-06T11:55:49Z</time>
      </trkpt>
      <trkpt lat="49.87686" lon="4.58986">
        <ele>247.4</ele>
        <time>2024-04-06T11:55:50Z</time>
      </trkpt>
      <trkpt lat="49.87695" lon="4.5899">
        <ele>246.8</ele>
        <time>2024-04-06T11:55:51Z</time>
      </trkpt>
      <trkpt lat="49.87705" lon="4.58994">
        <ele>246.2</ele>
        <time>2024-04-06T11:55:52Z</time>
      </trkpt>
      <trkpt lat="49.87715" lon="4.58996">
        <ele>246.2</ele>
        <time>2024-04-06T11:55:53Z</time>
      </trkpt>
      <trkpt lat="49.87725" lon="4.58997">
        <ele>245.8</ele>
        <time>2024-04-06T11:55:54Z</time>
      </trkpt>
      <trkpt lat="49.87734" lon="4.58997">
        <ele>245.4</ele>
        <time>2024-04-06T11:55:55Z</time>
      </trkpt>
      <trkpt lat="49.87744" lon="4.58998">
        <ele>245.2</ele>
        <time>2024-04-06T11:55:56Z</time>
      </trkpt>
      <trkpt lat="49.87754" lon="4.58998">
        <ele>245</ele>
        <time>2024-04-06T11:55:57Z</time>
      </trkpt>
      <trkpt lat="49.87764" lon="4.58998">
        <ele>244.8</ele>
        <time>2024-04-06T11:55:58Z</time>
      </trkpt>
      <trkpt lat="49.87774" lon="4.58998">
        <ele>244.6</ele>
        <time>2024-04-06T11:55:59Z</time>
      </trkpt>
      <trkpt lat="49.87784" lon="4.58996">
        <ele>244.4</ele>
        <time>2024-04-06T11:56:00Z</time>
      </trkpt>
      <trkpt lat="49.87794" lon="4.58994">
        <ele>244.4</ele>
        <time>2024-04-06T11:56:01Z</time>
      </trkpt>
      <trkpt lat="49.87803" lon="4.5899">
        <ele>244.2</ele>
        <time>2024-04-06T11:56:02Z</time>
      </trkpt>
      <trkpt lat="49.87813" lon="4.58988">
        <ele>244.2</ele>
        <time>2024-04-06T11:56:03Z</time>
      </trkpt>
      <trkpt lat="49.87822" lon="4.58989">
        <ele>244</ele>
        <time>2024-04-06T11:56:04Z</time>
      </trkpt>
      <trkpt lat="49.87831" lon="4.58994">
        <ele>244</ele>
        <time>2024-04-06T11:56:05Z</time>
      </trkpt>
      <trkpt lat="49.87838" lon="4.59">
        <ele>244</ele>
        <time>2024-04-06T11:56:06Z</time>
      </trkpt>
      <trkpt lat="49.87844" lon="4.59009">
        <ele>244</ele>
        <time>2024-04-06T11:56:07Z</time>
      </trkpt>
      <trkpt lat="49.87849" lon="4.5902">
        <ele>244</ele>
        <time>2024-04-06T11:56:08Z</time>
      </trkpt>
      <trkpt lat="49.87853" lon="4.5903">
        <ele>244</ele>
        <time>2024-04-06T11:56:09Z</time>
      </trkpt>
      <trkpt lat="49.87857" lon="4.59041">
        <ele>244</ele>
        <time>2024-04-06T11:56:10Z</time>
      </trkpt>
      <trkpt lat="49.87861" lon="4.5905">
        <ele>244</ele>
        <time>2024-04-06T11:56:11Z</time>
      </trkpt>
      <trkpt lat="49.87865" lon="4.59059">
        <ele>244.2</ele>
        <time>2024-04-06T11:56:12Z</time>
      </trkpt>
      <trkpt lat="49.87869" lon="4.59068">
        <ele>244</ele>
        <time>2024-04-06T11:56:13Z</time>
      </trkpt>
      <trkpt lat="49.87874" lon="4.59076">
        <ele>244</ele>
        <time>2024-04-06T11:56:14Z</time>
      </trkpt>
      <trkpt lat="49.87881" lon="4.59082">
        <ele>244</ele>
        <time>2024-04-06T11:56:15Z</time>
      </trkpt>
      <trkpt lat="49.87887" lon="4.59087">
        <ele>244</ele>
        <time>2024-04-06T11:56:16Z</time>
      </trkpt>
      <trkpt lat="49.87894" lon="4.59091">
        <ele>244</ele>
        <time>2024-04-06T11:56:17Z</time>
      </trkpt>
      <trkpt lat="49.87901" lon="4.59094">
        <ele>244.2</ele>
        <time>2024-04-06T11:56:18Z</time>
      </trkpt>
      <trkpt lat="49.87908" lon="4.59098">
        <ele>244.8</ele>
        <time>2024-04-06T11:56:19Z</time>
      </trkpt>
      <trkpt lat="49.87915" lon="4.59102">
        <ele>245.6</ele>
        <time>2024-04-06T11:56:20Z</time>
      </trkpt>
      <trkpt lat="49.87923" lon="4.59105">
        <ele>246.6</ele>
        <time>2024-04-06T11:56:21Z</time>
      </trkpt>
      <trkpt lat="49.8793" lon="4.59107">
        <ele>247.2</ele>
        <time>2024-04-06T11:56:22Z</time>
      </trkpt>
      <trkpt lat="49.87937" lon="4.5911">
        <ele>247.8</ele>
        <time>2024-04-06T11:56:23Z</time>
      </trkpt>
      <trkpt lat="49.87944" lon="4.59112">
        <ele>248</ele>
        <time>2024-04-06T11:56:24Z</time>
      </trkpt>
      <trkpt lat="49.87951" lon="4.59115">
        <ele>248.2</ele>
        <time>2024-04-06T11:56:25Z</time>
      </trkpt>
      <trkpt lat="49.87958" lon="4.59118">
        <ele>248.6</ele>
        <time>2024-04-06T11:56:26Z</time>
      </trkpt>
      <trkpt lat="49.87965" lon="4.59121">
        <ele>249</ele>
        <time>2024-04-06T11:56:27Z</time>
      </trkpt>
      <trkpt lat="49.87971" lon="4.59124">
        <ele>249.2</ele>
        <time>2024-04-06T11:56:28Z</time>
      </trkpt>
      <trkpt lat="49.87978" lon="4.59127">
        <ele>249.2</ele>
        <time>2024-04-06T11:56:29Z</time>
      </trkpt>
      <trkpt lat="49.87985" lon="4.5913">
        <ele>249.4</ele>
        <time>2024-04-06T11:56:30Z</time>
      </trkpt>
      <trkpt lat="49.87991" lon="4.59132">
        <ele>249.4</ele>
        <time>2024-04-06T11:56:31Z</time>
      </trkpt>
      <trkpt lat="49.87998" lon="4.59135">
        <ele>250.2</ele>
        <time>2024-04-06T11:56:32Z</time>
      </trkpt>
      <trkpt lat="49.88004" lon="4.59138">
        <ele>250.4</ele>
        <time>2024-04-06T11:56:33Z</time>
      </trkpt>
      <trkpt lat="49.8801" lon="4.5914">
        <ele>251</ele>
        <time>2024-04-06T11:56:34Z</time>
      </trkpt>
      <trkpt lat="49.88017" lon="4.59143">
        <ele>251.2</ele>
        <time>2024-04-06T11:56:35Z</time>
      </trkpt>
      <trkpt lat="49.88023" lon="4.59146">
        <ele>251.4</ele>
        <time>2024-04-06T11:56:36Z</time>
      </trkpt>
      <trkpt lat="49.88029" lon="4.59149">
        <ele>251.4</ele>
        <time>2024-04-06T11:56:37Z</time>
      </trkpt>
      <trkpt lat="49.88036" lon="4.59151">
        <ele>251.4</ele>
        <time>2024-04-06T11:56:38Z</time>
      </trkpt>
      <trkpt lat="49.88042" lon="4.59154">
        <ele>251.6</ele>
        <time>2024-04-06T11:56:39Z</time>
      </trkpt>
      <trkpt lat="49.88048" lon="4.59157">
        <ele>252</ele>
        <time>2024-04-06T11:56:40Z</time>
      </trkpt>
      <trkpt lat="49.88054" lon="4.5916">
        <ele>252.2</ele>
        <time>2024-04-06T11:56:41Z</time>
      </trkpt>
      <trkpt lat="49.88059" lon="4.59161">
        <ele>252.2</ele>
        <time>2024-04-06T11:56:42Z</time>
      </trkpt>
      <trkpt lat="49.88065" lon="4.59162">
        <ele>252.4</ele>
        <time>2024-04-06T11:56:43Z</time>
      </trkpt>
      <trkpt lat="49.88071" lon="4.59163">
        <ele>252.8</ele>
        <time>2024-04-06T11:56:44Z</time>
      </trkpt>
      <trkpt lat="49.88078" lon="4.59164">
        <ele>253.2</ele>
        <time>2024-04-06T11:56:45Z</time>
      </trkpt>
      <trkpt lat="49.88084" lon="4.59164">
        <ele>253.4</ele>
        <time>2024-04-06T11:56:46Z</time>
      </trkpt>
      <trkpt lat="49.88091" lon="4.59165">
        <ele>253.8</ele>
        <time>2024-04-06T11:56:47Z</time>
      </trkpt>
      <trkpt lat="49.88097" lon="4.59166">
        <ele>254</ele>
        <time>2024-04-06T11:56:48Z</time>
      </trkpt>
      <trkpt lat="49.88104" lon="4.59166">
        <ele>254.4</ele>
        <time>2024-04-06T11:56:49Z</time>
      </trkpt>
      <trkpt lat="49.8811" lon="4.59166">
        <ele>254.6</ele>
        <time>2024-04-06T11:56:50Z</time>
      </trkpt>
      <trkpt lat="49.88117" lon="4.59165">
        <ele>254.8</ele>
        <time>2024-04-06T11:56:51Z</time>
      </trkpt>
      <trkpt lat="49.88124" lon="4.59165">
        <ele>254.8</ele>
        <time>2024-04-06T11:56:52Z</time>
      </trkpt>
      <trkpt lat="49.88131" lon="4.59165">
        <ele>255</ele>
        <time>2024-04-06T11:56:53Z</time>
      </trkpt>
      <trkpt lat="49.88138" lon="4.59165">
        <ele>255</ele>
        <time>2024-04-06T11:56:54Z</time>
      </trkpt>
      <trkpt lat="49.88146" lon="4.59165">
        <ele>254.8</ele>
        <time>2024-04-06T11:56:55Z</time>
      </trkpt>
      <trkpt lat="49.88153" lon="4.59164">
        <ele>255</ele>
        <time>2024-04-06T11:56:56Z</time>
      </trkpt>
      <trkpt lat="49.8816" lon="4.59164">
        <ele>255</ele>
        <time>2024-04-06T11:56:57Z</time>
      </trkpt>
      <trkpt lat="49.88168" lon="4.59164">
        <ele>255</ele>
        <time>2024-04-06T11:56:58Z</time>
      </trkpt>
      <trkpt lat="49.88175" lon="4.59163">
        <ele>255</ele>
        <time>2024-04-06T11:56:59Z</time>
      </trkpt>
      <trkpt lat="49.88183" lon="4.59163">
        <ele>255</ele>
        <time>2024-04-06T11:57:00Z</time>
      </trkpt>
      <trkpt lat="49.88191" lon="4.59162">
        <ele>255</ele>
        <time>2024-04-06T11:57:01Z</time>
      </trkpt>
      <trkpt lat="49.88199" lon="4.5916">
        <ele>255</ele>
        <time>2024-04-06T11:57:02Z</time>
      </trkpt>
      <trkpt lat="49.88207" lon="4.59159">
        <ele>254.8</ele>
        <time>2024-04-06T11:57:03Z</time>
      </trkpt>
      <trkpt lat="49.88215" lon="4.59157">
        <ele>255</ele>
        <time>2024-04-06T11:57:04Z</time>
      </trkpt>
      <trkpt lat="49.88224" lon="4.59156">
        <ele>254.6</ele>
        <time>2024-04-06T11:57:05Z</time>
      </trkpt>
      <trkpt lat="49.88232" lon="4.59154">
        <ele>254.2</ele>
        <time>2024-04-06T11:57:06Z</time>
      </trkpt>
      <trkpt lat="49.88241" lon="4.59153">
        <ele>254.2</ele>
        <time>2024-04-06T11:57:07Z</time>
      </trkpt>
      <trkpt lat="49.88249" lon="4.59152">
        <ele>254</ele>
        <time>2024-04-06T11:57:08Z</time>
      </trkpt>
      <trkpt lat="49.88258" lon="4.59151">
        <ele>253.8</ele>
        <time>2024-04-06T11:57:09Z</time>
      </trkpt>
      <trkpt lat="49.88266" lon="4.5915">
        <ele>253.8</ele>
        <time>2024-04-06T11:57:10Z</time>
      </trkpt>
      <trkpt lat="49.88275" lon="4.5915">
        <ele>253.6</ele>
        <time>2024-04-06T11:57:11Z</time>
      </trkpt>
      <trkpt lat="49.88283" lon="4.59149">
        <ele>253.2</ele>
        <time>2024-04-06T11:57:12Z</time>
      </trkpt>
      <trkpt lat="49.88291" lon="4.59149">
        <ele>253</ele>
        <time>2024-04-06T11:57:13Z</time>
      </trkpt>
      <trkpt lat="49.88299" lon="4.59149">
        <ele>252.8</ele>
        <time>2024-04-06T11:57:14Z</time>
      </trkpt>
      <trkpt lat="49.88307" lon="4.59149">
        <ele>252.8</ele>
        <time>2024-04-06T11:57:15Z</time>
      </trkpt>
      <trkpt lat="49.88314" lon="4.59147">
        <ele>252.8</ele>
        <time>2024-04-06T11:57:16Z</time>
      </trkpt>
      <trkpt lat="49.88322" lon="4.59146">
        <ele>252.8</ele>
        <time>2024-04-06T11:57:17Z</time>
      </trkpt>
      <trkpt lat="49.88329" lon="4.59143">
        <ele>252.6</ele>
        <time>2024-04-06T11:57:18Z</time>
      </trkpt>
      <trkpt lat="49.88336" lon="4.5914">
        <ele>252.6</ele>
        <time>2024-04-06T11:57:19Z</time>
      </trkpt>
      <trkpt lat="49.88344" lon="4.59137">
        <ele>252.6</ele>
        <time>2024-04-06T11:57:20Z</time>
      </trkpt>
      <trkpt lat="49.88351" lon="4.59134">
        <ele>252.6</ele>
        <time>2024-04-06T11:57:21Z</time>
      </trkpt>
      <trkpt lat="49.88359" lon="4.59131">
        <ele>252.6</ele>
        <time>2024-04-06T11:57:22Z</time>
      </trkpt>
      <trkpt lat="49.88367" lon="4.59127">
        <ele>252.6</ele>
        <time>2024-04-06T11:57:23Z</time>
      </trkpt>
      <trkpt lat="49.88374" lon="4.59124">
        <ele>252.6</ele>
        <time>2024-04-06T11:57:24Z</time>
      </trkpt>
      <trkpt lat="49.88382" lon="4.5912">
        <ele>252.4</ele>
        <time>2024-04-06T11:57:25Z</time>
      </trkpt>
      <trkpt lat="49.8839" lon="4.59117">
        <ele>252.4</ele>
        <time>2024-04-06T11:57:26Z</time>
      </trkpt>
      <trkpt lat="49.88398" lon="4.59113">
        <ele>252.2</ele>
        <time>2024-04-06T11:57:27Z</time>
      </trkpt>
      <trkpt lat="49.88406" lon="4.59109">
        <ele>252.2</ele>
        <time>2024-04-06T11:57:28Z</time>
      </trkpt>
      <trkpt lat="49.88414" lon="4.59105">
        <ele>252.2</ele>
        <time>2024-04-06T11:57:29Z</time>
      </trkpt>
      <trkpt lat="49.88422" lon="4.591">
        <ele>252.2</ele>
        <time>2024-04-06T11:57:30Z</time>
      </trkpt>
      <trkpt lat="49.88431" lon="4.59095">
        <ele>252.2</ele>
        <time>2024-04-06T11:57:31Z</time>
      </trkpt>
      <trkpt lat="49.8844" lon="4.5909">
        <ele>252</ele>
        <time>2024-04-06T11:57:32Z</time>
      </trkpt>
      <trkpt lat="49.88449" lon="4.59085">
        <ele>252</ele>
        <time>2024-04-06T11:57:33Z</time>
      </trkpt>
      <trkpt lat="49.88458" lon="4.5908">
        <ele>252</ele>
        <time>2024-04-06T11:57:34Z</time>
      </trkpt>
      <trkpt lat="49.88467" lon="4.59074">
        <ele>251.6</ele>
        <time>2024-04-06T11:57:35Z</time>
      </trkpt>
      <trkpt lat="49.88477" lon="4.59069">
        <ele>251.2</ele>
        <time>2024-04-06T11:57:36Z</time>
      </trkpt>
      <trkpt lat="49.88486" lon="4.59064">
        <ele>251</ele>
        <time>2024-04-06T11:57:37Z</time>
      </trkpt>
      <trkpt lat="49.88495" lon="4.59059">
        <ele>250.6</ele>
        <time>2024-04-06T11:57:38Z</time>
      </trkpt>
      <trkpt lat="49.88505" lon="4.59054">
        <ele>250.2</ele>
        <time>2024-04-06T11:57:39Z</time>
      </trkpt>
      <trkpt lat="49.88515" lon="4.59049">
        <ele>250.2</ele>
        <time>2024-04-06T11:57:40Z</time>
      </trkpt>
      <trkpt lat="49.88525" lon="4.59044">
        <ele>249.8</ele>
        <time>2024-04-06T11:57:41Z</time>
      </trkpt>
      <trkpt lat="49.88535" lon="4.59039">
        <ele>249.2</ele>
        <time>2024-04-06T11:57:42Z</time>
      </trkpt>
      <trkpt lat="49.88545" lon="4.59035">
        <ele>248.6</ele>
        <time>2024-04-06T11:57:43Z</time>
      </trkpt>
      <trkpt lat="49.88555" lon="4.5903">
        <ele>248</ele>
        <time>2024-04-06T11:57:44Z</time>
      </trkpt>
      <trkpt lat="49.88566" lon="4.59026">
        <ele>247.8</ele>
        <time>2024-04-06T11:57:45Z</time>
      </trkpt>
      <trkpt lat="49.88576" lon="4.59022">
        <ele>247.4</ele>
        <time>2024-04-06T11:57:46Z</time>
      </trkpt>
      <trkpt lat="49.88586" lon="4.59019">
        <ele>247</ele>
        <time>2024-04-06T11:57:47Z</time>
      </trkpt>
      <trkpt lat="49.88596" lon="4.59015">
        <ele>245.8</ele>
        <time>2024-04-06T11:57:48Z</time>
      </trkpt>
      <trkpt lat="49.88606" lon="4.59012">
        <ele>245.4</ele>
        <time>2024-04-06T11:57:49Z</time>
      </trkpt>
      <trkpt lat="49.88617" lon="4.59008">
        <ele>245</ele>
        <time>2024-04-06T11:57:50Z</time>
      </trkpt>
      <trkpt lat="49.88628" lon="4.59005">
        <ele>244.8</ele>
        <time>2024-04-06T11:57:51Z</time>
      </trkpt>
      <trkpt lat="49.88638" lon="4.59003">
        <ele>244.6</ele>
        <time>2024-04-06T11:57:52Z</time>
      </trkpt>
      <trkpt lat="49.88649" lon="4.59001">
        <ele>244.4</ele>
        <time>2024-04-06T11:57:53Z</time>
      </trkpt>
      <trkpt lat="49.8866" lon="4.58999">
        <ele>244.4</ele>
        <time>2024-04-06T11:57:54Z</time>
      </trkpt>
      <trkpt lat="49.88672" lon="4.58999">
        <ele>244.2</ele>
        <time>2024-04-06T11:57:55Z</time>
      </trkpt>
      <trkpt lat="49.88683" lon="4.58998">
        <ele>244.2</ele>
        <time>2024-04-06T11:57:56Z</time>
      </trkpt>
      <trkpt lat="49.88695" lon="4.58997">
        <ele>244</ele>
        <time>2024-04-06T11:57:57Z</time>
      </trkpt>
      <trkpt lat="49.88706" lon="4.58996">
        <ele>243.8</ele>
        <time>2024-04-06T11:57:58Z</time>
      </trkpt>
      <trkpt lat="49.88718" lon="4.58993">
        <ele>243.6</ele>
        <time>2024-04-06T11:57:59Z</time>
      </trkpt>
      <trkpt lat="49.88729" lon="4.58988">
        <ele>243.6</ele>
        <time>2024-04-06T11:58:00Z</time>
      </trkpt>
      <trkpt lat="49.8874" lon="4.58983">
        <ele>243.6</ele>
        <time>2024-04-06T11:58:01Z</time>
      </trkpt>
      <trkpt lat="49.88751" lon="4.58977">
        <ele>243</ele>
        <time>2024-04-06T11:58:02Z</time>
      </trkpt>
      <trkpt lat="49.88761" lon="4.58971">
        <ele>242</ele>
        <time>2024-04-06T11:58:03Z</time>
      </trkpt>
      <trkpt lat="49.88772" lon="4.58967">
        <ele>241</ele>
        <time>2024-04-06T11:58:04Z</time>
      </trkpt>
      <trkpt lat="49.88783" lon="4.58963">
        <ele>240.6</ele>
        <time>2024-04-06T11:58:05Z</time>
      </trkpt>
      <trkpt lat="49.88793" lon="4.5896">
        <ele>239.6</ele>
        <time>2024-04-06T11:58:06Z</time>
      </trkpt>
      <trkpt lat="49.88804" lon="4.5896">
        <ele>239.2</ele>
        <time>2024-04-06T11:58:07Z</time>
      </trkpt>
      <trkpt lat="49.88815" lon="4.5896">
        <ele>238.4</ele>
        <time>2024-04-06T11:58:08Z</time>
      </trkpt>
      <trkpt lat="49.88825" lon="4.58961">
        <ele>238.2</ele>
        <time>2024-04-06T11:58:09Z</time>
      </trkpt>
      <trkpt lat="49.88835" lon="4.58963">
        <ele>238</ele>
        <time>2024-04-06T11:58:10Z</time>
      </trkpt>
      <trkpt lat="49.88845" lon="4.58965">
        <ele>237.8</ele>
        <time>2024-04-06T11:58:11Z</time>
      </trkpt>
      <trkpt lat="49.88854" lon="4.58967">
        <ele>237.8</ele>
        <time>2024-04-06T11:58:12Z</time>
      </trkpt>
      <trkpt lat="49.88863" lon="4.58971">
        <ele>237.6</ele>
        <time>2024-04-06T11:58:13Z</time>
      </trkpt>
      <trkpt lat="49.88872" lon="4.58972">
        <ele>237.6</ele>
        <time>2024-04-06T11:58:14Z</time>
      </trkpt>
      <trkpt lat="49.88881" lon="4.58972">
        <ele>237.4</ele>
        <time>2024-04-06T11:58:15Z</time>
      </trkpt>
      <trkpt lat="49.8889" lon="4.5897">
        <ele>237.4</ele>
        <time>2024-04-06T11:58:16Z</time>
      </trkpt>
      <trkpt lat="49.88898" lon="4.58967">
        <ele>237.4</ele>
        <time>2024-04-06T11:58:17Z</time>
      </trkpt>
      <trkpt lat="49.88907" lon="4.58962">
        <ele>237.4</ele>
        <time>2024-04-06T11:58:18Z</time>
      </trkpt>
      <trkpt lat="49.88915" lon="4.58957">
        <ele>237.2</ele>
        <time>2024-04-06T11:58:19Z</time>
      </trkpt>
      <trkpt lat="49.88924" lon="4.58952">
        <ele>237</ele>
        <time>2024-04-06T11:58:20Z</time>
      </trkpt>
      <trkpt lat="49.88933" lon="4.58947">
        <ele>237.2</ele>
        <time>2024-04-06T11:58:21Z</time>
      </trkpt>
      <trkpt lat="49.88942" lon="4.58942">
        <ele>237</ele>
        <time>2024-04-06T11:58:22Z</time>
      </trkpt>
      <trkpt lat="49.88951" lon="4.58938">
        <ele>237</ele>
        <time>2024-04-06T11:58:23Z</time>
      </trkpt>
      <trkpt lat="49.8896" lon="4.58934">
        <ele>236.8</ele>
        <time>2024-04-06T11:58:24Z</time>
      </trkpt>
      <trkpt lat="49.88969" lon="4.5893">
        <ele>236.6</ele>
        <time>2024-04-06T11:58:25Z</time>
      </trkpt>
      <trkpt lat="49.88977" lon="4.58926">
        <ele>236.6</ele>
        <time>2024-04-06T11:58:26Z</time>
      </trkpt>
      <trkpt lat="49.88985" lon="4.58922">
        <ele>236.2</ele>
        <time>2024-04-06T11:58:27Z</time>
      </trkpt>
      <trkpt lat="49.88993" lon="4.58918">
        <ele>235.8</ele>
        <time>2024-04-06T11:58:28Z</time>
      </trkpt>
      <trkpt lat="49.89001" lon="4.58914">
        <ele>235.8</ele>
        <time>2024-04-06T11:58:29Z</time>
      </trkpt>
      <trkpt lat="49.89008" lon="4.5891">
        <ele>235.4</ele>
        <time>2024-04-06T11:58:30Z</time>
      </trkpt>
      <trkpt lat="49.89016" lon="4.58906">
        <ele>235.4</ele>
        <time>2024-04-06T11:58:31Z</time>
      </trkpt>
      <trkpt lat="49.89023" lon="4.58902">
        <ele>235.2</ele>
        <time>2024-04-06T11:58:32Z</time>
      </trkpt>
      <trkpt lat="49.8903" lon="4.58898">
        <ele>235.2</ele>
        <time>2024-04-06T11:58:33Z</time>
      </trkpt>
      <trkpt lat="49.89037" lon="4.58895">
        <ele>235.2</ele>
        <time>2024-04-06T11:58:34Z</time>
      </trkpt>
      <trkpt lat="49.89043" lon="4.58891">
        <ele>235.4</ele>
        <time>2024-04-06T11:58:35Z</time>
      </trkpt>
      <trkpt lat="49.8905" lon="4.58887">
        <ele>235.2</ele>
        <time>2024-04-06T11:58:36Z</time>
      </trkpt>
      <trkpt lat="49.89057" lon="4.58883">
        <ele>235.2</ele>
        <time>2024-04-06T11:58:37Z</time>
      </trkpt>
      <trkpt lat="49.89063" lon="4.58879">
        <ele>235.2</ele>
        <time>2024-04-06T11:58:38Z</time>
      </trkpt>
      <trkpt lat="49.89071" lon="4.58876">
        <ele>235.4</ele>
        <time>2024-04-06T11:58:39Z</time>
      </trkpt>
      <trkpt lat="49.89078" lon="4.58872">
        <ele>235.4</ele>
        <time>2024-04-06T11:58:40Z</time>
      </trkpt>
      <trkpt lat="49.89086" lon="4.58868">
        <ele>235.4</ele>
        <time>2024-04-06T11:58:41Z</time>
      </trkpt>
      <trkpt lat="49.89093" lon="4.58864">
        <ele>235.4</ele>
        <time>2024-04-06T11:58:42Z</time>
      </trkpt>
      <trkpt lat="49.891" lon="4.58861">
        <ele>235.6</ele>
        <time>2024-04-06T11:58:43Z</time>
      </trkpt>
      <trkpt lat="49.89107" lon="4.58857">
        <ele>235.6</ele>
        <time>2024-04-06T11:58:44Z</time>
      </trkpt>
      <trkpt lat="49.89113" lon="4.58854">
        <ele>235.6</ele>
        <time>2024-04-06T11:58:45Z</time>
      </trkpt>
      <trkpt lat="49.89118" lon="4.5885">
        <ele>235.6</ele>
        <time>2024-04-06T11:58:46Z</time>
      </trkpt>
      <trkpt lat="49.89123" lon="4.58847">
        <ele>235.6</ele>
        <time>2024-04-06T11:58:47Z</time>
      </trkpt>
      <trkpt lat="49.89127" lon="4.58844">
        <ele>235.6</ele>
        <time>2024-04-06T11:58:48Z</time>
      </trkpt>
      <trkpt lat="49.89131" lon="4.58843">
        <ele>235.6</ele>
        <time>2024-04-06T11:58:49Z</time>
      </trkpt>
      <trkpt lat="49.89134" lon="4.58844">
        <ele>235.6</ele>
        <time>2024-04-06T11:58:50Z</time>
      </trkpt>
      <trkpt lat="49.89137" lon="4.58847">
        <ele>235.6</ele>
        <time>2024-04-06T11:58:51Z</time>
      </trkpt>
      <trkpt lat="49.89138" lon="4.58852">
        <ele>235.6</ele>
        <time>2024-04-06T11:58:52Z</time>
      </trkpt>
      <trkpt lat="49.89138" lon="4.58855">
        <ele>235.6</ele>
        <time>2024-04-06T11:58:53Z</time>
      </trkpt>
      <trkpt lat="49.89138" lon="4.58858">
        <ele>235.6</ele>
        <time>2024-04-06T11:58:54Z</time>
      </trkpt>
      <trkpt lat="49.89137" lon="4.58861">
        <ele>235.4</ele>
        <time>2024-04-06T11:58:55Z</time>
      </trkpt>
      <trkpt lat="49.89135" lon="4.58865">
        <ele>235.6</ele>
        <time>2024-04-06T11:58:56Z</time>
      </trkpt>
      <trkpt lat="49.89134" lon="4.58868">
        <ele>235.6</ele>
        <time>2024-04-06T11:58:57Z</time>
      </trkpt>
      <trkpt lat="49.89133" lon="4.58871">
        <ele>235.6</ele>
        <time>2024-04-06T11:58:58Z</time>
      </trkpt>
      <trkpt lat="49.89132" lon="4.58873">
        <ele>235.6</ele>
        <time>2024-04-06T11:58:59Z</time>
      </trkpt>
      <trkpt lat="49.89131" lon="4.58875">
        <ele>235.6</ele>
        <time>2024-04-06T11:59:00Z</time>
      </trkpt>
      <trkpt lat="49.89129" lon="4.58877">
        <ele>235.8</ele>
        <time>2024-04-06T11:59:01Z</time>
      </trkpt>
      <trkpt lat="49.89127" lon="4.5888">
        <ele>236</ele>
        <time>2024-04-06T11:59:02Z</time>
      </trkpt>
      <trkpt lat="49.89125" lon="4.58882">
        <ele>236</ele>
        <time>2024-04-06T11:59:03Z</time>
      </trkpt>
      <trkpt lat="49.89123" lon="4.58885">
        <ele>236.4</ele>
        <time>2024-04-06T11:59:04Z</time>
      </trkpt>
      <trkpt lat="49.89121" lon="4.58888">
        <ele>236.4</ele>
        <time>2024-04-06T11:59:05Z</time>
      </trkpt>
      <trkpt lat="49.89119" lon="4.5889">
        <ele>236.8</ele>
        <time>2024-04-06T11:59:06Z</time>
      </trkpt>
      <trkpt lat="49.89117" lon="4.58893">
        <ele>237.4</ele>
        <time>2024-04-06T11:59:07Z</time>
      </trkpt>
      <trkpt lat="49.89115" lon="4.58895">
        <ele>237.4</ele>
        <time>2024-04-06T11:59:08Z</time>
      </trkpt>
      <trkpt lat="49.89113" lon="4.58898">
        <ele>237.8</ele>
        <time>2024-04-06T11:59:09Z</time>
      </trkpt>
      <trkpt lat="49.89111" lon="4.58901">
        <ele>238</ele>
        <time>2024-04-06T11:59:10Z</time>
      </trkpt>
      <trkpt lat="49.89109" lon="4.58903">
        <ele>238.2</ele>
        <time>2024-04-06T11:59:11Z</time>
      </trkpt>
      <trkpt lat="49.89107" lon="4.58906">
        <ele>238.2</ele>
        <time>2024-04-06T11:59:12Z</time>
      </trkpt>
      <trkpt lat="49.89105" lon="4.58909">
        <ele>238.4</ele>
        <time>2024-04-06T11:59:13Z</time>
      </trkpt>
      <trkpt lat="49.89103" lon="4.58912">
        <ele>238.4</ele>
        <time>2024-04-06T11:59:14Z</time>
      </trkpt>
      <trkpt lat="49.89101" lon="4.58914">
        <ele>238.6</ele>
        <time>2024-04-06T11:59:15Z</time>
      </trkpt>
      <trkpt lat="49.89099" lon="4.58917">
        <ele>239.2</ele>
        <time>2024-04-06T11:59:16Z</time>
      </trkpt>
      <trkpt lat="49.89097" lon="4.5892">
        <ele>239.8</ele>
        <time>2024-04-06T11:59:17Z</time>
      </trkpt>
      <trkpt lat="49.89095" lon="4.58924">
        <ele>240.4</ele>
        <time>2024-04-06T11:59:18Z</time>
      </trkpt>
      <trkpt lat="49.89093" lon="4.58927">
        <ele>240.6</ele>
        <time>2024-04-06T11:59:19Z</time>
      </trkpt>
      <trkpt lat="49.89091" lon="4.5893">
        <ele>241</ele>
        <time>2024-04-06T11:59:20Z</time>
      </trkpt>
      <trkpt lat="49.89089" lon="4.58934">
        <ele>241.4</ele>
        <time>2024-04-06T11:59:21Z</time>
      </trkpt>
      <trkpt lat="49.89088" lon="4.58937">
        <ele>241.8</ele>
        <time>2024-04-06T11:59:22Z</time>
      </trkpt>
      <trkpt lat="49.89086" lon="4.5894">
        <ele>242</ele>
        <time>2024-04-06T11:59:23Z</time>
      </trkpt>
      <trkpt lat="49.89084" lon="4.58944">
        <ele>242.2</ele>
        <time>2024-04-06T11:59:24Z</time>
      </trkpt>
      <trkpt lat="49.89082" lon="4.58947">
        <ele>242.2</ele>
        <time>2024-04-06T11:59:25Z</time>
      </trkpt>
      <trkpt lat="49.8908" lon="4.5895">
        <ele>242.6</ele>
        <time>2024-04-06T11:59:26Z</time>
      </trkpt>
      <trkpt lat="49.89078" lon="4.58954">
        <ele>242.8</ele>
        <time>2024-04-06T11:59:27Z</time>
      </trkpt>
      <trkpt lat="49.89077" lon="4.58957">
        <ele>243</ele>
        <time>2024-04-06T11:59:28Z</time>
      </trkpt>
      <trkpt lat="49.89075" lon="4.5896">
        <ele>243.2</ele>
        <time>2024-04-06T11:59:29Z</time>
      </trkpt>
      <trkpt lat="49.89073" lon="4.58963">
        <ele>243.4</ele>
        <time>2024-04-06T11:59:30Z</time>
      </trkpt>
      <trkpt lat="49.89072" lon="4.58967">
        <ele>243.6</ele>
        <time>2024-04-06T11:59:31Z</time>
      </trkpt>
      <trkpt lat="49.89071" lon="4.5897">
        <ele>243.6</ele>
        <time>2024-04-06T11:59:32Z</time>
      </trkpt>
      <trkpt lat="49.8907" lon="4.58974">
        <ele>243.8</ele>
        <time>2024-04-06T11:59:33Z</time>
      </trkpt>
      <trkpt lat="49.89069" lon="4.58977">
        <ele>244.2</ele>
        <time>2024-04-06T11:59:34Z</time>
      </trkpt>
      <trkpt lat="49.89067" lon="4.58981">
        <ele>244.2</ele>
        <time>2024-04-06T11:59:35Z</time>
      </trkpt>
      <trkpt lat="49.89066" lon="4.58985">
        <ele>244.6</ele>
        <time>2024-04-06T11:59:36Z</time>
      </trkpt>
      <trkpt lat="49.89065" lon="4.58988">
        <ele>244.8</ele>
        <time>2024-04-06T11:59:37Z</time>
      </trkpt>
      <trkpt lat="49.89064" lon="4.58992">
        <ele>245</ele>
        <time>2024-04-06T11:59:38Z</time>
      </trkpt>
      <trkpt lat="49.89062" lon="4.58996">
        <ele>245.4</ele>
        <time>2024-04-06T11:59:39Z</time>
      </trkpt>
      <trkpt lat="49.89061" lon="4.58999">
        <ele>245.4</ele>
        <time>2024-04-06T11:59:40Z</time>
      </trkpt>
      <trkpt lat="49.8906" lon="4.59003">
        <ele>245.8</ele>
        <time>2024-04-06T11:59:41Z</time>
      </trkpt>
      <trkpt lat="49.89059" lon="4.59006">
        <ele>246</ele>
        <time>2024-04-06T11:59:42Z</time>
      </trkpt>
      <trkpt lat="49.89058" lon="4.5901">
        <ele>246.2</ele>
        <time>2024-04-06T11:59:43Z</time>
      </trkpt>
      <trkpt lat="49.89057" lon="4.59013">
        <ele>246.4</ele>
        <time>2024-04-06T11:59:44Z</time>
      </trkpt>
      <trkpt lat="49.89057" lon="4.59017">
        <ele>246.4</ele>
        <time>2024-04-06T11:59:45Z</time>
      </trkpt>
      <trkpt lat="49.89056" lon="4.5902">
        <ele>246.8</ele>
        <time>2024-04-06T11:59:46Z</time>
      </trkpt>
      <trkpt lat="49.89055" lon="4.59023">
        <ele>247</ele>
        <time>2024-04-06T11:59:47Z</time>
      </trkpt>
      <trkpt lat="49.89054" lon="4.59027">
        <ele>247</ele>
        <time>2024-04-06T11:59:48Z</time>
      </trkpt>
      <trkpt lat="49.89053" lon="4.5903">
        <ele>247.4</ele>
        <time>2024-04-06T11:59:49Z</time>
      </trkpt>
      <trkpt lat="49.89053" lon="4.59034">
        <ele>247.4</ele>
        <time>2024-04-06T11:59:50Z</time>
      </trkpt>
      <trkpt lat="49.89052" lon="4.59037">
        <ele>247.6</ele>
        <time>2024-04-06T11:59:51Z</time>
      </trkpt>
      <trkpt lat="49.89052" lon="4.59041">
        <ele>247.8</ele>
        <time>2024-04-06T11:59:52Z</time>
      </trkpt>
      <trkpt lat="49.89051" lon="4.59044">
        <ele>247.8</ele>
        <time>2024-04-06T11:59:53Z</time>
      </trkpt>
      <trkpt lat="49.89051" lon="4.59047">
        <ele>248</ele>
        <time>2024-04-06T11:59:54Z</time>
      </trkpt>
      <trkpt lat="49.8905" lon="4.59051">
        <ele>248</ele>
        <time>2024-04-06T11:59:55Z</time>
      </trkpt>
      <trkpt lat="49.8905" lon="4.59054">
        <ele>248.2</ele>
        <time>2024-04-06T11:59:56Z</time>
      </trkpt>
      <trkpt lat="49.89049" lon="4.59058">
        <ele>248.2</ele>
        <time>2024-04-06T11:59:57Z</time>
      </trkpt>
      <trkpt lat="49.89048" lon="4.59061">
        <ele>248.6</ele>
        <time>2024-04-06T11:59:58Z</time>
      </trkpt>
      <trkpt lat="49.89048" lon="4.59065">
        <ele>249.2</ele>
        <time>2024-04-06T11:59:59Z</time>
      </trkpt>
      <trkpt lat="49.89048" lon="4.59068">
        <ele>249.6</ele>
        <time>2024-04-06T12:00:00Z</time>
      </trkpt>
      <trkpt lat="49.89047" lon="4.59071">
        <ele>250</ele>
        <time>2024-04-06T12:00:01Z</time>
      </trkpt>
      <trkpt lat="49.89047" lon="4.59074">
        <ele>250</ele>
        <time>2024-04-06T12:00:02Z</time>
      </trkpt>
      <trkpt lat="49.89046" lon="4.59078">
        <ele>250.4</ele>
        <time>2024-04-06T12:00:03Z</time>
      </trkpt>
      <trkpt lat="49.89046" lon="4.59081">
        <ele>250.8</ele>
        <time>2024-04-06T12:00:04Z</time>
      </trkpt>
      <trkpt lat="49.89045" lon="4.59085">
        <ele>251</ele>
        <time>2024-04-06T12:00:05Z</time>
      </trkpt>
      <trkpt lat="49.89044" lon="4.59088">
        <ele>251.2</ele>
        <time>2024-04-06T12:00:06Z</time>
      </trkpt>
      <trkpt lat="49.89044" lon="4.59092">
        <ele>251.4</ele>
        <time>2024-04-06T12:00:07Z</time>
      </trkpt>
      <trkpt lat="49.89043" lon="4.59095">
        <ele>251.8</ele>
        <time>2024-04-06T12:00:08Z</time>
      </trkpt>
      <trkpt lat="49.89042" lon="4.59099">
        <ele>252</ele>
        <time>2024-04-06T12:00:09Z</time>
      </trkpt>
      <trkpt lat="49.89042" lon="4.59102">
        <ele>252.4</ele>
        <time>2024-04-06T12:00:10Z</time>
      </trkpt>
      <trkpt lat="49.89041" lon="4.59106">
        <ele>252.6</ele>
        <time>2024-04-06T12:00:11Z</time>
      </trkpt>
      <trkpt lat="49.89041" lon="4.59109">
        <ele>252.8</ele>
        <time>2024-04-06T12:00:12Z</time>
      </trkpt>
      <trkpt lat="49.8904" lon="4.59113">
        <ele>253</ele>
        <time>2024-04-06T12:00:13Z</time>
      </trkpt>
      <trkpt lat="49.8904" lon="4.59116">
        <ele>253.2</ele>
        <time>2024-04-06T12:00:14Z</time>
      </trkpt>
      <trkpt lat="49.89039" lon="4.5912">
        <ele>253.2</ele>
        <time>2024-04-06T12:00:15Z</time>
      </trkpt>
      <trkpt lat="49.89039" lon="4.59123">
        <ele>253.4</ele>
        <time>2024-04-06T12:00:16Z</time>
      </trkpt>
      <trkpt lat="49.89038" lon="4.59127">
        <ele>253.6</ele>
        <time>2024-04-06T12:00:17Z</time>
      </trkpt>
      <trkpt lat="49.89037" lon="4.5913">
        <ele>253.8</ele>
        <time>2024-04-06T12:00:18Z</time>
      </trkpt>
      <trkpt lat="49.89037" lon="4.59133">
        <ele>253.8</ele>
        <time>2024-04-06T12:00:19Z</time>
      </trkpt>
      <trkpt lat="49.89036" lon="4.59136">
        <ele>253.8</ele>
        <time>2024-04-06T12:00:20Z</time>
      </trkpt>
      <trkpt lat="49.89036" lon="4.59139">
        <ele>254.2</ele>
        <time>2024-04-06T12:00:21Z</time>
      </trkpt>
      <trkpt lat="49.89035" lon="4.59142">
        <ele>254.2</ele>
        <time>2024-04-06T12:00:22Z</time>
      </trkpt>
      <trkpt lat="49.89034" lon="4.59146">
        <ele>254.4</ele>
        <time>2024-04-06T12:00:23Z</time>
      </trkpt>
      <trkpt lat="49.89034" lon="4.59149">
        <ele>254.4</ele>
        <time>2024-04-06T12:00:24Z</time>
      </trkpt>
      <trkpt lat="49.89034" lon="4.59153">
        <ele>254.4</ele>
        <time>2024-04-06T12:00:25Z</time>
      </trkpt>
      <trkpt lat="49.89033" lon="4.59157">
        <ele>255.2</ele>
        <time>2024-04-06T12:00:26Z</time>
      </trkpt>
      <trkpt lat="49.89033" lon="4.5916">
        <ele>255.4</ele>
        <time>2024-04-06T12:00:27Z</time>
      </trkpt>
      <trkpt lat="49.89033" lon="4.59163">
        <ele>255.8</ele>
        <time>2024-04-06T12:00:28Z</time>
      </trkpt>
      <trkpt lat="49.89033" lon="4.59167">
        <ele>256.2</ele>
        <time>2024-04-06T12:00:29Z</time>
      </trkpt>
      <trkpt lat="49.89032" lon="4.5917">
        <ele>256.4</ele>
        <time>2024-04-06T12:00:30Z</time>
      </trkpt>
      <trkpt lat="49.89032" lon="4.59174">
        <ele>256.6</ele>
        <time>2024-04-06T12:00:31Z</time>
      </trkpt>
      <trkpt lat="49.89031" lon="4.59178">
        <ele>256.8</ele>
        <time>2024-04-06T12:00:32Z</time>
      </trkpt>
      <trkpt lat="49.89031" lon="4.59181">
        <ele>257.2</ele>
        <time>2024-04-06T12:00:33Z</time>
      </trkpt>
      <trkpt lat="49.89031" lon="4.59185">
        <ele>257.2</ele>
        <time>2024-04-06T12:00:34Z</time>
      </trkpt>
      <trkpt lat="49.8903" lon="4.59188">
        <ele>257.4</ele>
        <time>2024-04-06T12:00:35Z</time>
      </trkpt>
      <trkpt lat="49.8903" lon="4.59192">
        <ele>257.4</ele>
        <time>2024-04-06T12:00:36Z</time>
      </trkpt>
      <trkpt lat="49.8903" lon="4.59196">
        <ele>257.6</ele>
        <time>2024-04-06T12:00:37Z</time>
      </trkpt>
      <trkpt lat="49.89029" lon="4.59199">
        <ele>257.6</ele>
        <time>2024-04-06T12:00:38Z</time>
      </trkpt>
      <trkpt lat="49.89028" lon="4.59203">
        <ele>257.8</ele>
        <time>2024-04-06T12:00:39Z</time>
      </trkpt>
      <trkpt lat="49.89028" lon="4.59206">
        <ele>258</ele>
        <time>2024-04-06T12:00:40Z</time>
      </trkpt>
      <trkpt lat="49.89028" lon="4.5921">
        <ele>258.2</ele>
        <time>2024-04-06T12:00:41Z</time>
      </trkpt>
      <trkpt lat="49.89027" lon="4.59214">
        <ele>258.4</ele>
        <time>2024-04-06T12:00:42Z</time>
      </trkpt>
      <trkpt lat="49.89027" lon="4.59218">
        <ele>258.6</ele>
        <time>2024-04-06T12:00:43Z</time>
      </trkpt>
      <trkpt lat="49.89026" lon="4.59221">
        <ele>258.8</ele>
        <time>2024-04-06T12:00:44Z</time>
      </trkpt>
      <trkpt lat="49.89025" lon="4.59225">
        <ele>258.8</ele>
        <time>2024-04-06T12:00:45Z</time>
      </trkpt>
      <trkpt lat="49.89024" lon="4.59229">
        <ele>259</ele>
        <time>2024-04-06T12:00:46Z</time>
      </trkpt>
      <trkpt lat="49.89024" lon="4.59233">
        <ele>259.2</ele>
        <time>2024-04-06T12:00:47Z</time>
      </trkpt>
      <trkpt lat="49.89023" lon="4.59236">
        <ele>259.2</ele>
        <time>2024-04-06T12:00:48Z</time>
      </trkpt>
      <trkpt lat="49.89023" lon="4.5924">
        <ele>259.6</ele>
        <time>2024-04-06T12:00:49Z</time>
      </trkpt>
      <trkpt lat="49.89023" lon="4.59244">
        <ele>259.8</ele>
        <time>2024-04-06T12:00:50Z</time>
      </trkpt>
      <trkpt lat="49.89023" lon="4.59249">
        <ele>260.4</ele>
        <time>2024-04-06T12:00:51Z</time>
      </trkpt>
      <trkpt lat="49.89022" lon="4.59252">
        <ele>260.6</ele>
        <time>2024-04-06T12:00:52Z</time>
      </trkpt>
      <trkpt lat="49.89022" lon="4.59256">
        <ele>260.8</ele>
        <time>2024-04-06T12:00:53Z</time>
      </trkpt>
      <trkpt lat="49.89022" lon="4.59259">
        <ele>261.2</ele>
        <time>2024-04-06T12:00:54Z</time>
      </trkpt>
      <trkpt lat="49.89021" lon="4.59263">
        <ele>261.2</ele>
        <time>2024-04-06T12:00:55Z</time>
      </trkpt>
      <trkpt lat="49.89021" lon="4.59266">
        <ele>261.2</ele>
        <time>2024-04-06T12:00:56Z</time>
      </trkpt>
      <trkpt lat="49.89021" lon="4.5927">
        <ele>261.4</ele>
        <time>2024-04-06T12:00:57Z</time>
      </trkpt>
      <trkpt lat="49.89021" lon="4.59274">
        <ele>261.6</ele>
        <time>2024-04-06T12:00:58Z</time>
      </trkpt>
      <trkpt lat="49.8902" lon="4.59278">
        <ele>261.8</ele>
        <time>2024-04-06T12:00:59Z</time>
      </trkpt>
      <trkpt lat="49.8902" lon="4.59281">
        <ele>262</ele>
        <time>2024-04-06T12:01:00Z</time>
      </trkpt>
      <trkpt lat="49.89019" lon="4.59285">
        <ele>262.2</ele>
        <time>2024-04-06T12:01:01Z</time>
      </trkpt>
      <trkpt lat="49.89018" lon="4.59289">
        <ele>262.4</ele>
        <time>2024-04-06T12:01:02Z</time>
      </trkpt>
      <trkpt lat="49.89018" lon="4.59292">
        <ele>262.6</ele>
        <time>2024-04-06T12:01:03Z</time>
      </trkpt>
      <trkpt lat="49.89017" lon="4.59296">
        <ele>262.8</ele>
        <time>2024-04-06T12:01:04Z</time>
      </trkpt>
      <trkpt lat="49.89017" lon="4.593">
        <ele>263</ele>
        <time>2024-04-06T12:01:05Z</time>
      </trkpt>
      <trkpt lat="49.89017" lon="4.59304">
        <ele>263</ele>
        <time>2024-04-06T12:01:06Z</time>
      </trkpt>
      <trkpt lat="49.89016" lon="4.59308">
        <ele>263.4</ele>
        <time>2024-04-06T12:01:07Z</time>
      </trkpt>
      <trkpt lat="49.89016" lon="4.59311">
        <ele>263.6</ele>
        <time>2024-04-06T12:01:08Z</time>
      </trkpt>
      <trkpt lat="49.89016" lon="4.59315">
        <ele>263.8</ele>
        <time>2024-04-06T12:01:09Z</time>
      </trkpt>
      <trkpt lat="49.89016" lon="4.59319">
        <ele>264.2</ele>
        <time>2024-04-06T12:01:10Z</time>
      </trkpt>
      <trkpt lat="49.89015" lon="4.59322">
        <ele>264.2</ele>
        <time>2024-04-06T12:01:11Z</time>
      </trkpt>
      <trkpt lat="49.89015" lon="4.59326">
        <ele>264.4</ele>
        <time>2024-04-06T12:01:12Z</time>
      </trkpt>
      <trkpt lat="49.89015" lon="4.5933">
        <ele>264.6</ele>
        <time>2024-04-06T12:01:13Z</time>
      </trkpt>
      <trkpt lat="49.89014" lon="4.59334">
        <ele>264.8</ele>
        <time>2024-04-06T12:01:14Z</time>
      </trkpt>
      <trkpt lat="49.89014" lon="4.59338">
        <ele>264.8</ele>
        <time>2024-04-06T12:01:15Z</time>
      </trkpt>
      <trkpt lat="49.89013" lon="4.59342">
        <ele>264.8</ele>
        <time>2024-04-06T12:01:16Z</time>
      </trkpt>
      <trkpt lat="49.89013" lon="4.59345">
        <ele>265</ele>
        <time>2024-04-06T12:01:17Z</time>
      </trkpt>
      <trkpt lat="49.89012" lon="4.59349">
        <ele>265.2</ele>
        <time>2024-04-06T12:01:18Z</time>
      </trkpt>
      <trkpt lat="49.89012" lon="4.59353">
        <ele>265.4</ele>
        <time>2024-04-06T12:01:19Z</time>
      </trkpt>
      <trkpt lat="49.89011" lon="4.59357">
        <ele>265.8</ele>
        <time>2024-04-06T12:01:20Z</time>
      </trkpt>
      <trkpt lat="49.89011" lon="4.59361">
        <ele>265.8</ele>
        <time>2024-04-06T12:01:21Z</time>
      </trkpt>
      <trkpt lat="49.8901" lon="4.59364">
        <ele>266</ele>
        <time>2024-04-06T12:01:22Z</time>
      </trkpt>
      <trkpt lat="49.8901" lon="4.59368">
        <ele>266.2</ele>
        <time>2024-04-06T12:01:23Z</time>
      </trkpt>
      <trkpt lat="49.89009" lon="4.59372">
        <ele>266.4</ele>
        <time>2024-04-06T12:01:24Z</time>
      </trkpt>
      <trkpt lat="49.89009" lon="4.59375">
        <ele>266.4</ele>
        <time>2024-04-06T12:01:25Z</time>
      </trkpt>
      <trkpt lat="49.89008" lon="4.59379">
        <ele>266.6</ele>
        <time>2024-04-06T12:01:26Z</time>
      </trkpt>
      <trkpt lat="49.89008" lon="4.59383">
        <ele>266.8</ele>
        <time>2024-04-06T12:01:27Z</time>
      </trkpt>
      <trkpt lat="49.89008" lon="4.59387">
        <ele>267.2</ele>
        <time>2024-04-06T12:01:28Z</time>
      </trkpt>
      <trkpt lat="49.89007" lon="4.5939">
        <ele>267.8</ele>
        <time>2024-04-06T12:01:29Z</time>
      </trkpt>
      <trkpt lat="49.89006" lon="4.59394">
        <ele>268</ele>
        <time>2024-04-06T12:01:30Z</time>
      </trkpt>
      <trkpt lat="49.89006" lon="4.59398">
        <ele>268.2</ele>
        <time>2024-04-06T12:01:31Z</time>
      </trkpt>
      <trkpt lat="49.89006" lon="4.59402">
        <ele>268.4</ele>
        <time>2024-04-06T12:01:32Z</time>
      </trkpt>
      <trkpt lat="49.89006" lon="4.59406">
        <ele>268.8</ele>
        <time>2024-04-06T12:01:33Z</time>
      </trkpt>
      <trkpt lat="49.89005" lon="4.5941">
        <ele>269</ele>
        <time>2024-04-06T12:01:34Z</time>
      </trkpt>
      <trkpt lat="49.89005" lon="4.59414">
        <ele>269.6</ele>
        <time>2024-04-06T12:01:35Z</time>
      </trkpt>
      <trkpt lat="49.89005" lon="4.59418">
        <ele>270</ele>
        <time>2024-04-06T12:01:36Z</time>
      </trkpt>
      <trkpt lat="49.89004" lon="4.59421">
        <ele>270.2</ele>
        <time>2024-04-06T12:01:37Z</time>
      </trkpt>
      <trkpt lat="49.89004" lon="4.59425">
        <ele>270.2</ele>
        <time>2024-04-06T12:01:38Z</time>
      </trkpt>
      <trkpt lat="49.89004" lon="4.59429">
        <ele>270.6</ele>
        <time>2024-04-06T12:01:39Z</time>
      </trkpt>
      <trkpt lat="49.89003" lon="4.59432">
        <ele>270.6</ele>
        <time>2024-04-06T12:01:40Z</time>
      </trkpt>
      <trkpt lat="49.89003" lon="4.59435">
        <ele>271</ele>
        <time>2024-04-06T12:01:41Z</time>
      </trkpt>
      <trkpt lat="49.89003" lon="4.59439">
        <ele>271</ele>
        <time>2024-04-06T12:01:42Z</time>
      </trkpt>
      <trkpt lat="49.89002" lon="4.59442">
        <ele>271.2</ele>
        <time>2024-04-06T12:01:43Z</time>
      </trkpt>
      <trkpt lat="49.89002" lon="4.59446">
        <ele>271.6</ele>
        <time>2024-04-06T12:01:44Z</time>
      </trkpt>
      <trkpt lat="49.89001" lon="4.5945">
        <ele>271.8</ele>
        <time>2024-04-06T12:01:45Z</time>
      </trkpt>
      <trkpt lat="49.89001" lon="4.59453">
        <ele>272.2</ele>
        <time>2024-04-06T12:01:46Z</time>
      </trkpt>
      <trkpt lat="49.89001" lon="4.59457">
        <ele>272.4</ele>
        <time>2024-04-06T12:01:47Z</time>
      </trkpt>
      <trkpt lat="49.89" lon="4.59461">
        <ele>272.6</ele>
        <time>2024-04-06T12:01:48Z</time>
      </trkpt>
      <trkpt lat="49.89" lon="4.59465">
        <ele>273</ele>
        <time>2024-04-06T12:01:49Z</time>
      </trkpt>
      <trkpt lat="49.88999" lon="4.59468">
        <ele>273.2</ele>
        <time>2024-04-06T12:01:50Z</time>
      </trkpt>
      <trkpt lat="49.88999" lon="4.59472">
        <ele>273.4</ele>
        <time>2024-04-06T12:01:51Z</time>
      </trkpt>
      <trkpt lat="49.88999" lon="4.59476">
        <ele>273.4</ele>
        <time>2024-04-06T12:01:52Z</time>
      </trkpt>
      <trkpt lat="49.88998" lon="4.5948">
        <ele>273.6</ele>
        <time>2024-04-06T12:01:53Z</time>
      </trkpt>
      <trkpt lat="49.88998" lon="4.59484">
        <ele>273.6</ele>
        <time>2024-04-06T12:01:54Z</time>
      </trkpt>
      <trkpt lat="49.88998" lon="4.59487">
        <ele>273.6</ele>
        <time>2024-04-06T12:01:55Z</time>
      </trkpt>
      <trkpt lat="49.88997" lon="4.59491">
        <ele>273.8</ele>
        <time>2024-04-06T12:01:56Z</time>
      </trkpt>
      <trkpt lat="49.88997" lon="4.59495">
        <ele>273.8</ele>
        <time>2024-04-06T12:01:57Z</time>
      </trkpt>
      <trkpt lat="49.88996" lon="4.59499">
        <ele>274</ele>
        <time>2024-04-06T12:01:58Z</time>
      </trkpt>
      <trkpt lat="49.88996" lon="4.59503">
        <ele>274.6</ele>
        <time>2024-04-06T12:01:59Z</time>
      </trkpt>
      <trkpt lat="49.88995" lon="4.59507">
        <ele>275</ele>
        <time>2024-04-06T12:02:00Z</time>
      </trkpt>
      <trkpt lat="49.88995" lon="4.59511">
        <ele>275.2</ele>
        <time>2024-04-06T12:02:01Z</time>
      </trkpt>
      <trkpt lat="49.88995" lon="4.59515">
        <ele>275.4</ele>
        <time>2024-04-06T12:02:02Z</time>
      </trkpt>
      <trkpt lat="49.88994" lon="4.59519">
        <ele>276</ele>
        <time>2024-04-06T12:02:03Z</time>
      </trkpt>
      <trkpt lat="49.88993" lon="4.59523">
        <ele>276</ele>
        <time>2024-04-06T12:02:04Z</time>
      </trkpt>
      <trkpt lat="49.88993" lon="4.59527">
        <ele>276.2</ele>
        <time>2024-04-06T12:02:05Z</time>
      </trkpt>
      <trkpt lat="49.88992" lon="4.59531">
        <ele>276.4</ele>
        <time>2024-04-06T12:02:06Z</time>
      </trkpt>
      <trkpt lat="49.88991" lon="4.59535">
        <ele>277</ele>
        <time>2024-04-06T12:02:07Z</time>
      </trkpt>
      <trkpt lat="49.88991" lon="4.59538">
        <ele>277.2</ele>
        <time>2024-04-06T12:02:08Z</time>
      </trkpt>
      <trkpt lat="49.8899" lon="4.59542">
        <ele>277.4</ele>
        <time>2024-04-06T12:02:09Z</time>
      </trkpt>
      <trkpt lat="49.8899" lon="4.59546">
        <ele>277.4</ele>
        <time>2024-04-06T12:02:10Z</time>
      </trkpt>
      <trkpt lat="49.88989" lon="4.5955">
        <ele>277.8</ele>
        <time>2024-04-06T12:02:11Z</time>
      </trkpt>
      <trkpt lat="49.88988" lon="4.59554">
        <ele>278</ele>
        <time>2024-04-06T12:02:12Z</time>
      </trkpt>
      <trkpt lat="49.88988" lon="4.59558">
        <ele>278.2</ele>
        <time>2024-04-06T12:02:13Z</time>
      </trkpt>
      <trkpt lat="49.88987" lon="4.59562">
        <ele>278.4</ele>
        <time>2024-04-06T12:02:14Z</time>
      </trkpt>
      <trkpt lat="49.88987" lon="4.59565">
        <ele>278.6</ele>
        <time>2024-04-06T12:02:15Z</time>
      </trkpt>
      <trkpt lat="49.88987" lon="4.59569">
        <ele>278.8</ele>
        <time>2024-04-06T12:02:16Z</time>
      </trkpt>
      <trkpt lat="49.88986" lon="4.59573">
        <ele>279.2</ele>
        <time>2024-04-06T12:02:17Z</time>
      </trkpt>
      <trkpt lat="49.88986" lon="4.59577">
        <ele>279.4</ele>
        <time>2024-04-06T12:02:18Z</time>
      </trkpt>
      <trkpt lat="49.88985" lon="4.5958">
        <ele>279.6</ele>
        <time>2024-04-06T12:02:19Z</time>
      </trkpt>
      <trkpt lat="49.88985" lon="4.59584">
        <ele>279.6</ele>
        <time>2024-04-06T12:02:20Z</time>
      </trkpt>
      <trkpt lat="49.88984" lon="4.59588">
        <ele>279.8</ele>
        <time>2024-04-06T12:02:21Z</time>
      </trkpt>
      <trkpt lat="49.88984" lon="4.59592">
        <ele>280</ele>
        <time>2024-04-06T12:02:22Z</time>
      </trkpt>
      <trkpt lat="49.88984" lon="4.59596">
        <ele>280.2</ele>
        <time>2024-04-06T12:02:23Z</time>
      </trkpt>
      <trkpt lat="49.88983" lon="4.59599">
        <ele>280.6</ele>
        <time>2024-04-06T12:02:24Z</time>
      </trkpt>
      <trkpt lat="49.88983" lon="4.59603">
        <ele>281</ele>
        <time>2024-04-06T12:02:25Z</time>
      </trkpt>
      <trkpt lat="49.88982" lon="4.59607">
        <ele>281.4</ele>
        <time>2024-04-06T12:02:26Z</time>
      </trkpt>
      <trkpt lat="49.88982" lon="4.59611">
        <ele>281.6</ele>
        <time>2024-04-06T12:02:27Z</time>
      </trkpt>
      <trkpt lat="49.88981" lon="4.59616">
        <ele>281.8</ele>
        <time>2024-04-06T12:02:28Z</time>
      </trkpt>
      <trkpt lat="49.88981" lon="4.5962">
        <ele>282</ele>
        <time>2024-04-06T12:02:29Z</time>
      </trkpt>
      <trkpt lat="49.8898" lon="4.59624">
        <ele>282.2</ele>
        <time>2024-04-06T12:02:30Z</time>
      </trkpt>
      <trkpt lat="49.8898" lon="4.59628">
        <ele>282.2</ele>
        <time>2024-04-06T12:02:31Z</time>
      </trkpt>
      <trkpt lat="49.88979" lon="4.59632">
        <ele>282.6</ele>
        <time>2024-04-06T12:02:32Z</time>
      </trkpt>
      <trkpt lat="49.88979" lon="4.59636">
        <ele>282.4</ele>
        <time>2024-04-06T12:02:33Z</time>
      </trkpt>
      <trkpt lat="49.88978" lon="4.59639">
        <ele>282.6</ele>
        <time>2024-04-06T12:02:34Z</time>
      </trkpt>
      <trkpt lat="49.88978" lon="4.59643">
        <ele>282.8</ele>
        <time>2024-04-06T12:02:35Z</time>
      </trkpt>
      <trkpt lat="49.88977" lon="4.59647">
        <ele>283</ele>
        <time>2024-04-06T12:02:36Z</time>
      </trkpt>
      <trkpt lat="49.88977" lon="4.59651">
        <ele>283.2</ele>
        <time>2024-04-06T12:02:37Z</time>
      </trkpt>
      <trkpt lat="49.88976" lon="4.59655">
        <ele>283.2</ele>
        <time>2024-04-06T12:02:38Z</time>
      </trkpt>
      <trkpt lat="49.88976" lon="4.59659">
        <ele>283.4</ele>
        <time>2024-04-06T12:02:39Z</time>
      </trkpt>
      <trkpt lat="49.88976" lon="4.59662">
        <ele>283.4</ele>
        <time>2024-04-06T12:02:40Z</time>
      </trkpt>
      <trkpt lat="49.88975" lon="4.59666">
        <ele>283.6</ele>
        <time>2024-04-06T12:02:41Z</time>
      </trkpt>
      <trkpt lat="49.88975" lon="4.5967">
        <ele>284</ele>
        <time>2024-04-06T12:02:42Z</time>
      </trkpt>
      <trkpt lat="49.88974" lon="4.59673">
        <ele>284.4</ele>
        <time>2024-04-06T12:02:43Z</time>
      </trkpt>
      <trkpt lat="49.88974" lon="4.59677">
        <ele>284.4</ele>
        <time>2024-04-06T12:02:44Z</time>
      </trkpt>
      <trkpt lat="49.88973" lon="4.59681">
        <ele>284.8</ele>
        <time>2024-04-06T12:02:45Z</time>
      </trkpt>
      <trkpt lat="49.88973" lon="4.59685">
        <ele>284.8</ele>
        <time>2024-04-06T12:02:46Z</time>
      </trkpt>
      <trkpt lat="49.88972" lon="4.59689">
        <ele>285.2</ele>
        <time>2024-04-06T12:02:47Z</time>
      </trkpt>
      <trkpt lat="49.88972" lon="4.59693">
        <ele>285.4</ele>
        <time>2024-04-06T12:02:48Z</time>
      </trkpt>
      <trkpt lat="49.88972" lon="4.59697">
        <ele>285.6</ele>
        <time>2024-04-06T12:02:49Z</time>
      </trkpt>
      <trkpt lat="49.88971" lon="4.59701">
        <ele>286</ele>
        <time>2024-04-06T12:02:50Z</time>
      </trkpt>
      <trkpt lat="49.88971" lon="4.59705">
        <ele>286.2</ele>
        <time>2024-04-06T12:02:51Z</time>
      </trkpt>
      <trkpt lat="49.88971" lon="4.59708">
        <ele>286.4</ele>
        <time>2024-04-06T12:02:52Z</time>
      </trkpt>
      <trkpt lat="49.8897" lon="4.59712">
        <ele>286.6</ele>
        <time>2024-04-06T12:02:53Z</time>
      </trkpt>
      <trkpt lat="49.8897" lon="4.59716">
        <ele>286.6</ele>
        <time>2024-04-06T12:02:54Z</time>
      </trkpt>
      <trkpt lat="49.8897" lon="4.59719">
        <ele>286.8</ele>
        <time>2024-04-06T12:02:55Z</time>
      </trkpt>
      <trkpt lat="49.88969" lon="4.59722">
        <ele>287.2</ele>
        <time>2024-04-06T12:02:56Z</time>
      </trkpt>
      <trkpt lat="49.88969" lon="4.59726">
        <ele>287.4</ele>
        <time>2024-04-06T12:02:57Z</time>
      </trkpt>
      <trkpt lat="49.88968" lon="4.59729">
        <ele>287.6</ele>
        <time>2024-04-06T12:02:58Z</time>
      </trkpt>
      <trkpt lat="49.88968" lon="4.59733">
        <ele>287.6</ele>
        <time>2024-04-06T12:02:59Z</time>
      </trkpt>
      <trkpt lat="49.88967" lon="4.59737">
        <ele>287.8</ele>
        <time>2024-04-06T12:03:00Z</time>
      </trkpt>
      <trkpt lat="49.88967" lon="4.59741">
        <ele>287.8</ele>
        <time>2024-04-06T12:03:01Z</time>
      </trkpt>
      <trkpt lat="49.88967" lon="4.59745">
        <ele>288</ele>
        <time>2024-04-06T12:03:02Z</time>
      </trkpt>
      <trkpt lat="49.88966" lon="4.59749">
        <ele>288.2</ele>
        <time>2024-04-06T12:03:03Z</time>
      </trkpt>
      <trkpt lat="49.88966" lon="4.59753">
        <ele>288.6</ele>
        <time>2024-04-06T12:03:04Z</time>
      </trkpt>
      <trkpt lat="49.88966" lon="4.59757">
        <ele>288.8</ele>
        <time>2024-04-06T12:03:05Z</time>
      </trkpt>
      <trkpt lat="49.88965" lon="4.59761">
        <ele>289</ele>
        <time>2024-04-06T12:03:06Z</time>
      </trkpt>
      <trkpt lat="49.88965" lon="4.59765">
        <ele>289.2</ele>
        <time>2024-04-06T12:03:07Z</time>
      </trkpt>
      <trkpt lat="49.88964" lon="4.59769">
        <ele>289.4</ele>
        <time>2024-04-06T12:03:08Z</time>
      </trkpt>
      <trkpt lat="49.88964" lon="4.59773">
        <ele>289.6</ele>
        <time>2024-04-06T12:03:09Z</time>
      </trkpt>
      <trkpt lat="49.88963" lon="4.59776">
        <ele>289.8</ele>
        <time>2024-04-06T12:03:10Z</time>
      </trkpt>
      <trkpt lat="49.88963" lon="4.5978">
        <ele>289.8</ele>
        <time>2024-04-06T12:03:11Z</time>
      </trkpt>
      <trkpt lat="49.88962" lon="4.59784">
        <ele>290.2</ele>
        <time>2024-04-06T12:03:12Z</time>
      </trkpt>
      <trkpt lat="49.88962" lon="4.59788">
        <ele>290.4</ele>
        <time>2024-04-06T12:03:13Z</time>
      </trkpt>
      <trkpt lat="49.88962" lon="4.59791">
        <ele>290.4</ele>
        <time>2024-04-06T12:03:14Z</time>
      </trkpt>
      <trkpt lat="49.88961" lon="4.59795">
        <ele>290.6</ele>
        <time>2024-04-06T12:03:15Z</time>
      </trkpt>
      <trkpt lat="49.88961" lon="4.59798">
        <ele>291</ele>
        <time>2024-04-06T12:03:16Z</time>
      </trkpt>
      <trkpt lat="49.8896" lon="4.59802">
        <ele>291.2</ele>
        <time>2024-04-06T12:03:17Z</time>
      </trkpt>
      <trkpt lat="49.88959" lon="4.59805">
        <ele>291.2</ele>
        <time>2024-04-06T12:03:18Z</time>
      </trkpt>
      <trkpt lat="49.88959" lon="4.5981">
        <ele>291.6</ele>
        <time>2024-04-06T12:03:19Z</time>
      </trkpt>
      <trkpt lat="49.88958" lon="4.59814">
        <ele>292</ele>
        <time>2024-04-06T12:03:20Z</time>
      </trkpt>
      <trkpt lat="49.88958" lon="4.59818">
        <ele>292.2</ele>
        <time>2024-04-06T12:03:21Z</time>
      </trkpt>
      <trkpt lat="49.88957" lon="4.59822">
        <ele>292.4</ele>
        <time>2024-04-06T12:03:22Z</time>
      </trkpt>
      <trkpt lat="49.88957" lon="4.59826">
        <ele>292.6</ele>
        <time>2024-04-06T12:03:23Z</time>
      </trkpt>
      <trkpt lat="49.88956" lon="4.5983">
        <ele>292.6</ele>
        <time>2024-04-06T12:03:24Z</time>
      </trkpt>
      <trkpt lat="49.88956" lon="4.59833">
        <ele>292.6</ele>
        <time>2024-04-06T12:03:25Z</time>
      </trkpt>
      <trkpt lat="49.88955" lon="4.59837">
        <ele>293</ele>
        <time>2024-04-06T12:03:26Z</time>
      </trkpt>
      <trkpt lat="49.88955" lon="4.59841">
        <ele>293.4</ele>
        <time>2024-04-06T12:03:27Z</time>
      </trkpt>
      <trkpt lat="49.88954" lon="4.59845">
        <ele>293.8</ele>
        <time>2024-04-06T12:03:28Z</time>
      </trkpt>
      <trkpt lat="49.88954" lon="4.59849">
        <ele>293.8</ele>
        <time>2024-04-06T12:03:29Z</time>
      </trkpt>
      <trkpt lat="49.88954" lon="4.59853">
        <ele>294.2</ele>
        <time>2024-04-06T12:03:30Z</time>
      </trkpt>
      <trkpt lat="49.88953" lon="4.59857">
        <ele>294.2</ele>
        <time>2024-04-06T12:03:31Z</time>
      </trkpt>
      <trkpt lat="49.88952" lon="4.59861">
        <ele>294.4</ele>
        <time>2024-04-06T12:03:32Z</time>
      </trkpt>
      <trkpt lat="49.88951" lon="4.59865">
        <ele>294.4</ele>
        <time>2024-04-06T12:03:33Z</time>
      </trkpt>
      <trkpt lat="49.88951" lon="4.59869">
        <ele>294.6</ele>
        <time>2024-04-06T12:03:34Z</time>
      </trkpt>
      <trkpt lat="49.8895" lon="4.59873">
        <ele>295</ele>
        <time>2024-04-06T12:03:35Z</time>
      </trkpt>
      <trkpt lat="49.8895" lon="4.59877">
        <ele>295</ele>
        <time>2024-04-06T12:03:36Z</time>
      </trkpt>
      <trkpt lat="49.88949" lon="4.59881">
        <ele>295</ele>
        <time>2024-04-06T12:03:37Z</time>
      </trkpt>
      <trkpt lat="49.88949" lon="4.59884">
        <ele>295.4</ele>
        <time>2024-04-06T12:03:38Z</time>
      </trkpt>
      <trkpt lat="49.88949" lon="4.59888">
        <ele>295.4</ele>
        <time>2024-04-06T12:03:39Z</time>
      </trkpt>
      <trkpt lat="49.88949" lon="4.59893">
        <ele>295.8</ele>
        <time>2024-04-06T12:03:40Z</time>
      </trkpt>
      <trkpt lat="49.88948" lon="4.59897">
        <ele>295.8</ele>
        <time>2024-04-06T12:03:41Z</time>
      </trkpt>
      <trkpt lat="49.88948" lon="4.59901">
        <ele>296</ele>
        <time>2024-04-06T12:03:42Z</time>
      </trkpt>
      <trkpt lat="49.88947" lon="4.59905">
        <ele>296.2</ele>
        <time>2024-04-06T12:03:43Z</time>
      </trkpt>
      <trkpt lat="49.88947" lon="4.59909">
        <ele>296.4</ele>
        <time>2024-04-06T12:03:44Z</time>
      </trkpt>
      <trkpt lat="49.88946" lon="4.59913">
        <ele>296.8</ele>
        <time>2024-04-06T12:03:45Z</time>
      </trkpt>
      <trkpt lat="49.88945" lon="4.59917">
        <ele>296.8</ele>
        <time>2024-04-06T12:03:46Z</time>
      </trkpt>
      <trkpt lat="49.88945" lon="4.59921">
        <ele>297.2</ele>
        <time>2024-04-06T12:03:47Z</time>
      </trkpt>
      <trkpt lat="49.88944" lon="4.59925">
        <ele>297.2</ele>
        <time>2024-04-06T12:03:48Z</time>
      </trkpt>
      <trkpt lat="49.88943" lon="4.59929">
        <ele>297.4</ele>
        <time>2024-04-06T12:03:49Z</time>
      </trkpt>
      <trkpt lat="49.88942" lon="4.59933">
        <ele>297.6</ele>
        <time>2024-04-06T12:03:50Z</time>
      </trkpt>
      <trkpt lat="49.8894" lon="4.59937">
        <ele>298</ele>
        <time>2024-04-06T12:03:51Z</time>
      </trkpt>
      <trkpt lat="49.8894" lon="4.5994">
        <ele>298.2</ele>
        <time>2024-04-06T12:03:52Z</time>
      </trkpt>
      <trkpt lat="49.88939" lon="4.59944">
        <ele>298.2</ele>
        <time>2024-04-06T12:03:53Z</time>
      </trkpt>
      <trkpt lat="49.88938" lon="4.59948">
        <ele>298.2</ele>
        <time>2024-04-06T12:03:54Z</time>
      </trkpt>
      <trkpt lat="49.88937" lon="4.59951">
        <ele>298.8</ele>
        <time>2024-04-06T12:03:55Z</time>
      </trkpt>
      <trkpt lat="49.88936" lon="4.59955">
        <ele>299</ele>
        <time>2024-04-06T12:03:56Z</time>
      </trkpt>
      <trkpt lat="49.88935" lon="4.59958">
        <ele>299.4</ele>
        <time>2024-04-06T12:03:57Z</time>
      </trkpt>
      <trkpt lat="49.88934" lon="4.59962">
        <ele>299.8</ele>
        <time>2024-04-06T12:03:58Z</time>
      </trkpt>
      <trkpt lat="49.88933" lon="4.59965">
        <ele>300.2</ele>
        <time>2024-04-06T12:03:59Z</time>
      </trkpt>
      <trkpt lat="49.88931" lon="4.59969">
        <ele>300.4</ele>
        <time>2024-04-06T12:04:00Z</time>
      </trkpt>
      <trkpt lat="49.8893" lon="4.59972">
        <ele>300.6</ele>
        <time>2024-04-06T12:04:01Z</time>
      </trkpt>
      <trkpt lat="49.88929" lon="4.59976">
        <ele>301</ele>
        <time>2024-04-06T12:04:02Z</time>
      </trkpt>
      <trkpt lat="49.88928" lon="4.59979">
        <ele>301.4</ele>
        <time>2024-04-06T12:04:03Z</time>
      </trkpt>
      <trkpt lat="49.88927" lon="4.59983">
        <ele>301.6</ele>
        <time>2024-04-06T12:04:04Z</time>
      </trkpt>
      <trkpt lat="49.88926" lon="4.59987">
        <ele>301.8</ele>
        <time>2024-04-06T12:04:05Z</time>
      </trkpt>
      <trkpt lat="49.88925" lon="4.5999">
        <ele>302</ele>
        <time>2024-04-06T12:04:06Z</time>
      </trkpt>
      <trkpt lat="49.88924" lon="4.59993">
        <ele>302.4</ele>
        <time>2024-04-06T12:04:07Z</time>
      </trkpt>
      <trkpt lat="49.88923" lon="4.59996">
        <ele>302.6</ele>
        <time>2024-04-06T12:04:08Z</time>
      </trkpt>
      <trkpt lat="49.88922" lon="4.6">
        <ele>303</ele>
        <time>2024-04-06T12:04:09Z</time>
      </trkpt>
      <trkpt lat="49.88921" lon="4.60003">
        <ele>303</ele>
        <time>2024-04-06T12:04:10Z</time>
      </trkpt>
      <trkpt lat="49.8892" lon="4.60006">
        <ele>303.2</ele>
        <time>2024-04-06T12:04:11Z</time>
      </trkpt>
      <trkpt lat="49.8892" lon="4.6001">
        <ele>303.4</ele>
        <time>2024-04-06T12:04:12Z</time>
      </trkpt>
      <trkpt lat="49.88919" lon="4.60013">
        <ele>303.6</ele>
        <time>2024-04-06T12:04:13Z</time>
      </trkpt>
      <trkpt lat="49.88918" lon="4.60017">
        <ele>303.6</ele>
        <time>2024-04-06T12:04:14Z</time>
      </trkpt>
      <trkpt lat="49.88917" lon="4.60021">
        <ele>304.2</ele>
        <time>2024-04-06T12:04:15Z</time>
      </trkpt>
      <trkpt lat="49.88917" lon="4.60024">
        <ele>304.4</ele>
        <time>2024-04-06T12:04:16Z</time>
      </trkpt>
      <trkpt lat="49.88916" lon="4.60027">
        <ele>304.4</ele>
        <time>2024-04-06T12:04:17Z</time>
      </trkpt>
      <trkpt lat="49.88915" lon="4.60031">
        <ele>304.6</ele>
        <time>2024-04-06T12:04:18Z</time>
      </trkpt>
      <trkpt lat="49.88915" lon="4.60034">
        <ele>304.8</ele>
        <time>2024-04-06T12:04:19Z</time>
      </trkpt>
      <trkpt lat="49.88914" lon="4.60038">
        <ele>304.8</ele>
        <time>2024-04-06T12:04:20Z</time>
      </trkpt>
      <trkpt lat="49.88914" lon="4.60041">
        <ele>304.8</ele>
        <time>2024-04-06T12:04:21Z</time>
      </trkpt>
      <trkpt lat="49.88913" lon="4.60045">
        <ele>305</ele>
        <time>2024-04-06T12:04:22Z</time>
      </trkpt>
      <trkpt lat="49.88913" lon="4.60049">
        <ele>305</ele>
        <time>2024-04-06T12:04:23Z</time>
      </trkpt>
      <trkpt lat="49.88913" lon="4.60052">
        <ele>305</ele>
        <time>2024-04-06T12:04:24Z</time>
      </trkpt>
      <trkpt lat="49.88913" lon="4.60056">
        <ele>305.2</ele>
        <time>2024-04-06T12:04:25Z</time>
      </trkpt>
      <trkpt lat="49.88913" lon="4.60059">
        <ele>305.4</ele>
        <time>2024-04-06T12:04:26Z</time>
      </trkpt>
      <trkpt lat="49.88913" lon="4.60063">
        <ele>305.8</ele>
        <time>2024-04-06T12:04:27Z</time>
      </trkpt>
      <trkpt lat="49.88913" lon="4.60067">
        <ele>306</ele>
        <time>2024-04-06T12:04:28Z</time>
      </trkpt>
      <trkpt lat="49.88913" lon="4.60071">
        <ele>306</ele>
        <time>2024-04-06T12:04:29Z</time>
      </trkpt>
      <trkpt lat="49.88913" lon="4.60075">
        <ele>306.4</ele>
        <time>2024-04-06T12:04:30Z</time>
      </trkpt>
      <trkpt lat="49.88913" lon="4.6008">
        <ele>306.6</ele>
        <time>2024-04-06T12:04:31Z</time>
      </trkpt>
      <trkpt lat="49.88913" lon="4.60084">
        <ele>306.6</ele>
        <time>2024-04-06T12:04:32Z</time>
      </trkpt>
      <trkpt lat="49.88912" lon="4.60088">
        <ele>307</ele>
        <time>2024-04-06T12:04:33Z</time>
      </trkpt>
      <trkpt lat="49.88912" lon="4.60093">
        <ele>307.6</ele>
        <time>2024-04-06T12:04:34Z</time>
      </trkpt>
      <trkpt lat="49.88912" lon="4.60097">
        <ele>307.8</ele>
        <time>2024-04-06T12:04:35Z</time>
      </trkpt>
      <trkpt lat="49.88912" lon="4.60102">
        <ele>308.4</ele>
        <time>2024-04-06T12:04:36Z</time>
      </trkpt>
      <trkpt lat="49.88912" lon="4.60106">
        <ele>308.4</ele>
        <time>2024-04-06T12:04:37Z</time>
      </trkpt>
      <trkpt lat="49.88912" lon="4.6011">
        <ele>308.6</ele>
        <time>2024-04-06T12:04:38Z</time>
      </trkpt>
      <trkpt lat="49.88912" lon="4.60115">
        <ele>308.6</ele>
        <time>2024-04-06T12:04:39Z</time>
      </trkpt>
      <trkpt lat="49.88912" lon="4.60119">
        <ele>308.6</ele>
        <time>2024-04-06T12:04:40Z</time>
      </trkpt>
      <trkpt lat="49.88912" lon="4.60124">
        <ele>308.8</ele>
        <time>2024-04-06T12:04:41Z</time>
      </trkpt>
      <trkpt lat="49.88912" lon="4.60128">
        <ele>309</ele>
        <time>2024-04-06T12:04:42Z</time>
      </trkpt>
      <trkpt lat="49.88913" lon="4.60133">
        <ele>309.2</ele>
        <time>2024-04-06T12:04:43Z</time>
      </trkpt>
      <trkpt lat="49.88913" lon="4.60137">
        <ele>309.4</ele>
        <time>2024-04-06T12:04:44Z</time>
      </trkpt>
      <trkpt lat="49.88913" lon="4.60142">
        <ele>309.4</ele>
        <time>2024-04-06T12:04:45Z</time>
      </trkpt>
      <trkpt lat="49.88913" lon="4.60146">
        <ele>309.8</ele>
        <time>2024-04-06T12:04:46Z</time>
      </trkpt>
      <trkpt lat="49.88913" lon="4.6015">
        <ele>310</ele>
        <time>2024-04-06T12:04:47Z</time>
      </trkpt>
      <trkpt lat="49.88913" lon="4.60153">
        <ele>310.2</ele>
        <time>2024-04-06T12:04:48Z</time>
      </trkpt>
      <trkpt lat="49.88913" lon="4.60157">
        <ele>310.8</ele>
        <time>2024-04-06T12:04:49Z</time>
      </trkpt>
      <trkpt lat="49.88913" lon="4.60161">
        <ele>311.4</ele>
        <time>2024-04-06T12:04:50Z</time>
      </trkpt>
      <trkpt lat="49.88914" lon="4.60165">
        <ele>311.8</ele>
        <time>2024-04-06T12:04:51Z</time>
      </trkpt>
      <trkpt lat="49.88914" lon="4.60168">
        <ele>312.2</ele>
        <time>2024-04-06T12:04:52Z</time>
      </trkpt>
      <trkpt lat="49.88914" lon="4.60172">
        <ele>312.4</ele>
        <time>2024-04-06T12:04:53Z</time>
      </trkpt>
      <trkpt lat="49.88914" lon="4.60176">
        <ele>312.8</ele>
        <time>2024-04-06T12:04:54Z</time>
      </trkpt>
      <trkpt lat="49.88914" lon="4.6018">
        <ele>313</ele>
        <time>2024-04-06T12:04:55Z</time>
      </trkpt>
      <trkpt lat="49.88915" lon="4.60184">
        <ele>313.2</ele>
        <time>2024-04-06T12:04:56Z</time>
      </trkpt>
      <trkpt lat="49.88915" lon="4.60188">
        <ele>313.4</ele>
        <time>2024-04-06T12:04:57Z</time>
      </trkpt>
      <trkpt lat="49.88916" lon="4.60192">
        <ele>313.6</ele>
        <time>2024-04-06T12:04:58Z</time>
      </trkpt>
      <trkpt lat="49.88916" lon="4.60196">
        <ele>314</ele>
        <time>2024-04-06T12:04:59Z</time>
      </trkpt>
      <trkpt lat="49.88917" lon="4.60199">
        <ele>314.2</ele>
        <time>2024-04-06T12:05:00Z</time>
      </trkpt>
      <trkpt lat="49.88918" lon="4.60203">
        <ele>314.4</ele>
        <time>2024-04-06T12:05:01Z</time>
      </trkpt>
      <trkpt lat="49.88919" lon="4.60206">
        <ele>314.6</ele>
        <time>2024-04-06T12:05:02Z</time>
      </trkpt>
      <trkpt lat="49.88919" lon="4.6021">
        <ele>314.8</ele>
        <time>2024-04-06T12:05:03Z</time>
      </trkpt>
      <trkpt lat="49.88919" lon="4.60213">
        <ele>315</ele>
        <time>2024-04-06T12:05:04Z</time>
      </trkpt>
      <trkpt lat="49.8892" lon="4.60216">
        <ele>315.4</ele>
        <time>2024-04-06T12:05:05Z</time>
      </trkpt>
      <trkpt lat="49.8892" lon="4.6022">
        <ele>315.8</ele>
        <time>2024-04-06T12:05:06Z</time>
      </trkpt>
      <trkpt lat="49.8892" lon="4.60223">
        <ele>315.8</ele>
        <time>2024-04-06T12:05:07Z</time>
      </trkpt>
      <trkpt lat="49.8892" lon="4.60226">
        <ele>316</ele>
        <time>2024-04-06T12:05:08Z</time>
      </trkpt>
      <trkpt lat="49.8892" lon="4.6023">
        <ele>316.2</ele>
        <time>2024-04-06T12:05:09Z</time>
      </trkpt>
      <trkpt lat="49.8892" lon="4.60234">
        <ele>316.4</ele>
        <time>2024-04-06T12:05:10Z</time>
      </trkpt>
      <trkpt lat="49.8892" lon="4.60238">
        <ele>316.8</ele>
        <time>2024-04-06T12:05:11Z</time>
      </trkpt>
      <trkpt lat="49.8892" lon="4.60242">
        <ele>316.8</ele>
        <time>2024-04-06T12:05:12Z</time>
      </trkpt>
      <trkpt lat="49.8892" lon="4.60245">
        <ele>317</ele>
        <time>2024-04-06T12:05:13Z</time>
      </trkpt>
      <trkpt lat="49.8892" lon="4.60249">
        <ele>317.2</ele>
        <time>2024-04-06T12:05:14Z</time>
      </trkpt>
      <trkpt lat="49.88921" lon="4.60252">
        <ele>317.4</ele>
        <time>2024-04-06T12:05:15Z</time>
      </trkpt>
      <trkpt lat="49.88921" lon="4.60256">
        <ele>317.6</ele>
        <time>2024-04-06T12:05:16Z</time>
      </trkpt>
      <trkpt lat="49.88921" lon="4.6026">
        <ele>317.6</ele>
        <time>2024-04-06T12:05:17Z</time>
      </trkpt>
      <trkpt lat="49.88921" lon="4.60263">
        <ele>318</ele>
        <time>2024-04-06T12:05:18Z</time>
      </trkpt>
      <trkpt lat="49.88922" lon="4.60266">
        <ele>318.2</ele>
        <time>2024-04-06T12:05:19Z</time>
      </trkpt>
      <trkpt lat="49.88922" lon="4.60269">
        <ele>318.6</ele>
        <time>2024-04-06T12:05:20Z</time>
      </trkpt>
      <trkpt lat="49.88922" lon="4.60272">
        <ele>318.6</ele>
        <time>2024-04-06T12:05:21Z</time>
      </trkpt>
      <trkpt lat="49.88923" lon="4.60276">
        <ele>319</ele>
        <time>2024-04-06T12:05:22Z</time>
      </trkpt>
      <trkpt lat="49.88923" lon="4.60279">
        <ele>319.2</ele>
        <time>2024-04-06T12:05:23Z</time>
      </trkpt>
      <trkpt lat="49.88923" lon="4.60282">
        <ele>319.6</ele>
        <time>2024-04-06T12:05:24Z</time>
      </trkpt>
      <trkpt lat="49.88923" lon="4.60286">
        <ele>319.8</ele>
        <time>2024-04-06T12:05:25Z</time>
      </trkpt>
      <trkpt lat="49.88923" lon="4.60289">
        <ele>319.8</ele>
        <time>2024-04-06T12:05:26Z</time>
      </trkpt>
      <trkpt lat="49.88923" lon="4.60292">
        <ele>320.2</ele>
        <time>2024-04-06T12:05:27Z</time>
      </trkpt>
      <trkpt lat="49.88924" lon="4.60296">
        <ele>320.4</ele>
        <time>2024-04-06T12:05:28Z</time>
      </trkpt>
      <trkpt lat="49.88924" lon="4.60299">
        <ele>320.6</ele>
        <time>2024-04-06T12:05:29Z</time>
      </trkpt>
      <trkpt lat="49.88924" lon="4.60303">
        <ele>320.8</ele>
        <time>2024-04-06T12:05:30Z</time>
      </trkpt>
      <trkpt lat="49.88924" lon="4.60306">
        <ele>320.8</ele>
        <time>2024-04-06T12:05:31Z</time>
      </trkpt>
      <trkpt lat="49.88924" lon="4.60309">
        <ele>321</ele>
        <time>2024-04-06T12:05:32Z</time>
      </trkpt>
      <trkpt lat="49.88925" lon="4.60313">
        <ele>321.4</ele>
        <time>2024-04-06T12:05:33Z</time>
      </trkpt>
      <trkpt lat="49.88925" lon="4.60316">
        <ele>321.6</ele>
        <time>2024-04-06T12:05:34Z</time>
      </trkpt>
      <trkpt lat="49.88925" lon="4.60319">
        <ele>321.8</ele>
        <time>2024-04-06T12:05:35Z</time>
      </trkpt>
      <trkpt lat="49.88925" lon="4.60323">
        <ele>322</ele>
        <time>2024-04-06T12:05:36Z</time>
      </trkpt>
      <trkpt lat="49.88926" lon="4.60326">
        <ele>322.4</ele>
        <time>2024-04-06T12:05:37Z</time>
      </trkpt>
      <trkpt lat="49.88925" lon="4.60329">
        <ele>322.4</ele>
        <time>2024-04-06T12:05:38Z</time>
      </trkpt>
      <trkpt lat="49.88926" lon="4.60332">
        <ele>322.6</ele>
        <time>2024-04-06T12:05:39Z</time>
      </trkpt>
      <trkpt lat="49.88926" lon="4.60336">
        <ele>322.8</ele>
        <time>2024-04-06T12:05:40Z</time>
      </trkpt>
      <trkpt lat="49.88926" lon="4.60339">
        <ele>323</ele>
        <time>2024-04-06T12:05:41Z</time>
      </trkpt>
      <trkpt lat="49.88926" lon="4.60342">
        <ele>323.2</ele>
        <time>2024-04-06T12:05:42Z</time>
      </trkpt>
      <trkpt lat="49.88926" lon="4.60345">
        <ele>323.2</ele>
        <time>2024-04-06T12:05:43Z</time>
      </trkpt>
      <trkpt lat="49.88926" lon="4.60349">
        <ele>323.4</ele>
        <time>2024-04-06T12:05:44Z</time>
      </trkpt>
      <trkpt lat="49.88926" lon="4.60351">
        <ele>323.6</ele>
        <time>2024-04-06T12:05:45Z</time>
      </trkpt>
      <trkpt lat="49.88927" lon="4.60354">
        <ele>323.8</ele>
        <time>2024-04-06T12:05:46Z</time>
      </trkpt>
      <trkpt lat="49.88927" lon="4.60358">
        <ele>324</ele>
        <time>2024-04-06T12:05:47Z</time>
      </trkpt>
      <trkpt lat="49.88926" lon="4.60361">
        <ele>324.2</ele>
        <time>2024-04-06T12:05:48Z</time>
      </trkpt>
      <trkpt lat="49.88927" lon="4.60363">
        <ele>324.4</ele>
        <time>2024-04-06T12:05:49Z</time>
      </trkpt>
      <trkpt lat="49.88927" lon="4.60367">
        <ele>324.4</ele>
        <time>2024-04-06T12:05:50Z</time>
      </trkpt>
      <trkpt lat="49.88928" lon="4.6037">
        <ele>324.8</ele>
        <time>2024-04-06T12:05:51Z</time>
      </trkpt>
      <trkpt lat="49.88928" lon="4.60373">
        <ele>325</ele>
        <time>2024-04-06T12:05:52Z</time>
      </trkpt>
      <trkpt lat="49.88929" lon="4.60377">
        <ele>325.2</ele>
        <time>2024-04-06T12:05:53Z</time>
      </trkpt>
      <trkpt lat="49.88929" lon="4.6038">
        <ele>325.4</ele>
        <time>2024-04-06T12:05:54Z</time>
      </trkpt>
      <trkpt lat="49.88929" lon="4.60383">
        <ele>325.4</ele>
        <time>2024-04-06T12:05:55Z</time>
      </trkpt>
      <trkpt lat="49.88929" lon="4.60386">
        <ele>325.6</ele>
        <time>2024-04-06T12:05:56Z</time>
      </trkpt>
      <trkpt lat="49.88929" lon="4.6039">
        <ele>325.8</ele>
        <time>2024-04-06T12:05:57Z</time>
      </trkpt>
      <trkpt lat="49.88929" lon="4.60394">
        <ele>326</ele>
        <time>2024-04-06T12:05:58Z</time>
      </trkpt>
      <trkpt lat="49.88929" lon="4.60398">
        <ele>326.2</ele>
        <time>2024-04-06T12:05:59Z</time>
      </trkpt>
      <trkpt lat="49.8893" lon="4.60401">
        <ele>326.4</ele>
        <time>2024-04-06T12:06:00Z</time>
      </trkpt>
      <trkpt lat="49.8893" lon="4.60405">
        <ele>326.4</ele>
        <time>2024-04-06T12:06:01Z</time>
      </trkpt>
      <trkpt lat="49.8893" lon="4.60408">
        <ele>326.8</ele>
        <time>2024-04-06T12:06:02Z</time>
      </trkpt>
      <trkpt lat="49.88931" lon="4.60412">
        <ele>327</ele>
        <time>2024-04-06T12:06:03Z</time>
      </trkpt>
      <trkpt lat="49.88932" lon="4.60415">
        <ele>327</ele>
        <time>2024-04-06T12:06:04Z</time>
      </trkpt>
      <trkpt lat="49.88932" lon="4.60419">
        <ele>327.2</ele>
        <time>2024-04-06T12:06:05Z</time>
      </trkpt>
      <trkpt lat="49.88932" lon="4.60422">
        <ele>327.2</ele>
        <time>2024-04-06T12:06:06Z</time>
      </trkpt>
      <trkpt lat="49.88933" lon="4.60426">
        <ele>327.6</ele>
        <time>2024-04-06T12:06:07Z</time>
      </trkpt>
      <trkpt lat="49.88933" lon="4.60429">
        <ele>327.6</ele>
        <time>2024-04-06T12:06:08Z</time>
      </trkpt>
      <trkpt lat="49.88933" lon="4.60433">
        <ele>327.8</ele>
        <time>2024-04-06T12:06:09Z</time>
      </trkpt>
      <trkpt lat="49.88933" lon="4.60436">
        <ele>327.8</ele>
        <time>2024-04-06T12:06:10Z</time>
      </trkpt>
      <trkpt lat="49.88933" lon="4.6044">
        <ele>328</ele>
        <time>2024-04-06T12:06:11Z</time>
      </trkpt>
      <trkpt lat="49.88932" lon="4.60443">
        <ele>328.2</ele>
        <time>2024-04-06T12:06:12Z</time>
      </trkpt>
      <trkpt lat="49.88932" lon="4.60447">
        <ele>328.4</ele>
        <time>2024-04-06T12:06:13Z</time>
      </trkpt>
      <trkpt lat="49.88932" lon="4.6045">
        <ele>328.4</ele>
        <time>2024-04-06T12:06:14Z</time>
      </trkpt>
      <trkpt lat="49.88932" lon="4.60453">
        <ele>328.6</ele>
        <time>2024-04-06T12:06:15Z</time>
      </trkpt>
      <trkpt lat="49.88932" lon="4.60456">
        <ele>329</ele>
        <time>2024-04-06T12:06:16Z</time>
      </trkpt>
      <trkpt lat="49.88932" lon="4.6046">
        <ele>329.4</ele>
        <time>2024-04-06T12:06:17Z</time>
      </trkpt>
      <trkpt lat="49.88932" lon="4.60463">
        <ele>329.8</ele>
        <time>2024-04-06T12:06:18Z</time>
      </trkpt>
      <trkpt lat="49.88933" lon="4.60467">
        <ele>330</ele>
        <time>2024-04-06T12:06:19Z</time>
      </trkpt>
      <trkpt lat="49.88934" lon="4.6047">
        <ele>330</ele>
        <time>2024-04-06T12:06:20Z</time>
      </trkpt>
      <trkpt lat="49.88933" lon="4.60473">
        <ele>330.2</ele>
        <time>2024-04-06T12:06:21Z</time>
      </trkpt>
      <trkpt lat="49.88933" lon="4.60476">
        <ele>330.6</ele>
        <time>2024-04-06T12:06:22Z</time>
      </trkpt>
      <trkpt lat="49.88932" lon="4.60479">
        <ele>331</ele>
        <time>2024-04-06T12:06:23Z</time>
      </trkpt>
      <trkpt lat="49.88932" lon="4.60482">
        <ele>331</ele>
        <time>2024-04-06T12:06:24Z</time>
      </trkpt>
      <trkpt lat="49.88932" lon="4.60486">
        <ele>331.2</ele>
        <time>2024-04-06T12:06:25Z</time>
      </trkpt>
      <trkpt lat="49.88932" lon="4.60489">
        <ele>331.6</ele>
        <time>2024-04-06T12:06:26Z</time>
      </trkpt>
      <trkpt lat="49.88933" lon="4.60492">
        <ele>332</ele>
        <time>2024-04-06T12:06:27Z</time>
      </trkpt>
      <trkpt lat="49.88933" lon="4.60495">
        <ele>332.2</ele>
        <time>2024-04-06T12:06:28Z</time>
      </trkpt>
      <trkpt lat="49.88933" lon="4.60498">
        <ele>332.6</ele>
        <time>2024-04-06T12:06:29Z</time>
      </trkpt>
      <trkpt lat="49.88933" lon="4.60501">
        <ele>332.6</ele>
        <time>2024-04-06T12:06:30Z</time>
      </trkpt>
      <trkpt lat="49.88933" lon="4.60504">
        <ele>333</ele>
        <time>2024-04-06T12:06:31Z</time>
      </trkpt>
      <trkpt lat="49.88933" lon="4.60507">
        <ele>333</ele>
        <time>2024-04-06T12:06:32Z</time>
      </trkpt>
      <trkpt lat="49.88933" lon="4.60511">
        <ele>333</ele>
        <time>2024-04-06T12:06:33Z</time>
      </trkpt>
      <trkpt lat="49.88932" lon="4.60514">
        <ele>333.2</ele>
        <time>2024-04-06T12:06:34Z</time>
      </trkpt>
      <trkpt lat="49.88932" lon="4.60517">
        <ele>333.4</ele>
        <time>2024-04-06T12:06:35Z</time>
      </trkpt>
      <trkpt lat="49.88932" lon="4.6052">
        <ele>333.4</ele>
        <time>2024-04-06T12:06:36Z</time>
      </trkpt>
      <trkpt lat="49.88933" lon="4.60524">
        <ele>333.6</ele>
        <time>2024-04-06T12:06:37Z</time>
      </trkpt>
      <trkpt lat="49.88933" lon="4.60527">
        <ele>333.8</ele>
        <time>2024-04-06T12:06:38Z</time>
      </trkpt>
      <trkpt lat="49.88933" lon="4.6053">
        <ele>333.8</ele>
        <time>2024-04-06T12:06:39Z</time>
      </trkpt>
      <trkpt lat="49.88933" lon="4.60533">
        <ele>334.2</ele>
        <time>2024-04-06T12:06:40Z</time>
      </trkpt>
      <trkpt lat="49.88932" lon="4.60537">
        <ele>334.4</ele>
        <time>2024-04-06T12:06:41Z</time>
      </trkpt>
      <trkpt lat="49.88932" lon="4.6054">
        <ele>334.8</ele>
        <time>2024-04-06T12:06:42Z</time>
      </trkpt>
      <trkpt lat="49.88935" lon="4.60543">
        <ele>335.2</ele>
        <time>2024-04-06T12:06:43Z</time>
      </trkpt>
      <trkpt lat="49.88936" lon="4.60547">
        <ele>335.4</ele>
        <time>2024-04-06T12:06:44Z</time>
      </trkpt>
      <trkpt lat="49.88936" lon="4.6055">
        <ele>335.6</ele>
        <time>2024-04-06T12:06:45Z</time>
      </trkpt>
      <trkpt lat="49.88937" lon="4.60553">
        <ele>335.6</ele>
        <time>2024-04-06T12:06:46Z</time>
      </trkpt>
      <trkpt lat="49.88937" lon="4.60557">
        <ele>335.8</ele>
        <time>2024-04-06T12:06:47Z</time>
      </trkpt>
      <trkpt lat="49.88938" lon="4.6056">
        <ele>336</ele>
        <time>2024-04-06T12:06:48Z</time>
      </trkpt>
      <trkpt lat="49.88938" lon="4.60564">
        <ele>336</ele>
        <time>2024-04-06T12:06:49Z</time>
      </trkpt>
      <trkpt lat="49.88938" lon="4.60567">
        <ele>336</ele>
        <time>2024-04-06T12:06:50Z</time>
      </trkpt>
      <trkpt lat="49.88939" lon="4.6057">
        <ele>336.2</ele>
        <time>2024-04-06T12:06:51Z</time>
      </trkpt>
      <trkpt lat="49.88939" lon="4.60573">
        <ele>336.4</ele>
        <time>2024-04-06T12:06:52Z</time>
      </trkpt>
      <trkpt lat="49.88939" lon="4.60576">
        <ele>336.4</ele>
        <time>2024-04-06T12:06:53Z</time>
      </trkpt>
      <trkpt lat="49.88939" lon="4.60579">
        <ele>336.4</ele>
        <time>2024-04-06T12:06:54Z</time>
      </trkpt>
      <trkpt lat="49.88938" lon="4.60583">
        <ele>336.6</ele>
        <time>2024-04-06T12:06:55Z</time>
      </trkpt>
      <trkpt lat="49.88938" lon="4.60586">
        <ele>337</ele>
        <time>2024-04-06T12:06:56Z</time>
      </trkpt>
      <trkpt lat="49.88938" lon="4.60589">
        <ele>337</ele>
        <time>2024-04-06T12:06:57Z</time>
      </trkpt>
      <trkpt lat="49.88938" lon="4.60592">
        <ele>337.2</ele>
        <time>2024-04-06T12:06:58Z</time>
      </trkpt>
      <trkpt lat="49.88939" lon="4.60594">
        <ele>337.6</ele>
        <time>2024-04-06T12:06:59Z</time>
      </trkpt>
      <trkpt lat="49.88939" lon="4.60597">
        <ele>337.8</ele>
        <time>2024-04-06T12:07:00Z</time>
      </trkpt>
      <trkpt lat="49.88939" lon="4.606">
        <ele>337.8</ele>
        <time>2024-04-06T12:07:01Z</time>
      </trkpt>
      <trkpt lat="49.88939" lon="4.60604">
        <ele>338.2</ele>
        <time>2024-04-06T12:07:02Z</time>
      </trkpt>
      <trkpt lat="49.88939" lon="4.60607">
        <ele>338.4</ele>
        <time>2024-04-06T12:07:03Z</time>
      </trkpt>
      <trkpt lat="49.88939" lon="4.6061">
        <ele>338.8</ele>
        <time>2024-04-06T12:07:04Z</time>
      </trkpt>
      <trkpt lat="49.88939" lon="4.60613">
        <ele>339</ele>
        <time>2024-04-06T12:07:05Z</time>
      </trkpt>
      <trkpt lat="49.8894" lon="4.60616">
        <ele>339</ele>
        <time>2024-04-06T12:07:06Z</time>
      </trkpt>
      <trkpt lat="49.8894" lon="4.60619">
        <ele>339.2</ele>
        <time>2024-04-06T12:07:07Z</time>
      </trkpt>
      <trkpt lat="49.88939" lon="4.60622">
        <ele>339.4</ele>
        <time>2024-04-06T12:07:08Z</time>
      </trkpt>
      <trkpt lat="49.88939" lon="4.60625">
        <ele>339.4</ele>
        <time>2024-04-06T12:07:09Z</time>
      </trkpt>
      <trkpt lat="49.88939" lon="4.60629">
        <ele>339.6</ele>
        <time>2024-04-06T12:07:10Z</time>
      </trkpt>
      <trkpt lat="49.88939" lon="4.60632">
        <ele>340</ele>
        <time>2024-04-06T12:07:11Z</time>
      </trkpt>
      <trkpt lat="49.88939" lon="4.60635">
        <ele>340.2</ele>
        <time>2024-04-06T12:07:12Z</time>
      </trkpt>
      <trkpt lat="49.8894" lon="4.60638">
        <ele>340.2</ele>
        <time>2024-04-06T12:07:13Z</time>
      </trkpt>
      <trkpt lat="49.8894" lon="4.60642">
        <ele>340.4</ele>
        <time>2024-04-06T12:07:14Z</time>
      </trkpt>
      <trkpt lat="49.8894" lon="4.60646">
        <ele>340.4</ele>
        <time>2024-04-06T12:07:15Z</time>
      </trkpt>
      <trkpt lat="49.88941" lon="4.60649">
        <ele>340.6</ele>
        <time>2024-04-06T12:07:16Z</time>
      </trkpt>
      <trkpt lat="49.88942" lon="4.60653">
        <ele>340.4</ele>
        <time>2024-04-06T12:07:17Z</time>
      </trkpt>
      <trkpt lat="49.88943" lon="4.60657">
        <ele>340.6</ele>
        <time>2024-04-06T12:07:18Z</time>
      </trkpt>
      <trkpt lat="49.88943" lon="4.6066">
        <ele>341.4</ele>
        <time>2024-04-06T12:07:19Z</time>
      </trkpt>
      <trkpt lat="49.88944" lon="4.60664">
        <ele>341.6</ele>
        <time>2024-04-06T12:07:20Z</time>
      </trkpt>
      <trkpt lat="49.88945" lon="4.60668">
        <ele>342</ele>
        <time>2024-04-06T12:07:21Z</time>
      </trkpt>
      <trkpt lat="49.88945" lon="4.60671">
        <ele>342</ele>
        <time>2024-04-06T12:07:22Z</time>
      </trkpt>
      <trkpt lat="49.88945" lon="4.60675">
        <ele>342.2</ele>
        <time>2024-04-06T12:07:23Z</time>
      </trkpt>
      <trkpt lat="49.88946" lon="4.60678">
        <ele>342.4</ele>
        <time>2024-04-06T12:07:24Z</time>
      </trkpt>
      <trkpt lat="49.88946" lon="4.60681">
        <ele>342.4</ele>
        <time>2024-04-06T12:07:25Z</time>
      </trkpt>
      <trkpt lat="49.88946" lon="4.60684">
        <ele>342.4</ele>
        <time>2024-04-06T12:07:26Z</time>
      </trkpt>
      <trkpt lat="49.88946" lon="4.60688">
        <ele>342.6</ele>
        <time>2024-04-06T12:07:27Z</time>
      </trkpt>
      <trkpt lat="49.88947" lon="4.60691">
        <ele>342.6</ele>
        <time>2024-04-06T12:07:28Z</time>
      </trkpt>
      <trkpt lat="49.88947" lon="4.60695">
        <ele>342.8</ele>
        <time>2024-04-06T12:07:29Z</time>
      </trkpt>
      <trkpt lat="49.88947" lon="4.60698">
        <ele>342.8</ele>
        <time>2024-04-06T12:07:30Z</time>
      </trkpt>
      <trkpt lat="49.88947" lon="4.60701">
        <ele>343</ele>
        <time>2024-04-06T12:07:31Z</time>
      </trkpt>
      <trkpt lat="49.88947" lon="4.60704">
        <ele>343.2</ele>
        <time>2024-04-06T12:07:32Z</time>
      </trkpt>
      <trkpt lat="49.88948" lon="4.60708">
        <ele>343.4</ele>
        <time>2024-04-06T12:07:33Z</time>
      </trkpt>
      <trkpt lat="49.88948" lon="4.60711">
        <ele>343.6</ele>
        <time>2024-04-06T12:07:34Z</time>
      </trkpt>
      <trkpt lat="49.88947" lon="4.60715">
        <ele>343.8</ele>
        <time>2024-04-06T12:07:35Z</time>
      </trkpt>
      <trkpt lat="49.88947" lon="4.60719">
        <ele>343.6</ele>
        <time>2024-04-06T12:07:36Z</time>
      </trkpt>
      <trkpt lat="49.88947" lon="4.60722">
        <ele>343.8</ele>
        <time>2024-04-06T12:07:37Z</time>
      </trkpt>
      <trkpt lat="49.88947" lon="4.60726">
        <ele>344.2</ele>
        <time>2024-04-06T12:07:38Z</time>
      </trkpt>
      <trkpt lat="49.88947" lon="4.60729">
        <ele>344.2</ele>
        <time>2024-04-06T12:07:39Z</time>
      </trkpt>
      <trkpt lat="49.88947" lon="4.60733">
        <ele>344.4</ele>
        <time>2024-04-06T12:07:40Z</time>
      </trkpt>
      <trkpt lat="49.88948" lon="4.60736">
        <ele>344.8</ele>
        <time>2024-04-06T12:07:41Z</time>
      </trkpt>
      <trkpt lat="49.88948" lon="4.6074">
        <ele>345</ele>
        <time>2024-04-06T12:07:42Z</time>
      </trkpt>
      <trkpt lat="49.88948" lon="4.60743">
        <ele>345.2</ele>
        <time>2024-04-06T12:07:43Z</time>
      </trkpt>
      <trkpt lat="49.88949" lon="4.60746">
        <ele>345.6</ele>
        <time>2024-04-06T12:07:44Z</time>
      </trkpt>
      <trkpt lat="49.88949" lon="4.6075">
        <ele>345.8</ele>
        <time>2024-04-06T12:07:45Z</time>
      </trkpt>
      <trkpt lat="49.8895" lon="4.60754">
        <ele>346</ele>
        <time>2024-04-06T12:07:46Z</time>
      </trkpt>
      <trkpt lat="49.8895" lon="4.60757">
        <ele>346</ele>
        <time>2024-04-06T12:07:47Z</time>
      </trkpt>
      <trkpt lat="49.88951" lon="4.60761">
        <ele>346.2</ele>
        <time>2024-04-06T12:07:48Z</time>
      </trkpt>
      <trkpt lat="49.88951" lon="4.60764">
        <ele>346.2</ele>
        <time>2024-04-06T12:07:49Z</time>
      </trkpt>
      <trkpt lat="49.88952" lon="4.60768">
        <ele>346.2</ele>
        <time>2024-04-06T12:07:50Z</time>
      </trkpt>
      <trkpt lat="49.88953" lon="4.60772">
        <ele>346.2</ele>
        <time>2024-04-06T12:07:51Z</time>
      </trkpt>
      <trkpt lat="49.88954" lon="4.60775">
        <ele>346.8</ele>
        <time>2024-04-06T12:07:52Z</time>
      </trkpt>
      <trkpt lat="49.88954" lon="4.60778">
        <ele>347</ele>
        <time>2024-04-06T12:07:53Z</time>
      </trkpt>
      <trkpt lat="49.88955" lon="4.60782">
        <ele>347.2</ele>
        <time>2024-04-06T12:07:54Z</time>
      </trkpt>
      <trkpt lat="49.88956" lon="4.60785">
        <ele>347.4</ele>
        <time>2024-04-06T12:07:55Z</time>
      </trkpt>
      <trkpt lat="49.88956" lon="4.60788">
        <ele>347.6</ele>
        <time>2024-04-06T12:07:56Z</time>
      </trkpt>
      <trkpt lat="49.88957" lon="4.60792">
        <ele>348</ele>
        <time>2024-04-06T12:07:57Z</time>
      </trkpt>
      <trkpt lat="49.88957" lon="4.60795">
        <ele>348</ele>
        <time>2024-04-06T12:07:58Z</time>
      </trkpt>
      <trkpt lat="49.88958" lon="4.60798">
        <ele>348.2</ele>
        <time>2024-04-06T12:07:59Z</time>
      </trkpt>
      <trkpt lat="49.88958" lon="4.60802">
        <ele>348.2</ele>
        <time>2024-04-06T12:08:00Z</time>
      </trkpt>
      <trkpt lat="49.88959" lon="4.60805">
        <ele>348.6</ele>
        <time>2024-04-06T12:08:01Z</time>
      </trkpt>
      <trkpt lat="49.8896" lon="4.60808">
        <ele>348.8</ele>
        <time>2024-04-06T12:08:02Z</time>
      </trkpt>
      <trkpt lat="49.8896" lon="4.60811">
        <ele>349</ele>
        <time>2024-04-06T12:08:03Z</time>
      </trkpt>
      <trkpt lat="49.88961" lon="4.60815">
        <ele>349</ele>
        <time>2024-04-06T12:08:04Z</time>
      </trkpt>
      <trkpt lat="49.88962" lon="4.60818">
        <ele>349.2</ele>
        <time>2024-04-06T12:08:05Z</time>
      </trkpt>
      <trkpt lat="49.88962" lon="4.60821">
        <ele>349.4</ele>
        <time>2024-04-06T12:08:06Z</time>
      </trkpt>
      <trkpt lat="49.88963" lon="4.60824">
        <ele>349.8</ele>
        <time>2024-04-06T12:08:07Z</time>
      </trkpt>
      <trkpt lat="49.88963" lon="4.60828">
        <ele>350.2</ele>
        <time>2024-04-06T12:08:08Z</time>
      </trkpt>
      <trkpt lat="49.88964" lon="4.60831">
        <ele>350.6</ele>
        <time>2024-04-06T12:08:09Z</time>
      </trkpt>
      <trkpt lat="49.88965" lon="4.60834">
        <ele>350.8</ele>
        <time>2024-04-06T12:08:10Z</time>
      </trkpt>
      <trkpt lat="49.88966" lon="4.60838">
        <ele>350.8</ele>
        <time>2024-04-06T12:08:11Z</time>
      </trkpt>
      <trkpt lat="49.88966" lon="4.60841">
        <ele>350.8</ele>
        <time>2024-04-06T12:08:12Z</time>
      </trkpt>
      <trkpt lat="49.88967" lon="4.60844">
        <ele>350.8</ele>
        <time>2024-04-06T12:08:13Z</time>
      </trkpt>
      <trkpt lat="49.88968" lon="4.60848">
        <ele>351</ele>
        <time>2024-04-06T12:08:14Z</time>
      </trkpt>
      <trkpt lat="49.88968" lon="4.60851">
        <ele>351.2</ele>
        <time>2024-04-06T12:08:15Z</time>
      </trkpt>
      <trkpt lat="49.88969" lon="4.60855">
        <ele>351.2</ele>
        <time>2024-04-06T12:08:16Z</time>
      </trkpt>
      <trkpt lat="49.88969" lon="4.60858">
        <ele>351.2</ele>
        <time>2024-04-06T12:08:17Z</time>
      </trkpt>
      <trkpt lat="49.8897" lon="4.60861">
        <ele>351.4</ele>
        <time>2024-04-06T12:08:18Z</time>
      </trkpt>
      <trkpt lat="49.88971" lon="4.60864">
        <ele>351.8</ele>
        <time>2024-04-06T12:08:19Z</time>
      </trkpt>
      <trkpt lat="49.88971" lon="4.60867">
        <ele>352</ele>
        <time>2024-04-06T12:08:20Z</time>
      </trkpt>
      <trkpt lat="49.88972" lon="4.60871">
        <ele>352</ele>
        <time>2024-04-06T12:08:21Z</time>
      </trkpt>
      <trkpt lat="49.88972" lon="4.60874">
        <ele>352.2</ele>
        <time>2024-04-06T12:08:22Z</time>
      </trkpt>
      <trkpt lat="49.88973" lon="4.60877">
        <ele>352.4</ele>
        <time>2024-04-06T12:08:23Z</time>
      </trkpt>
      <trkpt lat="49.88974" lon="4.60881">
        <ele>352.6</ele>
        <time>2024-04-06T12:08:24Z</time>
      </trkpt>
      <trkpt lat="49.88975" lon="4.60884">
        <ele>352.8</ele>
        <time>2024-04-06T12:08:25Z</time>
      </trkpt>
      <trkpt lat="49.88975" lon="4.60887">
        <ele>353</ele>
        <time>2024-04-06T12:08:26Z</time>
      </trkpt>
      <trkpt lat="49.88976" lon="4.6089">
        <ele>353.2</ele>
        <time>2024-04-06T12:08:27Z</time>
      </trkpt>
      <trkpt lat="49.88976" lon="4.60894">
        <ele>353.4</ele>
        <time>2024-04-06T12:08:28Z</time>
      </trkpt>
      <trkpt lat="49.88977" lon="4.60897">
        <ele>353.4</ele>
        <time>2024-04-06T12:08:29Z</time>
      </trkpt>
      <trkpt lat="49.88977" lon="4.60901">
        <ele>353.6</ele>
        <time>2024-04-06T12:08:30Z</time>
      </trkpt>
      <trkpt lat="49.88978" lon="4.60904">
        <ele>353.6</ele>
        <time>2024-04-06T12:08:31Z</time>
      </trkpt>
      <trkpt lat="49.88978" lon="4.60907">
        <ele>353.6</ele>
        <time>2024-04-06T12:08:32Z</time>
      </trkpt>
      <trkpt lat="49.88979" lon="4.60911">
        <ele>353.8</ele>
        <time>2024-04-06T12:08:33Z</time>
      </trkpt>
      <trkpt lat="49.88979" lon="4.60914">
        <ele>354.2</ele>
        <time>2024-04-06T12:08:34Z</time>
      </trkpt>
      <trkpt lat="49.8898" lon="4.60917">
        <ele>354.4</ele>
        <time>2024-04-06T12:08:35Z</time>
      </trkpt>
      <trkpt lat="49.8898" lon="4.6092">
        <ele>354.4</ele>
        <time>2024-04-06T12:08:36Z</time>
      </trkpt>
      <trkpt lat="49.8898" lon="4.60923">
        <ele>354.6</ele>
        <time>2024-04-06T12:08:37Z</time>
      </trkpt>
      <trkpt lat="49.8898" lon="4.60927">
        <ele>354.8</ele>
        <time>2024-04-06T12:08:38Z</time>
      </trkpt>
      <trkpt lat="49.8898" lon="4.6093">
        <ele>354.8</ele>
        <time>2024-04-06T12:08:39Z</time>
      </trkpt>
      <trkpt lat="49.88981" lon="4.60933">
        <ele>355</ele>
        <time>2024-04-06T12:08:40Z</time>
      </trkpt>
      <trkpt lat="49.88981" lon="4.60936">
        <ele>355.4</ele>
        <time>2024-04-06T12:08:41Z</time>
      </trkpt>
      <trkpt lat="49.88981" lon="4.6094">
        <ele>355.4</ele>
        <time>2024-04-06T12:08:42Z</time>
      </trkpt>
      <trkpt lat="49.88982" lon="4.60943">
        <ele>355.4</ele>
        <time>2024-04-06T12:08:43Z</time>
      </trkpt>
      <trkpt lat="49.88982" lon="4.60946">
        <ele>355.6</ele>
        <time>2024-04-06T12:08:44Z</time>
      </trkpt>
      <trkpt lat="49.88982" lon="4.60949">
        <ele>355.6</ele>
        <time>2024-04-06T12:08:45Z</time>
      </trkpt>
      <trkpt lat="49.88982" lon="4.60952">
        <ele>355.6</ele>
        <time>2024-04-06T12:08:46Z</time>
      </trkpt>
      <trkpt lat="49.88982" lon="4.60956">
        <ele>355.8</ele>
        <time>2024-04-06T12:08:47Z</time>
      </trkpt>
      <trkpt lat="49.88983" lon="4.60959">
        <ele>355.8</ele>
        <time>2024-04-06T12:08:48Z</time>
      </trkpt>
      <trkpt lat="49.88983" lon="4.60962">
        <ele>356</ele>
        <time>2024-04-06T12:08:49Z</time>
      </trkpt>
      <trkpt lat="49.88983" lon="4.60966">
        <ele>356</ele>
        <time>2024-04-06T12:08:50Z</time>
      </trkpt>
      <trkpt lat="49.88983" lon="4.60969">
        <ele>356.2</ele>
        <time>2024-04-06T12:08:51Z</time>
      </trkpt>
      <trkpt lat="49.88983" lon="4.60973">
        <ele>356.4</ele>
        <time>2024-04-06T12:08:52Z</time>
      </trkpt>
      <trkpt lat="49.88983" lon="4.60977">
        <ele>356.2</ele>
        <time>2024-04-06T12:08:53Z</time>
      </trkpt>
      <trkpt lat="49.88983" lon="4.6098">
        <ele>356.4</ele>
        <time>2024-04-06T12:08:54Z</time>
      </trkpt>
      <trkpt lat="49.88983" lon="4.60984">
        <ele>356.6</ele>
        <time>2024-04-06T12:08:55Z</time>
      </trkpt>
      <trkpt lat="49.88983" lon="4.60987">
        <ele>356.8</ele>
        <time>2024-04-06T12:08:56Z</time>
      </trkpt>
      <trkpt lat="49.88983" lon="4.6099">
        <ele>356.8</ele>
        <time>2024-04-06T12:08:57Z</time>
      </trkpt>
      <trkpt lat="49.88983" lon="4.60994">
        <ele>356.8</ele>
        <time>2024-04-06T12:08:58Z</time>
      </trkpt>
      <trkpt lat="49.88983" lon="4.60997">
        <ele>357.2</ele>
        <time>2024-04-06T12:08:59Z</time>
      </trkpt>
      <trkpt lat="49.88983" lon="4.61">
        <ele>357.2</ele>
        <time>2024-04-06T12:09:00Z</time>
      </trkpt>
      <trkpt lat="49.88983" lon="4.61004">
        <ele>357.4</ele>
        <time>2024-04-06T12:09:01Z</time>
      </trkpt>
      <trkpt lat="49.88983" lon="4.61007">
        <ele>357.6</ele>
        <time>2024-04-06T12:09:02Z</time>
      </trkpt>
      <trkpt lat="49.88983" lon="4.61011">
        <ele>357.6</ele>
        <time>2024-04-06T12:09:03Z</time>
      </trkpt>
      <trkpt lat="49.88983" lon="4.61014">
        <ele>357.8</ele>
        <time>2024-04-06T12:09:04Z</time>
      </trkpt>
      <trkpt lat="49.88983" lon="4.61017">
        <ele>358</ele>
        <time>2024-04-06T12:09:05Z</time>
      </trkpt>
      <trkpt lat="49.88983" lon="4.61021">
        <ele>358</ele>
        <time>2024-04-06T12:09:06Z</time>
      </trkpt>
      <trkpt lat="49.88983" lon="4.61024">
        <ele>358.2</ele>
        <time>2024-04-06T12:09:07Z</time>
      </trkpt>
      <trkpt lat="49.88983" lon="4.61028">
        <ele>358.4</ele>
        <time>2024-04-06T12:09:08Z</time>
      </trkpt>
      <trkpt lat="49.88983" lon="4.61031">
        <ele>358.4</ele>
        <time>2024-04-06T12:09:09Z</time>
      </trkpt>
      <trkpt lat="49.88984" lon="4.61035">
        <ele>358.4</ele>
        <time>2024-04-06T12:09:10Z</time>
      </trkpt>
      <trkpt lat="49.88984" lon="4.61038">
        <ele>358.4</ele>
        <time>2024-04-06T12:09:11Z</time>
      </trkpt>
      <trkpt lat="49.88984" lon="4.61041">
        <ele>358.6</ele>
        <time>2024-04-06T12:09:12Z</time>
      </trkpt>
      <trkpt lat="49.88984" lon="4.61045">
        <ele>358.8</ele>
        <time>2024-04-06T12:09:13Z</time>
      </trkpt>
      <trkpt lat="49.88984" lon="4.61048">
        <ele>359</ele>
        <time>2024-04-06T12:09:14Z</time>
      </trkpt>
      <trkpt lat="49.88983" lon="4.61052">
        <ele>359.4</ele>
        <time>2024-04-06T12:09:15Z</time>
      </trkpt>
      <trkpt lat="49.88983" lon="4.61055">
        <ele>359.6</ele>
        <time>2024-04-06T12:09:16Z</time>
      </trkpt>
      <trkpt lat="49.88983" lon="4.61058">
        <ele>360</ele>
        <time>2024-04-06T12:09:17Z</time>
      </trkpt>
      <trkpt lat="49.88984" lon="4.61062">
        <ele>360.2</ele>
        <time>2024-04-06T12:09:18Z</time>
      </trkpt>
      <trkpt lat="49.88984" lon="4.61065">
        <ele>360.4</ele>
        <time>2024-04-06T12:09:19Z</time>
      </trkpt>
      <trkpt lat="49.88984" lon="4.61069">
        <ele>360.6</ele>
        <time>2024-04-06T12:09:20Z</time>
      </trkpt>
      <trkpt lat="49.88984" lon="4.61072">
        <ele>360.8</ele>
        <time>2024-04-06T12:09:21Z</time>
      </trkpt>
      <trkpt lat="49.88984" lon="4.61076">
        <ele>361.2</ele>
        <time>2024-04-06T12:09:22Z</time>
      </trkpt>
      <trkpt lat="49.88984" lon="4.61079">
        <ele>361.2</ele>
        <time>2024-04-06T12:09:23Z</time>
      </trkpt>
      <trkpt lat="49.88984" lon="4.61083">
        <ele>361.4</ele>
        <time>2024-04-06T12:09:24Z</time>
      </trkpt>
      <trkpt lat="49.88984" lon="4.61086">
        <ele>361.4</ele>
        <time>2024-04-06T12:09:25Z</time>
      </trkpt>
      <trkpt lat="49.88984" lon="4.6109">
        <ele>361.6</ele>
        <time>2024-04-06T12:09:26Z</time>
      </trkpt>
      <trkpt lat="49.88984" lon="4.61094">
        <ele>361.8</ele>
        <time>2024-04-06T12:09:27Z</time>
      </trkpt>
      <trkpt lat="49.88984" lon="4.61097">
        <ele>362.2</ele>
        <time>2024-04-06T12:09:28Z</time>
      </trkpt>
      <trkpt lat="49.88984" lon="4.61101">
        <ele>362.4</ele>
        <time>2024-04-06T12:09:29Z</time>
      </trkpt>
      <trkpt lat="49.88984" lon="4.61104">
        <ele>362.4</ele>
        <time>2024-04-06T12:09:30Z</time>
      </trkpt>
      <trkpt lat="49.88984" lon="4.61108">
        <ele>362.6</ele>
        <time>2024-04-06T12:09:31Z</time>
      </trkpt>
      <trkpt lat="49.88984" lon="4.61112">
        <ele>363.2</ele>
        <time>2024-04-06T12:09:32Z</time>
      </trkpt>
      <trkpt lat="49.88984" lon="4.61115">
        <ele>363.4</ele>
        <time>2024-04-06T12:09:33Z</time>
      </trkpt>
      <trkpt lat="49.88984" lon="4.61119">
        <ele>363.6</ele>
        <time>2024-04-06T12:09:34Z</time>
      </trkpt>
      <trkpt lat="49.88984" lon="4.61122">
        <ele>363.8</ele>
        <time>2024-04-06T12:09:35Z</time>
      </trkpt>
      <trkpt lat="49.88984" lon="4.61126">
        <ele>364</ele>
        <time>2024-04-06T12:09:36Z</time>
      </trkpt>
      <trkpt lat="49.88984" lon="4.6113">
        <ele>364.2</ele>
        <time>2024-04-06T12:09:37Z</time>
      </trkpt>
      <trkpt lat="49.88984" lon="4.61133">
        <ele>364.4</ele>
        <time>2024-04-06T12:09:38Z</time>
      </trkpt>
      <trkpt lat="49.88984" lon="4.61137">
        <ele>364.4</ele>
        <time>2024-04-06T12:09:39Z</time>
      </trkpt>
      <trkpt lat="49.88984" lon="4.6114">
        <ele>364.4</ele>
        <time>2024-04-06T12:09:40Z</time>
      </trkpt>
      <trkpt lat="49.88984" lon="4.61144">
        <ele>364.8</ele>
        <time>2024-04-06T12:09:41Z</time>
      </trkpt>
      <trkpt lat="49.88984" lon="4.61148">
        <ele>365</ele>
        <time>2024-04-06T12:09:42Z</time>
      </trkpt>
      <trkpt lat="49.88984" lon="4.61151">
        <ele>365.2</ele>
        <time>2024-04-06T12:09:43Z</time>
      </trkpt>
      <trkpt lat="49.88984" lon="4.61155">
        <ele>365.4</ele>
        <time>2024-04-06T12:09:44Z</time>
      </trkpt>
      <trkpt lat="49.88984" lon="4.61158">
        <ele>365.4</ele>
        <time>2024-04-06T12:09:45Z</time>
      </trkpt>
      <trkpt lat="49.88984" lon="4.61162">
        <ele>365.6</ele>
        <time>2024-04-06T12:09:46Z</time>
      </trkpt>
      <trkpt lat="49.88984" lon="4.61166">
        <ele>365.6</ele>
        <time>2024-04-06T12:09:47Z</time>
      </trkpt>
      <trkpt lat="49.88984" lon="4.6117">
        <ele>365.8</ele>
        <time>2024-04-06T12:09:48Z</time>
      </trkpt>
      <trkpt lat="49.88984" lon="4.61173">
        <ele>366.2</ele>
        <time>2024-04-06T12:09:49Z</time>
      </trkpt>
      <trkpt lat="49.88983" lon="4.61177">
        <ele>366.4</ele>
        <time>2024-04-06T12:09:50Z</time>
      </trkpt>
      <trkpt lat="49.88983" lon="4.61181">
        <ele>366.8</ele>
        <time>2024-04-06T12:09:51Z</time>
      </trkpt>
      <trkpt lat="49.88983" lon="4.61185">
        <ele>367</ele>
        <time>2024-04-06T12:09:52Z</time>
      </trkpt>
      <trkpt lat="49.88983" lon="4.61188">
        <ele>367.2</ele>
        <time>2024-04-06T12:09:53Z</time>
      </trkpt>
      <trkpt lat="49.88983" lon="4.61192">
        <ele>367.2</ele>
        <time>2024-04-06T12:09:54Z</time>
      </trkpt>
      <trkpt lat="49.88983" lon="4.61196">
        <ele>367.6</ele>
        <time>2024-04-06T12:09:55Z</time>
      </trkpt>
      <trkpt lat="49.88983" lon="4.612">
        <ele>368</ele>
        <time>2024-04-06T12:09:56Z</time>
      </trkpt>
      <trkpt lat="49.88983" lon="4.61204">
        <ele>368.2</ele>
        <time>2024-04-06T12:09:57Z</time>
      </trkpt>
      <trkpt lat="49.88983" lon="4.61208">
        <ele>368.4</ele>
        <time>2024-04-06T12:09:58Z</time>
      </trkpt>
      <trkpt lat="49.88983" lon="4.61213">
        <ele>368.6</ele>
        <time>2024-04-06T12:09:59Z</time>
      </trkpt>
      <trkpt lat="49.88983" lon="4.61217">
        <ele>368.6</ele>
        <time>2024-04-06T12:10:00Z</time>
      </trkpt>
      <trkpt lat="49.88983" lon="4.61222">
        <ele>369</ele>
        <time>2024-04-06T12:10:01Z</time>
      </trkpt>
      <trkpt lat="49.88982" lon="4.61226">
        <ele>369</ele>
        <time>2024-04-06T12:10:02Z</time>
      </trkpt>
      <trkpt lat="49.88982" lon="4.6123">
        <ele>369.2</ele>
        <time>2024-04-06T12:10:03Z</time>
      </trkpt>
      <trkpt lat="49.88982" lon="4.61235">
        <ele>369.4</ele>
        <time>2024-04-06T12:10:04Z</time>
      </trkpt>
      <trkpt lat="49.88982" lon="4.61239">
        <ele>369.4</ele>
        <time>2024-04-06T12:10:05Z</time>
      </trkpt>
      <trkpt lat="49.88981" lon="4.61244">
        <ele>369.8</ele>
        <time>2024-04-06T12:10:06Z</time>
      </trkpt>
      <trkpt lat="49.88981" lon="4.61248">
        <ele>370.2</ele>
        <time>2024-04-06T12:10:07Z</time>
      </trkpt>
      <trkpt lat="49.88981" lon="4.61253">
        <ele>370.6</ele>
        <time>2024-04-06T12:10:08Z</time>
      </trkpt>
      <trkpt lat="49.8898" lon="4.61257">
        <ele>370.8</ele>
        <time>2024-04-06T12:10:09Z</time>
      </trkpt>
      <trkpt lat="49.8898" lon="4.61262">
        <ele>371.2</ele>
        <time>2024-04-06T12:10:10Z</time>
      </trkpt>
      <trkpt lat="49.88979" lon="4.61267">
        <ele>371.4</ele>
        <time>2024-04-06T12:10:11Z</time>
      </trkpt>
      <trkpt lat="49.88979" lon="4.61271">
        <ele>371.8</ele>
        <time>2024-04-06T12:10:12Z</time>
      </trkpt>
      <trkpt lat="49.88978" lon="4.61276">
        <ele>371.8</ele>
        <time>2024-04-06T12:10:13Z</time>
      </trkpt>
      <trkpt lat="49.88978" lon="4.6128">
        <ele>371.8</ele>
        <time>2024-04-06T12:10:14Z</time>
      </trkpt>
      <trkpt lat="49.88977" lon="4.61285">
        <ele>371.8</ele>
        <time>2024-04-06T12:10:15Z</time>
      </trkpt>
      <trkpt lat="49.88976" lon="4.61289">
        <ele>372</ele>
        <time>2024-04-06T12:10:16Z</time>
      </trkpt>
      <trkpt lat="49.88976" lon="4.61294">
        <ele>372</ele>
        <time>2024-04-06T12:10:17Z</time>
      </trkpt>
      <trkpt lat="49.88975" lon="4.61299">
        <ele>372.2</ele>
        <time>2024-04-06T12:10:18Z</time>
      </trkpt>
      <trkpt lat="49.88974" lon="4.61304">
        <ele>372.2</ele>
        <time>2024-04-06T12:10:19Z</time>
      </trkpt>
      <trkpt lat="49.88974" lon="4.61309">
        <ele>372.4</ele>
        <time>2024-04-06T12:10:20Z</time>
      </trkpt>
      <trkpt lat="49.88973" lon="4.61314">
        <ele>372.2</ele>
        <time>2024-04-06T12:10:21Z</time>
      </trkpt>
      <trkpt lat="49.88972" lon="4.61319">
        <ele>372.6</ele>
        <time>2024-04-06T12:10:22Z</time>
      </trkpt>
      <trkpt lat="49.88971" lon="4.61324">
        <ele>372.8</ele>
        <time>2024-04-06T12:10:23Z</time>
      </trkpt>
      <trkpt lat="49.8897" lon="4.61329">
        <ele>372.8</ele>
        <time>2024-04-06T12:10:24Z</time>
      </trkpt>
      <trkpt lat="49.88969" lon="4.61334">
        <ele>373</ele>
        <time>2024-04-06T12:10:25Z</time>
      </trkpt>
      <trkpt lat="49.88968" lon="4.61338">
        <ele>373</ele>
        <time>2024-04-06T12:10:26Z</time>
      </trkpt>
      <trkpt lat="49.88967" lon="4.61343">
        <ele>373.4</ele>
        <time>2024-04-06T12:10:27Z</time>
      </trkpt>
      <trkpt lat="49.88965" lon="4.61348">
        <ele>373.6</ele>
        <time>2024-04-06T12:10:28Z</time>
      </trkpt>
      <trkpt lat="49.88964" lon="4.61352">
        <ele>373.8</ele>
        <time>2024-04-06T12:10:29Z</time>
      </trkpt>
      <trkpt lat="49.88963" lon="4.61357">
        <ele>374.2</ele>
        <time>2024-04-06T12:10:30Z</time>
      </trkpt>
      <trkpt lat="49.88961" lon="4.61362">
        <ele>374.4</ele>
        <time>2024-04-06T12:10:31Z</time>
      </trkpt>
      <trkpt lat="49.8896" lon="4.61366">
        <ele>374.4</ele>
        <time>2024-04-06T12:10:32Z</time>
      </trkpt>
      <trkpt lat="49.88959" lon="4.61371">
        <ele>374.6</ele>
        <time>2024-04-06T12:10:33Z</time>
      </trkpt>
      <trkpt lat="49.88957" lon="4.61375">
        <ele>374.8</ele>
        <time>2024-04-06T12:10:34Z</time>
      </trkpt>
      <trkpt lat="49.88956" lon="4.6138">
        <ele>375</ele>
        <time>2024-04-06T12:10:35Z</time>
      </trkpt>
      <trkpt lat="49.88955" lon="4.61384">
        <ele>375</ele>
        <time>2024-04-06T12:10:36Z</time>
      </trkpt>
      <trkpt lat="49.88953" lon="4.61389">
        <ele>375</ele>
        <time>2024-04-06T12:10:37Z</time>
      </trkpt>
      <trkpt lat="49.88952" lon="4.61394">
        <ele>375.2</ele>
        <time>2024-04-06T12:10:38Z</time>
      </trkpt>
      <trkpt lat="49.8895" lon="4.61399">
        <ele>375.4</ele>
        <time>2024-04-06T12:10:39Z</time>
      </trkpt>
      <trkpt lat="49.88949" lon="4.61404">
        <ele>375.4</ele>
        <time>2024-04-06T12:10:40Z</time>
      </trkpt>
      <trkpt lat="49.88948" lon="4.61409">
        <ele>375.4</ele>
        <time>2024-04-06T12:10:41Z</time>
      </trkpt>
      <trkpt lat="49.88946" lon="4.61414">
        <ele>375.4</ele>
        <time>2024-04-06T12:10:42Z</time>
      </trkpt>
      <trkpt lat="49.88945" lon="4.61419">
        <ele>375.6</ele>
        <time>2024-04-06T12:10:43Z</time>
      </trkpt>
      <trkpt lat="49.88943" lon="4.61424">
        <ele>375.6</ele>
        <time>2024-04-06T12:10:44Z</time>
      </trkpt>
      <trkpt lat="49.88942" lon="4.6143">
        <ele>375.8</ele>
        <time>2024-04-06T12:10:45Z</time>
      </trkpt>
      <trkpt lat="49.88941" lon="4.61436">
        <ele>375.6</ele>
        <time>2024-04-06T12:10:46Z</time>
      </trkpt>
      <trkpt lat="49.88939" lon="4.61442">
        <ele>375.8</ele>
        <time>2024-04-06T12:10:47Z</time>
      </trkpt>
      <trkpt lat="49.88938" lon="4.61448">
        <ele>375.6</ele>
        <time>2024-04-06T12:10:48Z</time>
      </trkpt>
      <trkpt lat="49.88937" lon="4.61454">
        <ele>375.6</ele>
        <time>2024-04-06T12:10:49Z</time>
      </trkpt>
      <trkpt lat="49.88936" lon="4.61461">
        <ele>375.6</ele>
        <time>2024-04-06T12:10:50Z</time>
      </trkpt>
      <trkpt lat="49.88934" lon="4.61467">
        <ele>375.6</ele>
        <time>2024-04-06T12:10:51Z</time>
      </trkpt>
      <trkpt lat="49.88933" lon="4.61474">
        <ele>375.6</ele>
        <time>2024-04-06T12:10:52Z</time>
      </trkpt>
      <trkpt lat="49.88932" lon="4.61481">
        <ele>375.4</ele>
        <time>2024-04-06T12:10:53Z</time>
      </trkpt>
      <trkpt lat="49.8893" lon="4.61488">
        <ele>375.4</ele>
        <time>2024-04-06T12:10:54Z</time>
      </trkpt>
      <trkpt lat="49.88928" lon="4.61496">
        <ele>375.2</ele>
        <time>2024-04-06T12:10:55Z</time>
      </trkpt>
      <trkpt lat="49.88927" lon="4.61504">
        <ele>375.2</ele>
        <time>2024-04-06T12:10:56Z</time>
      </trkpt>
      <trkpt lat="49.88925" lon="4.61512">
        <ele>374.8</ele>
        <time>2024-04-06T12:10:57Z</time>
      </trkpt>
      <trkpt lat="49.88923" lon="4.61521">
        <ele>374.8</ele>
        <time>2024-04-06T12:10:58Z</time>
      </trkpt>
      <trkpt lat="49.88922" lon="4.61529">
        <ele>374.6</ele>
        <time>2024-04-06T12:10:59Z</time>
      </trkpt>
      <trkpt lat="49.88921" lon="4.61538">
        <ele>374.6</ele>
        <time>2024-04-06T12:11:00Z</time>
      </trkpt>
      <trkpt lat="49.88919" lon="4.61547">
        <ele>374.6</ele>
        <time>2024-04-06T12:11:01Z</time>
      </trkpt>
      <trkpt lat="49.88918" lon="4.61556">
        <ele>374.4</ele>
        <time>2024-04-06T12:11:02Z</time>
      </trkpt>
      <trkpt lat="49.88917" lon="4.61565">
        <ele>374.2</ele>
        <time>2024-04-06T12:11:03Z</time>
      </trkpt>
      <trkpt lat="49.88916" lon="4.61574">
        <ele>374.2</ele>
        <time>2024-04-06T12:11:04Z</time>
      </trkpt>
      <trkpt lat="49.88915" lon="4.61584">
        <ele>374.2</ele>
        <time>2024-04-06T12:11:05Z</time>
      </trkpt>
      <trkpt lat="49.88915" lon="4.61595">
        <ele>374</ele>
        <time>2024-04-06T12:11:06Z</time>
      </trkpt>
      <trkpt lat="49.88915" lon="4.61606">
        <ele>373.6</ele>
        <time>2024-04-06T12:11:07Z</time>
      </trkpt>
      <trkpt lat="49.88915" lon="4.61618">
        <ele>373.2</ele>
        <time>2024-04-06T12:11:08Z</time>
      </trkpt>
      <trkpt lat="49.88915" lon="4.6163">
        <ele>372.6</ele>
        <time>2024-04-06T12:11:09Z</time>
      </trkpt>
      <trkpt lat="49.88916" lon="4.61642">
        <ele>372</ele>
        <time>2024-04-06T12:11:10Z</time>
      </trkpt>
      <trkpt lat="49.88917" lon="4.61655">
        <ele>371.4</ele>
        <time>2024-04-06T12:11:11Z</time>
      </trkpt>
      <trkpt lat="49.88918" lon="4.61668">
        <ele>371</ele>
        <time>2024-04-06T12:11:12Z</time>
      </trkpt>
      <trkpt lat="49.88919" lon="4.61681">
        <ele>370.6</ele>
        <time>2024-04-06T12:11:13Z</time>
      </trkpt>
      <trkpt lat="49.8892" lon="4.61695">
        <ele>370.4</ele>
        <time>2024-04-06T12:11:14Z</time>
      </trkpt>
      <trkpt lat="49.88921" lon="4.61709">
        <ele>370</ele>
        <time>2024-04-06T12:11:15Z</time>
      </trkpt>
      <trkpt lat="49.88922" lon="4.61723">
        <ele>369.6</ele>
        <time>2024-04-06T12:11:16Z</time>
      </trkpt>
      <trkpt lat="49.88923" lon="4.61738">
        <ele>369.2</ele>
        <time>2024-04-06T12:11:17Z</time>
      </trkpt>
      <trkpt lat="49.88924" lon="4.61752">
        <ele>368.8</ele>
        <time>2024-04-06T12:11:18Z</time>
      </trkpt>
      <trkpt lat="49.88924" lon="4.61767">
        <ele>368.4</ele>
        <time>2024-04-06T12:11:19Z</time>
      </trkpt>
      <trkpt lat="49.88924" lon="4.61782">
        <ele>368</ele>
        <time>2024-04-06T12:11:20Z</time>
      </trkpt>
      <trkpt lat="49.88925" lon="4.61797">
        <ele>367.6</ele>
        <time>2024-04-06T12:11:21Z</time>
      </trkpt>
      <trkpt lat="49.88925" lon="4.61813">
        <ele>367.6</ele>
        <time>2024-04-06T12:11:22Z</time>
      </trkpt>
      <trkpt lat="49.88925" lon="4.61828">
        <ele>366.8</ele>
        <time>2024-04-06T12:11:23Z</time>
      </trkpt>
      <trkpt lat="49.88924" lon="4.61844">
        <ele>366.4</ele>
        <time>2024-04-06T12:11:24Z</time>
      </trkpt>
      <trkpt lat="49.88924" lon="4.61861">
        <ele>365.6</ele>
        <time>2024-04-06T12:11:25Z</time>
      </trkpt>
      <trkpt lat="49.88924" lon="4.61877">
        <ele>364.6</ele>
        <time>2024-04-06T12:11:26Z</time>
      </trkpt>
      <trkpt lat="49.88924" lon="4.61894">
        <ele>364</ele>
        <time>2024-04-06T12:11:27Z</time>
      </trkpt>
      <trkpt lat="49.88925" lon="4.61911">
        <ele>363</ele>
        <time>2024-04-06T12:11:28Z</time>
      </trkpt>
      <trkpt lat="49.88925" lon="4.61928">
        <ele>362.4</ele>
        <time>2024-04-06T12:11:29Z</time>
      </trkpt>
      <trkpt lat="49.88926" lon="4.61945">
        <ele>362.4</ele>
        <time>2024-04-06T12:11:30Z</time>
      </trkpt>
      <trkpt lat="49.88927" lon="4.61963">
        <ele>362.2</ele>
        <time>2024-04-06T12:11:31Z</time>
      </trkpt>
      <trkpt lat="49.88929" lon="4.6198">
        <ele>361.8</ele>
        <time>2024-04-06T12:11:32Z</time>
      </trkpt>
      <trkpt lat="49.88931" lon="4.61998">
        <ele>361.2</ele>
        <time>2024-04-06T12:11:33Z</time>
      </trkpt>
      <trkpt lat="49.88933" lon="4.62015">
        <ele>360.6</ele>
        <time>2024-04-06T12:11:34Z</time>
      </trkpt>
      <trkpt lat="49.88936" lon="4.62033">
        <ele>360</ele>
        <time>2024-04-06T12:11:35Z</time>
      </trkpt>
      <trkpt lat="49.88938" lon="4.6205">
        <ele>359</ele>
        <time>2024-04-06T12:11:36Z</time>
      </trkpt>
      <trkpt lat="49.88939" lon="4.62066">
        <ele>358.4</ele>
        <time>2024-04-06T12:11:37Z</time>
      </trkpt>
      <trkpt lat="49.8894" lon="4.62083">
        <ele>357.8</ele>
        <time>2024-04-06T12:11:38Z</time>
      </trkpt>
      <trkpt lat="49.88939" lon="4.621">
        <ele>357</ele>
        <time>2024-04-06T12:11:39Z</time>
      </trkpt>
      <trkpt lat="49.88937" lon="4.62117">
        <ele>356.4</ele>
        <time>2024-04-06T12:11:40Z</time>
      </trkpt>
      <trkpt lat="49.88935" lon="4.62134">
        <ele>355.4</ele>
        <time>2024-04-06T12:11:41Z</time>
      </trkpt>
      <trkpt lat="49.88932" lon="4.62151">
        <ele>354.6</ele>
        <time>2024-04-06T12:11:42Z</time>
      </trkpt>
      <trkpt lat="49.88929" lon="4.62167">
        <ele>353.8</ele>
        <time>2024-04-06T12:11:43Z</time>
      </trkpt>
      <trkpt lat="49.88926" lon="4.62184">
        <ele>352.2</ele>
        <time>2024-04-06T12:11:44Z</time>
      </trkpt>
      <trkpt lat="49.88923" lon="4.62199">
        <ele>351</ele>
        <time>2024-04-06T12:11:45Z</time>
      </trkpt>
      <trkpt lat="49.88919" lon="4.62215">
        <ele>350.4</ele>
        <time>2024-04-06T12:11:46Z</time>
      </trkpt>
      <trkpt lat="49.88915" lon="4.6223">
        <ele>350</ele>
        <time>2024-04-06T12:11:47Z</time>
      </trkpt>
      <trkpt lat="49.88911" lon="4.62245">
        <ele>349</ele>
        <time>2024-04-06T12:11:48Z</time>
      </trkpt>
      <trkpt lat="49.88907" lon="4.6226">
        <ele>348.6</ele>
        <time>2024-04-06T12:11:49Z</time>
      </trkpt>
      <trkpt lat="49.88904" lon="4.62275">
        <ele>348.2</ele>
        <time>2024-04-06T12:11:50Z</time>
      </trkpt>
      <trkpt lat="49.889" lon="4.6229">
        <ele>347.2</ele>
        <time>2024-04-06T12:11:51Z</time>
      </trkpt>
      <trkpt lat="49.88896" lon="4.62304">
        <ele>347.2</ele>
        <time>2024-04-06T12:11:52Z</time>
      </trkpt>
      <trkpt lat="49.88893" lon="4.62318">
        <ele>346.6</ele>
        <time>2024-04-06T12:11:53Z</time>
      </trkpt>
      <trkpt lat="49.88889" lon="4.62332">
        <ele>346.2</ele>
        <time>2024-04-06T12:11:54Z</time>
      </trkpt>
      <trkpt lat="49.88885" lon="4.62347">
        <ele>345.6</ele>
        <time>2024-04-06T12:11:55Z</time>
      </trkpt>
      <trkpt lat="49.88881" lon="4.62361">
        <ele>344</ele>
        <time>2024-04-06T12:11:56Z</time>
      </trkpt>
      <trkpt lat="49.88877" lon="4.62376">
        <ele>343.4</ele>
        <time>2024-04-06T12:11:57Z</time>
      </trkpt>
      <trkpt lat="49.88873" lon="4.6239">
        <ele>342.8</ele>
        <time>2024-04-06T12:11:58Z</time>
      </trkpt>
      <trkpt lat="49.8887" lon="4.62405">
        <ele>342.2</ele>
        <time>2024-04-06T12:11:59Z</time>
      </trkpt>
      <trkpt lat="49.88866" lon="4.62419">
        <ele>341.8</ele>
        <time>2024-04-06T12:12:00Z</time>
      </trkpt>
      <trkpt lat="49.88863" lon="4.62433">
        <ele>341.2</ele>
        <time>2024-04-06T12:12:01Z</time>
      </trkpt>
      <trkpt lat="49.8886" lon="4.62447">
        <ele>340.6</ele>
        <time>2024-04-06T12:12:02Z</time>
      </trkpt>
      <trkpt lat="49.88857" lon="4.62462">
        <ele>339.8</ele>
        <time>2024-04-06T12:12:03Z</time>
      </trkpt>
      <trkpt lat="49.88856" lon="4.62476">
        <ele>339.2</ele>
        <time>2024-04-06T12:12:04Z</time>
      </trkpt>
      <trkpt lat="49.88855" lon="4.62491">
        <ele>339</ele>
        <time>2024-04-06T12:12:05Z</time>
      </trkpt>
      <trkpt lat="49.88856" lon="4.62505">
        <ele>338.8</ele>
        <time>2024-04-06T12:12:06Z</time>
      </trkpt>
      <trkpt lat="49.88857" lon="4.62519">
        <ele>338.4</ele>
        <time>2024-04-06T12:12:07Z</time>
      </trkpt>
      <trkpt lat="49.88857" lon="4.62534">
        <ele>338</ele>
        <time>2024-04-06T12:12:08Z</time>
      </trkpt>
      <trkpt lat="49.88856" lon="4.62548">
        <ele>337.6</ele>
        <time>2024-04-06T12:12:09Z</time>
      </trkpt>
      <trkpt lat="49.88854" lon="4.62561">
        <ele>337.2</ele>
        <time>2024-04-06T12:12:10Z</time>
      </trkpt>
      <trkpt lat="49.88853" lon="4.62574">
        <ele>336.8</ele>
        <time>2024-04-06T12:12:11Z</time>
      </trkpt>
      <trkpt lat="49.88852" lon="4.62587">
        <ele>336.6</ele>
        <time>2024-04-06T12:12:12Z</time>
      </trkpt>
      <trkpt lat="49.8885" lon="4.62599">
        <ele>336.4</ele>
        <time>2024-04-06T12:12:13Z</time>
      </trkpt>
      <trkpt lat="49.88848" lon="4.62611">
        <ele>336.4</ele>
        <time>2024-04-06T12:12:14Z</time>
      </trkpt>
      <trkpt lat="49.88847" lon="4.62623">
        <ele>336.2</ele>
        <time>2024-04-06T12:12:15Z</time>
      </trkpt>
      <trkpt lat="49.88846" lon="4.62633">
        <ele>336.2</ele>
        <time>2024-04-06T12:12:16Z</time>
      </trkpt>
      <trkpt lat="49.88845" lon="4.62641">
        <ele>336.2</ele>
        <time>2024-04-06T12:12:17Z</time>
      </trkpt>
      <trkpt lat="49.88845" lon="4.62648">
        <ele>336.2</ele>
        <time>2024-04-06T12:12:18Z</time>
      </trkpt>
      <trkpt lat="49.88847" lon="4.62653">
        <ele>335.8</ele>
        <time>2024-04-06T12:12:19Z</time>
      </trkpt>
      <trkpt lat="49.88852" lon="4.62654">
        <ele>335.6</ele>
        <time>2024-04-06T12:12:20Z</time>
      </trkpt>
      <trkpt lat="49.88856" lon="4.62655">
        <ele>335.6</ele>
        <time>2024-04-06T12:12:21Z</time>
      </trkpt>
      <trkpt lat="49.8886" lon="4.62655">
        <ele>335.4</ele>
        <time>2024-04-06T12:12:22Z</time>
      </trkpt>
      <trkpt lat="49.88865" lon="4.62654">
        <ele>335.4</ele>
        <time>2024-04-06T12:12:23Z</time>
      </trkpt>
      <trkpt lat="49.88869" lon="4.62653">
        <ele>335.4</ele>
        <time>2024-04-06T12:12:24Z</time>
      </trkpt>
      <trkpt lat="49.88873" lon="4.62652">
        <ele>335.4</ele>
        <time>2024-04-06T12:12:25Z</time>
      </trkpt>
      <trkpt lat="49.88878" lon="4.62651">
        <ele>335.4</ele>
        <time>2024-04-06T12:12:26Z</time>
      </trkpt>
      <trkpt lat="49.88882" lon="4.62651">
        <ele>335.4</ele>
        <time>2024-04-06T12:12:27Z</time>
      </trkpt>
      <trkpt lat="49.88886" lon="4.62652">
        <ele>335.6</ele>
        <time>2024-04-06T12:12:28Z</time>
      </trkpt>
      <trkpt lat="49.8889" lon="4.62654">
        <ele>335.6</ele>
        <time>2024-04-06T12:12:29Z</time>
      </trkpt>
      <trkpt lat="49.88893" lon="4.62655">
        <ele>335.4</ele>
        <time>2024-04-06T12:12:30Z</time>
      </trkpt>
      <trkpt lat="49.88897" lon="4.62657">
        <ele>335.8</ele>
        <time>2024-04-06T12:12:31Z</time>
      </trkpt>
      <trkpt lat="49.88901" lon="4.62659">
        <ele>336</ele>
        <time>2024-04-06T12:12:32Z</time>
      </trkpt>
      <trkpt lat="49.88905" lon="4.62661">
        <ele>336.2</ele>
        <time>2024-04-06T12:12:33Z</time>
      </trkpt>
      <trkpt lat="49.88909" lon="4.62662">
        <ele>336</ele>
        <time>2024-04-06T12:12:34Z</time>
      </trkpt>
      <trkpt lat="49.88913" lon="4.62663">
        <ele>336.2</ele>
        <time>2024-04-06T12:12:35Z</time>
      </trkpt>
      <trkpt lat="49.88917" lon="4.62665">
        <ele>336.2</ele>
        <time>2024-04-06T12:12:36Z</time>
      </trkpt>
      <trkpt lat="49.88921" lon="4.62665">
        <ele>336.6</ele>
        <time>2024-04-06T12:12:37Z</time>
      </trkpt>
      <trkpt lat="49.88925" lon="4.62666">
        <ele>337.2</ele>
        <time>2024-04-06T12:12:38Z</time>
      </trkpt>
      <trkpt lat="49.88929" lon="4.62666">
        <ele>337.4</ele>
        <time>2024-04-06T12:12:39Z</time>
      </trkpt>
      <trkpt lat="49.88933" lon="4.62666">
        <ele>337.6</ele>
        <time>2024-04-06T12:12:40Z</time>
      </trkpt>
      <trkpt lat="49.88937" lon="4.62666">
        <ele>337.8</ele>
        <time>2024-04-06T12:12:41Z</time>
      </trkpt>
      <trkpt lat="49.88941" lon="4.62666">
        <ele>338</ele>
        <time>2024-04-06T12:12:42Z</time>
      </trkpt>
      <trkpt lat="49.88945" lon="4.62665">
        <ele>338</ele>
        <time>2024-04-06T12:12:43Z</time>
      </trkpt>
      <trkpt lat="49.88949" lon="4.62665">
        <ele>338.2</ele>
        <time>2024-04-06T12:12:44Z</time>
      </trkpt>
      <trkpt lat="49.88952" lon="4.62664">
        <ele>338.4</ele>
        <time>2024-04-06T12:12:45Z</time>
      </trkpt>
      <trkpt lat="49.88956" lon="4.62664">
        <ele>338.6</ele>
        <time>2024-04-06T12:12:46Z</time>
      </trkpt>
      <trkpt lat="49.88959" lon="4.62663">
        <ele>338.6</ele>
        <time>2024-04-06T12:12:47Z</time>
      </trkpt>
      <trkpt lat="49.88963" lon="4.62662">
        <ele>338.6</ele>
        <time>2024-04-06T12:12:48Z</time>
      </trkpt>
      <trkpt lat="49.88966" lon="4.62662">
        <ele>338.6</ele>
        <time>2024-04-06T12:12:49Z</time>
      </trkpt>
      <trkpt lat="49.88969" lon="4.62662">
        <ele>338.8</ele>
        <time>2024-04-06T12:12:50Z</time>
      </trkpt>
      <trkpt lat="49.88972" lon="4.62662">
        <ele>338.6</ele>
        <time>2024-04-06T12:12:51Z</time>
      </trkpt>
      <trkpt lat="49.88975" lon="4.62661">
        <ele>338.6</ele>
        <time>2024-04-06T12:12:52Z</time>
      </trkpt>
      <trkpt lat="49.88978" lon="4.62661">
        <ele>339</ele>
        <time>2024-04-06T12:12:53Z</time>
      </trkpt>
      <trkpt lat="49.88981" lon="4.6266">
        <ele>339.2</ele>
        <time>2024-04-06T12:12:54Z</time>
      </trkpt>
      <trkpt lat="49.88983" lon="4.6266">
        <ele>339.8</ele>
        <time>2024-04-06T12:12:55Z</time>
      </trkpt>
      <trkpt lat="49.88986" lon="4.62659">
        <ele>340.4</ele>
        <time>2024-04-06T12:12:56Z</time>
      </trkpt>
      <trkpt lat="49.88989" lon="4.62659">
        <ele>340.8</ele>
        <time>2024-04-06T12:12:57Z</time>
      </trkpt>
      <trkpt lat="49.88992" lon="4.62658">
        <ele>341</ele>
        <time>2024-04-06T12:12:58Z</time>
      </trkpt>
      <trkpt lat="49.88995" lon="4.62658">
        <ele>341.2</ele>
        <time>2024-04-06T12:12:59Z</time>
      </trkpt>
      <trkpt lat="49.88998" lon="4.62657">
        <ele>341.4</ele>
        <time>2024-04-06T12:13:00Z</time>
      </trkpt>
      <trkpt lat="49.89001" lon="4.62657">
        <ele>341.4</ele>
        <time>2024-04-06T12:13:01Z</time>
      </trkpt>
      <trkpt lat="49.89004" lon="4.62656">
        <ele>341.8</ele>
        <time>2024-04-06T12:13:02Z</time>
      </trkpt>
      <trkpt lat="49.89007" lon="4.62655">
        <ele>342</ele>
        <time>2024-04-06T12:13:03Z</time>
      </trkpt>
      <trkpt lat="49.8901" lon="4.62654">
        <ele>342.2</ele>
        <time>2024-04-06T12:13:04Z</time>
      </trkpt>
      <trkpt lat="49.89014" lon="4.62654">
        <ele>342.4</ele>
        <time>2024-04-06T12:13:05Z</time>
      </trkpt>
      <trkpt lat="49.89017" lon="4.62653">
        <ele>342.4</ele>
        <time>2024-04-06T12:13:06Z</time>
      </trkpt>
      <trkpt lat="49.8902" lon="4.62652">
        <ele>342.4</ele>
        <time>2024-04-06T12:13:07Z</time>
      </trkpt>
      <trkpt lat="49.89023" lon="4.62652">
        <ele>342.4</ele>
        <time>2024-04-06T12:13:08Z</time>
      </trkpt>
      <trkpt lat="49.89026" lon="4.62651">
        <ele>342.6</ele>
        <time>2024-04-06T12:13:09Z</time>
      </trkpt>
      <trkpt lat="49.89029" lon="4.6265">
        <ele>342.8</ele>
        <time>2024-04-06T12:13:10Z</time>
      </trkpt>
      <trkpt lat="49.89031" lon="4.62649">
        <ele>343</ele>
        <time>2024-04-06T12:13:11Z</time>
      </trkpt>
      <trkpt lat="49.89034" lon="4.62648">
        <ele>343.2</ele>
        <time>2024-04-06T12:13:12Z</time>
      </trkpt>
      <trkpt lat="49.89037" lon="4.62647">
        <ele>343.4</ele>
        <time>2024-04-06T12:13:13Z</time>
      </trkpt>
      <trkpt lat="49.8904" lon="4.62646">
        <ele>343.4</ele>
        <time>2024-04-06T12:13:14Z</time>
      </trkpt>
      <trkpt lat="49.89043" lon="4.62645">
        <ele>343.6</ele>
        <time>2024-04-06T12:13:15Z</time>
      </trkpt>
      <trkpt lat="49.89045" lon="4.62644">
        <ele>343.8</ele>
        <time>2024-04-06T12:13:16Z</time>
      </trkpt>
      <trkpt lat="49.89048" lon="4.62643">
        <ele>343.8</ele>
        <time>2024-04-06T12:13:17Z</time>
      </trkpt>
      <trkpt lat="49.89051" lon="4.62642">
        <ele>344</ele>
        <time>2024-04-06T12:13:18Z</time>
      </trkpt>
      <trkpt lat="49.89053" lon="4.6264">
        <ele>344.4</ele>
        <time>2024-04-06T12:13:19Z</time>
      </trkpt>
      <trkpt lat="49.89056" lon="4.62639">
        <ele>344.6</ele>
        <time>2024-04-06T12:13:20Z</time>
      </trkpt>
      <trkpt lat="49.89058" lon="4.62637">
        <ele>344.8</ele>
        <time>2024-04-06T12:13:21Z</time>
      </trkpt>
      <trkpt lat="49.89061" lon="4.62636">
        <ele>345</ele>
        <time>2024-04-06T12:13:22Z</time>
      </trkpt>
      <trkpt lat="49.89063" lon="4.62634">
        <ele>345.2</ele>
        <time>2024-04-06T12:13:23Z</time>
      </trkpt>
      <trkpt lat="49.89065" lon="4.62633">
        <ele>346</ele>
        <time>2024-04-06T12:13:24Z</time>
      </trkpt>
      <trkpt lat="49.89068" lon="4.62631">
        <ele>346.8</ele>
        <time>2024-04-06T12:13:25Z</time>
      </trkpt>
      <trkpt lat="49.8907" lon="4.62629">
        <ele>347.2</ele>
        <time>2024-04-06T12:13:26Z</time>
      </trkpt>
      <trkpt lat="49.89072" lon="4.62628">
        <ele>347.2</ele>
        <time>2024-04-06T12:13:27Z</time>
      </trkpt>
      <trkpt lat="49.89074" lon="4.62626">
        <ele>347.6</ele>
        <time>2024-04-06T12:13:28Z</time>
      </trkpt>
      <trkpt lat="49.89076" lon="4.62624">
        <ele>347.8</ele>
        <time>2024-04-06T12:13:29Z</time>
      </trkpt>
      <trkpt lat="49.89078" lon="4.62622">
        <ele>347.8</ele>
        <time>2024-04-06T12:13:30Z</time>
      </trkpt>
      <trkpt lat="49.89081" lon="4.6262">
        <ele>348</ele>
        <time>2024-04-06T12:13:31Z</time>
      </trkpt>
      <trkpt lat="49.89083" lon="4.62618">
        <ele>348.2</ele>
        <time>2024-04-06T12:13:32Z</time>
      </trkpt>
      <trkpt lat="49.89086" lon="4.62616">
        <ele>348.2</ele>
        <time>2024-04-06T12:13:33Z</time>
      </trkpt>
      <trkpt lat="49.89088" lon="4.62613">
        <ele>348.2</ele>
        <time>2024-04-06T12:13:34Z</time>
      </trkpt>
      <trkpt lat="49.8909" lon="4.62611">
        <ele>348.2</ele>
        <time>2024-04-06T12:13:35Z</time>
      </trkpt>
      <trkpt lat="49.89092" lon="4.62608">
        <ele>348.4</ele>
        <time>2024-04-06T12:13:36Z</time>
      </trkpt>
      <trkpt lat="49.89094" lon="4.62606">
        <ele>348.6</ele>
        <time>2024-04-06T12:13:37Z</time>
      </trkpt>
      <trkpt lat="49.89097" lon="4.62604">
        <ele>349</ele>
        <time>2024-04-06T12:13:38Z</time>
      </trkpt>
      <trkpt lat="49.89099" lon="4.62601">
        <ele>349.4</ele>
        <time>2024-04-06T12:13:39Z</time>
      </trkpt>
      <trkpt lat="49.89101" lon="4.62599">
        <ele>349.6</ele>
        <time>2024-04-06T12:13:40Z</time>
      </trkpt>
      <trkpt lat="49.89103" lon="4.62597">
        <ele>349.6</ele>
        <time>2024-04-06T12:13:41Z</time>
      </trkpt>
      <trkpt lat="49.89105" lon="4.62595">
        <ele>349.8</ele>
        <time>2024-04-06T12:13:42Z</time>
      </trkpt>
      <trkpt lat="49.89108" lon="4.62593">
        <ele>350</ele>
        <time>2024-04-06T12:13:43Z</time>
      </trkpt>
      <trkpt lat="49.8911" lon="4.62591">
        <ele>350.2</ele>
        <time>2024-04-06T12:13:44Z</time>
      </trkpt>
      <trkpt lat="49.89112" lon="4.62589">
        <ele>350.2</ele>
        <time>2024-04-06T12:13:45Z</time>
      </trkpt>
      <trkpt lat="49.89114" lon="4.62587">
        <ele>350.4</ele>
        <time>2024-04-06T12:13:46Z</time>
      </trkpt>
      <trkpt lat="49.89117" lon="4.62585">
        <ele>350.6</ele>
        <time>2024-04-06T12:13:47Z</time>
      </trkpt>
      <trkpt lat="49.89119" lon="4.62583">
        <ele>351</ele>
        <time>2024-04-06T12:13:48Z</time>
      </trkpt>
      <trkpt lat="49.89121" lon="4.62582">
        <ele>351</ele>
        <time>2024-04-06T12:13:49Z</time>
      </trkpt>
      <trkpt lat="49.89124" lon="4.6258">
        <ele>351.2</ele>
        <time>2024-04-06T12:13:50Z</time>
      </trkpt>
      <trkpt lat="49.89126" lon="4.62578">
        <ele>351.2</ele>
        <time>2024-04-06T12:13:51Z</time>
      </trkpt>
      <trkpt lat="49.89129" lon="4.62577">
        <ele>351.2</ele>
        <time>2024-04-06T12:13:52Z</time>
      </trkpt>
      <trkpt lat="49.89131" lon="4.62575">
        <ele>351.2</ele>
        <time>2024-04-06T12:13:53Z</time>
      </trkpt>
      <trkpt lat="49.89133" lon="4.62573">
        <ele>351.4</ele>
        <time>2024-04-06T12:13:54Z</time>
      </trkpt>
      <trkpt lat="49.89135" lon="4.62571">
        <ele>351.4</ele>
        <time>2024-04-06T12:13:55Z</time>
      </trkpt>
      <trkpt lat="49.89138" lon="4.62569">
        <ele>351.4</ele>
        <time>2024-04-06T12:13:56Z</time>
      </trkpt>
      <trkpt lat="49.8914" lon="4.62568">
        <ele>351.4</ele>
        <time>2024-04-06T12:13:57Z</time>
      </trkpt>
      <trkpt lat="49.89143" lon="4.62566">
        <ele>351.8</ele>
        <time>2024-04-06T12:13:58Z</time>
      </trkpt>
      <trkpt lat="49.89145" lon="4.62565">
        <ele>352.2</ele>
        <time>2024-04-06T12:13:59Z</time>
      </trkpt>
      <trkpt lat="49.89147" lon="4.62564">
        <ele>352.4</ele>
        <time>2024-04-06T12:14:00Z</time>
      </trkpt>
      <trkpt lat="49.8915" lon="4.62562">
        <ele>352.8</ele>
        <time>2024-04-06T12:14:01Z</time>
      </trkpt>
      <trkpt lat="49.89152" lon="4.62561">
        <ele>353</ele>
        <time>2024-04-06T12:14:02Z</time>
      </trkpt>
      <trkpt lat="49.89155" lon="4.6256">
        <ele>353.2</ele>
        <time>2024-04-06T12:14:03Z</time>
      </trkpt>
      <trkpt lat="49.89157" lon="4.62559">
        <ele>353.6</ele>
        <time>2024-04-06T12:14:04Z</time>
      </trkpt>
      <trkpt lat="49.89159" lon="4.62559">
        <ele>353.6</ele>
        <time>2024-04-06T12:14:05Z</time>
      </trkpt>
      <trkpt lat="49.89162" lon="4.62558">
        <ele>354</ele>
        <time>2024-04-06T12:14:06Z</time>
      </trkpt>
      <trkpt lat="49.89164" lon="4.62557">
        <ele>354.4</ele>
        <time>2024-04-06T12:14:07Z</time>
      </trkpt>
      <trkpt lat="49.89167" lon="4.62556">
        <ele>354.4</ele>
        <time>2024-04-06T12:14:08Z</time>
      </trkpt>
      <trkpt lat="49.89169" lon="4.62555">
        <ele>354.6</ele>
        <time>2024-04-06T12:14:09Z</time>
      </trkpt>
      <trkpt lat="49.89172" lon="4.62555">
        <ele>354.8</ele>
        <time>2024-04-06T12:14:10Z</time>
      </trkpt>
      <trkpt lat="49.89174" lon="4.62554">
        <ele>354.8</ele>
        <time>2024-04-06T12:14:11Z</time>
      </trkpt>
      <trkpt lat="49.89176" lon="4.62553">
        <ele>354.8</ele>
        <time>2024-04-06T12:14:12Z</time>
      </trkpt>
      <trkpt lat="49.89178" lon="4.62552">
        <ele>355</ele>
        <time>2024-04-06T12:14:13Z</time>
      </trkpt>
      <trkpt lat="49.8918" lon="4.62551">
        <ele>355.2</ele>
        <time>2024-04-06T12:14:14Z</time>
      </trkpt>
      <trkpt lat="49.89182" lon="4.62551">
        <ele>355.4</ele>
        <time>2024-04-06T12:14:15Z</time>
      </trkpt>
      <trkpt lat="49.89185" lon="4.62551">
        <ele>355.8</ele>
        <time>2024-04-06T12:14:16Z</time>
      </trkpt>
      <trkpt lat="49.89187" lon="4.6255">
        <ele>356</ele>
        <time>2024-04-06T12:14:17Z</time>
      </trkpt>
      <trkpt lat="49.8919" lon="4.6255">
        <ele>356.2</ele>
        <time>2024-04-06T12:14:18Z</time>
      </trkpt>
      <trkpt lat="49.89192" lon="4.6255">
        <ele>356.2</ele>
        <time>2024-04-06T12:14:19Z</time>
      </trkpt>
      <trkpt lat="49.89195" lon="4.6255">
        <ele>356.6</ele>
        <time>2024-04-06T12:14:20Z</time>
      </trkpt>
      <trkpt lat="49.89198" lon="4.62549">
        <ele>356.8</ele>
        <time>2024-04-06T12:14:21Z</time>
      </trkpt>
      <trkpt lat="49.892" lon="4.62549">
        <ele>357</ele>
        <time>2024-04-06T12:14:22Z</time>
      </trkpt>
      <trkpt lat="49.89203" lon="4.62549">
        <ele>357</ele>
        <time>2024-04-06T12:14:23Z</time>
      </trkpt>
      <trkpt lat="49.89206" lon="4.62549">
        <ele>357.2</ele>
        <time>2024-04-06T12:14:24Z</time>
      </trkpt>
      <trkpt lat="49.89209" lon="4.62548">
        <ele>357.4</ele>
        <time>2024-04-06T12:14:25Z</time>
      </trkpt>
      <trkpt lat="49.89211" lon="4.62549">
        <ele>357.6</ele>
        <time>2024-04-06T12:14:26Z</time>
      </trkpt>
      <trkpt lat="49.89214" lon="4.62549">
        <ele>358</ele>
        <time>2024-04-06T12:14:27Z</time>
      </trkpt>
      <trkpt lat="49.89217" lon="4.62549">
        <ele>358.2</ele>
        <time>2024-04-06T12:14:28Z</time>
      </trkpt>
      <trkpt lat="49.89219" lon="4.62548">
        <ele>358.6</ele>
        <time>2024-04-06T12:14:29Z</time>
      </trkpt>
      <trkpt lat="49.89222" lon="4.62548">
        <ele>358.8</ele>
        <time>2024-04-06T12:14:30Z</time>
      </trkpt>
      <trkpt lat="49.89225" lon="4.62548">
        <ele>359</ele>
        <time>2024-04-06T12:14:31Z</time>
      </trkpt>
      <trkpt lat="49.89227" lon="4.62548">
        <ele>359.4</ele>
        <time>2024-04-06T12:14:32Z</time>
      </trkpt>
      <trkpt lat="49.8923" lon="4.62548">
        <ele>359.6</ele>
        <time>2024-04-06T12:14:33Z</time>
      </trkpt>
      <trkpt lat="49.89232" lon="4.62549">
        <ele>359.8</ele>
        <time>2024-04-06T12:14:34Z</time>
      </trkpt>
      <trkpt lat="49.89235" lon="4.62549">
        <ele>360</ele>
        <time>2024-04-06T12:14:35Z</time>
      </trkpt>
      <trkpt lat="49.89238" lon="4.62549">
        <ele>360.2</ele>
        <time>2024-04-06T12:14:36Z</time>
      </trkpt>
      <trkpt lat="49.8924" lon="4.62549">
        <ele>360.2</ele>
        <time>2024-04-06T12:14:37Z</time>
      </trkpt>
      <trkpt lat="49.89243" lon="4.62549">
        <ele>360</ele>
        <time>2024-04-06T12:14:38Z</time>
      </trkpt>
      <trkpt lat="49.89246" lon="4.6255">
        <ele>360.4</ele>
        <time>2024-04-06T12:14:39Z</time>
      </trkpt>
      <trkpt lat="49.89248" lon="4.6255">
        <ele>360.4</ele>
        <time>2024-04-06T12:14:40Z</time>
      </trkpt>
      <trkpt lat="49.89251" lon="4.6255">
        <ele>360.6</ele>
        <time>2024-04-06T12:14:41Z</time>
      </trkpt>
      <trkpt lat="49.89254" lon="4.6255">
        <ele>361</ele>
        <time>2024-04-06T12:14:42Z</time>
      </trkpt>
      <trkpt lat="49.89256" lon="4.62551">
        <ele>361.4</ele>
        <time>2024-04-06T12:14:43Z</time>
      </trkpt>
      <trkpt lat="49.89259" lon="4.62552">
        <ele>361.6</ele>
        <time>2024-04-06T12:14:44Z</time>
      </trkpt>
      <trkpt lat="49.89261" lon="4.62552">
        <ele>361.6</ele>
        <time>2024-04-06T12:14:45Z</time>
      </trkpt>
      <trkpt lat="49.89264" lon="4.62552">
        <ele>361.6</ele>
        <time>2024-04-06T12:14:46Z</time>
      </trkpt>
      <trkpt lat="49.89267" lon="4.62552">
        <ele>362</ele>
        <time>2024-04-06T12:14:47Z</time>
      </trkpt>
      <trkpt lat="49.89269" lon="4.62552">
        <ele>362.6</ele>
        <time>2024-04-06T12:14:48Z</time>
      </trkpt>
      <trkpt lat="49.89272" lon="4.62552">
        <ele>362.8</ele>
        <time>2024-04-06T12:14:49Z</time>
      </trkpt>
      <trkpt lat="49.89275" lon="4.62552">
        <ele>363.2</ele>
        <time>2024-04-06T12:14:50Z</time>
      </trkpt>
      <trkpt lat="49.89277" lon="4.62552">
        <ele>363.4</ele>
        <time>2024-04-06T12:14:51Z</time>
      </trkpt>
      <trkpt lat="49.8928" lon="4.62552">
        <ele>363.6</ele>
        <time>2024-04-06T12:14:52Z</time>
      </trkpt>
      <trkpt lat="49.89283" lon="4.62553">
        <ele>363.8</ele>
        <time>2024-04-06T12:14:53Z</time>
      </trkpt>
      <trkpt lat="49.89285" lon="4.62553">
        <ele>364.2</ele>
        <time>2024-04-06T12:14:54Z</time>
      </trkpt>
      <trkpt lat="49.89288" lon="4.62553">
        <ele>364.4</ele>
        <time>2024-04-06T12:14:55Z</time>
      </trkpt>
      <trkpt lat="49.89291" lon="4.62553">
        <ele>364.6</ele>
        <time>2024-04-06T12:14:56Z</time>
      </trkpt>
      <trkpt lat="49.89293" lon="4.62554">
        <ele>364.8</ele>
        <time>2024-04-06T12:14:57Z</time>
      </trkpt>
      <trkpt lat="49.89296" lon="4.62554">
        <ele>365.2</ele>
        <time>2024-04-06T12:14:58Z</time>
      </trkpt>
      <trkpt lat="49.89298" lon="4.62554">
        <ele>365.2</ele>
        <time>2024-04-06T12:14:59Z</time>
      </trkpt>
      <trkpt lat="49.89301" lon="4.62554">
        <ele>365.6</ele>
        <time>2024-04-06T12:15:00Z</time>
      </trkpt>
      <trkpt lat="49.89303" lon="4.62555">
        <ele>365.8</ele>
        <time>2024-04-06T12:15:01Z</time>
      </trkpt>
      <trkpt lat="49.89306" lon="4.62555">
        <ele>366</ele>
        <time>2024-04-06T12:15:02Z</time>
      </trkpt>
      <trkpt lat="49.89308" lon="4.62555">
        <ele>366</ele>
        <time>2024-04-06T12:15:03Z</time>
      </trkpt>
      <trkpt lat="49.89311" lon="4.62555">
        <ele>366.4</ele>
        <time>2024-04-06T12:15:04Z</time>
      </trkpt>
      <trkpt lat="49.89313" lon="4.62554">
        <ele>366.4</ele>
        <time>2024-04-06T12:15:05Z</time>
      </trkpt>
      <trkpt lat="49.89316" lon="4.62554">
        <ele>366.8</ele>
        <time>2024-04-06T12:15:06Z</time>
      </trkpt>
      <trkpt lat="49.89318" lon="4.62554">
        <ele>367.4</ele>
        <time>2024-04-06T12:15:07Z</time>
      </trkpt>
      <trkpt lat="49.89321" lon="4.62555">
        <ele>368</ele>
        <time>2024-04-06T12:15:08Z</time>
      </trkpt>
      <trkpt lat="49.89323" lon="4.62555">
        <ele>368.4</ele>
        <time>2024-04-06T12:15:09Z</time>
      </trkpt>
      <trkpt lat="49.89326" lon="4.62555">
        <ele>368.6</ele>
        <time>2024-04-06T12:15:10Z</time>
      </trkpt>
      <trkpt lat="49.89328" lon="4.62555">
        <ele>368.6</ele>
        <time>2024-04-06T12:15:11Z</time>
      </trkpt>
      <trkpt lat="49.89331" lon="4.62556">
        <ele>368.8</ele>
        <time>2024-04-06T12:15:12Z</time>
      </trkpt>
      <trkpt lat="49.89333" lon="4.62556">
        <ele>369</ele>
        <time>2024-04-06T12:15:13Z</time>
      </trkpt>
      <trkpt lat="49.89336" lon="4.62556">
        <ele>369.2</ele>
        <time>2024-04-06T12:15:14Z</time>
      </trkpt>
      <trkpt lat="49.89338" lon="4.62556">
        <ele>369.4</ele>
        <time>2024-04-06T12:15:15Z</time>
      </trkpt>
      <trkpt lat="49.89341" lon="4.62557">
        <ele>369.4</ele>
        <time>2024-04-06T12:15:16Z</time>
      </trkpt>
      <trkpt lat="49.89343" lon="4.62557">
        <ele>369.8</ele>
        <time>2024-04-06T12:15:17Z</time>
      </trkpt>
      <trkpt lat="49.89346" lon="4.62557">
        <ele>370</ele>
        <time>2024-04-06T12:15:18Z</time>
      </trkpt>
      <trkpt lat="49.89348" lon="4.62558">
        <ele>370</ele>
        <time>2024-04-06T12:15:19Z</time>
      </trkpt>
      <trkpt lat="49.89351" lon="4.62558">
        <ele>370</ele>
        <time>2024-04-06T12:15:20Z</time>
      </trkpt>
      <trkpt lat="49.89353" lon="4.62558">
        <ele>370.4</ele>
        <time>2024-04-06T12:15:21Z</time>
      </trkpt>
      <trkpt lat="49.89356" lon="4.62559">
        <ele>370.4</ele>
        <time>2024-04-06T12:15:22Z</time>
      </trkpt>
      <trkpt lat="49.89358" lon="4.62559">
        <ele>370.6</ele>
        <time>2024-04-06T12:15:23Z</time>
      </trkpt>
      <trkpt lat="49.89361" lon="4.62559">
        <ele>370.8</ele>
        <time>2024-04-06T12:15:24Z</time>
      </trkpt>
      <trkpt lat="49.89363" lon="4.6256">
        <ele>370.8</ele>
        <time>2024-04-06T12:15:25Z</time>
      </trkpt>
      <trkpt lat="49.89366" lon="4.6256">
        <ele>370.8</ele>
        <time>2024-04-06T12:15:26Z</time>
      </trkpt>
      <trkpt lat="49.89368" lon="4.6256">
        <ele>371.2</ele>
        <time>2024-04-06T12:15:27Z</time>
      </trkpt>
      <trkpt lat="49.89371" lon="4.62561">
        <ele>371.4</ele>
        <time>2024-04-06T12:15:28Z</time>
      </trkpt>
      <trkpt lat="49.89373" lon="4.62561">
        <ele>371.8</ele>
        <time>2024-04-06T12:15:29Z</time>
      </trkpt>
      <trkpt lat="49.89376" lon="4.62562">
        <ele>372</ele>
        <time>2024-04-06T12:15:30Z</time>
      </trkpt>
      <trkpt lat="49.89379" lon="4.62562">
        <ele>372.2</ele>
        <time>2024-04-06T12:15:31Z</time>
      </trkpt>
      <trkpt lat="49.89382" lon="4.62563">
        <ele>372.2</ele>
        <time>2024-04-06T12:15:32Z</time>
      </trkpt>
      <trkpt lat="49.89384" lon="4.62563">
        <ele>372.6</ele>
        <time>2024-04-06T12:15:33Z</time>
      </trkpt>
      <trkpt lat="49.89387" lon="4.62564">
        <ele>372.6</ele>
        <time>2024-04-06T12:15:34Z</time>
      </trkpt>
      <trkpt lat="49.89389" lon="4.62565">
        <ele>373</ele>
        <time>2024-04-06T12:15:35Z</time>
      </trkpt>
      <trkpt lat="49.89392" lon="4.62565">
        <ele>373.2</ele>
        <time>2024-04-06T12:15:36Z</time>
      </trkpt>
      <trkpt lat="49.89395" lon="4.62566">
        <ele>373.2</ele>
        <time>2024-04-06T12:15:37Z</time>
      </trkpt>
      <trkpt lat="49.89398" lon="4.62566">
        <ele>373.6</ele>
        <time>2024-04-06T12:15:38Z</time>
      </trkpt>
      <trkpt lat="49.894" lon="4.62567">
        <ele>374</ele>
        <time>2024-04-06T12:15:39Z</time>
      </trkpt>
      <trkpt lat="49.89403" lon="4.62568">
        <ele>374.2</ele>
        <time>2024-04-06T12:15:40Z</time>
      </trkpt>
      <trkpt lat="49.89405" lon="4.62569">
        <ele>374.6</ele>
        <time>2024-04-06T12:15:41Z</time>
      </trkpt>
      <trkpt lat="49.89408" lon="4.6257">
        <ele>374.8</ele>
        <time>2024-04-06T12:15:42Z</time>
      </trkpt>
      <trkpt lat="49.8941" lon="4.62571">
        <ele>375</ele>
        <time>2024-04-06T12:15:43Z</time>
      </trkpt>
      <trkpt lat="49.89413" lon="4.62572">
        <ele>375.4</ele>
        <time>2024-04-06T12:15:44Z</time>
      </trkpt>
      <trkpt lat="49.89415" lon="4.62572">
        <ele>375.4</ele>
        <time>2024-04-06T12:15:45Z</time>
      </trkpt>
      <trkpt lat="49.89417" lon="4.62573">
        <ele>375.8</ele>
        <time>2024-04-06T12:15:46Z</time>
      </trkpt>
      <trkpt lat="49.89419" lon="4.62574">
        <ele>375.8</ele>
        <time>2024-04-06T12:15:47Z</time>
      </trkpt>
      <trkpt lat="49.89422" lon="4.62576">
        <ele>376.2</ele>
        <time>2024-04-06T12:15:48Z</time>
      </trkpt>
      <trkpt lat="49.89424" lon="4.62577">
        <ele>376.4</ele>
        <time>2024-04-06T12:15:49Z</time>
      </trkpt>
      <trkpt lat="49.89427" lon="4.62578">
        <ele>376.8</ele>
        <time>2024-04-06T12:15:50Z</time>
      </trkpt>
      <trkpt lat="49.89429" lon="4.62579">
        <ele>377.2</ele>
        <time>2024-04-06T12:15:51Z</time>
      </trkpt>
      <trkpt lat="49.89432" lon="4.6258">
        <ele>377.4</ele>
        <time>2024-04-06T12:15:52Z</time>
      </trkpt>
      <trkpt lat="49.89434" lon="4.62582">
        <ele>377.8</ele>
        <time>2024-04-06T12:15:53Z</time>
      </trkpt>
      <trkpt lat="49.89436" lon="4.62582">
        <ele>378</ele>
        <time>2024-04-06T12:15:54Z</time>
      </trkpt>
      <trkpt lat="49.89439" lon="4.62583">
        <ele>378.4</ele>
        <time>2024-04-06T12:15:55Z</time>
      </trkpt>
      <trkpt lat="49.89442" lon="4.62584">
        <ele>378.6</ele>
        <time>2024-04-06T12:15:56Z</time>
      </trkpt>
      <trkpt lat="49.89444" lon="4.62586">
        <ele>378.6</ele>
        <time>2024-04-06T12:15:57Z</time>
      </trkpt>
      <trkpt lat="49.89447" lon="4.62587">
        <ele>378.6</ele>
        <time>2024-04-06T12:15:58Z</time>
      </trkpt>
      <trkpt lat="49.89449" lon="4.62588">
        <ele>378.6</ele>
        <time>2024-04-06T12:15:59Z</time>
      </trkpt>
      <trkpt lat="49.89452" lon="4.6259">
        <ele>378.8</ele>
        <time>2024-04-06T12:16:00Z</time>
      </trkpt>
      <trkpt lat="49.89455" lon="4.62593">
        <ele>378.8</ele>
        <time>2024-04-06T12:16:01Z</time>
      </trkpt>
      <trkpt lat="49.89459" lon="4.62595">
        <ele>379</ele>
        <time>2024-04-06T12:16:02Z</time>
      </trkpt>
      <trkpt lat="49.89462" lon="4.62598">
        <ele>379.2</ele>
        <time>2024-04-06T12:16:03Z</time>
      </trkpt>
      <trkpt lat="49.89465" lon="4.626">
        <ele>379.4</ele>
        <time>2024-04-06T12:16:04Z</time>
      </trkpt>
      <trkpt lat="49.89468" lon="4.62603">
        <ele>379.4</ele>
        <time>2024-04-06T12:16:05Z</time>
      </trkpt>
      <trkpt lat="49.89472" lon="4.62606">
        <ele>379.6</ele>
        <time>2024-04-06T12:16:06Z</time>
      </trkpt>
      <trkpt lat="49.89474" lon="4.62608">
        <ele>379.8</ele>
        <time>2024-04-06T12:16:07Z</time>
      </trkpt>
      <trkpt lat="49.89477" lon="4.62611">
        <ele>379.8</ele>
        <time>2024-04-06T12:16:08Z</time>
      </trkpt>
      <trkpt lat="49.8948" lon="4.62614">
        <ele>379.8</ele>
        <time>2024-04-06T12:16:09Z</time>
      </trkpt>
      <trkpt lat="49.89483" lon="4.62617">
        <ele>379.8</ele>
        <time>2024-04-06T12:16:10Z</time>
      </trkpt>
      <trkpt lat="49.89485" lon="4.62619">
        <ele>379.8</ele>
        <time>2024-04-06T12:16:11Z</time>
      </trkpt>
      <trkpt lat="49.89488" lon="4.62623">
        <ele>379.8</ele>
        <time>2024-04-06T12:16:12Z</time>
      </trkpt>
      <trkpt lat="49.89492" lon="4.62626">
        <ele>380</ele>
        <time>2024-04-06T12:16:13Z</time>
      </trkpt>
      <trkpt lat="49.89495" lon="4.6263">
        <ele>380</ele>
        <time>2024-04-06T12:16:14Z</time>
      </trkpt>
      <trkpt lat="49.89499" lon="4.62634">
        <ele>380</ele>
        <time>2024-04-06T12:16:15Z</time>
      </trkpt>
      <trkpt lat="49.89502" lon="4.62638">
        <ele>379.8</ele>
        <time>2024-04-06T12:16:16Z</time>
      </trkpt>
      <trkpt lat="49.89506" lon="4.62642">
        <ele>380</ele>
        <time>2024-04-06T12:16:17Z</time>
      </trkpt>
      <trkpt lat="49.8951" lon="4.62646">
        <ele>380</ele>
        <time>2024-04-06T12:16:18Z</time>
      </trkpt>
      <trkpt lat="49.89513" lon="4.6265">
        <ele>380</ele>
        <time>2024-04-06T12:16:19Z</time>
      </trkpt>
      <trkpt lat="49.89516" lon="4.62654">
        <ele>380</ele>
        <time>2024-04-06T12:16:20Z</time>
      </trkpt>
      <trkpt lat="49.8952" lon="4.62658">
        <ele>380</ele>
        <time>2024-04-06T12:16:21Z</time>
      </trkpt>
      <trkpt lat="49.89524" lon="4.62662">
        <ele>380</ele>
        <time>2024-04-06T12:16:22Z</time>
      </trkpt>
      <trkpt lat="49.89528" lon="4.62667">
        <ele>380</ele>
        <time>2024-04-06T12:16:23Z</time>
      </trkpt>
      <trkpt lat="49.89532" lon="4.62672">
        <ele>380</ele>
        <time>2024-04-06T12:16:24Z</time>
      </trkpt>
      <trkpt lat="49.89537" lon="4.62678">
        <ele>380</ele>
        <time>2024-04-06T12:16:25Z</time>
      </trkpt>
      <trkpt lat="49.89541" lon="4.62683">
        <ele>380</ele>
        <time>2024-04-06T12:16:26Z</time>
      </trkpt>
      <trkpt lat="49.89545" lon="4.62689">
        <ele>380</ele>
        <time>2024-04-06T12:16:27Z</time>
      </trkpt>
      <trkpt lat="49.8955" lon="4.62694">
        <ele>379.8</ele>
        <time>2024-04-06T12:16:28Z</time>
      </trkpt>
      <trkpt lat="49.89554" lon="4.627">
        <ele>380</ele>
        <time>2024-04-06T12:16:29Z</time>
      </trkpt>
      <trkpt lat="49.89558" lon="4.62706">
        <ele>380</ele>
        <time>2024-04-06T12:16:30Z</time>
      </trkpt>
      <trkpt lat="49.89563" lon="4.62711">
        <ele>379.8</ele>
        <time>2024-04-06T12:16:31Z</time>
      </trkpt>
      <trkpt lat="49.89567" lon="4.62717">
        <ele>380</ele>
        <time>2024-04-06T12:16:32Z</time>
      </trkpt>
      <trkpt lat="49.89572" lon="4.62723">
        <ele>380</ele>
        <time>2024-04-06T12:16:33Z</time>
      </trkpt>
      <trkpt lat="49.89577" lon="4.62728">
        <ele>380</ele>
        <time>2024-04-06T12:16:34Z</time>
      </trkpt>
      <trkpt lat="49.89581" lon="4.62733">
        <ele>379.8</ele>
        <time>2024-04-06T12:16:35Z</time>
      </trkpt>
      <trkpt lat="49.89586" lon="4.62738">
        <ele>380</ele>
        <time>2024-04-06T12:16:36Z</time>
      </trkpt>
      <trkpt lat="49.8959" lon="4.62744">
        <ele>380</ele>
        <time>2024-04-06T12:16:37Z</time>
      </trkpt>
      <trkpt lat="49.89594" lon="4.62749">
        <ele>380</ele>
        <time>2024-04-06T12:16:38Z</time>
      </trkpt>
      <trkpt lat="49.89599" lon="4.62755">
        <ele>380</ele>
        <time>2024-04-06T12:16:39Z</time>
      </trkpt>
      <trkpt lat="49.89603" lon="4.6276">
        <ele>380</ele>
        <time>2024-04-06T12:16:40Z</time>
      </trkpt>
      <trkpt lat="49.89607" lon="4.62766">
        <ele>379.8</ele>
        <time>2024-04-06T12:16:41Z</time>
      </trkpt>
      <trkpt lat="49.89611" lon="4.62772">
        <ele>380</ele>
        <time>2024-04-06T12:16:42Z</time>
      </trkpt>
      <trkpt lat="49.89616" lon="4.62777">
        <ele>380</ele>
        <time>2024-04-06T12:16:43Z</time>
      </trkpt>
      <trkpt lat="49.8962" lon="4.62782">
        <ele>380</ele>
        <time>2024-04-06T12:16:44Z</time>
      </trkpt>
      <trkpt lat="49.89624" lon="4.62788">
        <ele>380</ele>
        <time>2024-04-06T12:16:45Z</time>
      </trkpt>
      <trkpt lat="49.89629" lon="4.62793">
        <ele>380</ele>
        <time>2024-04-06T12:16:46Z</time>
      </trkpt>
      <trkpt lat="49.89633" lon="4.62798">
        <ele>380.2</ele>
        <time>2024-04-06T12:16:47Z</time>
      </trkpt>
      <trkpt lat="49.89637" lon="4.62803">
        <ele>380</ele>
        <time>2024-04-06T12:16:48Z</time>
      </trkpt>
      <trkpt lat="49.89641" lon="4.62808">
        <ele>380.2</ele>
        <time>2024-04-06T12:16:49Z</time>
      </trkpt>
      <trkpt lat="49.89644" lon="4.62814">
        <ele>380.2</ele>
        <time>2024-04-06T12:16:50Z</time>
      </trkpt>
      <trkpt lat="49.89648" lon="4.62819">
        <ele>380.2</ele>
        <time>2024-04-06T12:16:51Z</time>
      </trkpt>
      <trkpt lat="49.89651" lon="4.62824">
        <ele>380.4</ele>
        <time>2024-04-06T12:16:52Z</time>
      </trkpt>
      <trkpt lat="49.89654" lon="4.6283">
        <ele>380.4</ele>
        <time>2024-04-06T12:16:53Z</time>
      </trkpt>
      <trkpt lat="49.89656" lon="4.62836">
        <ele>380.4</ele>
        <time>2024-04-06T12:16:54Z</time>
      </trkpt>
      <trkpt lat="49.89657" lon="4.62843">
        <ele>380.4</ele>
        <time>2024-04-06T12:16:55Z</time>
      </trkpt>
      <trkpt lat="49.89658" lon="4.6285">
        <ele>380.6</ele>
        <time>2024-04-06T12:16:56Z</time>
      </trkpt>
      <trkpt lat="49.89659" lon="4.62858">
        <ele>380.6</ele>
        <time>2024-04-06T12:16:57Z</time>
      </trkpt>
      <trkpt lat="49.89659" lon="4.62866">
        <ele>380.6</ele>
        <time>2024-04-06T12:16:58Z</time>
      </trkpt>
      <trkpt lat="49.89659" lon="4.62874">
        <ele>380.8</ele>
        <time>2024-04-06T12:16:59Z</time>
      </trkpt>
      <trkpt lat="49.8966" lon="4.62882">
        <ele>380.8</ele>
        <time>2024-04-06T12:17:00Z</time>
      </trkpt>
      <trkpt lat="49.89663" lon="4.62889">
        <ele>381</ele>
        <time>2024-04-06T12:17:01Z</time>
      </trkpt>
      <trkpt lat="49.89667" lon="4.62894">
        <ele>381.2</ele>
        <time>2024-04-06T12:17:02Z</time>
      </trkpt>
      <trkpt lat="49.89673" lon="4.62897">
        <ele>381.2</ele>
        <time>2024-04-06T12:17:03Z</time>
      </trkpt>
      <trkpt lat="49.89678" lon="4.62898">
        <ele>381.6</ele>
        <time>2024-04-06T12:17:04Z</time>
      </trkpt>
      <trkpt lat="49.89683" lon="4.62898">
        <ele>381.4</ele>
        <time>2024-04-06T12:17:05Z</time>
      </trkpt>
      <trkpt lat="49.89689" lon="4.62898">
        <ele>381.6</ele>
        <time>2024-04-06T12:17:06Z</time>
      </trkpt>
      <trkpt lat="49.89694" lon="4.62901">
        <ele>381.6</ele>
        <time>2024-04-06T12:17:07Z</time>
      </trkpt>
      <trkpt lat="49.89699" lon="4.62904">
        <ele>381.6</ele>
        <time>2024-04-06T12:17:08Z</time>
      </trkpt>
      <trkpt lat="49.89704" lon="4.62908">
        <ele>381.8</ele>
        <time>2024-04-06T12:17:09Z</time>
      </trkpt>
      <trkpt lat="49.89709" lon="4.62913">
        <ele>381.8</ele>
        <time>2024-04-06T12:17:10Z</time>
      </trkpt>
      <trkpt lat="49.89714" lon="4.62918">
        <ele>382</ele>
        <time>2024-04-06T12:17:11Z</time>
      </trkpt>
      <trkpt lat="49.89718" lon="4.62922">
        <ele>382</ele>
        <time>2024-04-06T12:17:12Z</time>
      </trkpt>
      <trkpt lat="49.89722" lon="4.62927">
        <ele>382.4</ele>
        <time>2024-04-06T12:17:13Z</time>
      </trkpt>
      <trkpt lat="49.89726" lon="4.62932">
        <ele>382.6</ele>
        <time>2024-04-06T12:17:14Z</time>
      </trkpt>
      <trkpt lat="49.89731" lon="4.62936">
        <ele>382.8</ele>
        <time>2024-04-06T12:17:15Z</time>
      </trkpt>
      <trkpt lat="49.89735" lon="4.6294">
        <ele>382.8</ele>
        <time>2024-04-06T12:17:16Z</time>
      </trkpt>
      <trkpt lat="49.89739" lon="4.62945">
        <ele>382.8</ele>
        <time>2024-04-06T12:17:17Z</time>
      </trkpt>
      <trkpt lat="49.89744" lon="4.62949">
        <ele>383</ele>
        <time>2024-04-06T12:17:18Z</time>
      </trkpt>
      <trkpt lat="49.89748" lon="4.62954">
        <ele>383</ele>
        <time>2024-04-06T12:17:19Z</time>
      </trkpt>
      <trkpt lat="49.89753" lon="4.62959">
        <ele>383</ele>
        <time>2024-04-06T12:17:20Z</time>
      </trkpt>
      <trkpt lat="49.89757" lon="4.62963">
        <ele>383.2</ele>
        <time>2024-04-06T12:17:21Z</time>
      </trkpt>
      <trkpt lat="49.89761" lon="4.62968">
        <ele>383.2</ele>
        <time>2024-04-06T12:17:22Z</time>
      </trkpt>
      <trkpt lat="49.89766" lon="4.62972">
        <ele>383.6</ele>
        <time>2024-04-06T12:17:23Z</time>
      </trkpt>
      <trkpt lat="49.8977" lon="4.62977">
        <ele>383.8</ele>
        <time>2024-04-06T12:17:24Z</time>
      </trkpt>
      <trkpt lat="49.89775" lon="4.62981">
        <ele>383.8</ele>
        <time>2024-04-06T12:17:25Z</time>
      </trkpt>
      <trkpt lat="49.89779" lon="4.62986">
        <ele>384</ele>
        <time>2024-04-06T12:17:26Z</time>
      </trkpt>
      <trkpt lat="49.89784" lon="4.62991">
        <ele>384.2</ele>
        <time>2024-04-06T12:17:27Z</time>
      </trkpt>
      <trkpt lat="49.89788" lon="4.62996">
        <ele>384.4</ele>
        <time>2024-04-06T12:17:28Z</time>
      </trkpt>
      <trkpt lat="49.89792" lon="4.63">
        <ele>384.6</ele>
        <time>2024-04-06T12:17:29Z</time>
      </trkpt>
      <trkpt lat="49.89797" lon="4.63005">
        <ele>384.8</ele>
        <time>2024-04-06T12:17:30Z</time>
      </trkpt>
      <trkpt lat="49.89801" lon="4.63009">
        <ele>384.8</ele>
        <time>2024-04-06T12:17:31Z</time>
      </trkpt>
      <trkpt lat="49.89805" lon="4.63014">
        <ele>385</ele>
        <time>2024-04-06T12:17:32Z</time>
      </trkpt>
      <trkpt lat="49.89809" lon="4.63019">
        <ele>385</ele>
        <time>2024-04-06T12:17:33Z</time>
      </trkpt>
      <trkpt lat="49.89814" lon="4.63024">
        <ele>385.2</ele>
        <time>2024-04-06T12:17:34Z</time>
      </trkpt>
      <trkpt lat="49.89818" lon="4.63029">
        <ele>385</ele>
        <time>2024-04-06T12:17:35Z</time>
      </trkpt>
      <trkpt lat="49.89822" lon="4.63034">
        <ele>385.2</ele>
        <time>2024-04-06T12:17:36Z</time>
      </trkpt>
      <trkpt lat="49.89826" lon="4.63039">
        <ele>385.2</ele>
        <time>2024-04-06T12:17:37Z</time>
      </trkpt>
      <trkpt lat="49.8983" lon="4.63044">
        <ele>385.2</ele>
        <time>2024-04-06T12:17:38Z</time>
      </trkpt>
      <trkpt lat="49.89834" lon="4.63049">
        <ele>385.2</ele>
        <time>2024-04-06T12:17:39Z</time>
      </trkpt>
      <trkpt lat="49.89838" lon="4.63054">
        <ele>385.2</ele>
        <time>2024-04-06T12:17:40Z</time>
      </trkpt>
      <trkpt lat="49.89842" lon="4.63059">
        <ele>385.4</ele>
        <time>2024-04-06T12:17:41Z</time>
      </trkpt>
      <trkpt lat="49.89846" lon="4.63064">
        <ele>385.6</ele>
        <time>2024-04-06T12:17:42Z</time>
      </trkpt>
      <trkpt lat="49.8985" lon="4.63069">
        <ele>386</ele>
        <time>2024-04-06T12:17:43Z</time>
      </trkpt>
      <trkpt lat="49.89853" lon="4.63073">
        <ele>386.2</ele>
        <time>2024-04-06T12:17:44Z</time>
      </trkpt>
      <trkpt lat="49.89857" lon="4.63078">
        <ele>386.2</ele>
        <time>2024-04-06T12:17:45Z</time>
      </trkpt>
      <trkpt lat="49.89861" lon="4.63083">
        <ele>386.6</ele>
        <time>2024-04-06T12:17:46Z</time>
      </trkpt>
      <trkpt lat="49.89865" lon="4.63088">
        <ele>386.8</ele>
        <time>2024-04-06T12:17:47Z</time>
      </trkpt>
      <trkpt lat="49.89868" lon="4.63092">
        <ele>386.8</ele>
        <time>2024-04-06T12:17:48Z</time>
      </trkpt>
      <trkpt lat="49.89872" lon="4.63097">
        <ele>387.2</ele>
        <time>2024-04-06T12:17:49Z</time>
      </trkpt>
      <trkpt lat="49.89876" lon="4.63102">
        <ele>387</ele>
        <time>2024-04-06T12:17:50Z</time>
      </trkpt>
      <trkpt lat="49.89879" lon="4.63106">
        <ele>387.2</ele>
        <time>2024-04-06T12:17:51Z</time>
      </trkpt>
      <trkpt lat="49.89883" lon="4.63111">
        <ele>387.2</ele>
        <time>2024-04-06T12:17:52Z</time>
      </trkpt>
      <trkpt lat="49.89887" lon="4.63116">
        <ele>387.4</ele>
        <time>2024-04-06T12:17:53Z</time>
      </trkpt>
      <trkpt lat="49.89891" lon="4.6312">
        <ele>387.6</ele>
        <time>2024-04-06T12:17:54Z</time>
      </trkpt>
      <trkpt lat="49.89894" lon="4.63125">
        <ele>387.8</ele>
        <time>2024-04-06T12:17:55Z</time>
      </trkpt>
      <trkpt lat="49.89898" lon="4.6313">
        <ele>387.8</ele>
        <time>2024-04-06T12:17:56Z</time>
      </trkpt>
      <trkpt lat="49.89902" lon="4.63135">
        <ele>388.2</ele>
        <time>2024-04-06T12:17:57Z</time>
      </trkpt>
      <trkpt lat="49.89905" lon="4.63139">
        <ele>388.2</ele>
        <time>2024-04-06T12:17:58Z</time>
      </trkpt>
      <trkpt lat="49.89909" lon="4.63144">
        <ele>388.4</ele>
        <time>2024-04-06T12:17:59Z</time>
      </trkpt>
      <trkpt lat="49.89913" lon="4.63149">
        <ele>388.6</ele>
        <time>2024-04-06T12:18:00Z</time>
      </trkpt>
      <trkpt lat="49.89917" lon="4.63153">
        <ele>388.6</ele>
        <time>2024-04-06T12:18:01Z</time>
      </trkpt>
      <trkpt lat="49.8992" lon="4.63158">
        <ele>388.8</ele>
        <time>2024-04-06T12:18:02Z</time>
      </trkpt>
      <trkpt lat="49.89924" lon="4.63163">
        <ele>389</ele>
        <time>2024-04-06T12:18:03Z</time>
      </trkpt>
      <trkpt lat="49.89928" lon="4.63168">
        <ele>389.2</ele>
        <time>2024-04-06T12:18:04Z</time>
      </trkpt>
      <trkpt lat="49.89932" lon="4.63172">
        <ele>389.2</ele>
        <time>2024-04-06T12:18:05Z</time>
      </trkpt>
      <trkpt lat="49.89936" lon="4.63177">
        <ele>389.4</ele>
        <time>2024-04-06T12:18:06Z</time>
      </trkpt>
      <trkpt lat="49.89939" lon="4.63182">
        <ele>389.6</ele>
        <time>2024-04-06T12:18:07Z</time>
      </trkpt>
      <trkpt lat="49.89943" lon="4.63187">
        <ele>389.4</ele>
        <time>2024-04-06T12:18:08Z</time>
      </trkpt>
      <trkpt lat="49.89947" lon="4.63192">
        <ele>389.6</ele>
        <time>2024-04-06T12:18:09Z</time>
      </trkpt>
      <trkpt lat="49.89951" lon="4.63197">
        <ele>389.8</ele>
        <time>2024-04-06T12:18:10Z</time>
      </trkpt>
      <trkpt lat="49.89955" lon="4.63202">
        <ele>389.8</ele>
        <time>2024-04-06T12:18:11Z</time>
      </trkpt>
      <trkpt lat="49.89959" lon="4.63206">
        <ele>390</ele>
        <time>2024-04-06T12:18:12Z</time>
      </trkpt>
      <trkpt lat="49.89963" lon="4.63211">
        <ele>390.4</ele>
        <time>2024-04-06T12:18:13Z</time>
      </trkpt>
      <trkpt lat="49.89967" lon="4.63216">
        <ele>390.6</ele>
        <time>2024-04-06T12:18:14Z</time>
      </trkpt>
      <trkpt lat="49.8997" lon="4.63221">
        <ele>390.6</ele>
        <time>2024-04-06T12:18:15Z</time>
      </trkpt>
      <trkpt lat="49.89974" lon="4.63226">
        <ele>390.8</ele>
        <time>2024-04-06T12:18:16Z</time>
      </trkpt>
      <trkpt lat="49.89978" lon="4.6323">
        <ele>390.8</ele>
        <time>2024-04-06T12:18:17Z</time>
      </trkpt>
      <trkpt lat="49.89981" lon="4.63235">
        <ele>391</ele>
        <time>2024-04-06T12:18:18Z</time>
      </trkpt>
      <trkpt lat="49.89985" lon="4.6324">
        <ele>391.2</ele>
        <time>2024-04-06T12:18:19Z</time>
      </trkpt>
      <trkpt lat="49.89989" lon="4.63244">
        <ele>391.4</ele>
        <time>2024-04-06T12:18:20Z</time>
      </trkpt>
      <trkpt lat="49.89992" lon="4.63249">
        <ele>391.4</ele>
        <time>2024-04-06T12:18:21Z</time>
      </trkpt>
      <trkpt lat="49.89996" lon="4.63253">
        <ele>391.8</ele>
        <time>2024-04-06T12:18:22Z</time>
      </trkpt>
      <trkpt lat="49.9" lon="4.63258">
        <ele>391.8</ele>
        <time>2024-04-06T12:18:23Z</time>
      </trkpt>
      <trkpt lat="49.90003" lon="4.63262">
        <ele>392</ele>
        <time>2024-04-06T12:18:24Z</time>
      </trkpt>
      <trkpt lat="49.90007" lon="4.63267">
        <ele>392.2</ele>
        <time>2024-04-06T12:18:25Z</time>
      </trkpt>
      <trkpt lat="49.9001" lon="4.63271">
        <ele>392.2</ele>
        <time>2024-04-06T12:18:26Z</time>
      </trkpt>
      <trkpt lat="49.90014" lon="4.63276">
        <ele>392.2</ele>
        <time>2024-04-06T12:18:27Z</time>
      </trkpt>
      <trkpt lat="49.90017" lon="4.6328">
        <ele>392.4</ele>
        <time>2024-04-06T12:18:28Z</time>
      </trkpt>
      <trkpt lat="49.90021" lon="4.63285">
        <ele>392.6</ele>
        <time>2024-04-06T12:18:29Z</time>
      </trkpt>
      <trkpt lat="49.90024" lon="4.63289">
        <ele>392.6</ele>
        <time>2024-04-06T12:18:30Z</time>
      </trkpt>
      <trkpt lat="49.90028" lon="4.63294">
        <ele>392.6</ele>
        <time>2024-04-06T12:18:31Z</time>
      </trkpt>
      <trkpt lat="49.90032" lon="4.63298">
        <ele>392.6</ele>
        <time>2024-04-06T12:18:32Z</time>
      </trkpt>
      <trkpt lat="49.90035" lon="4.63303">
        <ele>392.8</ele>
        <time>2024-04-06T12:18:33Z</time>
      </trkpt>
      <trkpt lat="49.90039" lon="4.63308">
        <ele>393</ele>
        <time>2024-04-06T12:18:34Z</time>
      </trkpt>
      <trkpt lat="49.90043" lon="4.63312">
        <ele>393.2</ele>
        <time>2024-04-06T12:18:35Z</time>
      </trkpt>
      <trkpt lat="49.90047" lon="4.63317">
        <ele>393.4</ele>
        <time>2024-04-06T12:18:36Z</time>
      </trkpt>
      <trkpt lat="49.90051" lon="4.63322">
        <ele>393.4</ele>
        <time>2024-04-06T12:18:37Z</time>
      </trkpt>
      <trkpt lat="49.90054" lon="4.63327">
        <ele>393.6</ele>
        <time>2024-04-06T12:18:38Z</time>
      </trkpt>
      <trkpt lat="49.90058" lon="4.63331">
        <ele>393.6</ele>
        <time>2024-04-06T12:18:39Z</time>
      </trkpt>
      <trkpt lat="49.90062" lon="4.63336">
        <ele>393.8</ele>
        <time>2024-04-06T12:18:40Z</time>
      </trkpt>
      <trkpt lat="49.90065" lon="4.6334">
        <ele>393.6</ele>
        <time>2024-04-06T12:18:41Z</time>
      </trkpt>
      <trkpt lat="49.90069" lon="4.63345">
        <ele>393.8</ele>
        <time>2024-04-06T12:18:42Z</time>
      </trkpt>
      <trkpt lat="49.90073" lon="4.6335">
        <ele>393.8</ele>
        <time>2024-04-06T12:18:43Z</time>
      </trkpt>
      <trkpt lat="49.90076" lon="4.63354">
        <ele>394</ele>
        <time>2024-04-06T12:18:44Z</time>
      </trkpt>
      <trkpt lat="49.9008" lon="4.63359">
        <ele>394</ele>
        <time>2024-04-06T12:18:45Z</time>
      </trkpt>
      <trkpt lat="49.90084" lon="4.63364">
        <ele>394</ele>
        <time>2024-04-06T12:18:46Z</time>
      </trkpt>
      <trkpt lat="49.90088" lon="4.63369">
        <ele>394.2</ele>
        <time>2024-04-06T12:18:47Z</time>
      </trkpt>
      <trkpt lat="49.90093" lon="4.63374">
        <ele>394.2</ele>
        <time>2024-04-06T12:18:48Z</time>
      </trkpt>
      <trkpt lat="49.90097" lon="4.6338">
        <ele>394.2</ele>
        <time>2024-04-06T12:18:49Z</time>
      </trkpt>
      <trkpt lat="49.90101" lon="4.63385">
        <ele>394.4</ele>
        <time>2024-04-06T12:18:50Z</time>
      </trkpt>
      <trkpt lat="49.90106" lon="4.63391">
        <ele>394.4</ele>
        <time>2024-04-06T12:18:51Z</time>
      </trkpt>
      <trkpt lat="49.9011" lon="4.63397">
        <ele>394.4</ele>
        <time>2024-04-06T12:18:52Z</time>
      </trkpt>
      <trkpt lat="49.90115" lon="4.63403">
        <ele>394.4</ele>
        <time>2024-04-06T12:18:53Z</time>
      </trkpt>
      <trkpt lat="49.9012" lon="4.63409">
        <ele>394.4</ele>
        <time>2024-04-06T12:18:54Z</time>
      </trkpt>
      <trkpt lat="49.90124" lon="4.63415">
        <ele>394.4</ele>
        <time>2024-04-06T12:18:55Z</time>
      </trkpt>
      <trkpt lat="49.90129" lon="4.63421">
        <ele>394.4</ele>
        <time>2024-04-06T12:18:56Z</time>
      </trkpt>
      <trkpt lat="49.90134" lon="4.63427">
        <ele>394.4</ele>
        <time>2024-04-06T12:18:57Z</time>
      </trkpt>
      <trkpt lat="49.90139" lon="4.63433">
        <ele>394.4</ele>
        <time>2024-04-06T12:18:58Z</time>
      </trkpt>
      <trkpt lat="49.90144" lon="4.6344">
        <ele>394.6</ele>
        <time>2024-04-06T12:18:59Z</time>
      </trkpt>
      <trkpt lat="49.90148" lon="4.63446">
        <ele>394.4</ele>
        <time>2024-04-06T12:19:00Z</time>
      </trkpt>
      <trkpt lat="49.90153" lon="4.63452">
        <ele>394.4</ele>
        <time>2024-04-06T12:19:01Z</time>
      </trkpt>
      <trkpt lat="49.90158" lon="4.63458">
        <ele>394.4</ele>
        <time>2024-04-06T12:19:02Z</time>
      </trkpt>
      <trkpt lat="49.90164" lon="4.63465">
        <ele>394.2</ele>
        <time>2024-04-06T12:19:03Z</time>
      </trkpt>
      <trkpt lat="49.90169" lon="4.63471">
        <ele>394</ele>
        <time>2024-04-06T12:19:04Z</time>
      </trkpt>
      <trkpt lat="49.90174" lon="4.63478">
        <ele>393.8</ele>
        <time>2024-04-06T12:19:05Z</time>
      </trkpt>
      <trkpt lat="49.90179" lon="4.63485">
        <ele>393.8</ele>
        <time>2024-04-06T12:19:06Z</time>
      </trkpt>
      <trkpt lat="49.90185" lon="4.63492">
        <ele>393.6</ele>
        <time>2024-04-06T12:19:07Z</time>
      </trkpt>
      <trkpt lat="49.9019" lon="4.63499">
        <ele>393.6</ele>
        <time>2024-04-06T12:19:08Z</time>
      </trkpt>
      <trkpt lat="49.90196" lon="4.63506">
        <ele>393.4</ele>
        <time>2024-04-06T12:19:09Z</time>
      </trkpt>
      <trkpt lat="49.90202" lon="4.63513">
        <ele>393.4</ele>
        <time>2024-04-06T12:19:10Z</time>
      </trkpt>
      <trkpt lat="49.90208" lon="4.63521">
        <ele>393.2</ele>
        <time>2024-04-06T12:19:11Z</time>
      </trkpt>
      <trkpt lat="49.90214" lon="4.63529">
        <ele>393.2</ele>
        <time>2024-04-06T12:19:12Z</time>
      </trkpt>
      <trkpt lat="49.90221" lon="4.63537">
        <ele>393</ele>
        <time>2024-04-06T12:19:13Z</time>
      </trkpt>
      <trkpt lat="49.90227" lon="4.63546">
        <ele>392.6</ele>
        <time>2024-04-06T12:19:14Z</time>
      </trkpt>
      <trkpt lat="49.90233" lon="4.63554">
        <ele>392.2</ele>
        <time>2024-04-06T12:19:15Z</time>
      </trkpt>
      <trkpt lat="49.9024" lon="4.63563">
        <ele>392</ele>
        <time>2024-04-06T12:19:16Z</time>
      </trkpt>
      <trkpt lat="49.90247" lon="4.63572">
        <ele>392</ele>
        <time>2024-04-06T12:19:17Z</time>
      </trkpt>
      <trkpt lat="49.90255" lon="4.63581">
        <ele>391.8</ele>
        <time>2024-04-06T12:19:18Z</time>
      </trkpt>
      <trkpt lat="49.90262" lon="4.6359">
        <ele>391</ele>
        <time>2024-04-06T12:19:19Z</time>
      </trkpt>
      <trkpt lat="49.90269" lon="4.636">
        <ele>391</ele>
        <time>2024-04-06T12:19:20Z</time>
      </trkpt>
      <trkpt lat="49.90277" lon="4.6361">
        <ele>390.4</ele>
        <time>2024-04-06T12:19:21Z</time>
      </trkpt>
      <trkpt lat="49.90285" lon="4.6362">
        <ele>390</ele>
        <time>2024-04-06T12:19:22Z</time>
      </trkpt>
      <trkpt lat="49.90293" lon="4.6363">
        <ele>389</ele>
        <time>2024-04-06T12:19:23Z</time>
      </trkpt>
      <trkpt lat="49.90302" lon="4.63641">
        <ele>388</ele>
        <time>2024-04-06T12:19:24Z</time>
      </trkpt>
      <trkpt lat="49.9031" lon="4.63652">
        <ele>387.4</ele>
        <time>2024-04-06T12:19:25Z</time>
      </trkpt>
      <trkpt lat="49.90319" lon="4.63663">
        <ele>387.2</ele>
        <time>2024-04-06T12:19:26Z</time>
      </trkpt>
      <trkpt lat="49.90328" lon="4.63674">
        <ele>386.6</ele>
        <time>2024-04-06T12:19:27Z</time>
      </trkpt>
      <trkpt lat="49.90337" lon="4.63685">
        <ele>386.2</ele>
        <time>2024-04-06T12:19:28Z</time>
      </trkpt>
      <trkpt lat="49.90346" lon="4.63697">
        <ele>385.6</ele>
        <time>2024-04-06T12:19:29Z</time>
      </trkpt>
      <trkpt lat="49.90355" lon="4.63708">
        <ele>385</ele>
        <time>2024-04-06T12:19:30Z</time>
      </trkpt>
      <trkpt lat="49.90365" lon="4.6372">
        <ele>384.8</ele>
        <time>2024-04-06T12:19:31Z</time>
      </trkpt>
      <trkpt lat="49.90374" lon="4.63732">
        <ele>384.4</ele>
        <time>2024-04-06T12:19:32Z</time>
      </trkpt>
      <trkpt lat="49.90383" lon="4.63744">
        <ele>383.8</ele>
        <time>2024-04-06T12:19:33Z</time>
      </trkpt>
      <trkpt lat="49.90393" lon="4.63756">
        <ele>383</ele>
        <time>2024-04-06T12:19:34Z</time>
      </trkpt>
      <trkpt lat="49.90404" lon="4.63769">
        <ele>381.8</ele>
        <time>2024-04-06T12:19:35Z</time>
      </trkpt>
      <trkpt lat="49.90414" lon="4.63782">
        <ele>381</ele>
        <time>2024-04-06T12:19:36Z</time>
      </trkpt>
      <trkpt lat="49.90425" lon="4.63795">
        <ele>380.4</ele>
        <time>2024-04-06T12:19:37Z</time>
      </trkpt>
      <trkpt lat="49.90435" lon="4.63809">
        <ele>379.4</ele>
        <time>2024-04-06T12:19:38Z</time>
      </trkpt>
      <trkpt lat="49.90446" lon="4.63822">
        <ele>377.8</ele>
        <time>2024-04-06T12:19:39Z</time>
      </trkpt>
      <trkpt lat="49.90458" lon="4.63836">
        <ele>376.2</ele>
        <time>2024-04-06T12:19:40Z</time>
      </trkpt>
      <trkpt lat="49.90469" lon="4.63849">
        <ele>375.2</ele>
        <time>2024-04-06T12:19:41Z</time>
      </trkpt>
      <trkpt lat="49.90481" lon="4.63861">
        <ele>375</ele>
        <time>2024-04-06T12:19:42Z</time>
      </trkpt>
      <trkpt lat="49.90494" lon="4.63872">
        <ele>374.4</ele>
        <time>2024-04-06T12:19:43Z</time>
      </trkpt>
      <trkpt lat="49.90507" lon="4.63881">
        <ele>373.6</ele>
        <time>2024-04-06T12:19:44Z</time>
      </trkpt>
      <trkpt lat="49.90521" lon="4.63888">
        <ele>372.6</ele>
        <time>2024-04-06T12:19:45Z</time>
      </trkpt>
      <trkpt lat="49.90536" lon="4.63894">
        <ele>372.6</ele>
        <time>2024-04-06T12:19:46Z</time>
      </trkpt>
      <trkpt lat="49.9055" lon="4.63899">
        <ele>372</ele>
        <time>2024-04-06T12:19:47Z</time>
      </trkpt>
      <trkpt lat="49.90565" lon="4.63901">
        <ele>371.4</ele>
        <time>2024-04-06T12:19:48Z</time>
      </trkpt>
      <trkpt lat="49.90581" lon="4.63902">
        <ele>369.8</ele>
        <time>2024-04-06T12:19:49Z</time>
      </trkpt>
      <trkpt lat="49.90596" lon="4.63902">
        <ele>368.2</ele>
        <time>2024-04-06T12:19:50Z</time>
      </trkpt>
      <trkpt lat="49.90612" lon="4.63902">
        <ele>367</ele>
        <time>2024-04-06T12:19:51Z</time>
      </trkpt>
      <trkpt lat="49.90627" lon="4.63902">
        <ele>366</ele>
        <time>2024-04-06T12:19:52Z</time>
      </trkpt>
      <trkpt lat="49.90643" lon="4.63903">
        <ele>364.4</ele>
        <time>2024-04-06T12:19:53Z</time>
      </trkpt>
      <trkpt lat="49.90659" lon="4.63902">
        <ele>363</ele>
        <time>2024-04-06T12:19:54Z</time>
      </trkpt>
      <trkpt lat="49.90674" lon="4.63902">
        <ele>361.6</ele>
        <time>2024-04-06T12:19:55Z</time>
      </trkpt>
      <trkpt lat="49.90689" lon="4.639">
        <ele>360.2</ele>
        <time>2024-04-06T12:19:56Z</time>
      </trkpt>
      <trkpt lat="49.90705" lon="4.63898">
        <ele>359.4</ele>
        <time>2024-04-06T12:19:57Z</time>
      </trkpt>
      <trkpt lat="49.9072" lon="4.63896">
        <ele>359</ele>
        <time>2024-04-06T12:19:58Z</time>
      </trkpt>
      <trkpt lat="49.90735" lon="4.63893">
        <ele>357.8</ele>
        <time>2024-04-06T12:19:59Z</time>
      </trkpt>
      <trkpt lat="49.9075" lon="4.6389">
        <ele>356.8</ele>
        <time>2024-04-06T12:20:00Z</time>
      </trkpt>
      <trkpt lat="49.90766" lon="4.63886">
        <ele>355.8</ele>
        <time>2024-04-06T12:20:01Z</time>
      </trkpt>
      <trkpt lat="49.90781" lon="4.63882">
        <ele>354.2</ele>
        <time>2024-04-06T12:20:02Z</time>
      </trkpt>
      <trkpt lat="49.90797" lon="4.63878">
        <ele>353</ele>
        <time>2024-04-06T12:20:03Z</time>
      </trkpt>
      <trkpt lat="49.90813" lon="4.63878">
        <ele>352</ele>
        <time>2024-04-06T12:20:04Z</time>
      </trkpt>
      <trkpt lat="49.90827" lon="4.63881">
        <ele>351.2</ele>
        <time>2024-04-06T12:20:05Z</time>
      </trkpt>
      <trkpt lat="49.90841" lon="4.63887">
        <ele>351.2</ele>
        <time>2024-04-06T12:20:06Z</time>
      </trkpt>
      <trkpt lat="49.90855" lon="4.63895">
        <ele>350.6</ele>
        <time>2024-04-06T12:20:07Z</time>
      </trkpt>
      <trkpt lat="49.90869" lon="4.63904">
        <ele>349.8</ele>
        <time>2024-04-06T12:20:08Z</time>
      </trkpt>
      <trkpt lat="49.90883" lon="4.63913">
        <ele>349.2</ele>
        <time>2024-04-06T12:20:09Z</time>
      </trkpt>
      <trkpt lat="49.90898" lon="4.63919">
        <ele>347.6</ele>
        <time>2024-04-06T12:20:10Z</time>
      </trkpt>
      <trkpt lat="49.90914" lon="4.63922">
        <ele>346.4</ele>
        <time>2024-04-06T12:20:11Z</time>
      </trkpt>
      <trkpt lat="49.90929" lon="4.63923">
        <ele>344.8</ele>
        <time>2024-04-06T12:20:12Z</time>
      </trkpt>
      <trkpt lat="49.90944" lon="4.63922">
        <ele>343.2</ele>
        <time>2024-04-06T12:20:13Z</time>
      </trkpt>
      <trkpt lat="49.9096" lon="4.63921">
        <ele>341.8</ele>
        <time>2024-04-06T12:20:14Z</time>
      </trkpt>
      <trkpt lat="49.90975" lon="4.63924">
        <ele>340.2</ele>
        <time>2024-04-06T12:20:15Z</time>
      </trkpt>
      <trkpt lat="49.90989" lon="4.6393">
        <ele>339.4</ele>
        <time>2024-04-06T12:20:16Z</time>
      </trkpt>
      <trkpt lat="49.91002" lon="4.6394">
        <ele>338.8</ele>
        <time>2024-04-06T12:20:17Z</time>
      </trkpt>
      <trkpt lat="49.91014" lon="4.63952">
        <ele>338.6</ele>
        <time>2024-04-06T12:20:18Z</time>
      </trkpt>
      <trkpt lat="49.91026" lon="4.63965">
        <ele>337.4</ele>
        <time>2024-04-06T12:20:19Z</time>
      </trkpt>
      <trkpt lat="49.91039" lon="4.63977">
        <ele>336.2</ele>
        <time>2024-04-06T12:20:20Z</time>
      </trkpt>
      <trkpt lat="49.91052" lon="4.63986">
        <ele>335.6</ele>
        <time>2024-04-06T12:20:21Z</time>
      </trkpt>
      <trkpt lat="49.91066" lon="4.63992">
        <ele>335</ele>
        <time>2024-04-06T12:20:22Z</time>
      </trkpt>
      <trkpt lat="49.9108" lon="4.63995">
        <ele>334</ele>
        <time>2024-04-06T12:20:23Z</time>
      </trkpt>
      <trkpt lat="49.91094" lon="4.63996">
        <ele>333</ele>
        <time>2024-04-06T12:20:24Z</time>
      </trkpt>
      <trkpt lat="49.91109" lon="4.63998">
        <ele>331.8</ele>
        <time>2024-04-06T12:20:25Z</time>
      </trkpt>
      <trkpt lat="49.91124" lon="4.64002">
        <ele>331.8</ele>
        <time>2024-04-06T12:20:26Z</time>
      </trkpt>
      <trkpt lat="49.91138" lon="4.64009">
        <ele>331.2</ele>
        <time>2024-04-06T12:20:27Z</time>
      </trkpt>
      <trkpt lat="49.91151" lon="4.64021">
        <ele>330</ele>
        <time>2024-04-06T12:20:28Z</time>
      </trkpt>
      <trkpt lat="49.91163" lon="4.64035">
        <ele>329</ele>
        <time>2024-04-06T12:20:29Z</time>
      </trkpt>
      <trkpt lat="49.91172" lon="4.64053">
        <ele>328.2</ele>
        <time>2024-04-06T12:20:30Z</time>
      </trkpt>
      <trkpt lat="49.91181" lon="4.64072">
        <ele>327.8</ele>
        <time>2024-04-06T12:20:31Z</time>
      </trkpt>
      <trkpt lat="49.9119" lon="4.6409">
        <ele>327.2</ele>
        <time>2024-04-06T12:20:32Z</time>
      </trkpt>
      <trkpt lat="49.91199" lon="4.64107">
        <ele>326.6</ele>
        <time>2024-04-06T12:20:33Z</time>
      </trkpt>
      <trkpt lat="49.9121" lon="4.64122">
        <ele>326.2</ele>
        <time>2024-04-06T12:20:34Z</time>
      </trkpt>
      <trkpt lat="49.91223" lon="4.64135">
        <ele>325.6</ele>
        <time>2024-04-06T12:20:35Z</time>
      </trkpt>
      <trkpt lat="49.91235" lon="4.64147">
        <ele>324.8</ele>
        <time>2024-04-06T12:20:36Z</time>
      </trkpt>
      <trkpt lat="49.91248" lon="4.64159">
        <ele>323.4</ele>
        <time>2024-04-06T12:20:37Z</time>
      </trkpt>
      <trkpt lat="49.91261" lon="4.64171">
        <ele>322.2</ele>
        <time>2024-04-06T12:20:38Z</time>
      </trkpt>
      <trkpt lat="49.91273" lon="4.64185">
        <ele>321</ele>
        <time>2024-04-06T12:20:39Z</time>
      </trkpt>
      <trkpt lat="49.91284" lon="4.64201">
        <ele>320</ele>
        <time>2024-04-06T12:20:40Z</time>
      </trkpt>
      <trkpt lat="49.91292" lon="4.6422">
        <ele>318.8</ele>
        <time>2024-04-06T12:20:41Z</time>
      </trkpt>
      <trkpt lat="49.91298" lon="4.64242">
        <ele>318.2</ele>
        <time>2024-04-06T12:20:42Z</time>
      </trkpt>
      <trkpt lat="49.91303" lon="4.64265">
        <ele>317.4</ele>
        <time>2024-04-06T12:20:43Z</time>
      </trkpt>
      <trkpt lat="49.91306" lon="4.64288">
        <ele>316.8</ele>
        <time>2024-04-06T12:20:44Z</time>
      </trkpt>
      <trkpt lat="49.9131" lon="4.6431">
        <ele>315.8</ele>
        <time>2024-04-06T12:20:45Z</time>
      </trkpt>
      <trkpt lat="49.91314" lon="4.64333">
        <ele>314.6</ele>
        <time>2024-04-06T12:20:46Z</time>
      </trkpt>
      <trkpt lat="49.91318" lon="4.64355">
        <ele>313.8</ele>
        <time>2024-04-06T12:20:47Z</time>
      </trkpt>
      <trkpt lat="49.91324" lon="4.64377">
        <ele>313</ele>
        <time>2024-04-06T12:20:48Z</time>
      </trkpt>
      <trkpt lat="49.91329" lon="4.64398">
        <ele>311.4</ele>
        <time>2024-04-06T12:20:49Z</time>
      </trkpt>
      <trkpt lat="49.91335" lon="4.64419">
        <ele>309.6</ele>
        <time>2024-04-06T12:20:50Z</time>
      </trkpt>
      <trkpt lat="49.91342" lon="4.6444">
        <ele>308</ele>
        <time>2024-04-06T12:20:51Z</time>
      </trkpt>
      <trkpt lat="49.91348" lon="4.64461">
        <ele>307</ele>
        <time>2024-04-06T12:20:52Z</time>
      </trkpt>
      <trkpt lat="49.91355" lon="4.64481">
        <ele>306</ele>
        <time>2024-04-06T12:20:53Z</time>
      </trkpt>
      <trkpt lat="49.91362" lon="4.64501">
        <ele>306</ele>
        <time>2024-04-06T12:20:54Z</time>
      </trkpt>
      <trkpt lat="49.91369" lon="4.64521">
        <ele>304.6</ele>
        <time>2024-04-06T12:20:55Z</time>
      </trkpt>
      <trkpt lat="49.91376" lon="4.64541">
        <ele>303.6</ele>
        <time>2024-04-06T12:20:56Z</time>
      </trkpt>
      <trkpt lat="49.91384" lon="4.64561">
        <ele>303</ele>
        <time>2024-04-06T12:20:57Z</time>
      </trkpt>
      <trkpt lat="49.91391" lon="4.6458">
        <ele>302.6</ele>
        <time>2024-04-06T12:20:58Z</time>
      </trkpt>
      <trkpt lat="49.914" lon="4.646">
        <ele>302.4</ele>
        <time>2024-04-06T12:20:59Z</time>
      </trkpt>
      <trkpt lat="49.91408" lon="4.64619">
        <ele>302</ele>
        <time>2024-04-06T12:21:00Z</time>
      </trkpt>
      <trkpt lat="49.91416" lon="4.64639">
        <ele>301.6</ele>
        <time>2024-04-06T12:21:01Z</time>
      </trkpt>
      <trkpt lat="49.91424" lon="4.64658">
        <ele>300.8</ele>
        <time>2024-04-06T12:21:02Z</time>
      </trkpt>
      <trkpt lat="49.91432" lon="4.64677">
        <ele>300</ele>
        <time>2024-04-06T12:21:03Z</time>
      </trkpt>
      <trkpt lat="49.9144" lon="4.64697">
        <ele>299.4</ele>
        <time>2024-04-06T12:21:04Z</time>
      </trkpt>
      <trkpt lat="49.91449" lon="4.64716">
        <ele>299</ele>
        <time>2024-04-06T12:21:05Z</time>
      </trkpt>
      <trkpt lat="49.91457" lon="4.64735">
        <ele>298.6</ele>
        <time>2024-04-06T12:21:06Z</time>
      </trkpt>
      <trkpt lat="49.91466" lon="4.64754">
        <ele>298.2</ele>
        <time>2024-04-06T12:21:07Z</time>
      </trkpt>
      <trkpt lat="49.91474" lon="4.64772">
        <ele>296.8</ele>
        <time>2024-04-06T12:21:08Z</time>
      </trkpt>
      <trkpt lat="49.91484" lon="4.6479">
        <ele>294.4</ele>
        <time>2024-04-06T12:21:09Z</time>
      </trkpt>
      <trkpt lat="49.91494" lon="4.64806">
        <ele>293</ele>
        <time>2024-04-06T12:21:10Z</time>
      </trkpt>
      <trkpt lat="49.91506" lon="4.6482">
        <ele>292.4</ele>
        <time>2024-04-06T12:21:11Z</time>
      </trkpt>
      <trkpt lat="49.91518" lon="4.64831">
        <ele>290.8</ele>
        <time>2024-04-06T12:21:12Z</time>
      </trkpt>
      <trkpt lat="49.91532" lon="4.64839">
        <ele>289.2</ele>
        <time>2024-04-06T12:21:13Z</time>
      </trkpt>
      <trkpt lat="49.91546" lon="4.64845">
        <ele>287.6</ele>
        <time>2024-04-06T12:21:14Z</time>
      </trkpt>
      <trkpt lat="49.91561" lon="4.64849">
        <ele>287.6</ele>
        <time>2024-04-06T12:21:15Z</time>
      </trkpt>
      <trkpt lat="49.91576" lon="4.6485">
        <ele>286</ele>
        <time>2024-04-06T12:21:16Z</time>
      </trkpt>
      <trkpt lat="49.91591" lon="4.64851">
        <ele>285</ele>
        <time>2024-04-06T12:21:17Z</time>
      </trkpt>
      <trkpt lat="49.91605" lon="4.64851">
        <ele>284.4</ele>
        <time>2024-04-06T12:21:18Z</time>
      </trkpt>
      <trkpt lat="49.9162" lon="4.64851">
        <ele>284</ele>
        <time>2024-04-06T12:21:19Z</time>
      </trkpt>
      <trkpt lat="49.91635" lon="4.64851">
        <ele>283.2</ele>
        <time>2024-04-06T12:21:20Z</time>
      </trkpt>
      <trkpt lat="49.9165" lon="4.64852">
        <ele>282.6</ele>
        <time>2024-04-06T12:21:21Z</time>
      </trkpt>
      <trkpt lat="49.91665" lon="4.64853">
        <ele>282.2</ele>
        <time>2024-04-06T12:21:22Z</time>
      </trkpt>
      <trkpt lat="49.91681" lon="4.64855">
        <ele>281.6</ele>
        <time>2024-04-06T12:21:23Z</time>
      </trkpt>
      <trkpt lat="49.91696" lon="4.64858">
        <ele>280.8</ele>
        <time>2024-04-06T12:21:24Z</time>
      </trkpt>
      <trkpt lat="49.91711" lon="4.6486">
        <ele>280</ele>
        <time>2024-04-06T12:21:25Z</time>
      </trkpt>
      <trkpt lat="49.91726" lon="4.64862">
        <ele>279</ele>
        <time>2024-04-06T12:21:26Z</time>
      </trkpt>
      <trkpt lat="49.91742" lon="4.64864">
        <ele>278</ele>
        <time>2024-04-06T12:21:27Z</time>
      </trkpt>
      <trkpt lat="49.91757" lon="4.64865">
        <ele>276.8</ele>
        <time>2024-04-06T12:21:28Z</time>
      </trkpt>
      <trkpt lat="49.91772" lon="4.64864">
        <ele>275.4</ele>
        <time>2024-04-06T12:21:29Z</time>
      </trkpt>
      <trkpt lat="49.91787" lon="4.64859">
        <ele>274.8</ele>
        <time>2024-04-06T12:21:30Z</time>
      </trkpt>
      <trkpt lat="49.91802" lon="4.64851">
        <ele>274.2</ele>
        <time>2024-04-06T12:21:31Z</time>
      </trkpt>
      <trkpt lat="49.91817" lon="4.64841">
        <ele>273</ele>
        <time>2024-04-06T12:21:32Z</time>
      </trkpt>
      <trkpt lat="49.91831" lon="4.64828">
        <ele>272.2</ele>
        <time>2024-04-06T12:21:33Z</time>
      </trkpt>
      <trkpt lat="49.91844" lon="4.64814">
        <ele>272.2</ele>
        <time>2024-04-06T12:21:34Z</time>
      </trkpt>
      <trkpt lat="49.91857" lon="4.64797">
        <ele>271.4</ele>
        <time>2024-04-06T12:21:35Z</time>
      </trkpt>
      <trkpt lat="49.91869" lon="4.64781">
        <ele>270.2</ele>
        <time>2024-04-06T12:21:36Z</time>
      </trkpt>
      <trkpt lat="49.91881" lon="4.64765">
        <ele>269.2</ele>
        <time>2024-04-06T12:21:37Z</time>
      </trkpt>
      <trkpt lat="49.91894" lon="4.6475">
        <ele>268.2</ele>
        <time>2024-04-06T12:21:38Z</time>
      </trkpt>
      <trkpt lat="49.91906" lon="4.64735">
        <ele>267.2</ele>
        <time>2024-04-06T12:21:39Z</time>
      </trkpt>
      <trkpt lat="49.91919" lon="4.64721">
        <ele>266.4</ele>
        <time>2024-04-06T12:21:40Z</time>
      </trkpt>
      <trkpt lat="49.91932" lon="4.64705">
        <ele>265.4</ele>
        <time>2024-04-06T12:21:41Z</time>
      </trkpt>
      <trkpt lat="49.91944" lon="4.64689">
        <ele>264</ele>
        <time>2024-04-06T12:21:42Z</time>
      </trkpt>
      <trkpt lat="49.91955" lon="4.64671">
        <ele>262.6</ele>
        <time>2024-04-06T12:21:43Z</time>
      </trkpt>
      <trkpt lat="49.91966" lon="4.64652">
        <ele>261</ele>
        <time>2024-04-06T12:21:44Z</time>
      </trkpt>
      <trkpt lat="49.91977" lon="4.64633">
        <ele>259.8</ele>
        <time>2024-04-06T12:21:45Z</time>
      </trkpt>
      <trkpt lat="49.91988" lon="4.64616">
        <ele>258</ele>
        <time>2024-04-06T12:21:46Z</time>
      </trkpt>
      <trkpt lat="49.92" lon="4.64599">
        <ele>256.2</ele>
        <time>2024-04-06T12:21:47Z</time>
      </trkpt>
      <trkpt lat="49.92013" lon="4.64585">
        <ele>255.2</ele>
        <time>2024-04-06T12:21:48Z</time>
      </trkpt>
      <trkpt lat="49.92026" lon="4.64572">
        <ele>254.6</ele>
        <time>2024-04-06T12:21:49Z</time>
      </trkpt>
      <trkpt lat="49.92041" lon="4.64561">
        <ele>253.8</ele>
        <time>2024-04-06T12:21:50Z</time>
      </trkpt>
      <trkpt lat="49.92056" lon="4.64552">
        <ele>252.6</ele>
        <time>2024-04-06T12:21:51Z</time>
      </trkpt>
      <trkpt lat="49.92071" lon="4.64543">
        <ele>250.8</ele>
        <time>2024-04-06T12:21:52Z</time>
      </trkpt>
      <trkpt lat="49.92086" lon="4.64536">
        <ele>249.2</ele>
        <time>2024-04-06T12:21:53Z</time>
      </trkpt>
      <trkpt lat="49.92101" lon="4.6453">
        <ele>247.6</ele>
        <time>2024-04-06T12:21:54Z</time>
      </trkpt>
      <trkpt lat="49.92116" lon="4.64524">
        <ele>246.4</ele>
        <time>2024-04-06T12:21:55Z</time>
      </trkpt>
      <trkpt lat="49.92131" lon="4.64519">
        <ele>245.2</ele>
        <time>2024-04-06T12:21:56Z</time>
      </trkpt>
      <trkpt lat="49.92145" lon="4.64513">
        <ele>244.2</ele>
        <time>2024-04-06T12:21:57Z</time>
      </trkpt>
      <trkpt lat="49.9216" lon="4.64508">
        <ele>244.2</ele>
        <time>2024-04-06T12:21:58Z</time>
      </trkpt>
      <trkpt lat="49.92175" lon="4.64503">
        <ele>243.2</ele>
        <time>2024-04-06T12:21:59Z</time>
      </trkpt>
      <trkpt lat="49.9219" lon="4.64499">
        <ele>242</ele>
        <time>2024-04-06T12:22:00Z</time>
      </trkpt>
      <trkpt lat="49.92205" lon="4.64495">
        <ele>240.6</ele>
        <time>2024-04-06T12:22:01Z</time>
      </trkpt>
      <trkpt lat="49.92221" lon="4.64494">
        <ele>239.6</ele>
        <time>2024-04-06T12:22:02Z</time>
      </trkpt>
      <trkpt lat="49.92236" lon="4.64493">
        <ele>239</ele>
        <time>2024-04-06T12:22:03Z</time>
      </trkpt>
      <trkpt lat="49.92252" lon="4.64492">
        <ele>238.2</ele>
        <time>2024-04-06T12:22:04Z</time>
      </trkpt>
      <trkpt lat="49.92267" lon="4.64492">
        <ele>237.2</ele>
        <time>2024-04-06T12:22:05Z</time>
      </trkpt>
      <trkpt lat="49.92282" lon="4.64491">
        <ele>235.8</ele>
        <time>2024-04-06T12:22:06Z</time>
      </trkpt>
      <trkpt lat="49.92297" lon="4.64487">
        <ele>234.4</ele>
        <time>2024-04-06T12:22:07Z</time>
      </trkpt>
      <trkpt lat="49.92312" lon="4.6448">
        <ele>233.6</ele>
        <time>2024-04-06T12:22:08Z</time>
      </trkpt>
      <trkpt lat="49.92326" lon="4.64471">
        <ele>232.6</ele>
        <time>2024-04-06T12:22:09Z</time>
      </trkpt>
      <trkpt lat="49.92339" lon="4.6446">
        <ele>231.8</ele>
        <time>2024-04-06T12:22:10Z</time>
      </trkpt>
      <trkpt lat="49.92353" lon="4.64448">
        <ele>231.4</ele>
        <time>2024-04-06T12:22:11Z</time>
      </trkpt>
      <trkpt lat="49.92365" lon="4.64433">
        <ele>230.6</ele>
        <time>2024-04-06T12:22:12Z</time>
      </trkpt>
      <trkpt lat="49.92378" lon="4.64418">
        <ele>230.2</ele>
        <time>2024-04-06T12:22:13Z</time>
      </trkpt>
      <trkpt lat="49.92389" lon="4.644">
        <ele>229.2</ele>
        <time>2024-04-06T12:22:14Z</time>
      </trkpt>
      <trkpt lat="49.92398" lon="4.64381">
        <ele>228.2</ele>
        <time>2024-04-06T12:22:15Z</time>
      </trkpt>
      <trkpt lat="49.92407" lon="4.64361">
        <ele>227</ele>
        <time>2024-04-06T12:22:16Z</time>
      </trkpt>
      <trkpt lat="49.92414" lon="4.64341">
        <ele>225.2</ele>
        <time>2024-04-06T12:22:17Z</time>
      </trkpt>
      <trkpt lat="49.9242" lon="4.64321">
        <ele>224.4</ele>
        <time>2024-04-06T12:22:18Z</time>
      </trkpt>
      <trkpt lat="49.92426" lon="4.64303">
        <ele>223.8</ele>
        <time>2024-04-06T12:22:19Z</time>
      </trkpt>
      <trkpt lat="49.92434" lon="4.64285">
        <ele>223</ele>
        <time>2024-04-06T12:22:20Z</time>
      </trkpt>
      <trkpt lat="49.92443" lon="4.64271">
        <ele>221.6</ele>
        <time>2024-04-06T12:22:21Z</time>
      </trkpt>
      <trkpt lat="49.92453" lon="4.64261">
        <ele>221.6</ele>
        <time>2024-04-06T12:22:22Z</time>
      </trkpt>
      <trkpt lat="49.92466" lon="4.64256">
        <ele>219.4</ele>
        <time>2024-04-06T12:22:23Z</time>
      </trkpt>
      <trkpt lat="49.92478" lon="4.64257">
        <ele>217.6</ele>
        <time>2024-04-06T12:22:24Z</time>
      </trkpt>
      <trkpt lat="49.9249" lon="4.64262">
        <ele>215.8</ele>
        <time>2024-04-06T12:22:25Z</time>
      </trkpt>
      <trkpt lat="49.92501" lon="4.64268">
        <ele>214.6</ele>
        <time>2024-04-06T12:22:26Z</time>
      </trkpt>
      <trkpt lat="49.92513" lon="4.64274">
        <ele>213.8</ele>
        <time>2024-04-06T12:22:27Z</time>
      </trkpt>
      <trkpt lat="49.92525" lon="4.64276">
        <ele>213.4</ele>
        <time>2024-04-06T12:22:28Z</time>
      </trkpt>
      <trkpt lat="49.92537" lon="4.64275">
        <ele>213</ele>
        <time>2024-04-06T12:22:29Z</time>
      </trkpt>
      <trkpt lat="49.92549" lon="4.64273">
        <ele>212.8</ele>
        <time>2024-04-06T12:22:30Z</time>
      </trkpt>
      <trkpt lat="49.92561" lon="4.6427">
        <ele>212.4</ele>
        <time>2024-04-06T12:22:31Z</time>
      </trkpt>
      <trkpt lat="49.92574" lon="4.64266">
        <ele>211.6</ele>
        <time>2024-04-06T12:22:32Z</time>
      </trkpt>
      <trkpt lat="49.92587" lon="4.64261">
        <ele>210.6</ele>
        <time>2024-04-06T12:22:33Z</time>
      </trkpt>
      <trkpt lat="49.926" lon="4.64256">
        <ele>210</ele>
        <time>2024-04-06T12:22:34Z</time>
      </trkpt>
      <trkpt lat="49.92613" lon="4.64251">
        <ele>209.2</ele>
        <time>2024-04-06T12:22:35Z</time>
      </trkpt>
      <trkpt lat="49.92626" lon="4.64245">
        <ele>208.8</ele>
        <time>2024-04-06T12:22:36Z</time>
      </trkpt>
      <trkpt lat="49.92639" lon="4.6424">
        <ele>208.6</ele>
        <time>2024-04-06T12:22:37Z</time>
      </trkpt>
      <trkpt lat="49.92652" lon="4.64234">
        <ele>208.4</ele>
        <time>2024-04-06T12:22:38Z</time>
      </trkpt>
      <trkpt lat="49.92666" lon="4.64229">
        <ele>207.4</ele>
        <time>2024-04-06T12:22:39Z</time>
      </trkpt>
      <trkpt lat="49.92679" lon="4.64224">
        <ele>206.2</ele>
        <time>2024-04-06T12:22:40Z</time>
      </trkpt>
      <trkpt lat="49.92693" lon="4.64219">
        <ele>205.2</ele>
        <time>2024-04-06T12:22:41Z</time>
      </trkpt>
      <trkpt lat="49.92706" lon="4.64215">
        <ele>203.6</ele>
        <time>2024-04-06T12:22:42Z</time>
      </trkpt>
      <trkpt lat="49.9272" lon="4.64211">
        <ele>202.6</ele>
        <time>2024-04-06T12:22:43Z</time>
      </trkpt>
      <trkpt lat="49.92734" lon="4.64208">
        <ele>200.6</ele>
        <time>2024-04-06T12:22:44Z</time>
      </trkpt>
      <trkpt lat="49.92748" lon="4.64205">
        <ele>200.6</ele>
        <time>2024-04-06T12:22:45Z</time>
      </trkpt>
      <trkpt lat="49.92763" lon="4.64202">
        <ele>199.4</ele>
        <time>2024-04-06T12:22:46Z</time>
      </trkpt>
      <trkpt lat="49.92778" lon="4.64199">
        <ele>198.2</ele>
        <time>2024-04-06T12:22:47Z</time>
      </trkpt>
      <trkpt lat="49.92792" lon="4.64196">
        <ele>197.2</ele>
        <time>2024-04-06T12:22:48Z</time>
      </trkpt>
      <trkpt lat="49.92807" lon="4.64194">
        <ele>196.8</ele>
        <time>2024-04-06T12:22:49Z</time>
      </trkpt>
      <trkpt lat="49.92822" lon="4.64191">
        <ele>195.8</ele>
        <time>2024-04-06T12:22:50Z</time>
      </trkpt>
      <trkpt lat="49.92838" lon="4.64189">
        <ele>195.2</ele>
        <time>2024-04-06T12:22:51Z</time>
      </trkpt>
      <trkpt lat="49.92853" lon="4.64187">
        <ele>194.8</ele>
        <time>2024-04-06T12:22:52Z</time>
      </trkpt>
      <trkpt lat="49.92868" lon="4.64184">
        <ele>194</ele>
        <time>2024-04-06T12:22:53Z</time>
      </trkpt>
      <trkpt lat="49.92883" lon="4.6418">
        <ele>192.6</ele>
        <time>2024-04-06T12:22:54Z</time>
      </trkpt>
      <trkpt lat="49.92899" lon="4.64177">
        <ele>191.4</ele>
        <time>2024-04-06T12:22:55Z</time>
      </trkpt>
      <trkpt lat="49.92914" lon="4.64174">
        <ele>189.4</ele>
        <time>2024-04-06T12:22:56Z</time>
      </trkpt>
      <trkpt lat="49.92928" lon="4.6417">
        <ele>188.4</ele>
        <time>2024-04-06T12:22:57Z</time>
      </trkpt>
      <trkpt lat="49.92942" lon="4.64165">
        <ele>187.6</ele>
        <time>2024-04-06T12:22:58Z</time>
      </trkpt>
      <trkpt lat="49.92956" lon="4.64161">
        <ele>187.2</ele>
        <time>2024-04-06T12:22:59Z</time>
      </trkpt>
      <trkpt lat="49.9297" lon="4.64158">
        <ele>186.6</ele>
        <time>2024-04-06T12:23:00Z</time>
      </trkpt>
      <trkpt lat="49.92985" lon="4.64155">
        <ele>186</ele>
        <time>2024-04-06T12:23:01Z</time>
      </trkpt>
      <trkpt lat="49.92999" lon="4.64151">
        <ele>184.4</ele>
        <time>2024-04-06T12:23:02Z</time>
      </trkpt>
      <trkpt lat="49.93013" lon="4.64147">
        <ele>182.8</ele>
        <time>2024-04-06T12:23:03Z</time>
      </trkpt>
      <trkpt lat="49.93027" lon="4.64143">
        <ele>181.6</ele>
        <time>2024-04-06T12:23:04Z</time>
      </trkpt>
      <trkpt lat="49.9304" lon="4.64139">
        <ele>180.2</ele>
        <time>2024-04-06T12:23:05Z</time>
      </trkpt>
      <trkpt lat="49.93053" lon="4.64136">
        <ele>180.2</ele>
        <time>2024-04-06T12:23:06Z</time>
      </trkpt>
      <trkpt lat="49.93065" lon="4.64133">
        <ele>179.4</ele>
        <time>2024-04-06T12:23:07Z</time>
      </trkpt>
      <trkpt lat="49.93076" lon="4.64131">
        <ele>178.4</ele>
        <time>2024-04-06T12:23:08Z</time>
      </trkpt>
      <trkpt lat="49.93087" lon="4.64128">
        <ele>177.2</ele>
        <time>2024-04-06T12:23:09Z</time>
      </trkpt>
      <trkpt lat="49.93096" lon="4.64126">
        <ele>176.2</ele>
        <time>2024-04-06T12:23:10Z</time>
      </trkpt>
      <trkpt lat="49.93104" lon="4.64123">
        <ele>175.6</ele>
        <time>2024-04-06T12:23:11Z</time>
      </trkpt>
      <trkpt lat="49.93112" lon="4.64121">
        <ele>175</ele>
        <time>2024-04-06T12:23:12Z</time>
      </trkpt>
      <trkpt lat="49.93119" lon="4.64118">
        <ele>174.2</ele>
        <time>2024-04-06T12:23:13Z</time>
      </trkpt>
      <trkpt lat="49.93125" lon="4.64116">
        <ele>173.4</ele>
        <time>2024-04-06T12:23:14Z</time>
      </trkpt>
      <trkpt lat="49.93129" lon="4.64112">
        <ele>173</ele>
        <time>2024-04-06T12:23:15Z</time>
      </trkpt>
      <trkpt lat="49.93132" lon="4.64107">
        <ele>172.2</ele>
        <time>2024-04-06T12:23:16Z</time>
      </trkpt>
      <trkpt lat="49.93134" lon="4.641">
        <ele>171.8</ele>
        <time>2024-04-06T12:23:17Z</time>
      </trkpt>
      <trkpt lat="49.93133" lon="4.64094">
        <ele>171.4</ele>
        <time>2024-04-06T12:23:18Z</time>
      </trkpt>
      <trkpt lat="49.93131" lon="4.64089">
        <ele>171.4</ele>
        <time>2024-04-06T12:23:19Z</time>
      </trkpt>
      <trkpt lat="49.9313" lon="4.64084">
        <ele>171.2</ele>
        <time>2024-04-06T12:23:20Z</time>
      </trkpt>
      <trkpt lat="49.93129" lon="4.64078">
        <ele>171.2</ele>
        <time>2024-04-06T12:23:21Z</time>
      </trkpt>
      <trkpt lat="49.9313" lon="4.64071">
        <ele>171.2</ele>
        <time>2024-04-06T12:23:22Z</time>
      </trkpt>
      <trkpt lat="49.93131" lon="4.64065">
        <ele>171</ele>
        <time>2024-04-06T12:23:23Z</time>
      </trkpt>
      <trkpt lat="49.93131" lon="4.64057">
        <ele>171</ele>
        <time>2024-04-06T12:23:24Z</time>
      </trkpt>
      <trkpt lat="49.93132" lon="4.64049">
        <ele>171</ele>
        <time>2024-04-06T12:23:25Z</time>
      </trkpt>
      <trkpt lat="49.93133" lon="4.64041">
        <ele>170.8</ele>
        <time>2024-04-06T12:23:26Z</time>
      </trkpt>
      <trkpt lat="49.93134" lon="4.64032">
        <ele>170.8</ele>
        <time>2024-04-06T12:23:27Z</time>
      </trkpt>
      <trkpt lat="49.93134" lon="4.64022">
        <ele>170.8</ele>
        <time>2024-04-06T12:23:28Z</time>
      </trkpt>
      <trkpt lat="49.93135" lon="4.64012">
        <ele>170.8</ele>
        <time>2024-04-06T12:23:29Z</time>
      </trkpt>
      <trkpt lat="49.93135" lon="4.64002">
        <ele>170.6</ele>
        <time>2024-04-06T12:23:30Z</time>
      </trkpt>
      <trkpt lat="49.93136" lon="4.63991">
        <ele>170.4</ele>
        <time>2024-04-06T12:23:31Z</time>
      </trkpt>
      <trkpt lat="49.93137" lon="4.6398">
        <ele>170.2</ele>
        <time>2024-04-06T12:23:32Z</time>
      </trkpt>
      <trkpt lat="49.93138" lon="4.63969">
        <ele>170.2</ele>
        <time>2024-04-06T12:23:33Z</time>
      </trkpt>
      <trkpt lat="49.93139" lon="4.63957">
        <ele>169.8</ele>
        <time>2024-04-06T12:23:34Z</time>
      </trkpt>
      <trkpt lat="49.93141" lon="4.63946">
        <ele>169.6</ele>
        <time>2024-04-06T12:23:35Z</time>
      </trkpt>
      <trkpt lat="49.93142" lon="4.63934">
        <ele>169.2</ele>
        <time>2024-04-06T12:23:36Z</time>
      </trkpt>
      <trkpt lat="49.93143" lon="4.63922">
        <ele>169</ele>
        <time>2024-04-06T12:23:37Z</time>
      </trkpt>
      <trkpt lat="49.93144" lon="4.6391">
        <ele>168.8</ele>
        <time>2024-04-06T12:23:38Z</time>
      </trkpt>
      <trkpt lat="49.93145" lon="4.639">
        <ele>168.4</ele>
        <time>2024-04-06T12:23:39Z</time>
      </trkpt>
      <trkpt lat="49.93146" lon="4.6389">
        <ele>168.2</ele>
        <time>2024-04-06T12:23:40Z</time>
      </trkpt>
      <trkpt lat="49.93147" lon="4.63881">
        <ele>167.8</ele>
        <time>2024-04-06T12:23:41Z</time>
      </trkpt>
      <trkpt lat="49.93147" lon="4.63872">
        <ele>167.4</ele>
        <time>2024-04-06T12:23:42Z</time>
      </trkpt>
      <trkpt lat="49.93145" lon="4.63865">
        <ele>167</ele>
        <time>2024-04-06T12:23:43Z</time>
      </trkpt>
      <trkpt lat="49.93143" lon="4.63858">
        <ele>167</ele>
        <time>2024-04-06T12:23:44Z</time>
      </trkpt>
      <trkpt lat="49.9314" lon="4.63851">
        <ele>167</ele>
        <time>2024-04-06T12:23:45Z</time>
      </trkpt>
      <trkpt lat="49.93138" lon="4.63844">
        <ele>166.6</ele>
        <time>2024-04-06T12:23:46Z</time>
      </trkpt>
      <trkpt lat="49.93134" lon="4.63838">
        <ele>166.6</ele>
        <time>2024-04-06T12:23:47Z</time>
      </trkpt>
      <trkpt lat="49.93131" lon="4.63833">
        <ele>166.6</ele>
        <time>2024-04-06T12:23:48Z</time>
      </trkpt>
      <trkpt lat="49.93129" lon="4.63829">
        <ele>166.4</ele>
        <time>2024-04-06T12:23:49Z</time>
      </trkpt>
      <trkpt lat="49.93126" lon="4.63825">
        <ele>166.4</ele>
        <time>2024-04-06T12:23:50Z</time>
      </trkpt>
      <trkpt lat="49.93123" lon="4.6382">
        <ele>166.2</ele>
        <time>2024-04-06T12:23:51Z</time>
      </trkpt>
      <trkpt lat="49.93121" lon="4.63816">
        <ele>166.4</ele>
        <time>2024-04-06T12:23:52Z</time>
      </trkpt>
      <trkpt lat="49.93119" lon="4.63812">
        <ele>166.4</ele>
        <time>2024-04-06T12:23:53Z</time>
      </trkpt>
      <trkpt lat="49.93117" lon="4.63808">
        <ele>166.4</ele>
        <time>2024-04-06T12:23:54Z</time>
      </trkpt>
      <trkpt lat="49.93115" lon="4.63805">
        <ele>166.4</ele>
        <time>2024-04-06T12:23:55Z</time>
      </trkpt>
      <trkpt lat="49.93114" lon="4.63801">
        <ele>166.4</ele>
        <time>2024-04-06T12:23:56Z</time>
      </trkpt>
      <trkpt lat="49.93112" lon="4.63798">
        <ele>166.2</ele>
        <time>2024-04-06T12:23:57Z</time>
      </trkpt>
      <trkpt lat="49.9311" lon="4.63795">
        <ele>166.4</ele>
        <time>2024-04-06T12:23:58Z</time>
      </trkpt>
      <trkpt lat="49.93109" lon="4.63792">
        <ele>166.6</ele>
        <time>2024-04-06T12:23:59Z</time>
      </trkpt>
      <trkpt lat="49.93107" lon="4.63789">
        <ele>167</ele>
        <time>2024-04-06T12:24:00Z</time>
      </trkpt>
      <trkpt lat="49.93105" lon="4.63786">
        <ele>167.4</ele>
        <time>2024-04-06T12:24:01Z</time>
      </trkpt>
      <trkpt lat="49.93104" lon="4.63783">
        <ele>167.8</ele>
        <time>2024-04-06T12:24:02Z</time>
      </trkpt>
      <trkpt lat="49.93102" lon="4.63779">
        <ele>168.2</ele>
        <time>2024-04-06T12:24:03Z</time>
      </trkpt>
      <trkpt lat="49.931" lon="4.63775">
        <ele>168.8</ele>
        <time>2024-04-06T12:24:04Z</time>
      </trkpt>
      <trkpt lat="49.93099" lon="4.63772">
        <ele>169</ele>
        <time>2024-04-06T12:24:05Z</time>
      </trkpt>
      <trkpt lat="49.93097" lon="4.63769">
        <ele>169.4</ele>
        <time>2024-04-06T12:24:06Z</time>
      </trkpt>
      <trkpt lat="49.93096" lon="4.63766">
        <ele>169.6</ele>
        <time>2024-04-06T12:24:07Z</time>
      </trkpt>
      <trkpt lat="49.93094" lon="4.63762">
        <ele>170</ele>
        <time>2024-04-06T12:24:08Z</time>
      </trkpt>
      <trkpt lat="49.93093" lon="4.63759">
        <ele>170</ele>
        <time>2024-04-06T12:24:09Z</time>
      </trkpt>
      <trkpt lat="49.93091" lon="4.63755">
        <ele>170.6</ele>
        <time>2024-04-06T12:24:10Z</time>
      </trkpt>
      <trkpt lat="49.93089" lon="4.63752">
        <ele>170.8</ele>
        <time>2024-04-06T12:24:11Z</time>
      </trkpt>
      <trkpt lat="49.93087" lon="4.63748">
        <ele>171.2</ele>
        <time>2024-04-06T12:24:12Z</time>
      </trkpt>
      <trkpt lat="49.93084" lon="4.63744">
        <ele>171.4</ele>
        <time>2024-04-06T12:24:13Z</time>
      </trkpt>
      <trkpt lat="49.93082" lon="4.6374">
        <ele>171.4</ele>
        <time>2024-04-06T12:24:14Z</time>
      </trkpt>
      <trkpt lat="49.9308" lon="4.63736">
        <ele>172</ele>
        <time>2024-04-06T12:24:15Z</time>
      </trkpt>
      <trkpt lat="49.93078" lon="4.63732">
        <ele>172.6</ele>
        <time>2024-04-06T12:24:16Z</time>
      </trkpt>
      <trkpt lat="49.93076" lon="4.63728">
        <ele>172.8</ele>
        <time>2024-04-06T12:24:17Z</time>
      </trkpt>
      <trkpt lat="49.93074" lon="4.63724">
        <ele>172.8</ele>
        <time>2024-04-06T12:24:18Z</time>
      </trkpt>
      <trkpt lat="49.93072" lon="4.6372">
        <ele>173.2</ele>
        <time>2024-04-06T12:24:19Z</time>
      </trkpt>
      <trkpt lat="49.9307" lon="4.63717">
        <ele>173.2</ele>
        <time>2024-04-06T12:24:20Z</time>
      </trkpt>
      <trkpt lat="49.93068" lon="4.63713">
        <ele>173.4</ele>
        <time>2024-04-06T12:24:21Z</time>
      </trkpt>
      <trkpt lat="49.93066" lon="4.6371">
        <ele>173.4</ele>
        <time>2024-04-06T12:24:22Z</time>
      </trkpt>
      <trkpt lat="49.93064" lon="4.63706">
        <ele>173.6</ele>
        <time>2024-04-06T12:24:23Z</time>
      </trkpt>
      <trkpt lat="49.93062" lon="4.63703">
        <ele>174</ele>
        <time>2024-04-06T12:24:24Z</time>
      </trkpt>
      <trkpt lat="49.9306" lon="4.63699">
        <ele>174.6</ele>
        <time>2024-04-06T12:24:25Z</time>
      </trkpt>
      <trkpt lat="49.93058" lon="4.63696">
        <ele>175.2</ele>
        <time>2024-04-06T12:24:26Z</time>
      </trkpt>
      <trkpt lat="49.93056" lon="4.63693">
        <ele>175.4</ele>
        <time>2024-04-06T12:24:27Z</time>
      </trkpt>
      <trkpt lat="49.93054" lon="4.63689">
        <ele>175.6</ele>
        <time>2024-04-06T12:24:28Z</time>
      </trkpt>
      <trkpt lat="49.93052" lon="4.63686">
        <ele>175.6</ele>
        <time>2024-04-06T12:24:29Z</time>
      </trkpt>
      <trkpt lat="49.9305" lon="4.63682">
        <ele>175.8</ele>
        <time>2024-04-06T12:24:30Z</time>
      </trkpt>
      <trkpt lat="49.93048" lon="4.63678">
        <ele>175.8</ele>
        <time>2024-04-06T12:24:31Z</time>
      </trkpt>
      <trkpt lat="49.93046" lon="4.63674">
        <ele>176</ele>
        <time>2024-04-06T12:24:32Z</time>
      </trkpt>
      <trkpt lat="49.93044" lon="4.6367">
        <ele>176.4</ele>
        <time>2024-04-06T12:24:33Z</time>
      </trkpt>
      <trkpt lat="49.93042" lon="4.63667">
        <ele>176.4</ele>
        <time>2024-04-06T12:24:34Z</time>
      </trkpt>
      <trkpt lat="49.93039" lon="4.63663">
        <ele>176.6</ele>
        <time>2024-04-06T12:24:35Z</time>
      </trkpt>
      <trkpt lat="49.93037" lon="4.63658">
        <ele>176.6</ele>
        <time>2024-04-06T12:24:36Z</time>
      </trkpt>
      <trkpt lat="49.93035" lon="4.63654">
        <ele>177.4</ele>
        <time>2024-04-06T12:24:37Z</time>
      </trkpt>
      <trkpt lat="49.93033" lon="4.6365">
        <ele>177.6</ele>
        <time>2024-04-06T12:24:38Z</time>
      </trkpt>
      <trkpt lat="49.9303" lon="4.63645">
        <ele>177.6</ele>
        <time>2024-04-06T12:24:39Z</time>
      </trkpt>
      <trkpt lat="49.93028" lon="4.63641">
        <ele>177.8</ele>
        <time>2024-04-06T12:24:40Z</time>
      </trkpt>
      <trkpt lat="49.93025" lon="4.63637">
        <ele>178</ele>
        <time>2024-04-06T12:24:41Z</time>
      </trkpt>
      <trkpt lat="49.93023" lon="4.63633">
        <ele>178</ele>
        <time>2024-04-06T12:24:42Z</time>
      </trkpt>
      <trkpt lat="49.9302" lon="4.63629">
        <ele>178.2</ele>
        <time>2024-04-06T12:24:43Z</time>
      </trkpt>
      <trkpt lat="49.93018" lon="4.63625">
        <ele>178.2</ele>
        <time>2024-04-06T12:24:44Z</time>
      </trkpt>
      <trkpt lat="49.93015" lon="4.63622">
        <ele>178.2</ele>
        <time>2024-04-06T12:24:45Z</time>
      </trkpt>
      <trkpt lat="49.93013" lon="4.63619">
        <ele>178.2</ele>
        <time>2024-04-06T12:24:46Z</time>
      </trkpt>
      <trkpt lat="49.9301" lon="4.63616">
        <ele>178.2</ele>
        <time>2024-04-06T12:24:47Z</time>
      </trkpt>
      <trkpt lat="49.93007" lon="4.63613">
        <ele>178.4</ele>
        <time>2024-04-06T12:24:48Z</time>
      </trkpt>
      <trkpt lat="49.93004" lon="4.6361">
        <ele>178.4</ele>
        <time>2024-04-06T12:24:49Z</time>
      </trkpt>
      <trkpt lat="49.93002" lon="4.63607">
        <ele>178.4</ele>
        <time>2024-04-06T12:24:50Z</time>
      </trkpt>
      <trkpt lat="49.92999" lon="4.63604">
        <ele>178.4</ele>
        <time>2024-04-06T12:24:51Z</time>
      </trkpt>
      <trkpt lat="49.92996" lon="4.63602">
        <ele>178.6</ele>
        <time>2024-04-06T12:24:52Z</time>
      </trkpt>
      <trkpt lat="49.92994" lon="4.636">
        <ele>178.6</ele>
        <time>2024-04-06T12:24:53Z</time>
      </trkpt>
      <trkpt lat="49.92991" lon="4.63599">
        <ele>178.8</ele>
        <time>2024-04-06T12:24:54Z</time>
      </trkpt>
      <trkpt lat="49.9299" lon="4.63597">
        <ele>179</ele>
        <time>2024-04-06T12:24:55Z</time>
      </trkpt>
      <trkpt lat="49.92987" lon="4.63596">
        <ele>179</ele>
        <time>2024-04-06T12:24:56Z</time>
      </trkpt>
      <trkpt lat="49.92985" lon="4.63594">
        <ele>179.4</ele>
        <time>2024-04-06T12:24:57Z</time>
      </trkpt>
      <trkpt lat="49.92983" lon="4.63593">
        <ele>179.4</ele>
        <time>2024-04-06T12:24:58Z</time>
      </trkpt>
      <trkpt lat="49.92981" lon="4.63593">
        <ele>179.4</ele>
        <time>2024-04-06T12:24:59Z</time>
      </trkpt>
      <trkpt lat="49.92979" lon="4.63592">
        <ele>180</ele>
        <time>2024-04-06T12:25:00Z</time>
      </trkpt>
      <trkpt lat="49.92976" lon="4.63591">
        <ele>180</ele>
        <time>2024-04-06T12:25:01Z</time>
      </trkpt>
      <trkpt lat="49.92974" lon="4.63591">
        <ele>180.6</ele>
        <time>2024-04-06T12:25:02Z</time>
      </trkpt>
      <trkpt lat="49.92972" lon="4.6359">
        <ele>180.8</ele>
        <time>2024-04-06T12:25:03Z</time>
      </trkpt>
      <trkpt lat="49.9297" lon="4.6359">
        <ele>180.8</ele>
        <time>2024-04-06T12:25:04Z</time>
      </trkpt>
      <trkpt lat="49.92968" lon="4.6359">
        <ele>180.8</ele>
        <time>2024-04-06T12:25:05Z</time>
      </trkpt>
      <trkpt lat="49.92966" lon="4.63589">
        <ele>181</ele>
        <time>2024-04-06T12:25:06Z</time>
      </trkpt>
      <trkpt lat="49.92964" lon="4.63589">
        <ele>181.2</ele>
        <time>2024-04-06T12:25:07Z</time>
      </trkpt>
      <trkpt lat="49.92962" lon="4.63588">
        <ele>181.4</ele>
        <time>2024-04-06T12:25:08Z</time>
      </trkpt>
      <trkpt lat="49.9296" lon="4.63587">
        <ele>181.8</ele>
        <time>2024-04-06T12:25:09Z</time>
      </trkpt>
      <trkpt lat="49.92958" lon="4.63586">
        <ele>182.4</ele>
        <time>2024-04-06T12:25:10Z</time>
      </trkpt>
      <trkpt lat="49.92957" lon="4.63585">
        <ele>182.8</ele>
        <time>2024-04-06T12:25:11Z</time>
      </trkpt>
      <trkpt lat="49.92955" lon="4.63584">
        <ele>183</ele>
        <time>2024-04-06T12:25:12Z</time>
      </trkpt>
      <trkpt lat="49.92954" lon="4.63581">
        <ele>183.2</ele>
        <time>2024-04-06T12:25:13Z</time>
      </trkpt>
      <trkpt lat="49.92954" lon="4.63578">
        <ele>183.6</ele>
        <time>2024-04-06T12:25:14Z</time>
      </trkpt>
      <trkpt lat="49.92954" lon="4.63574">
        <ele>183.6</ele>
        <time>2024-04-06T12:25:15Z</time>
      </trkpt>
      <trkpt lat="49.92955" lon="4.6357">
        <ele>184</ele>
        <time>2024-04-06T12:25:16Z</time>
      </trkpt>
      <trkpt lat="49.92955" lon="4.63564">
        <ele>184.2</ele>
        <time>2024-04-06T12:25:17Z</time>
      </trkpt>
      <trkpt lat="49.92956" lon="4.63558">
        <ele>184.4</ele>
        <time>2024-04-06T12:25:18Z</time>
      </trkpt>
      <trkpt lat="49.92956" lon="4.6355">
        <ele>184.4</ele>
        <time>2024-04-06T12:25:19Z</time>
      </trkpt>
      <trkpt lat="49.92957" lon="4.63542">
        <ele>184.6</ele>
        <time>2024-04-06T12:25:20Z</time>
      </trkpt>
      <trkpt lat="49.92958" lon="4.63532">
        <ele>184.4</ele>
        <time>2024-04-06T12:25:21Z</time>
      </trkpt>
      <trkpt lat="49.92959" lon="4.63522">
        <ele>184.6</ele>
        <time>2024-04-06T12:25:22Z</time>
      </trkpt>
      <trkpt lat="49.92961" lon="4.63511">
        <ele>184.6</ele>
        <time>2024-04-06T12:25:23Z</time>
      </trkpt>
      <trkpt lat="49.92962" lon="4.635">
        <ele>184.6</ele>
        <time>2024-04-06T12:25:24Z</time>
      </trkpt>
      <trkpt lat="49.92964" lon="4.63489">
        <ele>184.6</ele>
        <time>2024-04-06T12:25:25Z</time>
      </trkpt>
      <trkpt lat="49.92965" lon="4.63477">
        <ele>184.4</ele>
        <time>2024-04-06T12:25:26Z</time>
      </trkpt>
      <trkpt lat="49.92967" lon="4.63465">
        <ele>184.6</ele>
        <time>2024-04-06T12:25:27Z</time>
      </trkpt>
      <trkpt lat="49.92968" lon="4.63452">
        <ele>184.2</ele>
        <time>2024-04-06T12:25:28Z</time>
      </trkpt>
      <trkpt lat="49.9297" lon="4.63439">
        <ele>183.8</ele>
        <time>2024-04-06T12:25:29Z</time>
      </trkpt>
      <trkpt lat="49.92971" lon="4.63425">
        <ele>183.2</ele>
        <time>2024-04-06T12:25:30Z</time>
      </trkpt>
      <trkpt lat="49.92972" lon="4.63412">
        <ele>182.4</ele>
        <time>2024-04-06T12:25:31Z</time>
      </trkpt>
      <trkpt lat="49.92974" lon="4.63397">
        <ele>181.8</ele>
        <time>2024-04-06T12:25:32Z</time>
      </trkpt>
      <trkpt lat="49.92976" lon="4.63382">
        <ele>181</ele>
        <time>2024-04-06T12:25:33Z</time>
      </trkpt>
      <trkpt lat="49.92978" lon="4.63367">
        <ele>180.2</ele>
        <time>2024-04-06T12:25:34Z</time>
      </trkpt>
      <trkpt lat="49.9298" lon="4.63352">
        <ele>180.2</ele>
        <time>2024-04-06T12:25:35Z</time>
      </trkpt>
      <trkpt lat="49.92981" lon="4.63337">
        <ele>179</ele>
        <time>2024-04-06T12:25:36Z</time>
      </trkpt>
      <trkpt lat="49.92983" lon="4.63321">
        <ele>177.2</ele>
        <time>2024-04-06T12:25:37Z</time>
      </trkpt>
      <trkpt lat="49.92985" lon="4.63306">
        <ele>175.8</ele>
        <time>2024-04-06T12:25:38Z</time>
      </trkpt>
      <trkpt lat="49.92986" lon="4.63292">
        <ele>174.4</ele>
        <time>2024-04-06T12:25:39Z</time>
      </trkpt>
      <trkpt lat="49.92988" lon="4.63278">
        <ele>173</ele>
        <time>2024-04-06T12:25:40Z</time>
      </trkpt>
      <trkpt lat="49.92989" lon="4.63264">
        <ele>171.8</ele>
        <time>2024-04-06T12:25:41Z</time>
      </trkpt>
      <trkpt lat="49.9299" lon="4.6325">
        <ele>170.4</ele>
        <time>2024-04-06T12:25:42Z</time>
      </trkpt>
      <trkpt lat="49.92991" lon="4.63236">
        <ele>168.8</ele>
        <time>2024-04-06T12:25:43Z</time>
      </trkpt>
      <trkpt lat="49.92992" lon="4.63222">
        <ele>167.4</ele>
        <time>2024-04-06T12:25:44Z</time>
      </trkpt>
      <trkpt lat="49.92994" lon="4.6321">
        <ele>166</ele>
        <time>2024-04-06T12:25:45Z</time>
      </trkpt>
      <trkpt lat="49.92996" lon="4.63198">
        <ele>165</ele>
        <time>2024-04-06T12:25:46Z</time>
      </trkpt>
      <trkpt lat="49.92998" lon="4.63188">
        <ele>164</ele>
        <time>2024-04-06T12:25:47Z</time>
      </trkpt>
      <trkpt lat="49.93001" lon="4.63178">
        <ele>163</ele>
        <time>2024-04-06T12:25:48Z</time>
      </trkpt>
      <trkpt lat="49.93003" lon="4.63168">
        <ele>161.4</ele>
        <time>2024-04-06T12:25:49Z</time>
      </trkpt>
      <trkpt lat="49.93003" lon="4.63158">
        <ele>160.6</ele>
        <time>2024-04-06T12:25:50Z</time>
      </trkpt>
      <trkpt lat="49.93003" lon="4.63147">
        <ele>159.4</ele>
        <time>2024-04-06T12:25:51Z</time>
      </trkpt>
      <trkpt lat="49.93001" lon="4.63136">
        <ele>158.4</ele>
        <time>2024-04-06T12:25:52Z</time>
      </trkpt>
      <trkpt lat="49.93" lon="4.63126">
        <ele>157</ele>
        <time>2024-04-06T12:25:53Z</time>
      </trkpt>
      <trkpt lat="49.92999" lon="4.63115">
        <ele>155.2</ele>
        <time>2024-04-06T12:25:54Z</time>
      </trkpt>
      <trkpt lat="49.92998" lon="4.63103">
        <ele>154</ele>
        <time>2024-04-06T12:25:55Z</time>
      </trkpt>
      <trkpt lat="49.92997" lon="4.63092">
        <ele>152.4</ele>
        <time>2024-04-06T12:25:56Z</time>
      </trkpt>
      <trkpt lat="49.92996" lon="4.6308">
        <ele>151.8</ele>
        <time>2024-04-06T12:25:57Z</time>
      </trkpt>
      <trkpt lat="49.92995" lon="4.63068">
        <ele>151.2</ele>
        <time>2024-04-06T12:25:58Z</time>
      </trkpt>
      <trkpt lat="49.92994" lon="4.63056">
        <ele>150.8</ele>
        <time>2024-04-06T12:25:59Z</time>
      </trkpt>
      <trkpt lat="49.92993" lon="4.63044">
        <ele>150.8</ele>
        <time>2024-04-06T12:26:00Z</time>
      </trkpt>
      <trkpt lat="49.92993" lon="4.63031">
        <ele>150.2</ele>
        <time>2024-04-06T12:26:01Z</time>
      </trkpt>
      <trkpt lat="49.92992" lon="4.63018">
        <ele>150</ele>
        <time>2024-04-06T12:26:02Z</time>
      </trkpt>
      <trkpt lat="49.92991" lon="4.63006">
        <ele>149.6</ele>
        <time>2024-04-06T12:26:03Z</time>
      </trkpt>
      <trkpt lat="49.92991" lon="4.62993">
        <ele>149.2</ele>
        <time>2024-04-06T12:26:04Z</time>
      </trkpt>
      <trkpt lat="49.92991" lon="4.6298">
        <ele>149.2</ele>
        <time>2024-04-06T12:26:05Z</time>
      </trkpt>
      <trkpt lat="49.9299" lon="4.62967">
        <ele>149</ele>
        <time>2024-04-06T12:26:06Z</time>
      </trkpt>
      <trkpt lat="49.9299" lon="4.62953">
        <ele>149</ele>
        <time>2024-04-06T12:26:07Z</time>
      </trkpt>
      <trkpt lat="49.9299" lon="4.6294">
        <ele>148.6</ele>
        <time>2024-04-06T12:26:08Z</time>
      </trkpt>
      <trkpt lat="49.92989" lon="4.62927">
        <ele>148</ele>
        <time>2024-04-06T12:26:09Z</time>
      </trkpt>
      <trkpt lat="49.92989" lon="4.62913">
        <ele>147.4</ele>
        <time>2024-04-06T12:26:10Z</time>
      </trkpt>
      <trkpt lat="49.92989" lon="4.62899">
        <ele>147</ele>
        <time>2024-04-06T12:26:11Z</time>
      </trkpt>
      <trkpt lat="49.92989" lon="4.62885">
        <ele>146.6</ele>
        <time>2024-04-06T12:26:12Z</time>
      </trkpt>
      <trkpt lat="49.92989" lon="4.62871">
        <ele>146.6</ele>
        <time>2024-04-06T12:26:13Z</time>
      </trkpt>
      <trkpt lat="49.9299" lon="4.62857">
        <ele>146</ele>
        <time>2024-04-06T12:26:14Z</time>
      </trkpt>
      <trkpt lat="49.92992" lon="4.62843">
        <ele>145.6</ele>
        <time>2024-04-06T12:26:15Z</time>
      </trkpt>
      <trkpt lat="49.92994" lon="4.62829">
        <ele>144.8</ele>
        <time>2024-04-06T12:26:16Z</time>
      </trkpt>
      <trkpt lat="49.92996" lon="4.62816">
        <ele>144.2</ele>
        <time>2024-04-06T12:26:17Z</time>
      </trkpt>
      <trkpt lat="49.92999" lon="4.62802">
        <ele>143.8</ele>
        <time>2024-04-06T12:26:18Z</time>
      </trkpt>
      <trkpt lat="49.93001" lon="4.62789">
        <ele>142.6</ele>
        <time>2024-04-06T12:26:19Z</time>
      </trkpt>
      <trkpt lat="49.93004" lon="4.62775">
        <ele>141.8</ele>
        <time>2024-04-06T12:26:20Z</time>
      </trkpt>
      <trkpt lat="49.93007" lon="4.62762">
        <ele>141.4</ele>
        <time>2024-04-06T12:26:21Z</time>
      </trkpt>
      <trkpt lat="49.93011" lon="4.62748">
        <ele>141.4</ele>
        <time>2024-04-06T12:26:22Z</time>
      </trkpt>
      <trkpt lat="49.93014" lon="4.62735">
        <ele>141</ele>
        <time>2024-04-06T12:26:23Z</time>
      </trkpt>
      <trkpt lat="49.93019" lon="4.62722">
        <ele>140.6</ele>
        <time>2024-04-06T12:26:24Z</time>
      </trkpt>
      <trkpt lat="49.93025" lon="4.6271">
        <ele>140.2</ele>
        <time>2024-04-06T12:26:25Z</time>
      </trkpt>
      <trkpt lat="49.93031" lon="4.62699">
        <ele>140.2</ele>
        <time>2024-04-06T12:26:26Z</time>
      </trkpt>
      <trkpt lat="49.93039" lon="4.62689">
        <ele>140</ele>
        <time>2024-04-06T12:26:27Z</time>
      </trkpt>
      <trkpt lat="49.93046" lon="4.62679">
        <ele>140</ele>
        <time>2024-04-06T12:26:28Z</time>
      </trkpt>
      <trkpt lat="49.93053" lon="4.62669">
        <ele>140</ele>
        <time>2024-04-06T12:26:29Z</time>
      </trkpt>
      <trkpt lat="49.9306" lon="4.62659">
        <ele>140</ele>
        <time>2024-04-06T12:26:30Z</time>
      </trkpt>
      <trkpt lat="49.93066" lon="4.62649">
        <ele>139.8</ele>
        <time>2024-04-06T12:26:31Z</time>
      </trkpt>
      <trkpt lat="49.93072" lon="4.6264">
        <ele>139.6</ele>
        <time>2024-04-06T12:26:32Z</time>
      </trkpt>
      <trkpt lat="49.93079" lon="4.62633">
        <ele>139.4</ele>
        <time>2024-04-06T12:26:33Z</time>
      </trkpt>
      <trkpt lat="49.93084" lon="4.62627">
        <ele>139.2</ele>
        <time>2024-04-06T12:26:34Z</time>
      </trkpt>
      <trkpt lat="49.93088" lon="4.6262">
        <ele>139</ele>
        <time>2024-04-06T12:26:35Z</time>
      </trkpt>
      <trkpt lat="49.9309" lon="4.62611">
        <ele>139</ele>
        <time>2024-04-06T12:26:36Z</time>
      </trkpt>
      <trkpt lat="49.93088" lon="4.62602">
        <ele>138.8</ele>
        <time>2024-04-06T12:26:37Z</time>
      </trkpt>
      <trkpt lat="49.93085" lon="4.62594">
        <ele>138.6</ele>
        <time>2024-04-06T12:26:38Z</time>
      </trkpt>
      <trkpt lat="49.9308" lon="4.62585">
        <ele>138.4</ele>
        <time>2024-04-06T12:26:39Z</time>
      </trkpt>
      <trkpt lat="49.93076" lon="4.62576">
        <ele>138</ele>
        <time>2024-04-06T12:26:40Z</time>
      </trkpt>
      <trkpt lat="49.93072" lon="4.62566">
        <ele>137.8</ele>
        <time>2024-04-06T12:26:41Z</time>
      </trkpt>
      <trkpt lat="49.93068" lon="4.62554">
        <ele>137.6</ele>
        <time>2024-04-06T12:26:42Z</time>
      </trkpt>
      <trkpt lat="49.93064" lon="4.62543">
        <ele>137.4</ele>
        <time>2024-04-06T12:26:43Z</time>
      </trkpt>
      <trkpt lat="49.93061" lon="4.62532">
        <ele>137.2</ele>
        <time>2024-04-06T12:26:44Z</time>
      </trkpt>
      <trkpt lat="49.93057" lon="4.62521">
        <ele>137</ele>
        <time>2024-04-06T12:26:45Z</time>
      </trkpt>
      <trkpt lat="49.93052" lon="4.6251">
        <ele>136.2</ele>
        <time>2024-04-06T12:26:46Z</time>
      </trkpt>
      <trkpt lat="49.93048" lon="4.625">
        <ele>136.2</ele>
        <time>2024-04-06T12:26:47Z</time>
      </trkpt>
      <trkpt lat="49.93044" lon="4.6249">
        <ele>135.6</ele>
        <time>2024-04-06T12:26:48Z</time>
      </trkpt>
      <trkpt lat="49.93039" lon="4.62481">
        <ele>135.4</ele>
        <time>2024-04-06T12:26:49Z</time>
      </trkpt>
      <trkpt lat="49.93035" lon="4.62472">
        <ele>135.2</ele>
        <time>2024-04-06T12:26:50Z</time>
      </trkpt>
      <trkpt lat="49.9303" lon="4.62463">
        <ele>135</ele>
        <time>2024-04-06T12:26:51Z</time>
      </trkpt>
      <trkpt lat="49.93026" lon="4.62455">
        <ele>134.8</ele>
        <time>2024-04-06T12:26:52Z</time>
      </trkpt>
      <trkpt lat="49.93021" lon="4.62446">
        <ele>134.8</ele>
        <time>2024-04-06T12:26:53Z</time>
      </trkpt>
      <trkpt lat="49.93016" lon="4.62438">
        <ele>134.4</ele>
        <time>2024-04-06T12:26:54Z</time>
      </trkpt>
      <trkpt lat="49.93011" lon="4.62431">
        <ele>134.4</ele>
        <time>2024-04-06T12:26:55Z</time>
      </trkpt>
      <trkpt lat="49.93006" lon="4.62424">
        <ele>134.2</ele>
        <time>2024-04-06T12:26:56Z</time>
      </trkpt>
      <trkpt lat="49.93" lon="4.62417">
        <ele>134.4</ele>
        <time>2024-04-06T12:26:57Z</time>
      </trkpt>
      <trkpt lat="49.92994" lon="4.62411">
        <ele>134.4</ele>
        <time>2024-04-06T12:26:58Z</time>
      </trkpt>
      <trkpt lat="49.92989" lon="4.62405">
        <ele>134.2</ele>
        <time>2024-04-06T12:26:59Z</time>
      </trkpt>
      <trkpt lat="49.92983" lon="4.62399">
        <ele>134.2</ele>
        <time>2024-04-06T12:27:00Z</time>
      </trkpt>
      <trkpt lat="49.92977" lon="4.62394">
        <ele>134.4</ele>
        <time>2024-04-06T12:27:01Z</time>
      </trkpt>
      <trkpt lat="49.92971" lon="4.62388">
        <ele>134.2</ele>
        <time>2024-04-06T12:27:02Z</time>
      </trkpt>
      <trkpt lat="49.92966" lon="4.62382">
        <ele>134.4</ele>
        <time>2024-04-06T12:27:03Z</time>
      </trkpt>
      <trkpt lat="49.92961" lon="4.62375">
        <ele>135</ele>
        <time>2024-04-06T12:27:04Z</time>
      </trkpt>
      <trkpt lat="49.92956" lon="4.62368">
        <ele>135.2</ele>
        <time>2024-04-06T12:27:05Z</time>
      </trkpt>
      <trkpt lat="49.92952" lon="4.62359">
        <ele>135.2</ele>
        <time>2024-04-06T12:27:06Z</time>
      </trkpt>
      <trkpt lat="49.92948" lon="4.62351">
        <ele>135.2</ele>
        <time>2024-04-06T12:27:07Z</time>
      </trkpt>
      <trkpt lat="49.92945" lon="4.62343">
        <ele>135.2</ele>
        <time>2024-04-06T12:27:08Z</time>
      </trkpt>
      <trkpt lat="49.92942" lon="4.62334">
        <ele>135.4</ele>
        <time>2024-04-06T12:27:09Z</time>
      </trkpt>
      <trkpt lat="49.9294" lon="4.62324">
        <ele>135.6</ele>
        <time>2024-04-06T12:27:10Z</time>
      </trkpt>
      <trkpt lat="49.92938" lon="4.62315">
        <ele>135.8</ele>
        <time>2024-04-06T12:27:11Z</time>
      </trkpt>
      <trkpt lat="49.92937" lon="4.62305">
        <ele>136</ele>
        <time>2024-04-06T12:27:12Z</time>
      </trkpt>
      <trkpt lat="49.92936" lon="4.62296">
        <ele>136.2</ele>
        <time>2024-04-06T12:27:13Z</time>
      </trkpt>
      <trkpt lat="49.92935" lon="4.62286">
        <ele>136.6</ele>
        <time>2024-04-06T12:27:14Z</time>
      </trkpt>
      <trkpt lat="49.92934" lon="4.62276">
        <ele>136.8</ele>
        <time>2024-04-06T12:27:15Z</time>
      </trkpt>
      <trkpt lat="49.92933" lon="4.62267">
        <ele>137.2</ele>
        <time>2024-04-06T12:27:16Z</time>
      </trkpt>
      <trkpt lat="49.92932" lon="4.62257">
        <ele>137.4</ele>
        <time>2024-04-06T12:27:17Z</time>
      </trkpt>
      <trkpt lat="49.92931" lon="4.62248">
        <ele>137.4</ele>
        <time>2024-04-06T12:27:18Z</time>
      </trkpt>
      <trkpt lat="49.9293" lon="4.62238">
        <ele>137.6</ele>
        <time>2024-04-06T12:27:19Z</time>
      </trkpt>
      <trkpt lat="49.92929" lon="4.62229">
        <ele>137.8</ele>
        <time>2024-04-06T12:27:20Z</time>
      </trkpt>
      <trkpt lat="49.92928" lon="4.62219">
        <ele>137.8</ele>
        <time>2024-04-06T12:27:21Z</time>
      </trkpt>
      <trkpt lat="49.92927" lon="4.6221">
        <ele>138</ele>
        <time>2024-04-06T12:27:22Z</time>
      </trkpt>
      <trkpt lat="49.92926" lon="4.622">
        <ele>138.2</ele>
        <time>2024-04-06T12:27:23Z</time>
      </trkpt>
      <trkpt lat="49.92925" lon="4.6219">
        <ele>138.2</ele>
        <time>2024-04-06T12:27:24Z</time>
      </trkpt>
      <trkpt lat="49.92924" lon="4.62181">
        <ele>138.4</ele>
        <time>2024-04-06T12:27:25Z</time>
      </trkpt>
      <trkpt lat="49.92923" lon="4.62171">
        <ele>138.2</ele>
        <time>2024-04-06T12:27:26Z</time>
      </trkpt>
      <trkpt lat="49.92922" lon="4.62161">
        <ele>138.4</ele>
        <time>2024-04-06T12:27:27Z</time>
      </trkpt>
      <trkpt lat="49.92921" lon="4.62151">
        <ele>138.6</ele>
        <time>2024-04-06T12:27:28Z</time>
      </trkpt>
      <trkpt lat="49.9292" lon="4.62142">
        <ele>138.8</ele>
        <time>2024-04-06T12:27:29Z</time>
      </trkpt>
      <trkpt lat="49.92919" lon="4.62132">
        <ele>138.8</ele>
        <time>2024-04-06T12:27:30Z</time>
      </trkpt>
      <trkpt lat="49.92918" lon="4.62122">
        <ele>139</ele>
        <time>2024-04-06T12:27:31Z</time>
      </trkpt>
      <trkpt lat="49.92917" lon="4.62112">
        <ele>139</ele>
        <time>2024-04-06T12:27:32Z</time>
      </trkpt>
      <trkpt lat="49.92916" lon="4.62103">
        <ele>139</ele>
        <time>2024-04-06T12:27:33Z</time>
      </trkpt>
      <trkpt lat="49.92915" lon="4.62093">
        <ele>139</ele>
        <time>2024-04-06T12:27:34Z</time>
      </trkpt>
      <trkpt lat="49.92914" lon="4.62083">
        <ele>139</ele>
        <time>2024-04-06T12:27:35Z</time>
      </trkpt>
      <trkpt lat="49.92913" lon="4.62073">
        <ele>138.8</ele>
        <time>2024-04-06T12:27:36Z</time>
      </trkpt>
      <trkpt lat="49.92912" lon="4.62064">
        <ele>139.2</ele>
        <time>2024-04-06T12:27:37Z</time>
      </trkpt>
      <trkpt lat="49.92911" lon="4.62054">
        <ele>139</ele>
        <time>2024-04-06T12:27:38Z</time>
      </trkpt>
      <trkpt lat="49.9291" lon="4.62045">
        <ele>139.2</ele>
        <time>2024-04-06T12:27:39Z</time>
      </trkpt>
      <trkpt lat="49.92909" lon="4.62035">
        <ele>139.2</ele>
        <time>2024-04-06T12:27:40Z</time>
      </trkpt>
      <trkpt lat="49.92907" lon="4.62026">
        <ele>139.2</ele>
        <time>2024-04-06T12:27:41Z</time>
      </trkpt>
      <trkpt lat="49.92906" lon="4.62017">
        <ele>139.2</ele>
        <time>2024-04-06T12:27:42Z</time>
      </trkpt>
      <trkpt lat="49.92904" lon="4.62008">
        <ele>139.2</ele>
        <time>2024-04-06T12:27:43Z</time>
      </trkpt>
      <trkpt lat="49.92902" lon="4.61999">
        <ele>139</ele>
        <time>2024-04-06T12:27:44Z</time>
      </trkpt>
      <trkpt lat="49.92901" lon="4.6199">
        <ele>139.2</ele>
        <time>2024-04-06T12:27:45Z</time>
      </trkpt>
      <trkpt lat="49.92899" lon="4.61981">
        <ele>139.2</ele>
        <time>2024-04-06T12:27:46Z</time>
      </trkpt>
      <trkpt lat="49.92896" lon="4.61972">
        <ele>139.2</ele>
        <time>2024-04-06T12:27:47Z</time>
      </trkpt>
      <trkpt lat="49.92894" lon="4.61964">
        <ele>139.2</ele>
        <time>2024-04-06T12:27:48Z</time>
      </trkpt>
      <trkpt lat="49.92892" lon="4.61955">
        <ele>139.2</ele>
        <time>2024-04-06T12:27:49Z</time>
      </trkpt>
      <trkpt lat="49.9289" lon="4.61946">
        <ele>139</ele>
        <time>2024-04-06T12:27:50Z</time>
      </trkpt>
      <trkpt lat="49.92887" lon="4.61938">
        <ele>139</ele>
        <time>2024-04-06T12:27:51Z</time>
      </trkpt>
      <trkpt lat="49.92885" lon="4.61929">
        <ele>139.2</ele>
        <time>2024-04-06T12:27:52Z</time>
      </trkpt>
      <trkpt lat="49.92883" lon="4.61921">
        <ele>139</ele>
        <time>2024-04-06T12:27:53Z</time>
      </trkpt>
      <trkpt lat="49.9288" lon="4.61912">
        <ele>138.8</ele>
        <time>2024-04-06T12:27:54Z</time>
      </trkpt>
      <trkpt lat="49.92878" lon="4.61904">
        <ele>139</ele>
        <time>2024-04-06T12:27:55Z</time>
      </trkpt>
      <trkpt lat="49.92876" lon="4.61896">
        <ele>138.8</ele>
        <time>2024-04-06T12:27:56Z</time>
      </trkpt>
      <trkpt lat="49.92873" lon="4.61888">
        <ele>139</ele>
        <time>2024-04-06T12:27:57Z</time>
      </trkpt>
      <trkpt lat="49.92871" lon="4.6188">
        <ele>138.8</ele>
        <time>2024-04-06T12:27:58Z</time>
      </trkpt>
      <trkpt lat="49.92869" lon="4.61871">
        <ele>138.6</ele>
        <time>2024-04-06T12:27:59Z</time>
      </trkpt>
      <trkpt lat="49.92867" lon="4.61863">
        <ele>138.6</ele>
        <time>2024-04-06T12:28:00Z</time>
      </trkpt>
      <trkpt lat="49.92864" lon="4.61855">
        <ele>138.8</ele>
        <time>2024-04-06T12:28:01Z</time>
      </trkpt>
      <trkpt lat="49.92862" lon="4.61846">
        <ele>138.6</ele>
        <time>2024-04-06T12:28:02Z</time>
      </trkpt>
      <trkpt lat="49.9286" lon="4.61838">
        <ele>138.8</ele>
        <time>2024-04-06T12:28:03Z</time>
      </trkpt>
      <trkpt lat="49.92858" lon="4.6183">
        <ele>138.6</ele>
        <time>2024-04-06T12:28:04Z</time>
      </trkpt>
      <trkpt lat="49.92856" lon="4.61822">
        <ele>138.6</ele>
        <time>2024-04-06T12:28:05Z</time>
      </trkpt>
      <trkpt lat="49.92854" lon="4.61814">
        <ele>138.6</ele>
        <time>2024-04-06T12:28:06Z</time>
      </trkpt>
      <trkpt lat="49.92852" lon="4.61806">
        <ele>138.4</ele>
        <time>2024-04-06T12:28:07Z</time>
      </trkpt>
      <trkpt lat="49.92849" lon="4.61798">
        <ele>138.4</ele>
        <time>2024-04-06T12:28:08Z</time>
      </trkpt>
      <trkpt lat="49.92847" lon="4.6179">
        <ele>138.6</ele>
        <time>2024-04-06T12:28:09Z</time>
      </trkpt>
      <trkpt lat="49.92845" lon="4.61782">
        <ele>138.6</ele>
        <time>2024-04-06T12:28:10Z</time>
      </trkpt>
      <trkpt lat="49.92843" lon="4.61775">
        <ele>138.6</ele>
        <time>2024-04-06T12:28:11Z</time>
      </trkpt>
      <trkpt lat="49.92841" lon="4.61767">
        <ele>138.6</ele>
        <time>2024-04-06T12:28:12Z</time>
      </trkpt>
      <trkpt lat="49.9284" lon="4.6176">
        <ele>138.6</ele>
        <time>2024-04-06T12:28:13Z</time>
      </trkpt>
      <trkpt lat="49.92838" lon="4.61753">
        <ele>138.6</ele>
        <time>2024-04-06T12:28:14Z</time>
      </trkpt>
      <trkpt lat="49.92837" lon="4.61745">
        <ele>138.6</ele>
        <time>2024-04-06T12:28:15Z</time>
      </trkpt>
      <trkpt lat="49.92836" lon="4.61737">
        <ele>138.6</ele>
        <time>2024-04-06T12:28:16Z</time>
      </trkpt>
      <trkpt lat="49.92835" lon="4.61729">
        <ele>138.8</ele>
        <time>2024-04-06T12:28:17Z</time>
      </trkpt>
      <trkpt lat="49.92835" lon="4.61721">
        <ele>138.8</ele>
        <time>2024-04-06T12:28:18Z</time>
      </trkpt>
      <trkpt lat="49.92835" lon="4.61713">
        <ele>138.8</ele>
        <time>2024-04-06T12:28:19Z</time>
      </trkpt>
      <trkpt lat="49.92835" lon="4.61706">
        <ele>138.6</ele>
        <time>2024-04-06T12:28:20Z</time>
      </trkpt>
      <trkpt lat="49.92835" lon="4.61698">
        <ele>138.8</ele>
        <time>2024-04-06T12:28:21Z</time>
      </trkpt>
      <trkpt lat="49.92835" lon="4.61691">
        <ele>138.8</ele>
        <time>2024-04-06T12:28:22Z</time>
      </trkpt>
      <trkpt lat="49.92836" lon="4.61683">
        <ele>139</ele>
        <time>2024-04-06T12:28:23Z</time>
      </trkpt>
      <trkpt lat="49.92837" lon="4.61676">
        <ele>139</ele>
        <time>2024-04-06T12:28:24Z</time>
      </trkpt>
      <trkpt lat="49.92838" lon="4.61669">
        <ele>139.4</ele>
        <time>2024-04-06T12:28:25Z</time>
      </trkpt>
      <trkpt lat="49.92839" lon="4.61662">
        <ele>139.6</ele>
        <time>2024-04-06T12:28:26Z</time>
      </trkpt>
      <trkpt lat="49.9284" lon="4.61656">
        <ele>139.6</ele>
        <time>2024-04-06T12:28:27Z</time>
      </trkpt>
      <trkpt lat="49.92842" lon="4.6165">
        <ele>139.8</ele>
        <time>2024-04-06T12:28:28Z</time>
      </trkpt>
      <trkpt lat="49.92844" lon="4.61643">
        <ele>139.8</ele>
        <time>2024-04-06T12:28:29Z</time>
      </trkpt>
      <trkpt lat="49.92846" lon="4.61637">
        <ele>140</ele>
        <time>2024-04-06T12:28:30Z</time>
      </trkpt>
      <trkpt lat="49.92847" lon="4.61632">
        <ele>140.2</ele>
        <time>2024-04-06T12:28:31Z</time>
      </trkpt>
      <trkpt lat="49.9285" lon="4.61626">
        <ele>140.2</ele>
        <time>2024-04-06T12:28:32Z</time>
      </trkpt>
      <trkpt lat="49.92852" lon="4.61621">
        <ele>140.2</ele>
        <time>2024-04-06T12:28:33Z</time>
      </trkpt>
      <trkpt lat="49.92854" lon="4.61616">
        <ele>140.4</ele>
        <time>2024-04-06T12:28:34Z</time>
      </trkpt>
      <trkpt lat="49.92856" lon="4.61611">
        <ele>140.4</ele>
        <time>2024-04-06T12:28:35Z</time>
      </trkpt>
      <trkpt lat="49.92859" lon="4.61606">
        <ele>140.4</ele>
        <time>2024-04-06T12:28:36Z</time>
      </trkpt>
      <trkpt lat="49.92862" lon="4.61602">
        <ele>140.6</ele>
        <time>2024-04-06T12:28:37Z</time>
      </trkpt>
      <trkpt lat="49.92864" lon="4.61598">
        <ele>140.6</ele>
        <time>2024-04-06T12:28:38Z</time>
      </trkpt>
      <trkpt lat="49.92868" lon="4.61594">
        <ele>140.6</ele>
        <time>2024-04-06T12:28:39Z</time>
      </trkpt>
      <trkpt lat="49.92871" lon="4.6159">
        <ele>140.6</ele>
        <time>2024-04-06T12:28:40Z</time>
      </trkpt>
      <trkpt lat="49.92874" lon="4.61586">
        <ele>140.8</ele>
        <time>2024-04-06T12:28:41Z</time>
      </trkpt>
      <trkpt lat="49.92877" lon="4.61583">
        <ele>140.8</ele>
        <time>2024-04-06T12:28:42Z</time>
      </trkpt>
      <trkpt lat="49.9288" lon="4.61579">
        <ele>141</ele>
        <time>2024-04-06T12:28:43Z</time>
      </trkpt>
      <trkpt lat="49.92883" lon="4.61576">
        <ele>141.4</ele>
        <time>2024-04-06T12:28:44Z</time>
      </trkpt>
      <trkpt lat="49.92887" lon="4.61573">
        <ele>141.4</ele>
        <time>2024-04-06T12:28:45Z</time>
      </trkpt>
      <trkpt lat="49.9289" lon="4.6157">
        <ele>141.6</ele>
        <time>2024-04-06T12:28:46Z</time>
      </trkpt>
      <trkpt lat="49.92893" lon="4.61568">
        <ele>141.8</ele>
        <time>2024-04-06T12:28:47Z</time>
      </trkpt>
      <trkpt lat="49.92897" lon="4.61565">
        <ele>141.8</ele>
        <time>2024-04-06T12:28:48Z</time>
      </trkpt>
      <trkpt lat="49.92901" lon="4.61563">
        <ele>142</ele>
        <time>2024-04-06T12:28:49Z</time>
      </trkpt>
      <trkpt lat="49.92904" lon="4.61561">
        <ele>142</ele>
        <time>2024-04-06T12:28:50Z</time>
      </trkpt>
      <trkpt lat="49.92908" lon="4.61559">
        <ele>142.2</ele>
        <time>2024-04-06T12:28:51Z</time>
      </trkpt>
      <trkpt lat="49.92911" lon="4.61558">
        <ele>142.4</ele>
        <time>2024-04-06T12:28:52Z</time>
      </trkpt>
      <trkpt lat="49.92915" lon="4.61556">
        <ele>142.8</ele>
        <time>2024-04-06T12:28:53Z</time>
      </trkpt>
      <trkpt lat="49.92919" lon="4.61555">
        <ele>142.8</ele>
        <time>2024-04-06T12:28:54Z</time>
      </trkpt>
      <trkpt lat="49.92923" lon="4.61554">
        <ele>143</ele>
        <time>2024-04-06T12:28:55Z</time>
      </trkpt>
      <trkpt lat="49.92926" lon="4.61554">
        <ele>143</ele>
        <time>2024-04-06T12:28:56Z</time>
      </trkpt>
      <trkpt lat="49.9293" lon="4.61553">
        <ele>143</ele>
        <time>2024-04-06T12:28:57Z</time>
      </trkpt>
      <trkpt lat="49.92934" lon="4.61553">
        <ele>143.2</ele>
        <time>2024-04-06T12:28:58Z</time>
      </trkpt>
      <trkpt lat="49.92938" lon="4.61553">
        <ele>143.2</ele>
        <time>2024-04-06T12:28:59Z</time>
      </trkpt>
      <trkpt lat="49.92941" lon="4.61553">
        <ele>143.6</ele>
        <time>2024-04-06T12:29:00Z</time>
      </trkpt>
      <trkpt lat="49.92945" lon="4.61554">
        <ele>143.8</ele>
        <time>2024-04-06T12:29:01Z</time>
      </trkpt>
      <trkpt lat="49.92949" lon="4.61555">
        <ele>143.8</ele>
        <time>2024-04-06T12:29:02Z</time>
      </trkpt>
      <trkpt lat="49.92953" lon="4.61555">
        <ele>144.4</ele>
        <time>2024-04-06T12:29:03Z</time>
      </trkpt>
      <trkpt lat="49.92956" lon="4.61556">
        <ele>144.8</ele>
        <time>2024-04-06T12:29:04Z</time>
      </trkpt>
      <trkpt lat="49.9296" lon="4.61557">
        <ele>145.2</ele>
        <time>2024-04-06T12:29:05Z</time>
      </trkpt>
      <trkpt lat="49.92964" lon="4.61559">
        <ele>145.4</ele>
        <time>2024-04-06T12:29:06Z</time>
      </trkpt>
      <trkpt lat="49.92967" lon="4.6156">
        <ele>145.6</ele>
        <time>2024-04-06T12:29:07Z</time>
      </trkpt>
      <trkpt lat="49.9297" lon="4.61562">
        <ele>145.6</ele>
        <time>2024-04-06T12:29:08Z</time>
      </trkpt>
      <trkpt lat="49.92974" lon="4.61563">
        <ele>145.8</ele>
        <time>2024-04-06T12:29:09Z</time>
      </trkpt>
      <trkpt lat="49.92977" lon="4.61565">
        <ele>146</ele>
        <time>2024-04-06T12:29:10Z</time>
      </trkpt>
      <trkpt lat="49.92981" lon="4.61566">
        <ele>146.2</ele>
        <time>2024-04-06T12:29:11Z</time>
      </trkpt>
      <trkpt lat="49.92984" lon="4.61568">
        <ele>146.6</ele>
        <time>2024-04-06T12:29:12Z</time>
      </trkpt>
      <trkpt lat="49.92987" lon="4.61569">
        <ele>146.6</ele>
        <time>2024-04-06T12:29:13Z</time>
      </trkpt>
      <trkpt lat="49.9299" lon="4.61571">
        <ele>147</ele>
        <time>2024-04-06T12:29:14Z</time>
      </trkpt>
      <trkpt lat="49.92993" lon="4.61572">
        <ele>147</ele>
        <time>2024-04-06T12:29:15Z</time>
      </trkpt>
      <trkpt lat="49.92996" lon="4.61574">
        <ele>147.2</ele>
        <time>2024-04-06T12:29:16Z</time>
      </trkpt>
      <trkpt lat="49.93" lon="4.61576">
        <ele>147.4</ele>
        <time>2024-04-06T12:29:17Z</time>
      </trkpt>
      <trkpt lat="49.93003" lon="4.61577">
        <ele>147.4</ele>
        <time>2024-04-06T12:29:18Z</time>
      </trkpt>
      <trkpt lat="49.93007" lon="4.61579">
        <ele>147.6</ele>
        <time>2024-04-06T12:29:19Z</time>
      </trkpt>
      <trkpt lat="49.9301" lon="4.61581">
        <ele>147.6</ele>
        <time>2024-04-06T12:29:20Z</time>
      </trkpt>
      <trkpt lat="49.93013" lon="4.61582">
        <ele>147.8</ele>
        <time>2024-04-06T12:29:21Z</time>
      </trkpt>
      <trkpt lat="49.93017" lon="4.61584">
        <ele>147.8</ele>
        <time>2024-04-06T12:29:22Z</time>
      </trkpt>
      <trkpt lat="49.9302" lon="4.61585">
        <ele>148</ele>
        <time>2024-04-06T12:29:23Z</time>
      </trkpt>
      <trkpt lat="49.93023" lon="4.61587">
        <ele>148.2</ele>
        <time>2024-04-06T12:29:24Z</time>
      </trkpt>
      <trkpt lat="49.93026" lon="4.61589">
        <ele>148.4</ele>
        <time>2024-04-06T12:29:25Z</time>
      </trkpt>
      <trkpt lat="49.9303" lon="4.6159">
        <ele>148.6</ele>
        <time>2024-04-06T12:29:26Z</time>
      </trkpt>
      <trkpt lat="49.93033" lon="4.61592">
        <ele>148.6</ele>
        <time>2024-04-06T12:29:27Z</time>
      </trkpt>
      <trkpt lat="49.93036" lon="4.61593">
        <ele>148.8</ele>
        <time>2024-04-06T12:29:28Z</time>
      </trkpt>
      <trkpt lat="49.9304" lon="4.61595">
        <ele>149.2</ele>
        <time>2024-04-06T12:29:29Z</time>
      </trkpt>
      <trkpt lat="49.93043" lon="4.61596">
        <ele>149.2</ele>
        <time>2024-04-06T12:29:30Z</time>
      </trkpt>
      <trkpt lat="49.93047" lon="4.61598">
        <ele>149.4</ele>
        <time>2024-04-06T12:29:31Z</time>
      </trkpt>
      <trkpt lat="49.9305" lon="4.616">
        <ele>149.6</ele>
        <time>2024-04-06T12:29:32Z</time>
      </trkpt>
      <trkpt lat="49.93053" lon="4.61601">
        <ele>149.6</ele>
        <time>2024-04-06T12:29:33Z</time>
      </trkpt>
      <trkpt lat="49.93057" lon="4.61602">
        <ele>149.8</ele>
        <time>2024-04-06T12:29:34Z</time>
      </trkpt>
      <trkpt lat="49.9306" lon="4.61604">
        <ele>150</ele>
        <time>2024-04-06T12:29:35Z</time>
      </trkpt>
      <trkpt lat="49.93063" lon="4.61605">
        <ele>150</ele>
        <time>2024-04-06T12:29:36Z</time>
      </trkpt>
      <trkpt lat="49.93066" lon="4.61606">
        <ele>150.4</ele>
        <time>2024-04-06T12:29:37Z</time>
      </trkpt>
      <trkpt lat="49.9307" lon="4.61608">
        <ele>150.4</ele>
        <time>2024-04-06T12:29:38Z</time>
      </trkpt>
      <trkpt lat="49.93073" lon="4.61609">
        <ele>150.6</ele>
        <time>2024-04-06T12:29:39Z</time>
      </trkpt>
      <trkpt lat="49.93076" lon="4.61611">
        <ele>150.8</ele>
        <time>2024-04-06T12:29:40Z</time>
      </trkpt>
      <trkpt lat="49.9308" lon="4.61612">
        <ele>151</ele>
        <time>2024-04-06T12:29:41Z</time>
      </trkpt>
      <trkpt lat="49.93083" lon="4.61613">
        <ele>151.2</ele>
        <time>2024-04-06T12:29:42Z</time>
      </trkpt>
      <trkpt lat="49.93086" lon="4.61615">
        <ele>151.4</ele>
        <time>2024-04-06T12:29:43Z</time>
      </trkpt>
      <trkpt lat="49.9309" lon="4.61616">
        <ele>151.4</ele>
        <time>2024-04-06T12:29:44Z</time>
      </trkpt>
      <trkpt lat="49.93093" lon="4.61617">
        <ele>151.6</ele>
        <time>2024-04-06T12:29:45Z</time>
      </trkpt>
      <trkpt lat="49.93096" lon="4.61617">
        <ele>151.6</ele>
        <time>2024-04-06T12:29:46Z</time>
      </trkpt>
      <trkpt lat="49.93099" lon="4.61618">
        <ele>152</ele>
        <time>2024-04-06T12:29:47Z</time>
      </trkpt>
      <trkpt lat="49.93102" lon="4.61619">
        <ele>152</ele>
        <time>2024-04-06T12:29:48Z</time>
      </trkpt>
      <trkpt lat="49.93105" lon="4.61619">
        <ele>152</ele>
        <time>2024-04-06T12:29:49Z</time>
      </trkpt>
      <trkpt lat="49.93109" lon="4.6162">
        <ele>152.4</ele>
        <time>2024-04-06T12:29:50Z</time>
      </trkpt>
      <trkpt lat="49.93112" lon="4.6162">
        <ele>152.6</ele>
        <time>2024-04-06T12:29:51Z</time>
      </trkpt>
      <trkpt lat="49.93115" lon="4.6162">
        <ele>152.8</ele>
        <time>2024-04-06T12:29:52Z</time>
      </trkpt>
      <trkpt lat="49.93117" lon="4.6162">
        <ele>152.8</ele>
        <time>2024-04-06T12:29:53Z</time>
      </trkpt>
      <trkpt lat="49.93121" lon="4.61621">
        <ele>153.2</ele>
        <time>2024-04-06T12:29:54Z</time>
      </trkpt>
      <trkpt lat="49.93123" lon="4.61621">
        <ele>153.4</ele>
        <time>2024-04-06T12:29:55Z</time>
      </trkpt>
      <trkpt lat="49.93126" lon="4.6162">
        <ele>153.4</ele>
        <time>2024-04-06T12:29:56Z</time>
      </trkpt>
      <trkpt lat="49.93129" lon="4.6162">
        <ele>153.6</ele>
        <time>2024-04-06T12:29:57Z</time>
      </trkpt>
      <trkpt lat="49.93132" lon="4.6162">
        <ele>153.8</ele>
        <time>2024-04-06T12:29:58Z</time>
      </trkpt>
      <trkpt lat="49.93135" lon="4.61619">
        <ele>154</ele>
        <time>2024-04-06T12:29:59Z</time>
      </trkpt>
      <trkpt lat="49.93138" lon="4.61619">
        <ele>154.2</ele>
        <time>2024-04-06T12:30:00Z</time>
      </trkpt>
      <trkpt lat="49.93141" lon="4.61618">
        <ele>154.4</ele>
        <time>2024-04-06T12:30:01Z</time>
      </trkpt>
      <trkpt lat="49.93144" lon="4.61618">
        <ele>154.6</ele>
        <time>2024-04-06T12:30:02Z</time>
      </trkpt>
      <trkpt lat="49.93147" lon="4.61617">
        <ele>154.6</ele>
        <time>2024-04-06T12:30:03Z</time>
      </trkpt>
      <trkpt lat="49.9315" lon="4.61616">
        <ele>154.8</ele>
        <time>2024-04-06T12:30:04Z</time>
      </trkpt>
      <trkpt lat="49.93153" lon="4.61615">
        <ele>155</ele>
        <time>2024-04-06T12:30:05Z</time>
      </trkpt>
      <trkpt lat="49.93156" lon="4.61614">
        <ele>155.2</ele>
        <time>2024-04-06T12:30:06Z</time>
      </trkpt>
      <trkpt lat="49.93159" lon="4.61612">
        <ele>155.2</ele>
        <time>2024-04-06T12:30:07Z</time>
      </trkpt>
      <trkpt lat="49.93162" lon="4.61611">
        <ele>155.4</ele>
        <time>2024-04-06T12:30:08Z</time>
      </trkpt>
      <trkpt lat="49.93165" lon="4.6161">
        <ele>155.6</ele>
        <time>2024-04-06T12:30:09Z</time>
      </trkpt>
      <trkpt lat="49.93168" lon="4.61608">
        <ele>155.8</ele>
        <time>2024-04-06T12:30:10Z</time>
      </trkpt>
      <trkpt lat="49.9317" lon="4.61607">
        <ele>156</ele>
        <time>2024-04-06T12:30:11Z</time>
      </trkpt>
      <trkpt lat="49.93173" lon="4.61605">
        <ele>156</ele>
        <time>2024-04-06T12:30:12Z</time>
      </trkpt>
      <trkpt lat="49.93176" lon="4.61604">
        <ele>156.2</ele>
        <time>2024-04-06T12:30:13Z</time>
      </trkpt>
      <trkpt lat="49.93179" lon="4.61602">
        <ele>156.4</ele>
        <time>2024-04-06T12:30:14Z</time>
      </trkpt>
      <trkpt lat="49.93181" lon="4.616">
        <ele>156.4</ele>
        <time>2024-04-06T12:30:15Z</time>
      </trkpt>
      <trkpt lat="49.93184" lon="4.61598">
        <ele>156.6</ele>
        <time>2024-04-06T12:30:16Z</time>
      </trkpt>
      <trkpt lat="49.93187" lon="4.61597">
        <ele>156.6</ele>
        <time>2024-04-06T12:30:17Z</time>
      </trkpt>
      <trkpt lat="49.9319" lon="4.61595">
        <ele>156.6</ele>
        <time>2024-04-06T12:30:18Z</time>
      </trkpt>
      <trkpt lat="49.93192" lon="4.61593">
        <ele>156.8</ele>
        <time>2024-04-06T12:30:19Z</time>
      </trkpt>
      <trkpt lat="49.93195" lon="4.61591">
        <ele>157.2</ele>
        <time>2024-04-06T12:30:20Z</time>
      </trkpt>
      <trkpt lat="49.93198" lon="4.6159">
        <ele>157.2</ele>
        <time>2024-04-06T12:30:21Z</time>
      </trkpt>
      <trkpt lat="49.932" lon="4.61588">
        <ele>157.4</ele>
        <time>2024-04-06T12:30:22Z</time>
      </trkpt>
      <trkpt lat="49.93202" lon="4.61586">
        <ele>157.4</ele>
        <time>2024-04-06T12:30:23Z</time>
      </trkpt>
      <trkpt lat="49.93205" lon="4.61584">
        <ele>157.6</ele>
        <time>2024-04-06T12:30:24Z</time>
      </trkpt>
      <trkpt lat="49.93207" lon="4.61582">
        <ele>157.8</ele>
        <time>2024-04-06T12:30:25Z</time>
      </trkpt>
      <trkpt lat="49.93209" lon="4.6158">
        <ele>158</ele>
        <time>2024-04-06T12:30:26Z</time>
      </trkpt>
      <trkpt lat="49.93211" lon="4.61578">
        <ele>158</ele>
        <time>2024-04-06T12:30:27Z</time>
      </trkpt>
      <trkpt lat="49.93214" lon="4.61576">
        <ele>158.2</ele>
        <time>2024-04-06T12:30:28Z</time>
      </trkpt>
      <trkpt lat="49.93216" lon="4.61574">
        <ele>158.4</ele>
        <time>2024-04-06T12:30:29Z</time>
      </trkpt>
      <trkpt lat="49.93218" lon="4.61571">
        <ele>158.6</ele>
        <time>2024-04-06T12:30:30Z</time>
      </trkpt>
      <trkpt lat="49.93221" lon="4.61569">
        <ele>158.8</ele>
        <time>2024-04-06T12:30:31Z</time>
      </trkpt>
      <trkpt lat="49.93223" lon="4.61567">
        <ele>159</ele>
        <time>2024-04-06T12:30:32Z</time>
      </trkpt>
      <trkpt lat="49.93225" lon="4.61564">
        <ele>159.2</ele>
        <time>2024-04-06T12:30:33Z</time>
      </trkpt>
      <trkpt lat="49.93228" lon="4.61562">
        <ele>159.2</ele>
        <time>2024-04-06T12:30:34Z</time>
      </trkpt>
      <trkpt lat="49.9323" lon="4.61559">
        <ele>159.6</ele>
        <time>2024-04-06T12:30:35Z</time>
      </trkpt>
      <trkpt lat="49.93232" lon="4.61557">
        <ele>159.8</ele>
        <time>2024-04-06T12:30:36Z</time>
      </trkpt>
      <trkpt lat="49.93234" lon="4.61555">
        <ele>160</ele>
        <time>2024-04-06T12:30:37Z</time>
      </trkpt>
      <trkpt lat="49.93237" lon="4.61552">
        <ele>160.4</ele>
        <time>2024-04-06T12:30:38Z</time>
      </trkpt>
      <trkpt lat="49.93239" lon="4.6155">
        <ele>160.4</ele>
        <time>2024-04-06T12:30:39Z</time>
      </trkpt>
      <trkpt lat="49.93241" lon="4.61547">
        <ele>160.4</ele>
        <time>2024-04-06T12:30:40Z</time>
      </trkpt>
      <trkpt lat="49.93243" lon="4.61544">
        <ele>160.6</ele>
        <time>2024-04-06T12:30:41Z</time>
      </trkpt>
      <trkpt lat="49.93245" lon="4.61542">
        <ele>161</ele>
        <time>2024-04-06T12:30:42Z</time>
      </trkpt>
      <trkpt lat="49.93247" lon="4.61539">
        <ele>161.2</ele>
        <time>2024-04-06T12:30:43Z</time>
      </trkpt>
      <trkpt lat="49.93249" lon="4.61536">
        <ele>161.4</ele>
        <time>2024-04-06T12:30:44Z</time>
      </trkpt>
      <trkpt lat="49.93251" lon="4.61532">
        <ele>161.6</ele>
        <time>2024-04-06T12:30:45Z</time>
      </trkpt>
      <trkpt lat="49.93253" lon="4.61529">
        <ele>162</ele>
        <time>2024-04-06T12:30:46Z</time>
      </trkpt>
      <trkpt lat="49.93254" lon="4.61525">
        <ele>162</ele>
        <time>2024-04-06T12:30:47Z</time>
      </trkpt>
      <trkpt lat="49.93256" lon="4.61521">
        <ele>162.4</ele>
        <time>2024-04-06T12:30:48Z</time>
      </trkpt>
      <trkpt lat="49.93257" lon="4.61517">
        <ele>162.4</ele>
        <time>2024-04-06T12:30:49Z</time>
      </trkpt>
      <trkpt lat="49.93258" lon="4.61514">
        <ele>162.8</ele>
        <time>2024-04-06T12:30:50Z</time>
      </trkpt>
      <trkpt lat="49.9326" lon="4.61511">
        <ele>163</ele>
        <time>2024-04-06T12:30:51Z</time>
      </trkpt>
      <trkpt lat="49.93261" lon="4.61508">
        <ele>163</ele>
        <time>2024-04-06T12:30:52Z</time>
      </trkpt>
      <trkpt lat="49.93262" lon="4.61505">
        <ele>163.2</ele>
        <time>2024-04-06T12:30:53Z</time>
      </trkpt>
      <trkpt lat="49.93264" lon="4.61501">
        <ele>163.2</ele>
        <time>2024-04-06T12:30:54Z</time>
      </trkpt>
      <trkpt lat="49.93265" lon="4.61498">
        <ele>163.4</ele>
        <time>2024-04-06T12:30:55Z</time>
      </trkpt>
      <trkpt lat="49.93266" lon="4.61494">
        <ele>163.6</ele>
        <time>2024-04-06T12:30:56Z</time>
      </trkpt>
      <trkpt lat="49.93267" lon="4.6149">
        <ele>163.8</ele>
        <time>2024-04-06T12:30:57Z</time>
      </trkpt>
      <trkpt lat="49.93268" lon="4.61486">
        <ele>164</ele>
        <time>2024-04-06T12:30:58Z</time>
      </trkpt>
      <trkpt lat="49.93269" lon="4.61482">
        <ele>164.2</ele>
        <time>2024-04-06T12:30:59Z</time>
      </trkpt>
      <trkpt lat="49.93271" lon="4.61478">
        <ele>164.4</ele>
        <time>2024-04-06T12:31:00Z</time>
      </trkpt>
      <trkpt lat="49.93272" lon="4.61474">
        <ele>164.6</ele>
        <time>2024-04-06T12:31:01Z</time>
      </trkpt>
      <trkpt lat="49.93273" lon="4.61471">
        <ele>164.8</ele>
        <time>2024-04-06T12:31:02Z</time>
      </trkpt>
      <trkpt lat="49.93274" lon="4.61467">
        <ele>164.8</ele>
        <time>2024-04-06T12:31:03Z</time>
      </trkpt>
      <trkpt lat="49.93275" lon="4.61463">
        <ele>165</ele>
        <time>2024-04-06T12:31:04Z</time>
      </trkpt>
      <trkpt lat="49.93275" lon="4.61459">
        <ele>164.8</ele>
        <time>2024-04-06T12:31:05Z</time>
      </trkpt>
      <trkpt lat="49.93276" lon="4.61455">
        <ele>165</ele>
        <time>2024-04-06T12:31:06Z</time>
      </trkpt>
      <trkpt lat="49.93277" lon="4.61451">
        <ele>165.2</ele>
        <time>2024-04-06T12:31:07Z</time>
      </trkpt>
      <trkpt lat="49.93278" lon="4.61448">
        <ele>165.4</ele>
        <time>2024-04-06T12:31:08Z</time>
      </trkpt>
      <trkpt lat="49.93278" lon="4.61443">
        <ele>165.6</ele>
        <time>2024-04-06T12:31:09Z</time>
      </trkpt>
      <trkpt lat="49.93279" lon="4.61439">
        <ele>165.6</ele>
        <time>2024-04-06T12:31:10Z</time>
      </trkpt>
      <trkpt lat="49.93279" lon="4.61435">
        <ele>165.6</ele>
        <time>2024-04-06T12:31:11Z</time>
      </trkpt>
      <trkpt lat="49.9328" lon="4.61431">
        <ele>165.8</ele>
        <time>2024-04-06T12:31:12Z</time>
      </trkpt>
      <trkpt lat="49.93281" lon="4.61428">
        <ele>166.2</ele>
        <time>2024-04-06T12:31:13Z</time>
      </trkpt>
      <trkpt lat="49.93281" lon="4.61424">
        <ele>166.4</ele>
        <time>2024-04-06T12:31:14Z</time>
      </trkpt>
      <trkpt lat="49.93281" lon="4.61421">
        <ele>166.6</ele>
        <time>2024-04-06T12:31:15Z</time>
      </trkpt>
      <trkpt lat="49.93282" lon="4.61417">
        <ele>167</ele>
        <time>2024-04-06T12:31:16Z</time>
      </trkpt>
      <trkpt lat="49.93282" lon="4.61413">
        <ele>167</ele>
        <time>2024-04-06T12:31:17Z</time>
      </trkpt>
      <trkpt lat="49.93282" lon="4.6141">
        <ele>167</ele>
        <time>2024-04-06T12:31:18Z</time>
      </trkpt>
      <trkpt lat="49.93283" lon="4.61406">
        <ele>167.2</ele>
        <time>2024-04-06T12:31:19Z</time>
      </trkpt>
      <trkpt lat="49.93283" lon="4.61403">
        <ele>167.2</ele>
        <time>2024-04-06T12:31:20Z</time>
      </trkpt>
      <trkpt lat="49.93283" lon="4.614">
        <ele>167.6</ele>
        <time>2024-04-06T12:31:21Z</time>
      </trkpt>
      <trkpt lat="49.93283" lon="4.61396">
        <ele>167.6</ele>
        <time>2024-04-06T12:31:22Z</time>
      </trkpt>
      <trkpt lat="49.93283" lon="4.61392">
        <ele>167.8</ele>
        <time>2024-04-06T12:31:23Z</time>
      </trkpt>
      <trkpt lat="49.93283" lon="4.61389">
        <ele>168</ele>
        <time>2024-04-06T12:31:24Z</time>
      </trkpt>
      <trkpt lat="49.93283" lon="4.61384">
        <ele>168.2</ele>
        <time>2024-04-06T12:31:25Z</time>
      </trkpt>
      <trkpt lat="49.93283" lon="4.6138">
        <ele>168.4</ele>
        <time>2024-04-06T12:31:26Z</time>
      </trkpt>
      <trkpt lat="49.93283" lon="4.61376">
        <ele>168.6</ele>
        <time>2024-04-06T12:31:27Z</time>
      </trkpt>
      <trkpt lat="49.93283" lon="4.61372">
        <ele>168.8</ele>
        <time>2024-04-06T12:31:28Z</time>
      </trkpt>
      <trkpt lat="49.93283" lon="4.61368">
        <ele>169</ele>
        <time>2024-04-06T12:31:29Z</time>
      </trkpt>
      <trkpt lat="49.93283" lon="4.61364">
        <ele>169</ele>
        <time>2024-04-06T12:31:30Z</time>
      </trkpt>
      <trkpt lat="49.93283" lon="4.6136">
        <ele>169.2</ele>
        <time>2024-04-06T12:31:31Z</time>
      </trkpt>
      <trkpt lat="49.93283" lon="4.61356">
        <ele>169.4</ele>
        <time>2024-04-06T12:31:32Z</time>
      </trkpt>
      <trkpt lat="49.93283" lon="4.61352">
        <ele>169.8</ele>
        <time>2024-04-06T12:31:33Z</time>
      </trkpt>
      <trkpt lat="49.93282" lon="4.61348">
        <ele>170.2</ele>
        <time>2024-04-06T12:31:34Z</time>
      </trkpt>
      <trkpt lat="49.93282" lon="4.61343">
        <ele>170.4</ele>
        <time>2024-04-06T12:31:35Z</time>
      </trkpt>
      <trkpt lat="49.93282" lon="4.61339">
        <ele>170.6</ele>
        <time>2024-04-06T12:31:36Z</time>
      </trkpt>
      <trkpt lat="49.93282" lon="4.61334">
        <ele>170.8</ele>
        <time>2024-04-06T12:31:37Z</time>
      </trkpt>
      <trkpt lat="49.93281" lon="4.6133">
        <ele>170.8</ele>
        <time>2024-04-06T12:31:38Z</time>
      </trkpt>
      <trkpt lat="49.9328" lon="4.61326">
        <ele>171</ele>
        <time>2024-04-06T12:31:39Z</time>
      </trkpt>
      <trkpt lat="49.93279" lon="4.61321">
        <ele>171.2</ele>
        <time>2024-04-06T12:31:40Z</time>
      </trkpt>
      <trkpt lat="49.93279" lon="4.61316">
        <ele>171.4</ele>
        <time>2024-04-06T12:31:41Z</time>
      </trkpt>
      <trkpt lat="49.93277" lon="4.61311">
        <ele>171.8</ele>
        <time>2024-04-06T12:31:42Z</time>
      </trkpt>
      <trkpt lat="49.93276" lon="4.61307">
        <ele>172</ele>
        <time>2024-04-06T12:31:43Z</time>
      </trkpt>
      <trkpt lat="49.93276" lon="4.61303">
        <ele>172.2</ele>
        <time>2024-04-06T12:31:44Z</time>
      </trkpt>
      <trkpt lat="49.93275" lon="4.61299">
        <ele>172.6</ele>
        <time>2024-04-06T12:31:45Z</time>
      </trkpt>
      <trkpt lat="49.93274" lon="4.61295">
        <ele>172.8</ele>
        <time>2024-04-06T12:31:46Z</time>
      </trkpt>
      <trkpt lat="49.93273" lon="4.6129">
        <ele>173</ele>
        <time>2024-04-06T12:31:47Z</time>
      </trkpt>
      <trkpt lat="49.93273" lon="4.61286">
        <ele>173</ele>
        <time>2024-04-06T12:31:48Z</time>
      </trkpt>
      <trkpt lat="49.93272" lon="4.61281">
        <ele>173.4</ele>
        <time>2024-04-06T12:31:49Z</time>
      </trkpt>
      <trkpt lat="49.93271" lon="4.61276">
        <ele>173.6</ele>
        <time>2024-04-06T12:31:50Z</time>
      </trkpt>
      <trkpt lat="49.9327" lon="4.61273">
        <ele>173.8</ele>
        <time>2024-04-06T12:31:51Z</time>
      </trkpt>
      <trkpt lat="49.93269" lon="4.61269">
        <ele>174</ele>
        <time>2024-04-06T12:31:52Z</time>
      </trkpt>
      <trkpt lat="49.93268" lon="4.61265">
        <ele>174.4</ele>
        <time>2024-04-06T12:31:53Z</time>
      </trkpt>
      <trkpt lat="49.93268" lon="4.61261">
        <ele>174.4</ele>
        <time>2024-04-06T12:31:54Z</time>
      </trkpt>
      <trkpt lat="49.93267" lon="4.61257">
        <ele>174.6</ele>
        <time>2024-04-06T12:31:55Z</time>
      </trkpt>
      <trkpt lat="49.93266" lon="4.61254">
        <ele>174.8</ele>
        <time>2024-04-06T12:31:56Z</time>
      </trkpt>
      <trkpt lat="49.93265" lon="4.6125">
        <ele>175</ele>
        <time>2024-04-06T12:31:57Z</time>
      </trkpt>
      <trkpt lat="49.93264" lon="4.61246">
        <ele>175.2</ele>
        <time>2024-04-06T12:31:58Z</time>
      </trkpt>
      <trkpt lat="49.93264" lon="4.61242">
        <ele>175.6</ele>
        <time>2024-04-06T12:31:59Z</time>
      </trkpt>
      <trkpt lat="49.93263" lon="4.61238">
        <ele>175.6</ele>
        <time>2024-04-06T12:32:00Z</time>
      </trkpt>
      <trkpt lat="49.93262" lon="4.61235">
        <ele>175.8</ele>
        <time>2024-04-06T12:32:01Z</time>
      </trkpt>
      <trkpt lat="49.93261" lon="4.61231">
        <ele>175.8</ele>
        <time>2024-04-06T12:32:02Z</time>
      </trkpt>
      <trkpt lat="49.93261" lon="4.61228">
        <ele>176</ele>
        <time>2024-04-06T12:32:03Z</time>
      </trkpt>
      <trkpt lat="49.9326" lon="4.61224">
        <ele>176.2</ele>
        <time>2024-04-06T12:32:04Z</time>
      </trkpt>
      <trkpt lat="49.9326" lon="4.6122">
        <ele>176.6</ele>
        <time>2024-04-06T12:32:05Z</time>
      </trkpt>
      <trkpt lat="49.93259" lon="4.61217">
        <ele>176.8</ele>
        <time>2024-04-06T12:32:06Z</time>
      </trkpt>
      <trkpt lat="49.93258" lon="4.61213">
        <ele>176.8</ele>
        <time>2024-04-06T12:32:07Z</time>
      </trkpt>
      <trkpt lat="49.93258" lon="4.6121">
        <ele>177</ele>
        <time>2024-04-06T12:32:08Z</time>
      </trkpt>
      <trkpt lat="49.93258" lon="4.61206">
        <ele>177.2</ele>
        <time>2024-04-06T12:32:09Z</time>
      </trkpt>
      <trkpt lat="49.93257" lon="4.61202">
        <ele>177.2</ele>
        <time>2024-04-06T12:32:10Z</time>
      </trkpt>
      <trkpt lat="49.93257" lon="4.61199">
        <ele>177.2</ele>
        <time>2024-04-06T12:32:11Z</time>
      </trkpt>
      <trkpt lat="49.93256" lon="4.61195">
        <ele>177.4</ele>
        <time>2024-04-06T12:32:12Z</time>
      </trkpt>
      <trkpt lat="49.93255" lon="4.61192">
        <ele>177.6</ele>
        <time>2024-04-06T12:32:13Z</time>
      </trkpt>
      <trkpt lat="49.93255" lon="4.61189">
        <ele>178</ele>
        <time>2024-04-06T12:32:14Z</time>
      </trkpt>
      <trkpt lat="49.93254" lon="4.61186">
        <ele>178</ele>
        <time>2024-04-06T12:32:15Z</time>
      </trkpt>
      <trkpt lat="49.93253" lon="4.61183">
        <ele>178.4</ele>
        <time>2024-04-06T12:32:16Z</time>
      </trkpt>
      <trkpt lat="49.93253" lon="4.61179">
        <ele>178.4</ele>
        <time>2024-04-06T12:32:17Z</time>
      </trkpt>
      <trkpt lat="49.93252" lon="4.61176">
        <ele>178.4</ele>
        <time>2024-04-06T12:32:18Z</time>
      </trkpt>
      <trkpt lat="49.93252" lon="4.61173">
        <ele>178.6</ele>
        <time>2024-04-06T12:32:19Z</time>
      </trkpt>
      <trkpt lat="49.93251" lon="4.6117">
        <ele>179</ele>
        <time>2024-04-06T12:32:20Z</time>
      </trkpt>
      <trkpt lat="49.93251" lon="4.61167">
        <ele>179</ele>
        <time>2024-04-06T12:32:21Z</time>
      </trkpt>
      <trkpt lat="49.93251" lon="4.61163">
        <ele>179.2</ele>
        <time>2024-04-06T12:32:22Z</time>
      </trkpt>
      <trkpt lat="49.9325" lon="4.6116">
        <ele>179.2</ele>
        <time>2024-04-06T12:32:23Z</time>
      </trkpt>
      <trkpt lat="49.9325" lon="4.61157">
        <ele>179.6</ele>
        <time>2024-04-06T12:32:24Z</time>
      </trkpt>
      <trkpt lat="49.93249" lon="4.61153">
        <ele>179.6</ele>
        <time>2024-04-06T12:32:25Z</time>
      </trkpt>
      <trkpt lat="49.93248" lon="4.6115">
        <ele>179.8</ele>
        <time>2024-04-06T12:32:26Z</time>
      </trkpt>
      <trkpt lat="49.93247" lon="4.61146">
        <ele>180</ele>
        <time>2024-04-06T12:32:27Z</time>
      </trkpt>
      <trkpt lat="49.93246" lon="4.61143">
        <ele>180</ele>
        <time>2024-04-06T12:32:28Z</time>
      </trkpt>
      <trkpt lat="49.93245" lon="4.61139">
        <ele>180.2</ele>
        <time>2024-04-06T12:32:29Z</time>
      </trkpt>
      <trkpt lat="49.93245" lon="4.61135">
        <ele>180.2</ele>
        <time>2024-04-06T12:32:30Z</time>
      </trkpt>
      <trkpt lat="49.93244" lon="4.61131">
        <ele>180.4</ele>
        <time>2024-04-06T12:32:31Z</time>
      </trkpt>
      <trkpt lat="49.93243" lon="4.61128">
        <ele>180.6</ele>
        <time>2024-04-06T12:32:32Z</time>
      </trkpt>
      <trkpt lat="49.93243" lon="4.61124">
        <ele>180.6</ele>
        <time>2024-04-06T12:32:33Z</time>
      </trkpt>
      <trkpt lat="49.93242" lon="4.6112">
        <ele>180.8</ele>
        <time>2024-04-06T12:32:34Z</time>
      </trkpt>
      <trkpt lat="49.93241" lon="4.61117">
        <ele>180.8</ele>
        <time>2024-04-06T12:32:35Z</time>
      </trkpt>
      <trkpt lat="49.9324" lon="4.61113">
        <ele>181</ele>
        <time>2024-04-06T12:32:36Z</time>
      </trkpt>
      <trkpt lat="49.93239" lon="4.6111">
        <ele>181.2</ele>
        <time>2024-04-06T12:32:37Z</time>
      </trkpt>
      <trkpt lat="49.93238" lon="4.61106">
        <ele>181.6</ele>
        <time>2024-04-06T12:32:38Z</time>
      </trkpt>
      <trkpt lat="49.93237" lon="4.61103">
        <ele>181.8</ele>
        <time>2024-04-06T12:32:39Z</time>
      </trkpt>
      <trkpt lat="49.93236" lon="4.61099">
        <ele>182</ele>
        <time>2024-04-06T12:32:40Z</time>
      </trkpt>
      <trkpt lat="49.93235" lon="4.61095">
        <ele>182.2</ele>
        <time>2024-04-06T12:32:41Z</time>
      </trkpt>
      <trkpt lat="49.93234" lon="4.61092">
        <ele>182.2</ele>
        <time>2024-04-06T12:32:42Z</time>
      </trkpt>
      <trkpt lat="49.93233" lon="4.61089">
        <ele>182.6</ele>
        <time>2024-04-06T12:32:43Z</time>
      </trkpt>
      <trkpt lat="49.93232" lon="4.61086">
        <ele>182.6</ele>
        <time>2024-04-06T12:32:44Z</time>
      </trkpt>
      <trkpt lat="49.93231" lon="4.61083">
        <ele>182.8</ele>
        <time>2024-04-06T12:32:45Z</time>
      </trkpt>
      <trkpt lat="49.9323" lon="4.61081">
        <ele>182.8</ele>
        <time>2024-04-06T12:32:46Z</time>
      </trkpt>
      <trkpt lat="49.93229" lon="4.61077">
        <ele>183.2</ele>
        <time>2024-04-06T12:32:47Z</time>
      </trkpt>
      <trkpt lat="49.93227" lon="4.61074">
        <ele>183.2</ele>
        <time>2024-04-06T12:32:48Z</time>
      </trkpt>
      <trkpt lat="49.93227" lon="4.61071">
        <ele>183.4</ele>
        <time>2024-04-06T12:32:49Z</time>
      </trkpt>
      <trkpt lat="49.93226" lon="4.61068">
        <ele>183.6</ele>
        <time>2024-04-06T12:32:50Z</time>
      </trkpt>
      <trkpt lat="49.93225" lon="4.61065">
        <ele>183.6</ele>
        <time>2024-04-06T12:32:51Z</time>
      </trkpt>
      <trkpt lat="49.93224" lon="4.61062">
        <ele>183.8</ele>
        <time>2024-04-06T12:32:52Z</time>
      </trkpt>
      <trkpt lat="49.93222" lon="4.61058">
        <ele>183.8</ele>
        <time>2024-04-06T12:32:53Z</time>
      </trkpt>
      <trkpt lat="49.93221" lon="4.61055">
        <ele>183.8</ele>
        <time>2024-04-06T12:32:54Z</time>
      </trkpt>
      <trkpt lat="49.9322" lon="4.61052">
        <ele>184.2</ele>
        <time>2024-04-06T12:32:55Z</time>
      </trkpt>
      <trkpt lat="49.93219" lon="4.61049">
        <ele>184.2</ele>
        <time>2024-04-06T12:32:56Z</time>
      </trkpt>
      <trkpt lat="49.93218" lon="4.61046">
        <ele>184.6</ele>
        <time>2024-04-06T12:32:57Z</time>
      </trkpt>
      <trkpt lat="49.93216" lon="4.61043">
        <ele>184.8</ele>
        <time>2024-04-06T12:32:58Z</time>
      </trkpt>
      <trkpt lat="49.93215" lon="4.61039">
        <ele>185</ele>
        <time>2024-04-06T12:32:59Z</time>
      </trkpt>
      <trkpt lat="49.93214" lon="4.61036">
        <ele>185</ele>
        <time>2024-04-06T12:33:00Z</time>
      </trkpt>
      <trkpt lat="49.93212" lon="4.61033">
        <ele>185</ele>
        <time>2024-04-06T12:33:01Z</time>
      </trkpt>
      <trkpt lat="49.93211" lon="4.6103">
        <ele>185.4</ele>
        <time>2024-04-06T12:33:02Z</time>
      </trkpt>
      <trkpt lat="49.9321" lon="4.61027">
        <ele>185.6</ele>
        <time>2024-04-06T12:33:03Z</time>
      </trkpt>
      <trkpt lat="49.93208" lon="4.61024">
        <ele>185.6</ele>
        <time>2024-04-06T12:33:04Z</time>
      </trkpt>
      <trkpt lat="49.93207" lon="4.61021">
        <ele>185.6</ele>
        <time>2024-04-06T12:33:05Z</time>
      </trkpt>
      <trkpt lat="49.93206" lon="4.61018">
        <ele>185.8</ele>
        <time>2024-04-06T12:33:06Z</time>
      </trkpt>
      <trkpt lat="49.93205" lon="4.61015">
        <ele>186</ele>
        <time>2024-04-06T12:33:07Z</time>
      </trkpt>
      <trkpt lat="49.93203" lon="4.61012">
        <ele>186</ele>
        <time>2024-04-06T12:33:08Z</time>
      </trkpt>
      <trkpt lat="49.93202" lon="4.61009">
        <ele>186.4</ele>
        <time>2024-04-06T12:33:09Z</time>
      </trkpt>
      <trkpt lat="49.932" lon="4.61005">
        <ele>186.8</ele>
        <time>2024-04-06T12:33:10Z</time>
      </trkpt>
      <trkpt lat="49.93199" lon="4.61001">
        <ele>187</ele>
        <time>2024-04-06T12:33:11Z</time>
      </trkpt>
      <trkpt lat="49.93197" lon="4.60998">
        <ele>187.2</ele>
        <time>2024-04-06T12:33:12Z</time>
      </trkpt>
      <trkpt lat="49.93196" lon="4.60995">
        <ele>187.2</ele>
        <time>2024-04-06T12:33:13Z</time>
      </trkpt>
      <trkpt lat="49.93195" lon="4.60992">
        <ele>187.4</ele>
        <time>2024-04-06T12:33:14Z</time>
      </trkpt>
      <trkpt lat="49.93194" lon="4.60989">
        <ele>187.4</ele>
        <time>2024-04-06T12:33:15Z</time>
      </trkpt>
      <trkpt lat="49.93192" lon="4.60987">
        <ele>187.6</ele>
        <time>2024-04-06T12:33:16Z</time>
      </trkpt>
      <trkpt lat="49.93191" lon="4.60984">
        <ele>187.6</ele>
        <time>2024-04-06T12:33:17Z</time>
      </trkpt>
      <trkpt lat="49.93189" lon="4.60982">
        <ele>188</ele>
        <time>2024-04-06T12:33:18Z</time>
      </trkpt>
      <trkpt lat="49.93188" lon="4.60979">
        <ele>188.2</ele>
        <time>2024-04-06T12:33:19Z</time>
      </trkpt>
      <trkpt lat="49.93186" lon="4.60977">
        <ele>188.2</ele>
        <time>2024-04-06T12:33:20Z</time>
      </trkpt>
      <trkpt lat="49.93184" lon="4.60974">
        <ele>188.6</ele>
        <time>2024-04-06T12:33:21Z</time>
      </trkpt>
      <trkpt lat="49.93182" lon="4.60971">
        <ele>189</ele>
        <time>2024-04-06T12:33:22Z</time>
      </trkpt>
      <trkpt lat="49.9318" lon="4.60968">
        <ele>189.4</ele>
        <time>2024-04-06T12:33:23Z</time>
      </trkpt>
      <trkpt lat="49.93178" lon="4.60965">
        <ele>189.4</ele>
        <time>2024-04-06T12:33:24Z</time>
      </trkpt>
      <trkpt lat="49.93176" lon="4.60962">
        <ele>189.8</ele>
        <time>2024-04-06T12:33:25Z</time>
      </trkpt>
      <trkpt lat="49.93175" lon="4.60959">
        <ele>190</ele>
        <time>2024-04-06T12:33:26Z</time>
      </trkpt>
      <trkpt lat="49.93173" lon="4.60956">
        <ele>190.4</ele>
        <time>2024-04-06T12:33:27Z</time>
      </trkpt>
      <trkpt lat="49.93171" lon="4.60953">
        <ele>190.4</ele>
        <time>2024-04-06T12:33:28Z</time>
      </trkpt>
      <trkpt lat="49.93169" lon="4.6095">
        <ele>190.4</ele>
        <time>2024-04-06T12:33:29Z</time>
      </trkpt>
      <trkpt lat="49.93167" lon="4.60947">
        <ele>190.6</ele>
        <time>2024-04-06T12:33:30Z</time>
      </trkpt>
      <trkpt lat="49.93165" lon="4.60945">
        <ele>190.8</ele>
        <time>2024-04-06T12:33:31Z</time>
      </trkpt>
      <trkpt lat="49.93163" lon="4.60943">
        <ele>191</ele>
        <time>2024-04-06T12:33:32Z</time>
      </trkpt>
      <trkpt lat="49.93161" lon="4.6094">
        <ele>191.2</ele>
        <time>2024-04-06T12:33:33Z</time>
      </trkpt>
      <trkpt lat="49.93158" lon="4.60937">
        <ele>191.2</ele>
        <time>2024-04-06T12:33:34Z</time>
      </trkpt>
      <trkpt lat="49.93156" lon="4.60935">
        <ele>191.4</ele>
        <time>2024-04-06T12:33:35Z</time>
      </trkpt>
      <trkpt lat="49.93154" lon="4.60932">
        <ele>191.6</ele>
        <time>2024-04-06T12:33:36Z</time>
      </trkpt>
      <trkpt lat="49.93151" lon="4.6093">
        <ele>191.8</ele>
        <time>2024-04-06T12:33:37Z</time>
      </trkpt>
      <trkpt lat="49.93149" lon="4.60928">
        <ele>192</ele>
        <time>2024-04-06T12:33:38Z</time>
      </trkpt>
      <trkpt lat="49.93147" lon="4.60927">
        <ele>192.2</ele>
        <time>2024-04-06T12:33:39Z</time>
      </trkpt>
      <trkpt lat="49.93145" lon="4.60925">
        <ele>192.2</ele>
        <time>2024-04-06T12:33:40Z</time>
      </trkpt>
      <trkpt lat="49.93143" lon="4.60923">
        <ele>192.6</ele>
        <time>2024-04-06T12:33:41Z</time>
      </trkpt>
      <trkpt lat="49.93141" lon="4.60921">
        <ele>192.8</ele>
        <time>2024-04-06T12:33:42Z</time>
      </trkpt>
      <trkpt lat="49.93138" lon="4.60919">
        <ele>193</ele>
        <time>2024-04-06T12:33:43Z</time>
      </trkpt>
      <trkpt lat="49.93136" lon="4.60917">
        <ele>193</ele>
        <time>2024-04-06T12:33:44Z</time>
      </trkpt>
      <trkpt lat="49.93134" lon="4.60915">
        <ele>193.2</ele>
        <time>2024-04-06T12:33:45Z</time>
      </trkpt>
      <trkpt lat="49.93132" lon="4.60913">
        <ele>193.4</ele>
        <time>2024-04-06T12:33:46Z</time>
      </trkpt>
      <trkpt lat="49.9313" lon="4.60911">
        <ele>193.6</ele>
        <time>2024-04-06T12:33:47Z</time>
      </trkpt>
      <trkpt lat="49.93128" lon="4.60909">
        <ele>193.8</ele>
        <time>2024-04-06T12:33:48Z</time>
      </trkpt>
      <trkpt lat="49.93126" lon="4.60908">
        <ele>193.8</ele>
        <time>2024-04-06T12:33:49Z</time>
      </trkpt>
      <trkpt lat="49.93124" lon="4.60906">
        <ele>194</ele>
        <time>2024-04-06T12:33:50Z</time>
      </trkpt>
      <trkpt lat="49.93122" lon="4.60905">
        <ele>194</ele>
        <time>2024-04-06T12:33:51Z</time>
      </trkpt>
      <trkpt lat="49.9312" lon="4.60903">
        <ele>194</ele>
        <time>2024-04-06T12:33:52Z</time>
      </trkpt>
      <trkpt lat="49.93118" lon="4.60902">
        <ele>194</ele>
        <time>2024-04-06T12:33:53Z</time>
      </trkpt>
      <trkpt lat="49.93116" lon="4.60901">
        <ele>194.2</ele>
        <time>2024-04-06T12:33:54Z</time>
      </trkpt>
      <trkpt lat="49.93113" lon="4.60899">
        <ele>194.6</ele>
        <time>2024-04-06T12:33:55Z</time>
      </trkpt>
      <trkpt lat="49.93111" lon="4.60898">
        <ele>194.8</ele>
        <time>2024-04-06T12:33:56Z</time>
      </trkpt>
      <trkpt lat="49.93109" lon="4.60896">
        <ele>194.8</ele>
        <time>2024-04-06T12:33:57Z</time>
      </trkpt>
      <trkpt lat="49.93107" lon="4.60895">
        <ele>194.8</ele>
        <time>2024-04-06T12:33:58Z</time>
      </trkpt>
      <trkpt lat="49.93104" lon="4.60894">
        <ele>194.8</ele>
        <time>2024-04-06T12:33:59Z</time>
      </trkpt>
      <trkpt lat="49.93102" lon="4.60893">
        <ele>195.2</ele>
        <time>2024-04-06T12:34:00Z</time>
      </trkpt>
      <trkpt lat="49.93099" lon="4.60892">
        <ele>195.2</ele>
        <time>2024-04-06T12:34:01Z</time>
      </trkpt>
      <trkpt lat="49.93097" lon="4.60891">
        <ele>195.4</ele>
        <time>2024-04-06T12:34:02Z</time>
      </trkpt>
      <trkpt lat="49.93094" lon="4.6089">
        <ele>195.4</ele>
        <time>2024-04-06T12:34:03Z</time>
      </trkpt>
      <trkpt lat="49.93092" lon="4.60888">
        <ele>195.4</ele>
        <time>2024-04-06T12:34:04Z</time>
      </trkpt>
      <trkpt lat="49.93089" lon="4.60887">
        <ele>195.6</ele>
        <time>2024-04-06T12:34:05Z</time>
      </trkpt>
      <trkpt lat="49.93087" lon="4.60886">
        <ele>195.8</ele>
        <time>2024-04-06T12:34:06Z</time>
      </trkpt>
      <trkpt lat="49.93084" lon="4.60885">
        <ele>196</ele>
        <time>2024-04-06T12:34:07Z</time>
      </trkpt>
      <trkpt lat="49.93082" lon="4.60884">
        <ele>196.4</ele>
        <time>2024-04-06T12:34:08Z</time>
      </trkpt>
      <trkpt lat="49.93079" lon="4.60883">
        <ele>196.6</ele>
        <time>2024-04-06T12:34:09Z</time>
      </trkpt>
      <trkpt lat="49.93077" lon="4.60881">
        <ele>196.6</ele>
        <time>2024-04-06T12:34:10Z</time>
      </trkpt>
      <trkpt lat="49.93075" lon="4.6088">
        <ele>196.8</ele>
        <time>2024-04-06T12:34:11Z</time>
      </trkpt>
      <trkpt lat="49.93072" lon="4.6088">
        <ele>196.8</ele>
        <time>2024-04-06T12:34:12Z</time>
      </trkpt>
      <trkpt lat="49.9307" lon="4.60879">
        <ele>197</ele>
        <time>2024-04-06T12:34:13Z</time>
      </trkpt>
      <trkpt lat="49.93067" lon="4.60878">
        <ele>197.2</ele>
        <time>2024-04-06T12:34:14Z</time>
      </trkpt>
      <trkpt lat="49.93065" lon="4.60877">
        <ele>197.2</ele>
        <time>2024-04-06T12:34:15Z</time>
      </trkpt>
      <trkpt lat="49.93062" lon="4.60876">
        <ele>197.4</ele>
        <time>2024-04-06T12:34:16Z</time>
      </trkpt>
      <trkpt lat="49.9306" lon="4.60876">
        <ele>197.4</ele>
        <time>2024-04-06T12:34:17Z</time>
      </trkpt>
      <trkpt lat="49.93058" lon="4.60875">
        <ele>197.4</ele>
        <time>2024-04-06T12:34:18Z</time>
      </trkpt>
      <trkpt lat="49.93055" lon="4.60874">
        <ele>197.6</ele>
        <time>2024-04-06T12:34:19Z</time>
      </trkpt>
      <trkpt lat="49.93053" lon="4.60873">
        <ele>197.8</ele>
        <time>2024-04-06T12:34:20Z</time>
      </trkpt>
      <trkpt lat="49.93051" lon="4.60872">
        <ele>198</ele>
        <time>2024-04-06T12:34:21Z</time>
      </trkpt>
      <trkpt lat="49.93049" lon="4.60871">
        <ele>198.2</ele>
        <time>2024-04-06T12:34:22Z</time>
      </trkpt>
      <trkpt lat="49.93046" lon="4.60871">
        <ele>198.4</ele>
        <time>2024-04-06T12:34:23Z</time>
      </trkpt>
      <trkpt lat="49.93044" lon="4.6087">
        <ele>198.6</ele>
        <time>2024-04-06T12:34:24Z</time>
      </trkpt>
      <trkpt lat="49.93042" lon="4.6087">
        <ele>199</ele>
        <time>2024-04-06T12:34:25Z</time>
      </trkpt>
      <trkpt lat="49.9304" lon="4.6087">
        <ele>199</ele>
        <time>2024-04-06T12:34:26Z</time>
      </trkpt>
      <trkpt lat="49.93038" lon="4.60869">
        <ele>199.2</ele>
        <time>2024-04-06T12:34:27Z</time>
      </trkpt>
      <trkpt lat="49.93035" lon="4.60869">
        <ele>199</ele>
        <time>2024-04-06T12:34:28Z</time>
      </trkpt>
      <trkpt lat="49.93033" lon="4.60869">
        <ele>199.2</ele>
        <time>2024-04-06T12:34:29Z</time>
      </trkpt>
      <trkpt lat="49.93031" lon="4.60868">
        <ele>199.4</ele>
        <time>2024-04-06T12:34:30Z</time>
      </trkpt>
      <trkpt lat="49.93029" lon="4.60868">
        <ele>199.4</ele>
        <time>2024-04-06T12:34:31Z</time>
      </trkpt>
      <trkpt lat="49.93026" lon="4.60868">
        <ele>199.6</ele>
        <time>2024-04-06T12:34:32Z</time>
      </trkpt>
      <trkpt lat="49.93024" lon="4.60867">
        <ele>199.8</ele>
        <time>2024-04-06T12:34:33Z</time>
      </trkpt>
      <trkpt lat="49.93022" lon="4.60867">
        <ele>200</ele>
        <time>2024-04-06T12:34:34Z</time>
      </trkpt>
      <trkpt lat="49.9302" lon="4.60867">
        <ele>200.2</ele>
        <time>2024-04-06T12:34:35Z</time>
      </trkpt>
      <trkpt lat="49.93018" lon="4.60866">
        <ele>200.4</ele>
        <time>2024-04-06T12:34:36Z</time>
      </trkpt>
      <trkpt lat="49.93016" lon="4.60866">
        <ele>200.6</ele>
        <time>2024-04-06T12:34:37Z</time>
      </trkpt>
      <trkpt lat="49.93014" lon="4.60866">
        <ele>200.8</ele>
        <time>2024-04-06T12:34:38Z</time>
      </trkpt>
      <trkpt lat="49.93012" lon="4.60865">
        <ele>201</ele>
        <time>2024-04-06T12:34:39Z</time>
      </trkpt>
      <trkpt lat="49.93009" lon="4.60865">
        <ele>201</ele>
        <time>2024-04-06T12:34:40Z</time>
      </trkpt>
      <trkpt lat="49.93007" lon="4.60865">
        <ele>201</ele>
        <time>2024-04-06T12:34:41Z</time>
      </trkpt>
      <trkpt lat="49.93005" lon="4.60864">
        <ele>201.2</ele>
        <time>2024-04-06T12:34:42Z</time>
      </trkpt>
      <trkpt lat="49.93003" lon="4.60864">
        <ele>201.2</ele>
        <time>2024-04-06T12:34:43Z</time>
      </trkpt>
      <trkpt lat="49.93" lon="4.60863">
        <ele>201.4</ele>
        <time>2024-04-06T12:34:44Z</time>
      </trkpt>
      <trkpt lat="49.92998" lon="4.60863">
        <ele>201.6</ele>
        <time>2024-04-06T12:34:45Z</time>
      </trkpt>
      <trkpt lat="49.92996" lon="4.60862">
        <ele>201.6</ele>
        <time>2024-04-06T12:34:46Z</time>
      </trkpt>
      <trkpt lat="49.92994" lon="4.60862">
        <ele>201.8</ele>
        <time>2024-04-06T12:34:47Z</time>
      </trkpt>
      <trkpt lat="49.92992" lon="4.60861">
        <ele>202</ele>
        <time>2024-04-06T12:34:48Z</time>
      </trkpt>
      <trkpt lat="49.92989" lon="4.60861">
        <ele>202.2</ele>
        <time>2024-04-06T12:34:49Z</time>
      </trkpt>
      <trkpt lat="49.92987" lon="4.6086">
        <ele>202.2</ele>
        <time>2024-04-06T12:34:50Z</time>
      </trkpt>
      <trkpt lat="49.92985" lon="4.6086">
        <ele>202.4</ele>
        <time>2024-04-06T12:34:51Z</time>
      </trkpt>
      <trkpt lat="49.92982" lon="4.6086">
        <ele>202.4</ele>
        <time>2024-04-06T12:34:52Z</time>
      </trkpt>
      <trkpt lat="49.92979" lon="4.6086">
        <ele>202.6</ele>
        <time>2024-04-06T12:34:53Z</time>
      </trkpt>
      <trkpt lat="49.92977" lon="4.60859">
        <ele>203</ele>
        <time>2024-04-06T12:34:54Z</time>
      </trkpt>
      <trkpt lat="49.92974" lon="4.60858">
        <ele>203.2</ele>
        <time>2024-04-06T12:34:55Z</time>
      </trkpt>
      <trkpt lat="49.92972" lon="4.60857">
        <ele>203.4</ele>
        <time>2024-04-06T12:34:56Z</time>
      </trkpt>
      <trkpt lat="49.9297" lon="4.60857">
        <ele>203.6</ele>
        <time>2024-04-06T12:34:57Z</time>
      </trkpt>
      <trkpt lat="49.92967" lon="4.60856">
        <ele>203.8</ele>
        <time>2024-04-06T12:34:58Z</time>
      </trkpt>
      <trkpt lat="49.92965" lon="4.60856">
        <ele>204</ele>
        <time>2024-04-06T12:34:59Z</time>
      </trkpt>
      <trkpt lat="49.92962" lon="4.60855">
        <ele>204.2</ele>
        <time>2024-04-06T12:35:00Z</time>
      </trkpt>
      <trkpt lat="49.9296" lon="4.60854">
        <ele>204</ele>
        <time>2024-04-06T12:35:01Z</time>
      </trkpt>
      <trkpt lat="49.92958" lon="4.60853">
        <ele>204.2</ele>
        <time>2024-04-06T12:35:02Z</time>
      </trkpt>
      <trkpt lat="49.92955" lon="4.60852">
        <ele>204.2</ele>
        <time>2024-04-06T12:35:03Z</time>
      </trkpt>
      <trkpt lat="49.92953" lon="4.60851">
        <ele>204.4</ele>
        <time>2024-04-06T12:35:04Z</time>
      </trkpt>
      <trkpt lat="49.92951" lon="4.6085">
        <ele>204.4</ele>
        <time>2024-04-06T12:35:05Z</time>
      </trkpt>
      <trkpt lat="49.92948" lon="4.60849">
        <ele>204.8</ele>
        <time>2024-04-06T12:35:06Z</time>
      </trkpt>
      <trkpt lat="49.92946" lon="4.60848">
        <ele>204.8</ele>
        <time>2024-04-06T12:35:07Z</time>
      </trkpt>
      <trkpt lat="49.92943" lon="4.60847">
        <ele>205</ele>
        <time>2024-04-06T12:35:08Z</time>
      </trkpt>
      <trkpt lat="49.9294" lon="4.60845">
        <ele>205</ele>
        <time>2024-04-06T12:35:09Z</time>
      </trkpt>
      <trkpt lat="49.92937" lon="4.60844">
        <ele>205.2</ele>
        <time>2024-04-06T12:35:10Z</time>
      </trkpt>
      <trkpt lat="49.92935" lon="4.60843">
        <ele>205.2</ele>
        <time>2024-04-06T12:35:11Z</time>
      </trkpt>
      <trkpt lat="49.92932" lon="4.60841">
        <ele>205.4</ele>
        <time>2024-04-06T12:35:12Z</time>
      </trkpt>
      <trkpt lat="49.92929" lon="4.60839">
        <ele>205.8</ele>
        <time>2024-04-06T12:35:13Z</time>
      </trkpt>
      <trkpt lat="49.92927" lon="4.60838">
        <ele>206</ele>
        <time>2024-04-06T12:35:14Z</time>
      </trkpt>
      <trkpt lat="49.92924" lon="4.60836">
        <ele>206</ele>
        <time>2024-04-06T12:35:15Z</time>
      </trkpt>
      <trkpt lat="49.92921" lon="4.60835">
        <ele>206.2</ele>
        <time>2024-04-06T12:35:16Z</time>
      </trkpt>
      <trkpt lat="49.92918" lon="4.60833">
        <ele>206.2</ele>
        <time>2024-04-06T12:35:17Z</time>
      </trkpt>
      <trkpt lat="49.92915" lon="4.60831">
        <ele>206.4</ele>
        <time>2024-04-06T12:35:18Z</time>
      </trkpt>
      <trkpt lat="49.92912" lon="4.60829">
        <ele>206.6</ele>
        <time>2024-04-06T12:35:19Z</time>
      </trkpt>
      <trkpt lat="49.92909" lon="4.60827">
        <ele>207</ele>
        <time>2024-04-06T12:35:20Z</time>
      </trkpt>
      <trkpt lat="49.92906" lon="4.60825">
        <ele>207.4</ele>
        <time>2024-04-06T12:35:21Z</time>
      </trkpt>
      <trkpt lat="49.92903" lon="4.60824">
        <ele>207.6</ele>
        <time>2024-04-06T12:35:22Z</time>
      </trkpt>
      <trkpt lat="49.92901" lon="4.60822">
        <ele>207.8</ele>
        <time>2024-04-06T12:35:23Z</time>
      </trkpt>
      <trkpt lat="49.92898" lon="4.60819">
        <ele>208</ele>
        <time>2024-04-06T12:35:24Z</time>
      </trkpt>
      <trkpt lat="49.92895" lon="4.60817">
        <ele>208</ele>
        <time>2024-04-06T12:35:25Z</time>
      </trkpt>
      <trkpt lat="49.92892" lon="4.60816">
        <ele>208</ele>
        <time>2024-04-06T12:35:26Z</time>
      </trkpt>
      <trkpt lat="49.9289" lon="4.60814">
        <ele>208.4</ele>
        <time>2024-04-06T12:35:27Z</time>
      </trkpt>
      <trkpt lat="49.92887" lon="4.60812">
        <ele>208.6</ele>
        <time>2024-04-06T12:35:28Z</time>
      </trkpt>
      <trkpt lat="49.92885" lon="4.6081">
        <ele>208.8</ele>
        <time>2024-04-06T12:35:29Z</time>
      </trkpt>
      <trkpt lat="49.92882" lon="4.60807">
        <ele>208.8</ele>
        <time>2024-04-06T12:35:30Z</time>
      </trkpt>
      <trkpt lat="49.9288" lon="4.60805">
        <ele>209.2</ele>
        <time>2024-04-06T12:35:31Z</time>
      </trkpt>
      <trkpt lat="49.92877" lon="4.60802">
        <ele>209.4</ele>
        <time>2024-04-06T12:35:32Z</time>
      </trkpt>
      <trkpt lat="49.92874" lon="4.608">
        <ele>209.8</ele>
        <time>2024-04-06T12:35:33Z</time>
      </trkpt>
      <trkpt lat="49.92871" lon="4.60798">
        <ele>210.2</ele>
        <time>2024-04-06T12:35:34Z</time>
      </trkpt>
      <trkpt lat="49.92869" lon="4.60795">
        <ele>210.4</ele>
        <time>2024-04-06T12:35:35Z</time>
      </trkpt>
      <trkpt lat="49.92866" lon="4.60792">
        <ele>210.8</ele>
        <time>2024-04-06T12:35:36Z</time>
      </trkpt>
      <trkpt lat="49.92864" lon="4.60789">
        <ele>210.8</ele>
        <time>2024-04-06T12:35:37Z</time>
      </trkpt>
      <trkpt lat="49.92861" lon="4.60787">
        <ele>210.8</ele>
        <time>2024-04-06T12:35:38Z</time>
      </trkpt>
      <trkpt lat="49.92858" lon="4.60784">
        <ele>210.8</ele>
        <time>2024-04-06T12:35:39Z</time>
      </trkpt>
      <trkpt lat="49.92856" lon="4.60782">
        <ele>211</ele>
        <time>2024-04-06T12:35:40Z</time>
      </trkpt>
      <trkpt lat="49.92853" lon="4.60779">
        <ele>211.2</ele>
        <time>2024-04-06T12:35:41Z</time>
      </trkpt>
      <trkpt lat="49.92851" lon="4.60776">
        <ele>211.4</ele>
        <time>2024-04-06T12:35:42Z</time>
      </trkpt>
      <trkpt lat="49.92849" lon="4.60773">
        <ele>211.6</ele>
        <time>2024-04-06T12:35:43Z</time>
      </trkpt>
      <trkpt lat="49.92846" lon="4.6077">
        <ele>212</ele>
        <time>2024-04-06T12:35:44Z</time>
      </trkpt>
      <trkpt lat="49.92844" lon="4.60767">
        <ele>212</ele>
        <time>2024-04-06T12:35:45Z</time>
      </trkpt>
      <trkpt lat="49.92841" lon="4.60764">
        <ele>212.2</ele>
        <time>2024-04-06T12:35:46Z</time>
      </trkpt>
      <trkpt lat="49.92839" lon="4.60761">
        <ele>212.6</ele>
        <time>2024-04-06T12:35:47Z</time>
      </trkpt>
      <trkpt lat="49.92836" lon="4.60758">
        <ele>212.8</ele>
        <time>2024-04-06T12:35:48Z</time>
      </trkpt>
      <trkpt lat="49.92834" lon="4.60755">
        <ele>213.2</ele>
        <time>2024-04-06T12:35:49Z</time>
      </trkpt>
      <trkpt lat="49.92831" lon="4.60752">
        <ele>213.4</ele>
        <time>2024-04-06T12:35:50Z</time>
      </trkpt>
      <trkpt lat="49.92828" lon="4.60748">
        <ele>213.6</ele>
        <time>2024-04-06T12:35:51Z</time>
      </trkpt>
      <trkpt lat="49.92826" lon="4.60745">
        <ele>213.6</ele>
        <time>2024-04-06T12:35:52Z</time>
      </trkpt>
      <trkpt lat="49.92823" lon="4.60742">
        <ele>213.6</ele>
        <time>2024-04-06T12:35:53Z</time>
      </trkpt>
      <trkpt lat="49.9282" lon="4.60738">
        <ele>213.6</ele>
        <time>2024-04-06T12:35:54Z</time>
      </trkpt>
      <trkpt lat="49.92818" lon="4.60734">
        <ele>213.8</ele>
        <time>2024-04-06T12:35:55Z</time>
      </trkpt>
      <trkpt lat="49.92815" lon="4.60731">
        <ele>214</ele>
        <time>2024-04-06T12:35:56Z</time>
      </trkpt>
      <trkpt lat="49.92813" lon="4.60727">
        <ele>214</ele>
        <time>2024-04-06T12:35:57Z</time>
      </trkpt>
      <trkpt lat="49.92811" lon="4.60723">
        <ele>214.4</ele>
        <time>2024-04-06T12:35:58Z</time>
      </trkpt>
      <trkpt lat="49.92808" lon="4.60718">
        <ele>214.6</ele>
        <time>2024-04-06T12:35:59Z</time>
      </trkpt>
      <trkpt lat="49.92805" lon="4.60714">
        <ele>214.6</ele>
        <time>2024-04-06T12:36:00Z</time>
      </trkpt>
      <trkpt lat="49.92803" lon="4.6071">
        <ele>214.6</ele>
        <time>2024-04-06T12:36:01Z</time>
      </trkpt>
      <trkpt lat="49.928" lon="4.60706">
        <ele>215</ele>
        <time>2024-04-06T12:36:02Z</time>
      </trkpt>
      <trkpt lat="49.92798" lon="4.60701">
        <ele>215.2</ele>
        <time>2024-04-06T12:36:03Z</time>
      </trkpt>
      <trkpt lat="49.92795" lon="4.60696">
        <ele>215.2</ele>
        <time>2024-04-06T12:36:04Z</time>
      </trkpt>
      <trkpt lat="49.92793" lon="4.60692">
        <ele>215.2</ele>
        <time>2024-04-06T12:36:05Z</time>
      </trkpt>
      <trkpt lat="49.9279" lon="4.60687">
        <ele>215.6</ele>
        <time>2024-04-06T12:36:06Z</time>
      </trkpt>
      <trkpt lat="49.92788" lon="4.60682">
        <ele>215.6</ele>
        <time>2024-04-06T12:36:07Z</time>
      </trkpt>
      <trkpt lat="49.92786" lon="4.60678">
        <ele>215.8</ele>
        <time>2024-04-06T12:36:08Z</time>
      </trkpt>
      <trkpt lat="49.92783" lon="4.60673">
        <ele>216</ele>
        <time>2024-04-06T12:36:09Z</time>
      </trkpt>
      <trkpt lat="49.92781" lon="4.60668">
        <ele>216.2</ele>
        <time>2024-04-06T12:36:10Z</time>
      </trkpt>
      <trkpt lat="49.92779" lon="4.60663">
        <ele>216.2</ele>
        <time>2024-04-06T12:36:11Z</time>
      </trkpt>
      <trkpt lat="49.92777" lon="4.60657">
        <ele>216.2</ele>
        <time>2024-04-06T12:36:12Z</time>
      </trkpt>
      <trkpt lat="49.92774" lon="4.60651">
        <ele>216.2</ele>
        <time>2024-04-06T12:36:13Z</time>
      </trkpt>
      <trkpt lat="49.92772" lon="4.60646">
        <ele>216.2</ele>
        <time>2024-04-06T12:36:14Z</time>
      </trkpt>
      <trkpt lat="49.92769" lon="4.6064">
        <ele>216.2</ele>
        <time>2024-04-06T12:36:15Z</time>
      </trkpt>
      <trkpt lat="49.92767" lon="4.60635">
        <ele>216.2</ele>
        <time>2024-04-06T12:36:16Z</time>
      </trkpt>
      <trkpt lat="49.92765" lon="4.60629">
        <ele>216.2</ele>
        <time>2024-04-06T12:36:17Z</time>
      </trkpt>
      <trkpt lat="49.92763" lon="4.60623">
        <ele>216.4</ele>
        <time>2024-04-06T12:36:18Z</time>
      </trkpt>
      <trkpt lat="49.92761" lon="4.60617">
        <ele>216.2</ele>
        <time>2024-04-06T12:36:19Z</time>
      </trkpt>
      <trkpt lat="49.9276" lon="4.60611">
        <ele>216.4</ele>
        <time>2024-04-06T12:36:20Z</time>
      </trkpt>
      <trkpt lat="49.92758" lon="4.60605">
        <ele>216.4</ele>
        <time>2024-04-06T12:36:21Z</time>
      </trkpt>
      <trkpt lat="49.92756" lon="4.60598">
        <ele>216.6</ele>
        <time>2024-04-06T12:36:22Z</time>
      </trkpt>
      <trkpt lat="49.92755" lon="4.60592">
        <ele>216.4</ele>
        <time>2024-04-06T12:36:23Z</time>
      </trkpt>
      <trkpt lat="49.92753" lon="4.60585">
        <ele>216.6</ele>
        <time>2024-04-06T12:36:24Z</time>
      </trkpt>
      <trkpt lat="49.92752" lon="4.60577">
        <ele>216.6</ele>
        <time>2024-04-06T12:36:25Z</time>
      </trkpt>
      <trkpt lat="49.9275" lon="4.6057">
        <ele>216.4</ele>
        <time>2024-04-06T12:36:26Z</time>
      </trkpt>
      <trkpt lat="49.92748" lon="4.60562">
        <ele>216.4</ele>
        <time>2024-04-06T12:36:27Z</time>
      </trkpt>
      <trkpt lat="49.92747" lon="4.60554">
        <ele>216.4</ele>
        <time>2024-04-06T12:36:28Z</time>
      </trkpt>
      <trkpt lat="49.92745" lon="4.60546">
        <ele>216.2</ele>
        <time>2024-04-06T12:36:29Z</time>
      </trkpt>
      <trkpt lat="49.92744" lon="4.60538">
        <ele>216.2</ele>
        <time>2024-04-06T12:36:30Z</time>
      </trkpt>
      <trkpt lat="49.92743" lon="4.6053">
        <ele>216.4</ele>
        <time>2024-04-06T12:36:31Z</time>
      </trkpt>
      <trkpt lat="49.92742" lon="4.60522">
        <ele>216.4</ele>
        <time>2024-04-06T12:36:32Z</time>
      </trkpt>
      <trkpt lat="49.92741" lon="4.60513">
        <ele>216.4</ele>
        <time>2024-04-06T12:36:33Z</time>
      </trkpt>
      <trkpt lat="49.92741" lon="4.60504">
        <ele>216.4</ele>
        <time>2024-04-06T12:36:34Z</time>
      </trkpt>
      <trkpt lat="49.9274" lon="4.60495">
        <ele>216.2</ele>
        <time>2024-04-06T12:36:35Z</time>
      </trkpt>
      <trkpt lat="49.9274" lon="4.60486">
        <ele>216.2</ele>
        <time>2024-04-06T12:36:36Z</time>
      </trkpt>
      <trkpt lat="49.9274" lon="4.60477">
        <ele>216.2</ele>
        <time>2024-04-06T12:36:37Z</time>
      </trkpt>
      <trkpt lat="49.9274" lon="4.60467">
        <ele>216</ele>
        <time>2024-04-06T12:36:38Z</time>
      </trkpt>
      <trkpt lat="49.9274" lon="4.60457">
        <ele>215.6</ele>
        <time>2024-04-06T12:36:39Z</time>
      </trkpt>
      <trkpt lat="49.92739" lon="4.60447">
        <ele>215.4</ele>
        <time>2024-04-06T12:36:40Z</time>
      </trkpt>
      <trkpt lat="49.92739" lon="4.60436">
        <ele>215</ele>
        <time>2024-04-06T12:36:41Z</time>
      </trkpt>
      <trkpt lat="49.9274" lon="4.60425">
        <ele>214.8</ele>
        <time>2024-04-06T12:36:42Z</time>
      </trkpt>
      <trkpt lat="49.92741" lon="4.60414">
        <ele>214.6</ele>
        <time>2024-04-06T12:36:43Z</time>
      </trkpt>
      <trkpt lat="49.92741" lon="4.60402">
        <ele>214.2</ele>
        <time>2024-04-06T12:36:44Z</time>
      </trkpt>
      <trkpt lat="49.92742" lon="4.60391">
        <ele>214</ele>
        <time>2024-04-06T12:36:45Z</time>
      </trkpt>
      <trkpt lat="49.92742" lon="4.60379">
        <ele>213.8</ele>
        <time>2024-04-06T12:36:46Z</time>
      </trkpt>
      <trkpt lat="49.92743" lon="4.60366">
        <ele>213.6</ele>
        <time>2024-04-06T12:36:47Z</time>
      </trkpt>
      <trkpt lat="49.92744" lon="4.60354">
        <ele>213.6</ele>
        <time>2024-04-06T12:36:48Z</time>
      </trkpt>
      <trkpt lat="49.92744" lon="4.60342">
        <ele>213.4</ele>
        <time>2024-04-06T12:36:49Z</time>
      </trkpt>
      <trkpt lat="49.92744" lon="4.6033">
        <ele>213.2</ele>
        <time>2024-04-06T12:36:50Z</time>
      </trkpt>
      <trkpt lat="49.92744" lon="4.60317">
        <ele>212.8</ele>
        <time>2024-04-06T12:36:51Z</time>
      </trkpt>
      <trkpt lat="49.92744" lon="4.60305">
        <ele>212.6</ele>
        <time>2024-04-06T12:36:52Z</time>
      </trkpt>
      <trkpt lat="49.92743" lon="4.60293">
        <ele>212.4</ele>
        <time>2024-04-06T12:36:53Z</time>
      </trkpt>
      <trkpt lat="49.92742" lon="4.6028">
        <ele>212.2</ele>
        <time>2024-04-06T12:36:54Z</time>
      </trkpt>
      <trkpt lat="49.92741" lon="4.60268">
        <ele>212</ele>
        <time>2024-04-06T12:36:55Z</time>
      </trkpt>
      <trkpt lat="49.9274" lon="4.60255">
        <ele>212</ele>
        <time>2024-04-06T12:36:56Z</time>
      </trkpt>
      <trkpt lat="49.92739" lon="4.60243">
        <ele>211.6</ele>
        <time>2024-04-06T12:36:57Z</time>
      </trkpt>
      <trkpt lat="49.92737" lon="4.60231">
        <ele>211.2</ele>
        <time>2024-04-06T12:36:58Z</time>
      </trkpt>
      <trkpt lat="49.92735" lon="4.60219">
        <ele>210.8</ele>
        <time>2024-04-06T12:36:59Z</time>
      </trkpt>
      <trkpt lat="49.92732" lon="4.60206">
        <ele>210.8</ele>
        <time>2024-04-06T12:37:00Z</time>
      </trkpt>
      <trkpt lat="49.92728" lon="4.60194">
        <ele>210.8</ele>
        <time>2024-04-06T12:37:01Z</time>
      </trkpt>
      <trkpt lat="49.92724" lon="4.60182">
        <ele>210.6</ele>
        <time>2024-04-06T12:37:02Z</time>
      </trkpt>
      <trkpt lat="49.9272" lon="4.60169">
        <ele>210.4</ele>
        <time>2024-04-06T12:37:03Z</time>
      </trkpt>
      <trkpt lat="49.92715" lon="4.60157">
        <ele>210.4</ele>
        <time>2024-04-06T12:37:04Z</time>
      </trkpt>
      <trkpt lat="49.9271" lon="4.60146">
        <ele>210</ele>
        <time>2024-04-06T12:37:05Z</time>
      </trkpt>
      <trkpt lat="49.92705" lon="4.60134">
        <ele>209.8</ele>
        <time>2024-04-06T12:37:06Z</time>
      </trkpt>
      <trkpt lat="49.927" lon="4.60124">
        <ele>209.2</ele>
        <time>2024-04-06T12:37:07Z</time>
      </trkpt>
      <trkpt lat="49.92694" lon="4.60113">
        <ele>208.8</ele>
        <time>2024-04-06T12:37:08Z</time>
      </trkpt>
      <trkpt lat="49.92687" lon="4.60103">
        <ele>208.2</ele>
        <time>2024-04-06T12:37:09Z</time>
      </trkpt>
      <trkpt lat="49.9268" lon="4.60094">
        <ele>207.8</ele>
        <time>2024-04-06T12:37:10Z</time>
      </trkpt>
      <trkpt lat="49.92673" lon="4.60085">
        <ele>207.2</ele>
        <time>2024-04-06T12:37:11Z</time>
      </trkpt>
      <trkpt lat="49.92666" lon="4.60076">
        <ele>207.2</ele>
        <time>2024-04-06T12:37:12Z</time>
      </trkpt>
      <trkpt lat="49.92659" lon="4.60068">
        <ele>206.6</ele>
        <time>2024-04-06T12:37:13Z</time>
      </trkpt>
      <trkpt lat="49.92651" lon="4.6006">
        <ele>206</ele>
        <time>2024-04-06T12:37:14Z</time>
      </trkpt>
      <trkpt lat="49.92643" lon="4.60053">
        <ele>205.4</ele>
        <time>2024-04-06T12:37:15Z</time>
      </trkpt>
      <trkpt lat="49.92635" lon="4.60046">
        <ele>205.2</ele>
        <time>2024-04-06T12:37:16Z</time>
      </trkpt>
      <trkpt lat="49.92626" lon="4.6004">
        <ele>205.2</ele>
        <time>2024-04-06T12:37:17Z</time>
      </trkpt>
      <trkpt lat="49.92618" lon="4.60033">
        <ele>204.8</ele>
        <time>2024-04-06T12:37:18Z</time>
      </trkpt>
      <trkpt lat="49.9261" lon="4.60026">
        <ele>204.8</ele>
        <time>2024-04-06T12:37:19Z</time>
      </trkpt>
      <trkpt lat="49.92602" lon="4.60019">
        <ele>204.8</ele>
        <time>2024-04-06T12:37:20Z</time>
      </trkpt>
      <trkpt lat="49.92594" lon="4.60013">
        <ele>204.8</ele>
        <time>2024-04-06T12:37:21Z</time>
      </trkpt>
      <trkpt lat="49.92586" lon="4.60006">
        <ele>204.6</ele>
        <time>2024-04-06T12:37:22Z</time>
      </trkpt>
      <trkpt lat="49.92578" lon="4.59999">
        <ele>204</ele>
        <time>2024-04-06T12:37:23Z</time>
      </trkpt>
      <trkpt lat="49.9257" lon="4.59993">
        <ele>203.6</ele>
        <time>2024-04-06T12:37:24Z</time>
      </trkpt>
      <trkpt lat="49.92562" lon="4.59986">
        <ele>203.4</ele>
        <time>2024-04-06T12:37:25Z</time>
      </trkpt>
      <trkpt lat="49.92554" lon="4.59979">
        <ele>203.2</ele>
        <time>2024-04-06T12:37:26Z</time>
      </trkpt>
      <trkpt lat="49.92546" lon="4.59973">
        <ele>202.8</ele>
        <time>2024-04-06T12:37:27Z</time>
      </trkpt>
      <trkpt lat="49.92538" lon="4.59966">
        <ele>202.6</ele>
        <time>2024-04-06T12:37:28Z</time>
      </trkpt>
      <trkpt lat="49.9253" lon="4.5996">
        <ele>202.2</ele>
        <time>2024-04-06T12:37:29Z</time>
      </trkpt>
      <trkpt lat="49.92522" lon="4.59953">
        <ele>201.8</ele>
        <time>2024-04-06T12:37:30Z</time>
      </trkpt>
      <trkpt lat="49.92515" lon="4.59947">
        <ele>201.4</ele>
        <time>2024-04-06T12:37:31Z</time>
      </trkpt>
      <trkpt lat="49.92507" lon="4.59941">
        <ele>201.2</ele>
        <time>2024-04-06T12:37:32Z</time>
      </trkpt>
      <trkpt lat="49.92499" lon="4.59934">
        <ele>200.4</ele>
        <time>2024-04-06T12:37:33Z</time>
      </trkpt>
      <trkpt lat="49.92491" lon="4.59928">
        <ele>200</ele>
        <time>2024-04-06T12:37:34Z</time>
      </trkpt>
      <trkpt lat="49.92484" lon="4.59922">
        <ele>199.8</ele>
        <time>2024-04-06T12:37:35Z</time>
      </trkpt>
      <trkpt lat="49.92476" lon="4.59916">
        <ele>199.2</ele>
        <time>2024-04-06T12:37:36Z</time>
      </trkpt>
      <trkpt lat="49.92469" lon="4.5991">
        <ele>199</ele>
        <time>2024-04-06T12:37:37Z</time>
      </trkpt>
      <trkpt lat="49.92461" lon="4.59904">
        <ele>198.6</ele>
        <time>2024-04-06T12:37:38Z</time>
      </trkpt>
      <trkpt lat="49.92454" lon="4.59898">
        <ele>198.6</ele>
        <time>2024-04-06T12:37:39Z</time>
      </trkpt>
      <trkpt lat="49.92447" lon="4.59892">
        <ele>198.4</ele>
        <time>2024-04-06T12:37:40Z</time>
      </trkpt>
      <trkpt lat="49.92439" lon="4.59886">
        <ele>198.2</ele>
        <time>2024-04-06T12:37:41Z</time>
      </trkpt>
      <trkpt lat="49.92432" lon="4.5988">
        <ele>198.2</ele>
        <time>2024-04-06T12:37:42Z</time>
      </trkpt>
      <trkpt lat="49.92425" lon="4.59874">
        <ele>197.8</ele>
        <time>2024-04-06T12:37:43Z</time>
      </trkpt>
      <trkpt lat="49.92418" lon="4.59868">
        <ele>197.8</ele>
        <time>2024-04-06T12:37:44Z</time>
      </trkpt>
      <trkpt lat="49.9241" lon="4.59862">
        <ele>197.2</ele>
        <time>2024-04-06T12:37:45Z</time>
      </trkpt>
      <trkpt lat="49.92403" lon="4.59856">
        <ele>197</ele>
        <time>2024-04-06T12:37:46Z</time>
      </trkpt>
      <trkpt lat="49.92395" lon="4.5985">
        <ele>197</ele>
        <time>2024-04-06T12:37:47Z</time>
      </trkpt>
      <trkpt lat="49.92388" lon="4.59844">
        <ele>197</ele>
        <time>2024-04-06T12:37:48Z</time>
      </trkpt>
      <trkpt lat="49.9238" lon="4.59838">
        <ele>196.6</ele>
        <time>2024-04-06T12:37:49Z</time>
      </trkpt>
      <trkpt lat="49.92373" lon="4.59831">
        <ele>196.8</ele>
        <time>2024-04-06T12:37:50Z</time>
      </trkpt>
      <trkpt lat="49.92365" lon="4.59825">
        <ele>196.6</ele>
        <time>2024-04-06T12:37:51Z</time>
      </trkpt>
      <trkpt lat="49.92357" lon="4.59819">
        <ele>196.6</ele>
        <time>2024-04-06T12:37:52Z</time>
      </trkpt>
      <trkpt lat="49.9235" lon="4.59813">
        <ele>196.4</ele>
        <time>2024-04-06T12:37:53Z</time>
      </trkpt>
      <trkpt lat="49.92342" lon="4.59806">
        <ele>196</ele>
        <time>2024-04-06T12:37:54Z</time>
      </trkpt>
      <trkpt lat="49.92334" lon="4.598">
        <ele>195.8</ele>
        <time>2024-04-06T12:37:55Z</time>
      </trkpt>
      <trkpt lat="49.92327" lon="4.59793">
        <ele>195.6</ele>
        <time>2024-04-06T12:37:56Z</time>
      </trkpt>
      <trkpt lat="49.92319" lon="4.59787">
        <ele>195.6</ele>
        <time>2024-04-06T12:37:57Z</time>
      </trkpt>
      <trkpt lat="49.92311" lon="4.59781">
        <ele>195.6</ele>
        <time>2024-04-06T12:37:58Z</time>
      </trkpt>
      <trkpt lat="49.92303" lon="4.59774">
        <ele>195.4</ele>
        <time>2024-04-06T12:37:59Z</time>
      </trkpt>
      <trkpt lat="49.92296" lon="4.59768">
        <ele>195.4</ele>
        <time>2024-04-06T12:38:00Z</time>
      </trkpt>
      <trkpt lat="49.92288" lon="4.59762">
        <ele>195.2</ele>
        <time>2024-04-06T12:38:01Z</time>
      </trkpt>
      <trkpt lat="49.92281" lon="4.59756">
        <ele>195.2</ele>
        <time>2024-04-06T12:38:02Z</time>
      </trkpt>
      <trkpt lat="49.92273" lon="4.5975">
        <ele>195</ele>
        <time>2024-04-06T12:38:03Z</time>
      </trkpt>
      <trkpt lat="49.92265" lon="4.59744">
        <ele>195</ele>
        <time>2024-04-06T12:38:04Z</time>
      </trkpt>
      <trkpt lat="49.92258" lon="4.59737">
        <ele>194.8</ele>
        <time>2024-04-06T12:38:05Z</time>
      </trkpt>
      <trkpt lat="49.9225" lon="4.59731">
        <ele>194.6</ele>
        <time>2024-04-06T12:38:06Z</time>
      </trkpt>
      <trkpt lat="49.92243" lon="4.59725">
        <ele>194.4</ele>
        <time>2024-04-06T12:38:07Z</time>
      </trkpt>
      <trkpt lat="49.92235" lon="4.59718">
        <ele>194.2</ele>
        <time>2024-04-06T12:38:08Z</time>
      </trkpt>
      <trkpt lat="49.92228" lon="4.59712">
        <ele>194</ele>
        <time>2024-04-06T12:38:09Z</time>
      </trkpt>
      <trkpt lat="49.92221" lon="4.59706">
        <ele>194</ele>
        <time>2024-04-06T12:38:10Z</time>
      </trkpt>
      <trkpt lat="49.92213" lon="4.59701">
        <ele>193.6</ele>
        <time>2024-04-06T12:38:11Z</time>
      </trkpt>
      <trkpt lat="49.92206" lon="4.59695">
        <ele>193.6</ele>
        <time>2024-04-06T12:38:12Z</time>
      </trkpt>
      <trkpt lat="49.92199" lon="4.59689">
        <ele>193.4</ele>
        <time>2024-04-06T12:38:13Z</time>
      </trkpt>
      <trkpt lat="49.92192" lon="4.59683">
        <ele>192.6</ele>
        <time>2024-04-06T12:38:14Z</time>
      </trkpt>
      <trkpt lat="49.92185" lon="4.59677">
        <ele>191.4</ele>
        <time>2024-04-06T12:38:15Z</time>
      </trkpt>
      <trkpt lat="49.92178" lon="4.59672">
        <ele>190.8</ele>
        <time>2024-04-06T12:38:16Z</time>
      </trkpt>
      <trkpt lat="49.92171" lon="4.59666">
        <ele>190.4</ele>
        <time>2024-04-06T12:38:17Z</time>
      </trkpt>
      <trkpt lat="49.92164" lon="4.5966">
        <ele>190.2</ele>
        <time>2024-04-06T12:38:18Z</time>
      </trkpt>
      <trkpt lat="49.92157" lon="4.59654">
        <ele>190.2</ele>
        <time>2024-04-06T12:38:19Z</time>
      </trkpt>
      <trkpt lat="49.9215" lon="4.59647">
        <ele>190</ele>
        <time>2024-04-06T12:38:20Z</time>
      </trkpt>
      <trkpt lat="49.92143" lon="4.59641">
        <ele>189.8</ele>
        <time>2024-04-06T12:38:21Z</time>
      </trkpt>
      <trkpt lat="49.92136" lon="4.59634">
        <ele>189.2</ele>
        <time>2024-04-06T12:38:22Z</time>
      </trkpt>
      <trkpt lat="49.9213" lon="4.59626">
        <ele>189.2</ele>
        <time>2024-04-06T12:38:23Z</time>
      </trkpt>
      <trkpt lat="49.92123" lon="4.59618">
        <ele>189.2</ele>
        <time>2024-04-06T12:38:24Z</time>
      </trkpt>
      <trkpt lat="49.92116" lon="4.59611">
        <ele>189</ele>
        <time>2024-04-06T12:38:25Z</time>
      </trkpt>
      <trkpt lat="49.9211" lon="4.59603">
        <ele>188.8</ele>
        <time>2024-04-06T12:38:26Z</time>
      </trkpt>
      <trkpt lat="49.92104" lon="4.59594">
        <ele>188.6</ele>
        <time>2024-04-06T12:38:27Z</time>
      </trkpt>
      <trkpt lat="49.92098" lon="4.59585">
        <ele>188.6</ele>
        <time>2024-04-06T12:38:28Z</time>
      </trkpt>
      <trkpt lat="49.92092" lon="4.59576">
        <ele>188.2</ele>
        <time>2024-04-06T12:38:29Z</time>
      </trkpt>
      <trkpt lat="49.92086" lon="4.59567">
        <ele>188</ele>
        <time>2024-04-06T12:38:30Z</time>
      </trkpt>
      <trkpt lat="49.9208" lon="4.59557">
        <ele>187.4</ele>
        <time>2024-04-06T12:38:31Z</time>
      </trkpt>
      <trkpt lat="49.92075" lon="4.59547">
        <ele>187</ele>
        <time>2024-04-06T12:38:32Z</time>
      </trkpt>
      <trkpt lat="49.9207" lon="4.59536">
        <ele>187</ele>
        <time>2024-04-06T12:38:33Z</time>
      </trkpt>
      <trkpt lat="49.92065" lon="4.59525">
        <ele>186.6</ele>
        <time>2024-04-06T12:38:34Z</time>
      </trkpt>
      <trkpt lat="49.9206" lon="4.59514">
        <ele>186.4</ele>
        <time>2024-04-06T12:38:35Z</time>
      </trkpt>
      <trkpt lat="49.92056" lon="4.59502">
        <ele>186.4</ele>
        <time>2024-04-06T12:38:36Z</time>
      </trkpt>
      <trkpt lat="49.92052" lon="4.59491">
        <ele>186</ele>
        <time>2024-04-06T12:38:37Z</time>
      </trkpt>
      <trkpt lat="49.92048" lon="4.59479">
        <ele>185.6</ele>
        <time>2024-04-06T12:38:38Z</time>
      </trkpt>
      <trkpt lat="49.92045" lon="4.59467">
        <ele>185.2</ele>
        <time>2024-04-06T12:38:39Z</time>
      </trkpt>
      <trkpt lat="49.92042" lon="4.59455">
        <ele>185.2</ele>
        <time>2024-04-06T12:38:40Z</time>
      </trkpt>
      <trkpt lat="49.92039" lon="4.59443">
        <ele>185.2</ele>
        <time>2024-04-06T12:38:41Z</time>
      </trkpt>
      <trkpt lat="49.92036" lon="4.59431">
        <ele>185</ele>
        <time>2024-04-06T12:38:42Z</time>
      </trkpt>
      <trkpt lat="49.92033" lon="4.59419">
        <ele>185</ele>
        <time>2024-04-06T12:38:43Z</time>
      </trkpt>
      <trkpt lat="49.92031" lon="4.59407">
        <ele>185</ele>
        <time>2024-04-06T12:38:44Z</time>
      </trkpt>
      <trkpt lat="49.92029" lon="4.59395">
        <ele>185</ele>
        <time>2024-04-06T12:38:45Z</time>
      </trkpt>
      <trkpt lat="49.92027" lon="4.59383">
        <ele>185</ele>
        <time>2024-04-06T12:38:46Z</time>
      </trkpt>
      <trkpt lat="49.92026" lon="4.59372">
        <ele>185</ele>
        <time>2024-04-06T12:38:47Z</time>
      </trkpt>
      <trkpt lat="49.92025" lon="4.59361">
        <ele>185</ele>
        <time>2024-04-06T12:38:48Z</time>
      </trkpt>
      <trkpt lat="49.92024" lon="4.59351">
        <ele>185</ele>
        <time>2024-04-06T12:38:49Z</time>
      </trkpt>
      <trkpt lat="49.92023" lon="4.59341">
        <ele>185.2</ele>
        <time>2024-04-06T12:38:50Z</time>
      </trkpt>
      <trkpt lat="49.92022" lon="4.59331">
        <ele>185.6</ele>
        <time>2024-04-06T12:38:51Z</time>
      </trkpt>
      <trkpt lat="49.92021" lon="4.59322">
        <ele>185.8</ele>
        <time>2024-04-06T12:38:52Z</time>
      </trkpt>
      <trkpt lat="49.9202" lon="4.59313">
        <ele>185.8</ele>
        <time>2024-04-06T12:38:53Z</time>
      </trkpt>
      <trkpt lat="49.9202" lon="4.59304">
        <ele>186.2</ele>
        <time>2024-04-06T12:38:54Z</time>
      </trkpt>
      <trkpt lat="49.92019" lon="4.59295">
        <ele>186.4</ele>
        <time>2024-04-06T12:38:55Z</time>
      </trkpt>
      <trkpt lat="49.92019" lon="4.59286">
        <ele>186.6</ele>
        <time>2024-04-06T12:38:56Z</time>
      </trkpt>
      <trkpt lat="49.92018" lon="4.59278">
        <ele>187</ele>
        <time>2024-04-06T12:38:57Z</time>
      </trkpt>
      <trkpt lat="49.92017" lon="4.5927">
        <ele>187</ele>
        <time>2024-04-06T12:38:58Z</time>
      </trkpt>
      <trkpt lat="49.92017" lon="4.59261">
        <ele>187.4</ele>
        <time>2024-04-06T12:38:59Z</time>
      </trkpt>
      <trkpt lat="49.92016" lon="4.59254">
        <ele>187.8</ele>
        <time>2024-04-06T12:39:00Z</time>
      </trkpt>
      <trkpt lat="49.92015" lon="4.59246">
        <ele>188.2</ele>
        <time>2024-04-06T12:39:01Z</time>
      </trkpt>
      <trkpt lat="49.92015" lon="4.5924">
        <ele>188.4</ele>
        <time>2024-04-06T12:39:02Z</time>
      </trkpt>
      <trkpt lat="49.92014" lon="4.59233">
        <ele>188.6</ele>
        <time>2024-04-06T12:39:03Z</time>
      </trkpt>
      <trkpt lat="49.92013" lon="4.59226">
        <ele>188.6</ele>
        <time>2024-04-06T12:39:04Z</time>
      </trkpt>
      <trkpt lat="49.92013" lon="4.5922">
        <ele>188.6</ele>
        <time>2024-04-06T12:39:05Z</time>
      </trkpt>
      <trkpt lat="49.92012" lon="4.59213">
        <ele>188.8</ele>
        <time>2024-04-06T12:39:06Z</time>
      </trkpt>
      <trkpt lat="49.92012" lon="4.59207">
        <ele>188.8</ele>
        <time>2024-04-06T12:39:07Z</time>
      </trkpt>
      <trkpt lat="49.92011" lon="4.59201">
        <ele>189</ele>
        <time>2024-04-06T12:39:08Z</time>
      </trkpt>
      <trkpt lat="49.92011" lon="4.59195">
        <ele>189.2</ele>
        <time>2024-04-06T12:39:09Z</time>
      </trkpt>
      <trkpt lat="49.9201" lon="4.59188">
        <ele>189.4</ele>
        <time>2024-04-06T12:39:10Z</time>
      </trkpt>
      <trkpt lat="49.9201" lon="4.59182">
        <ele>189.8</ele>
        <time>2024-04-06T12:39:11Z</time>
      </trkpt>
      <trkpt lat="49.92009" lon="4.59176">
        <ele>190.2</ele>
        <time>2024-04-06T12:39:12Z</time>
      </trkpt>
      <trkpt lat="49.92008" lon="4.59171">
        <ele>190.4</ele>
        <time>2024-04-06T12:39:13Z</time>
      </trkpt>
      <trkpt lat="49.92008" lon="4.59166">
        <ele>190.6</ele>
        <time>2024-04-06T12:39:14Z</time>
      </trkpt>
      <trkpt lat="49.92008" lon="4.5916">
        <ele>190.8</ele>
        <time>2024-04-06T12:39:15Z</time>
      </trkpt>
      <trkpt lat="49.92007" lon="4.59154">
        <ele>191</ele>
        <time>2024-04-06T12:39:16Z</time>
      </trkpt>
      <trkpt lat="49.92006" lon="4.59148">
        <ele>191.2</ele>
        <time>2024-04-06T12:39:17Z</time>
      </trkpt>
      <trkpt lat="49.92005" lon="4.59142">
        <ele>191.6</ele>
        <time>2024-04-06T12:39:18Z</time>
      </trkpt>
      <trkpt lat="49.92005" lon="4.59136">
        <ele>191.6</ele>
        <time>2024-04-06T12:39:19Z</time>
      </trkpt>
      <trkpt lat="49.92004" lon="4.5913">
        <ele>192</ele>
        <time>2024-04-06T12:39:20Z</time>
      </trkpt>
      <trkpt lat="49.92004" lon="4.59124">
        <ele>192.2</ele>
        <time>2024-04-06T12:39:21Z</time>
      </trkpt>
      <trkpt lat="49.92003" lon="4.59119">
        <ele>192.4</ele>
        <time>2024-04-06T12:39:22Z</time>
      </trkpt>
      <trkpt lat="49.92003" lon="4.59114">
        <ele>192.6</ele>
        <time>2024-04-06T12:39:23Z</time>
      </trkpt>
      <trkpt lat="49.92002" lon="4.59108">
        <ele>192.8</ele>
        <time>2024-04-06T12:39:24Z</time>
      </trkpt>
      <trkpt lat="49.92002" lon="4.59103">
        <ele>193</ele>
        <time>2024-04-06T12:39:25Z</time>
      </trkpt>
      <trkpt lat="49.92001" lon="4.59098">
        <ele>193.4</ele>
        <time>2024-04-06T12:39:26Z</time>
      </trkpt>
      <trkpt lat="49.92001" lon="4.59093">
        <ele>193.4</ele>
        <time>2024-04-06T12:39:27Z</time>
      </trkpt>
      <trkpt lat="49.92" lon="4.59087">
        <ele>193.4</ele>
        <time>2024-04-06T12:39:28Z</time>
      </trkpt>
      <trkpt lat="49.92" lon="4.59082">
        <ele>193.8</ele>
        <time>2024-04-06T12:39:29Z</time>
      </trkpt>
      <trkpt lat="49.92" lon="4.59076">
        <ele>194</ele>
        <time>2024-04-06T12:39:30Z</time>
      </trkpt>
      <trkpt lat="49.91999" lon="4.59071">
        <ele>194.2</ele>
        <time>2024-04-06T12:39:31Z</time>
      </trkpt>
      <trkpt lat="49.91999" lon="4.59066">
        <ele>194.4</ele>
        <time>2024-04-06T12:39:32Z</time>
      </trkpt>
      <trkpt lat="49.91998" lon="4.5906">
        <ele>194.6</ele>
        <time>2024-04-06T12:39:33Z</time>
      </trkpt>
      <trkpt lat="49.91998" lon="4.59055">
        <ele>194.6</ele>
        <time>2024-04-06T12:39:34Z</time>
      </trkpt>
      <trkpt lat="49.91997" lon="4.59049">
        <ele>194.8</ele>
        <time>2024-04-06T12:39:35Z</time>
      </trkpt>
      <trkpt lat="49.91997" lon="4.59045">
        <ele>194.8</ele>
        <time>2024-04-06T12:39:36Z</time>
      </trkpt>
      <trkpt lat="49.91996" lon="4.5904">
        <ele>195.4</ele>
        <time>2024-04-06T12:39:37Z</time>
      </trkpt>
      <trkpt lat="49.91995" lon="4.59035">
        <ele>195.6</ele>
        <time>2024-04-06T12:39:38Z</time>
      </trkpt>
      <trkpt lat="49.91995" lon="4.5903">
        <ele>195.8</ele>
        <time>2024-04-06T12:39:39Z</time>
      </trkpt>
      <trkpt lat="49.91995" lon="4.59025">
        <ele>196</ele>
        <time>2024-04-06T12:39:40Z</time>
      </trkpt>
      <trkpt lat="49.91995" lon="4.59019">
        <ele>195.8</ele>
        <time>2024-04-06T12:39:41Z</time>
      </trkpt>
      <trkpt lat="49.91995" lon="4.59014">
        <ele>196</ele>
        <time>2024-04-06T12:39:42Z</time>
      </trkpt>
      <trkpt lat="49.91994" lon="4.59008">
        <ele>196</ele>
        <time>2024-04-06T12:39:43Z</time>
      </trkpt>
      <trkpt lat="49.91993" lon="4.59003">
        <ele>196.2</ele>
        <time>2024-04-06T12:39:44Z</time>
      </trkpt>
      <trkpt lat="49.91992" lon="4.58997">
        <ele>196.4</ele>
        <time>2024-04-06T12:39:45Z</time>
      </trkpt>
      <trkpt lat="49.91992" lon="4.58991">
        <ele>196.4</ele>
        <time>2024-04-06T12:39:46Z</time>
      </trkpt>
      <trkpt lat="49.91991" lon="4.58986">
        <ele>196.6</ele>
        <time>2024-04-06T12:39:47Z</time>
      </trkpt>
      <trkpt lat="49.91991" lon="4.58981">
        <ele>196.6</ele>
        <time>2024-04-06T12:39:48Z</time>
      </trkpt>
      <trkpt lat="49.9199" lon="4.58975">
        <ele>196.8</ele>
        <time>2024-04-06T12:39:49Z</time>
      </trkpt>
      <trkpt lat="49.9199" lon="4.58969">
        <ele>196.8</ele>
        <time>2024-04-06T12:39:50Z</time>
      </trkpt>
      <trkpt lat="49.9199" lon="4.58964">
        <ele>196.8</ele>
        <time>2024-04-06T12:39:51Z</time>
      </trkpt>
      <trkpt lat="49.9199" lon="4.58958">
        <ele>197.2</ele>
        <time>2024-04-06T12:39:52Z</time>
      </trkpt>
      <trkpt lat="49.91989" lon="4.58951">
        <ele>197.6</ele>
        <time>2024-04-06T12:39:53Z</time>
      </trkpt>
      <trkpt lat="49.91989" lon="4.58945">
        <ele>197.8</ele>
        <time>2024-04-06T12:39:54Z</time>
      </trkpt>
      <trkpt lat="49.9199" lon="4.5894">
        <ele>198</ele>
        <time>2024-04-06T12:39:55Z</time>
      </trkpt>
      <trkpt lat="49.9199" lon="4.58934">
        <ele>198.2</ele>
        <time>2024-04-06T12:39:56Z</time>
      </trkpt>
      <trkpt lat="49.9199" lon="4.58928">
        <ele>198.6</ele>
        <time>2024-04-06T12:39:57Z</time>
      </trkpt>
      <trkpt lat="49.9199" lon="4.58923">
        <ele>199.2</ele>
        <time>2024-04-06T12:39:58Z</time>
      </trkpt>
      <trkpt lat="49.9199" lon="4.58917">
        <ele>199.4</ele>
        <time>2024-04-06T12:39:59Z</time>
      </trkpt>
      <trkpt lat="49.91991" lon="4.58912">
        <ele>199.6</ele>
        <time>2024-04-06T12:40:00Z</time>
      </trkpt>
      <trkpt lat="49.91992" lon="4.58907">
        <ele>200</ele>
        <time>2024-04-06T12:40:01Z</time>
      </trkpt>
      <trkpt lat="49.91993" lon="4.58901">
        <ele>200</ele>
        <time>2024-04-06T12:40:02Z</time>
      </trkpt>
      <trkpt lat="49.91995" lon="4.58895">
        <ele>200.2</ele>
        <time>2024-04-06T12:40:03Z</time>
      </trkpt>
      <trkpt lat="49.91996" lon="4.58888">
        <ele>200.4</ele>
        <time>2024-04-06T12:40:04Z</time>
      </trkpt>
      <trkpt lat="49.91997" lon="4.58882">
        <ele>200.4</ele>
        <time>2024-04-06T12:40:05Z</time>
      </trkpt>
      <trkpt lat="49.91998" lon="4.58876">
        <ele>200.6</ele>
        <time>2024-04-06T12:40:06Z</time>
      </trkpt>
      <trkpt lat="49.91999" lon="4.5887">
        <ele>200.8</ele>
        <time>2024-04-06T12:40:07Z</time>
      </trkpt>
      <trkpt lat="49.92001" lon="4.58864">
        <ele>200.8</ele>
        <time>2024-04-06T12:40:08Z</time>
      </trkpt>
      <trkpt lat="49.92002" lon="4.58858">
        <ele>201</ele>
        <time>2024-04-06T12:40:09Z</time>
      </trkpt>
      <trkpt lat="49.92004" lon="4.58852">
        <ele>201</ele>
        <time>2024-04-06T12:40:10Z</time>
      </trkpt>
      <trkpt lat="49.92005" lon="4.58846">
        <ele>201</ele>
        <time>2024-04-06T12:40:11Z</time>
      </trkpt>
      <trkpt lat="49.92007" lon="4.58841">
        <ele>201.2</ele>
        <time>2024-04-06T12:40:12Z</time>
      </trkpt>
      <trkpt lat="49.92009" lon="4.58836">
        <ele>201.4</ele>
        <time>2024-04-06T12:40:13Z</time>
      </trkpt>
      <trkpt lat="49.92011" lon="4.58831">
        <ele>201.4</ele>
        <time>2024-04-06T12:40:14Z</time>
      </trkpt>
      <trkpt lat="49.92013" lon="4.58825">
        <ele>201.6</ele>
        <time>2024-04-06T12:40:15Z</time>
      </trkpt>
      <trkpt lat="49.92016" lon="4.58819">
        <ele>201.8</ele>
        <time>2024-04-06T12:40:16Z</time>
      </trkpt>
      <trkpt lat="49.92019" lon="4.58812">
        <ele>201.8</ele>
        <time>2024-04-06T12:40:17Z</time>
      </trkpt>
      <trkpt lat="49.92021" lon="4.58805">
        <ele>201.8</ele>
        <time>2024-04-06T12:40:18Z</time>
      </trkpt>
      <trkpt lat="49.92024" lon="4.58799">
        <ele>201.8</ele>
        <time>2024-04-06T12:40:19Z</time>
      </trkpt>
      <trkpt lat="49.92027" lon="4.58792">
        <ele>201.8</ele>
        <time>2024-04-06T12:40:20Z</time>
      </trkpt>
      <trkpt lat="49.9203" lon="4.58785">
        <ele>202</ele>
        <time>2024-04-06T12:40:21Z</time>
      </trkpt>
      <trkpt lat="49.92033" lon="4.58779">
        <ele>202</ele>
        <time>2024-04-06T12:40:22Z</time>
      </trkpt>
      <trkpt lat="49.92037" lon="4.58773">
        <ele>201.8</ele>
        <time>2024-04-06T12:40:23Z</time>
      </trkpt>
      <trkpt lat="49.9204" lon="4.58767">
        <ele>201.8</ele>
        <time>2024-04-06T12:40:24Z</time>
      </trkpt>
      <trkpt lat="49.92044" lon="4.58761">
        <ele>201.8</ele>
        <time>2024-04-06T12:40:25Z</time>
      </trkpt>
      <trkpt lat="49.92048" lon="4.58755">
        <ele>201.8</ele>
        <time>2024-04-06T12:40:26Z</time>
      </trkpt>
      <trkpt lat="49.92052" lon="4.58749">
        <ele>201.6</ele>
        <time>2024-04-06T12:40:27Z</time>
      </trkpt>
      <trkpt lat="49.92056" lon="4.58744">
        <ele>201.6</ele>
        <time>2024-04-06T12:40:28Z</time>
      </trkpt>
      <trkpt lat="49.9206" lon="4.58739">
        <ele>201.6</ele>
        <time>2024-04-06T12:40:29Z</time>
      </trkpt>
      <trkpt lat="49.92064" lon="4.58735">
        <ele>201.6</ele>
        <time>2024-04-06T12:40:30Z</time>
      </trkpt>
      <trkpt lat="49.92068" lon="4.5873">
        <ele>201.6</ele>
        <time>2024-04-06T12:40:31Z</time>
      </trkpt>
      <trkpt lat="49.92072" lon="4.58725">
        <ele>201.4</ele>
        <time>2024-04-06T12:40:32Z</time>
      </trkpt>
      <trkpt lat="49.92076" lon="4.58721">
        <ele>201.4</ele>
        <time>2024-04-06T12:40:33Z</time>
      </trkpt>
      <trkpt lat="49.9208" lon="4.58716">
        <ele>201.4</ele>
        <time>2024-04-06T12:40:34Z</time>
      </trkpt>
      <trkpt lat="49.92084" lon="4.58711">
        <ele>201.2</ele>
        <time>2024-04-06T12:40:35Z</time>
      </trkpt>
      <trkpt lat="49.92088" lon="4.58706">
        <ele>201.2</ele>
        <time>2024-04-06T12:40:36Z</time>
      </trkpt>
      <trkpt lat="49.92092" lon="4.58702">
        <ele>201.2</ele>
        <time>2024-04-06T12:40:37Z</time>
      </trkpt>
      <trkpt lat="49.92096" lon="4.58697">
        <ele>201.2</ele>
        <time>2024-04-06T12:40:38Z</time>
      </trkpt>
      <trkpt lat="49.921" lon="4.58692">
        <ele>201</ele>
        <time>2024-04-06T12:40:39Z</time>
      </trkpt>
      <trkpt lat="49.92103" lon="4.58687">
        <ele>201</ele>
        <time>2024-04-06T12:40:40Z</time>
      </trkpt>
      <trkpt lat="49.92107" lon="4.58682">
        <ele>201.2</ele>
        <time>2024-04-06T12:40:41Z</time>
      </trkpt>
      <trkpt lat="49.9211" lon="4.58677">
        <ele>201.2</ele>
        <time>2024-04-06T12:40:42Z</time>
      </trkpt>
      <trkpt lat="49.92114" lon="4.58671">
        <ele>201</ele>
        <time>2024-04-06T12:40:43Z</time>
      </trkpt>
      <trkpt lat="49.92117" lon="4.58666">
        <ele>201</ele>
        <time>2024-04-06T12:40:44Z</time>
      </trkpt>
      <trkpt lat="49.9212" lon="4.5866">
        <ele>201.2</ele>
        <time>2024-04-06T12:40:45Z</time>
      </trkpt>
      <trkpt lat="49.92123" lon="4.58654">
        <ele>201.2</ele>
        <time>2024-04-06T12:40:46Z</time>
      </trkpt>
      <trkpt lat="49.92126" lon="4.58648">
        <ele>201.2</ele>
        <time>2024-04-06T12:40:47Z</time>
      </trkpt>
      <trkpt lat="49.92128" lon="4.58642">
        <ele>201</ele>
        <time>2024-04-06T12:40:48Z</time>
      </trkpt>
      <trkpt lat="49.92131" lon="4.58635">
        <ele>201.2</ele>
        <time>2024-04-06T12:40:49Z</time>
      </trkpt>
      <trkpt lat="49.92133" lon="4.58629">
        <ele>201</ele>
        <time>2024-04-06T12:40:50Z</time>
      </trkpt>
      <trkpt lat="49.92136" lon="4.58622">
        <ele>201.2</ele>
        <time>2024-04-06T12:40:51Z</time>
      </trkpt>
      <trkpt lat="49.92138" lon="4.58616">
        <ele>201.2</ele>
        <time>2024-04-06T12:40:52Z</time>
      </trkpt>
      <trkpt lat="49.9214" lon="4.58609">
        <ele>201.4</ele>
        <time>2024-04-06T12:40:53Z</time>
      </trkpt>
      <trkpt lat="49.92142" lon="4.58602">
        <ele>201.4</ele>
        <time>2024-04-06T12:40:54Z</time>
      </trkpt>
      <trkpt lat="49.92144" lon="4.58596">
        <ele>201.4</ele>
        <time>2024-04-06T12:40:55Z</time>
      </trkpt>
      <trkpt lat="49.92145" lon="4.58589">
        <ele>201.4</ele>
        <time>2024-04-06T12:40:56Z</time>
      </trkpt>
      <trkpt lat="49.92147" lon="4.5858">
        <ele>201.6</ele>
        <time>2024-04-06T12:40:57Z</time>
      </trkpt>
      <trkpt lat="49.92148" lon="4.58572">
        <ele>201.6</ele>
        <time>2024-04-06T12:40:58Z</time>
      </trkpt>
      <trkpt lat="49.92149" lon="4.58563">
        <ele>201.6</ele>
        <time>2024-04-06T12:40:59Z</time>
      </trkpt>
      <trkpt lat="49.9215" lon="4.58553">
        <ele>201.6</ele>
        <time>2024-04-06T12:41:00Z</time>
      </trkpt>
      <trkpt lat="49.92151" lon="4.58544">
        <ele>201.6</ele>
        <time>2024-04-06T12:41:01Z</time>
      </trkpt>
      <trkpt lat="49.92152" lon="4.58537">
        <ele>201.6</ele>
        <time>2024-04-06T12:41:02Z</time>
      </trkpt>
      <trkpt lat="49.92153" lon="4.5853">
        <ele>201.8</ele>
        <time>2024-04-06T12:41:03Z</time>
      </trkpt>
      <trkpt lat="49.92154" lon="4.58524">
        <ele>201.8</ele>
        <time>2024-04-06T12:41:04Z</time>
      </trkpt>
      <trkpt lat="49.92155" lon="4.58516">
        <ele>201.8</ele>
        <time>2024-04-06T12:41:05Z</time>
      </trkpt>
      <trkpt lat="49.92156" lon="4.58509">
        <ele>201.8</ele>
        <time>2024-04-06T12:41:06Z</time>
      </trkpt>
      <trkpt lat="49.92157" lon="4.58503">
        <ele>202</ele>
        <time>2024-04-06T12:41:07Z</time>
      </trkpt>
      <trkpt lat="49.92158" lon="4.58496">
        <ele>202</ele>
        <time>2024-04-06T12:41:08Z</time>
      </trkpt>
      <trkpt lat="49.92159" lon="4.5849">
        <ele>202</ele>
        <time>2024-04-06T12:41:09Z</time>
      </trkpt>
      <trkpt lat="49.9216" lon="4.58484">
        <ele>202</ele>
        <time>2024-04-06T12:41:10Z</time>
      </trkpt>
      <trkpt lat="49.92161" lon="4.58478">
        <ele>202.4</ele>
        <time>2024-04-06T12:41:11Z</time>
      </trkpt>
      <trkpt lat="49.92162" lon="4.58472">
        <ele>202.6</ele>
        <time>2024-04-06T12:41:12Z</time>
      </trkpt>
      <trkpt lat="49.92162" lon="4.58467">
        <ele>202.6</ele>
        <time>2024-04-06T12:41:13Z</time>
      </trkpt>
      <trkpt lat="49.92163" lon="4.58461">
        <ele>202.6</ele>
        <time>2024-04-06T12:41:14Z</time>
      </trkpt>
      <trkpt lat="49.92164" lon="4.58455">
        <ele>202.8</ele>
        <time>2024-04-06T12:41:15Z</time>
      </trkpt>
      <trkpt lat="49.92165" lon="4.5845">
        <ele>203.2</ele>
        <time>2024-04-06T12:41:16Z</time>
      </trkpt>
      <trkpt lat="49.92166" lon="4.58445">
        <ele>203.4</ele>
        <time>2024-04-06T12:41:17Z</time>
      </trkpt>
      <trkpt lat="49.92166" lon="4.5844">
        <ele>203.6</ele>
        <time>2024-04-06T12:41:18Z</time>
      </trkpt>
      <trkpt lat="49.92167" lon="4.58434">
        <ele>203.6</ele>
        <time>2024-04-06T12:41:19Z</time>
      </trkpt>
      <trkpt lat="49.92168" lon="4.58429">
        <ele>203.6</ele>
        <time>2024-04-06T12:41:20Z</time>
      </trkpt>
      <trkpt lat="49.92169" lon="4.58424">
        <ele>203.8</ele>
        <time>2024-04-06T12:41:21Z</time>
      </trkpt>
      <trkpt lat="49.9217" lon="4.58419">
        <ele>203.6</ele>
        <time>2024-04-06T12:41:22Z</time>
      </trkpt>
      <trkpt lat="49.92171" lon="4.58413">
        <ele>203.8</ele>
        <time>2024-04-06T12:41:23Z</time>
      </trkpt>
      <trkpt lat="49.92172" lon="4.58408">
        <ele>203.8</ele>
        <time>2024-04-06T12:41:24Z</time>
      </trkpt>
      <trkpt lat="49.92173" lon="4.58403">
        <ele>204.2</ele>
        <time>2024-04-06T12:41:25Z</time>
      </trkpt>
      <trkpt lat="49.92174" lon="4.58398">
        <ele>204.6</ele>
        <time>2024-04-06T12:41:26Z</time>
      </trkpt>
      <trkpt lat="49.92175" lon="4.58393">
        <ele>204.8</ele>
        <time>2024-04-06T12:41:27Z</time>
      </trkpt>
      <trkpt lat="49.92176" lon="4.58387">
        <ele>205.2</ele>
        <time>2024-04-06T12:41:28Z</time>
      </trkpt>
      <trkpt lat="49.92177" lon="4.58382">
        <ele>205.2</ele>
        <time>2024-04-06T12:41:29Z</time>
      </trkpt>
      <trkpt lat="49.92177" lon="4.58377">
        <ele>205.4</ele>
        <time>2024-04-06T12:41:30Z</time>
      </trkpt>
      <trkpt lat="49.92178" lon="4.58372">
        <ele>205.4</ele>
        <time>2024-04-06T12:41:31Z</time>
      </trkpt>
      <trkpt lat="49.92179" lon="4.58367">
        <ele>205.8</ele>
        <time>2024-04-06T12:41:32Z</time>
      </trkpt>
      <trkpt lat="49.9218" lon="4.58362">
        <ele>205.8</ele>
        <time>2024-04-06T12:41:33Z</time>
      </trkpt>
      <trkpt lat="49.92181" lon="4.58356">
        <ele>206</ele>
        <time>2024-04-06T12:41:34Z</time>
      </trkpt>
      <trkpt lat="49.92182" lon="4.58351">
        <ele>206</ele>
        <time>2024-04-06T12:41:35Z</time>
      </trkpt>
      <trkpt lat="49.92183" lon="4.58345">
        <ele>206</ele>
        <time>2024-04-06T12:41:36Z</time>
      </trkpt>
      <trkpt lat="49.92184" lon="4.5834">
        <ele>206.2</ele>
        <time>2024-04-06T12:41:37Z</time>
      </trkpt>
      <trkpt lat="49.92185" lon="4.58334">
        <ele>206.2</ele>
        <time>2024-04-06T12:41:38Z</time>
      </trkpt>
      <trkpt lat="49.92185" lon="4.58329">
        <ele>206.2</ele>
        <time>2024-04-06T12:41:39Z</time>
      </trkpt>
      <trkpt lat="49.92186" lon="4.58324">
        <ele>206.4</ele>
        <time>2024-04-06T12:41:40Z</time>
      </trkpt>
      <trkpt lat="49.92187" lon="4.58318">
        <ele>206.6</ele>
        <time>2024-04-06T12:41:41Z</time>
      </trkpt>
      <trkpt lat="49.92188" lon="4.58313">
        <ele>206.6</ele>
        <time>2024-04-06T12:41:42Z</time>
      </trkpt>
      <trkpt lat="49.92189" lon="4.58308">
        <ele>206.8</ele>
        <time>2024-04-06T12:41:43Z</time>
      </trkpt>
      <trkpt lat="49.9219" lon="4.58303">
        <ele>206.8</ele>
        <time>2024-04-06T12:41:44Z</time>
      </trkpt>
      <trkpt lat="49.92191" lon="4.58298">
        <ele>207.2</ele>
        <time>2024-04-06T12:41:45Z</time>
      </trkpt>
      <trkpt lat="49.92192" lon="4.58293">
        <ele>207.2</ele>
        <time>2024-04-06T12:41:46Z</time>
      </trkpt>
      <trkpt lat="49.92193" lon="4.58287">
        <ele>207.4</ele>
        <time>2024-04-06T12:41:47Z</time>
      </trkpt>
      <trkpt lat="49.92194" lon="4.58282">
        <ele>207.6</ele>
        <time>2024-04-06T12:41:48Z</time>
      </trkpt>
      <trkpt lat="49.92195" lon="4.58277">
        <ele>207.6</ele>
        <time>2024-04-06T12:41:49Z</time>
      </trkpt>
      <trkpt lat="49.92196" lon="4.58271">
        <ele>207.6</ele>
        <time>2024-04-06T12:41:50Z</time>
      </trkpt>
      <trkpt lat="49.92197" lon="4.58266">
        <ele>207.8</ele>
        <time>2024-04-06T12:41:51Z</time>
      </trkpt>
      <trkpt lat="49.92198" lon="4.58261">
        <ele>207.6</ele>
        <time>2024-04-06T12:41:52Z</time>
      </trkpt>
      <trkpt lat="49.92198" lon="4.58256">
        <ele>207.8</ele>
        <time>2024-04-06T12:41:53Z</time>
      </trkpt>
      <trkpt lat="49.92199" lon="4.58251">
        <ele>208</ele>
        <time>2024-04-06T12:41:54Z</time>
      </trkpt>
      <trkpt lat="49.922" lon="4.58246">
        <ele>208</ele>
        <time>2024-04-06T12:41:55Z</time>
      </trkpt>
      <trkpt lat="49.92202" lon="4.58241">
        <ele>208</ele>
        <time>2024-04-06T12:41:56Z</time>
      </trkpt>
      <trkpt lat="49.92202" lon="4.58236">
        <ele>208.2</ele>
        <time>2024-04-06T12:41:57Z</time>
      </trkpt>
      <trkpt lat="49.92203" lon="4.58231">
        <ele>208.2</ele>
        <time>2024-04-06T12:41:58Z</time>
      </trkpt>
      <trkpt lat="49.92204" lon="4.58226">
        <ele>208.2</ele>
        <time>2024-04-06T12:41:59Z</time>
      </trkpt>
      <trkpt lat="49.92205" lon="4.5822">
        <ele>208.4</ele>
        <time>2024-04-06T12:42:00Z</time>
      </trkpt>
      <trkpt lat="49.92206" lon="4.58215">
        <ele>208.6</ele>
        <time>2024-04-06T12:42:01Z</time>
      </trkpt>
      <trkpt lat="49.92207" lon="4.5821">
        <ele>208.4</ele>
        <time>2024-04-06T12:42:02Z</time>
      </trkpt>
      <trkpt lat="49.92208" lon="4.58205">
        <ele>208.8</ele>
        <time>2024-04-06T12:42:03Z</time>
      </trkpt>
      <trkpt lat="49.92209" lon="4.58199">
        <ele>208.8</ele>
        <time>2024-04-06T12:42:04Z</time>
      </trkpt>
      <trkpt lat="49.92209" lon="4.58194">
        <ele>208.8</ele>
        <time>2024-04-06T12:42:05Z</time>
      </trkpt>
      <trkpt lat="49.9221" lon="4.58189">
        <ele>208.8</ele>
        <time>2024-04-06T12:42:06Z</time>
      </trkpt>
      <trkpt lat="49.92211" lon="4.58184">
        <ele>209</ele>
        <time>2024-04-06T12:42:07Z</time>
      </trkpt>
      <trkpt lat="49.92212" lon="4.58179">
        <ele>209</ele>
        <time>2024-04-06T12:42:08Z</time>
      </trkpt>
      <trkpt lat="49.92213" lon="4.58174">
        <ele>209.2</ele>
        <time>2024-04-06T12:42:09Z</time>
      </trkpt>
      <trkpt lat="49.92214" lon="4.58169">
        <ele>209.2</ele>
        <time>2024-04-06T12:42:10Z</time>
      </trkpt>
      <trkpt lat="49.92215" lon="4.58164">
        <ele>209.2</ele>
        <time>2024-04-06T12:42:11Z</time>
      </trkpt>
      <trkpt lat="49.92216" lon="4.5816">
        <ele>209.4</ele>
        <time>2024-04-06T12:42:12Z</time>
      </trkpt>
      <trkpt lat="49.92217" lon="4.58154">
        <ele>209.4</ele>
        <time>2024-04-06T12:42:13Z</time>
      </trkpt>
      <trkpt lat="49.92217" lon="4.5815">
        <ele>209.4</ele>
        <time>2024-04-06T12:42:14Z</time>
      </trkpt>
      <trkpt lat="49.92218" lon="4.58145">
        <ele>209.8</ele>
        <time>2024-04-06T12:42:15Z</time>
      </trkpt>
      <trkpt lat="49.92219" lon="4.5814">
        <ele>210</ele>
        <time>2024-04-06T12:42:16Z</time>
      </trkpt>
      <trkpt lat="49.9222" lon="4.58135">
        <ele>210.4</ele>
        <time>2024-04-06T12:42:17Z</time>
      </trkpt>
      <trkpt lat="49.9222" lon="4.58129">
        <ele>210.4</ele>
        <time>2024-04-06T12:42:18Z</time>
      </trkpt>
      <trkpt lat="49.92221" lon="4.58124">
        <ele>210.8</ele>
        <time>2024-04-06T12:42:19Z</time>
      </trkpt>
      <trkpt lat="49.92222" lon="4.58119">
        <ele>210.8</ele>
        <time>2024-04-06T12:42:20Z</time>
      </trkpt>
      <trkpt lat="49.92222" lon="4.58115">
        <ele>210.8</ele>
        <time>2024-04-06T12:42:21Z</time>
      </trkpt>
      <trkpt lat="49.92223" lon="4.5811">
        <ele>211</ele>
        <time>2024-04-06T12:42:22Z</time>
      </trkpt>
      <trkpt lat="49.92223" lon="4.58105">
        <ele>211.2</ele>
        <time>2024-04-06T12:42:23Z</time>
      </trkpt>
      <trkpt lat="49.92224" lon="4.581">
        <ele>211.2</ele>
        <time>2024-04-06T12:42:24Z</time>
      </trkpt>
      <trkpt lat="49.92224" lon="4.58096">
        <ele>211.2</ele>
        <time>2024-04-06T12:42:25Z</time>
      </trkpt>
      <trkpt lat="49.92225" lon="4.58091">
        <ele>211.2</ele>
        <time>2024-04-06T12:42:26Z</time>
      </trkpt>
      <trkpt lat="49.92225" lon="4.58087">
        <ele>211.4</ele>
        <time>2024-04-06T12:42:27Z</time>
      </trkpt>
      <trkpt lat="49.92226" lon="4.58082">
        <ele>211.6</ele>
        <time>2024-04-06T12:42:28Z</time>
      </trkpt>
      <trkpt lat="49.92226" lon="4.58078">
        <ele>212</ele>
        <time>2024-04-06T12:42:29Z</time>
      </trkpt>
      <trkpt lat="49.92226" lon="4.58073">
        <ele>212</ele>
        <time>2024-04-06T12:42:30Z</time>
      </trkpt>
      <trkpt lat="49.92226" lon="4.58069">
        <ele>212.2</ele>
        <time>2024-04-06T12:42:31Z</time>
      </trkpt>
      <trkpt lat="49.92226" lon="4.58064">
        <ele>212.4</ele>
        <time>2024-04-06T12:42:32Z</time>
      </trkpt>
      <trkpt lat="49.92226" lon="4.5806">
        <ele>212.6</ele>
        <time>2024-04-06T12:42:33Z</time>
      </trkpt>
      <trkpt lat="49.92226" lon="4.58055">
        <ele>212.8</ele>
        <time>2024-04-06T12:42:34Z</time>
      </trkpt>
      <trkpt lat="49.92226" lon="4.58051">
        <ele>213</ele>
        <time>2024-04-06T12:42:35Z</time>
      </trkpt>
      <trkpt lat="49.92226" lon="4.58047">
        <ele>213</ele>
        <time>2024-04-06T12:42:36Z</time>
      </trkpt>
      <trkpt lat="49.92226" lon="4.58042">
        <ele>213.4</ele>
        <time>2024-04-06T12:42:37Z</time>
      </trkpt>
      <trkpt lat="49.92226" lon="4.58038">
        <ele>213.4</ele>
        <time>2024-04-06T12:42:38Z</time>
      </trkpt>
      <trkpt lat="49.92226" lon="4.58034">
        <ele>213.8</ele>
        <time>2024-04-06T12:42:39Z</time>
      </trkpt>
      <trkpt lat="49.92225" lon="4.5803">
        <ele>214</ele>
        <time>2024-04-06T12:42:40Z</time>
      </trkpt>
      <trkpt lat="49.92225" lon="4.58026">
        <ele>214.4</ele>
        <time>2024-04-06T12:42:41Z</time>
      </trkpt>
      <trkpt lat="49.92224" lon="4.58023">
        <ele>214.4</ele>
        <time>2024-04-06T12:42:42Z</time>
      </trkpt>
      <trkpt lat="49.92224" lon="4.58019">
        <ele>214.4</ele>
        <time>2024-04-06T12:42:43Z</time>
      </trkpt>
      <trkpt lat="49.92223" lon="4.58015">
        <ele>214.6</ele>
        <time>2024-04-06T12:42:44Z</time>
      </trkpt>
      <trkpt lat="49.92223" lon="4.58012">
        <ele>214.8</ele>
        <time>2024-04-06T12:42:45Z</time>
      </trkpt>
      <trkpt lat="49.92222" lon="4.58008">
        <ele>214.6</ele>
        <time>2024-04-06T12:42:46Z</time>
      </trkpt>
      <trkpt lat="49.92222" lon="4.58005">
        <ele>215</ele>
        <time>2024-04-06T12:42:47Z</time>
      </trkpt>
      <trkpt lat="49.92222" lon="4.58002">
        <ele>215.2</ele>
        <time>2024-04-06T12:42:48Z</time>
      </trkpt>
      <trkpt lat="49.92222" lon="4.57999">
        <ele>215.4</ele>
        <time>2024-04-06T12:42:49Z</time>
      </trkpt>
      <trkpt lat="49.92221" lon="4.57996">
        <ele>215.4</ele>
        <time>2024-04-06T12:42:50Z</time>
      </trkpt>
      <trkpt lat="49.92221" lon="4.57992">
        <ele>215.8</ele>
        <time>2024-04-06T12:42:51Z</time>
      </trkpt>
      <trkpt lat="49.92221" lon="4.57988">
        <ele>216</ele>
        <time>2024-04-06T12:42:52Z</time>
      </trkpt>
      <trkpt lat="49.9222" lon="4.57985">
        <ele>216.4</ele>
        <time>2024-04-06T12:42:53Z</time>
      </trkpt>
      <trkpt lat="49.9222" lon="4.57982">
        <ele>216.6</ele>
        <time>2024-04-06T12:42:54Z</time>
      </trkpt>
      <trkpt lat="49.92219" lon="4.57979">
        <ele>217</ele>
        <time>2024-04-06T12:42:55Z</time>
      </trkpt>
      <trkpt lat="49.92219" lon="4.57977">
        <ele>217.2</ele>
        <time>2024-04-06T12:42:56Z</time>
      </trkpt>
      <trkpt lat="49.92219" lon="4.57974">
        <ele>217.6</ele>
        <time>2024-04-06T12:42:57Z</time>
      </trkpt>
      <trkpt lat="49.92218" lon="4.57971">
        <ele>218</ele>
        <time>2024-04-06T12:42:58Z</time>
      </trkpt>
      <trkpt lat="49.92218" lon="4.57968">
        <ele>218</ele>
        <time>2024-04-06T12:42:59Z</time>
      </trkpt>
      <trkpt lat="49.92218" lon="4.57965">
        <ele>218</ele>
        <time>2024-04-06T12:43:00Z</time>
      </trkpt>
      <trkpt lat="49.92218" lon="4.57962">
        <ele>218.2</ele>
        <time>2024-04-06T12:43:01Z</time>
      </trkpt>
      <trkpt lat="49.92218" lon="4.57959">
        <ele>218.2</ele>
        <time>2024-04-06T12:43:02Z</time>
      </trkpt>
      <trkpt lat="49.92218" lon="4.57956">
        <ele>218.4</ele>
        <time>2024-04-06T12:43:03Z</time>
      </trkpt>
      <trkpt lat="49.92218" lon="4.57954">
        <ele>218.8</ele>
        <time>2024-04-06T12:43:04Z</time>
      </trkpt>
      <trkpt lat="49.92218" lon="4.57951">
        <ele>219</ele>
        <time>2024-04-06T12:43:05Z</time>
      </trkpt>
      <trkpt lat="49.92217" lon="4.57949">
        <ele>219.4</ele>
        <time>2024-04-06T12:43:06Z</time>
      </trkpt>
      <trkpt lat="49.92217" lon="4.57946">
        <ele>219.4</ele>
        <time>2024-04-06T12:43:07Z</time>
      </trkpt>
      <trkpt lat="49.92217" lon="4.57942">
        <ele>219.8</ele>
        <time>2024-04-06T12:43:08Z</time>
      </trkpt>
      <trkpt lat="49.92216" lon="4.57939">
        <ele>220</ele>
        <time>2024-04-06T12:43:09Z</time>
      </trkpt>
      <trkpt lat="49.92216" lon="4.57936">
        <ele>220.4</ele>
        <time>2024-04-06T12:43:10Z</time>
      </trkpt>
      <trkpt lat="49.92216" lon="4.57933">
        <ele>220.6</ele>
        <time>2024-04-06T12:43:11Z</time>
      </trkpt>
      <trkpt lat="49.92216" lon="4.5793">
        <ele>220.8</ele>
        <time>2024-04-06T12:43:12Z</time>
      </trkpt>
      <trkpt lat="49.92216" lon="4.57927">
        <ele>220.8</ele>
        <time>2024-04-06T12:43:13Z</time>
      </trkpt>
      <trkpt lat="49.92215" lon="4.57925">
        <ele>221.2</ele>
        <time>2024-04-06T12:43:14Z</time>
      </trkpt>
      <trkpt lat="49.92215" lon="4.57921">
        <ele>221.2</ele>
        <time>2024-04-06T12:43:15Z</time>
      </trkpt>
      <trkpt lat="49.92214" lon="4.57919">
        <ele>221.4</ele>
        <time>2024-04-06T12:43:16Z</time>
      </trkpt>
      <trkpt lat="49.92214" lon="4.57916">
        <ele>221.4</ele>
        <time>2024-04-06T12:43:17Z</time>
      </trkpt>
      <trkpt lat="49.92213" lon="4.57913">
        <ele>221.6</ele>
        <time>2024-04-06T12:43:18Z</time>
      </trkpt>
      <trkpt lat="49.92213" lon="4.57909">
        <ele>221.6</ele>
        <time>2024-04-06T12:43:19Z</time>
      </trkpt>
      <trkpt lat="49.92213" lon="4.57905">
        <ele>221.6</ele>
        <time>2024-04-06T12:43:20Z</time>
      </trkpt>
      <trkpt lat="49.92212" lon="4.57902">
        <ele>221.8</ele>
        <time>2024-04-06T12:43:21Z</time>
      </trkpt>
      <trkpt lat="49.92212" lon="4.57899">
        <ele>222</ele>
        <time>2024-04-06T12:43:22Z</time>
      </trkpt>
      <trkpt lat="49.92211" lon="4.57895">
        <ele>222</ele>
        <time>2024-04-06T12:43:23Z</time>
      </trkpt>
      <trkpt lat="49.92211" lon="4.57892">
        <ele>222.2</ele>
        <time>2024-04-06T12:43:24Z</time>
      </trkpt>
      <trkpt lat="49.9221" lon="4.57889">
        <ele>222.2</ele>
        <time>2024-04-06T12:43:25Z</time>
      </trkpt>
      <trkpt lat="49.9221" lon="4.57884">
        <ele>222.4</ele>
        <time>2024-04-06T12:43:26Z</time>
      </trkpt>
      <trkpt lat="49.92209" lon="4.57881">
        <ele>222.6</ele>
        <time>2024-04-06T12:43:27Z</time>
      </trkpt>
      <trkpt lat="49.92209" lon="4.57878">
        <ele>222.8</ele>
        <time>2024-04-06T12:43:28Z</time>
      </trkpt>
      <trkpt lat="49.92208" lon="4.57874">
        <ele>222.8</ele>
        <time>2024-04-06T12:43:29Z</time>
      </trkpt>
      <trkpt lat="49.92207" lon="4.57869">
        <ele>223</ele>
        <time>2024-04-06T12:43:30Z</time>
      </trkpt>
      <trkpt lat="49.92206" lon="4.57865">
        <ele>223.2</ele>
        <time>2024-04-06T12:43:31Z</time>
      </trkpt>
      <trkpt lat="49.92205" lon="4.57861">
        <ele>223.8</ele>
        <time>2024-04-06T12:43:32Z</time>
      </trkpt>
      <trkpt lat="49.92205" lon="4.57857">
        <ele>223.8</ele>
        <time>2024-04-06T12:43:33Z</time>
      </trkpt>
      <trkpt lat="49.92204" lon="4.57853">
        <ele>223.8</ele>
        <time>2024-04-06T12:43:34Z</time>
      </trkpt>
      <trkpt lat="49.92203" lon="4.57849">
        <ele>224</ele>
        <time>2024-04-06T12:43:35Z</time>
      </trkpt>
      <trkpt lat="49.92202" lon="4.57845">
        <ele>224.4</ele>
        <time>2024-04-06T12:43:36Z</time>
      </trkpt>
      <trkpt lat="49.92201" lon="4.57842">
        <ele>224.6</ele>
        <time>2024-04-06T12:43:37Z</time>
      </trkpt>
      <trkpt lat="49.922" lon="4.57838">
        <ele>225</ele>
        <time>2024-04-06T12:43:38Z</time>
      </trkpt>
      <trkpt lat="49.92199" lon="4.57835">
        <ele>225.2</ele>
        <time>2024-04-06T12:43:39Z</time>
      </trkpt>
      <trkpt lat="49.92198" lon="4.57831">
        <ele>225.4</ele>
        <time>2024-04-06T12:43:40Z</time>
      </trkpt>
      <trkpt lat="49.92197" lon="4.57827">
        <ele>225.4</ele>
        <time>2024-04-06T12:43:41Z</time>
      </trkpt>
      <trkpt lat="49.92197" lon="4.57823">
        <ele>225.6</ele>
        <time>2024-04-06T12:43:42Z</time>
      </trkpt>
      <trkpt lat="49.92196" lon="4.57818">
        <ele>225.6</ele>
        <time>2024-04-06T12:43:43Z</time>
      </trkpt>
      <trkpt lat="49.92195" lon="4.57814">
        <ele>225.6</ele>
        <time>2024-04-06T12:43:44Z</time>
      </trkpt>
      <trkpt lat="49.92194" lon="4.5781">
        <ele>226</ele>
        <time>2024-04-06T12:43:45Z</time>
      </trkpt>
      <trkpt lat="49.92193" lon="4.57806">
        <ele>226.6</ele>
        <time>2024-04-06T12:43:46Z</time>
      </trkpt>
      <trkpt lat="49.92192" lon="4.57802">
        <ele>226.6</ele>
        <time>2024-04-06T12:43:47Z</time>
      </trkpt>
      <trkpt lat="49.92191" lon="4.57798">
        <ele>226.6</ele>
        <time>2024-04-06T12:43:48Z</time>
      </trkpt>
      <trkpt lat="49.9219" lon="4.57794">
        <ele>227</ele>
        <time>2024-04-06T12:43:49Z</time>
      </trkpt>
      <trkpt lat="49.92189" lon="4.57789">
        <ele>227.2</ele>
        <time>2024-04-06T12:43:50Z</time>
      </trkpt>
      <trkpt lat="49.92188" lon="4.57785">
        <ele>227.4</ele>
        <time>2024-04-06T12:43:51Z</time>
      </trkpt>
      <trkpt lat="49.92187" lon="4.57782">
        <ele>227.6</ele>
        <time>2024-04-06T12:43:52Z</time>
      </trkpt>
      <trkpt lat="49.92186" lon="4.57778">
        <ele>227.8</ele>
        <time>2024-04-06T12:43:53Z</time>
      </trkpt>
      <trkpt lat="49.92185" lon="4.57774">
        <ele>228</ele>
        <time>2024-04-06T12:43:54Z</time>
      </trkpt>
      <trkpt lat="49.92183" lon="4.57769">
        <ele>227.8</ele>
        <time>2024-04-06T12:43:55Z</time>
      </trkpt>
      <trkpt lat="49.92182" lon="4.57764">
        <ele>228</ele>
        <time>2024-04-06T12:43:56Z</time>
      </trkpt>
      <trkpt lat="49.92181" lon="4.57759">
        <ele>228</ele>
        <time>2024-04-06T12:43:57Z</time>
      </trkpt>
      <trkpt lat="49.92179" lon="4.57754">
        <ele>228.2</ele>
        <time>2024-04-06T12:43:58Z</time>
      </trkpt>
      <trkpt lat="49.92178" lon="4.57749">
        <ele>228.4</ele>
        <time>2024-04-06T12:43:59Z</time>
      </trkpt>
      <trkpt lat="49.92177" lon="4.57744">
        <ele>228.4</ele>
        <time>2024-04-06T12:44:00Z</time>
      </trkpt>
      <trkpt lat="49.92175" lon="4.57739">
        <ele>228.6</ele>
        <time>2024-04-06T12:44:01Z</time>
      </trkpt>
      <trkpt lat="49.92174" lon="4.57734">
        <ele>228.8</ele>
        <time>2024-04-06T12:44:02Z</time>
      </trkpt>
      <trkpt lat="49.92173" lon="4.57728">
        <ele>229</ele>
        <time>2024-04-06T12:44:03Z</time>
      </trkpt>
      <trkpt lat="49.92172" lon="4.57723">
        <ele>228.8</ele>
        <time>2024-04-06T12:44:04Z</time>
      </trkpt>
      <trkpt lat="49.92171" lon="4.57718">
        <ele>229</ele>
        <time>2024-04-06T12:44:05Z</time>
      </trkpt>
      <trkpt lat="49.92169" lon="4.57713">
        <ele>229.4</ele>
        <time>2024-04-06T12:44:06Z</time>
      </trkpt>
      <trkpt lat="49.92168" lon="4.57708">
        <ele>229.4</ele>
        <time>2024-04-06T12:44:07Z</time>
      </trkpt>
      <trkpt lat="49.92167" lon="4.57703">
        <ele>229.8</ele>
        <time>2024-04-06T12:44:08Z</time>
      </trkpt>
      <trkpt lat="49.92166" lon="4.57698">
        <ele>230</ele>
        <time>2024-04-06T12:44:09Z</time>
      </trkpt>
      <trkpt lat="49.92165" lon="4.57693">
        <ele>230.2</ele>
        <time>2024-04-06T12:44:10Z</time>
      </trkpt>
      <trkpt lat="49.92163" lon="4.57688">
        <ele>230.4</ele>
        <time>2024-04-06T12:44:11Z</time>
      </trkpt>
      <trkpt lat="49.92162" lon="4.57682">
        <ele>230.6</ele>
        <time>2024-04-06T12:44:12Z</time>
      </trkpt>
      <trkpt lat="49.92161" lon="4.57677">
        <ele>231</ele>
        <time>2024-04-06T12:44:13Z</time>
      </trkpt>
      <trkpt lat="49.9216" lon="4.57672">
        <ele>231.2</ele>
        <time>2024-04-06T12:44:14Z</time>
      </trkpt>
      <trkpt lat="49.92158" lon="4.57667">
        <ele>231.2</ele>
        <time>2024-04-06T12:44:15Z</time>
      </trkpt>
      <trkpt lat="49.92156" lon="4.57662">
        <ele>231.4</ele>
        <time>2024-04-06T12:44:16Z</time>
      </trkpt>
      <trkpt lat="49.92155" lon="4.57658">
        <ele>231.6</ele>
        <time>2024-04-06T12:44:17Z</time>
      </trkpt>
      <trkpt lat="49.92154" lon="4.57653">
        <ele>231.8</ele>
        <time>2024-04-06T12:44:18Z</time>
      </trkpt>
      <trkpt lat="49.92152" lon="4.57648">
        <ele>232</ele>
        <time>2024-04-06T12:44:19Z</time>
      </trkpt>
      <trkpt lat="49.92151" lon="4.57643">
        <ele>232</ele>
        <time>2024-04-06T12:44:20Z</time>
      </trkpt>
      <trkpt lat="49.9215" lon="4.57638">
        <ele>232.2</ele>
        <time>2024-04-06T12:44:21Z</time>
      </trkpt>
      <trkpt lat="49.92148" lon="4.57634">
        <ele>232.4</ele>
        <time>2024-04-06T12:44:22Z</time>
      </trkpt>
      <trkpt lat="49.92147" lon="4.57629">
        <ele>232.6</ele>
        <time>2024-04-06T12:44:23Z</time>
      </trkpt>
      <trkpt lat="49.92145" lon="4.57625">
        <ele>232.8</ele>
        <time>2024-04-06T12:44:24Z</time>
      </trkpt>
      <trkpt lat="49.92143" lon="4.57621">
        <ele>233</ele>
        <time>2024-04-06T12:44:25Z</time>
      </trkpt>
      <trkpt lat="49.92142" lon="4.57616">
        <ele>233.4</ele>
        <time>2024-04-06T12:44:26Z</time>
      </trkpt>
      <trkpt lat="49.9214" lon="4.57612">
        <ele>233.6</ele>
        <time>2024-04-06T12:44:27Z</time>
      </trkpt>
      <trkpt lat="49.92138" lon="4.57607">
        <ele>234</ele>
        <time>2024-04-06T12:44:28Z</time>
      </trkpt>
      <trkpt lat="49.92137" lon="4.57602">
        <ele>234</ele>
        <time>2024-04-06T12:44:29Z</time>
      </trkpt>
      <trkpt lat="49.92135" lon="4.57598">
        <ele>234.2</ele>
        <time>2024-04-06T12:44:30Z</time>
      </trkpt>
      <trkpt lat="49.92134" lon="4.57593">
        <ele>234.2</ele>
        <time>2024-04-06T12:44:31Z</time>
      </trkpt>
      <trkpt lat="49.92133" lon="4.57588">
        <ele>234.2</ele>
        <time>2024-04-06T12:44:32Z</time>
      </trkpt>
      <trkpt lat="49.92131" lon="4.57582">
        <ele>234.4</ele>
        <time>2024-04-06T12:44:33Z</time>
      </trkpt>
      <trkpt lat="49.9213" lon="4.57577">
        <ele>234.6</ele>
        <time>2024-04-06T12:44:34Z</time>
      </trkpt>
      <trkpt lat="49.92128" lon="4.57572">
        <ele>234.6</ele>
        <time>2024-04-06T12:44:35Z</time>
      </trkpt>
      <trkpt lat="49.92126" lon="4.57568">
        <ele>234.8</ele>
        <time>2024-04-06T12:44:36Z</time>
      </trkpt>
      <trkpt lat="49.92125" lon="4.57563">
        <ele>235</ele>
        <time>2024-04-06T12:44:37Z</time>
      </trkpt>
      <trkpt lat="49.92124" lon="4.57559">
        <ele>235.2</ele>
        <time>2024-04-06T12:44:38Z</time>
      </trkpt>
      <trkpt lat="49.92123" lon="4.57555">
        <ele>235.2</ele>
        <time>2024-04-06T12:44:39Z</time>
      </trkpt>
      <trkpt lat="49.92122" lon="4.5755">
        <ele>235.4</ele>
        <time>2024-04-06T12:44:40Z</time>
      </trkpt>
      <trkpt lat="49.92121" lon="4.57546">
        <ele>235.4</ele>
        <time>2024-04-06T12:44:41Z</time>
      </trkpt>
      <trkpt lat="49.9212" lon="4.57541">
        <ele>235.6</ele>
        <time>2024-04-06T12:44:42Z</time>
      </trkpt>
      <trkpt lat="49.92119" lon="4.57534">
        <ele>235.6</ele>
        <time>2024-04-06T12:44:43Z</time>
      </trkpt>
      <trkpt lat="49.92118" lon="4.57529">
        <ele>235.6</ele>
        <time>2024-04-06T12:44:44Z</time>
      </trkpt>
      <trkpt lat="49.92117" lon="4.57523">
        <ele>235.8</ele>
        <time>2024-04-06T12:44:45Z</time>
      </trkpt>
      <trkpt lat="49.92116" lon="4.57517">
        <ele>236.2</ele>
        <time>2024-04-06T12:44:46Z</time>
      </trkpt>
      <trkpt lat="49.92115" lon="4.57512">
        <ele>236.4</ele>
        <time>2024-04-06T12:44:47Z</time>
      </trkpt>
      <trkpt lat="49.92114" lon="4.57506">
        <ele>236.6</ele>
        <time>2024-04-06T12:44:48Z</time>
      </trkpt>
      <trkpt lat="49.92113" lon="4.575">
        <ele>236.8</ele>
        <time>2024-04-06T12:44:49Z</time>
      </trkpt>
      <trkpt lat="49.92111" lon="4.57495">
        <ele>236.8</ele>
        <time>2024-04-06T12:44:50Z</time>
      </trkpt>
      <trkpt lat="49.9211" lon="4.5749">
        <ele>237</ele>
        <time>2024-04-06T12:44:51Z</time>
      </trkpt>
      <trkpt lat="49.92109" lon="4.57485">
        <ele>237</ele>
        <time>2024-04-06T12:44:52Z</time>
      </trkpt>
      <trkpt lat="49.92108" lon="4.57479">
        <ele>237</ele>
        <time>2024-04-06T12:44:53Z</time>
      </trkpt>
      <trkpt lat="49.92106" lon="4.57474">
        <ele>237.2</ele>
        <time>2024-04-06T12:44:54Z</time>
      </trkpt>
      <trkpt lat="49.92104" lon="4.57469">
        <ele>237.4</ele>
        <time>2024-04-06T12:44:55Z</time>
      </trkpt>
      <trkpt lat="49.92103" lon="4.57463">
        <ele>237.6</ele>
        <time>2024-04-06T12:44:56Z</time>
      </trkpt>
      <trkpt lat="49.92101" lon="4.57458">
        <ele>237.6</ele>
        <time>2024-04-06T12:44:57Z</time>
      </trkpt>
      <trkpt lat="49.92099" lon="4.57452">
        <ele>237.8</ele>
        <time>2024-04-06T12:44:58Z</time>
      </trkpt>
      <trkpt lat="49.92097" lon="4.57446">
        <ele>238</ele>
        <time>2024-04-06T12:44:59Z</time>
      </trkpt>
      <trkpt lat="49.92096" lon="4.57441">
        <ele>238.2</ele>
        <time>2024-04-06T12:45:00Z</time>
      </trkpt>
      <trkpt lat="49.92094" lon="4.57436">
        <ele>238.6</ele>
        <time>2024-04-06T12:45:01Z</time>
      </trkpt>
      <trkpt lat="49.92093" lon="4.5743">
        <ele>238.8</ele>
        <time>2024-04-06T12:45:02Z</time>
      </trkpt>
      <trkpt lat="49.92091" lon="4.57424">
        <ele>239</ele>
        <time>2024-04-06T12:45:03Z</time>
      </trkpt>
      <trkpt lat="49.9209" lon="4.57418">
        <ele>239.4</ele>
        <time>2024-04-06T12:45:04Z</time>
      </trkpt>
      <trkpt lat="49.92088" lon="4.57411">
        <ele>240</ele>
        <time>2024-04-06T12:45:05Z</time>
      </trkpt>
      <trkpt lat="49.92086" lon="4.57405">
        <ele>240</ele>
        <time>2024-04-06T12:45:06Z</time>
      </trkpt>
      <trkpt lat="49.92084" lon="4.57398">
        <ele>240.2</ele>
        <time>2024-04-06T12:45:07Z</time>
      </trkpt>
      <trkpt lat="49.92082" lon="4.57392">
        <ele>240.2</ele>
        <time>2024-04-06T12:45:08Z</time>
      </trkpt>
      <trkpt lat="49.9208" lon="4.57385">
        <ele>240.2</ele>
        <time>2024-04-06T12:45:09Z</time>
      </trkpt>
      <trkpt lat="49.92078" lon="4.57378">
        <ele>240.2</ele>
        <time>2024-04-06T12:45:10Z</time>
      </trkpt>
      <trkpt lat="49.92076" lon="4.57372">
        <ele>240.4</ele>
        <time>2024-04-06T12:45:11Z</time>
      </trkpt>
      <trkpt lat="49.92074" lon="4.57365">
        <ele>240.2</ele>
        <time>2024-04-06T12:45:12Z</time>
      </trkpt>
      <trkpt lat="49.92072" lon="4.57359">
        <ele>240.2</ele>
        <time>2024-04-06T12:45:13Z</time>
      </trkpt>
      <trkpt lat="49.9207" lon="4.57353">
        <ele>240.2</ele>
        <time>2024-04-06T12:45:14Z</time>
      </trkpt>
      <trkpt lat="49.92068" lon="4.57346">
        <ele>240.2</ele>
        <time>2024-04-06T12:45:15Z</time>
      </trkpt>
      <trkpt lat="49.92066" lon="4.5734">
        <ele>240.2</ele>
        <time>2024-04-06T12:45:16Z</time>
      </trkpt>
      <trkpt lat="49.92064" lon="4.57333">
        <ele>240</ele>
        <time>2024-04-06T12:45:17Z</time>
      </trkpt>
      <trkpt lat="49.92062" lon="4.57328">
        <ele>240</ele>
        <time>2024-04-06T12:45:18Z</time>
      </trkpt>
      <trkpt lat="49.9206" lon="4.57322">
        <ele>240</ele>
        <time>2024-04-06T12:45:19Z</time>
      </trkpt>
      <trkpt lat="49.92057" lon="4.57317">
        <ele>240</ele>
        <time>2024-04-06T12:45:20Z</time>
      </trkpt>
      <trkpt lat="49.92056" lon="4.5731">
        <ele>240</ele>
        <time>2024-04-06T12:45:21Z</time>
      </trkpt>
      <trkpt lat="49.92054" lon="4.57303">
        <ele>240</ele>
        <time>2024-04-06T12:45:22Z</time>
      </trkpt>
      <trkpt lat="49.92053" lon="4.57296">
        <ele>240</ele>
        <time>2024-04-06T12:45:23Z</time>
      </trkpt>
      <trkpt lat="49.92052" lon="4.57289">
        <ele>240.2</ele>
        <time>2024-04-06T12:45:24Z</time>
      </trkpt>
      <trkpt lat="49.9205" lon="4.57282">
        <ele>240.2</ele>
        <time>2024-04-06T12:45:25Z</time>
      </trkpt>
      <trkpt lat="49.92049" lon="4.57276">
        <ele>240.4</ele>
        <time>2024-04-06T12:45:26Z</time>
      </trkpt>
      <trkpt lat="49.92048" lon="4.57269">
        <ele>240.4</ele>
        <time>2024-04-06T12:45:27Z</time>
      </trkpt>
      <trkpt lat="49.92047" lon="4.57263">
        <ele>240.4</ele>
        <time>2024-04-06T12:45:28Z</time>
      </trkpt>
      <trkpt lat="49.92046" lon="4.57257">
        <ele>240.6</ele>
        <time>2024-04-06T12:45:29Z</time>
      </trkpt>
      <trkpt lat="49.92045" lon="4.57251">
        <ele>240.6</ele>
        <time>2024-04-06T12:45:30Z</time>
      </trkpt>
      <trkpt lat="49.92044" lon="4.57245">
        <ele>240.6</ele>
        <time>2024-04-06T12:45:31Z</time>
      </trkpt>
      <trkpt lat="49.92043" lon="4.57238">
        <ele>240.6</ele>
        <time>2024-04-06T12:45:32Z</time>
      </trkpt>
      <trkpt lat="49.92042" lon="4.57232">
        <ele>240.8</ele>
        <time>2024-04-06T12:45:33Z</time>
      </trkpt>
      <trkpt lat="49.92042" lon="4.57226">
        <ele>241</ele>
        <time>2024-04-06T12:45:34Z</time>
      </trkpt>
      <trkpt lat="49.92041" lon="4.5722">
        <ele>241</ele>
        <time>2024-04-06T12:45:35Z</time>
      </trkpt>
      <trkpt lat="49.92041" lon="4.57213">
        <ele>241.2</ele>
        <time>2024-04-06T12:45:36Z</time>
      </trkpt>
      <trkpt lat="49.9204" lon="4.57207">
        <ele>241.4</ele>
        <time>2024-04-06T12:45:37Z</time>
      </trkpt>
      <trkpt lat="49.92039" lon="4.57202">
        <ele>241.6</ele>
        <time>2024-04-06T12:45:38Z</time>
      </trkpt>
      <trkpt lat="49.92038" lon="4.57196">
        <ele>241.8</ele>
        <time>2024-04-06T12:45:39Z</time>
      </trkpt>
      <trkpt lat="49.92037" lon="4.57189">
        <ele>242</ele>
        <time>2024-04-06T12:45:40Z</time>
      </trkpt>
      <trkpt lat="49.92038" lon="4.57184">
        <ele>242</ele>
        <time>2024-04-06T12:45:41Z</time>
      </trkpt>
      <trkpt lat="49.92037" lon="4.57178">
        <ele>242.2</ele>
        <time>2024-04-06T12:45:42Z</time>
      </trkpt>
      <trkpt lat="49.92037" lon="4.57172">
        <ele>242.2</ele>
        <time>2024-04-06T12:45:43Z</time>
      </trkpt>
      <trkpt lat="49.92036" lon="4.57166">
        <ele>242.2</ele>
        <time>2024-04-06T12:45:44Z</time>
      </trkpt>
      <trkpt lat="49.92035" lon="4.57159">
        <ele>242.2</ele>
        <time>2024-04-06T12:45:45Z</time>
      </trkpt>
      <trkpt lat="49.92034" lon="4.57153">
        <ele>242.2</ele>
        <time>2024-04-06T12:45:46Z</time>
      </trkpt>
      <trkpt lat="49.92033" lon="4.57147">
        <ele>242.4</ele>
        <time>2024-04-06T12:45:47Z</time>
      </trkpt>
      <trkpt lat="49.92033" lon="4.5714">
        <ele>242.4</ele>
        <time>2024-04-06T12:45:48Z</time>
      </trkpt>
      <trkpt lat="49.92032" lon="4.57133">
        <ele>242.4</ele>
        <time>2024-04-06T12:45:49Z</time>
      </trkpt>
      <trkpt lat="49.92031" lon="4.57126">
        <ele>242.6</ele>
        <time>2024-04-06T12:45:50Z</time>
      </trkpt>
      <trkpt lat="49.9203" lon="4.5712">
        <ele>242.8</ele>
        <time>2024-04-06T12:45:51Z</time>
      </trkpt>
      <trkpt lat="49.92029" lon="4.57114">
        <ele>242.6</ele>
        <time>2024-04-06T12:45:52Z</time>
      </trkpt>
      <trkpt lat="49.92029" lon="4.57108">
        <ele>242.8</ele>
        <time>2024-04-06T12:45:53Z</time>
      </trkpt>
      <trkpt lat="49.92028" lon="4.57102">
        <ele>242.8</ele>
        <time>2024-04-06T12:45:54Z</time>
      </trkpt>
      <trkpt lat="49.92028" lon="4.57095">
        <ele>242.8</ele>
        <time>2024-04-06T12:45:55Z</time>
      </trkpt>
      <trkpt lat="49.92027" lon="4.57089">
        <ele>243</ele>
        <time>2024-04-06T12:45:56Z</time>
      </trkpt>
      <trkpt lat="49.92027" lon="4.57083">
        <ele>242.8</ele>
        <time>2024-04-06T12:45:57Z</time>
      </trkpt>
      <trkpt lat="49.92026" lon="4.57076">
        <ele>243</ele>
        <time>2024-04-06T12:45:58Z</time>
      </trkpt>
      <trkpt lat="49.92026" lon="4.57069">
        <ele>243</ele>
        <time>2024-04-06T12:45:59Z</time>
      </trkpt>
      <trkpt lat="49.92026" lon="4.57062">
        <ele>243</ele>
        <time>2024-04-06T12:46:00Z</time>
      </trkpt>
      <trkpt lat="49.92026" lon="4.57055">
        <ele>243.2</ele>
        <time>2024-04-06T12:46:01Z</time>
      </trkpt>
      <trkpt lat="49.92026" lon="4.57048">
        <ele>243</ele>
        <time>2024-04-06T12:46:02Z</time>
      </trkpt>
      <trkpt lat="49.92026" lon="4.57041">
        <ele>243</ele>
        <time>2024-04-06T12:46:03Z</time>
      </trkpt>
      <trkpt lat="49.92027" lon="4.57034">
        <ele>243.2</ele>
        <time>2024-04-06T12:46:04Z</time>
      </trkpt>
      <trkpt lat="49.92027" lon="4.57027">
        <ele>243</ele>
        <time>2024-04-06T12:46:05Z</time>
      </trkpt>
      <trkpt lat="49.92027" lon="4.5702">
        <ele>243.2</ele>
        <time>2024-04-06T12:46:06Z</time>
      </trkpt>
      <trkpt lat="49.92028" lon="4.57014">
        <ele>243.2</ele>
        <time>2024-04-06T12:46:07Z</time>
      </trkpt>
      <trkpt lat="49.92028" lon="4.57008">
        <ele>243.2</ele>
        <time>2024-04-06T12:46:08Z</time>
      </trkpt>
      <trkpt lat="49.92029" lon="4.57001">
        <ele>243.4</ele>
        <time>2024-04-06T12:46:09Z</time>
      </trkpt>
      <trkpt lat="49.92029" lon="4.56995">
        <ele>243.4</ele>
        <time>2024-04-06T12:46:10Z</time>
      </trkpt>
      <trkpt lat="49.9203" lon="4.56989">
        <ele>243.4</ele>
        <time>2024-04-06T12:46:11Z</time>
      </trkpt>
      <trkpt lat="49.92031" lon="4.56982">
        <ele>243.6</ele>
        <time>2024-04-06T12:46:12Z</time>
      </trkpt>
      <trkpt lat="49.92032" lon="4.56976">
        <ele>243.8</ele>
        <time>2024-04-06T12:46:13Z</time>
      </trkpt>
      <trkpt lat="49.92033" lon="4.5697">
        <ele>243.8</ele>
        <time>2024-04-06T12:46:14Z</time>
      </trkpt>
      <trkpt lat="49.92034" lon="4.56963">
        <ele>243.8</ele>
        <time>2024-04-06T12:46:15Z</time>
      </trkpt>
      <trkpt lat="49.92034" lon="4.56957">
        <ele>244</ele>
        <time>2024-04-06T12:46:16Z</time>
      </trkpt>
      <trkpt lat="49.92035" lon="4.56951">
        <ele>244</ele>
        <time>2024-04-06T12:46:17Z</time>
      </trkpt>
      <trkpt lat="49.92037" lon="4.56945">
        <ele>244.2</ele>
        <time>2024-04-06T12:46:18Z</time>
      </trkpt>
      <trkpt lat="49.92038" lon="4.56939">
        <ele>244.4</ele>
        <time>2024-04-06T12:46:19Z</time>
      </trkpt>
      <trkpt lat="49.92038" lon="4.56933">
        <ele>244.4</ele>
        <time>2024-04-06T12:46:20Z</time>
      </trkpt>
      <trkpt lat="49.92039" lon="4.56927">
        <ele>244.4</ele>
        <time>2024-04-06T12:46:21Z</time>
      </trkpt>
      <trkpt lat="49.9204" lon="4.56921">
        <ele>244.6</ele>
        <time>2024-04-06T12:46:22Z</time>
      </trkpt>
      <trkpt lat="49.92041" lon="4.56914">
        <ele>244.4</ele>
        <time>2024-04-06T12:46:23Z</time>
      </trkpt>
      <trkpt lat="49.92042" lon="4.56908">
        <ele>244.4</ele>
        <time>2024-04-06T12:46:24Z</time>
      </trkpt>
      <trkpt lat="49.92043" lon="4.56902">
        <ele>244.6</ele>
        <time>2024-04-06T12:46:25Z</time>
      </trkpt>
      <trkpt lat="49.92044" lon="4.56896">
        <ele>244.6</ele>
        <time>2024-04-06T12:46:26Z</time>
      </trkpt>
      <trkpt lat="49.92045" lon="4.5689">
        <ele>244.6</ele>
        <time>2024-04-06T12:46:27Z</time>
      </trkpt>
      <trkpt lat="49.92046" lon="4.56884">
        <ele>244.8</ele>
        <time>2024-04-06T12:46:28Z</time>
      </trkpt>
      <trkpt lat="49.92046" lon="4.56878">
        <ele>244.8</ele>
        <time>2024-04-06T12:46:29Z</time>
      </trkpt>
      <trkpt lat="49.92047" lon="4.56873">
        <ele>244.8</ele>
        <time>2024-04-06T12:46:30Z</time>
      </trkpt>
      <trkpt lat="49.92048" lon="4.56867">
        <ele>244.8</ele>
        <time>2024-04-06T12:46:31Z</time>
      </trkpt>
      <trkpt lat="49.92048" lon="4.56861">
        <ele>245</ele>
        <time>2024-04-06T12:46:32Z</time>
      </trkpt>
      <trkpt lat="49.92049" lon="4.56854">
        <ele>245</ele>
        <time>2024-04-06T12:46:33Z</time>
      </trkpt>
      <trkpt lat="49.92049" lon="4.56848">
        <ele>245.2</ele>
        <time>2024-04-06T12:46:34Z</time>
      </trkpt>
      <trkpt lat="49.9205" lon="4.56842">
        <ele>245.2</ele>
        <time>2024-04-06T12:46:35Z</time>
      </trkpt>
      <trkpt lat="49.9205" lon="4.56835">
        <ele>245.2</ele>
        <time>2024-04-06T12:46:36Z</time>
      </trkpt>
      <trkpt lat="49.92051" lon="4.56829">
        <ele>245.4</ele>
        <time>2024-04-06T12:46:37Z</time>
      </trkpt>
      <trkpt lat="49.92051" lon="4.56822">
        <ele>245.4</ele>
        <time>2024-04-06T12:46:38Z</time>
      </trkpt>
      <trkpt lat="49.92052" lon="4.56816">
        <ele>245.4</ele>
        <time>2024-04-06T12:46:39Z</time>
      </trkpt>
      <trkpt lat="49.92053" lon="4.5681">
        <ele>245.6</ele>
        <time>2024-04-06T12:46:40Z</time>
      </trkpt>
      <trkpt lat="49.92053" lon="4.56803">
        <ele>245.8</ele>
        <time>2024-04-06T12:46:41Z</time>
      </trkpt>
      <trkpt lat="49.92053" lon="4.56796">
        <ele>245.8</ele>
        <time>2024-04-06T12:46:42Z</time>
      </trkpt>
      <trkpt lat="49.92054" lon="4.56789">
        <ele>245.8</ele>
        <time>2024-04-06T12:46:43Z</time>
      </trkpt>
      <trkpt lat="49.92055" lon="4.56782">
        <ele>245.8</ele>
        <time>2024-04-06T12:46:44Z</time>
      </trkpt>
      <trkpt lat="49.92055" lon="4.56775">
        <ele>245.8</ele>
        <time>2024-04-06T12:46:45Z</time>
      </trkpt>
      <trkpt lat="49.92056" lon="4.56767">
        <ele>246</ele>
        <time>2024-04-06T12:46:46Z</time>
      </trkpt>
      <trkpt lat="49.92056" lon="4.56759">
        <ele>246</ele>
        <time>2024-04-06T12:46:47Z</time>
      </trkpt>
      <trkpt lat="49.92056" lon="4.56752">
        <ele>246</ele>
        <time>2024-04-06T12:46:48Z</time>
      </trkpt>
      <trkpt lat="49.92057" lon="4.56744">
        <ele>246.2</ele>
        <time>2024-04-06T12:46:49Z</time>
      </trkpt>
      <trkpt lat="49.92057" lon="4.56736">
        <ele>246.2</ele>
        <time>2024-04-06T12:46:50Z</time>
      </trkpt>
      <trkpt lat="49.92058" lon="4.56729">
        <ele>246</ele>
        <time>2024-04-06T12:46:51Z</time>
      </trkpt>
      <trkpt lat="49.92058" lon="4.56721">
        <ele>246</ele>
        <time>2024-04-06T12:46:52Z</time>
      </trkpt>
      <trkpt lat="49.92058" lon="4.56713">
        <ele>246</ele>
        <time>2024-04-06T12:46:53Z</time>
      </trkpt>
      <trkpt lat="49.92059" lon="4.56705">
        <ele>246</ele>
        <time>2024-04-06T12:46:54Z</time>
      </trkpt>
      <trkpt lat="49.92059" lon="4.56697">
        <ele>246</ele>
        <time>2024-04-06T12:46:55Z</time>
      </trkpt>
      <trkpt lat="49.92059" lon="4.56689">
        <ele>246</ele>
        <time>2024-04-06T12:46:56Z</time>
      </trkpt>
      <trkpt lat="49.92059" lon="4.5668">
        <ele>246</ele>
        <time>2024-04-06T12:46:57Z</time>
      </trkpt>
      <trkpt lat="49.92059" lon="4.56672">
        <ele>245.8</ele>
        <time>2024-04-06T12:46:58Z</time>
      </trkpt>
      <trkpt lat="49.9206" lon="4.56663">
        <ele>246</ele>
        <time>2024-04-06T12:46:59Z</time>
      </trkpt>
      <trkpt lat="49.9206" lon="4.56655">
        <ele>245.8</ele>
        <time>2024-04-06T12:47:00Z</time>
      </trkpt>
      <trkpt lat="49.92061" lon="4.56647">
        <ele>245.8</ele>
        <time>2024-04-06T12:47:01Z</time>
      </trkpt>
      <trkpt lat="49.9206" lon="4.56639">
        <ele>246</ele>
        <time>2024-04-06T12:47:02Z</time>
      </trkpt>
      <trkpt lat="49.9206" lon="4.5663">
        <ele>246</ele>
        <time>2024-04-06T12:47:03Z</time>
      </trkpt>
      <trkpt lat="49.9206" lon="4.56622">
        <ele>246</ele>
        <time>2024-04-06T12:47:04Z</time>
      </trkpt>
      <trkpt lat="49.9206" lon="4.56614">
        <ele>245.8</ele>
        <time>2024-04-06T12:47:05Z</time>
      </trkpt>
      <trkpt lat="49.92061" lon="4.56605">
        <ele>245.8</ele>
        <time>2024-04-06T12:47:06Z</time>
      </trkpt>
      <trkpt lat="49.92061" lon="4.56597">
        <ele>245.8</ele>
        <time>2024-04-06T12:47:07Z</time>
      </trkpt>
      <trkpt lat="49.92061" lon="4.56588">
        <ele>245.8</ele>
        <time>2024-04-06T12:47:08Z</time>
      </trkpt>
      <trkpt lat="49.92061" lon="4.5658">
        <ele>245.8</ele>
        <time>2024-04-06T12:47:09Z</time>
      </trkpt>
      <trkpt lat="49.92061" lon="4.56571">
        <ele>245.8</ele>
        <time>2024-04-06T12:47:10Z</time>
      </trkpt>
      <trkpt lat="49.92062" lon="4.56562">
        <ele>245.8</ele>
        <time>2024-04-06T12:47:11Z</time>
      </trkpt>
      <trkpt lat="49.92063" lon="4.56553">
        <ele>245.8</ele>
        <time>2024-04-06T12:47:12Z</time>
      </trkpt>
      <trkpt lat="49.92064" lon="4.56545">
        <ele>245.8</ele>
        <time>2024-04-06T12:47:13Z</time>
      </trkpt>
      <trkpt lat="49.92066" lon="4.56536">
        <ele>245.6</ele>
        <time>2024-04-06T12:47:14Z</time>
      </trkpt>
      <trkpt lat="49.92067" lon="4.56527">
        <ele>245.8</ele>
        <time>2024-04-06T12:47:15Z</time>
      </trkpt>
      <trkpt lat="49.92069" lon="4.56518">
        <ele>245.8</ele>
        <time>2024-04-06T12:47:16Z</time>
      </trkpt>
      <trkpt lat="49.92072" lon="4.5651">
        <ele>245.6</ele>
        <time>2024-04-06T12:47:17Z</time>
      </trkpt>
      <trkpt lat="49.92075" lon="4.56501">
        <ele>245.8</ele>
        <time>2024-04-06T12:47:18Z</time>
      </trkpt>
      <trkpt lat="49.92078" lon="4.56492">
        <ele>245.6</ele>
        <time>2024-04-06T12:47:19Z</time>
      </trkpt>
      <trkpt lat="49.92081" lon="4.56483">
        <ele>245.6</ele>
        <time>2024-04-06T12:47:20Z</time>
      </trkpt>
      <trkpt lat="49.92084" lon="4.56473">
        <ele>245.4</ele>
        <time>2024-04-06T12:47:21Z</time>
      </trkpt>
      <trkpt lat="49.92088" lon="4.56464">
        <ele>245.4</ele>
        <time>2024-04-06T12:47:22Z</time>
      </trkpt>
      <trkpt lat="49.92092" lon="4.56455">
        <ele>245.4</ele>
        <time>2024-04-06T12:47:23Z</time>
      </trkpt>
      <trkpt lat="49.92096" lon="4.56447">
        <ele>245.4</ele>
        <time>2024-04-06T12:47:24Z</time>
      </trkpt>
      <trkpt lat="49.921" lon="4.56439">
        <ele>245.2</ele>
        <time>2024-04-06T12:47:25Z</time>
      </trkpt>
      <trkpt lat="49.92103" lon="4.56431">
        <ele>244.8</ele>
        <time>2024-04-06T12:47:26Z</time>
      </trkpt>
      <trkpt lat="49.92107" lon="4.56423">
        <ele>244.4</ele>
        <time>2024-04-06T12:47:27Z</time>
      </trkpt>
      <trkpt lat="49.92111" lon="4.56416">
        <ele>244.4</ele>
        <time>2024-04-06T12:47:28Z</time>
      </trkpt>
      <trkpt lat="49.92114" lon="4.56409">
        <ele>244.2</ele>
        <time>2024-04-06T12:47:29Z</time>
      </trkpt>
      <trkpt lat="49.92117" lon="4.56401">
        <ele>244.2</ele>
        <time>2024-04-06T12:47:30Z</time>
      </trkpt>
      <trkpt lat="49.9212" lon="4.56394">
        <ele>244.2</ele>
        <time>2024-04-06T12:47:31Z</time>
      </trkpt>
      <trkpt lat="49.92122" lon="4.56386">
        <ele>244.2</ele>
        <time>2024-04-06T12:47:32Z</time>
      </trkpt>
      <trkpt lat="49.92124" lon="4.5638">
        <ele>244</ele>
        <time>2024-04-06T12:47:33Z</time>
      </trkpt>
      <trkpt lat="49.92127" lon="4.56374">
        <ele>244.2</ele>
        <time>2024-04-06T12:47:34Z</time>
      </trkpt>
      <trkpt lat="49.92129" lon="4.56368">
        <ele>244.2</ele>
        <time>2024-04-06T12:47:35Z</time>
      </trkpt>
      <trkpt lat="49.92131" lon="4.56363">
        <ele>244.2</ele>
        <time>2024-04-06T12:47:36Z</time>
      </trkpt>
      <trkpt lat="49.92133" lon="4.56358">
        <ele>244.2</ele>
        <time>2024-04-06T12:47:37Z</time>
      </trkpt>
      <trkpt lat="49.92135" lon="4.56353">
        <ele>244.4</ele>
        <time>2024-04-06T12:47:38Z</time>
      </trkpt>
      <trkpt lat="49.92136" lon="4.56348">
        <ele>245</ele>
        <time>2024-04-06T12:47:39Z</time>
      </trkpt>
      <trkpt lat="49.92138" lon="4.56344">
        <ele>245.2</ele>
        <time>2024-04-06T12:47:40Z</time>
      </trkpt>
      <trkpt lat="49.92139" lon="4.5634">
        <ele>245.4</ele>
        <time>2024-04-06T12:47:41Z</time>
      </trkpt>
      <trkpt lat="49.92141" lon="4.56336">
        <ele>245.4</ele>
        <time>2024-04-06T12:47:42Z</time>
      </trkpt>
      <trkpt lat="49.92143" lon="4.56332">
        <ele>245.8</ele>
        <time>2024-04-06T12:47:43Z</time>
      </trkpt>
      <trkpt lat="49.92145" lon="4.56327">
        <ele>246.4</ele>
        <time>2024-04-06T12:47:44Z</time>
      </trkpt>
      <trkpt lat="49.92146" lon="4.56323">
        <ele>246.6</ele>
        <time>2024-04-06T12:47:45Z</time>
      </trkpt>
      <trkpt lat="49.92148" lon="4.56319">
        <ele>246.8</ele>
        <time>2024-04-06T12:47:46Z</time>
      </trkpt>
      <trkpt lat="49.92149" lon="4.56315">
        <ele>247.4</ele>
        <time>2024-04-06T12:47:47Z</time>
      </trkpt>
      <trkpt lat="49.92151" lon="4.5631">
        <ele>247.6</ele>
        <time>2024-04-06T12:47:48Z</time>
      </trkpt>
      <trkpt lat="49.92152" lon="4.56306">
        <ele>248</ele>
        <time>2024-04-06T12:47:49Z</time>
      </trkpt>
      <trkpt lat="49.92154" lon="4.56302">
        <ele>248.4</ele>
        <time>2024-04-06T12:47:50Z</time>
      </trkpt>
      <trkpt lat="49.92156" lon="4.56298">
        <ele>248.6</ele>
        <time>2024-04-06T12:47:51Z</time>
      </trkpt>
      <trkpt lat="49.92157" lon="4.56294">
        <ele>248.8</ele>
        <time>2024-04-06T12:47:52Z</time>
      </trkpt>
      <trkpt lat="49.92159" lon="4.5629">
        <ele>249.2</ele>
        <time>2024-04-06T12:47:53Z</time>
      </trkpt>
      <trkpt lat="49.92161" lon="4.56287">
        <ele>249.4</ele>
        <time>2024-04-06T12:47:54Z</time>
      </trkpt>
      <trkpt lat="49.92163" lon="4.56283">
        <ele>249.6</ele>
        <time>2024-04-06T12:47:55Z</time>
      </trkpt>
      <trkpt lat="49.92164" lon="4.5628">
        <ele>250</ele>
        <time>2024-04-06T12:47:56Z</time>
      </trkpt>
      <trkpt lat="49.92166" lon="4.56276">
        <ele>250</ele>
        <time>2024-04-06T12:47:57Z</time>
      </trkpt>
      <trkpt lat="49.92168" lon="4.56273">
        <ele>250.2</ele>
        <time>2024-04-06T12:47:58Z</time>
      </trkpt>
      <trkpt lat="49.9217" lon="4.5627">
        <ele>250.4</ele>
        <time>2024-04-06T12:47:59Z</time>
      </trkpt>
      <trkpt lat="49.92173" lon="4.56267">
        <ele>250.4</ele>
        <time>2024-04-06T12:48:00Z</time>
      </trkpt>
      <trkpt lat="49.92175" lon="4.56264">
        <ele>250.6</ele>
        <time>2024-04-06T12:48:01Z</time>
      </trkpt>
      <trkpt lat="49.92177" lon="4.5626">
        <ele>250.8</ele>
        <time>2024-04-06T12:48:02Z</time>
      </trkpt>
      <trkpt lat="49.92179" lon="4.56257">
        <ele>250.8</ele>
        <time>2024-04-06T12:48:03Z</time>
      </trkpt>
      <trkpt lat="49.92181" lon="4.56254">
        <ele>251.2</ele>
        <time>2024-04-06T12:48:04Z</time>
      </trkpt>
      <trkpt lat="49.92183" lon="4.56251">
        <ele>251.2</ele>
        <time>2024-04-06T12:48:05Z</time>
      </trkpt>
      <trkpt lat="49.92185" lon="4.56249">
        <ele>251.2</ele>
        <time>2024-04-06T12:48:06Z</time>
      </trkpt>
      <trkpt lat="49.92188" lon="4.56247">
        <ele>251.6</ele>
        <time>2024-04-06T12:48:07Z</time>
      </trkpt>
      <trkpt lat="49.9219" lon="4.56245">
        <ele>251.6</ele>
        <time>2024-04-06T12:48:08Z</time>
      </trkpt>
      <trkpt lat="49.92193" lon="4.56243">
        <ele>251.8</ele>
        <time>2024-04-06T12:48:09Z</time>
      </trkpt>
      <trkpt lat="49.92195" lon="4.56241">
        <ele>251.8</ele>
        <time>2024-04-06T12:48:10Z</time>
      </trkpt>
      <trkpt lat="49.92198" lon="4.56239">
        <ele>252</ele>
        <time>2024-04-06T12:48:11Z</time>
      </trkpt>
      <trkpt lat="49.92201" lon="4.56238">
        <ele>252.4</ele>
        <time>2024-04-06T12:48:12Z</time>
      </trkpt>
      <trkpt lat="49.92203" lon="4.56236">
        <ele>252.8</ele>
        <time>2024-04-06T12:48:13Z</time>
      </trkpt>
      <trkpt lat="49.92206" lon="4.56235">
        <ele>253</ele>
        <time>2024-04-06T12:48:14Z</time>
      </trkpt>
      <trkpt lat="49.92208" lon="4.56233">
        <ele>253</ele>
        <time>2024-04-06T12:48:15Z</time>
      </trkpt>
      <trkpt lat="49.92211" lon="4.56232">
        <ele>253</ele>
        <time>2024-04-06T12:48:16Z</time>
      </trkpt>
      <trkpt lat="49.92213" lon="4.56231">
        <ele>253.2</ele>
        <time>2024-04-06T12:48:17Z</time>
      </trkpt>
      <trkpt lat="49.92215" lon="4.5623">
        <ele>253.2</ele>
        <time>2024-04-06T12:48:18Z</time>
      </trkpt>
      <trkpt lat="49.92217" lon="4.56229">
        <ele>253.6</ele>
        <time>2024-04-06T12:48:19Z</time>
      </trkpt>
      <trkpt lat="49.92219" lon="4.56228">
        <ele>254</ele>
        <time>2024-04-06T12:48:20Z</time>
      </trkpt>
      <trkpt lat="49.92221" lon="4.56227">
        <ele>254.2</ele>
        <time>2024-04-06T12:48:21Z</time>
      </trkpt>
      <trkpt lat="49.92223" lon="4.56226">
        <ele>254.6</ele>
        <time>2024-04-06T12:48:22Z</time>
      </trkpt>
      <trkpt lat="49.92226" lon="4.56226">
        <ele>254.8</ele>
        <time>2024-04-06T12:48:23Z</time>
      </trkpt>
      <trkpt lat="49.92228" lon="4.56225">
        <ele>254.8</ele>
        <time>2024-04-06T12:48:24Z</time>
      </trkpt>
      <trkpt lat="49.92231" lon="4.56224">
        <ele>255.2</ele>
        <time>2024-04-06T12:48:25Z</time>
      </trkpt>
      <trkpt lat="49.92233" lon="4.56224">
        <ele>255.4</ele>
        <time>2024-04-06T12:48:26Z</time>
      </trkpt>
      <trkpt lat="49.92236" lon="4.56224">
        <ele>255.6</ele>
        <time>2024-04-06T12:48:27Z</time>
      </trkpt>
      <trkpt lat="49.92239" lon="4.56224">
        <ele>256</ele>
        <time>2024-04-06T12:48:28Z</time>
      </trkpt>
      <trkpt lat="49.92241" lon="4.56223">
        <ele>256.2</ele>
        <time>2024-04-06T12:48:29Z</time>
      </trkpt>
      <trkpt lat="49.92244" lon="4.56223">
        <ele>256.2</ele>
        <time>2024-04-06T12:48:30Z</time>
      </trkpt>
      <trkpt lat="49.92246" lon="4.56223">
        <ele>256.6</ele>
        <time>2024-04-06T12:48:31Z</time>
      </trkpt>
      <trkpt lat="49.92249" lon="4.56222">
        <ele>257</ele>
        <time>2024-04-06T12:48:32Z</time>
      </trkpt>
      <trkpt lat="49.92251" lon="4.56222">
        <ele>257.4</ele>
        <time>2024-04-06T12:48:33Z</time>
      </trkpt>
      <trkpt lat="49.92254" lon="4.56222">
        <ele>257.6</ele>
        <time>2024-04-06T12:48:34Z</time>
      </trkpt>
      <trkpt lat="49.92256" lon="4.56221">
        <ele>257.8</ele>
        <time>2024-04-06T12:48:35Z</time>
      </trkpt>
      <trkpt lat="49.92259" lon="4.5622">
        <ele>258.2</ele>
        <time>2024-04-06T12:48:36Z</time>
      </trkpt>
      <trkpt lat="49.92261" lon="4.5622">
        <ele>258.4</ele>
        <time>2024-04-06T12:48:37Z</time>
      </trkpt>
      <trkpt lat="49.92264" lon="4.56219">
        <ele>258.6</ele>
        <time>2024-04-06T12:48:38Z</time>
      </trkpt>
      <trkpt lat="49.92266" lon="4.56219">
        <ele>258.8</ele>
        <time>2024-04-06T12:48:39Z</time>
      </trkpt>
      <trkpt lat="49.92269" lon="4.56218">
        <ele>259</ele>
        <time>2024-04-06T12:48:40Z</time>
      </trkpt>
      <trkpt lat="49.92271" lon="4.56218">
        <ele>259.4</ele>
        <time>2024-04-06T12:48:41Z</time>
      </trkpt>
      <trkpt lat="49.92274" lon="4.56217">
        <ele>259.6</ele>
        <time>2024-04-06T12:48:42Z</time>
      </trkpt>
      <trkpt lat="49.92276" lon="4.56217">
        <ele>259.8</ele>
        <time>2024-04-06T12:48:43Z</time>
      </trkpt>
      <trkpt lat="49.92279" lon="4.56216">
        <ele>260</ele>
        <time>2024-04-06T12:48:44Z</time>
      </trkpt>
      <trkpt lat="49.92281" lon="4.56215">
        <ele>260</ele>
        <time>2024-04-06T12:48:45Z</time>
      </trkpt>
      <trkpt lat="49.92284" lon="4.56214">
        <ele>260.2</ele>
        <time>2024-04-06T12:48:46Z</time>
      </trkpt>
      <trkpt lat="49.92286" lon="4.56213">
        <ele>260.8</ele>
        <time>2024-04-06T12:48:47Z</time>
      </trkpt>
      <trkpt lat="49.92289" lon="4.56212">
        <ele>261</ele>
        <time>2024-04-06T12:48:48Z</time>
      </trkpt>
      <trkpt lat="49.92292" lon="4.56211">
        <ele>261</ele>
        <time>2024-04-06T12:48:49Z</time>
      </trkpt>
      <trkpt lat="49.92295" lon="4.5621">
        <ele>261.4</ele>
        <time>2024-04-06T12:48:50Z</time>
      </trkpt>
      <trkpt lat="49.92297" lon="4.56209">
        <ele>261.8</ele>
        <time>2024-04-06T12:48:51Z</time>
      </trkpt>
      <trkpt lat="49.923" lon="4.56207">
        <ele>261.8</ele>
        <time>2024-04-06T12:48:52Z</time>
      </trkpt>
      <trkpt lat="49.92302" lon="4.56206">
        <ele>261.8</ele>
        <time>2024-04-06T12:48:53Z</time>
      </trkpt>
      <trkpt lat="49.92305" lon="4.56205">
        <ele>262</ele>
        <time>2024-04-06T12:48:54Z</time>
      </trkpt>
      <trkpt lat="49.92308" lon="4.56203">
        <ele>262.2</ele>
        <time>2024-04-06T12:48:55Z</time>
      </trkpt>
      <trkpt lat="49.92311" lon="4.56202">
        <ele>262.2</ele>
        <time>2024-04-06T12:48:56Z</time>
      </trkpt>
      <trkpt lat="49.92313" lon="4.562">
        <ele>262.4</ele>
        <time>2024-04-06T12:48:57Z</time>
      </trkpt>
      <trkpt lat="49.92316" lon="4.56198">
        <ele>262.6</ele>
        <time>2024-04-06T12:48:58Z</time>
      </trkpt>
      <trkpt lat="49.92319" lon="4.56195">
        <ele>263</ele>
        <time>2024-04-06T12:48:59Z</time>
      </trkpt>
      <trkpt lat="49.92322" lon="4.56193">
        <ele>263.2</ele>
        <time>2024-04-06T12:49:00Z</time>
      </trkpt>
      <trkpt lat="49.92325" lon="4.56191">
        <ele>263.4</ele>
        <time>2024-04-06T12:49:01Z</time>
      </trkpt>
      <trkpt lat="49.92327" lon="4.56189">
        <ele>263.4</ele>
        <time>2024-04-06T12:49:02Z</time>
      </trkpt>
      <trkpt lat="49.9233" lon="4.56186">
        <ele>263.6</ele>
        <time>2024-04-06T12:49:03Z</time>
      </trkpt>
      <trkpt lat="49.92332" lon="4.56184">
        <ele>263.6</ele>
        <time>2024-04-06T12:49:04Z</time>
      </trkpt>
      <trkpt lat="49.92335" lon="4.56181">
        <ele>264</ele>
        <time>2024-04-06T12:49:05Z</time>
      </trkpt>
      <trkpt lat="49.92337" lon="4.56179">
        <ele>264</ele>
        <time>2024-04-06T12:49:06Z</time>
      </trkpt>
      <trkpt lat="49.9234" lon="4.56176">
        <ele>264.4</ele>
        <time>2024-04-06T12:49:07Z</time>
      </trkpt>
      <trkpt lat="49.92342" lon="4.56174">
        <ele>264.6</ele>
        <time>2024-04-06T12:49:08Z</time>
      </trkpt>
      <trkpt lat="49.92344" lon="4.56171">
        <ele>265</ele>
        <time>2024-04-06T12:49:09Z</time>
      </trkpt>
      <trkpt lat="49.92346" lon="4.56168">
        <ele>265.2</ele>
        <time>2024-04-06T12:49:10Z</time>
      </trkpt>
      <trkpt lat="49.92347" lon="4.56165">
        <ele>265.4</ele>
        <time>2024-04-06T12:49:11Z</time>
      </trkpt>
      <trkpt lat="49.92349" lon="4.56162">
        <ele>265.6</ele>
        <time>2024-04-06T12:49:12Z</time>
      </trkpt>
      <trkpt lat="49.9235" lon="4.56159">
        <ele>265.8</ele>
        <time>2024-04-06T12:49:13Z</time>
      </trkpt>
      <trkpt lat="49.92352" lon="4.56156">
        <ele>266.2</ele>
        <time>2024-04-06T12:49:14Z</time>
      </trkpt>
      <trkpt lat="49.92354" lon="4.56153">
        <ele>266.4</ele>
        <time>2024-04-06T12:49:15Z</time>
      </trkpt>
      <trkpt lat="49.92355" lon="4.5615">
        <ele>266.8</ele>
        <time>2024-04-06T12:49:16Z</time>
      </trkpt>
      <trkpt lat="49.92357" lon="4.56147">
        <ele>267.2</ele>
        <time>2024-04-06T12:49:17Z</time>
      </trkpt>
      <trkpt lat="49.92358" lon="4.56143">
        <ele>267.4</ele>
        <time>2024-04-06T12:49:18Z</time>
      </trkpt>
      <trkpt lat="49.9236" lon="4.5614">
        <ele>267.4</ele>
        <time>2024-04-06T12:49:19Z</time>
      </trkpt>
      <trkpt lat="49.92361" lon="4.56136">
        <ele>267.6</ele>
        <time>2024-04-06T12:49:20Z</time>
      </trkpt>
      <trkpt lat="49.92363" lon="4.56132">
        <ele>268</ele>
        <time>2024-04-06T12:49:21Z</time>
      </trkpt>
      <trkpt lat="49.92364" lon="4.56129">
        <ele>268.2</ele>
        <time>2024-04-06T12:49:22Z</time>
      </trkpt>
      <trkpt lat="49.92366" lon="4.56126">
        <ele>268.4</ele>
        <time>2024-04-06T12:49:23Z</time>
      </trkpt>
      <trkpt lat="49.92367" lon="4.56122">
        <ele>268.8</ele>
        <time>2024-04-06T12:49:24Z</time>
      </trkpt>
      <trkpt lat="49.92368" lon="4.56119">
        <ele>268.8</ele>
        <time>2024-04-06T12:49:25Z</time>
      </trkpt>
      <trkpt lat="49.9237" lon="4.56115">
        <ele>269.2</ele>
        <time>2024-04-06T12:49:26Z</time>
      </trkpt>
      <trkpt lat="49.92371" lon="4.56111">
        <ele>269.4</ele>
        <time>2024-04-06T12:49:27Z</time>
      </trkpt>
      <trkpt lat="49.92372" lon="4.56108">
        <ele>269.4</ele>
        <time>2024-04-06T12:49:28Z</time>
      </trkpt>
      <trkpt lat="49.92374" lon="4.56105">
        <ele>269.8</ele>
        <time>2024-04-06T12:49:29Z</time>
      </trkpt>
      <trkpt lat="49.92375" lon="4.56101">
        <ele>269.8</ele>
        <time>2024-04-06T12:49:30Z</time>
      </trkpt>
      <trkpt lat="49.92377" lon="4.56098">
        <ele>269.8</ele>
        <time>2024-04-06T12:49:31Z</time>
      </trkpt>
      <trkpt lat="49.92378" lon="4.56094">
        <ele>270.4</ele>
        <time>2024-04-06T12:49:32Z</time>
      </trkpt>
      <trkpt lat="49.92379" lon="4.56091">
        <ele>270.8</ele>
        <time>2024-04-06T12:49:33Z</time>
      </trkpt>
      <trkpt lat="49.9238" lon="4.56088">
        <ele>271</ele>
        <time>2024-04-06T12:49:34Z</time>
      </trkpt>
      <trkpt lat="49.92382" lon="4.56085">
        <ele>271.2</ele>
        <time>2024-04-06T12:49:35Z</time>
      </trkpt>
      <trkpt lat="49.92383" lon="4.56082">
        <ele>271.4</ele>
        <time>2024-04-06T12:49:36Z</time>
      </trkpt>
      <trkpt lat="49.92385" lon="4.56079">
        <ele>271.8</ele>
        <time>2024-04-06T12:49:37Z</time>
      </trkpt>
      <trkpt lat="49.92386" lon="4.56075">
        <ele>271.8</ele>
        <time>2024-04-06T12:49:38Z</time>
      </trkpt>
      <trkpt lat="49.92387" lon="4.56072">
        <ele>272</ele>
        <time>2024-04-06T12:49:39Z</time>
      </trkpt>
      <trkpt lat="49.92389" lon="4.56069">
        <ele>272.4</ele>
        <time>2024-04-06T12:49:40Z</time>
      </trkpt>
      <trkpt lat="49.9239" lon="4.56066">
        <ele>272.6</ele>
        <time>2024-04-06T12:49:41Z</time>
      </trkpt>
      <trkpt lat="49.92391" lon="4.56063">
        <ele>272.8</ele>
        <time>2024-04-06T12:49:42Z</time>
      </trkpt>
      <trkpt lat="49.92393" lon="4.5606">
        <ele>273</ele>
        <time>2024-04-06T12:49:43Z</time>
      </trkpt>
      <trkpt lat="49.92394" lon="4.56057">
        <ele>273.4</ele>
        <time>2024-04-06T12:49:44Z</time>
      </trkpt>
      <trkpt lat="49.92395" lon="4.56053">
        <ele>273.6</ele>
        <time>2024-04-06T12:49:45Z</time>
      </trkpt>
      <trkpt lat="49.92396" lon="4.5605">
        <ele>273.8</ele>
        <time>2024-04-06T12:49:46Z</time>
      </trkpt>
      <trkpt lat="49.92398" lon="4.56047">
        <ele>274</ele>
        <time>2024-04-06T12:49:47Z</time>
      </trkpt>
      <trkpt lat="49.924" lon="4.56044">
        <ele>274</ele>
        <time>2024-04-06T12:49:48Z</time>
      </trkpt>
      <trkpt lat="49.92401" lon="4.56041">
        <ele>274.2</ele>
        <time>2024-04-06T12:49:49Z</time>
      </trkpt>
      <trkpt lat="49.92403" lon="4.56038">
        <ele>274.6</ele>
        <time>2024-04-06T12:49:50Z</time>
      </trkpt>
      <trkpt lat="49.92404" lon="4.56035">
        <ele>274.8</ele>
        <time>2024-04-06T12:49:51Z</time>
      </trkpt>
      <trkpt lat="49.92406" lon="4.56032">
        <ele>275.2</ele>
        <time>2024-04-06T12:49:52Z</time>
      </trkpt>
      <trkpt lat="49.92407" lon="4.56029">
        <ele>275.4</ele>
        <time>2024-04-06T12:49:53Z</time>
      </trkpt>
      <trkpt lat="49.92409" lon="4.56026">
        <ele>275.6</ele>
        <time>2024-04-06T12:49:54Z</time>
      </trkpt>
      <trkpt lat="49.9241" lon="4.56024">
        <ele>275.8</ele>
        <time>2024-04-06T12:49:55Z</time>
      </trkpt>
      <trkpt lat="49.92411" lon="4.56021">
        <ele>276</ele>
        <time>2024-04-06T12:49:56Z</time>
      </trkpt>
      <trkpt lat="49.92413" lon="4.56019">
        <ele>276.2</ele>
        <time>2024-04-06T12:49:57Z</time>
      </trkpt>
      <trkpt lat="49.92414" lon="4.56016">
        <ele>276.4</ele>
        <time>2024-04-06T12:49:58Z</time>
      </trkpt>
      <trkpt lat="49.92416" lon="4.56014">
        <ele>276.6</ele>
        <time>2024-04-06T12:49:59Z</time>
      </trkpt>
      <trkpt lat="49.92417" lon="4.56012">
        <ele>276.8</ele>
        <time>2024-04-06T12:50:00Z</time>
      </trkpt>
      <trkpt lat="49.92419" lon="4.56009">
        <ele>276.8</ele>
        <time>2024-04-06T12:50:01Z</time>
      </trkpt>
      <trkpt lat="49.92421" lon="4.56006">
        <ele>277.2</ele>
        <time>2024-04-06T12:50:02Z</time>
      </trkpt>
      <trkpt lat="49.92422" lon="4.56003">
        <ele>277.6</ele>
        <time>2024-04-06T12:50:03Z</time>
      </trkpt>
      <trkpt lat="49.92424" lon="4.56001">
        <ele>277.6</ele>
        <time>2024-04-06T12:50:04Z</time>
      </trkpt>
      <trkpt lat="49.92426" lon="4.55998">
        <ele>277.8</ele>
        <time>2024-04-06T12:50:05Z</time>
      </trkpt>
      <trkpt lat="49.92427" lon="4.55995">
        <ele>278.2</ele>
        <time>2024-04-06T12:50:06Z</time>
      </trkpt>
      <trkpt lat="49.92429" lon="4.55993">
        <ele>278.2</ele>
        <time>2024-04-06T12:50:07Z</time>
      </trkpt>
      <trkpt lat="49.92431" lon="4.5599">
        <ele>278.4</ele>
        <time>2024-04-06T12:50:08Z</time>
      </trkpt>
      <trkpt lat="49.92432" lon="4.55987">
        <ele>278.8</ele>
        <time>2024-04-06T12:50:09Z</time>
      </trkpt>
      <trkpt lat="49.92434" lon="4.55985">
        <ele>279</ele>
        <time>2024-04-06T12:50:10Z</time>
      </trkpt>
      <trkpt lat="49.92435" lon="4.55982">
        <ele>279</ele>
        <time>2024-04-06T12:50:11Z</time>
      </trkpt>
      <trkpt lat="49.92437" lon="4.5598">
        <ele>279.2</ele>
        <time>2024-04-06T12:50:12Z</time>
      </trkpt>
      <trkpt lat="49.92438" lon="4.55978">
        <ele>279.2</ele>
        <time>2024-04-06T12:50:13Z</time>
      </trkpt>
      <trkpt lat="49.9244" lon="4.55976">
        <ele>279.4</ele>
        <time>2024-04-06T12:50:14Z</time>
      </trkpt>
      <trkpt lat="49.92442" lon="4.55974">
        <ele>279.6</ele>
        <time>2024-04-06T12:50:15Z</time>
      </trkpt>
      <trkpt lat="49.92443" lon="4.55972">
        <ele>279.8</ele>
        <time>2024-04-06T12:50:16Z</time>
      </trkpt>
      <trkpt lat="49.92445" lon="4.5597">
        <ele>280</ele>
        <time>2024-04-06T12:50:17Z</time>
      </trkpt>
      <trkpt lat="49.92447" lon="4.55968">
        <ele>280.2</ele>
        <time>2024-04-06T12:50:18Z</time>
      </trkpt>
      <trkpt lat="49.92448" lon="4.55966">
        <ele>280.4</ele>
        <time>2024-04-06T12:50:19Z</time>
      </trkpt>
      <trkpt lat="49.9245" lon="4.55964">
        <ele>280.6</ele>
        <time>2024-04-06T12:50:20Z</time>
      </trkpt>
      <trkpt lat="49.92452" lon="4.55962">
        <ele>280.6</ele>
        <time>2024-04-06T12:50:21Z</time>
      </trkpt>
      <trkpt lat="49.92454" lon="4.5596">
        <ele>281</ele>
        <time>2024-04-06T12:50:22Z</time>
      </trkpt>
      <trkpt lat="49.92456" lon="4.55958">
        <ele>281.4</ele>
        <time>2024-04-06T12:50:23Z</time>
      </trkpt>
      <trkpt lat="49.92458" lon="4.55956">
        <ele>281.6</ele>
        <time>2024-04-06T12:50:24Z</time>
      </trkpt>
      <trkpt lat="49.92459" lon="4.55954">
        <ele>281.8</ele>
        <time>2024-04-06T12:50:25Z</time>
      </trkpt>
      <trkpt lat="49.92461" lon="4.55952">
        <ele>281.8</ele>
        <time>2024-04-06T12:50:26Z</time>
      </trkpt>
      <trkpt lat="49.92463" lon="4.5595">
        <ele>282.2</ele>
        <time>2024-04-06T12:50:27Z</time>
      </trkpt>
      <trkpt lat="49.92465" lon="4.55949">
        <ele>282.4</ele>
        <time>2024-04-06T12:50:28Z</time>
      </trkpt>
      <trkpt lat="49.92467" lon="4.55946">
        <ele>282.4</ele>
        <time>2024-04-06T12:50:29Z</time>
      </trkpt>
      <trkpt lat="49.92469" lon="4.55944">
        <ele>282.6</ele>
        <time>2024-04-06T12:50:30Z</time>
      </trkpt>
      <trkpt lat="49.92471" lon="4.55942">
        <ele>282.8</ele>
        <time>2024-04-06T12:50:31Z</time>
      </trkpt>
      <trkpt lat="49.92473" lon="4.5594">
        <ele>282.8</ele>
        <time>2024-04-06T12:50:32Z</time>
      </trkpt>
      <trkpt lat="49.92475" lon="4.55938">
        <ele>283</ele>
        <time>2024-04-06T12:50:33Z</time>
      </trkpt>
      <trkpt lat="49.92476" lon="4.55936">
        <ele>283.2</ele>
        <time>2024-04-06T12:50:34Z</time>
      </trkpt>
      <trkpt lat="49.92478" lon="4.55934">
        <ele>283.2</ele>
        <time>2024-04-06T12:50:35Z</time>
      </trkpt>
      <trkpt lat="49.9248" lon="4.55932">
        <ele>283.2</ele>
        <time>2024-04-06T12:50:36Z</time>
      </trkpt>
      <trkpt lat="49.92482" lon="4.55929">
        <ele>283.4</ele>
        <time>2024-04-06T12:50:37Z</time>
      </trkpt>
      <trkpt lat="49.92484" lon="4.55928">
        <ele>283.4</ele>
        <time>2024-04-06T12:50:38Z</time>
      </trkpt>
      <trkpt lat="49.92486" lon="4.55926">
        <ele>283.6</ele>
        <time>2024-04-06T12:50:39Z</time>
      </trkpt>
      <trkpt lat="49.92488" lon="4.55924">
        <ele>283.6</ele>
        <time>2024-04-06T12:50:40Z</time>
      </trkpt>
      <trkpt lat="49.9249" lon="4.55922">
        <ele>283.6</ele>
        <time>2024-04-06T12:50:41Z</time>
      </trkpt>
      <trkpt lat="49.92492" lon="4.5592">
        <ele>283.8</ele>
        <time>2024-04-06T12:50:42Z</time>
      </trkpt>
      <trkpt lat="49.92494" lon="4.55918">
        <ele>283.8</ele>
        <time>2024-04-06T12:50:43Z</time>
      </trkpt>
      <trkpt lat="49.92496" lon="4.55916">
        <ele>283.8</ele>
        <time>2024-04-06T12:50:44Z</time>
      </trkpt>
      <trkpt lat="49.92497" lon="4.55914">
        <ele>284</ele>
        <time>2024-04-06T12:50:45Z</time>
      </trkpt>
      <trkpt lat="49.92499" lon="4.55912">
        <ele>284.2</ele>
        <time>2024-04-06T12:50:46Z</time>
      </trkpt>
      <trkpt lat="49.92501" lon="4.5591">
        <ele>284.2</ele>
        <time>2024-04-06T12:50:47Z</time>
      </trkpt>
      <trkpt lat="49.92503" lon="4.55908">
        <ele>284.2</ele>
        <time>2024-04-06T12:50:48Z</time>
      </trkpt>
      <trkpt lat="49.92506" lon="4.55906">
        <ele>284.2</ele>
        <time>2024-04-06T12:50:49Z</time>
      </trkpt>
      <trkpt lat="49.92508" lon="4.55905">
        <ele>284.2</ele>
        <time>2024-04-06T12:50:50Z</time>
      </trkpt>
      <trkpt lat="49.9251" lon="4.55903">
        <ele>284.4</ele>
        <time>2024-04-06T12:50:51Z</time>
      </trkpt>
      <trkpt lat="49.92512" lon="4.55901">
        <ele>284.6</ele>
        <time>2024-04-06T12:50:52Z</time>
      </trkpt>
      <trkpt lat="49.92514" lon="4.559">
        <ele>285.2</ele>
        <time>2024-04-06T12:50:53Z</time>
      </trkpt>
      <trkpt lat="49.92517" lon="4.55898">
        <ele>285.6</ele>
        <time>2024-04-06T12:50:54Z</time>
      </trkpt>
      <trkpt lat="49.92519" lon="4.55896">
        <ele>285.8</ele>
        <time>2024-04-06T12:50:55Z</time>
      </trkpt>
      <trkpt lat="49.92521" lon="4.55894">
        <ele>286</ele>
        <time>2024-04-06T12:50:56Z</time>
      </trkpt>
      <trkpt lat="49.92523" lon="4.55893">
        <ele>286.2</ele>
        <time>2024-04-06T12:50:57Z</time>
      </trkpt>
      <trkpt lat="49.92526" lon="4.55891">
        <ele>286.4</ele>
        <time>2024-04-06T12:50:58Z</time>
      </trkpt>
      <trkpt lat="49.92528" lon="4.5589">
        <ele>286.6</ele>
        <time>2024-04-06T12:50:59Z</time>
      </trkpt>
      <trkpt lat="49.9253" lon="4.55888">
        <ele>286.8</ele>
        <time>2024-04-06T12:51:00Z</time>
      </trkpt>
      <trkpt lat="49.92533" lon="4.55886">
        <ele>287.2</ele>
        <time>2024-04-06T12:51:01Z</time>
      </trkpt>
      <trkpt lat="49.92535" lon="4.55885">
        <ele>287.4</ele>
        <time>2024-04-06T12:51:02Z</time>
      </trkpt>
      <trkpt lat="49.92537" lon="4.55883">
        <ele>287.6</ele>
        <time>2024-04-06T12:51:03Z</time>
      </trkpt>
      <trkpt lat="49.9254" lon="4.55882">
        <ele>287.8</ele>
        <time>2024-04-06T12:51:04Z</time>
      </trkpt>
      <trkpt lat="49.92542" lon="4.55881">
        <ele>287.8</ele>
        <time>2024-04-06T12:51:05Z</time>
      </trkpt>
      <trkpt lat="49.92544" lon="4.5588">
        <ele>287.8</ele>
        <time>2024-04-06T12:51:06Z</time>
      </trkpt>
      <trkpt lat="49.92546" lon="4.55879">
        <ele>288</ele>
        <time>2024-04-06T12:51:07Z</time>
      </trkpt>
      <trkpt lat="49.92548" lon="4.55878">
        <ele>288</ele>
        <time>2024-04-06T12:51:08Z</time>
      </trkpt>
      <trkpt lat="49.9255" lon="4.55876">
        <ele>288.2</ele>
        <time>2024-04-06T12:51:09Z</time>
      </trkpt>
      <trkpt lat="49.92552" lon="4.55875">
        <ele>288.4</ele>
        <time>2024-04-06T12:51:10Z</time>
      </trkpt>
      <trkpt lat="49.92554" lon="4.55874">
        <ele>288.6</ele>
        <time>2024-04-06T12:51:11Z</time>
      </trkpt>
      <trkpt lat="49.92556" lon="4.55872">
        <ele>288.6</ele>
        <time>2024-04-06T12:51:12Z</time>
      </trkpt>
      <trkpt lat="49.92558" lon="4.55871">
        <ele>288.8</ele>
        <time>2024-04-06T12:51:13Z</time>
      </trkpt>
      <trkpt lat="49.9256" lon="4.5587">
        <ele>288.8</ele>
        <time>2024-04-06T12:51:14Z</time>
      </trkpt>
      <trkpt lat="49.92561" lon="4.55869">
        <ele>289</ele>
        <time>2024-04-06T12:51:15Z</time>
      </trkpt>
      <trkpt lat="49.92563" lon="4.55868">
        <ele>289.2</ele>
        <time>2024-04-06T12:51:16Z</time>
      </trkpt>
      <trkpt lat="49.92565" lon="4.55867">
        <ele>289.4</ele>
        <time>2024-04-06T12:51:17Z</time>
      </trkpt>
      <trkpt lat="49.92567" lon="4.55865">
        <ele>289.6</ele>
        <time>2024-04-06T12:51:18Z</time>
      </trkpt>
      <trkpt lat="49.92569" lon="4.55864">
        <ele>290</ele>
        <time>2024-04-06T12:51:19Z</time>
      </trkpt>
      <trkpt lat="49.92571" lon="4.55863">
        <ele>290.2</ele>
        <time>2024-04-06T12:51:20Z</time>
      </trkpt>
      <trkpt lat="49.92573" lon="4.55862">
        <ele>290.2</ele>
        <time>2024-04-06T12:51:21Z</time>
      </trkpt>
      <trkpt lat="49.92575" lon="4.55861">
        <ele>290.4</ele>
        <time>2024-04-06T12:51:22Z</time>
      </trkpt>
      <trkpt lat="49.92577" lon="4.5586">
        <ele>290.6</ele>
        <time>2024-04-06T12:51:23Z</time>
      </trkpt>
      <trkpt lat="49.92579" lon="4.55859">
        <ele>290.8</ele>
        <time>2024-04-06T12:51:24Z</time>
      </trkpt>
      <trkpt lat="49.92581" lon="4.55857">
        <ele>290.8</ele>
        <time>2024-04-06T12:51:25Z</time>
      </trkpt>
      <trkpt lat="49.92583" lon="4.55856">
        <ele>291</ele>
        <time>2024-04-06T12:51:26Z</time>
      </trkpt>
      <trkpt lat="49.92585" lon="4.55855">
        <ele>291.2</ele>
        <time>2024-04-06T12:51:27Z</time>
      </trkpt>
      <trkpt lat="49.92588" lon="4.55853">
        <ele>291.4</ele>
        <time>2024-04-06T12:51:28Z</time>
      </trkpt>
      <trkpt lat="49.9259" lon="4.55852">
        <ele>291.8</ele>
        <time>2024-04-06T12:51:29Z</time>
      </trkpt>
      <trkpt lat="49.92592" lon="4.5585">
        <ele>292</ele>
        <time>2024-04-06T12:51:30Z</time>
      </trkpt>
      <trkpt lat="49.92594" lon="4.55848">
        <ele>292</ele>
        <time>2024-04-06T12:51:31Z</time>
      </trkpt>
      <trkpt lat="49.92596" lon="4.55847">
        <ele>292.2</ele>
        <time>2024-04-06T12:51:32Z</time>
      </trkpt>
      <trkpt lat="49.92598" lon="4.55845">
        <ele>292.4</ele>
        <time>2024-04-06T12:51:33Z</time>
      </trkpt>
      <trkpt lat="49.926" lon="4.55843">
        <ele>292.6</ele>
        <time>2024-04-06T12:51:34Z</time>
      </trkpt>
      <trkpt lat="49.92602" lon="4.55842">
        <ele>293</ele>
        <time>2024-04-06T12:51:35Z</time>
      </trkpt>
      <trkpt lat="49.92604" lon="4.5584">
        <ele>293.2</ele>
        <time>2024-04-06T12:51:36Z</time>
      </trkpt>
      <trkpt lat="49.92606" lon="4.55838">
        <ele>293.4</ele>
        <time>2024-04-06T12:51:37Z</time>
      </trkpt>
      <trkpt lat="49.92608" lon="4.55836">
        <ele>293.8</ele>
        <time>2024-04-06T12:51:38Z</time>
      </trkpt>
      <trkpt lat="49.9261" lon="4.55834">
        <ele>294.2</ele>
        <time>2024-04-06T12:51:39Z</time>
      </trkpt>
      <trkpt lat="49.92612" lon="4.55833">
        <ele>294.6</ele>
        <time>2024-04-06T12:51:40Z</time>
      </trkpt>
      <trkpt lat="49.92614" lon="4.55831">
        <ele>294.6</ele>
        <time>2024-04-06T12:51:41Z</time>
      </trkpt>
      <trkpt lat="49.92616" lon="4.55829">
        <ele>295</ele>
        <time>2024-04-06T12:51:42Z</time>
      </trkpt>
      <trkpt lat="49.92619" lon="4.55827">
        <ele>295.2</ele>
        <time>2024-04-06T12:51:43Z</time>
      </trkpt>
      <trkpt lat="49.92621" lon="4.55825">
        <ele>295.6</ele>
        <time>2024-04-06T12:51:44Z</time>
      </trkpt>
      <trkpt lat="49.92623" lon="4.55823">
        <ele>295.6</ele>
        <time>2024-04-06T12:51:45Z</time>
      </trkpt>
      <trkpt lat="49.92625" lon="4.55821">
        <ele>295.6</ele>
        <time>2024-04-06T12:51:46Z</time>
      </trkpt>
      <trkpt lat="49.92627" lon="4.55819">
        <ele>295.8</ele>
        <time>2024-04-06T12:51:47Z</time>
      </trkpt>
      <trkpt lat="49.92629" lon="4.55817">
        <ele>296</ele>
        <time>2024-04-06T12:51:48Z</time>
      </trkpt>
      <trkpt lat="49.92631" lon="4.55815">
        <ele>296</ele>
        <time>2024-04-06T12:51:49Z</time>
      </trkpt>
      <trkpt lat="49.92633" lon="4.55813">
        <ele>296.2</ele>
        <time>2024-04-06T12:51:50Z</time>
      </trkpt>
      <trkpt lat="49.92635" lon="4.55811">
        <ele>296.4</ele>
        <time>2024-04-06T12:51:51Z</time>
      </trkpt>
      <trkpt lat="49.92637" lon="4.55809">
        <ele>296.2</ele>
        <time>2024-04-06T12:51:52Z</time>
      </trkpt>
      <trkpt lat="49.92638" lon="4.55807">
        <ele>296.4</ele>
        <time>2024-04-06T12:51:53Z</time>
      </trkpt>
      <trkpt lat="49.9264" lon="4.55805">
        <ele>296.6</ele>
        <time>2024-04-06T12:51:54Z</time>
      </trkpt>
      <trkpt lat="49.92642" lon="4.55803">
        <ele>296.6</ele>
        <time>2024-04-06T12:51:55Z</time>
      </trkpt>
      <trkpt lat="49.92644" lon="4.55801">
        <ele>296.8</ele>
        <time>2024-04-06T12:51:56Z</time>
      </trkpt>
      <trkpt lat="49.92645" lon="4.55798">
        <ele>296.8</ele>
        <time>2024-04-06T12:51:57Z</time>
      </trkpt>
      <trkpt lat="49.92647" lon="4.55796">
        <ele>296.8</ele>
        <time>2024-04-06T12:51:58Z</time>
      </trkpt>
      <trkpt lat="49.92649" lon="4.55793">
        <ele>297</ele>
        <time>2024-04-06T12:51:59Z</time>
      </trkpt>
      <trkpt lat="49.92651" lon="4.5579">
        <ele>297.2</ele>
        <time>2024-04-06T12:52:00Z</time>
      </trkpt>
      <trkpt lat="49.92653" lon="4.55788">
        <ele>297.6</ele>
        <time>2024-04-06T12:52:01Z</time>
      </trkpt>
      <trkpt lat="49.92655" lon="4.55784">
        <ele>297.8</ele>
        <time>2024-04-06T12:52:02Z</time>
      </trkpt>
      <trkpt lat="49.92657" lon="4.55781">
        <ele>298</ele>
        <time>2024-04-06T12:52:03Z</time>
      </trkpt>
      <trkpt lat="49.92659" lon="4.55778">
        <ele>298.4</ele>
        <time>2024-04-06T12:52:04Z</time>
      </trkpt>
      <trkpt lat="49.9266" lon="4.55775">
        <ele>298.4</ele>
        <time>2024-04-06T12:52:05Z</time>
      </trkpt>
      <trkpt lat="49.92662" lon="4.55772">
        <ele>298.6</ele>
        <time>2024-04-06T12:52:06Z</time>
      </trkpt>
      <trkpt lat="49.92664" lon="4.55769">
        <ele>298.8</ele>
        <time>2024-04-06T12:52:07Z</time>
      </trkpt>
      <trkpt lat="49.92666" lon="4.55766">
        <ele>299</ele>
        <time>2024-04-06T12:52:08Z</time>
      </trkpt>
      <trkpt lat="49.92667" lon="4.55762">
        <ele>299.2</ele>
        <time>2024-04-06T12:52:09Z</time>
      </trkpt>
      <trkpt lat="49.92669" lon="4.55758">
        <ele>299.2</ele>
        <time>2024-04-06T12:52:10Z</time>
      </trkpt>
      <trkpt lat="49.92671" lon="4.55754">
        <ele>299.4</ele>
        <time>2024-04-06T12:52:11Z</time>
      </trkpt>
      <trkpt lat="49.92673" lon="4.5575">
        <ele>299.4</ele>
        <time>2024-04-06T12:52:12Z</time>
      </trkpt>
      <trkpt lat="49.92674" lon="4.55747">
        <ele>299.8</ele>
        <time>2024-04-06T12:52:13Z</time>
      </trkpt>
      <trkpt lat="49.92676" lon="4.55743">
        <ele>300</ele>
        <time>2024-04-06T12:52:14Z</time>
      </trkpt>
      <trkpt lat="49.92677" lon="4.55739">
        <ele>300.2</ele>
        <time>2024-04-06T12:52:15Z</time>
      </trkpt>
      <trkpt lat="49.92679" lon="4.55735">
        <ele>300</ele>
        <time>2024-04-06T12:52:16Z</time>
      </trkpt>
      <trkpt lat="49.9268" lon="4.55731">
        <ele>300.2</ele>
        <time>2024-04-06T12:52:17Z</time>
      </trkpt>
      <trkpt lat="49.92681" lon="4.55727">
        <ele>300.2</ele>
        <time>2024-04-06T12:52:18Z</time>
      </trkpt>
      <trkpt lat="49.92682" lon="4.55723">
        <ele>300.2</ele>
        <time>2024-04-06T12:52:19Z</time>
      </trkpt>
      <trkpt lat="49.92684" lon="4.5572">
        <ele>300.4</ele>
        <time>2024-04-06T12:52:20Z</time>
      </trkpt>
      <trkpt lat="49.92685" lon="4.55716">
        <ele>300.6</ele>
        <time>2024-04-06T12:52:21Z</time>
      </trkpt>
      <trkpt lat="49.92686" lon="4.55712">
        <ele>300.6</ele>
        <time>2024-04-06T12:52:22Z</time>
      </trkpt>
      <trkpt lat="49.92687" lon="4.55708">
        <ele>300.6</ele>
        <time>2024-04-06T12:52:23Z</time>
      </trkpt>
      <trkpt lat="49.92688" lon="4.55704">
        <ele>300.8</ele>
        <time>2024-04-06T12:52:24Z</time>
      </trkpt>
      <trkpt lat="49.92688" lon="4.557">
        <ele>301</ele>
        <time>2024-04-06T12:52:25Z</time>
      </trkpt>
      <trkpt lat="49.92689" lon="4.55696">
        <ele>301</ele>
        <time>2024-04-06T12:52:26Z</time>
      </trkpt>
      <trkpt lat="49.9269" lon="4.55692">
        <ele>301.2</ele>
        <time>2024-04-06T12:52:27Z</time>
      </trkpt>
      <trkpt lat="49.92691" lon="4.55689">
        <ele>301.2</ele>
        <time>2024-04-06T12:52:28Z</time>
      </trkpt>
      <trkpt lat="49.92692" lon="4.55685">
        <ele>301.2</ele>
        <time>2024-04-06T12:52:29Z</time>
      </trkpt>
      <trkpt lat="49.92693" lon="4.55682">
        <ele>301.4</ele>
        <time>2024-04-06T12:52:30Z</time>
      </trkpt>
      <trkpt lat="49.92693" lon="4.55678">
        <ele>301.4</ele>
        <time>2024-04-06T12:52:31Z</time>
      </trkpt>
      <trkpt lat="49.92694" lon="4.55675">
        <ele>301.8</ele>
        <time>2024-04-06T12:52:32Z</time>
      </trkpt>
      <trkpt lat="49.92694" lon="4.55671">
        <ele>301.8</ele>
        <time>2024-04-06T12:52:33Z</time>
      </trkpt>
      <trkpt lat="49.92695" lon="4.55668">
        <ele>302</ele>
        <time>2024-04-06T12:52:34Z</time>
      </trkpt>
      <trkpt lat="49.92695" lon="4.55664">
        <ele>302.2</ele>
        <time>2024-04-06T12:52:35Z</time>
      </trkpt>
      <trkpt lat="49.92696" lon="4.55661">
        <ele>302.4</ele>
        <time>2024-04-06T12:52:36Z</time>
      </trkpt>
      <trkpt lat="49.92697" lon="4.55657">
        <ele>302.6</ele>
        <time>2024-04-06T12:52:37Z</time>
      </trkpt>
      <trkpt lat="49.92697" lon="4.55654">
        <ele>302.8</ele>
        <time>2024-04-06T12:52:38Z</time>
      </trkpt>
      <trkpt lat="49.92698" lon="4.5565">
        <ele>303</ele>
        <time>2024-04-06T12:52:39Z</time>
      </trkpt>
      <trkpt lat="49.92699" lon="4.55647">
        <ele>303.2</ele>
        <time>2024-04-06T12:52:40Z</time>
      </trkpt>
      <trkpt lat="49.927" lon="4.55644">
        <ele>303.2</ele>
        <time>2024-04-06T12:52:41Z</time>
      </trkpt>
      <trkpt lat="49.927" lon="4.55641">
        <ele>303.2</ele>
        <time>2024-04-06T12:52:42Z</time>
      </trkpt>
      <trkpt lat="49.92701" lon="4.55638">
        <ele>303.4</ele>
        <time>2024-04-06T12:52:43Z</time>
      </trkpt>
      <trkpt lat="49.92702" lon="4.55635">
        <ele>303.6</ele>
        <time>2024-04-06T12:52:44Z</time>
      </trkpt>
      <trkpt lat="49.92702" lon="4.55632">
        <ele>303.8</ele>
        <time>2024-04-06T12:52:45Z</time>
      </trkpt>
      <trkpt lat="49.92702" lon="4.55629">
        <ele>303.8</ele>
        <time>2024-04-06T12:52:46Z</time>
      </trkpt>
      <trkpt lat="49.92703" lon="4.55626">
        <ele>303.8</ele>
        <time>2024-04-06T12:52:47Z</time>
      </trkpt>
      <trkpt lat="49.92703" lon="4.55622">
        <ele>304</ele>
        <time>2024-04-06T12:52:48Z</time>
      </trkpt>
      <trkpt lat="49.92704" lon="4.55619">
        <ele>304.2</ele>
        <time>2024-04-06T12:52:49Z</time>
      </trkpt>
      <trkpt lat="49.92704" lon="4.55616">
        <ele>304.4</ele>
        <time>2024-04-06T12:52:50Z</time>
      </trkpt>
      <trkpt lat="49.92704" lon="4.55612">
        <ele>304.4</ele>
        <time>2024-04-06T12:52:51Z</time>
      </trkpt>
      <trkpt lat="49.92705" lon="4.55609">
        <ele>304.4</ele>
        <time>2024-04-06T12:52:52Z</time>
      </trkpt>
      <trkpt lat="49.92705" lon="4.55605">
        <ele>304.6</ele>
        <time>2024-04-06T12:52:53Z</time>
      </trkpt>
      <trkpt lat="49.92706" lon="4.55601">
        <ele>305</ele>
        <time>2024-04-06T12:52:54Z</time>
      </trkpt>
      <trkpt lat="49.92706" lon="4.55598">
        <ele>305.4</ele>
        <time>2024-04-06T12:52:55Z</time>
      </trkpt>
      <trkpt lat="49.92706" lon="4.55594">
        <ele>305.6</ele>
        <time>2024-04-06T12:52:56Z</time>
      </trkpt>
      <trkpt lat="49.92707" lon="4.55591">
        <ele>305.8</ele>
        <time>2024-04-06T12:52:57Z</time>
      </trkpt>
      <trkpt lat="49.92707" lon="4.55587">
        <ele>306</ele>
        <time>2024-04-06T12:52:58Z</time>
      </trkpt>
      <trkpt lat="49.92707" lon="4.55583">
        <ele>306.2</ele>
        <time>2024-04-06T12:52:59Z</time>
      </trkpt>
      <trkpt lat="49.92707" lon="4.5558">
        <ele>306.2</ele>
        <time>2024-04-06T12:53:00Z</time>
      </trkpt>
      <trkpt lat="49.92707" lon="4.55576">
        <ele>306.4</ele>
        <time>2024-04-06T12:53:01Z</time>
      </trkpt>
      <trkpt lat="49.92707" lon="4.55573">
        <ele>306.6</ele>
        <time>2024-04-06T12:53:02Z</time>
      </trkpt>
      <trkpt lat="49.92706" lon="4.55569">
        <ele>306.8</ele>
        <time>2024-04-06T12:53:03Z</time>
      </trkpt>
      <trkpt lat="49.92706" lon="4.55565">
        <ele>307</ele>
        <time>2024-04-06T12:53:04Z</time>
      </trkpt>
      <trkpt lat="49.92706" lon="4.55561">
        <ele>307</ele>
        <time>2024-04-06T12:53:05Z</time>
      </trkpt>
      <trkpt lat="49.92705" lon="4.55558">
        <ele>307.2</ele>
        <time>2024-04-06T12:53:06Z</time>
      </trkpt>
      <trkpt lat="49.92705" lon="4.55554">
        <ele>307</ele>
        <time>2024-04-06T12:53:07Z</time>
      </trkpt>
      <trkpt lat="49.92705" lon="4.5555">
        <ele>307.6</ele>
        <time>2024-04-06T12:53:08Z</time>
      </trkpt>
      <trkpt lat="49.92705" lon="4.55546">
        <ele>307.6</ele>
        <time>2024-04-06T12:53:09Z</time>
      </trkpt>
      <trkpt lat="49.92705" lon="4.55543">
        <ele>307.8</ele>
        <time>2024-04-06T12:53:10Z</time>
      </trkpt>
      <trkpt lat="49.92705" lon="4.55539">
        <ele>307.8</ele>
        <time>2024-04-06T12:53:11Z</time>
      </trkpt>
      <trkpt lat="49.92705" lon="4.55535">
        <ele>308.2</ele>
        <time>2024-04-06T12:53:12Z</time>
      </trkpt>
      <trkpt lat="49.92704" lon="4.55532">
        <ele>308.4</ele>
        <time>2024-04-06T12:53:13Z</time>
      </trkpt>
      <trkpt lat="49.92704" lon="4.55528">
        <ele>308.4</ele>
        <time>2024-04-06T12:53:14Z</time>
      </trkpt>
      <trkpt lat="49.92704" lon="4.55525">
        <ele>308.4</ele>
        <time>2024-04-06T12:53:15Z</time>
      </trkpt>
      <trkpt lat="49.92703" lon="4.55522">
        <ele>309</ele>
        <time>2024-04-06T12:53:16Z</time>
      </trkpt>
      <trkpt lat="49.92703" lon="4.55519">
        <ele>309</ele>
        <time>2024-04-06T12:53:17Z</time>
      </trkpt>
      <trkpt lat="49.92703" lon="4.55516">
        <ele>309.4</ele>
        <time>2024-04-06T12:53:18Z</time>
      </trkpt>
      <trkpt lat="49.92702" lon="4.55512">
        <ele>310</ele>
        <time>2024-04-06T12:53:19Z</time>
      </trkpt>
      <trkpt lat="49.92701" lon="4.55509">
        <ele>310</ele>
        <time>2024-04-06T12:53:20Z</time>
      </trkpt>
      <trkpt lat="49.92701" lon="4.55505">
        <ele>310.2</ele>
        <time>2024-04-06T12:53:21Z</time>
      </trkpt>
      <trkpt lat="49.927" lon="4.55502">
        <ele>310.2</ele>
        <time>2024-04-06T12:53:22Z</time>
      </trkpt>
      <trkpt lat="49.927" lon="4.55499">
        <ele>310.6</ele>
        <time>2024-04-06T12:53:23Z</time>
      </trkpt>
      <trkpt lat="49.92699" lon="4.55495">
        <ele>310.8</ele>
        <time>2024-04-06T12:53:24Z</time>
      </trkpt>
      <trkpt lat="49.92699" lon="4.55492">
        <ele>311</ele>
        <time>2024-04-06T12:53:25Z</time>
      </trkpt>
      <trkpt lat="49.92698" lon="4.55489">
        <ele>311.2</ele>
        <time>2024-04-06T12:53:26Z</time>
      </trkpt>
      <trkpt lat="49.92697" lon="4.55485">
        <ele>311.4</ele>
        <time>2024-04-06T12:53:27Z</time>
      </trkpt>
      <trkpt lat="49.92697" lon="4.55482">
        <ele>311.4</ele>
        <time>2024-04-06T12:53:28Z</time>
      </trkpt>
      <trkpt lat="49.92696" lon="4.55479">
        <ele>311.6</ele>
        <time>2024-04-06T12:53:29Z</time>
      </trkpt>
      <trkpt lat="49.92696" lon="4.55476">
        <ele>311.8</ele>
        <time>2024-04-06T12:53:30Z</time>
      </trkpt>
      <trkpt lat="49.92695" lon="4.55473">
        <ele>312</ele>
        <time>2024-04-06T12:53:31Z</time>
      </trkpt>
      <trkpt lat="49.92694" lon="4.5547">
        <ele>312.2</ele>
        <time>2024-04-06T12:53:32Z</time>
      </trkpt>
      <trkpt lat="49.92693" lon="4.55467">
        <ele>312.4</ele>
        <time>2024-04-06T12:53:33Z</time>
      </trkpt>
      <trkpt lat="49.92693" lon="4.55464">
        <ele>312.6</ele>
        <time>2024-04-06T12:53:34Z</time>
      </trkpt>
      <trkpt lat="49.92692" lon="4.55461">
        <ele>312.6</ele>
        <time>2024-04-06T12:53:35Z</time>
      </trkpt>
      <trkpt lat="49.92692" lon="4.55458">
        <ele>312.8</ele>
        <time>2024-04-06T12:53:36Z</time>
      </trkpt>
      <trkpt lat="49.92691" lon="4.55455">
        <ele>313</ele>
        <time>2024-04-06T12:53:37Z</time>
      </trkpt>
      <trkpt lat="49.9269" lon="4.55452">
        <ele>313.2</ele>
        <time>2024-04-06T12:53:38Z</time>
      </trkpt>
      <trkpt lat="49.92689" lon="4.55449">
        <ele>313.6</ele>
        <time>2024-04-06T12:53:39Z</time>
      </trkpt>
      <trkpt lat="49.92689" lon="4.55446">
        <ele>313.8</ele>
        <time>2024-04-06T12:53:40Z</time>
      </trkpt>
      <trkpt lat="49.92688" lon="4.55443">
        <ele>313.8</ele>
        <time>2024-04-06T12:53:41Z</time>
      </trkpt>
      <trkpt lat="49.92687" lon="4.5544">
        <ele>314</ele>
        <time>2024-04-06T12:53:42Z</time>
      </trkpt>
      <trkpt lat="49.92686" lon="4.55437">
        <ele>314</ele>
        <time>2024-04-06T12:53:43Z</time>
      </trkpt>
      <trkpt lat="49.92685" lon="4.55434">
        <ele>314.2</ele>
        <time>2024-04-06T12:53:44Z</time>
      </trkpt>
      <trkpt lat="49.92685" lon="4.55431">
        <ele>314.8</ele>
        <time>2024-04-06T12:53:45Z</time>
      </trkpt>
      <trkpt lat="49.92684" lon="4.55428">
        <ele>314.8</ele>
        <time>2024-04-06T12:53:46Z</time>
      </trkpt>
      <trkpt lat="49.92683" lon="4.55425">
        <ele>315</ele>
        <time>2024-04-06T12:53:47Z</time>
      </trkpt>
      <trkpt lat="49.92681" lon="4.55422">
        <ele>315</ele>
        <time>2024-04-06T12:53:48Z</time>
      </trkpt>
      <trkpt lat="49.9268" lon="4.55419">
        <ele>315.2</ele>
        <time>2024-04-06T12:53:49Z</time>
      </trkpt>
      <trkpt lat="49.92679" lon="4.55416">
        <ele>315.2</ele>
        <time>2024-04-06T12:53:50Z</time>
      </trkpt>
      <trkpt lat="49.92678" lon="4.55413">
        <ele>315.6</ele>
        <time>2024-04-06T12:53:51Z</time>
      </trkpt>
      <trkpt lat="49.92677" lon="4.55411">
        <ele>315.6</ele>
        <time>2024-04-06T12:53:52Z</time>
      </trkpt>
      <trkpt lat="49.92676" lon="4.55408">
        <ele>315.6</ele>
        <time>2024-04-06T12:53:53Z</time>
      </trkpt>
      <trkpt lat="49.92675" lon="4.55405">
        <ele>316</ele>
        <time>2024-04-06T12:53:54Z</time>
      </trkpt>
      <trkpt lat="49.92674" lon="4.55402">
        <ele>316</ele>
        <time>2024-04-06T12:53:55Z</time>
      </trkpt>
      <trkpt lat="49.92673" lon="4.55399">
        <ele>316.4</ele>
        <time>2024-04-06T12:53:56Z</time>
      </trkpt>
      <trkpt lat="49.92672" lon="4.55396">
        <ele>316.4</ele>
        <time>2024-04-06T12:53:57Z</time>
      </trkpt>
      <trkpt lat="49.9267" lon="4.55394">
        <ele>316.8</ele>
        <time>2024-04-06T12:53:58Z</time>
      </trkpt>
      <trkpt lat="49.92669" lon="4.55391">
        <ele>317</ele>
        <time>2024-04-06T12:53:59Z</time>
      </trkpt>
      <trkpt lat="49.92668" lon="4.55388">
        <ele>317</ele>
        <time>2024-04-06T12:54:00Z</time>
      </trkpt>
      <trkpt lat="49.92666" lon="4.55386">
        <ele>317.2</ele>
        <time>2024-04-06T12:54:01Z</time>
      </trkpt>
      <trkpt lat="49.92665" lon="4.55383">
        <ele>317.4</ele>
        <time>2024-04-06T12:54:02Z</time>
      </trkpt>
      <trkpt lat="49.92663" lon="4.55381">
        <ele>317.6</ele>
        <time>2024-04-06T12:54:03Z</time>
      </trkpt>
      <trkpt lat="49.92662" lon="4.55378">
        <ele>318</ele>
        <time>2024-04-06T12:54:04Z</time>
      </trkpt>
      <trkpt lat="49.92661" lon="4.55375">
        <ele>318.2</ele>
        <time>2024-04-06T12:54:05Z</time>
      </trkpt>
      <trkpt lat="49.9266" lon="4.55373">
        <ele>318.4</ele>
        <time>2024-04-06T12:54:06Z</time>
      </trkpt>
      <trkpt lat="49.92658" lon="4.5537">
        <ele>318.6</ele>
        <time>2024-04-06T12:54:07Z</time>
      </trkpt>
      <trkpt lat="49.92657" lon="4.55368">
        <ele>318.8</ele>
        <time>2024-04-06T12:54:08Z</time>
      </trkpt>
      <trkpt lat="49.92655" lon="4.55365">
        <ele>319</ele>
        <time>2024-04-06T12:54:09Z</time>
      </trkpt>
      <trkpt lat="49.92654" lon="4.55363">
        <ele>319.2</ele>
        <time>2024-04-06T12:54:10Z</time>
      </trkpt>
      <trkpt lat="49.92652" lon="4.55361">
        <ele>319.2</ele>
        <time>2024-04-06T12:54:11Z</time>
      </trkpt>
      <trkpt lat="49.92651" lon="4.55359">
        <ele>319.2</ele>
        <time>2024-04-06T12:54:12Z</time>
      </trkpt>
      <trkpt lat="49.92649" lon="4.55357">
        <ele>319.4</ele>
        <time>2024-04-06T12:54:13Z</time>
      </trkpt>
      <trkpt lat="49.92648" lon="4.55354">
        <ele>319.4</ele>
        <time>2024-04-06T12:54:14Z</time>
      </trkpt>
      <trkpt lat="49.92646" lon="4.55352">
        <ele>319.6</ele>
        <time>2024-04-06T12:54:15Z</time>
      </trkpt>
      <trkpt lat="49.92645" lon="4.5535">
        <ele>319.8</ele>
        <time>2024-04-06T12:54:16Z</time>
      </trkpt>
      <trkpt lat="49.92643" lon="4.55348">
        <ele>319.8</ele>
        <time>2024-04-06T12:54:17Z</time>
      </trkpt>
      <trkpt lat="49.92642" lon="4.55345">
        <ele>320</ele>
        <time>2024-04-06T12:54:18Z</time>
      </trkpt>
      <trkpt lat="49.9264" lon="4.55343">
        <ele>320.2</ele>
        <time>2024-04-06T12:54:19Z</time>
      </trkpt>
      <trkpt lat="49.92639" lon="4.55341">
        <ele>320.4</ele>
        <time>2024-04-06T12:54:20Z</time>
      </trkpt>
      <trkpt lat="49.92637" lon="4.55339">
        <ele>320.4</ele>
        <time>2024-04-06T12:54:21Z</time>
      </trkpt>
      <trkpt lat="49.92636" lon="4.55337">
        <ele>320.8</ele>
        <time>2024-04-06T12:54:22Z</time>
      </trkpt>
      <trkpt lat="49.92634" lon="4.55335">
        <ele>321</ele>
        <time>2024-04-06T12:54:23Z</time>
      </trkpt>
      <trkpt lat="49.92632" lon="4.55333">
        <ele>321.4</ele>
        <time>2024-04-06T12:54:24Z</time>
      </trkpt>
      <trkpt lat="49.92631" lon="4.5533">
        <ele>321.8</ele>
        <time>2024-04-06T12:54:25Z</time>
      </trkpt>
      <trkpt lat="49.92629" lon="4.55328">
        <ele>321.8</ele>
        <time>2024-04-06T12:54:26Z</time>
      </trkpt>
      <trkpt lat="49.92628" lon="4.55326">
        <ele>322</ele>
        <time>2024-04-06T12:54:27Z</time>
      </trkpt>
      <trkpt lat="49.92626" lon="4.55324">
        <ele>322</ele>
        <time>2024-04-06T12:54:28Z</time>
      </trkpt>
      <trkpt lat="49.92625" lon="4.55322">
        <ele>322.2</ele>
        <time>2024-04-06T12:54:29Z</time>
      </trkpt>
      <trkpt lat="49.92623" lon="4.5532">
        <ele>322.4</ele>
        <time>2024-04-06T12:54:30Z</time>
      </trkpt>
      <trkpt lat="49.92622" lon="4.55318">
        <ele>322.6</ele>
        <time>2024-04-06T12:54:31Z</time>
      </trkpt>
      <trkpt lat="49.9262" lon="4.55316">
        <ele>322.6</ele>
        <time>2024-04-06T12:54:32Z</time>
      </trkpt>
      <trkpt lat="49.92619" lon="4.55314">
        <ele>323</ele>
        <time>2024-04-06T12:54:33Z</time>
      </trkpt>
      <trkpt lat="49.92617" lon="4.55312">
        <ele>323.2</ele>
        <time>2024-04-06T12:54:34Z</time>
      </trkpt>
      <trkpt lat="49.92616" lon="4.5531">
        <ele>323.4</ele>
        <time>2024-04-06T12:54:35Z</time>
      </trkpt>
      <trkpt lat="49.92614" lon="4.55308">
        <ele>323.6</ele>
        <time>2024-04-06T12:54:36Z</time>
      </trkpt>
      <trkpt lat="49.92613" lon="4.55306">
        <ele>323.8</ele>
        <time>2024-04-06T12:54:37Z</time>
      </trkpt>
      <trkpt lat="49.92611" lon="4.55304">
        <ele>323.8</ele>
        <time>2024-04-06T12:54:38Z</time>
      </trkpt>
      <trkpt lat="49.9261" lon="4.55302">
        <ele>323.8</ele>
        <time>2024-04-06T12:54:39Z</time>
      </trkpt>
      <trkpt lat="49.92609" lon="4.553">
        <ele>324</ele>
        <time>2024-04-06T12:54:40Z</time>
      </trkpt>
      <trkpt lat="49.92608" lon="4.55298">
        <ele>324.6</ele>
        <time>2024-04-06T12:54:41Z</time>
      </trkpt>
      <trkpt lat="49.92606" lon="4.55296">
        <ele>325.2</ele>
        <time>2024-04-06T12:54:42Z</time>
      </trkpt>
      <trkpt lat="49.92605" lon="4.55294">
        <ele>325.2</ele>
        <time>2024-04-06T12:54:43Z</time>
      </trkpt>
      <trkpt lat="49.92603" lon="4.55292">
        <ele>325.4</ele>
        <time>2024-04-06T12:54:44Z</time>
      </trkpt>
      <trkpt lat="49.92602" lon="4.5529">
        <ele>325.6</ele>
        <time>2024-04-06T12:54:45Z</time>
      </trkpt>
      <trkpt lat="49.926" lon="4.55288">
        <ele>325.8</ele>
        <time>2024-04-06T12:54:46Z</time>
      </trkpt>
      <trkpt lat="49.92599" lon="4.55286">
        <ele>326.2</ele>
        <time>2024-04-06T12:54:47Z</time>
      </trkpt>
      <trkpt lat="49.92598" lon="4.55284">
        <ele>326.4</ele>
        <time>2024-04-06T12:54:48Z</time>
      </trkpt>
      <trkpt lat="49.92596" lon="4.55282">
        <ele>326.6</ele>
        <time>2024-04-06T12:54:49Z</time>
      </trkpt>
      <trkpt lat="49.92595" lon="4.5528">
        <ele>326.6</ele>
        <time>2024-04-06T12:54:50Z</time>
      </trkpt>
      <trkpt lat="49.92594" lon="4.55277">
        <ele>326.6</ele>
        <time>2024-04-06T12:54:51Z</time>
      </trkpt>
      <trkpt lat="49.92593" lon="4.55275">
        <ele>326.8</ele>
        <time>2024-04-06T12:54:52Z</time>
      </trkpt>
      <trkpt lat="49.92591" lon="4.55273">
        <ele>326.8</ele>
        <time>2024-04-06T12:54:53Z</time>
      </trkpt>
      <trkpt lat="49.9259" lon="4.55272">
        <ele>326.8</ele>
        <time>2024-04-06T12:54:54Z</time>
      </trkpt>
      <trkpt lat="49.92589" lon="4.5527">
        <ele>327</ele>
        <time>2024-04-06T12:54:55Z</time>
      </trkpt>
      <trkpt lat="49.92588" lon="4.55268">
        <ele>327.4</ele>
        <time>2024-04-06T12:54:56Z</time>
      </trkpt>
      <trkpt lat="49.92586" lon="4.55266">
        <ele>327.4</ele>
        <time>2024-04-06T12:54:57Z</time>
      </trkpt>
      <trkpt lat="49.92585" lon="4.55264">
        <ele>327.4</ele>
        <time>2024-04-06T12:54:58Z</time>
      </trkpt>
      <trkpt lat="49.92584" lon="4.55262">
        <ele>327.8</ele>
        <time>2024-04-06T12:54:59Z</time>
      </trkpt>
      <trkpt lat="49.92582" lon="4.5526">
        <ele>328</ele>
        <time>2024-04-06T12:55:00Z</time>
      </trkpt>
      <trkpt lat="49.92581" lon="4.55258">
        <ele>328.6</ele>
        <time>2024-04-06T12:55:01Z</time>
      </trkpt>
      <trkpt lat="49.9258" lon="4.55256">
        <ele>329.2</ele>
        <time>2024-04-06T12:55:02Z</time>
      </trkpt>
      <trkpt lat="49.92579" lon="4.55254">
        <ele>329.4</ele>
        <time>2024-04-06T12:55:03Z</time>
      </trkpt>
      <trkpt lat="49.92577" lon="4.55252">
        <ele>329.6</ele>
        <time>2024-04-06T12:55:04Z</time>
      </trkpt>
      <trkpt lat="49.92576" lon="4.5525">
        <ele>329.8</ele>
        <time>2024-04-06T12:55:05Z</time>
      </trkpt>
      <trkpt lat="49.92575" lon="4.55248">
        <ele>329.8</ele>
        <time>2024-04-06T12:55:06Z</time>
      </trkpt>
      <trkpt lat="49.92574" lon="4.55246">
        <ele>330</ele>
        <time>2024-04-06T12:55:07Z</time>
      </trkpt>
      <trkpt lat="49.92572" lon="4.55244">
        <ele>330.2</ele>
        <time>2024-04-06T12:55:08Z</time>
      </trkpt>
      <trkpt lat="49.92571" lon="4.55242">
        <ele>330.2</ele>
        <time>2024-04-06T12:55:09Z</time>
      </trkpt>
      <trkpt lat="49.92569" lon="4.5524">
        <ele>330.6</ele>
        <time>2024-04-06T12:55:10Z</time>
      </trkpt>
      <trkpt lat="49.92568" lon="4.55237">
        <ele>330.6</ele>
        <time>2024-04-06T12:55:11Z</time>
      </trkpt>
      <trkpt lat="49.92566" lon="4.55235">
        <ele>330.8</ele>
        <time>2024-04-06T12:55:12Z</time>
      </trkpt>
      <trkpt lat="49.92565" lon="4.55233">
        <ele>331</ele>
        <time>2024-04-06T12:55:13Z</time>
      </trkpt>
      <trkpt lat="49.92564" lon="4.5523">
        <ele>331.4</ele>
        <time>2024-04-06T12:55:14Z</time>
      </trkpt>
      <trkpt lat="49.92562" lon="4.55228">
        <ele>331.6</ele>
        <time>2024-04-06T12:55:15Z</time>
      </trkpt>
      <trkpt lat="49.92561" lon="4.55226">
        <ele>331.8</ele>
        <time>2024-04-06T12:55:16Z</time>
      </trkpt>
      <trkpt lat="49.9256" lon="4.55224">
        <ele>332</ele>
        <time>2024-04-06T12:55:17Z</time>
      </trkpt>
      <trkpt lat="49.92559" lon="4.55221">
        <ele>332.2</ele>
        <time>2024-04-06T12:55:18Z</time>
      </trkpt>
      <trkpt lat="49.92557" lon="4.55219">
        <ele>332.4</ele>
        <time>2024-04-06T12:55:19Z</time>
      </trkpt>
      <trkpt lat="49.92556" lon="4.55216">
        <ele>332.4</ele>
        <time>2024-04-06T12:55:20Z</time>
      </trkpt>
      <trkpt lat="49.92555" lon="4.55213">
        <ele>332.6</ele>
        <time>2024-04-06T12:55:21Z</time>
      </trkpt>
      <trkpt lat="49.92553" lon="4.5521">
        <ele>333</ele>
        <time>2024-04-06T12:55:22Z</time>
      </trkpt>
      <trkpt lat="49.92551" lon="4.55206">
        <ele>333.2</ele>
        <time>2024-04-06T12:55:23Z</time>
      </trkpt>
      <trkpt lat="49.9255" lon="4.55202">
        <ele>333.6</ele>
        <time>2024-04-06T12:55:24Z</time>
      </trkpt>
      <trkpt lat="49.92548" lon="4.55199">
        <ele>333.8</ele>
        <time>2024-04-06T12:55:25Z</time>
      </trkpt>
      <trkpt lat="49.92547" lon="4.55195">
        <ele>334</ele>
        <time>2024-04-06T12:55:26Z</time>
      </trkpt>
      <trkpt lat="49.92546" lon="4.55191">
        <ele>334</ele>
        <time>2024-04-06T12:55:27Z</time>
      </trkpt>
      <trkpt lat="49.92545" lon="4.55188">
        <ele>334.2</ele>
        <time>2024-04-06T12:55:28Z</time>
      </trkpt>
      <trkpt lat="49.92543" lon="4.55184">
        <ele>334.4</ele>
        <time>2024-04-06T12:55:29Z</time>
      </trkpt>
      <trkpt lat="49.92542" lon="4.55181">
        <ele>334.6</ele>
        <time>2024-04-06T12:55:30Z</time>
      </trkpt>
      <trkpt lat="49.92541" lon="4.55177">
        <ele>334.6</ele>
        <time>2024-04-06T12:55:31Z</time>
      </trkpt>
      <trkpt lat="49.9254" lon="4.55174">
        <ele>334.6</ele>
        <time>2024-04-06T12:55:32Z</time>
      </trkpt>
      <trkpt lat="49.9254" lon="4.5517">
        <ele>334.6</ele>
        <time>2024-04-06T12:55:33Z</time>
      </trkpt>
      <trkpt lat="49.92539" lon="4.55167">
        <ele>334.6</ele>
        <time>2024-04-06T12:55:34Z</time>
      </trkpt>
      <trkpt lat="49.92538" lon="4.55163">
        <ele>334.8</ele>
        <time>2024-04-06T12:55:35Z</time>
      </trkpt>
      <trkpt lat="49.92537" lon="4.5516">
        <ele>334.8</ele>
        <time>2024-04-06T12:55:36Z</time>
      </trkpt>
      <trkpt lat="49.92536" lon="4.55157">
        <ele>335</ele>
        <time>2024-04-06T12:55:37Z</time>
      </trkpt>
      <trkpt lat="49.92535" lon="4.55153">
        <ele>335.6</ele>
        <time>2024-04-06T12:55:38Z</time>
      </trkpt>
      <trkpt lat="49.92535" lon="4.5515">
        <ele>336.2</ele>
        <time>2024-04-06T12:55:39Z</time>
      </trkpt>
      <trkpt lat="49.92534" lon="4.55147">
        <ele>336.2</ele>
        <time>2024-04-06T12:55:40Z</time>
      </trkpt>
      <trkpt lat="49.92534" lon="4.55143">
        <ele>336.6</ele>
        <time>2024-04-06T12:55:41Z</time>
      </trkpt>
      <trkpt lat="49.92533" lon="4.5514">
        <ele>336.8</ele>
        <time>2024-04-06T12:55:42Z</time>
      </trkpt>
      <trkpt lat="49.92533" lon="4.55136">
        <ele>337.2</ele>
        <time>2024-04-06T12:55:43Z</time>
      </trkpt>
      <trkpt lat="49.92532" lon="4.55133">
        <ele>337.4</ele>
        <time>2024-04-06T12:55:44Z</time>
      </trkpt>
      <trkpt lat="49.92532" lon="4.55129">
        <ele>338</ele>
        <time>2024-04-06T12:55:45Z</time>
      </trkpt>
      <trkpt lat="49.92531" lon="4.55126">
        <ele>338.2</ele>
        <time>2024-04-06T12:55:46Z</time>
      </trkpt>
      <trkpt lat="49.92531" lon="4.55122">
        <ele>338.4</ele>
        <time>2024-04-06T12:55:47Z</time>
      </trkpt>
      <trkpt lat="49.92531" lon="4.55119">
        <ele>338.8</ele>
        <time>2024-04-06T12:55:48Z</time>
      </trkpt>
      <trkpt lat="49.9253" lon="4.55115">
        <ele>339</ele>
        <time>2024-04-06T12:55:49Z</time>
      </trkpt>
      <trkpt lat="49.9253" lon="4.55111">
        <ele>339.2</ele>
        <time>2024-04-06T12:55:50Z</time>
      </trkpt>
      <trkpt lat="49.9253" lon="4.55108">
        <ele>339.4</ele>
        <time>2024-04-06T12:55:51Z</time>
      </trkpt>
      <trkpt lat="49.92529" lon="4.55104">
        <ele>339.4</ele>
        <time>2024-04-06T12:55:52Z</time>
      </trkpt>
      <trkpt lat="49.92529" lon="4.55101">
        <ele>339.6</ele>
        <time>2024-04-06T12:55:53Z</time>
      </trkpt>
      <trkpt lat="49.92529" lon="4.55098">
        <ele>340</ele>
        <time>2024-04-06T12:55:54Z</time>
      </trkpt>
      <trkpt lat="49.92529" lon="4.55095">
        <ele>340.4</ele>
        <time>2024-04-06T12:55:55Z</time>
      </trkpt>
      <trkpt lat="49.92529" lon="4.55093">
        <ele>340.4</ele>
        <time>2024-04-06T12:55:56Z</time>
      </trkpt>
      <trkpt lat="49.92529" lon="4.5509">
        <ele>340.6</ele>
        <time>2024-04-06T12:55:57Z</time>
      </trkpt>
      <trkpt lat="49.92529" lon="4.55087">
        <ele>340.8</ele>
        <time>2024-04-06T12:55:58Z</time>
      </trkpt>
      <trkpt lat="49.92529" lon="4.55084">
        <ele>341</ele>
        <time>2024-04-06T12:55:59Z</time>
      </trkpt>
      <trkpt lat="49.92528" lon="4.55081">
        <ele>341</ele>
        <time>2024-04-06T12:56:00Z</time>
      </trkpt>
      <trkpt lat="49.92529" lon="4.55078">
        <ele>341.2</ele>
        <time>2024-04-06T12:56:01Z</time>
      </trkpt>
      <trkpt lat="49.92528" lon="4.55075">
        <ele>341.2</ele>
        <time>2024-04-06T12:56:02Z</time>
      </trkpt>
      <trkpt lat="49.92528" lon="4.55073">
        <ele>341.6</ele>
        <time>2024-04-06T12:56:03Z</time>
      </trkpt>
      <trkpt lat="49.92528" lon="4.5507">
        <ele>341.6</ele>
        <time>2024-04-06T12:56:04Z</time>
      </trkpt>
      <trkpt lat="49.92528" lon="4.55067">
        <ele>341.6</ele>
        <time>2024-04-06T12:56:05Z</time>
      </trkpt>
      <trkpt lat="49.92528" lon="4.55064">
        <ele>341.6</ele>
        <time>2024-04-06T12:56:06Z</time>
      </trkpt>
      <trkpt lat="49.92528" lon="4.5506">
        <ele>341.8</ele>
        <time>2024-04-06T12:56:07Z</time>
      </trkpt>
      <trkpt lat="49.92528" lon="4.55057">
        <ele>342</ele>
        <time>2024-04-06T12:56:08Z</time>
      </trkpt>
      <trkpt lat="49.92527" lon="4.55053">
        <ele>342</ele>
        <time>2024-04-06T12:56:09Z</time>
      </trkpt>
      <trkpt lat="49.92527" lon="4.55049">
        <ele>342.2</ele>
        <time>2024-04-06T12:56:10Z</time>
      </trkpt>
      <trkpt lat="49.92527" lon="4.55045">
        <ele>342.4</ele>
        <time>2024-04-06T12:56:11Z</time>
      </trkpt>
      <trkpt lat="49.92526" lon="4.55042">
        <ele>342.4</ele>
        <time>2024-04-06T12:56:12Z</time>
      </trkpt>
      <trkpt lat="49.92526" lon="4.55038">
        <ele>342.6</ele>
        <time>2024-04-06T12:56:13Z</time>
      </trkpt>
      <trkpt lat="49.92526" lon="4.55035">
        <ele>343</ele>
        <time>2024-04-06T12:56:14Z</time>
      </trkpt>
      <trkpt lat="49.92526" lon="4.55032">
        <ele>343.2</ele>
        <time>2024-04-06T12:56:15Z</time>
      </trkpt>
      <trkpt lat="49.92526" lon="4.55028">
        <ele>343.6</ele>
        <time>2024-04-06T12:56:16Z</time>
      </trkpt>
      <trkpt lat="49.92526" lon="4.55025">
        <ele>343.8</ele>
        <time>2024-04-06T12:56:17Z</time>
      </trkpt>
      <trkpt lat="49.92526" lon="4.55021">
        <ele>344</ele>
        <time>2024-04-06T12:56:18Z</time>
      </trkpt>
      <trkpt lat="49.92526" lon="4.55018">
        <ele>344</ele>
        <time>2024-04-06T12:56:19Z</time>
      </trkpt>
      <trkpt lat="49.92525" lon="4.55015">
        <ele>344.2</ele>
        <time>2024-04-06T12:56:20Z</time>
      </trkpt>
      <trkpt lat="49.92525" lon="4.55011">
        <ele>344.6</ele>
        <time>2024-04-06T12:56:21Z</time>
      </trkpt>
      <trkpt lat="49.92525" lon="4.55007">
        <ele>345</ele>
        <time>2024-04-06T12:56:22Z</time>
      </trkpt>
      <trkpt lat="49.92525" lon="4.55004">
        <ele>345.4</ele>
        <time>2024-04-06T12:56:23Z</time>
      </trkpt>
      <trkpt lat="49.92524" lon="4.55">
        <ele>345.6</ele>
        <time>2024-04-06T12:56:24Z</time>
      </trkpt>
      <trkpt lat="49.92524" lon="4.54996">
        <ele>345.8</ele>
        <time>2024-04-06T12:56:25Z</time>
      </trkpt>
      <trkpt lat="49.92523" lon="4.54992">
        <ele>346.2</ele>
        <time>2024-04-06T12:56:26Z</time>
      </trkpt>
      <trkpt lat="49.92523" lon="4.54988">
        <ele>346.4</ele>
        <time>2024-04-06T12:56:27Z</time>
      </trkpt>
      <trkpt lat="49.92522" lon="4.54984">
        <ele>346.4</ele>
        <time>2024-04-06T12:56:28Z</time>
      </trkpt>
      <trkpt lat="49.92522" lon="4.5498">
        <ele>346.6</ele>
        <time>2024-04-06T12:56:29Z</time>
      </trkpt>
      <trkpt lat="49.92521" lon="4.54976">
        <ele>346.6</ele>
        <time>2024-04-06T12:56:30Z</time>
      </trkpt>
      <trkpt lat="49.92521" lon="4.54972">
        <ele>346.8</ele>
        <time>2024-04-06T12:56:31Z</time>
      </trkpt>
      <trkpt lat="49.9252" lon="4.54968">
        <ele>346.8</ele>
        <time>2024-04-06T12:56:32Z</time>
      </trkpt>
      <trkpt lat="49.9252" lon="4.54964">
        <ele>347</ele>
        <time>2024-04-06T12:56:33Z</time>
      </trkpt>
      <trkpt lat="49.92519" lon="4.54961">
        <ele>347.2</ele>
        <time>2024-04-06T12:56:34Z</time>
      </trkpt>
      <trkpt lat="49.92519" lon="4.54957">
        <ele>347.4</ele>
        <time>2024-04-06T12:56:35Z</time>
      </trkpt>
      <trkpt lat="49.92519" lon="4.54953">
        <ele>347.4</ele>
        <time>2024-04-06T12:56:36Z</time>
      </trkpt>
      <trkpt lat="49.92518" lon="4.54949">
        <ele>347.6</ele>
        <time>2024-04-06T12:56:37Z</time>
      </trkpt>
      <trkpt lat="49.92518" lon="4.54946">
        <ele>347.6</ele>
        <time>2024-04-06T12:56:38Z</time>
      </trkpt>
      <trkpt lat="49.92518" lon="4.54942">
        <ele>347.8</ele>
        <time>2024-04-06T12:56:39Z</time>
      </trkpt>
      <trkpt lat="49.92517" lon="4.54938">
        <ele>348</ele>
        <time>2024-04-06T12:56:40Z</time>
      </trkpt>
      <trkpt lat="49.92517" lon="4.54934">
        <ele>348.2</ele>
        <time>2024-04-06T12:56:41Z</time>
      </trkpt>
      <trkpt lat="49.92517" lon="4.5493">
        <ele>348.4</ele>
        <time>2024-04-06T12:56:42Z</time>
      </trkpt>
      <trkpt lat="49.92516" lon="4.54926">
        <ele>348.4</ele>
        <time>2024-04-06T12:56:43Z</time>
      </trkpt>
      <trkpt lat="49.92516" lon="4.54922">
        <ele>348.6</ele>
        <time>2024-04-06T12:56:44Z</time>
      </trkpt>
      <trkpt lat="49.92515" lon="4.54918">
        <ele>348.6</ele>
        <time>2024-04-06T12:56:45Z</time>
      </trkpt>
      <trkpt lat="49.92515" lon="4.54915">
        <ele>348.4</ele>
        <time>2024-04-06T12:56:46Z</time>
      </trkpt>
      <trkpt lat="49.92515" lon="4.54911">
        <ele>348.6</ele>
        <time>2024-04-06T12:56:47Z</time>
      </trkpt>
      <trkpt lat="49.92514" lon="4.54907">
        <ele>348.6</ele>
        <time>2024-04-06T12:56:48Z</time>
      </trkpt>
      <trkpt lat="49.92514" lon="4.54904">
        <ele>348.8</ele>
        <time>2024-04-06T12:56:49Z</time>
      </trkpt>
      <trkpt lat="49.92514" lon="4.549">
        <ele>348.8</ele>
        <time>2024-04-06T12:56:50Z</time>
      </trkpt>
      <trkpt lat="49.92514" lon="4.54897">
        <ele>349</ele>
        <time>2024-04-06T12:56:51Z</time>
      </trkpt>
      <trkpt lat="49.92513" lon="4.54893">
        <ele>349</ele>
        <time>2024-04-06T12:56:52Z</time>
      </trkpt>
      <trkpt lat="49.92513" lon="4.54889">
        <ele>349.6</ele>
        <time>2024-04-06T12:56:53Z</time>
      </trkpt>
      <trkpt lat="49.92513" lon="4.54886">
        <ele>349.8</ele>
        <time>2024-04-06T12:56:54Z</time>
      </trkpt>
      <trkpt lat="49.92512" lon="4.54882">
        <ele>350</ele>
        <time>2024-04-06T12:56:55Z</time>
      </trkpt>
      <trkpt lat="49.92512" lon="4.54879">
        <ele>350.4</ele>
        <time>2024-04-06T12:56:56Z</time>
      </trkpt>
      <trkpt lat="49.92512" lon="4.54876">
        <ele>350.4</ele>
        <time>2024-04-06T12:56:57Z</time>
      </trkpt>
      <trkpt lat="49.92512" lon="4.54872">
        <ele>350.4</ele>
        <time>2024-04-06T12:56:58Z</time>
      </trkpt>
      <trkpt lat="49.92511" lon="4.54869">
        <ele>350.6</ele>
        <time>2024-04-06T12:56:59Z</time>
      </trkpt>
      <trkpt lat="49.92511" lon="4.54865">
        <ele>350.8</ele>
        <time>2024-04-06T12:57:00Z</time>
      </trkpt>
      <trkpt lat="49.92511" lon="4.54862">
        <ele>350.8</ele>
        <time>2024-04-06T12:57:01Z</time>
      </trkpt>
      <trkpt lat="49.92511" lon="4.54858">
        <ele>350.8</ele>
        <time>2024-04-06T12:57:02Z</time>
      </trkpt>
      <trkpt lat="49.92511" lon="4.54855">
        <ele>350.8</ele>
        <time>2024-04-06T12:57:03Z</time>
      </trkpt>
      <trkpt lat="49.9251" lon="4.54851">
        <ele>351</ele>
        <time>2024-04-06T12:57:04Z</time>
      </trkpt>
      <trkpt lat="49.9251" lon="4.54847">
        <ele>351</ele>
        <time>2024-04-06T12:57:05Z</time>
      </trkpt>
      <trkpt lat="49.9251" lon="4.54844">
        <ele>351.2</ele>
        <time>2024-04-06T12:57:06Z</time>
      </trkpt>
      <trkpt lat="49.9251" lon="4.54841">
        <ele>351.2</ele>
        <time>2024-04-06T12:57:07Z</time>
      </trkpt>
      <trkpt lat="49.9251" lon="4.54838">
        <ele>351.2</ele>
        <time>2024-04-06T12:57:08Z</time>
      </trkpt>
      <trkpt lat="49.92509" lon="4.54834">
        <ele>351.8</ele>
        <time>2024-04-06T12:57:09Z</time>
      </trkpt>
      <trkpt lat="49.92509" lon="4.54831">
        <ele>352</ele>
        <time>2024-04-06T12:57:10Z</time>
      </trkpt>
      <trkpt lat="49.92509" lon="4.54828">
        <ele>352.4</ele>
        <time>2024-04-06T12:57:11Z</time>
      </trkpt>
      <trkpt lat="49.92508" lon="4.54825">
        <ele>352.6</ele>
        <time>2024-04-06T12:57:12Z</time>
      </trkpt>
      <trkpt lat="49.92508" lon="4.54822">
        <ele>352.6</ele>
        <time>2024-04-06T12:57:13Z</time>
      </trkpt>
      <trkpt lat="49.92508" lon="4.54819">
        <ele>352.6</ele>
        <time>2024-04-06T12:57:14Z</time>
      </trkpt>
      <trkpt lat="49.92507" lon="4.54815">
        <ele>353</ele>
        <time>2024-04-06T12:57:15Z</time>
      </trkpt>
      <trkpt lat="49.92507" lon="4.54811">
        <ele>353</ele>
        <time>2024-04-06T12:57:16Z</time>
      </trkpt>
      <trkpt lat="49.92507" lon="4.54807">
        <ele>353</ele>
        <time>2024-04-06T12:57:17Z</time>
      </trkpt>
      <trkpt lat="49.92506" lon="4.54804">
        <ele>353</ele>
        <time>2024-04-06T12:57:18Z</time>
      </trkpt>
      <trkpt lat="49.92506" lon="4.54801">
        <ele>353.2</ele>
        <time>2024-04-06T12:57:19Z</time>
      </trkpt>
      <trkpt lat="49.92506" lon="4.54797">
        <ele>353.2</ele>
        <time>2024-04-06T12:57:20Z</time>
      </trkpt>
      <trkpt lat="49.92506" lon="4.54794">
        <ele>353.2</ele>
        <time>2024-04-06T12:57:21Z</time>
      </trkpt>
      <trkpt lat="49.92506" lon="4.54791">
        <ele>353.2</ele>
        <time>2024-04-06T12:57:22Z</time>
      </trkpt>
      <trkpt lat="49.92505" lon="4.54787">
        <ele>353.6</ele>
        <time>2024-04-06T12:57:23Z</time>
      </trkpt>
      <trkpt lat="49.92505" lon="4.54784">
        <ele>353.8</ele>
        <time>2024-04-06T12:57:24Z</time>
      </trkpt>
      <trkpt lat="49.92505" lon="4.5478">
        <ele>353.8</ele>
        <time>2024-04-06T12:57:25Z</time>
      </trkpt>
      <trkpt lat="49.92505" lon="4.54776">
        <ele>354.4</ele>
        <time>2024-04-06T12:57:26Z</time>
      </trkpt>
      <trkpt lat="49.92505" lon="4.54772">
        <ele>354.4</ele>
        <time>2024-04-06T12:57:27Z</time>
      </trkpt>
      <trkpt lat="49.92504" lon="4.54769">
        <ele>354.8</ele>
        <time>2024-04-06T12:57:28Z</time>
      </trkpt>
      <trkpt lat="49.92504" lon="4.54765">
        <ele>354.8</ele>
        <time>2024-04-06T12:57:29Z</time>
      </trkpt>
      <trkpt lat="49.92504" lon="4.54762">
        <ele>355</ele>
        <time>2024-04-06T12:57:30Z</time>
      </trkpt>
      <trkpt lat="49.92504" lon="4.54758">
        <ele>355</ele>
        <time>2024-04-06T12:57:31Z</time>
      </trkpt>
      <trkpt lat="49.92503" lon="4.54755">
        <ele>355.4</ele>
        <time>2024-04-06T12:57:32Z</time>
      </trkpt>
      <trkpt lat="49.92503" lon="4.54752">
        <ele>355.6</ele>
        <time>2024-04-06T12:57:33Z</time>
      </trkpt>
      <trkpt lat="49.92503" lon="4.54748">
        <ele>355.8</ele>
        <time>2024-04-06T12:57:34Z</time>
      </trkpt>
      <trkpt lat="49.92503" lon="4.54744">
        <ele>356</ele>
        <time>2024-04-06T12:57:35Z</time>
      </trkpt>
      <trkpt lat="49.92502" lon="4.54741">
        <ele>356.2</ele>
        <time>2024-04-06T12:57:36Z</time>
      </trkpt>
      <trkpt lat="49.92502" lon="4.54737">
        <ele>356.4</ele>
        <time>2024-04-06T12:57:37Z</time>
      </trkpt>
      <trkpt lat="49.92502" lon="4.54734">
        <ele>356.4</ele>
        <time>2024-04-06T12:57:38Z</time>
      </trkpt>
      <trkpt lat="49.92501" lon="4.5473">
        <ele>356.6</ele>
        <time>2024-04-06T12:57:39Z</time>
      </trkpt>
      <trkpt lat="49.92501" lon="4.54726">
        <ele>356.4</ele>
        <time>2024-04-06T12:57:40Z</time>
      </trkpt>
      <trkpt lat="49.925" lon="4.54722">
        <ele>356.6</ele>
        <time>2024-04-06T12:57:41Z</time>
      </trkpt>
      <trkpt lat="49.925" lon="4.54718">
        <ele>356.6</ele>
        <time>2024-04-06T12:57:42Z</time>
      </trkpt>
      <trkpt lat="49.925" lon="4.54713">
        <ele>357</ele>
        <time>2024-04-06T12:57:43Z</time>
      </trkpt>
      <trkpt lat="49.925" lon="4.54709">
        <ele>357.2</ele>
        <time>2024-04-06T12:57:44Z</time>
      </trkpt>
      <trkpt lat="49.92499" lon="4.54705">
        <ele>357</ele>
        <time>2024-04-06T12:57:45Z</time>
      </trkpt>
      <trkpt lat="49.92499" lon="4.54701">
        <ele>357</ele>
        <time>2024-04-06T12:57:46Z</time>
      </trkpt>
      <trkpt lat="49.92499" lon="4.54697">
        <ele>357.2</ele>
        <time>2024-04-06T12:57:47Z</time>
      </trkpt>
      <trkpt lat="49.92498" lon="4.54694">
        <ele>357.4</ele>
        <time>2024-04-06T12:57:48Z</time>
      </trkpt>
      <trkpt lat="49.92498" lon="4.5469">
        <ele>357.4</ele>
        <time>2024-04-06T12:57:49Z</time>
      </trkpt>
      <trkpt lat="49.92498" lon="4.54686">
        <ele>357.8</ele>
        <time>2024-04-06T12:57:50Z</time>
      </trkpt>
      <trkpt lat="49.92498" lon="4.54682">
        <ele>358</ele>
        <time>2024-04-06T12:57:51Z</time>
      </trkpt>
      <trkpt lat="49.92497" lon="4.54678">
        <ele>358.2</ele>
        <time>2024-04-06T12:57:52Z</time>
      </trkpt>
      <trkpt lat="49.92497" lon="4.54674">
        <ele>358.4</ele>
        <time>2024-04-06T12:57:53Z</time>
      </trkpt>
      <trkpt lat="49.92496" lon="4.5467">
        <ele>358.4</ele>
        <time>2024-04-06T12:57:54Z</time>
      </trkpt>
      <trkpt lat="49.92496" lon="4.54666">
        <ele>358.6</ele>
        <time>2024-04-06T12:57:55Z</time>
      </trkpt>
      <trkpt lat="49.92496" lon="4.54662">
        <ele>358.6</ele>
        <time>2024-04-06T12:57:56Z</time>
      </trkpt>
      <trkpt lat="49.92496" lon="4.54658">
        <ele>358.8</ele>
        <time>2024-04-06T12:57:57Z</time>
      </trkpt>
      <trkpt lat="49.92495" lon="4.54654">
        <ele>358.6</ele>
        <time>2024-04-06T12:57:58Z</time>
      </trkpt>
      <trkpt lat="49.92495" lon="4.5465">
        <ele>358.8</ele>
        <time>2024-04-06T12:57:59Z</time>
      </trkpt>
      <trkpt lat="49.92495" lon="4.54646">
        <ele>359.2</ele>
        <time>2024-04-06T12:58:00Z</time>
      </trkpt>
      <trkpt lat="49.92495" lon="4.54642">
        <ele>359.2</ele>
        <time>2024-04-06T12:58:01Z</time>
      </trkpt>
      <trkpt lat="49.92494" lon="4.54638">
        <ele>359.4</ele>
        <time>2024-04-06T12:58:02Z</time>
      </trkpt>
      <trkpt lat="49.92494" lon="4.54633">
        <ele>359.4</ele>
        <time>2024-04-06T12:58:03Z</time>
      </trkpt>
      <trkpt lat="49.92494" lon="4.54629">
        <ele>359.8</ele>
        <time>2024-04-06T12:58:04Z</time>
      </trkpt>
      <trkpt lat="49.92494" lon="4.54625">
        <ele>359.8</ele>
        <time>2024-04-06T12:58:05Z</time>
      </trkpt>
      <trkpt lat="49.92493" lon="4.54621">
        <ele>360</ele>
        <time>2024-04-06T12:58:06Z</time>
      </trkpt>
      <trkpt lat="49.92493" lon="4.54617">
        <ele>360</ele>
        <time>2024-04-06T12:58:07Z</time>
      </trkpt>
      <trkpt lat="49.92493" lon="4.54613">
        <ele>360.2</ele>
        <time>2024-04-06T12:58:08Z</time>
      </trkpt>
      <trkpt lat="49.92493" lon="4.54608">
        <ele>360.4</ele>
        <time>2024-04-06T12:58:09Z</time>
      </trkpt>
      <trkpt lat="49.92493" lon="4.54604">
        <ele>360.6</ele>
        <time>2024-04-06T12:58:10Z</time>
      </trkpt>
      <trkpt lat="49.92494" lon="4.546">
        <ele>360.8</ele>
        <time>2024-04-06T12:58:11Z</time>
      </trkpt>
      <trkpt lat="49.92494" lon="4.54595">
        <ele>361</ele>
        <time>2024-04-06T12:58:12Z</time>
      </trkpt>
      <trkpt lat="49.92494" lon="4.54591">
        <ele>361</ele>
        <time>2024-04-06T12:58:13Z</time>
      </trkpt>
      <trkpt lat="49.92494" lon="4.54587">
        <ele>361</ele>
        <time>2024-04-06T12:58:14Z</time>
      </trkpt>
      <trkpt lat="49.92494" lon="4.54582">
        <ele>361.2</ele>
        <time>2024-04-06T12:58:15Z</time>
      </trkpt>
      <trkpt lat="49.92495" lon="4.54578">
        <ele>361.2</ele>
        <time>2024-04-06T12:58:16Z</time>
      </trkpt>
      <trkpt lat="49.92495" lon="4.54573">
        <ele>361.4</ele>
        <time>2024-04-06T12:58:17Z</time>
      </trkpt>
      <trkpt lat="49.92496" lon="4.54569">
        <ele>361.6</ele>
        <time>2024-04-06T12:58:18Z</time>
      </trkpt>
      <trkpt lat="49.92496" lon="4.54564">
        <ele>361.8</ele>
        <time>2024-04-06T12:58:19Z</time>
      </trkpt>
      <trkpt lat="49.92497" lon="4.54559">
        <ele>362</ele>
        <time>2024-04-06T12:58:20Z</time>
      </trkpt>
      <trkpt lat="49.92498" lon="4.54555">
        <ele>362.2</ele>
        <time>2024-04-06T12:58:21Z</time>
      </trkpt>
      <trkpt lat="49.92499" lon="4.5455">
        <ele>362</ele>
        <time>2024-04-06T12:58:22Z</time>
      </trkpt>
      <trkpt lat="49.925" lon="4.54546">
        <ele>362.2</ele>
        <time>2024-04-06T12:58:23Z</time>
      </trkpt>
      <trkpt lat="49.92501" lon="4.54541">
        <ele>362.2</ele>
        <time>2024-04-06T12:58:24Z</time>
      </trkpt>
      <trkpt lat="49.92502" lon="4.54537">
        <ele>362.2</ele>
        <time>2024-04-06T12:58:25Z</time>
      </trkpt>
      <trkpt lat="49.92503" lon="4.54532">
        <ele>362.4</ele>
        <time>2024-04-06T12:58:26Z</time>
      </trkpt>
      <trkpt lat="49.92504" lon="4.54528">
        <ele>362.6</ele>
        <time>2024-04-06T12:58:27Z</time>
      </trkpt>
      <trkpt lat="49.92506" lon="4.54523">
        <ele>362.8</ele>
        <time>2024-04-06T12:58:28Z</time>
      </trkpt>
      <trkpt lat="49.92507" lon="4.54519">
        <ele>362.8</ele>
        <time>2024-04-06T12:58:29Z</time>
      </trkpt>
      <trkpt lat="49.92509" lon="4.54514">
        <ele>363</ele>
        <time>2024-04-06T12:58:30Z</time>
      </trkpt>
      <trkpt lat="49.9251" lon="4.54509">
        <ele>363</ele>
        <time>2024-04-06T12:58:31Z</time>
      </trkpt>
      <trkpt lat="49.92512" lon="4.54505">
        <ele>363.4</ele>
        <time>2024-04-06T12:58:32Z</time>
      </trkpt>
      <trkpt lat="49.92515" lon="4.54501">
        <ele>363.4</ele>
        <time>2024-04-06T12:58:33Z</time>
      </trkpt>
      <trkpt lat="49.92517" lon="4.54497">
        <ele>363.4</ele>
        <time>2024-04-06T12:58:34Z</time>
      </trkpt>
      <trkpt lat="49.92519" lon="4.54492">
        <ele>363.6</ele>
        <time>2024-04-06T12:58:35Z</time>
      </trkpt>
      <trkpt lat="49.92521" lon="4.54488">
        <ele>363.8</ele>
        <time>2024-04-06T12:58:36Z</time>
      </trkpt>
      <trkpt lat="49.92523" lon="4.54485">
        <ele>363.8</ele>
        <time>2024-04-06T12:58:37Z</time>
      </trkpt>
      <trkpt lat="49.92525" lon="4.54481">
        <ele>363.8</ele>
        <time>2024-04-06T12:58:38Z</time>
      </trkpt>
      <trkpt lat="49.92527" lon="4.54479">
        <ele>364</ele>
        <time>2024-04-06T12:58:39Z</time>
      </trkpt>
      <trkpt lat="49.9253" lon="4.54476">
        <ele>364</ele>
        <time>2024-04-06T12:58:40Z</time>
      </trkpt>
      <trkpt lat="49.92532" lon="4.54474">
        <ele>364.2</ele>
        <time>2024-04-06T12:58:41Z</time>
      </trkpt>
      <trkpt lat="49.92535" lon="4.54471">
        <ele>364.2</ele>
        <time>2024-04-06T12:58:42Z</time>
      </trkpt>
      <trkpt lat="49.92538" lon="4.54469">
        <ele>364.2</ele>
        <time>2024-04-06T12:58:43Z</time>
      </trkpt>
      <trkpt lat="49.92541" lon="4.54466">
        <ele>364.2</ele>
        <time>2024-04-06T12:58:44Z</time>
      </trkpt>
      <trkpt lat="49.92545" lon="4.54463">
        <ele>364.2</ele>
        <time>2024-04-06T12:58:45Z</time>
      </trkpt>
      <trkpt lat="49.92548" lon="4.5446">
        <ele>364.2</ele>
        <time>2024-04-06T12:58:46Z</time>
      </trkpt>
      <trkpt lat="49.92552" lon="4.54458">
        <ele>364.4</ele>
        <time>2024-04-06T12:58:47Z</time>
      </trkpt>
      <trkpt lat="49.92555" lon="4.54456">
        <ele>364.4</ele>
        <time>2024-04-06T12:58:48Z</time>
      </trkpt>
      <trkpt lat="49.92559" lon="4.54454">
        <ele>364.4</ele>
        <time>2024-04-06T12:58:49Z</time>
      </trkpt>
      <trkpt lat="49.92563" lon="4.54452">
        <ele>364.4</ele>
        <time>2024-04-06T12:58:50Z</time>
      </trkpt>
      <trkpt lat="49.92567" lon="4.5445">
        <ele>364.8</ele>
        <time>2024-04-06T12:58:51Z</time>
      </trkpt>
      <trkpt lat="49.92571" lon="4.54448">
        <ele>364.8</ele>
        <time>2024-04-06T12:58:52Z</time>
      </trkpt>
      <trkpt lat="49.92575" lon="4.54446">
        <ele>364.8</ele>
        <time>2024-04-06T12:58:53Z</time>
      </trkpt>
      <trkpt lat="49.92579" lon="4.54444">
        <ele>365</ele>
        <time>2024-04-06T12:58:54Z</time>
      </trkpt>
      <trkpt lat="49.92584" lon="4.54442">
        <ele>365.2</ele>
        <time>2024-04-06T12:58:55Z</time>
      </trkpt>
      <trkpt lat="49.92588" lon="4.5444">
        <ele>365.4</ele>
        <time>2024-04-06T12:58:56Z</time>
      </trkpt>
      <trkpt lat="49.92592" lon="4.54438">
        <ele>365.4</ele>
        <time>2024-04-06T12:58:57Z</time>
      </trkpt>
      <trkpt lat="49.92596" lon="4.54436">
        <ele>365.2</ele>
        <time>2024-04-06T12:58:58Z</time>
      </trkpt>
      <trkpt lat="49.92601" lon="4.54434">
        <ele>365.4</ele>
        <time>2024-04-06T12:58:59Z</time>
      </trkpt>
      <trkpt lat="49.92605" lon="4.54433">
        <ele>365.4</ele>
        <time>2024-04-06T12:59:00Z</time>
      </trkpt>
      <trkpt lat="49.92609" lon="4.54431">
        <ele>365.6</ele>
        <time>2024-04-06T12:59:01Z</time>
      </trkpt>
      <trkpt lat="49.92613" lon="4.54429">
        <ele>365.6</ele>
        <time>2024-04-06T12:59:02Z</time>
      </trkpt>
      <trkpt lat="49.92617" lon="4.54427">
        <ele>365.6</ele>
        <time>2024-04-06T12:59:03Z</time>
      </trkpt>
      <trkpt lat="49.92622" lon="4.54425">
        <ele>365.6</ele>
        <time>2024-04-06T12:59:04Z</time>
      </trkpt>
      <trkpt lat="49.92626" lon="4.54423">
        <ele>365.8</ele>
        <time>2024-04-06T12:59:05Z</time>
      </trkpt>
      <trkpt lat="49.9263" lon="4.54422">
        <ele>365.8</ele>
        <time>2024-04-06T12:59:06Z</time>
      </trkpt>
      <trkpt lat="49.92634" lon="4.5442">
        <ele>365.8</ele>
        <time>2024-04-06T12:59:07Z</time>
      </trkpt>
      <trkpt lat="49.92638" lon="4.54418">
        <ele>365.8</ele>
        <time>2024-04-06T12:59:08Z</time>
      </trkpt>
      <trkpt lat="49.92642" lon="4.54416">
        <ele>366</ele>
        <time>2024-04-06T12:59:09Z</time>
      </trkpt>
      <trkpt lat="49.92646" lon="4.54414">
        <ele>366.2</ele>
        <time>2024-04-06T12:59:10Z</time>
      </trkpt>
      <trkpt lat="49.92651" lon="4.54412">
        <ele>366.2</ele>
        <time>2024-04-06T12:59:11Z</time>
      </trkpt>
      <trkpt lat="49.92655" lon="4.5441">
        <ele>366.4</ele>
        <time>2024-04-06T12:59:12Z</time>
      </trkpt>
      <trkpt lat="49.92659" lon="4.54408">
        <ele>366.4</ele>
        <time>2024-04-06T12:59:13Z</time>
      </trkpt>
      <trkpt lat="49.92663" lon="4.54406">
        <ele>366.4</ele>
        <time>2024-04-06T12:59:14Z</time>
      </trkpt>
      <trkpt lat="49.92667" lon="4.54404">
        <ele>366.6</ele>
        <time>2024-04-06T12:59:15Z</time>
      </trkpt>
      <trkpt lat="49.92671" lon="4.54403">
        <ele>366.6</ele>
        <time>2024-04-06T12:59:16Z</time>
      </trkpt>
      <trkpt lat="49.92675" lon="4.54401">
        <ele>366.8</ele>
        <time>2024-04-06T12:59:17Z</time>
      </trkpt>
      <trkpt lat="49.9268" lon="4.54399">
        <ele>366.8</ele>
        <time>2024-04-06T12:59:18Z</time>
      </trkpt>
      <trkpt lat="49.92684" lon="4.54398">
        <ele>366.8</ele>
        <time>2024-04-06T12:59:19Z</time>
      </trkpt>
      <trkpt lat="49.92688" lon="4.54396">
        <ele>367.2</ele>
        <time>2024-04-06T12:59:20Z</time>
      </trkpt>
      <trkpt lat="49.92692" lon="4.54395">
        <ele>367.4</ele>
        <time>2024-04-06T12:59:21Z</time>
      </trkpt>
      <trkpt lat="49.92696" lon="4.54393">
        <ele>367.4</ele>
        <time>2024-04-06T12:59:22Z</time>
      </trkpt>
      <trkpt lat="49.92701" lon="4.54392">
        <ele>367.8</ele>
        <time>2024-04-06T12:59:23Z</time>
      </trkpt>
      <trkpt lat="49.92705" lon="4.54391">
        <ele>368</ele>
        <time>2024-04-06T12:59:24Z</time>
      </trkpt>
      <trkpt lat="49.92709" lon="4.5439">
        <ele>368</ele>
        <time>2024-04-06T12:59:25Z</time>
      </trkpt>
      <trkpt lat="49.92712" lon="4.54389">
        <ele>368.2</ele>
        <time>2024-04-06T12:59:26Z</time>
      </trkpt>
      <trkpt lat="49.92716" lon="4.54388">
        <ele>368.4</ele>
        <time>2024-04-06T12:59:27Z</time>
      </trkpt>
      <trkpt lat="49.9272" lon="4.54388">
        <ele>368.4</ele>
        <time>2024-04-06T12:59:28Z</time>
      </trkpt>
      <trkpt lat="49.92724" lon="4.54387">
        <ele>368.4</ele>
        <time>2024-04-06T12:59:29Z</time>
      </trkpt>
      <trkpt lat="49.92728" lon="4.54387">
        <ele>368.6</ele>
        <time>2024-04-06T12:59:30Z</time>
      </trkpt>
      <trkpt lat="49.92732" lon="4.54386">
        <ele>369</ele>
        <time>2024-04-06T12:59:31Z</time>
      </trkpt>
      <trkpt lat="49.92736" lon="4.54386">
        <ele>369.2</ele>
        <time>2024-04-06T12:59:32Z</time>
      </trkpt>
      <trkpt lat="49.9274" lon="4.54386">
        <ele>369.4</ele>
        <time>2024-04-06T12:59:33Z</time>
      </trkpt>
      <trkpt lat="49.92744" lon="4.54387">
        <ele>369.4</ele>
        <time>2024-04-06T12:59:34Z</time>
      </trkpt>
      <trkpt lat="49.92747" lon="4.54387">
        <ele>369.4</ele>
        <time>2024-04-06T12:59:35Z</time>
      </trkpt>
      <trkpt lat="49.92751" lon="4.54388">
        <ele>369.4</ele>
        <time>2024-04-06T12:59:36Z</time>
      </trkpt>
      <trkpt lat="49.92755" lon="4.54388">
        <ele>369.6</ele>
        <time>2024-04-06T12:59:37Z</time>
      </trkpt>
      <trkpt lat="49.92759" lon="4.54389">
        <ele>369.8</ele>
        <time>2024-04-06T12:59:38Z</time>
      </trkpt>
      <trkpt lat="49.92763" lon="4.5439">
        <ele>369.8</ele>
        <time>2024-04-06T12:59:39Z</time>
      </trkpt>
      <trkpt lat="49.92767" lon="4.54391">
        <ele>370</ele>
        <time>2024-04-06T12:59:40Z</time>
      </trkpt>
      <trkpt lat="49.9277" lon="4.54391">
        <ele>370.2</ele>
        <time>2024-04-06T12:59:41Z</time>
      </trkpt>
      <trkpt lat="49.92774" lon="4.54392">
        <ele>370.4</ele>
        <time>2024-04-06T12:59:42Z</time>
      </trkpt>
      <trkpt lat="49.92778" lon="4.54393">
        <ele>370.6</ele>
        <time>2024-04-06T12:59:43Z</time>
      </trkpt>
      <trkpt lat="49.92781" lon="4.54394">
        <ele>371.2</ele>
        <time>2024-04-06T12:59:44Z</time>
      </trkpt>
      <trkpt lat="49.92785" lon="4.54395">
        <ele>371.6</ele>
        <time>2024-04-06T12:59:45Z</time>
      </trkpt>
      <trkpt lat="49.92789" lon="4.54396">
        <ele>371.8</ele>
        <time>2024-04-06T12:59:46Z</time>
      </trkpt>
      <trkpt lat="49.92792" lon="4.54397">
        <ele>372</ele>
        <time>2024-04-06T12:59:47Z</time>
      </trkpt>
      <trkpt lat="49.92796" lon="4.54398">
        <ele>372.2</ele>
        <time>2024-04-06T12:59:48Z</time>
      </trkpt>
      <trkpt lat="49.928" lon="4.54398">
        <ele>372.4</ele>
        <time>2024-04-06T12:59:49Z</time>
      </trkpt>
      <trkpt lat="49.92803" lon="4.54399">
        <ele>372.6</ele>
        <time>2024-04-06T12:59:50Z</time>
      </trkpt>
      <trkpt lat="49.92807" lon="4.544">
        <ele>372.8</ele>
        <time>2024-04-06T12:59:51Z</time>
      </trkpt>
      <trkpt lat="49.92811" lon="4.54401">
        <ele>372.8</ele>
        <time>2024-04-06T12:59:52Z</time>
      </trkpt>
      <trkpt lat="49.92814" lon="4.54402">
        <ele>373</ele>
        <time>2024-04-06T12:59:53Z</time>
      </trkpt>
      <trkpt lat="49.92818" lon="4.54403">
        <ele>373</ele>
        <time>2024-04-06T12:59:54Z</time>
      </trkpt>
      <trkpt lat="49.92821" lon="4.54404">
        <ele>373.2</ele>
        <time>2024-04-06T12:59:55Z</time>
      </trkpt>
      <trkpt lat="49.92825" lon="4.54405">
        <ele>373.4</ele>
        <time>2024-04-06T12:59:56Z</time>
      </trkpt>
      <trkpt lat="49.92828" lon="4.54405">
        <ele>373.6</ele>
        <time>2024-04-06T12:59:57Z</time>
      </trkpt>
      <trkpt lat="49.92832" lon="4.54406">
        <ele>373.8</ele>
        <time>2024-04-06T12:59:58Z</time>
      </trkpt>
      <trkpt lat="49.92836" lon="4.54406">
        <ele>374</ele>
        <time>2024-04-06T12:59:59Z</time>
      </trkpt>
      <trkpt lat="49.92839" lon="4.54406">
        <ele>374</ele>
        <time>2024-04-06T13:00:00Z</time>
      </trkpt>
      <trkpt lat="49.92843" lon="4.54407">
        <ele>374.2</ele>
        <time>2024-04-06T13:00:01Z</time>
      </trkpt>
      <trkpt lat="49.92846" lon="4.54407">
        <ele>374.2</ele>
        <time>2024-04-06T13:00:02Z</time>
      </trkpt>
      <trkpt lat="49.9285" lon="4.54407">
        <ele>374.6</ele>
        <time>2024-04-06T13:00:03Z</time>
      </trkpt>
      <trkpt lat="49.92853" lon="4.54408">
        <ele>374.8</ele>
        <time>2024-04-06T13:00:04Z</time>
      </trkpt>
      <trkpt lat="49.92857" lon="4.54407">
        <ele>374.8</ele>
        <time>2024-04-06T13:00:05Z</time>
      </trkpt>
      <trkpt lat="49.9286" lon="4.54407">
        <ele>375.2</ele>
        <time>2024-04-06T13:00:06Z</time>
      </trkpt>
      <trkpt lat="49.92864" lon="4.54406">
        <ele>375</ele>
        <time>2024-04-06T13:00:07Z</time>
      </trkpt>
      <trkpt lat="49.92868" lon="4.54406">
        <ele>375.2</ele>
        <time>2024-04-06T13:00:08Z</time>
      </trkpt>
      <trkpt lat="49.92871" lon="4.54406">
        <ele>375.2</ele>
        <time>2024-04-06T13:00:09Z</time>
      </trkpt>
      <trkpt lat="49.92875" lon="4.54405">
        <ele>375.4</ele>
        <time>2024-04-06T13:00:10Z</time>
      </trkpt>
      <trkpt lat="49.92879" lon="4.54405">
        <ele>375.4</ele>
        <time>2024-04-06T13:00:11Z</time>
      </trkpt>
      <trkpt lat="49.92883" lon="4.54404">
        <ele>375.6</ele>
        <time>2024-04-06T13:00:12Z</time>
      </trkpt>
      <trkpt lat="49.92886" lon="4.54403">
        <ele>375.8</ele>
        <time>2024-04-06T13:00:13Z</time>
      </trkpt>
      <trkpt lat="49.9289" lon="4.54402">
        <ele>376</ele>
        <time>2024-04-06T13:00:14Z</time>
      </trkpt>
      <trkpt lat="49.92893" lon="4.54401">
        <ele>376.2</ele>
        <time>2024-04-06T13:00:15Z</time>
      </trkpt>
      <trkpt lat="49.92897" lon="4.544">
        <ele>376.4</ele>
        <time>2024-04-06T13:00:16Z</time>
      </trkpt>
      <trkpt lat="49.929" lon="4.54399">
        <ele>376.6</ele>
        <time>2024-04-06T13:00:17Z</time>
      </trkpt>
      <trkpt lat="49.92904" lon="4.54397">
        <ele>376.6</ele>
        <time>2024-04-06T13:00:18Z</time>
      </trkpt>
      <trkpt lat="49.92907" lon="4.54396">
        <ele>376.6</ele>
        <time>2024-04-06T13:00:19Z</time>
      </trkpt>
      <trkpt lat="49.9291" lon="4.54394">
        <ele>376.8</ele>
        <time>2024-04-06T13:00:20Z</time>
      </trkpt>
      <trkpt lat="49.92914" lon="4.54393">
        <ele>377</ele>
        <time>2024-04-06T13:00:21Z</time>
      </trkpt>
      <trkpt lat="49.92917" lon="4.54391">
        <ele>377.2</ele>
        <time>2024-04-06T13:00:22Z</time>
      </trkpt>
      <trkpt lat="49.9292" lon="4.5439">
        <ele>377.2</ele>
        <time>2024-04-06T13:00:23Z</time>
      </trkpt>
      <trkpt lat="49.92924" lon="4.54388">
        <ele>377.6</ele>
        <time>2024-04-06T13:00:24Z</time>
      </trkpt>
      <trkpt lat="49.92927" lon="4.54386">
        <ele>377.6</ele>
        <time>2024-04-06T13:00:25Z</time>
      </trkpt>
      <trkpt lat="49.9293" lon="4.54383">
        <ele>377.8</ele>
        <time>2024-04-06T13:00:26Z</time>
      </trkpt>
      <trkpt lat="49.92933" lon="4.54381">
        <ele>378.2</ele>
        <time>2024-04-06T13:00:27Z</time>
      </trkpt>
      <trkpt lat="49.92937" lon="4.54379">
        <ele>378.2</ele>
        <time>2024-04-06T13:00:28Z</time>
      </trkpt>
      <trkpt lat="49.9294" lon="4.54376">
        <ele>378.2</ele>
        <time>2024-04-06T13:00:29Z</time>
      </trkpt>
      <trkpt lat="49.92943" lon="4.54374">
        <ele>378.6</ele>
        <time>2024-04-06T13:00:30Z</time>
      </trkpt>
      <trkpt lat="49.92946" lon="4.54371">
        <ele>378.8</ele>
        <time>2024-04-06T13:00:31Z</time>
      </trkpt>
      <trkpt lat="49.92949" lon="4.54368">
        <ele>378.8</ele>
        <time>2024-04-06T13:00:32Z</time>
      </trkpt>
      <trkpt lat="49.92953" lon="4.54365">
        <ele>379</ele>
        <time>2024-04-06T13:00:33Z</time>
      </trkpt>
      <trkpt lat="49.92956" lon="4.54362">
        <ele>379</ele>
        <time>2024-04-06T13:00:34Z</time>
      </trkpt>
      <trkpt lat="49.92959" lon="4.54359">
        <ele>379</ele>
        <time>2024-04-06T13:00:35Z</time>
      </trkpt>
      <trkpt lat="49.92962" lon="4.54355">
        <ele>379.2</ele>
        <time>2024-04-06T13:00:36Z</time>
      </trkpt>
      <trkpt lat="49.92965" lon="4.54352">
        <ele>379</ele>
        <time>2024-04-06T13:00:37Z</time>
      </trkpt>
      <trkpt lat="49.92968" lon="4.54349">
        <ele>379.4</ele>
        <time>2024-04-06T13:00:38Z</time>
      </trkpt>
      <trkpt lat="49.92971" lon="4.54345">
        <ele>379.6</ele>
        <time>2024-04-06T13:00:39Z</time>
      </trkpt>
      <trkpt lat="49.92974" lon="4.54342">
        <ele>379.6</ele>
        <time>2024-04-06T13:00:40Z</time>
      </trkpt>
      <trkpt lat="49.92977" lon="4.54339">
        <ele>379.6</ele>
        <time>2024-04-06T13:00:41Z</time>
      </trkpt>
      <trkpt lat="49.9298" lon="4.54335">
        <ele>379.8</ele>
        <time>2024-04-06T13:00:42Z</time>
      </trkpt>
      <trkpt lat="49.92983" lon="4.54332">
        <ele>380</ele>
        <time>2024-04-06T13:00:43Z</time>
      </trkpt>
      <trkpt lat="49.92986" lon="4.54328">
        <ele>380</ele>
        <time>2024-04-06T13:00:44Z</time>
      </trkpt>
      <trkpt lat="49.92989" lon="4.54325">
        <ele>380.2</ele>
        <time>2024-04-06T13:00:45Z</time>
      </trkpt>
      <trkpt lat="49.92992" lon="4.54321">
        <ele>380</ele>
        <time>2024-04-06T13:00:46Z</time>
      </trkpt>
      <trkpt lat="49.92995" lon="4.54317">
        <ele>380.2</ele>
        <time>2024-04-06T13:00:47Z</time>
      </trkpt>
      <trkpt lat="49.92998" lon="4.54314">
        <ele>380.2</ele>
        <time>2024-04-06T13:00:48Z</time>
      </trkpt>
      <trkpt lat="49.93001" lon="4.5431">
        <ele>380.4</ele>
        <time>2024-04-06T13:00:49Z</time>
      </trkpt>
      <trkpt lat="49.93004" lon="4.54306">
        <ele>380.6</ele>
        <time>2024-04-06T13:00:50Z</time>
      </trkpt>
      <trkpt lat="49.93008" lon="4.54302">
        <ele>380.4</ele>
        <time>2024-04-06T13:00:51Z</time>
      </trkpt>
      <trkpt lat="49.93011" lon="4.54299">
        <ele>380.6</ele>
        <time>2024-04-06T13:00:52Z</time>
      </trkpt>
      <trkpt lat="49.93014" lon="4.54295">
        <ele>380.8</ele>
        <time>2024-04-06T13:00:53Z</time>
      </trkpt>
      <trkpt lat="49.93017" lon="4.54291">
        <ele>380.8</ele>
        <time>2024-04-06T13:00:54Z</time>
      </trkpt>
      <trkpt lat="49.93021" lon="4.54288">
        <ele>380.8</ele>
        <time>2024-04-06T13:00:55Z</time>
      </trkpt>
      <trkpt lat="49.93024" lon="4.54284">
        <ele>380.8</ele>
        <time>2024-04-06T13:00:56Z</time>
      </trkpt>
      <trkpt lat="49.93027" lon="4.5428">
        <ele>380.8</ele>
        <time>2024-04-06T13:00:57Z</time>
      </trkpt>
      <trkpt lat="49.93031" lon="4.54276">
        <ele>380.8</ele>
        <time>2024-04-06T13:00:58Z</time>
      </trkpt>
      <trkpt lat="49.93034" lon="4.54273">
        <ele>380.8</ele>
        <time>2024-04-06T13:00:59Z</time>
      </trkpt>
      <trkpt lat="49.93038" lon="4.54269">
        <ele>380.8</ele>
        <time>2024-04-06T13:01:00Z</time>
      </trkpt>
      <trkpt lat="49.93041" lon="4.54266">
        <ele>380.8</ele>
        <time>2024-04-06T13:01:01Z</time>
      </trkpt>
      <trkpt lat="49.93044" lon="4.54262">
        <ele>380.8</ele>
        <time>2024-04-06T13:01:02Z</time>
      </trkpt>
      <trkpt lat="49.93048" lon="4.54259">
        <ele>381</ele>
        <time>2024-04-06T13:01:03Z</time>
      </trkpt>
      <trkpt lat="49.93051" lon="4.54256">
        <ele>381</ele>
        <time>2024-04-06T13:01:04Z</time>
      </trkpt>
      <trkpt lat="49.93054" lon="4.54252">
        <ele>381</ele>
        <time>2024-04-06T13:01:05Z</time>
      </trkpt>
      <trkpt lat="49.93058" lon="4.54249">
        <ele>381.2</ele>
        <time>2024-04-06T13:01:06Z</time>
      </trkpt>
      <trkpt lat="49.93061" lon="4.54246">
        <ele>381.2</ele>
        <time>2024-04-06T13:01:07Z</time>
      </trkpt>
      <trkpt lat="49.93065" lon="4.54243">
        <ele>381.2</ele>
        <time>2024-04-06T13:01:08Z</time>
      </trkpt>
      <trkpt lat="49.93068" lon="4.5424">
        <ele>381.4</ele>
        <time>2024-04-06T13:01:09Z</time>
      </trkpt>
      <trkpt lat="49.93071" lon="4.54236">
        <ele>381.2</ele>
        <time>2024-04-06T13:01:10Z</time>
      </trkpt>
      <trkpt lat="49.93075" lon="4.54233">
        <ele>381.6</ele>
        <time>2024-04-06T13:01:11Z</time>
      </trkpt>
      <trkpt lat="49.93078" lon="4.5423">
        <ele>381.6</ele>
        <time>2024-04-06T13:01:12Z</time>
      </trkpt>
      <trkpt lat="49.93082" lon="4.54227">
        <ele>381.8</ele>
        <time>2024-04-06T13:01:13Z</time>
      </trkpt>
      <trkpt lat="49.93085" lon="4.54224">
        <ele>381.8</ele>
        <time>2024-04-06T13:01:14Z</time>
      </trkpt>
      <trkpt lat="49.93089" lon="4.54221">
        <ele>382.2</ele>
        <time>2024-04-06T13:01:15Z</time>
      </trkpt>
      <trkpt lat="49.93093" lon="4.54217">
        <ele>382</ele>
        <time>2024-04-06T13:01:16Z</time>
      </trkpt>
      <trkpt lat="49.93096" lon="4.54214">
        <ele>382.4</ele>
        <time>2024-04-06T13:01:17Z</time>
      </trkpt>
      <trkpt lat="49.931" lon="4.54211">
        <ele>382.6</ele>
        <time>2024-04-06T13:01:18Z</time>
      </trkpt>
      <trkpt lat="49.93104" lon="4.54207">
        <ele>382.8</ele>
        <time>2024-04-06T13:01:19Z</time>
      </trkpt>
      <trkpt lat="49.93107" lon="4.54204">
        <ele>382.8</ele>
        <time>2024-04-06T13:01:20Z</time>
      </trkpt>
      <trkpt lat="49.93111" lon="4.54201">
        <ele>382.8</ele>
        <time>2024-04-06T13:01:21Z</time>
      </trkpt>
      <trkpt lat="49.93115" lon="4.54198">
        <ele>382.8</ele>
        <time>2024-04-06T13:01:22Z</time>
      </trkpt>
      <trkpt lat="49.93118" lon="4.54194">
        <ele>383</ele>
        <time>2024-04-06T13:01:23Z</time>
      </trkpt>
      <trkpt lat="49.93122" lon="4.54191">
        <ele>383.2</ele>
        <time>2024-04-06T13:01:24Z</time>
      </trkpt>
      <trkpt lat="49.93126" lon="4.54188">
        <ele>383.2</ele>
        <time>2024-04-06T13:01:25Z</time>
      </trkpt>
      <trkpt lat="49.93129" lon="4.54185">
        <ele>383</ele>
        <time>2024-04-06T13:01:26Z</time>
      </trkpt>
      <trkpt lat="49.93133" lon="4.54181">
        <ele>383.2</ele>
        <time>2024-04-06T13:01:27Z</time>
      </trkpt>
      <trkpt lat="49.93137" lon="4.54178">
        <ele>383.2</ele>
        <time>2024-04-06T13:01:28Z</time>
      </trkpt>
      <trkpt lat="49.9314" lon="4.54175">
        <ele>383.4</ele>
        <time>2024-04-06T13:01:29Z</time>
      </trkpt>
      <trkpt lat="49.93144" lon="4.54172">
        <ele>383.6</ele>
        <time>2024-04-06T13:01:30Z</time>
      </trkpt>
      <trkpt lat="49.93148" lon="4.54168">
        <ele>383.6</ele>
        <time>2024-04-06T13:01:31Z</time>
      </trkpt>
      <trkpt lat="49.93151" lon="4.54165">
        <ele>384</ele>
        <time>2024-04-06T13:01:32Z</time>
      </trkpt>
      <trkpt lat="49.93155" lon="4.54162">
        <ele>384</ele>
        <time>2024-04-06T13:01:33Z</time>
      </trkpt>
      <trkpt lat="49.93158" lon="4.54158">
        <ele>384</ele>
        <time>2024-04-06T13:01:34Z</time>
      </trkpt>
      <trkpt lat="49.93162" lon="4.54155">
        <ele>384</ele>
        <time>2024-04-06T13:01:35Z</time>
      </trkpt>
      <trkpt lat="49.93165" lon="4.54151">
        <ele>384.4</ele>
        <time>2024-04-06T13:01:36Z</time>
      </trkpt>
      <trkpt lat="49.93168" lon="4.54147">
        <ele>384.4</ele>
        <time>2024-04-06T13:01:37Z</time>
      </trkpt>
      <trkpt lat="49.93172" lon="4.54144">
        <ele>384.4</ele>
        <time>2024-04-06T13:01:38Z</time>
      </trkpt>
      <trkpt lat="49.93175" lon="4.5414">
        <ele>384.4</ele>
        <time>2024-04-06T13:01:39Z</time>
      </trkpt>
      <trkpt lat="49.93178" lon="4.54136">
        <ele>384.6</ele>
        <time>2024-04-06T13:01:40Z</time>
      </trkpt>
      <trkpt lat="49.93181" lon="4.54132">
        <ele>384.8</ele>
        <time>2024-04-06T13:01:41Z</time>
      </trkpt>
      <trkpt lat="49.93185" lon="4.54128">
        <ele>385</ele>
        <time>2024-04-06T13:01:42Z</time>
      </trkpt>
      <trkpt lat="49.93188" lon="4.54124">
        <ele>385.2</ele>
        <time>2024-04-06T13:01:43Z</time>
      </trkpt>
      <trkpt lat="49.93191" lon="4.54119">
        <ele>385.4</ele>
        <time>2024-04-06T13:01:44Z</time>
      </trkpt>
      <trkpt lat="49.93194" lon="4.54114">
        <ele>385.4</ele>
        <time>2024-04-06T13:01:45Z</time>
      </trkpt>
      <trkpt lat="49.93197" lon="4.54109">
        <ele>385.6</ele>
        <time>2024-04-06T13:01:46Z</time>
      </trkpt>
      <trkpt lat="49.932" lon="4.54103">
        <ele>385.6</ele>
        <time>2024-04-06T13:01:47Z</time>
      </trkpt>
      <trkpt lat="49.93203" lon="4.54098">
        <ele>385.8</ele>
        <time>2024-04-06T13:01:48Z</time>
      </trkpt>
      <trkpt lat="49.93205" lon="4.54093">
        <ele>385.8</ele>
        <time>2024-04-06T13:01:49Z</time>
      </trkpt>
      <trkpt lat="49.93208" lon="4.54087">
        <ele>385.8</ele>
        <time>2024-04-06T13:01:50Z</time>
      </trkpt>
      <trkpt lat="49.9321" lon="4.54082">
        <ele>386</ele>
        <time>2024-04-06T13:01:51Z</time>
      </trkpt>
      <trkpt lat="49.93212" lon="4.54076">
        <ele>386.2</ele>
        <time>2024-04-06T13:01:52Z</time>
      </trkpt>
      <trkpt lat="49.93214" lon="4.5407">
        <ele>386.4</ele>
        <time>2024-04-06T13:01:53Z</time>
      </trkpt>
      <trkpt lat="49.93216" lon="4.54064">
        <ele>386.6</ele>
        <time>2024-04-06T13:01:54Z</time>
      </trkpt>
      <trkpt lat="49.93218" lon="4.54058">
        <ele>386.8</ele>
        <time>2024-04-06T13:01:55Z</time>
      </trkpt>
      <trkpt lat="49.9322" lon="4.54052">
        <ele>386.8</ele>
        <time>2024-04-06T13:01:56Z</time>
      </trkpt>
      <trkpt lat="49.93221" lon="4.54045">
        <ele>387</ele>
        <time>2024-04-06T13:01:57Z</time>
      </trkpt>
      <trkpt lat="49.93223" lon="4.54039">
        <ele>387</ele>
        <time>2024-04-06T13:01:58Z</time>
      </trkpt>
      <trkpt lat="49.93225" lon="4.54033">
        <ele>387</ele>
        <time>2024-04-06T13:01:59Z</time>
      </trkpt>
      <trkpt lat="49.93226" lon="4.54027">
        <ele>387.2</ele>
        <time>2024-04-06T13:02:00Z</time>
      </trkpt>
      <trkpt lat="49.93228" lon="4.5402">
        <ele>387.4</ele>
        <time>2024-04-06T13:02:01Z</time>
      </trkpt>
      <trkpt lat="49.93229" lon="4.54013">
        <ele>387.6</ele>
        <time>2024-04-06T13:02:02Z</time>
      </trkpt>
      <trkpt lat="49.9323" lon="4.54007">
        <ele>387.4</ele>
        <time>2024-04-06T13:02:03Z</time>
      </trkpt>
      <trkpt lat="49.93232" lon="4.54">
        <ele>387.4</ele>
        <time>2024-04-06T13:02:04Z</time>
      </trkpt>
      <trkpt lat="49.93233" lon="4.53994">
        <ele>387.6</ele>
        <time>2024-04-06T13:02:05Z</time>
      </trkpt>
      <trkpt lat="49.93234" lon="4.53987">
        <ele>387.8</ele>
        <time>2024-04-06T13:02:06Z</time>
      </trkpt>
      <trkpt lat="49.93236" lon="4.5398">
        <ele>387.8</ele>
        <time>2024-04-06T13:02:07Z</time>
      </trkpt>
      <trkpt lat="49.93237" lon="4.53973">
        <ele>388</ele>
        <time>2024-04-06T13:02:08Z</time>
      </trkpt>
      <trkpt lat="49.93238" lon="4.53966">
        <ele>388</ele>
        <time>2024-04-06T13:02:09Z</time>
      </trkpt>
      <trkpt lat="49.93238" lon="4.53959">
        <ele>388</ele>
        <time>2024-04-06T13:02:10Z</time>
      </trkpt>
      <trkpt lat="49.93239" lon="4.53951">
        <ele>388</ele>
        <time>2024-04-06T13:02:11Z</time>
      </trkpt>
      <trkpt lat="49.9324" lon="4.53944">
        <ele>388.2</ele>
        <time>2024-04-06T13:02:12Z</time>
      </trkpt>
      <trkpt lat="49.9324" lon="4.53936">
        <ele>388</ele>
        <time>2024-04-06T13:02:13Z</time>
      </trkpt>
      <trkpt lat="49.93241" lon="4.53928">
        <ele>388.2</ele>
        <time>2024-04-06T13:02:14Z</time>
      </trkpt>
      <trkpt lat="49.93241" lon="4.5392">
        <ele>388.2</ele>
        <time>2024-04-06T13:02:15Z</time>
      </trkpt>
      <trkpt lat="49.93241" lon="4.53912">
        <ele>388.2</ele>
        <time>2024-04-06T13:02:16Z</time>
      </trkpt>
      <trkpt lat="49.93241" lon="4.53904">
        <ele>388.2</ele>
        <time>2024-04-06T13:02:17Z</time>
      </trkpt>
      <trkpt lat="49.9324" lon="4.53896">
        <ele>388.2</ele>
        <time>2024-04-06T13:02:18Z</time>
      </trkpt>
      <trkpt lat="49.9324" lon="4.53887">
        <ele>388.2</ele>
        <time>2024-04-06T13:02:19Z</time>
      </trkpt>
      <trkpt lat="49.93239" lon="4.53879">
        <ele>388.2</ele>
        <time>2024-04-06T13:02:20Z</time>
      </trkpt>
      <trkpt lat="49.93238" lon="4.53871">
        <ele>388.2</ele>
        <time>2024-04-06T13:02:21Z</time>
      </trkpt>
      <trkpt lat="49.93237" lon="4.53863">
        <ele>388.2</ele>
        <time>2024-04-06T13:02:22Z</time>
      </trkpt>
      <trkpt lat="49.93235" lon="4.53855">
        <ele>388.2</ele>
        <time>2024-04-06T13:02:23Z</time>
      </trkpt>
      <trkpt lat="49.93234" lon="4.53847">
        <ele>388.2</ele>
        <time>2024-04-06T13:02:24Z</time>
      </trkpt>
      <trkpt lat="49.93232" lon="4.53838">
        <ele>388.2</ele>
        <time>2024-04-06T13:02:25Z</time>
      </trkpt>
      <trkpt lat="49.9323" lon="4.5383">
        <ele>388.2</ele>
        <time>2024-04-06T13:02:26Z</time>
      </trkpt>
      <trkpt lat="49.93229" lon="4.53822">
        <ele>388</ele>
        <time>2024-04-06T13:02:27Z</time>
      </trkpt>
      <trkpt lat="49.93227" lon="4.53814">
        <ele>388.2</ele>
        <time>2024-04-06T13:02:28Z</time>
      </trkpt>
      <trkpt lat="49.93224" lon="4.53806">
        <ele>388.2</ele>
        <time>2024-04-06T13:02:29Z</time>
      </trkpt>
      <trkpt lat="49.93222" lon="4.53798">
        <ele>388.2</ele>
        <time>2024-04-06T13:02:30Z</time>
      </trkpt>
      <trkpt lat="49.93219" lon="4.5379">
        <ele>388.2</ele>
        <time>2024-04-06T13:02:31Z</time>
      </trkpt>
      <trkpt lat="49.93217" lon="4.53781">
        <ele>388</ele>
        <time>2024-04-06T13:02:32Z</time>
      </trkpt>
      <trkpt lat="49.93214" lon="4.53773">
        <ele>387.8</ele>
        <time>2024-04-06T13:02:33Z</time>
      </trkpt>
      <trkpt lat="49.93212" lon="4.53765">
        <ele>387.8</ele>
        <time>2024-04-06T13:02:34Z</time>
      </trkpt>
      <trkpt lat="49.93209" lon="4.53756">
        <ele>387.8</ele>
        <time>2024-04-06T13:02:35Z</time>
      </trkpt>
      <trkpt lat="49.93207" lon="4.53748">
        <ele>387.6</ele>
        <time>2024-04-06T13:02:36Z</time>
      </trkpt>
      <trkpt lat="49.93204" lon="4.53739">
        <ele>387.6</ele>
        <time>2024-04-06T13:02:37Z</time>
      </trkpt>
      <trkpt lat="49.93202" lon="4.53731">
        <ele>387.6</ele>
        <time>2024-04-06T13:02:38Z</time>
      </trkpt>
      <trkpt lat="49.93199" lon="4.53722">
        <ele>387.6</ele>
        <time>2024-04-06T13:02:39Z</time>
      </trkpt>
      <trkpt lat="49.93197" lon="4.53713">
        <ele>387.2</ele>
        <time>2024-04-06T13:02:40Z</time>
      </trkpt>
      <trkpt lat="49.93195" lon="4.53704">
        <ele>387.2</ele>
        <time>2024-04-06T13:02:41Z</time>
      </trkpt>
      <trkpt lat="49.93193" lon="4.53696">
        <ele>387.2</ele>
        <time>2024-04-06T13:02:42Z</time>
      </trkpt>
      <trkpt lat="49.93191" lon="4.53687">
        <ele>387</ele>
        <time>2024-04-06T13:02:43Z</time>
      </trkpt>
      <trkpt lat="49.9319" lon="4.53678">
        <ele>387</ele>
        <time>2024-04-06T13:02:44Z</time>
      </trkpt>
      <trkpt lat="49.93188" lon="4.53669">
        <ele>387</ele>
        <time>2024-04-06T13:02:45Z</time>
      </trkpt>
      <trkpt lat="49.93186" lon="4.5366">
        <ele>387</ele>
        <time>2024-04-06T13:02:46Z</time>
      </trkpt>
      <trkpt lat="49.93184" lon="4.53652">
        <ele>387</ele>
        <time>2024-04-06T13:02:47Z</time>
      </trkpt>
      <trkpt lat="49.93182" lon="4.53643">
        <ele>387</ele>
        <time>2024-04-06T13:02:48Z</time>
      </trkpt>
      <trkpt lat="49.93181" lon="4.53635">
        <ele>386.8</ele>
        <time>2024-04-06T13:02:49Z</time>
      </trkpt>
      <trkpt lat="49.93179" lon="4.53626">
        <ele>386.8</ele>
        <time>2024-04-06T13:02:50Z</time>
      </trkpt>
      <trkpt lat="49.93178" lon="4.53619">
        <ele>386.6</ele>
        <time>2024-04-06T13:02:51Z</time>
      </trkpt>
      <trkpt lat="49.93176" lon="4.53611">
        <ele>386.6</ele>
        <time>2024-04-06T13:02:52Z</time>
      </trkpt>
      <trkpt lat="49.93175" lon="4.53604">
        <ele>386.6</ele>
        <time>2024-04-06T13:02:53Z</time>
      </trkpt>
      <trkpt lat="49.93173" lon="4.53596">
        <ele>386.4</ele>
        <time>2024-04-06T13:02:54Z</time>
      </trkpt>
      <trkpt lat="49.93172" lon="4.53588">
        <ele>386.4</ele>
        <time>2024-04-06T13:02:55Z</time>
      </trkpt>
      <trkpt lat="49.9317" lon="4.53581">
        <ele>386.2</ele>
        <time>2024-04-06T13:02:56Z</time>
      </trkpt>
      <trkpt lat="49.93169" lon="4.53573">
        <ele>386.2</ele>
        <time>2024-04-06T13:02:57Z</time>
      </trkpt>
      <trkpt lat="49.93167" lon="4.53565">
        <ele>386.2</ele>
        <time>2024-04-06T13:02:58Z</time>
      </trkpt>
      <trkpt lat="49.93165" lon="4.53557">
        <ele>386.2</ele>
        <time>2024-04-06T13:02:59Z</time>
      </trkpt>
      <trkpt lat="49.93163" lon="4.53549">
        <ele>386.2</ele>
        <time>2024-04-06T13:03:00Z</time>
      </trkpt>
      <trkpt lat="49.93161" lon="4.5354">
        <ele>386.2</ele>
        <time>2024-04-06T13:03:01Z</time>
      </trkpt>
      <trkpt lat="49.93159" lon="4.53532">
        <ele>386.2</ele>
        <time>2024-04-06T13:03:02Z</time>
      </trkpt>
      <trkpt lat="49.93158" lon="4.53523">
        <ele>386.2</ele>
        <time>2024-04-06T13:03:03Z</time>
      </trkpt>
      <trkpt lat="49.93156" lon="4.53514">
        <ele>386.2</ele>
        <time>2024-04-06T13:03:04Z</time>
      </trkpt>
      <trkpt lat="49.93155" lon="4.53506">
        <ele>386.2</ele>
        <time>2024-04-06T13:03:05Z</time>
      </trkpt>
      <trkpt lat="49.93154" lon="4.53497">
        <ele>386</ele>
        <time>2024-04-06T13:03:06Z</time>
      </trkpt>
      <trkpt lat="49.93152" lon="4.53488">
        <ele>386</ele>
        <time>2024-04-06T13:03:07Z</time>
      </trkpt>
      <trkpt lat="49.93151" lon="4.5348">
        <ele>386</ele>
        <time>2024-04-06T13:03:08Z</time>
      </trkpt>
      <trkpt lat="49.93149" lon="4.53471">
        <ele>385.8</ele>
        <time>2024-04-06T13:03:09Z</time>
      </trkpt>
      <trkpt lat="49.93148" lon="4.53462">
        <ele>385.8</ele>
        <time>2024-04-06T13:03:10Z</time>
      </trkpt>
      <trkpt lat="49.93146" lon="4.53453">
        <ele>385.8</ele>
        <time>2024-04-06T13:03:11Z</time>
      </trkpt>
      <trkpt lat="49.93145" lon="4.53443">
        <ele>385.6</ele>
        <time>2024-04-06T13:03:12Z</time>
      </trkpt>
      <trkpt lat="49.93144" lon="4.53434">
        <ele>385.6</ele>
        <time>2024-04-06T13:03:13Z</time>
      </trkpt>
      <trkpt lat="49.93145" lon="4.53424">
        <ele>385.6</ele>
        <time>2024-04-06T13:03:14Z</time>
      </trkpt>
      <trkpt lat="49.93145" lon="4.53414">
        <ele>385.2</ele>
        <time>2024-04-06T13:03:15Z</time>
      </trkpt>
      <trkpt lat="49.93146" lon="4.53405">
        <ele>385.2</ele>
        <time>2024-04-06T13:03:16Z</time>
      </trkpt>
      <trkpt lat="49.93148" lon="4.53395">
        <ele>385.2</ele>
        <time>2024-04-06T13:03:17Z</time>
      </trkpt>
      <trkpt lat="49.93151" lon="4.53386">
        <ele>385.2</ele>
        <time>2024-04-06T13:03:18Z</time>
      </trkpt>
      <trkpt lat="49.93154" lon="4.53378">
        <ele>385</ele>
        <time>2024-04-06T13:03:19Z</time>
      </trkpt>
      <trkpt lat="49.93157" lon="4.53369">
        <ele>385</ele>
        <time>2024-04-06T13:03:20Z</time>
      </trkpt>
      <trkpt lat="49.9316" lon="4.53361">
        <ele>385</ele>
        <time>2024-04-06T13:03:21Z</time>
      </trkpt>
      <trkpt lat="49.93163" lon="4.53353">
        <ele>385</ele>
        <time>2024-04-06T13:03:22Z</time>
      </trkpt>
      <trkpt lat="49.93166" lon="4.53345">
        <ele>385</ele>
        <time>2024-04-06T13:03:23Z</time>
      </trkpt>
      <trkpt lat="49.93169" lon="4.53338">
        <ele>385</ele>
        <time>2024-04-06T13:03:24Z</time>
      </trkpt>
      <trkpt lat="49.93172" lon="4.5333">
        <ele>385</ele>
        <time>2024-04-06T13:03:25Z</time>
      </trkpt>
      <trkpt lat="49.93175" lon="4.53323">
        <ele>385</ele>
        <time>2024-04-06T13:03:26Z</time>
      </trkpt>
      <trkpt lat="49.93177" lon="4.53316">
        <ele>385</ele>
        <time>2024-04-06T13:03:27Z</time>
      </trkpt>
      <trkpt lat="49.9318" lon="4.53309">
        <ele>385</ele>
        <time>2024-04-06T13:03:28Z</time>
      </trkpt>
      <trkpt lat="49.93182" lon="4.53302">
        <ele>385</ele>
        <time>2024-04-06T13:03:29Z</time>
      </trkpt>
      <trkpt lat="49.93185" lon="4.53295">
        <ele>385</ele>
        <time>2024-04-06T13:03:30Z</time>
      </trkpt>
      <trkpt lat="49.93188" lon="4.53288">
        <ele>385.2</ele>
        <time>2024-04-06T13:03:31Z</time>
      </trkpt>
      <trkpt lat="49.9319" lon="4.53282">
        <ele>385</ele>
        <time>2024-04-06T13:03:32Z</time>
      </trkpt>
      <trkpt lat="49.93193" lon="4.53277">
        <ele>385</ele>
        <time>2024-04-06T13:03:33Z</time>
      </trkpt>
      <trkpt lat="49.93197" lon="4.53272">
        <ele>385.2</ele>
        <time>2024-04-06T13:03:34Z</time>
      </trkpt>
      <trkpt lat="49.93201" lon="4.53269">
        <ele>385.2</ele>
        <time>2024-04-06T13:03:35Z</time>
      </trkpt>
      <trkpt lat="49.93205" lon="4.53267">
        <ele>385.4</ele>
        <time>2024-04-06T13:03:36Z</time>
      </trkpt>
      <trkpt lat="49.9321" lon="4.53266">
        <ele>385.4</ele>
        <time>2024-04-06T13:03:37Z</time>
      </trkpt>
      <trkpt lat="49.93215" lon="4.53268">
        <ele>385.2</ele>
        <time>2024-04-06T13:03:38Z</time>
      </trkpt>
      <trkpt lat="49.9322" lon="4.53271">
        <ele>385.2</ele>
        <time>2024-04-06T13:03:39Z</time>
      </trkpt>
      <trkpt lat="49.93224" lon="4.53276">
        <ele>385.4</ele>
        <time>2024-04-06T13:03:40Z</time>
      </trkpt>
      <trkpt lat="49.93228" lon="4.53282">
        <ele>385.2</ele>
        <time>2024-04-06T13:03:41Z</time>
      </trkpt>
      <trkpt lat="49.93232" lon="4.53289">
        <ele>385.2</ele>
        <time>2024-04-06T13:03:42Z</time>
      </trkpt>
      <trkpt lat="49.93237" lon="4.53295">
        <ele>385.2</ele>
        <time>2024-04-06T13:03:43Z</time>
      </trkpt>
      <trkpt lat="49.93241" lon="4.53302">
        <ele>385.2</ele>
        <time>2024-04-06T13:03:44Z</time>
      </trkpt>
      <trkpt lat="49.93245" lon="4.53309">
        <ele>385.2</ele>
        <time>2024-04-06T13:03:45Z</time>
      </trkpt>
      <trkpt lat="49.9325" lon="4.53316">
        <ele>385.2</ele>
        <time>2024-04-06T13:03:46Z</time>
      </trkpt>
      <trkpt lat="49.93254" lon="4.53323">
        <ele>385.2</ele>
        <time>2024-04-06T13:03:47Z</time>
      </trkpt>
      <trkpt lat="49.93259" lon="4.5333">
        <ele>385</ele>
        <time>2024-04-06T13:03:48Z</time>
      </trkpt>
      <trkpt lat="49.93264" lon="4.53338">
        <ele>385</ele>
        <time>2024-04-06T13:03:49Z</time>
      </trkpt>
      <trkpt lat="49.93268" lon="4.53345">
        <ele>384.6</ele>
        <time>2024-04-06T13:03:50Z</time>
      </trkpt>
      <trkpt lat="49.93273" lon="4.53352">
        <ele>384.6</ele>
        <time>2024-04-06T13:03:51Z</time>
      </trkpt>
      <trkpt lat="49.93277" lon="4.5336">
        <ele>384.6</ele>
        <time>2024-04-06T13:03:52Z</time>
      </trkpt>
      <trkpt lat="49.93282" lon="4.53367">
        <ele>384.6</ele>
        <time>2024-04-06T13:03:53Z</time>
      </trkpt>
      <trkpt lat="49.93286" lon="4.53374">
        <ele>384.4</ele>
        <time>2024-04-06T13:03:54Z</time>
      </trkpt>
      <trkpt lat="49.93291" lon="4.53381">
        <ele>384.4</ele>
        <time>2024-04-06T13:03:55Z</time>
      </trkpt>
      <trkpt lat="49.93295" lon="4.53388">
        <ele>384.4</ele>
        <time>2024-04-06T13:03:56Z</time>
      </trkpt>
      <trkpt lat="49.933" lon="4.53395">
        <ele>384.4</ele>
        <time>2024-04-06T13:03:57Z</time>
      </trkpt>
      <trkpt lat="49.93304" lon="4.53401">
        <ele>384</ele>
        <time>2024-04-06T13:03:58Z</time>
      </trkpt>
      <trkpt lat="49.93309" lon="4.53407">
        <ele>384</ele>
        <time>2024-04-06T13:03:59Z</time>
      </trkpt>
      <trkpt lat="49.93314" lon="4.53412">
        <ele>383.8</ele>
        <time>2024-04-06T13:04:00Z</time>
      </trkpt>
      <trkpt lat="49.9332" lon="4.53416">
        <ele>383.8</ele>
        <time>2024-04-06T13:04:01Z</time>
      </trkpt>
      <trkpt lat="49.93326" lon="4.5342">
        <ele>383.8</ele>
        <time>2024-04-06T13:04:02Z</time>
      </trkpt>
      <trkpt lat="49.93333" lon="4.53424">
        <ele>383.8</ele>
        <time>2024-04-06T13:04:03Z</time>
      </trkpt>
      <trkpt lat="49.9334" lon="4.53428">
        <ele>383.8</ele>
        <time>2024-04-06T13:04:04Z</time>
      </trkpt>
      <trkpt lat="49.93347" lon="4.53432">
        <ele>383.8</ele>
        <time>2024-04-06T13:04:05Z</time>
      </trkpt>
      <trkpt lat="49.93354" lon="4.53437">
        <ele>383.8</ele>
        <time>2024-04-06T13:04:06Z</time>
      </trkpt>
      <trkpt lat="49.93362" lon="4.53441">
        <ele>383.4</ele>
        <time>2024-04-06T13:04:07Z</time>
      </trkpt>
      <trkpt lat="49.93369" lon="4.53445">
        <ele>383.4</ele>
        <time>2024-04-06T13:04:08Z</time>
      </trkpt>
      <trkpt lat="49.93378" lon="4.53449">
        <ele>383.2</ele>
        <time>2024-04-06T13:04:09Z</time>
      </trkpt>
      <trkpt lat="49.93385" lon="4.53454">
        <ele>383.2</ele>
        <time>2024-04-06T13:04:10Z</time>
      </trkpt>
      <trkpt lat="49.93393" lon="4.53458">
        <ele>383</ele>
        <time>2024-04-06T13:04:11Z</time>
      </trkpt>
      <trkpt lat="49.93402" lon="4.53463">
        <ele>382.8</ele>
        <time>2024-04-06T13:04:12Z</time>
      </trkpt>
      <trkpt lat="49.9341" lon="4.53467">
        <ele>382.4</ele>
        <time>2024-04-06T13:04:13Z</time>
      </trkpt>
      <trkpt lat="49.93418" lon="4.53471">
        <ele>382</ele>
        <time>2024-04-06T13:04:14Z</time>
      </trkpt>
      <trkpt lat="49.93427" lon="4.53476">
        <ele>381.8</ele>
        <time>2024-04-06T13:04:15Z</time>
      </trkpt>
      <trkpt lat="49.93436" lon="4.53481">
        <ele>381.4</ele>
        <time>2024-04-06T13:04:16Z</time>
      </trkpt>
      <trkpt lat="49.93445" lon="4.53485">
        <ele>381.4</ele>
        <time>2024-04-06T13:04:17Z</time>
      </trkpt>
      <trkpt lat="49.93453" lon="4.5349">
        <ele>381</ele>
        <time>2024-04-06T13:04:18Z</time>
      </trkpt>
      <trkpt lat="49.93462" lon="4.53495">
        <ele>380.6</ele>
        <time>2024-04-06T13:04:19Z</time>
      </trkpt>
      <trkpt lat="49.93471" lon="4.53499">
        <ele>380.4</ele>
        <time>2024-04-06T13:04:20Z</time>
      </trkpt>
      <trkpt lat="49.9348" lon="4.53504">
        <ele>379.8</ele>
        <time>2024-04-06T13:04:21Z</time>
      </trkpt>
      <trkpt lat="49.93489" lon="4.53508">
        <ele>379.2</ele>
        <time>2024-04-06T13:04:22Z</time>
      </trkpt>
      <trkpt lat="49.93498" lon="4.53513">
        <ele>378.8</ele>
        <time>2024-04-06T13:04:23Z</time>
      </trkpt>
      <trkpt lat="49.93507" lon="4.53518">
        <ele>378.2</ele>
        <time>2024-04-06T13:04:24Z</time>
      </trkpt>
      <trkpt lat="49.93515" lon="4.53522">
        <ele>378.2</ele>
        <time>2024-04-06T13:04:25Z</time>
      </trkpt>
      <trkpt lat="49.93524" lon="4.53527">
        <ele>377.8</ele>
        <time>2024-04-06T13:04:26Z</time>
      </trkpt>
      <trkpt lat="49.93533" lon="4.53531">
        <ele>377.8</ele>
        <time>2024-04-06T13:04:27Z</time>
      </trkpt>
      <trkpt lat="49.93541" lon="4.53535">
        <ele>377.6</ele>
        <time>2024-04-06T13:04:28Z</time>
      </trkpt>
      <trkpt lat="49.9355" lon="4.5354">
        <ele>377.6</ele>
        <time>2024-04-06T13:04:29Z</time>
      </trkpt>
      <trkpt lat="49.93559" lon="4.53544">
        <ele>377.4</ele>
        <time>2024-04-06T13:04:30Z</time>
      </trkpt>
      <trkpt lat="49.93568" lon="4.53549">
        <ele>377</ele>
        <time>2024-04-06T13:04:31Z</time>
      </trkpt>
      <trkpt lat="49.93576" lon="4.53553">
        <ele>376.8</ele>
        <time>2024-04-06T13:04:32Z</time>
      </trkpt>
      <trkpt lat="49.93585" lon="4.53558">
        <ele>376.4</ele>
        <time>2024-04-06T13:04:33Z</time>
      </trkpt>
      <trkpt lat="49.93594" lon="4.53562">
        <ele>376.2</ele>
        <time>2024-04-06T13:04:34Z</time>
      </trkpt>
      <trkpt lat="49.93602" lon="4.53566">
        <ele>376</ele>
        <time>2024-04-06T13:04:35Z</time>
      </trkpt>
      <trkpt lat="49.93611" lon="4.5357">
        <ele>375.8</ele>
        <time>2024-04-06T13:04:36Z</time>
      </trkpt>
      <trkpt lat="49.9362" lon="4.53572">
        <ele>375.6</ele>
        <time>2024-04-06T13:04:37Z</time>
      </trkpt>
      <trkpt lat="49.93629" lon="4.53571">
        <ele>375.4</ele>
        <time>2024-04-06T13:04:38Z</time>
      </trkpt>
      <trkpt lat="49.93638" lon="4.53568">
        <ele>375.4</ele>
        <time>2024-04-06T13:04:39Z</time>
      </trkpt>
      <trkpt lat="49.93646" lon="4.53562">
        <ele>375.4</ele>
        <time>2024-04-06T13:04:40Z</time>
      </trkpt>
      <trkpt lat="49.93654" lon="4.53555">
        <ele>375.2</ele>
        <time>2024-04-06T13:04:41Z</time>
      </trkpt>
      <trkpt lat="49.93662" lon="4.53548">
        <ele>375.2</ele>
        <time>2024-04-06T13:04:42Z</time>
      </trkpt>
      <trkpt lat="49.9367" lon="4.5354">
        <ele>375</ele>
        <time>2024-04-06T13:04:43Z</time>
      </trkpt>
      <trkpt lat="49.93678" lon="4.53532">
        <ele>374.8</ele>
        <time>2024-04-06T13:04:44Z</time>
      </trkpt>
      <trkpt lat="49.93686" lon="4.53525">
        <ele>374.8</ele>
        <time>2024-04-06T13:04:45Z</time>
      </trkpt>
      <trkpt lat="49.93695" lon="4.53517">
        <ele>374.4</ele>
        <time>2024-04-06T13:04:46Z</time>
      </trkpt>
      <trkpt lat="49.93703" lon="4.53509">
        <ele>374.4</ele>
        <time>2024-04-06T13:04:47Z</time>
      </trkpt>
      <trkpt lat="49.93711" lon="4.53502">
        <ele>374.2</ele>
        <time>2024-04-06T13:04:48Z</time>
      </trkpt>
      <trkpt lat="49.93719" lon="4.53495">
        <ele>374</ele>
        <time>2024-04-06T13:04:49Z</time>
      </trkpt>
      <trkpt lat="49.93727" lon="4.53488">
        <ele>373.8</ele>
        <time>2024-04-06T13:04:50Z</time>
      </trkpt>
      <trkpt lat="49.93735" lon="4.53481">
        <ele>373.4</ele>
        <time>2024-04-06T13:04:51Z</time>
      </trkpt>
      <trkpt lat="49.93742" lon="4.53474">
        <ele>373</ele>
        <time>2024-04-06T13:04:52Z</time>
      </trkpt>
      <trkpt lat="49.9375" lon="4.53467">
        <ele>372.4</ele>
        <time>2024-04-06T13:04:53Z</time>
      </trkpt>
      <trkpt lat="49.93757" lon="4.5346">
        <ele>372</ele>
        <time>2024-04-06T13:04:54Z</time>
      </trkpt>
      <trkpt lat="49.93765" lon="4.53453">
        <ele>371.8</ele>
        <time>2024-04-06T13:04:55Z</time>
      </trkpt>
      <trkpt lat="49.93773" lon="4.53446">
        <ele>371.4</ele>
        <time>2024-04-06T13:04:56Z</time>
      </trkpt>
      <trkpt lat="49.93781" lon="4.53439">
        <ele>371.2</ele>
        <time>2024-04-06T13:04:57Z</time>
      </trkpt>
      <trkpt lat="49.93789" lon="4.53431">
        <ele>371.2</ele>
        <time>2024-04-06T13:04:58Z</time>
      </trkpt>
      <trkpt lat="49.93796" lon="4.53423">
        <ele>371</ele>
        <time>2024-04-06T13:04:59Z</time>
      </trkpt>
      <trkpt lat="49.93804" lon="4.53416">
        <ele>370.8</ele>
        <time>2024-04-06T13:05:00Z</time>
      </trkpt>
      <trkpt lat="49.93812" lon="4.53408">
        <ele>371</ele>
        <time>2024-04-06T13:05:01Z</time>
      </trkpt>
      <trkpt lat="49.93821" lon="4.53399">
        <ele>370.8</ele>
        <time>2024-04-06T13:05:02Z</time>
      </trkpt>
      <trkpt lat="49.93829" lon="4.53392">
        <ele>370.6</ele>
        <time>2024-04-06T13:05:03Z</time>
      </trkpt>
      <trkpt lat="49.93837" lon="4.53384">
        <ele>370.6</ele>
        <time>2024-04-06T13:05:04Z</time>
      </trkpt>
      <trkpt lat="49.93846" lon="4.53377">
        <ele>370.2</ele>
        <time>2024-04-06T13:05:05Z</time>
      </trkpt>
      <trkpt lat="49.93854" lon="4.53369">
        <ele>370</ele>
        <time>2024-04-06T13:05:06Z</time>
      </trkpt>
      <trkpt lat="49.93863" lon="4.53361">
        <ele>369.4</ele>
        <time>2024-04-06T13:05:07Z</time>
      </trkpt>
      <trkpt lat="49.93871" lon="4.53353">
        <ele>368.8</ele>
        <time>2024-04-06T13:05:08Z</time>
      </trkpt>
      <trkpt lat="49.9388" lon="4.53346">
        <ele>368</ele>
        <time>2024-04-06T13:05:09Z</time>
      </trkpt>
      <trkpt lat="49.93889" lon="4.53339">
        <ele>367.6</ele>
        <time>2024-04-06T13:05:10Z</time>
      </trkpt>
      <trkpt lat="49.93898" lon="4.53333">
        <ele>367.6</ele>
        <time>2024-04-06T13:05:11Z</time>
      </trkpt>
      <trkpt lat="49.93906" lon="4.53326">
        <ele>367.2</ele>
        <time>2024-04-06T13:05:12Z</time>
      </trkpt>
      <trkpt lat="49.93913" lon="4.53319">
        <ele>367.2</ele>
        <time>2024-04-06T13:05:13Z</time>
      </trkpt>
      <trkpt lat="49.93919" lon="4.53313">
        <ele>367.2</ele>
        <time>2024-04-06T13:05:14Z</time>
      </trkpt>
      <trkpt lat="49.93925" lon="4.53306">
        <ele>367</ele>
        <time>2024-04-06T13:05:15Z</time>
      </trkpt>
      <trkpt lat="49.93931" lon="4.533">
        <ele>367.2</ele>
        <time>2024-04-06T13:05:16Z</time>
      </trkpt>
      <trkpt lat="49.93936" lon="4.53293">
        <ele>367.2</ele>
        <time>2024-04-06T13:05:17Z</time>
      </trkpt>
      <trkpt lat="49.93942" lon="4.53286">
        <ele>367</ele>
        <time>2024-04-06T13:05:18Z</time>
      </trkpt>
      <trkpt lat="49.93947" lon="4.5328">
        <ele>367.2</ele>
        <time>2024-04-06T13:05:19Z</time>
      </trkpt>
      <trkpt lat="49.93951" lon="4.53273">
        <ele>367.2</ele>
        <time>2024-04-06T13:05:20Z</time>
      </trkpt>
      <trkpt lat="49.93955" lon="4.53265">
        <ele>367.4</ele>
        <time>2024-04-06T13:05:21Z</time>
      </trkpt>
      <trkpt lat="49.93957" lon="4.53255">
        <ele>367.4</ele>
        <time>2024-04-06T13:05:22Z</time>
      </trkpt>
      <trkpt lat="49.93959" lon="4.53244">
        <ele>367.4</ele>
        <time>2024-04-06T13:05:23Z</time>
      </trkpt>
      <trkpt lat="49.9396" lon="4.53233">
        <ele>367.4</ele>
        <time>2024-04-06T13:05:24Z</time>
      </trkpt>
      <trkpt lat="49.93963" lon="4.53222">
        <ele>367.4</ele>
        <time>2024-04-06T13:05:25Z</time>
      </trkpt>
      <trkpt lat="49.93966" lon="4.5321">
        <ele>367.2</ele>
        <time>2024-04-06T13:05:26Z</time>
      </trkpt>
      <trkpt lat="49.93968" lon="4.53197">
        <ele>367.4</ele>
        <time>2024-04-06T13:05:27Z</time>
      </trkpt>
      <trkpt lat="49.9397" lon="4.53183">
        <ele>367.2</ele>
        <time>2024-04-06T13:05:28Z</time>
      </trkpt>
      <trkpt lat="49.9397" lon="4.5317">
        <ele>367.2</ele>
        <time>2024-04-06T13:05:29Z</time>
      </trkpt>
      <trkpt lat="49.9397" lon="4.53156">
        <ele>367.4</ele>
        <time>2024-04-06T13:05:30Z</time>
      </trkpt>
      <trkpt lat="49.93969" lon="4.53143">
        <ele>367.4</ele>
        <time>2024-04-06T13:05:31Z</time>
      </trkpt>
      <trkpt lat="49.93968" lon="4.53129">
        <ele>367.4</ele>
        <time>2024-04-06T13:05:32Z</time>
      </trkpt>
      <trkpt lat="49.93967" lon="4.53117">
        <ele>366.8</ele>
        <time>2024-04-06T13:05:33Z</time>
      </trkpt>
      <trkpt lat="49.93968" lon="4.53106">
        <ele>366.2</ele>
        <time>2024-04-06T13:05:34Z</time>
      </trkpt>
      <trkpt lat="49.93971" lon="4.53097">
        <ele>366</ele>
        <time>2024-04-06T13:05:35Z</time>
      </trkpt>
      <trkpt lat="49.93976" lon="4.53088">
        <ele>366</ele>
        <time>2024-04-06T13:05:36Z</time>
      </trkpt>
      <trkpt lat="49.93981" lon="4.5308">
        <ele>366</ele>
        <time>2024-04-06T13:05:37Z</time>
      </trkpt>
      <trkpt lat="49.93986" lon="4.53073">
        <ele>366</ele>
        <time>2024-04-06T13:05:38Z</time>
      </trkpt>
      <trkpt lat="49.93991" lon="4.53066">
        <ele>366</ele>
        <time>2024-04-06T13:05:39Z</time>
      </trkpt>
      <trkpt lat="49.93996" lon="4.53059">
        <ele>366</ele>
        <time>2024-04-06T13:05:40Z</time>
      </trkpt>
      <trkpt lat="49.94002" lon="4.53053">
        <ele>366</ele>
        <time>2024-04-06T13:05:41Z</time>
      </trkpt>
      <trkpt lat="49.94007" lon="4.53048">
        <ele>366</ele>
        <time>2024-04-06T13:05:42Z</time>
      </trkpt>
      <trkpt lat="49.94012" lon="4.53042">
        <ele>366</ele>
        <time>2024-04-06T13:05:43Z</time>
      </trkpt>
      <trkpt lat="49.94016" lon="4.53036">
        <ele>366.2</ele>
        <time>2024-04-06T13:05:44Z</time>
      </trkpt>
      <trkpt lat="49.94021" lon="4.53031">
        <ele>366.4</ele>
        <time>2024-04-06T13:05:45Z</time>
      </trkpt>
      <trkpt lat="49.94025" lon="4.53025">
        <ele>366.8</ele>
        <time>2024-04-06T13:05:46Z</time>
      </trkpt>
      <trkpt lat="49.94029" lon="4.5302">
        <ele>366.8</ele>
        <time>2024-04-06T13:05:47Z</time>
      </trkpt>
      <trkpt lat="49.94034" lon="4.53014">
        <ele>367.2</ele>
        <time>2024-04-06T13:05:48Z</time>
      </trkpt>
      <trkpt lat="49.94038" lon="4.53009">
        <ele>367.2</ele>
        <time>2024-04-06T13:05:49Z</time>
      </trkpt>
      <trkpt lat="49.94042" lon="4.53004">
        <ele>367.6</ele>
        <time>2024-04-06T13:05:50Z</time>
      </trkpt>
      <trkpt lat="49.94047" lon="4.52999">
        <ele>367.6</ele>
        <time>2024-04-06T13:05:51Z</time>
      </trkpt>
      <trkpt lat="49.94051" lon="4.52993">
        <ele>367.8</ele>
        <time>2024-04-06T13:05:52Z</time>
      </trkpt>
      <trkpt lat="49.94055" lon="4.52988">
        <ele>368.2</ele>
        <time>2024-04-06T13:05:53Z</time>
      </trkpt>
      <trkpt lat="49.94059" lon="4.52982">
        <ele>368.4</ele>
        <time>2024-04-06T13:05:54Z</time>
      </trkpt>
      <trkpt lat="49.94063" lon="4.52977">
        <ele>368.8</ele>
        <time>2024-04-06T13:05:55Z</time>
      </trkpt>
      <trkpt lat="49.94067" lon="4.52971">
        <ele>369</ele>
        <time>2024-04-06T13:05:56Z</time>
      </trkpt>
      <trkpt lat="49.94072" lon="4.52966">
        <ele>369.2</ele>
        <time>2024-04-06T13:05:57Z</time>
      </trkpt>
      <trkpt lat="49.94076" lon="4.5296">
        <ele>369.2</ele>
        <time>2024-04-06T13:05:58Z</time>
      </trkpt>
      <trkpt lat="49.9408" lon="4.52955">
        <ele>369.2</ele>
        <time>2024-04-06T13:05:59Z</time>
      </trkpt>
      <trkpt lat="49.94085" lon="4.5295">
        <ele>369.6</ele>
        <time>2024-04-06T13:06:00Z</time>
      </trkpt>
      <trkpt lat="49.94089" lon="4.52944">
        <ele>369.4</ele>
        <time>2024-04-06T13:06:01Z</time>
      </trkpt>
      <trkpt lat="49.94094" lon="4.52939">
        <ele>370</ele>
        <time>2024-04-06T13:06:02Z</time>
      </trkpt>
      <trkpt lat="49.94098" lon="4.52934">
        <ele>370.2</ele>
        <time>2024-04-06T13:06:03Z</time>
      </trkpt>
      <trkpt lat="49.94102" lon="4.52928">
        <ele>370.2</ele>
        <time>2024-04-06T13:06:04Z</time>
      </trkpt>
      <trkpt lat="49.94106" lon="4.52923">
        <ele>370.6</ele>
        <time>2024-04-06T13:06:05Z</time>
      </trkpt>
      <trkpt lat="49.94111" lon="4.52919">
        <ele>370.6</ele>
        <time>2024-04-06T13:06:06Z</time>
      </trkpt>
      <trkpt lat="49.94117" lon="4.52918">
        <ele>370.6</ele>
        <time>2024-04-06T13:06:07Z</time>
      </trkpt>
      <trkpt lat="49.94123" lon="4.52918">
        <ele>370.8</ele>
        <time>2024-04-06T13:06:08Z</time>
      </trkpt>
      <trkpt lat="49.94128" lon="4.5292">
        <ele>370.8</ele>
        <time>2024-04-06T13:06:09Z</time>
      </trkpt>
      <trkpt lat="49.94134" lon="4.52922">
        <ele>370.8</ele>
        <time>2024-04-06T13:06:10Z</time>
      </trkpt>
      <trkpt lat="49.94141" lon="4.52925">
        <ele>370.8</ele>
        <time>2024-04-06T13:06:11Z</time>
      </trkpt>
      <trkpt lat="49.94147" lon="4.52927">
        <ele>370.8</ele>
        <time>2024-04-06T13:06:12Z</time>
      </trkpt>
      <trkpt lat="49.94153" lon="4.52928">
        <ele>370.8</ele>
        <time>2024-04-06T13:06:13Z</time>
      </trkpt>
      <trkpt lat="49.94159" lon="4.52929">
        <ele>370.8</ele>
        <time>2024-04-06T13:06:14Z</time>
      </trkpt>
      <trkpt lat="49.94166" lon="4.52931">
        <ele>371</ele>
        <time>2024-04-06T13:06:15Z</time>
      </trkpt>
      <trkpt lat="49.94173" lon="4.52933">
        <ele>370.8</ele>
        <time>2024-04-06T13:06:16Z</time>
      </trkpt>
      <trkpt lat="49.9418" lon="4.52936">
        <ele>370.8</ele>
        <time>2024-04-06T13:06:17Z</time>
      </trkpt>
      <trkpt lat="49.94187" lon="4.52939">
        <ele>370.8</ele>
        <time>2024-04-06T13:06:18Z</time>
      </trkpt>
      <trkpt lat="49.94195" lon="4.52942">
        <ele>370.8</ele>
        <time>2024-04-06T13:06:19Z</time>
      </trkpt>
      <trkpt lat="49.94202" lon="4.52945">
        <ele>370.6</ele>
        <time>2024-04-06T13:06:20Z</time>
      </trkpt>
      <trkpt lat="49.94209" lon="4.52948">
        <ele>370.6</ele>
        <time>2024-04-06T13:06:21Z</time>
      </trkpt>
      <trkpt lat="49.94217" lon="4.52951">
        <ele>370</ele>
        <time>2024-04-06T13:06:22Z</time>
      </trkpt>
      <trkpt lat="49.94224" lon="4.52955">
        <ele>369.8</ele>
        <time>2024-04-06T13:06:23Z</time>
      </trkpt>
      <trkpt lat="49.94232" lon="4.52958">
        <ele>369</ele>
        <time>2024-04-06T13:06:24Z</time>
      </trkpt>
      <trkpt lat="49.9424" lon="4.5296">
        <ele>368.4</ele>
        <time>2024-04-06T13:06:25Z</time>
      </trkpt>
      <trkpt lat="49.94248" lon="4.5296">
        <ele>368</ele>
        <time>2024-04-06T13:06:26Z</time>
      </trkpt>
      <trkpt lat="49.94256" lon="4.52956">
        <ele>367.6</ele>
        <time>2024-04-06T13:06:27Z</time>
      </trkpt>
      <trkpt lat="49.94265" lon="4.5295">
        <ele>367.4</ele>
        <time>2024-04-06T13:06:28Z</time>
      </trkpt>
      <trkpt lat="49.94273" lon="4.52943">
        <ele>367.2</ele>
        <time>2024-04-06T13:06:29Z</time>
      </trkpt>
      <trkpt lat="49.94282" lon="4.52936">
        <ele>367</ele>
        <time>2024-04-06T13:06:30Z</time>
      </trkpt>
      <trkpt lat="49.94291" lon="4.52929">
        <ele>366.4</ele>
        <time>2024-04-06T13:06:31Z</time>
      </trkpt>
      <trkpt lat="49.94301" lon="4.52921">
        <ele>365.2</ele>
        <time>2024-04-06T13:06:32Z</time>
      </trkpt>
      <trkpt lat="49.94311" lon="4.52913">
        <ele>364.6</ele>
        <time>2024-04-06T13:06:33Z</time>
      </trkpt>
      <trkpt lat="49.94322" lon="4.52904">
        <ele>363.8</ele>
        <time>2024-04-06T13:06:34Z</time>
      </trkpt>
      <trkpt lat="49.94332" lon="4.52896">
        <ele>363.4</ele>
        <time>2024-04-06T13:06:35Z</time>
      </trkpt>
      <trkpt lat="49.94343" lon="4.52886">
        <ele>362.6</ele>
        <time>2024-04-06T13:06:36Z</time>
      </trkpt>
      <trkpt lat="49.94354" lon="4.52877">
        <ele>361.8</ele>
        <time>2024-04-06T13:06:37Z</time>
      </trkpt>
      <trkpt lat="49.94364" lon="4.52867">
        <ele>361</ele>
        <time>2024-04-06T13:06:38Z</time>
      </trkpt>
      <trkpt lat="49.94375" lon="4.52858">
        <ele>360</ele>
        <time>2024-04-06T13:06:39Z</time>
      </trkpt>
      <trkpt lat="49.94386" lon="4.52848">
        <ele>359</ele>
        <time>2024-04-06T13:06:40Z</time>
      </trkpt>
      <trkpt lat="49.94397" lon="4.52838">
        <ele>357.8</ele>
        <time>2024-04-06T13:06:41Z</time>
      </trkpt>
      <trkpt lat="49.94408" lon="4.52828">
        <ele>357.8</ele>
        <time>2024-04-06T13:06:42Z</time>
      </trkpt>
      <trkpt lat="49.94419" lon="4.52818">
        <ele>356.8</ele>
        <time>2024-04-06T13:06:43Z</time>
      </trkpt>
      <trkpt lat="49.9443" lon="4.52808">
        <ele>356.2</ele>
        <time>2024-04-06T13:06:44Z</time>
      </trkpt>
      <trkpt lat="49.94442" lon="4.52798">
        <ele>355</ele>
        <time>2024-04-06T13:06:45Z</time>
      </trkpt>
      <trkpt lat="49.94453" lon="4.52788">
        <ele>354.2</ele>
        <time>2024-04-06T13:06:46Z</time>
      </trkpt>
      <trkpt lat="49.94464" lon="4.52778">
        <ele>353.4</ele>
        <time>2024-04-06T13:06:47Z</time>
      </trkpt>
      <trkpt lat="49.94475" lon="4.52768">
        <ele>353</ele>
        <time>2024-04-06T13:06:48Z</time>
      </trkpt>
      <trkpt lat="49.94485" lon="4.52759">
        <ele>352.6</ele>
        <time>2024-04-06T13:06:49Z</time>
      </trkpt>
      <trkpt lat="49.94496" lon="4.52752">
        <ele>352</ele>
        <time>2024-04-06T13:06:50Z</time>
      </trkpt>
      <trkpt lat="49.94505" lon="4.52745">
        <ele>352</ele>
        <time>2024-04-06T13:06:51Z</time>
      </trkpt>
      <trkpt lat="49.94514" lon="4.52738">
        <ele>351.8</ele>
        <time>2024-04-06T13:06:52Z</time>
      </trkpt>
      <trkpt lat="49.94522" lon="4.5273">
        <ele>351.6</ele>
        <time>2024-04-06T13:06:53Z</time>
      </trkpt>
      <trkpt lat="49.94527" lon="4.52721">
        <ele>351.4</ele>
        <time>2024-04-06T13:06:54Z</time>
      </trkpt>
      <trkpt lat="49.9453" lon="4.52709">
        <ele>350.8</ele>
        <time>2024-04-06T13:06:55Z</time>
      </trkpt>
      <trkpt lat="49.94531" lon="4.52696">
        <ele>350</ele>
        <time>2024-04-06T13:06:56Z</time>
      </trkpt>
      <trkpt lat="49.94529" lon="4.52683">
        <ele>349.4</ele>
        <time>2024-04-06T13:06:57Z</time>
      </trkpt>
      <trkpt lat="49.94526" lon="4.52672">
        <ele>349.2</ele>
        <time>2024-04-06T13:06:58Z</time>
      </trkpt>
      <trkpt lat="49.94523" lon="4.52662">
        <ele>348.4</ele>
        <time>2024-04-06T13:06:59Z</time>
      </trkpt>
      <trkpt lat="49.94521" lon="4.52652">
        <ele>347.8</ele>
        <time>2024-04-06T13:07:00Z</time>
      </trkpt>
      <trkpt lat="49.9452" lon="4.52642">
        <ele>347</ele>
        <time>2024-04-06T13:07:01Z</time>
      </trkpt>
      <trkpt lat="49.94519" lon="4.52632">
        <ele>346</ele>
        <time>2024-04-06T13:07:02Z</time>
      </trkpt>
      <trkpt lat="49.94517" lon="4.52622">
        <ele>345.2</ele>
        <time>2024-04-06T13:07:03Z</time>
      </trkpt>
      <trkpt lat="49.94514" lon="4.52614">
        <ele>344.8</ele>
        <time>2024-04-06T13:07:04Z</time>
      </trkpt>
      <trkpt lat="49.9451" lon="4.52605">
        <ele>344.4</ele>
        <time>2024-04-06T13:07:05Z</time>
      </trkpt>
      <trkpt lat="49.94507" lon="4.52597">
        <ele>344.2</ele>
        <time>2024-04-06T13:07:06Z</time>
      </trkpt>
      <trkpt lat="49.94503" lon="4.52589">
        <ele>344</ele>
        <time>2024-04-06T13:07:07Z</time>
      </trkpt>
      <trkpt lat="49.94498" lon="4.5258">
        <ele>344</ele>
        <time>2024-04-06T13:07:08Z</time>
      </trkpt>
      <trkpt lat="49.94494" lon="4.52572">
        <ele>343.6</ele>
        <time>2024-04-06T13:07:09Z</time>
      </trkpt>
      <trkpt lat="49.94491" lon="4.52564">
        <ele>343.4</ele>
        <time>2024-04-06T13:07:10Z</time>
      </trkpt>
      <trkpt lat="49.94488" lon="4.52556">
        <ele>343</ele>
        <time>2024-04-06T13:07:11Z</time>
      </trkpt>
      <trkpt lat="49.94485" lon="4.52547">
        <ele>342.8</ele>
        <time>2024-04-06T13:07:12Z</time>
      </trkpt>
      <trkpt lat="49.94482" lon="4.52537">
        <ele>342.6</ele>
        <time>2024-04-06T13:07:13Z</time>
      </trkpt>
      <trkpt lat="49.94481" lon="4.52527">
        <ele>342.4</ele>
        <time>2024-04-06T13:07:14Z</time>
      </trkpt>
      <trkpt lat="49.9448" lon="4.52518">
        <ele>342.4</ele>
        <time>2024-04-06T13:07:15Z</time>
      </trkpt>
      <trkpt lat="49.9448" lon="4.52508">
        <ele>342.4</ele>
        <time>2024-04-06T13:07:16Z</time>
      </trkpt>
      <trkpt lat="49.94481" lon="4.52498">
        <ele>342.4</ele>
        <time>2024-04-06T13:07:17Z</time>
      </trkpt>
      <trkpt lat="49.94482" lon="4.52489">
        <ele>342.2</ele>
        <time>2024-04-06T13:07:18Z</time>
      </trkpt>
      <trkpt lat="49.94484" lon="4.5248">
        <ele>342.4</ele>
        <time>2024-04-06T13:07:19Z</time>
      </trkpt>
      <trkpt lat="49.94485" lon="4.52472">
        <ele>342.2</ele>
        <time>2024-04-06T13:07:20Z</time>
      </trkpt>
      <trkpt lat="49.94487" lon="4.52464">
        <ele>342.4</ele>
        <time>2024-04-06T13:07:21Z</time>
      </trkpt>
      <trkpt lat="49.94488" lon="4.52456">
        <ele>342.2</ele>
        <time>2024-04-06T13:07:22Z</time>
      </trkpt>
      <trkpt lat="49.9449" lon="4.52449">
        <ele>342.4</ele>
        <time>2024-04-06T13:07:23Z</time>
      </trkpt>
      <trkpt lat="49.94491" lon="4.52442">
        <ele>342.4</ele>
        <time>2024-04-06T13:07:24Z</time>
      </trkpt>
      <trkpt lat="49.94493" lon="4.52435">
        <ele>342.6</ele>
        <time>2024-04-06T13:07:25Z</time>
      </trkpt>
      <trkpt lat="49.94495" lon="4.52429">
        <ele>342.6</ele>
        <time>2024-04-06T13:07:26Z</time>
      </trkpt>
      <trkpt lat="49.94496" lon="4.52423">
        <ele>342.8</ele>
        <time>2024-04-06T13:07:27Z</time>
      </trkpt>
      <trkpt lat="49.94498" lon="4.52417">
        <ele>343.2</ele>
        <time>2024-04-06T13:07:28Z</time>
      </trkpt>
      <trkpt lat="49.94499" lon="4.52411">
        <ele>343.6</ele>
        <time>2024-04-06T13:07:29Z</time>
      </trkpt>
      <trkpt lat="49.945" lon="4.52405">
        <ele>344</ele>
        <time>2024-04-06T13:07:30Z</time>
      </trkpt>
      <trkpt lat="49.94502" lon="4.52399">
        <ele>344.4</ele>
        <time>2024-04-06T13:07:31Z</time>
      </trkpt>
      <trkpt lat="49.94503" lon="4.52393">
        <ele>344.4</ele>
        <time>2024-04-06T13:07:32Z</time>
      </trkpt>
      <trkpt lat="49.94504" lon="4.52388">
        <ele>345</ele>
        <time>2024-04-06T13:07:33Z</time>
      </trkpt>
      <trkpt lat="49.94505" lon="4.52383">
        <ele>345.2</ele>
        <time>2024-04-06T13:07:34Z</time>
      </trkpt>
      <trkpt lat="49.94507" lon="4.52378">
        <ele>345.4</ele>
        <time>2024-04-06T13:07:35Z</time>
      </trkpt>
      <trkpt lat="49.94508" lon="4.52373">
        <ele>345.6</ele>
        <time>2024-04-06T13:07:36Z</time>
      </trkpt>
      <trkpt lat="49.9451" lon="4.52368">
        <ele>346.2</ele>
        <time>2024-04-06T13:07:37Z</time>
      </trkpt>
      <trkpt lat="49.94511" lon="4.52363">
        <ele>346.4</ele>
        <time>2024-04-06T13:07:38Z</time>
      </trkpt>
      <trkpt lat="49.94512" lon="4.52358">
        <ele>346.6</ele>
        <time>2024-04-06T13:07:39Z</time>
      </trkpt>
      <trkpt lat="49.94513" lon="4.52353">
        <ele>346.8</ele>
        <time>2024-04-06T13:07:40Z</time>
      </trkpt>
      <trkpt lat="49.94514" lon="4.52348">
        <ele>347.4</ele>
        <time>2024-04-06T13:07:41Z</time>
      </trkpt>
      <trkpt lat="49.94515" lon="4.52343">
        <ele>347.6</ele>
        <time>2024-04-06T13:07:42Z</time>
      </trkpt>
      <trkpt lat="49.94516" lon="4.52338">
        <ele>347.8</ele>
        <time>2024-04-06T13:07:43Z</time>
      </trkpt>
      <trkpt lat="49.94516" lon="4.52333">
        <ele>347.8</ele>
        <time>2024-04-06T13:07:44Z</time>
      </trkpt>
      <trkpt lat="49.94517" lon="4.52328">
        <ele>348</ele>
        <time>2024-04-06T13:07:45Z</time>
      </trkpt>
      <trkpt lat="49.94517" lon="4.52323">
        <ele>348.2</ele>
        <time>2024-04-06T13:07:46Z</time>
      </trkpt>
      <trkpt lat="49.94517" lon="4.52318">
        <ele>348.2</ele>
        <time>2024-04-06T13:07:47Z</time>
      </trkpt>
      <trkpt lat="49.94517" lon="4.52313">
        <ele>348.4</ele>
        <time>2024-04-06T13:07:48Z</time>
      </trkpt>
      <trkpt lat="49.94516" lon="4.52308">
        <ele>348.8</ele>
        <time>2024-04-06T13:07:49Z</time>
      </trkpt>
      <trkpt lat="49.94516" lon="4.52304">
        <ele>349.4</ele>
        <time>2024-04-06T13:07:50Z</time>
      </trkpt>
      <trkpt lat="49.94516" lon="4.52299">
        <ele>349.4</ele>
        <time>2024-04-06T13:07:51Z</time>
      </trkpt>
      <trkpt lat="49.94515" lon="4.52295">
        <ele>350</ele>
        <time>2024-04-06T13:07:52Z</time>
      </trkpt>
      <trkpt lat="49.94515" lon="4.5229">
        <ele>350.2</ele>
        <time>2024-04-06T13:07:53Z</time>
      </trkpt>
      <trkpt lat="49.94514" lon="4.52286">
        <ele>350.4</ele>
        <time>2024-04-06T13:07:54Z</time>
      </trkpt>
      <trkpt lat="49.94513" lon="4.52282">
        <ele>350.8</ele>
        <time>2024-04-06T13:07:55Z</time>
      </trkpt>
      <trkpt lat="49.94513" lon="4.52277">
        <ele>351.2</ele>
        <time>2024-04-06T13:07:56Z</time>
      </trkpt>
      <trkpt lat="49.94512" lon="4.52273">
        <ele>351.2</ele>
        <time>2024-04-06T13:07:57Z</time>
      </trkpt>
      <trkpt lat="49.94511" lon="4.52269">
        <ele>351.6</ele>
        <time>2024-04-06T13:07:58Z</time>
      </trkpt>
      <trkpt lat="49.94511" lon="4.52264">
        <ele>351.8</ele>
        <time>2024-04-06T13:07:59Z</time>
      </trkpt>
      <trkpt lat="49.9451" lon="4.5226">
        <ele>352</ele>
        <time>2024-04-06T13:08:00Z</time>
      </trkpt>
      <trkpt lat="49.94509" lon="4.52256">
        <ele>352</ele>
        <time>2024-04-06T13:08:01Z</time>
      </trkpt>
      <trkpt lat="49.94508" lon="4.52252">
        <ele>352.2</ele>
        <time>2024-04-06T13:08:02Z</time>
      </trkpt>
      <trkpt lat="49.94507" lon="4.52248">
        <ele>352.2</ele>
        <time>2024-04-06T13:08:03Z</time>
      </trkpt>
      <trkpt lat="49.94506" lon="4.52244">
        <ele>352.4</ele>
        <time>2024-04-06T13:08:04Z</time>
      </trkpt>
      <trkpt lat="49.94505" lon="4.5224">
        <ele>352.4</ele>
        <time>2024-04-06T13:08:05Z</time>
      </trkpt>
      <trkpt lat="49.94503" lon="4.52237">
        <ele>352.4</ele>
        <time>2024-04-06T13:08:06Z</time>
      </trkpt>
      <trkpt lat="49.94502" lon="4.52233">
        <ele>352.6</ele>
        <time>2024-04-06T13:08:07Z</time>
      </trkpt>
      <trkpt lat="49.94501" lon="4.52229">
        <ele>352.6</ele>
        <time>2024-04-06T13:08:08Z</time>
      </trkpt>
      <trkpt lat="49.94499" lon="4.52226">
        <ele>352.8</ele>
        <time>2024-04-06T13:08:09Z</time>
      </trkpt>
      <trkpt lat="49.94498" lon="4.52222">
        <ele>352.8</ele>
        <time>2024-04-06T13:08:10Z</time>
      </trkpt>
      <trkpt lat="49.94496" lon="4.52219">
        <ele>353</ele>
        <time>2024-04-06T13:08:11Z</time>
      </trkpt>
      <trkpt lat="49.94494" lon="4.52215">
        <ele>353.4</ele>
        <time>2024-04-06T13:08:12Z</time>
      </trkpt>
      <trkpt lat="49.94493" lon="4.52212">
        <ele>354</ele>
        <time>2024-04-06T13:08:13Z</time>
      </trkpt>
      <trkpt lat="49.94491" lon="4.52209">
        <ele>354.4</ele>
        <time>2024-04-06T13:08:14Z</time>
      </trkpt>
      <trkpt lat="49.94489" lon="4.52206">
        <ele>354.6</ele>
        <time>2024-04-06T13:08:15Z</time>
      </trkpt>
      <trkpt lat="49.94487" lon="4.52202">
        <ele>354.8</ele>
        <time>2024-04-06T13:08:16Z</time>
      </trkpt>
      <trkpt lat="49.94485" lon="4.52199">
        <ele>355</ele>
        <time>2024-04-06T13:08:17Z</time>
      </trkpt>
      <trkpt lat="49.94483" lon="4.52196">
        <ele>355.2</ele>
        <time>2024-04-06T13:08:18Z</time>
      </trkpt>
      <trkpt lat="49.94481" lon="4.52193">
        <ele>355.4</ele>
        <time>2024-04-06T13:08:19Z</time>
      </trkpt>
      <trkpt lat="49.94478" lon="4.5219">
        <ele>355.4</ele>
        <time>2024-04-06T13:08:20Z</time>
      </trkpt>
      <trkpt lat="49.94476" lon="4.52187">
        <ele>355.4</ele>
        <time>2024-04-06T13:08:21Z</time>
      </trkpt>
      <trkpt lat="49.94474" lon="4.52184">
        <ele>355.6</ele>
        <time>2024-04-06T13:08:22Z</time>
      </trkpt>
      <trkpt lat="49.94472" lon="4.52181">
        <ele>355.8</ele>
        <time>2024-04-06T13:08:23Z</time>
      </trkpt>
      <trkpt lat="49.9447" lon="4.52177">
        <ele>356</ele>
        <time>2024-04-06T13:08:24Z</time>
      </trkpt>
      <trkpt lat="49.94468" lon="4.52174">
        <ele>356.4</ele>
        <time>2024-04-06T13:08:25Z</time>
      </trkpt>
      <trkpt lat="49.94466" lon="4.52171">
        <ele>356.6</ele>
        <time>2024-04-06T13:08:26Z</time>
      </trkpt>
      <trkpt lat="49.94464" lon="4.52168">
        <ele>357</ele>
        <time>2024-04-06T13:08:27Z</time>
      </trkpt>
      <trkpt lat="49.94462" lon="4.52165">
        <ele>357.2</ele>
        <time>2024-04-06T13:08:28Z</time>
      </trkpt>
      <trkpt lat="49.9446" lon="4.52161">
        <ele>357.2</ele>
        <time>2024-04-06T13:08:29Z</time>
      </trkpt>
      <trkpt lat="49.94458" lon="4.52158">
        <ele>357.6</ele>
        <time>2024-04-06T13:08:30Z</time>
      </trkpt>
      <trkpt lat="49.94456" lon="4.52155">
        <ele>357.6</ele>
        <time>2024-04-06T13:08:31Z</time>
      </trkpt>
      <trkpt lat="49.94454" lon="4.52151">
        <ele>357.8</ele>
        <time>2024-04-06T13:08:32Z</time>
      </trkpt>
      <trkpt lat="49.94452" lon="4.52148">
        <ele>358</ele>
        <time>2024-04-06T13:08:33Z</time>
      </trkpt>
      <trkpt lat="49.9445" lon="4.52144">
        <ele>358.2</ele>
        <time>2024-04-06T13:08:34Z</time>
      </trkpt>
      <trkpt lat="49.94449" lon="4.5214">
        <ele>358</ele>
        <time>2024-04-06T13:08:35Z</time>
      </trkpt>
      <trkpt lat="49.94447" lon="4.52136">
        <ele>358.2</ele>
        <time>2024-04-06T13:08:36Z</time>
      </trkpt>
      <trkpt lat="49.94446" lon="4.52132">
        <ele>358.2</ele>
        <time>2024-04-06T13:08:37Z</time>
      </trkpt>
      <trkpt lat="49.94444" lon="4.52128">
        <ele>358.2</ele>
        <time>2024-04-06T13:08:38Z</time>
      </trkpt>
      <trkpt lat="49.94443" lon="4.52123">
        <ele>358.4</ele>
        <time>2024-04-06T13:08:39Z</time>
      </trkpt>
      <trkpt lat="49.94442" lon="4.52119">
        <ele>358.6</ele>
        <time>2024-04-06T13:08:40Z</time>
      </trkpt>
      <trkpt lat="49.94441" lon="4.52115">
        <ele>358.8</ele>
        <time>2024-04-06T13:08:41Z</time>
      </trkpt>
      <trkpt lat="49.9444" lon="4.5211">
        <ele>358.8</ele>
        <time>2024-04-06T13:08:42Z</time>
      </trkpt>
      <trkpt lat="49.94439" lon="4.52106">
        <ele>358.8</ele>
        <time>2024-04-06T13:08:43Z</time>
      </trkpt>
      <trkpt lat="49.94439" lon="4.52102">
        <ele>359</ele>
        <time>2024-04-06T13:08:44Z</time>
      </trkpt>
      <trkpt lat="49.94438" lon="4.52098">
        <ele>359</ele>
        <time>2024-04-06T13:08:45Z</time>
      </trkpt>
      <trkpt lat="49.94438" lon="4.52093">
        <ele>359</ele>
        <time>2024-04-06T13:08:46Z</time>
      </trkpt>
      <trkpt lat="49.94437" lon="4.52089">
        <ele>359</ele>
        <time>2024-04-06T13:08:47Z</time>
      </trkpt>
      <trkpt lat="49.94437" lon="4.52084">
        <ele>359.2</ele>
        <time>2024-04-06T13:08:48Z</time>
      </trkpt>
      <trkpt lat="49.94436" lon="4.5208">
        <ele>359.4</ele>
        <time>2024-04-06T13:08:49Z</time>
      </trkpt>
      <trkpt lat="49.94436" lon="4.52075">
        <ele>359.6</ele>
        <time>2024-04-06T13:08:50Z</time>
      </trkpt>
      <trkpt lat="49.94435" lon="4.5207">
        <ele>359.6</ele>
        <time>2024-04-06T13:08:51Z</time>
      </trkpt>
      <trkpt lat="49.94435" lon="4.52066">
        <ele>359.8</ele>
        <time>2024-04-06T13:08:52Z</time>
      </trkpt>
      <trkpt lat="49.94434" lon="4.52061">
        <ele>359.8</ele>
        <time>2024-04-06T13:08:53Z</time>
      </trkpt>
      <trkpt lat="49.94434" lon="4.52056">
        <ele>360</ele>
        <time>2024-04-06T13:08:54Z</time>
      </trkpt>
      <trkpt lat="49.94433" lon="4.52051">
        <ele>360</ele>
        <time>2024-04-06T13:08:55Z</time>
      </trkpt>
      <trkpt lat="49.94432" lon="4.52047">
        <ele>360</ele>
        <time>2024-04-06T13:08:56Z</time>
      </trkpt>
      <trkpt lat="49.94432" lon="4.52042">
        <ele>360.4</ele>
        <time>2024-04-06T13:08:57Z</time>
      </trkpt>
      <trkpt lat="49.94431" lon="4.52037">
        <ele>360.4</ele>
        <time>2024-04-06T13:08:58Z</time>
      </trkpt>
      <trkpt lat="49.94431" lon="4.52032">
        <ele>360.6</ele>
        <time>2024-04-06T13:08:59Z</time>
      </trkpt>
      <trkpt lat="49.9443" lon="4.52027">
        <ele>361</ele>
        <time>2024-04-06T13:09:00Z</time>
      </trkpt>
      <trkpt lat="49.9443" lon="4.52022">
        <ele>361</ele>
        <time>2024-04-06T13:09:01Z</time>
      </trkpt>
      <trkpt lat="49.94429" lon="4.52016">
        <ele>361</ele>
        <time>2024-04-06T13:09:02Z</time>
      </trkpt>
      <trkpt lat="49.94429" lon="4.52011">
        <ele>361</ele>
        <time>2024-04-06T13:09:03Z</time>
      </trkpt>
      <trkpt lat="49.94428" lon="4.52006">
        <ele>361</ele>
        <time>2024-04-06T13:09:04Z</time>
      </trkpt>
      <trkpt lat="49.94427" lon="4.52">
        <ele>361</ele>
        <time>2024-04-06T13:09:05Z</time>
      </trkpt>
      <trkpt lat="49.94427" lon="4.51995">
        <ele>361.2</ele>
        <time>2024-04-06T13:09:06Z</time>
      </trkpt>
      <trkpt lat="49.94426" lon="4.51989">
        <ele>361.2</ele>
        <time>2024-04-06T13:09:07Z</time>
      </trkpt>
      <trkpt lat="49.94426" lon="4.51983">
        <ele>361.2</ele>
        <time>2024-04-06T13:09:08Z</time>
      </trkpt>
      <trkpt lat="49.94425" lon="4.51977">
        <ele>361.4</ele>
        <time>2024-04-06T13:09:09Z</time>
      </trkpt>
      <trkpt lat="49.94425" lon="4.51971">
        <ele>361.4</ele>
        <time>2024-04-06T13:09:10Z</time>
      </trkpt>
      <trkpt lat="49.94424" lon="4.51964">
        <ele>361.6</ele>
        <time>2024-04-06T13:09:11Z</time>
      </trkpt>
      <trkpt lat="49.94423" lon="4.51958">
        <ele>361.6</ele>
        <time>2024-04-06T13:09:12Z</time>
      </trkpt>
      <trkpt lat="49.94423" lon="4.51952">
        <ele>361.8</ele>
        <time>2024-04-06T13:09:13Z</time>
      </trkpt>
      <trkpt lat="49.94423" lon="4.51945">
        <ele>361.6</ele>
        <time>2024-04-06T13:09:14Z</time>
      </trkpt>
      <trkpt lat="49.94422" lon="4.51939">
        <ele>361.6</ele>
        <time>2024-04-06T13:09:15Z</time>
      </trkpt>
      <trkpt lat="49.94422" lon="4.51932">
        <ele>361.6</ele>
        <time>2024-04-06T13:09:16Z</time>
      </trkpt>
      <trkpt lat="49.94422" lon="4.51926">
        <ele>361.6</ele>
        <time>2024-04-06T13:09:17Z</time>
      </trkpt>
      <trkpt lat="49.94422" lon="4.5192">
        <ele>361.6</ele>
        <time>2024-04-06T13:09:18Z</time>
      </trkpt>
      <trkpt lat="49.94422" lon="4.51913">
        <ele>361.8</ele>
        <time>2024-04-06T13:09:19Z</time>
      </trkpt>
      <trkpt lat="49.94422" lon="4.51907">
        <ele>361.8</ele>
        <time>2024-04-06T13:09:20Z</time>
      </trkpt>
      <trkpt lat="49.94422" lon="4.519">
        <ele>361.6</ele>
        <time>2024-04-06T13:09:21Z</time>
      </trkpt>
      <trkpt lat="49.94422" lon="4.51894">
        <ele>361.8</ele>
        <time>2024-04-06T13:09:22Z</time>
      </trkpt>
      <trkpt lat="49.94423" lon="4.51888">
        <ele>361.6</ele>
        <time>2024-04-06T13:09:23Z</time>
      </trkpt>
      <trkpt lat="49.94423" lon="4.51881">
        <ele>361.8</ele>
        <time>2024-04-06T13:09:24Z</time>
      </trkpt>
      <trkpt lat="49.94424" lon="4.51874">
        <ele>361.8</ele>
        <time>2024-04-06T13:09:25Z</time>
      </trkpt>
      <trkpt lat="49.94424" lon="4.51868">
        <ele>361.8</ele>
        <time>2024-04-06T13:09:26Z</time>
      </trkpt>
      <trkpt lat="49.94424" lon="4.51861">
        <ele>361.8</ele>
        <time>2024-04-06T13:09:27Z</time>
      </trkpt>
      <trkpt lat="49.94424" lon="4.51854">
        <ele>361.4</ele>
        <time>2024-04-06T13:09:28Z</time>
      </trkpt>
      <trkpt lat="49.94425" lon="4.51847">
        <ele>361.6</ele>
        <time>2024-04-06T13:09:29Z</time>
      </trkpt>
      <trkpt lat="49.94425" lon="4.5184">
        <ele>361.4</ele>
        <time>2024-04-06T13:09:30Z</time>
      </trkpt>
      <trkpt lat="49.94425" lon="4.51833">
        <ele>361.6</ele>
        <time>2024-04-06T13:09:31Z</time>
      </trkpt>
      <trkpt lat="49.94426" lon="4.51826">
        <ele>361.4</ele>
        <time>2024-04-06T13:09:32Z</time>
      </trkpt>
      <trkpt lat="49.94426" lon="4.51819">
        <ele>361.4</ele>
        <time>2024-04-06T13:09:33Z</time>
      </trkpt>
      <trkpt lat="49.94426" lon="4.51813">
        <ele>361.4</ele>
        <time>2024-04-06T13:09:34Z</time>
      </trkpt>
      <trkpt lat="49.94427" lon="4.51806">
        <ele>361.4</ele>
        <time>2024-04-06T13:09:35Z</time>
      </trkpt>
      <trkpt lat="49.94427" lon="4.51799">
        <ele>361.6</ele>
        <time>2024-04-06T13:09:36Z</time>
      </trkpt>
      <trkpt lat="49.94427" lon="4.51791">
        <ele>361.4</ele>
        <time>2024-04-06T13:09:37Z</time>
      </trkpt>
      <trkpt lat="49.94426" lon="4.51784">
        <ele>361.4</ele>
        <time>2024-04-06T13:09:38Z</time>
      </trkpt>
      <trkpt lat="49.94425" lon="4.51778">
        <ele>361.4</ele>
        <time>2024-04-06T13:09:39Z</time>
      </trkpt>
      <trkpt lat="49.94424" lon="4.51775">
        <ele>361.4</ele>
        <time>2024-04-06T13:09:40Z</time>
      </trkpt>
      <trkpt lat="49.94424" lon="4.51773">
        <ele>361.2</ele>
        <time>2024-04-06T13:09:41Z</time>
      </trkpt>
      <trkpt lat="49.94424" lon="4.51772">
        <ele>361.2</ele>
        <time>2024-04-06T13:09:42Z</time>
      </trkpt>
      <trkpt lat="49.94423" lon="4.5177">
        <ele>361.2</ele>
        <time>2024-04-06T13:09:43Z</time>
      </trkpt>
      <trkpt lat="49.94421" lon="4.51768">
        <ele>361.2</ele>
        <time>2024-04-06T13:09:44Z</time>
      </trkpt>
      <trkpt lat="49.94419" lon="4.51765">
        <ele>361.4</ele>
        <time>2024-04-06T13:09:45Z</time>
      </trkpt>
      <trkpt lat="49.94415" lon="4.51764">
        <ele>361.4</ele>
        <time>2024-04-06T13:09:46Z</time>
      </trkpt>
      <trkpt lat="49.94411" lon="4.51765">
        <ele>361.2</ele>
        <time>2024-04-06T13:09:47Z</time>
      </trkpt>
      <trkpt lat="49.94407" lon="4.51766">
        <ele>361.2</ele>
        <time>2024-04-06T13:09:48Z</time>
      </trkpt>
      <trkpt lat="49.94403" lon="4.51767">
        <ele>361</ele>
        <time>2024-04-06T13:09:49Z</time>
      </trkpt>
      <trkpt lat="49.94399" lon="4.51767">
        <ele>361</ele>
        <time>2024-04-06T13:09:50Z</time>
      </trkpt>
      <trkpt lat="49.94395" lon="4.51767">
        <ele>361</ele>
        <time>2024-04-06T13:09:51Z</time>
      </trkpt>
      <trkpt lat="49.94391" lon="4.51768">
        <ele>361.2</ele>
        <time>2024-04-06T13:09:52Z</time>
      </trkpt>
      <trkpt lat="49.94387" lon="4.51767">
        <ele>360.6</ele>
        <time>2024-04-06T13:09:53Z</time>
      </trkpt>
      <trkpt lat="49.94382" lon="4.51767">
        <ele>360.6</ele>
        <time>2024-04-06T13:09:54Z</time>
      </trkpt>
      <trkpt lat="49.94378" lon="4.51767">
        <ele>360.4</ele>
        <time>2024-04-06T13:09:55Z</time>
      </trkpt>
      <trkpt lat="49.94374" lon="4.51767">
        <ele>360.2</ele>
        <time>2024-04-06T13:09:56Z</time>
      </trkpt>
      <trkpt lat="49.94369" lon="4.51767">
        <ele>360.2</ele>
        <time>2024-04-06T13:09:57Z</time>
      </trkpt>
      <trkpt lat="49.94365" lon="4.51766">
        <ele>360.2</ele>
        <time>2024-04-06T13:09:58Z</time>
      </trkpt>
      <trkpt lat="49.9436" lon="4.51766">
        <ele>360.2</ele>
        <time>2024-04-06T13:09:59Z</time>
      </trkpt>
      <trkpt lat="49.94356" lon="4.51765">
        <ele>360</ele>
        <time>2024-04-06T13:10:00Z</time>
      </trkpt>
      <trkpt lat="49.94351" lon="4.51765">
        <ele>360</ele>
        <time>2024-04-06T13:10:01Z</time>
      </trkpt>
      <trkpt lat="49.94347" lon="4.51764">
        <ele>360.2</ele>
        <time>2024-04-06T13:10:02Z</time>
      </trkpt>
      <trkpt lat="49.94342" lon="4.51763">
        <ele>360.2</ele>
        <time>2024-04-06T13:10:03Z</time>
      </trkpt>
      <trkpt lat="49.94338" lon="4.51763">
        <ele>360</ele>
        <time>2024-04-06T13:10:04Z</time>
      </trkpt>
      <trkpt lat="49.94333" lon="4.51762">
        <ele>360</ele>
        <time>2024-04-06T13:10:05Z</time>
      </trkpt>
      <trkpt lat="49.94328" lon="4.51762">
        <ele>360.2</ele>
        <time>2024-04-06T13:10:06Z</time>
      </trkpt>
      <trkpt lat="49.94324" lon="4.51762">
        <ele>360.2</ele>
        <time>2024-04-06T13:10:07Z</time>
      </trkpt>
      <trkpt lat="49.94319" lon="4.51761">
        <ele>360.2</ele>
        <time>2024-04-06T13:10:08Z</time>
      </trkpt>
      <trkpt lat="49.94315" lon="4.51761">
        <ele>360.2</ele>
        <time>2024-04-06T13:10:09Z</time>
      </trkpt>
      <trkpt lat="49.9431" lon="4.51761">
        <ele>360.4</ele>
        <time>2024-04-06T13:10:10Z</time>
      </trkpt>
      <trkpt lat="49.94306" lon="4.5176">
        <ele>360.4</ele>
        <time>2024-04-06T13:10:11Z</time>
      </trkpt>
      <trkpt lat="49.94302" lon="4.5176">
        <ele>360.8</ele>
        <time>2024-04-06T13:10:12Z</time>
      </trkpt>
      <trkpt lat="49.94297" lon="4.51759">
        <ele>360.8</ele>
        <time>2024-04-06T13:10:13Z</time>
      </trkpt>
      <trkpt lat="49.94293" lon="4.51759">
        <ele>360.6</ele>
        <time>2024-04-06T13:10:14Z</time>
      </trkpt>
      <trkpt lat="49.94289" lon="4.51758">
        <ele>360.8</ele>
        <time>2024-04-06T13:10:15Z</time>
      </trkpt>
      <trkpt lat="49.94284" lon="4.51758">
        <ele>360.8</ele>
        <time>2024-04-06T13:10:16Z</time>
      </trkpt>
      <trkpt lat="49.9428" lon="4.51758">
        <ele>360.8</ele>
        <time>2024-04-06T13:10:17Z</time>
      </trkpt>
      <trkpt lat="49.94276" lon="4.51757">
        <ele>361</ele>
        <time>2024-04-06T13:10:18Z</time>
      </trkpt>
      <trkpt lat="49.94271" lon="4.51757">
        <ele>361.2</ele>
        <time>2024-04-06T13:10:19Z</time>
      </trkpt>
      <trkpt lat="49.94267" lon="4.51756">
        <ele>361.2</ele>
        <time>2024-04-06T13:10:20Z</time>
      </trkpt>
      <trkpt lat="49.94263" lon="4.51756">
        <ele>361.2</ele>
        <time>2024-04-06T13:10:21Z</time>
      </trkpt>
      <trkpt lat="49.94258" lon="4.51756">
        <ele>361.2</ele>
        <time>2024-04-06T13:10:22Z</time>
      </trkpt>
      <trkpt lat="49.94254" lon="4.51755">
        <ele>361.2</ele>
        <time>2024-04-06T13:10:23Z</time>
      </trkpt>
      <trkpt lat="49.9425" lon="4.51755">
        <ele>361.4</ele>
        <time>2024-04-06T13:10:24Z</time>
      </trkpt>
      <trkpt lat="49.94246" lon="4.51754">
        <ele>361.6</ele>
        <time>2024-04-06T13:10:25Z</time>
      </trkpt>
      <trkpt lat="49.94242" lon="4.51754">
        <ele>361.6</ele>
        <time>2024-04-06T13:10:26Z</time>
      </trkpt>
      <trkpt lat="49.94238" lon="4.51754">
        <ele>361.8</ele>
        <time>2024-04-06T13:10:27Z</time>
      </trkpt>
      <trkpt lat="49.94233" lon="4.51753">
        <ele>362</ele>
        <time>2024-04-06T13:10:28Z</time>
      </trkpt>
      <trkpt lat="49.94229" lon="4.51753">
        <ele>362.2</ele>
        <time>2024-04-06T13:10:29Z</time>
      </trkpt>
      <trkpt lat="49.94225" lon="4.51752">
        <ele>362.2</ele>
        <time>2024-04-06T13:10:30Z</time>
      </trkpt>
      <trkpt lat="49.94221" lon="4.51752">
        <ele>362</ele>
        <time>2024-04-06T13:10:31Z</time>
      </trkpt>
      <trkpt lat="49.94218" lon="4.51752">
        <ele>362.2</ele>
        <time>2024-04-06T13:10:32Z</time>
      </trkpt>
      <trkpt lat="49.94214" lon="4.51751">
        <ele>362.2</ele>
        <time>2024-04-06T13:10:33Z</time>
      </trkpt>
      <trkpt lat="49.9421" lon="4.51751">
        <ele>362.2</ele>
        <time>2024-04-06T13:10:34Z</time>
      </trkpt>
      <trkpt lat="49.94206" lon="4.5175">
        <ele>362.2</ele>
        <time>2024-04-06T13:10:35Z</time>
      </trkpt>
      <trkpt lat="49.94202" lon="4.5175">
        <ele>362.4</ele>
        <time>2024-04-06T13:10:36Z</time>
      </trkpt>
      <trkpt lat="49.94198" lon="4.51748">
        <ele>362.6</ele>
        <time>2024-04-06T13:10:37Z</time>
      </trkpt>
      <trkpt lat="49.94195" lon="4.51744">
        <ele>362.6</ele>
        <time>2024-04-06T13:10:38Z</time>
      </trkpt>
      <trkpt lat="49.94194" lon="4.51739">
        <ele>362.8</ele>
        <time>2024-04-06T13:10:39Z</time>
      </trkpt>
      <trkpt lat="49.94195" lon="4.51733">
        <ele>363</ele>
        <time>2024-04-06T13:10:40Z</time>
      </trkpt>
      <trkpt lat="49.94197" lon="4.51727">
        <ele>363</ele>
        <time>2024-04-06T13:10:41Z</time>
      </trkpt>
      <trkpt lat="49.94199" lon="4.5172">
        <ele>363.2</ele>
        <time>2024-04-06T13:10:42Z</time>
      </trkpt>
      <trkpt lat="49.94201" lon="4.51712">
        <ele>363.4</ele>
        <time>2024-04-06T13:10:43Z</time>
      </trkpt>
      <trkpt lat="49.94203" lon="4.51704">
        <ele>363.2</ele>
        <time>2024-04-06T13:10:44Z</time>
      </trkpt>
      <trkpt lat="49.94206" lon="4.51696">
        <ele>363.4</ele>
        <time>2024-04-06T13:10:45Z</time>
      </trkpt>
      <trkpt lat="49.94208" lon="4.51687">
        <ele>363.8</ele>
        <time>2024-04-06T13:10:46Z</time>
      </trkpt>
      <trkpt lat="49.9421" lon="4.51677">
        <ele>363.8</ele>
        <time>2024-04-06T13:10:47Z</time>
      </trkpt>
      <trkpt lat="49.94213" lon="4.51668">
        <ele>364</ele>
        <time>2024-04-06T13:10:48Z</time>
      </trkpt>
      <trkpt lat="49.94216" lon="4.51658">
        <ele>364</ele>
        <time>2024-04-06T13:10:49Z</time>
      </trkpt>
      <trkpt lat="49.94219" lon="4.51648">
        <ele>364.2</ele>
        <time>2024-04-06T13:10:50Z</time>
      </trkpt>
      <trkpt lat="49.94221" lon="4.51638">
        <ele>364.2</ele>
        <time>2024-04-06T13:10:51Z</time>
      </trkpt>
      <trkpt lat="49.94224" lon="4.51627">
        <ele>364.2</ele>
        <time>2024-04-06T13:10:52Z</time>
      </trkpt>
      <trkpt lat="49.94227" lon="4.51616">
        <ele>364.2</ele>
        <time>2024-04-06T13:10:53Z</time>
      </trkpt>
      <trkpt lat="49.9423" lon="4.51605">
        <ele>364</ele>
        <time>2024-04-06T13:10:54Z</time>
      </trkpt>
      <trkpt lat="49.94233" lon="4.51595">
        <ele>364</ele>
        <time>2024-04-06T13:10:55Z</time>
      </trkpt>
      <trkpt lat="49.94237" lon="4.51584">
        <ele>364</ele>
        <time>2024-04-06T13:10:56Z</time>
      </trkpt>
      <trkpt lat="49.9424" lon="4.51574">
        <ele>363.6</ele>
        <time>2024-04-06T13:10:57Z</time>
      </trkpt>
      <trkpt lat="49.94244" lon="4.51564">
        <ele>363.2</ele>
        <time>2024-04-06T13:10:58Z</time>
      </trkpt>
      <trkpt lat="49.94247" lon="4.51553">
        <ele>363.2</ele>
        <time>2024-04-06T13:10:59Z</time>
      </trkpt>
      <trkpt lat="49.9425" lon="4.51543">
        <ele>362.6</ele>
        <time>2024-04-06T13:11:00Z</time>
      </trkpt>
      <trkpt lat="49.94253" lon="4.51533">
        <ele>362.4</ele>
        <time>2024-04-06T13:11:01Z</time>
      </trkpt>
      <trkpt lat="49.94256" lon="4.51523">
        <ele>362.4</ele>
        <time>2024-04-06T13:11:02Z</time>
      </trkpt>
      <trkpt lat="49.94259" lon="4.51513">
        <ele>362.4</ele>
        <time>2024-04-06T13:11:03Z</time>
      </trkpt>
      <trkpt lat="49.94262" lon="4.51504">
        <ele>362.4</ele>
        <time>2024-04-06T13:11:04Z</time>
      </trkpt>
      <trkpt lat="49.94265" lon="4.51495">
        <ele>362.2</ele>
        <time>2024-04-06T13:11:05Z</time>
      </trkpt>
      <trkpt lat="49.94268" lon="4.51485">
        <ele>362.2</ele>
        <time>2024-04-06T13:11:06Z</time>
      </trkpt>
      <trkpt lat="49.94271" lon="4.51476">
        <ele>362.2</ele>
        <time>2024-04-06T13:11:07Z</time>
      </trkpt>
      <trkpt lat="49.94274" lon="4.51467">
        <ele>362.2</ele>
        <time>2024-04-06T13:11:08Z</time>
      </trkpt>
      <trkpt lat="49.94277" lon="4.51458">
        <ele>362.2</ele>
        <time>2024-04-06T13:11:09Z</time>
      </trkpt>
      <trkpt lat="49.94281" lon="4.51449">
        <ele>362.2</ele>
        <time>2024-04-06T13:11:10Z</time>
      </trkpt>
      <trkpt lat="49.94284" lon="4.5144">
        <ele>362.2</ele>
        <time>2024-04-06T13:11:11Z</time>
      </trkpt>
      <trkpt lat="49.94287" lon="4.51431">
        <ele>362.2</ele>
        <time>2024-04-06T13:11:12Z</time>
      </trkpt>
      <trkpt lat="49.9429" lon="4.51422">
        <ele>362.4</ele>
        <time>2024-04-06T13:11:13Z</time>
      </trkpt>
      <trkpt lat="49.94294" lon="4.51414">
        <ele>362.4</ele>
        <time>2024-04-06T13:11:14Z</time>
      </trkpt>
      <trkpt lat="49.94297" lon="4.51405">
        <ele>362.4</ele>
        <time>2024-04-06T13:11:15Z</time>
      </trkpt>
      <trkpt lat="49.943" lon="4.51397">
        <ele>362.4</ele>
        <time>2024-04-06T13:11:16Z</time>
      </trkpt>
      <trkpt lat="49.94303" lon="4.51388">
        <ele>362.8</ele>
        <time>2024-04-06T13:11:17Z</time>
      </trkpt>
      <trkpt lat="49.94306" lon="4.51379">
        <ele>362.6</ele>
        <time>2024-04-06T13:11:18Z</time>
      </trkpt>
      <trkpt lat="49.94309" lon="4.5137">
        <ele>362.8</ele>
        <time>2024-04-06T13:11:19Z</time>
      </trkpt>
      <trkpt lat="49.94311" lon="4.5136">
        <ele>363</ele>
        <time>2024-04-06T13:11:20Z</time>
      </trkpt>
      <trkpt lat="49.94314" lon="4.51351">
        <ele>363.2</ele>
        <time>2024-04-06T13:11:21Z</time>
      </trkpt>
      <trkpt lat="49.94316" lon="4.51342">
        <ele>363.2</ele>
        <time>2024-04-06T13:11:22Z</time>
      </trkpt>
      <trkpt lat="49.94319" lon="4.51333">
        <ele>363.4</ele>
        <time>2024-04-06T13:11:23Z</time>
      </trkpt>
      <trkpt lat="49.94322" lon="4.51324">
        <ele>363.6</ele>
        <time>2024-04-06T13:11:24Z</time>
      </trkpt>
      <trkpt lat="49.94325" lon="4.51316">
        <ele>363.4</ele>
        <time>2024-04-06T13:11:25Z</time>
      </trkpt>
      <trkpt lat="49.94327" lon="4.51307">
        <ele>363.6</ele>
        <time>2024-04-06T13:11:26Z</time>
      </trkpt>
      <trkpt lat="49.94331" lon="4.51298">
        <ele>363.8</ele>
        <time>2024-04-06T13:11:27Z</time>
      </trkpt>
      <trkpt lat="49.94333" lon="4.51289">
        <ele>364</ele>
        <time>2024-04-06T13:11:28Z</time>
      </trkpt>
      <trkpt lat="49.94336" lon="4.5128">
        <ele>364.2</ele>
        <time>2024-04-06T13:11:29Z</time>
      </trkpt>
      <trkpt lat="49.94339" lon="4.51271">
        <ele>364.2</ele>
        <time>2024-04-06T13:11:30Z</time>
      </trkpt>
      <trkpt lat="49.94341" lon="4.51262">
        <ele>364.4</ele>
        <time>2024-04-06T13:11:31Z</time>
      </trkpt>
      <trkpt lat="49.94344" lon="4.51252">
        <ele>364.4</ele>
        <time>2024-04-06T13:11:32Z</time>
      </trkpt>
      <trkpt lat="49.94347" lon="4.51243">
        <ele>364.6</ele>
        <time>2024-04-06T13:11:33Z</time>
      </trkpt>
      <trkpt lat="49.9435" lon="4.51233">
        <ele>364.6</ele>
        <time>2024-04-06T13:11:34Z</time>
      </trkpt>
      <trkpt lat="49.94353" lon="4.51223">
        <ele>364.6</ele>
        <time>2024-04-06T13:11:35Z</time>
      </trkpt>
      <trkpt lat="49.94356" lon="4.51213">
        <ele>364.6</ele>
        <time>2024-04-06T13:11:36Z</time>
      </trkpt>
      <trkpt lat="49.94359" lon="4.51203">
        <ele>364.6</ele>
        <time>2024-04-06T13:11:37Z</time>
      </trkpt>
      <trkpt lat="49.94363" lon="4.51193">
        <ele>364.6</ele>
        <time>2024-04-06T13:11:38Z</time>
      </trkpt>
      <trkpt lat="49.94366" lon="4.51184">
        <ele>364.6</ele>
        <time>2024-04-06T13:11:39Z</time>
      </trkpt>
      <trkpt lat="49.9437" lon="4.51173">
        <ele>364.6</ele>
        <time>2024-04-06T13:11:40Z</time>
      </trkpt>
      <trkpt lat="49.94374" lon="4.51163">
        <ele>364.4</ele>
        <time>2024-04-06T13:11:41Z</time>
      </trkpt>
      <trkpt lat="49.94377" lon="4.51152">
        <ele>364.6</ele>
        <time>2024-04-06T13:11:42Z</time>
      </trkpt>
      <trkpt lat="49.94381" lon="4.5114">
        <ele>364.6</ele>
        <time>2024-04-06T13:11:43Z</time>
      </trkpt>
      <trkpt lat="49.94385" lon="4.51128">
        <ele>364.6</ele>
        <time>2024-04-06T13:11:44Z</time>
      </trkpt>
      <trkpt lat="49.94389" lon="4.51116">
        <ele>364.4</ele>
        <time>2024-04-06T13:11:45Z</time>
      </trkpt>
      <trkpt lat="49.94392" lon="4.51102">
        <ele>364.4</ele>
        <time>2024-04-06T13:11:46Z</time>
      </trkpt>
      <trkpt lat="49.94396" lon="4.51089">
        <ele>364.2</ele>
        <time>2024-04-06T13:11:47Z</time>
      </trkpt>
      <trkpt lat="49.944" lon="4.51075">
        <ele>364</ele>
        <time>2024-04-06T13:11:48Z</time>
      </trkpt>
      <trkpt lat="49.94404" lon="4.51062">
        <ele>363.6</ele>
        <time>2024-04-06T13:11:49Z</time>
      </trkpt>
      <trkpt lat="49.94408" lon="4.51048">
        <ele>363.2</ele>
        <time>2024-04-06T13:11:50Z</time>
      </trkpt>
      <trkpt lat="49.94411" lon="4.51035">
        <ele>362.8</ele>
        <time>2024-04-06T13:11:51Z</time>
      </trkpt>
      <trkpt lat="49.94415" lon="4.51023">
        <ele>362.8</ele>
        <time>2024-04-06T13:11:52Z</time>
      </trkpt>
      <trkpt lat="49.94419" lon="4.51011">
        <ele>362</ele>
        <time>2024-04-06T13:11:53Z</time>
      </trkpt>
      <trkpt lat="49.94423" lon="4.50999">
        <ele>361.6</ele>
        <time>2024-04-06T13:11:54Z</time>
      </trkpt>
      <trkpt lat="49.94427" lon="4.50986">
        <ele>361.4</ele>
        <time>2024-04-06T13:11:55Z</time>
      </trkpt>
      <trkpt lat="49.94432" lon="4.50974">
        <ele>361</ele>
        <time>2024-04-06T13:11:56Z</time>
      </trkpt>
      <trkpt lat="49.94436" lon="4.50961">
        <ele>360.8</ele>
        <time>2024-04-06T13:11:57Z</time>
      </trkpt>
      <trkpt lat="49.9444" lon="4.50948">
        <ele>360.6</ele>
        <time>2024-04-06T13:11:58Z</time>
      </trkpt>
      <trkpt lat="49.94444" lon="4.50935">
        <ele>360.4</ele>
        <time>2024-04-06T13:11:59Z</time>
      </trkpt>
      <trkpt lat="49.94448" lon="4.50922">
        <ele>360.2</ele>
        <time>2024-04-06T13:12:00Z</time>
      </trkpt>
      <trkpt lat="49.94452" lon="4.50909">
        <ele>360.2</ele>
        <time>2024-04-06T13:12:01Z</time>
      </trkpt>
      <trkpt lat="49.94456" lon="4.50896">
        <ele>360</ele>
        <time>2024-04-06T13:12:02Z</time>
      </trkpt>
      <trkpt lat="49.9446" lon="4.50883">
        <ele>359.8</ele>
        <time>2024-04-06T13:12:03Z</time>
      </trkpt>
      <trkpt lat="49.94464" lon="4.50871">
        <ele>359.8</ele>
        <time>2024-04-06T13:12:04Z</time>
      </trkpt>
      <trkpt lat="49.94467" lon="4.50858">
        <ele>359.6</ele>
        <time>2024-04-06T13:12:05Z</time>
      </trkpt>
      <trkpt lat="49.94471" lon="4.50846">
        <ele>359.8</ele>
        <time>2024-04-06T13:12:06Z</time>
      </trkpt>
      <trkpt lat="49.94475" lon="4.50833">
        <ele>359.8</ele>
        <time>2024-04-06T13:12:07Z</time>
      </trkpt>
      <trkpt lat="49.94479" lon="4.50821">
        <ele>359.8</ele>
        <time>2024-04-06T13:12:08Z</time>
      </trkpt>
      <trkpt lat="49.94482" lon="4.50808">
        <ele>359.8</ele>
        <time>2024-04-06T13:12:09Z</time>
      </trkpt>
      <trkpt lat="49.94486" lon="4.50796">
        <ele>359.6</ele>
        <time>2024-04-06T13:12:10Z</time>
      </trkpt>
      <trkpt lat="49.9449" lon="4.50784">
        <ele>359.6</ele>
        <time>2024-04-06T13:12:11Z</time>
      </trkpt>
      <trkpt lat="49.94493" lon="4.50772">
        <ele>359.6</ele>
        <time>2024-04-06T13:12:12Z</time>
      </trkpt>
      <trkpt lat="49.94497" lon="4.50761">
        <ele>359.6</ele>
        <time>2024-04-06T13:12:13Z</time>
      </trkpt>
      <trkpt lat="49.94501" lon="4.50749">
        <ele>359.4</ele>
        <time>2024-04-06T13:12:14Z</time>
      </trkpt>
      <trkpt lat="49.94505" lon="4.50738">
        <ele>359.4</ele>
        <time>2024-04-06T13:12:15Z</time>
      </trkpt>
      <trkpt lat="49.94509" lon="4.50727">
        <ele>359.4</ele>
        <time>2024-04-06T13:12:16Z</time>
      </trkpt>
      <trkpt lat="49.94513" lon="4.50716">
        <ele>359.6</ele>
        <time>2024-04-06T13:12:17Z</time>
      </trkpt>
      <trkpt lat="49.94517" lon="4.50705">
        <ele>359.4</ele>
        <time>2024-04-06T13:12:18Z</time>
      </trkpt>
      <trkpt lat="49.94521" lon="4.50694">
        <ele>359.6</ele>
        <time>2024-04-06T13:12:19Z</time>
      </trkpt>
      <trkpt lat="49.94525" lon="4.50683">
        <ele>359.6</ele>
        <time>2024-04-06T13:12:20Z</time>
      </trkpt>
      <trkpt lat="49.94529" lon="4.50672">
        <ele>359.6</ele>
        <time>2024-04-06T13:12:21Z</time>
      </trkpt>
      <trkpt lat="49.94533" lon="4.50661">
        <ele>359.6</ele>
        <time>2024-04-06T13:12:22Z</time>
      </trkpt>
      <trkpt lat="49.94537" lon="4.5065">
        <ele>359.8</ele>
        <time>2024-04-06T13:12:23Z</time>
      </trkpt>
      <trkpt lat="49.9454" lon="4.50639">
        <ele>359.6</ele>
        <time>2024-04-06T13:12:24Z</time>
      </trkpt>
      <trkpt lat="49.94544" lon="4.50627">
        <ele>359.6</ele>
        <time>2024-04-06T13:12:25Z</time>
      </trkpt>
      <trkpt lat="49.94547" lon="4.50616">
        <ele>359.6</ele>
        <time>2024-04-06T13:12:26Z</time>
      </trkpt>
      <trkpt lat="49.9455" lon="4.50605">
        <ele>359.6</ele>
        <time>2024-04-06T13:12:27Z</time>
      </trkpt>
      <trkpt lat="49.94553" lon="4.50594">
        <ele>359.8</ele>
        <time>2024-04-06T13:12:28Z</time>
      </trkpt>
      <trkpt lat="49.94556" lon="4.50583">
        <ele>359.8</ele>
        <time>2024-04-06T13:12:29Z</time>
      </trkpt>
      <trkpt lat="49.94559" lon="4.50573">
        <ele>359.6</ele>
        <time>2024-04-06T13:12:30Z</time>
      </trkpt>
      <trkpt lat="49.94561" lon="4.50562">
        <ele>359.2</ele>
        <time>2024-04-06T13:12:31Z</time>
      </trkpt>
      <trkpt lat="49.94564" lon="4.50551">
        <ele>359.4</ele>
        <time>2024-04-06T13:12:32Z</time>
      </trkpt>
      <trkpt lat="49.94566" lon="4.50541">
        <ele>359.2</ele>
        <time>2024-04-06T13:12:33Z</time>
      </trkpt>
      <trkpt lat="49.94569" lon="4.5053">
        <ele>359.2</ele>
        <time>2024-04-06T13:12:34Z</time>
      </trkpt>
      <trkpt lat="49.94571" lon="4.50521">
        <ele>359</ele>
        <time>2024-04-06T13:12:35Z</time>
      </trkpt>
      <trkpt lat="49.94574" lon="4.50511">
        <ele>359</ele>
        <time>2024-04-06T13:12:36Z</time>
      </trkpt>
      <trkpt lat="49.94575" lon="4.505">
        <ele>358.8</ele>
        <time>2024-04-06T13:12:37Z</time>
      </trkpt>
      <trkpt lat="49.94576" lon="4.50489">
        <ele>358.8</ele>
        <time>2024-04-06T13:12:38Z</time>
      </trkpt>
      <trkpt lat="49.94575" lon="4.50478">
        <ele>358.6</ele>
        <time>2024-04-06T13:12:39Z</time>
      </trkpt>
      <trkpt lat="49.94575" lon="4.50467">
        <ele>358.6</ele>
        <time>2024-04-06T13:12:40Z</time>
      </trkpt>
      <trkpt lat="49.94574" lon="4.50456">
        <ele>358.6</ele>
        <time>2024-04-06T13:12:41Z</time>
      </trkpt>
      <trkpt lat="49.94575" lon="4.50445">
        <ele>358.4</ele>
        <time>2024-04-06T13:12:42Z</time>
      </trkpt>
      <trkpt lat="49.94576" lon="4.50433">
        <ele>358.4</ele>
        <time>2024-04-06T13:12:43Z</time>
      </trkpt>
      <trkpt lat="49.94577" lon="4.50421">
        <ele>358.2</ele>
        <time>2024-04-06T13:12:44Z</time>
      </trkpt>
      <trkpt lat="49.94578" lon="4.50409">
        <ele>358.4</ele>
        <time>2024-04-06T13:12:45Z</time>
      </trkpt>
      <trkpt lat="49.94579" lon="4.50397">
        <ele>358.2</ele>
        <time>2024-04-06T13:12:46Z</time>
      </trkpt>
      <trkpt lat="49.9458" lon="4.50384">
        <ele>358</ele>
        <time>2024-04-06T13:12:47Z</time>
      </trkpt>
      <trkpt lat="49.9458" lon="4.50372">
        <ele>357.8</ele>
        <time>2024-04-06T13:12:48Z</time>
      </trkpt>
      <trkpt lat="49.94581" lon="4.50359">
        <ele>357.2</ele>
        <time>2024-04-06T13:12:49Z</time>
      </trkpt>
      <trkpt lat="49.94581" lon="4.50346">
        <ele>356.8</ele>
        <time>2024-04-06T13:12:50Z</time>
      </trkpt>
      <trkpt lat="49.94581" lon="4.50334">
        <ele>356.6</ele>
        <time>2024-04-06T13:12:51Z</time>
      </trkpt>
      <trkpt lat="49.94581" lon="4.50322">
        <ele>356.4</ele>
        <time>2024-04-06T13:12:52Z</time>
      </trkpt>
      <trkpt lat="49.94581" lon="4.5031">
        <ele>356.2</ele>
        <time>2024-04-06T13:12:53Z</time>
      </trkpt>
      <trkpt lat="49.94581" lon="4.50297">
        <ele>356</ele>
        <time>2024-04-06T13:12:54Z</time>
      </trkpt>
      <trkpt lat="49.94581" lon="4.50284">
        <ele>355.8</ele>
        <time>2024-04-06T13:12:55Z</time>
      </trkpt>
      <trkpt lat="49.94581" lon="4.50271">
        <ele>355.4</ele>
        <time>2024-04-06T13:12:56Z</time>
      </trkpt>
      <trkpt lat="49.94581" lon="4.50257">
        <ele>355</ele>
        <time>2024-04-06T13:12:57Z</time>
      </trkpt>
      <trkpt lat="49.94582" lon="4.50244">
        <ele>354.8</ele>
        <time>2024-04-06T13:12:58Z</time>
      </trkpt>
      <trkpt lat="49.94582" lon="4.5023">
        <ele>354.8</ele>
        <time>2024-04-06T13:12:59Z</time>
      </trkpt>
      <trkpt lat="49.94583" lon="4.50216">
        <ele>354.8</ele>
        <time>2024-04-06T13:13:00Z</time>
      </trkpt>
      <trkpt lat="49.94584" lon="4.50203">
        <ele>354.4</ele>
        <time>2024-04-06T13:13:01Z</time>
      </trkpt>
      <trkpt lat="49.94585" lon="4.50189">
        <ele>354</ele>
        <time>2024-04-06T13:13:02Z</time>
      </trkpt>
      <trkpt lat="49.94587" lon="4.50176">
        <ele>354</ele>
        <time>2024-04-06T13:13:03Z</time>
      </trkpt>
      <trkpt lat="49.94589" lon="4.50162">
        <ele>353.2</ele>
        <time>2024-04-06T13:13:04Z</time>
      </trkpt>
      <trkpt lat="49.94589" lon="4.50148">
        <ele>352.2</ele>
        <time>2024-04-06T13:13:05Z</time>
      </trkpt>
      <trkpt lat="49.94588" lon="4.50135">
        <ele>351.8</ele>
        <time>2024-04-06T13:13:06Z</time>
      </trkpt>
      <trkpt lat="49.94585" lon="4.50121">
        <ele>351.4</ele>
        <time>2024-04-06T13:13:07Z</time>
      </trkpt>
      <trkpt lat="49.94581" lon="4.5011">
        <ele>351.2</ele>
        <time>2024-04-06T13:13:08Z</time>
      </trkpt>
      <trkpt lat="49.94576" lon="4.501">
        <ele>351</ele>
        <time>2024-04-06T13:13:09Z</time>
      </trkpt>
      <trkpt lat="49.9457" lon="4.50092">
        <ele>350.8</ele>
        <time>2024-04-06T13:13:10Z</time>
      </trkpt>
      <trkpt lat="49.94563" lon="4.50086">
        <ele>350.4</ele>
        <time>2024-04-06T13:13:11Z</time>
      </trkpt>
      <trkpt lat="49.94557" lon="4.50081">
        <ele>350</ele>
        <time>2024-04-06T13:13:12Z</time>
      </trkpt>
      <trkpt lat="49.94551" lon="4.50076">
        <ele>349.8</ele>
        <time>2024-04-06T13:13:13Z</time>
      </trkpt>
      <trkpt lat="49.94544" lon="4.5007">
        <ele>349.6</ele>
        <time>2024-04-06T13:13:14Z</time>
      </trkpt>
      <trkpt lat="49.94537" lon="4.50066">
        <ele>349.6</ele>
        <time>2024-04-06T13:13:15Z</time>
      </trkpt>
      <trkpt lat="49.9453" lon="4.50061">
        <ele>349.6</ele>
        <time>2024-04-06T13:13:16Z</time>
      </trkpt>
      <trkpt lat="49.94524" lon="4.50056">
        <ele>349.6</ele>
        <time>2024-04-06T13:13:17Z</time>
      </trkpt>
      <trkpt lat="49.94517" lon="4.50051">
        <ele>349.6</ele>
        <time>2024-04-06T13:13:18Z</time>
      </trkpt>
      <trkpt lat="49.94511" lon="4.50047">
        <ele>349.6</ele>
        <time>2024-04-06T13:13:19Z</time>
      </trkpt>
      <trkpt lat="49.94505" lon="4.50042">
        <ele>349.6</ele>
        <time>2024-04-06T13:13:20Z</time>
      </trkpt>
      <trkpt lat="49.94499" lon="4.50038">
        <ele>349.6</ele>
        <time>2024-04-06T13:13:21Z</time>
      </trkpt>
      <trkpt lat="49.94493" lon="4.50033">
        <ele>349.6</ele>
        <time>2024-04-06T13:13:22Z</time>
      </trkpt>
      <trkpt lat="49.94487" lon="4.50029">
        <ele>350</ele>
        <time>2024-04-06T13:13:23Z</time>
      </trkpt>
      <trkpt lat="49.94481" lon="4.50025">
        <ele>350</ele>
        <time>2024-04-06T13:13:24Z</time>
      </trkpt>
      <trkpt lat="49.94476" lon="4.5002">
        <ele>350.2</ele>
        <time>2024-04-06T13:13:25Z</time>
      </trkpt>
      <trkpt lat="49.9447" lon="4.50016">
        <ele>350.2</ele>
        <time>2024-04-06T13:13:26Z</time>
      </trkpt>
      <trkpt lat="49.94464" lon="4.50012">
        <ele>350.6</ele>
        <time>2024-04-06T13:13:27Z</time>
      </trkpt>
      <trkpt lat="49.94459" lon="4.50008">
        <ele>350.6</ele>
        <time>2024-04-06T13:13:28Z</time>
      </trkpt>
      <trkpt lat="49.94453" lon="4.50004">
        <ele>350.6</ele>
        <time>2024-04-06T13:13:29Z</time>
      </trkpt>
      <trkpt lat="49.94447" lon="4.5">
        <ele>350.8</ele>
        <time>2024-04-06T13:13:30Z</time>
      </trkpt>
      <trkpt lat="49.94442" lon="4.49995">
        <ele>350.8</ele>
        <time>2024-04-06T13:13:31Z</time>
      </trkpt>
      <trkpt lat="49.94437" lon="4.49991">
        <ele>351</ele>
        <time>2024-04-06T13:13:32Z</time>
      </trkpt>
      <trkpt lat="49.94431" lon="4.49987">
        <ele>351</ele>
        <time>2024-04-06T13:13:33Z</time>
      </trkpt>
      <trkpt lat="49.94426" lon="4.49983">
        <ele>351.2</ele>
        <time>2024-04-06T13:13:34Z</time>
      </trkpt>
      <trkpt lat="49.94421" lon="4.49979">
        <ele>351.2</ele>
        <time>2024-04-06T13:13:35Z</time>
      </trkpt>
      <trkpt lat="49.94415" lon="4.49975">
        <ele>351.2</ele>
        <time>2024-04-06T13:13:36Z</time>
      </trkpt>
      <trkpt lat="49.9441" lon="4.4997">
        <ele>351</ele>
        <time>2024-04-06T13:13:37Z</time>
      </trkpt>
      <trkpt lat="49.94405" lon="4.49966">
        <ele>351</ele>
        <time>2024-04-06T13:13:38Z</time>
      </trkpt>
      <trkpt lat="49.94401" lon="4.49962">
        <ele>351</ele>
        <time>2024-04-06T13:13:39Z</time>
      </trkpt>
      <trkpt lat="49.94396" lon="4.49958">
        <ele>351</ele>
        <time>2024-04-06T13:13:40Z</time>
      </trkpt>
      <trkpt lat="49.94391" lon="4.49955">
        <ele>351.2</ele>
        <time>2024-04-06T13:13:41Z</time>
      </trkpt>
      <trkpt lat="49.94386" lon="4.49951">
        <ele>351.2</ele>
        <time>2024-04-06T13:13:42Z</time>
      </trkpt>
      <trkpt lat="49.94381" lon="4.49947">
        <ele>351.4</ele>
        <time>2024-04-06T13:13:43Z</time>
      </trkpt>
      <trkpt lat="49.94377" lon="4.49943">
        <ele>351.6</ele>
        <time>2024-04-06T13:13:44Z</time>
      </trkpt>
      <trkpt lat="49.94372" lon="4.4994">
        <ele>351.6</ele>
        <time>2024-04-06T13:13:45Z</time>
      </trkpt>
      <trkpt lat="49.94367" lon="4.49936">
        <ele>351.8</ele>
        <time>2024-04-06T13:13:46Z</time>
      </trkpt>
      <trkpt lat="49.94362" lon="4.49932">
        <ele>352</ele>
        <time>2024-04-06T13:13:47Z</time>
      </trkpt>
      <trkpt lat="49.94358" lon="4.49929">
        <ele>352</ele>
        <time>2024-04-06T13:13:48Z</time>
      </trkpt>
      <trkpt lat="49.94353" lon="4.49926">
        <ele>352.2</ele>
        <time>2024-04-06T13:13:49Z</time>
      </trkpt>
      <trkpt lat="49.94348" lon="4.49922">
        <ele>352.4</ele>
        <time>2024-04-06T13:13:50Z</time>
      </trkpt>
      <trkpt lat="49.94344" lon="4.49919">
        <ele>352.4</ele>
        <time>2024-04-06T13:13:51Z</time>
      </trkpt>
      <trkpt lat="49.94339" lon="4.49916">
        <ele>352.6</ele>
        <time>2024-04-06T13:13:52Z</time>
      </trkpt>
      <trkpt lat="49.94334" lon="4.49913">
        <ele>352.4</ele>
        <time>2024-04-06T13:13:53Z</time>
      </trkpt>
      <trkpt lat="49.94329" lon="4.4991">
        <ele>352.6</ele>
        <time>2024-04-06T13:13:54Z</time>
      </trkpt>
      <trkpt lat="49.94325" lon="4.49908">
        <ele>353</ele>
        <time>2024-04-06T13:13:55Z</time>
      </trkpt>
      <trkpt lat="49.9432" lon="4.49905">
        <ele>353.2</ele>
        <time>2024-04-06T13:13:56Z</time>
      </trkpt>
      <trkpt lat="49.94315" lon="4.49902">
        <ele>353.4</ele>
        <time>2024-04-06T13:13:57Z</time>
      </trkpt>
      <trkpt lat="49.9431" lon="4.499">
        <ele>353.4</ele>
        <time>2024-04-06T13:13:58Z</time>
      </trkpt>
      <trkpt lat="49.94305" lon="4.49898">
        <ele>353.6</ele>
        <time>2024-04-06T13:13:59Z</time>
      </trkpt>
      <trkpt lat="49.943" lon="4.49896">
        <ele>353.6</ele>
        <time>2024-04-06T13:14:00Z</time>
      </trkpt>
      <trkpt lat="49.94295" lon="4.49895">
        <ele>353.8</ele>
        <time>2024-04-06T13:14:01Z</time>
      </trkpt>
      <trkpt lat="49.9429" lon="4.49893">
        <ele>353.8</ele>
        <time>2024-04-06T13:14:02Z</time>
      </trkpt>
      <trkpt lat="49.94285" lon="4.49892">
        <ele>353.8</ele>
        <time>2024-04-06T13:14:03Z</time>
      </trkpt>
      <trkpt lat="49.9428" lon="4.49891">
        <ele>353.8</ele>
        <time>2024-04-06T13:14:04Z</time>
      </trkpt>
      <trkpt lat="49.94274" lon="4.4989">
        <ele>354.2</ele>
        <time>2024-04-06T13:14:05Z</time>
      </trkpt>
      <trkpt lat="49.94269" lon="4.49889">
        <ele>354</ele>
        <time>2024-04-06T13:14:06Z</time>
      </trkpt>
      <trkpt lat="49.94264" lon="4.49888">
        <ele>354.2</ele>
        <time>2024-04-06T13:14:07Z</time>
      </trkpt>
      <trkpt lat="49.94258" lon="4.49888">
        <ele>354.2</ele>
        <time>2024-04-06T13:14:08Z</time>
      </trkpt>
      <trkpt lat="49.94253" lon="4.49888">
        <ele>354.4</ele>
        <time>2024-04-06T13:14:09Z</time>
      </trkpt>
      <trkpt lat="49.94248" lon="4.49888">
        <ele>354.6</ele>
        <time>2024-04-06T13:14:10Z</time>
      </trkpt>
      <trkpt lat="49.94243" lon="4.49888">
        <ele>354.8</ele>
        <time>2024-04-06T13:14:11Z</time>
      </trkpt>
      <trkpt lat="49.94237" lon="4.49888">
        <ele>354.8</ele>
        <time>2024-04-06T13:14:12Z</time>
      </trkpt>
      <trkpt lat="49.94232" lon="4.49888">
        <ele>355.2</ele>
        <time>2024-04-06T13:14:13Z</time>
      </trkpt>
      <trkpt lat="49.94227" lon="4.49888">
        <ele>355</ele>
        <time>2024-04-06T13:14:14Z</time>
      </trkpt>
      <trkpt lat="49.94222" lon="4.49888">
        <ele>355.2</ele>
        <time>2024-04-06T13:14:15Z</time>
      </trkpt>
      <trkpt lat="49.94217" lon="4.49888">
        <ele>355.4</ele>
        <time>2024-04-06T13:14:16Z</time>
      </trkpt>
      <trkpt lat="49.94212" lon="4.49888">
        <ele>355.4</ele>
        <time>2024-04-06T13:14:17Z</time>
      </trkpt>
      <trkpt lat="49.94207" lon="4.49888">
        <ele>355.6</ele>
        <time>2024-04-06T13:14:18Z</time>
      </trkpt>
      <trkpt lat="49.94201" lon="4.49888">
        <ele>355.6</ele>
        <time>2024-04-06T13:14:19Z</time>
      </trkpt>
      <trkpt lat="49.94196" lon="4.49888">
        <ele>355.6</ele>
        <time>2024-04-06T13:14:20Z</time>
      </trkpt>
      <trkpt lat="49.94192" lon="4.49888">
        <ele>355.6</ele>
        <time>2024-04-06T13:14:21Z</time>
      </trkpt>
      <trkpt lat="49.94187" lon="4.49888">
        <ele>355.6</ele>
        <time>2024-04-06T13:14:22Z</time>
      </trkpt>
      <trkpt lat="49.94181" lon="4.49888">
        <ele>355.6</ele>
        <time>2024-04-06T13:14:23Z</time>
      </trkpt>
      <trkpt lat="49.94176" lon="4.49888">
        <ele>355.4</ele>
        <time>2024-04-06T13:14:24Z</time>
      </trkpt>
      <trkpt lat="49.94171" lon="4.49888">
        <ele>355.6</ele>
        <time>2024-04-06T13:14:25Z</time>
      </trkpt>
      <trkpt lat="49.94166" lon="4.49888">
        <ele>355.4</ele>
        <time>2024-04-06T13:14:26Z</time>
      </trkpt>
      <trkpt lat="49.94162" lon="4.49889">
        <ele>355.6</ele>
        <time>2024-04-06T13:14:27Z</time>
      </trkpt>
      <trkpt lat="49.94157" lon="4.49889">
        <ele>355.6</ele>
        <time>2024-04-06T13:14:28Z</time>
      </trkpt>
      <trkpt lat="49.94152" lon="4.49889">
        <ele>355.4</ele>
        <time>2024-04-06T13:14:29Z</time>
      </trkpt>
      <trkpt lat="49.94147" lon="4.49888">
        <ele>355.4</ele>
        <time>2024-04-06T13:14:30Z</time>
      </trkpt>
      <trkpt lat="49.94142" lon="4.49888">
        <ele>355.6</ele>
        <time>2024-04-06T13:14:31Z</time>
      </trkpt>
      <trkpt lat="49.94137" lon="4.49888">
        <ele>355.6</ele>
        <time>2024-04-06T13:14:32Z</time>
      </trkpt>
      <trkpt lat="49.94133" lon="4.49888">
        <ele>355.6</ele>
        <time>2024-04-06T13:14:33Z</time>
      </trkpt>
      <trkpt lat="49.94128" lon="4.49888">
        <ele>355.8</ele>
        <time>2024-04-06T13:14:34Z</time>
      </trkpt>
      <trkpt lat="49.94123" lon="4.49888">
        <ele>355.8</ele>
        <time>2024-04-06T13:14:35Z</time>
      </trkpt>
      <trkpt lat="49.94119" lon="4.49888">
        <ele>355.8</ele>
        <time>2024-04-06T13:14:36Z</time>
      </trkpt>
      <trkpt lat="49.94115" lon="4.49888">
        <ele>356</ele>
        <time>2024-04-06T13:14:37Z</time>
      </trkpt>
      <trkpt lat="49.9411" lon="4.49888">
        <ele>356</ele>
        <time>2024-04-06T13:14:38Z</time>
      </trkpt>
      <trkpt lat="49.94106" lon="4.49888">
        <ele>356.2</ele>
        <time>2024-04-06T13:14:39Z</time>
      </trkpt>
      <trkpt lat="49.94101" lon="4.49887">
        <ele>356.2</ele>
        <time>2024-04-06T13:14:40Z</time>
      </trkpt>
      <trkpt lat="49.94097" lon="4.49887">
        <ele>356.4</ele>
        <time>2024-04-06T13:14:41Z</time>
      </trkpt>
      <trkpt lat="49.94092" lon="4.49887">
        <ele>356.6</ele>
        <time>2024-04-06T13:14:42Z</time>
      </trkpt>
      <trkpt lat="49.94087" lon="4.49887">
        <ele>356.6</ele>
        <time>2024-04-06T13:14:43Z</time>
      </trkpt>
      <trkpt lat="49.94083" lon="4.49886">
        <ele>356.6</ele>
        <time>2024-04-06T13:14:44Z</time>
      </trkpt>
      <trkpt lat="49.94079" lon="4.49886">
        <ele>356.8</ele>
        <time>2024-04-06T13:14:45Z</time>
      </trkpt>
      <trkpt lat="49.94074" lon="4.49886">
        <ele>356.8</ele>
        <time>2024-04-06T13:14:46Z</time>
      </trkpt>
      <trkpt lat="49.9407" lon="4.49886">
        <ele>357</ele>
        <time>2024-04-06T13:14:47Z</time>
      </trkpt>
      <trkpt lat="49.94065" lon="4.49886">
        <ele>357.2</ele>
        <time>2024-04-06T13:14:48Z</time>
      </trkpt>
      <trkpt lat="49.94061" lon="4.49887">
        <ele>357.6</ele>
        <time>2024-04-06T13:14:49Z</time>
      </trkpt>
      <trkpt lat="49.94056" lon="4.49887">
        <ele>357.8</ele>
        <time>2024-04-06T13:14:50Z</time>
      </trkpt>
      <trkpt lat="49.94052" lon="4.49887">
        <ele>358</ele>
        <time>2024-04-06T13:14:51Z</time>
      </trkpt>
      <trkpt lat="49.94048" lon="4.49887">
        <ele>358.4</ele>
        <time>2024-04-06T13:14:52Z</time>
      </trkpt>
      <trkpt lat="49.94044" lon="4.49887">
        <ele>358.6</ele>
        <time>2024-04-06T13:14:53Z</time>
      </trkpt>
      <trkpt lat="49.94039" lon="4.49887">
        <ele>358.6</ele>
        <time>2024-04-06T13:14:54Z</time>
      </trkpt>
      <trkpt lat="49.94035" lon="4.49887">
        <ele>359</ele>
        <time>2024-04-06T13:14:55Z</time>
      </trkpt>
      <trkpt lat="49.94031" lon="4.49887">
        <ele>359</ele>
        <time>2024-04-06T13:14:56Z</time>
      </trkpt>
      <trkpt lat="49.94027" lon="4.49886">
        <ele>359.2</ele>
        <time>2024-04-06T13:14:57Z</time>
      </trkpt>
      <trkpt lat="49.94023" lon="4.49886">
        <ele>359.2</ele>
        <time>2024-04-06T13:14:58Z</time>
      </trkpt>
      <trkpt lat="49.94019" lon="4.49886">
        <ele>359.6</ele>
        <time>2024-04-06T13:14:59Z</time>
      </trkpt>
      <trkpt lat="49.94015" lon="4.49886">
        <ele>359.6</ele>
        <time>2024-04-06T13:15:00Z</time>
      </trkpt>
      <trkpt lat="49.94011" lon="4.49886">
        <ele>359.6</ele>
        <time>2024-04-06T13:15:01Z</time>
      </trkpt>
      <trkpt lat="49.94006" lon="4.49887">
        <ele>360</ele>
        <time>2024-04-06T13:15:02Z</time>
      </trkpt>
      <trkpt lat="49.94002" lon="4.49887">
        <ele>360.2</ele>
        <time>2024-04-06T13:15:03Z</time>
      </trkpt>
      <trkpt lat="49.93998" lon="4.49886">
        <ele>360.4</ele>
        <time>2024-04-06T13:15:04Z</time>
      </trkpt>
      <trkpt lat="49.93994" lon="4.49886">
        <ele>360.6</ele>
        <time>2024-04-06T13:15:05Z</time>
      </trkpt>
      <trkpt lat="49.9399" lon="4.49886">
        <ele>360.6</ele>
        <time>2024-04-06T13:15:06Z</time>
      </trkpt>
      <trkpt lat="49.93986" lon="4.49887">
        <ele>360.8</ele>
        <time>2024-04-06T13:15:07Z</time>
      </trkpt>
      <trkpt lat="49.93981" lon="4.49887">
        <ele>360.8</ele>
        <time>2024-04-06T13:15:08Z</time>
      </trkpt>
      <trkpt lat="49.93977" lon="4.49888">
        <ele>360.8</ele>
        <time>2024-04-06T13:15:09Z</time>
      </trkpt>
      <trkpt lat="49.93972" lon="4.49889">
        <ele>360.8</ele>
        <time>2024-04-06T13:15:10Z</time>
      </trkpt>
      <trkpt lat="49.93968" lon="4.4989">
        <ele>361</ele>
        <time>2024-04-06T13:15:11Z</time>
      </trkpt>
      <trkpt lat="49.93963" lon="4.49891">
        <ele>360.8</ele>
        <time>2024-04-06T13:15:12Z</time>
      </trkpt>
      <trkpt lat="49.93959" lon="4.49892">
        <ele>360.8</ele>
        <time>2024-04-06T13:15:13Z</time>
      </trkpt>
      <trkpt lat="49.93954" lon="4.49892">
        <ele>361</ele>
        <time>2024-04-06T13:15:14Z</time>
      </trkpt>
      <trkpt lat="49.9395" lon="4.49893">
        <ele>360.8</ele>
        <time>2024-04-06T13:15:15Z</time>
      </trkpt>
      <trkpt lat="49.93946" lon="4.49894">
        <ele>361.4</ele>
        <time>2024-04-06T13:15:16Z</time>
      </trkpt>
      <trkpt lat="49.93942" lon="4.49894">
        <ele>361.4</ele>
        <time>2024-04-06T13:15:17Z</time>
      </trkpt>
      <trkpt lat="49.93938" lon="4.49895">
        <ele>361.4</ele>
        <time>2024-04-06T13:15:18Z</time>
      </trkpt>
      <trkpt lat="49.93934" lon="4.49896">
        <ele>361.6</ele>
        <time>2024-04-06T13:15:19Z</time>
      </trkpt>
      <trkpt lat="49.93931" lon="4.49897">
        <ele>362</ele>
        <time>2024-04-06T13:15:20Z</time>
      </trkpt>
      <trkpt lat="49.93927" lon="4.49897">
        <ele>362</ele>
        <time>2024-04-06T13:15:21Z</time>
      </trkpt>
      <trkpt lat="49.93923" lon="4.49898">
        <ele>362.2</ele>
        <time>2024-04-06T13:15:22Z</time>
      </trkpt>
      <trkpt lat="49.93919" lon="4.49899">
        <ele>362.4</ele>
        <time>2024-04-06T13:15:23Z</time>
      </trkpt>
      <trkpt lat="49.93915" lon="4.49899">
        <ele>362.6</ele>
        <time>2024-04-06T13:15:24Z</time>
      </trkpt>
      <trkpt lat="49.93911" lon="4.499">
        <ele>363</ele>
        <time>2024-04-06T13:15:25Z</time>
      </trkpt>
      <trkpt lat="49.93907" lon="4.49901">
        <ele>363</ele>
        <time>2024-04-06T13:15:26Z</time>
      </trkpt>
      <trkpt lat="49.93903" lon="4.49901">
        <ele>363.2</ele>
        <time>2024-04-06T13:15:27Z</time>
      </trkpt>
      <trkpt lat="49.93899" lon="4.49902">
        <ele>363.4</ele>
        <time>2024-04-06T13:15:28Z</time>
      </trkpt>
      <trkpt lat="49.93895" lon="4.49903">
        <ele>363.8</ele>
        <time>2024-04-06T13:15:29Z</time>
      </trkpt>
      <trkpt lat="49.93891" lon="4.49903">
        <ele>363.8</ele>
        <time>2024-04-06T13:15:30Z</time>
      </trkpt>
      <trkpt lat="49.93887" lon="4.49904">
        <ele>364</ele>
        <time>2024-04-06T13:15:31Z</time>
      </trkpt>
      <trkpt lat="49.93883" lon="4.49904">
        <ele>364.2</ele>
        <time>2024-04-06T13:15:32Z</time>
      </trkpt>
      <trkpt lat="49.93878" lon="4.49904">
        <ele>364.4</ele>
        <time>2024-04-06T13:15:33Z</time>
      </trkpt>
      <trkpt lat="49.93874" lon="4.49905">
        <ele>364.4</ele>
        <time>2024-04-06T13:15:34Z</time>
      </trkpt>
      <trkpt lat="49.9387" lon="4.49905">
        <ele>364.6</ele>
        <time>2024-04-06T13:15:35Z</time>
      </trkpt>
      <trkpt lat="49.93866" lon="4.49905">
        <ele>364.6</ele>
        <time>2024-04-06T13:15:36Z</time>
      </trkpt>
      <trkpt lat="49.93862" lon="4.49905">
        <ele>364.8</ele>
        <time>2024-04-06T13:15:37Z</time>
      </trkpt>
      <trkpt lat="49.93858" lon="4.49905">
        <ele>364.8</ele>
        <time>2024-04-06T13:15:38Z</time>
      </trkpt>
      <trkpt lat="49.93854" lon="4.49905">
        <ele>365.2</ele>
        <time>2024-04-06T13:15:39Z</time>
      </trkpt>
      <trkpt lat="49.9385" lon="4.49905">
        <ele>365.4</ele>
        <time>2024-04-06T13:15:40Z</time>
      </trkpt>
      <trkpt lat="49.93846" lon="4.49905">
        <ele>365.4</ele>
        <time>2024-04-06T13:15:41Z</time>
      </trkpt>
      <trkpt lat="49.93842" lon="4.49905">
        <ele>365.6</ele>
        <time>2024-04-06T13:15:42Z</time>
      </trkpt>
      <trkpt lat="49.93838" lon="4.49905">
        <ele>366</ele>
        <time>2024-04-06T13:15:43Z</time>
      </trkpt>
      <trkpt lat="49.93834" lon="4.49905">
        <ele>366.2</ele>
        <time>2024-04-06T13:15:44Z</time>
      </trkpt>
      <trkpt lat="49.9383" lon="4.49905">
        <ele>366.4</ele>
        <time>2024-04-06T13:15:45Z</time>
      </trkpt>
      <trkpt lat="49.93826" lon="4.49905">
        <ele>366.4</ele>
        <time>2024-04-06T13:15:46Z</time>
      </trkpt>
      <trkpt lat="49.93822" lon="4.49904">
        <ele>366.6</ele>
        <time>2024-04-06T13:15:47Z</time>
      </trkpt>
      <trkpt lat="49.93818" lon="4.49904">
        <ele>366.6</ele>
        <time>2024-04-06T13:15:48Z</time>
      </trkpt>
      <trkpt lat="49.93814" lon="4.49903">
        <ele>366.8</ele>
        <time>2024-04-06T13:15:49Z</time>
      </trkpt>
      <trkpt lat="49.93811" lon="4.49903">
        <ele>367</ele>
        <time>2024-04-06T13:15:50Z</time>
      </trkpt>
      <trkpt lat="49.93807" lon="4.49902">
        <ele>367</ele>
        <time>2024-04-06T13:15:51Z</time>
      </trkpt>
      <trkpt lat="49.93803" lon="4.49901">
        <ele>367.4</ele>
        <time>2024-04-06T13:15:52Z</time>
      </trkpt>
      <trkpt lat="49.938" lon="4.49901">
        <ele>367.4</ele>
        <time>2024-04-06T13:15:53Z</time>
      </trkpt>
      <trkpt lat="49.93796" lon="4.49901">
        <ele>367.4</ele>
        <time>2024-04-06T13:15:54Z</time>
      </trkpt>
      <trkpt lat="49.93792" lon="4.499">
        <ele>367.6</ele>
        <time>2024-04-06T13:15:55Z</time>
      </trkpt>
      <trkpt lat="49.93788" lon="4.49899">
        <ele>367.8</ele>
        <time>2024-04-06T13:15:56Z</time>
      </trkpt>
      <trkpt lat="49.93784" lon="4.49899">
        <ele>368</ele>
        <time>2024-04-06T13:15:57Z</time>
      </trkpt>
      <trkpt lat="49.93781" lon="4.49899">
        <ele>368.2</ele>
        <time>2024-04-06T13:15:58Z</time>
      </trkpt>
      <trkpt lat="49.93777" lon="4.49899">
        <ele>368.2</ele>
        <time>2024-04-06T13:15:59Z</time>
      </trkpt>
      <trkpt lat="49.93773" lon="4.49899">
        <ele>368.4</ele>
        <time>2024-04-06T13:16:00Z</time>
      </trkpt>
      <trkpt lat="49.93769" lon="4.49899">
        <ele>368.4</ele>
        <time>2024-04-06T13:16:01Z</time>
      </trkpt>
      <trkpt lat="49.93765" lon="4.49898">
        <ele>368.4</ele>
        <time>2024-04-06T13:16:02Z</time>
      </trkpt>
      <trkpt lat="49.93761" lon="4.49898">
        <ele>368.6</ele>
        <time>2024-04-06T13:16:03Z</time>
      </trkpt>
      <trkpt lat="49.93757" lon="4.49897">
        <ele>368.8</ele>
        <time>2024-04-06T13:16:04Z</time>
      </trkpt>
      <trkpt lat="49.93753" lon="4.49897">
        <ele>368.8</ele>
        <time>2024-04-06T13:16:05Z</time>
      </trkpt>
      <trkpt lat="49.93749" lon="4.49896">
        <ele>369</ele>
        <time>2024-04-06T13:16:06Z</time>
      </trkpt>
      <trkpt lat="49.93745" lon="4.49895">
        <ele>369</ele>
        <time>2024-04-06T13:16:07Z</time>
      </trkpt>
      <trkpt lat="49.93742" lon="4.49895">
        <ele>369.2</ele>
        <time>2024-04-06T13:16:08Z</time>
      </trkpt>
      <trkpt lat="49.93738" lon="4.49894">
        <ele>369.4</ele>
        <time>2024-04-06T13:16:09Z</time>
      </trkpt>
      <trkpt lat="49.93734" lon="4.49894">
        <ele>369.6</ele>
        <time>2024-04-06T13:16:10Z</time>
      </trkpt>
      <trkpt lat="49.9373" lon="4.49893">
        <ele>369.8</ele>
        <time>2024-04-06T13:16:11Z</time>
      </trkpt>
      <trkpt lat="49.93726" lon="4.49893">
        <ele>370</ele>
        <time>2024-04-06T13:16:12Z</time>
      </trkpt>
      <trkpt lat="49.93722" lon="4.49892">
        <ele>370.2</ele>
        <time>2024-04-06T13:16:13Z</time>
      </trkpt>
      <trkpt lat="49.93719" lon="4.49892">
        <ele>370.6</ele>
        <time>2024-04-06T13:16:14Z</time>
      </trkpt>
      <trkpt lat="49.93715" lon="4.49892">
        <ele>370.8</ele>
        <time>2024-04-06T13:16:15Z</time>
      </trkpt>
      <trkpt lat="49.93712" lon="4.49892">
        <ele>370.8</ele>
        <time>2024-04-06T13:16:16Z</time>
      </trkpt>
      <trkpt lat="49.93708" lon="4.49891">
        <ele>370.8</ele>
        <time>2024-04-06T13:16:17Z</time>
      </trkpt>
      <trkpt lat="49.93704" lon="4.49891">
        <ele>371.4</ele>
        <time>2024-04-06T13:16:18Z</time>
      </trkpt>
      <trkpt lat="49.937" lon="4.4989">
        <ele>371.6</ele>
        <time>2024-04-06T13:16:19Z</time>
      </trkpt>
      <trkpt lat="49.93697" lon="4.4989">
        <ele>372</ele>
        <time>2024-04-06T13:16:20Z</time>
      </trkpt>
      <trkpt lat="49.93693" lon="4.49889">
        <ele>372.2</ele>
        <time>2024-04-06T13:16:21Z</time>
      </trkpt>
      <trkpt lat="49.93689" lon="4.49889">
        <ele>372.4</ele>
        <time>2024-04-06T13:16:22Z</time>
      </trkpt>
      <trkpt lat="49.93685" lon="4.49888">
        <ele>372.2</ele>
        <time>2024-04-06T13:16:23Z</time>
      </trkpt>
      <trkpt lat="49.93682" lon="4.49887">
        <ele>372.4</ele>
        <time>2024-04-06T13:16:24Z</time>
      </trkpt>
      <trkpt lat="49.93678" lon="4.49887">
        <ele>372.4</ele>
        <time>2024-04-06T13:16:25Z</time>
      </trkpt>
      <trkpt lat="49.93675" lon="4.49886">
        <ele>372.8</ele>
        <time>2024-04-06T13:16:26Z</time>
      </trkpt>
      <trkpt lat="49.93672" lon="4.49886">
        <ele>372.6</ele>
        <time>2024-04-06T13:16:27Z</time>
      </trkpt>
      <trkpt lat="49.93669" lon="4.49886">
        <ele>373</ele>
        <time>2024-04-06T13:16:28Z</time>
      </trkpt>
      <trkpt lat="49.93667" lon="4.49885">
        <ele>373.2</ele>
        <time>2024-04-06T13:16:29Z</time>
      </trkpt>
      <trkpt lat="49.93665" lon="4.49885">
        <ele>373.2</ele>
        <time>2024-04-06T13:16:30Z</time>
      </trkpt>
      <trkpt lat="49.93663" lon="4.49885">
        <ele>373.4</ele>
        <time>2024-04-06T13:16:31Z</time>
      </trkpt>
      <trkpt lat="49.93662" lon="4.49885">
        <ele>373.6</ele>
        <time>2024-04-06T13:16:32Z</time>
      </trkpt>
      <trkpt lat="49.9366" lon="4.49885">
        <ele>374</ele>
        <time>2024-04-06T13:16:33Z</time>
      </trkpt>
      <trkpt lat="49.93658" lon="4.49885">
        <ele>374.2</ele>
        <time>2024-04-06T13:16:34Z</time>
      </trkpt>
      <trkpt lat="49.93656" lon="4.49885">
        <ele>374.4</ele>
        <time>2024-04-06T13:16:35Z</time>
      </trkpt>
      <trkpt lat="49.93653" lon="4.49885">
        <ele>374.6</ele>
        <time>2024-04-06T13:16:36Z</time>
      </trkpt>
      <trkpt lat="49.9365" lon="4.49884">
        <ele>374.6</ele>
        <time>2024-04-06T13:16:37Z</time>
      </trkpt>
      <trkpt lat="49.93646" lon="4.49884">
        <ele>374.8</ele>
        <time>2024-04-06T13:16:38Z</time>
      </trkpt>
      <trkpt lat="49.93643" lon="4.49882">
        <ele>374.8</ele>
        <time>2024-04-06T13:16:39Z</time>
      </trkpt>
      <trkpt lat="49.9364" lon="4.49881">
        <ele>374.8</ele>
        <time>2024-04-06T13:16:40Z</time>
      </trkpt>
      <trkpt lat="49.93636" lon="4.49881">
        <ele>374.8</ele>
        <time>2024-04-06T13:16:41Z</time>
      </trkpt>
      <trkpt lat="49.93632" lon="4.49881">
        <ele>374.8</ele>
        <time>2024-04-06T13:16:42Z</time>
      </trkpt>
      <trkpt lat="49.93628" lon="4.49881">
        <ele>374.8</ele>
        <time>2024-04-06T13:16:43Z</time>
      </trkpt>
      <trkpt lat="49.93625" lon="4.49882">
        <ele>374.8</ele>
        <time>2024-04-06T13:16:44Z</time>
      </trkpt>
      <trkpt lat="49.93621" lon="4.49882">
        <ele>374.8</ele>
        <time>2024-04-06T13:16:45Z</time>
      </trkpt>
      <trkpt lat="49.93617" lon="4.49883">
        <ele>374.8</ele>
        <time>2024-04-06T13:16:46Z</time>
      </trkpt>
      <trkpt lat="49.93613" lon="4.49883">
        <ele>375</ele>
        <time>2024-04-06T13:16:47Z</time>
      </trkpt>
      <trkpt lat="49.93608" lon="4.49884">
        <ele>374.8</ele>
        <time>2024-04-06T13:16:48Z</time>
      </trkpt>
      <trkpt lat="49.93604" lon="4.49884">
        <ele>375</ele>
        <time>2024-04-06T13:16:49Z</time>
      </trkpt>
      <trkpt lat="49.93599" lon="4.49885">
        <ele>374.8</ele>
        <time>2024-04-06T13:16:50Z</time>
      </trkpt>
      <trkpt lat="49.93595" lon="4.49885">
        <ele>374.8</ele>
        <time>2024-04-06T13:16:51Z</time>
      </trkpt>
      <trkpt lat="49.9359" lon="4.49885">
        <ele>375</ele>
        <time>2024-04-06T13:16:52Z</time>
      </trkpt>
      <trkpt lat="49.93585" lon="4.49886">
        <ele>375</ele>
        <time>2024-04-06T13:16:53Z</time>
      </trkpt>
      <trkpt lat="49.9358" lon="4.49886">
        <ele>375</ele>
        <time>2024-04-06T13:16:54Z</time>
      </trkpt>
      <trkpt lat="49.93575" lon="4.49887">
        <ele>375.2</ele>
        <time>2024-04-06T13:16:55Z</time>
      </trkpt>
      <trkpt lat="49.93569" lon="4.49887">
        <ele>375.2</ele>
        <time>2024-04-06T13:16:56Z</time>
      </trkpt>
      <trkpt lat="49.93564" lon="4.49888">
        <ele>375.4</ele>
        <time>2024-04-06T13:16:57Z</time>
      </trkpt>
      <trkpt lat="49.93558" lon="4.49889">
        <ele>375.4</ele>
        <time>2024-04-06T13:16:58Z</time>
      </trkpt>
      <trkpt lat="49.93551" lon="4.4989">
        <ele>375.4</ele>
        <time>2024-04-06T13:16:59Z</time>
      </trkpt>
      <trkpt lat="49.93545" lon="4.49891">
        <ele>375.4</ele>
        <time>2024-04-06T13:17:00Z</time>
      </trkpt>
      <trkpt lat="49.93538" lon="4.49892">
        <ele>375.4</ele>
        <time>2024-04-06T13:17:01Z</time>
      </trkpt>
      <trkpt lat="49.93531" lon="4.49893">
        <ele>375.4</ele>
        <time>2024-04-06T13:17:02Z</time>
      </trkpt>
      <trkpt lat="49.93525" lon="4.49894">
        <ele>375.4</ele>
        <time>2024-04-06T13:17:03Z</time>
      </trkpt>
      <trkpt lat="49.93518" lon="4.49896">
        <ele>375.4</ele>
        <time>2024-04-06T13:17:04Z</time>
      </trkpt>
      <trkpt lat="49.93511" lon="4.49898">
        <ele>375.4</ele>
        <time>2024-04-06T13:17:05Z</time>
      </trkpt>
      <trkpt lat="49.93504" lon="4.49899">
        <ele>375.4</ele>
        <time>2024-04-06T13:17:06Z</time>
      </trkpt>
      <trkpt lat="49.93497" lon="4.499">
        <ele>375.4</ele>
        <time>2024-04-06T13:17:07Z</time>
      </trkpt>
      <trkpt lat="49.9349" lon="4.49902">
        <ele>374.8</ele>
        <time>2024-04-06T13:17:08Z</time>
      </trkpt>
      <trkpt lat="49.93483" lon="4.49904">
        <ele>374.8</ele>
        <time>2024-04-06T13:17:09Z</time>
      </trkpt>
      <trkpt lat="49.93476" lon="4.49906">
        <ele>374.4</ele>
        <time>2024-04-06T13:17:10Z</time>
      </trkpt>
      <trkpt lat="49.93469" lon="4.49909">
        <ele>374.2</ele>
        <time>2024-04-06T13:17:11Z</time>
      </trkpt>
      <trkpt lat="49.93462" lon="4.49911">
        <ele>373.8</ele>
        <time>2024-04-06T13:17:12Z</time>
      </trkpt>
      <trkpt lat="49.93454" lon="4.49914">
        <ele>373.6</ele>
        <time>2024-04-06T13:17:13Z</time>
      </trkpt>
      <trkpt lat="49.93447" lon="4.49916">
        <ele>373.2</ele>
        <time>2024-04-06T13:17:14Z</time>
      </trkpt>
      <trkpt lat="49.93439" lon="4.49919">
        <ele>373</ele>
        <time>2024-04-06T13:17:15Z</time>
      </trkpt>
      <trkpt lat="49.93432" lon="4.49922">
        <ele>372.8</ele>
        <time>2024-04-06T13:17:16Z</time>
      </trkpt>
      <trkpt lat="49.93424" lon="4.49924">
        <ele>372</ele>
        <time>2024-04-06T13:17:17Z</time>
      </trkpt>
      <trkpt lat="49.93417" lon="4.49926">
        <ele>371.6</ele>
        <time>2024-04-06T13:17:18Z</time>
      </trkpt>
      <trkpt lat="49.93409" lon="4.49928">
        <ele>371.2</ele>
        <time>2024-04-06T13:17:19Z</time>
      </trkpt>
      <trkpt lat="49.93401" lon="4.4993">
        <ele>371</ele>
        <time>2024-04-06T13:17:20Z</time>
      </trkpt>
      <trkpt lat="49.93393" lon="4.49932">
        <ele>370.4</ele>
        <time>2024-04-06T13:17:21Z</time>
      </trkpt>
      <trkpt lat="49.93384" lon="4.49933">
        <ele>370</ele>
        <time>2024-04-06T13:17:22Z</time>
      </trkpt>
      <trkpt lat="49.93376" lon="4.49935">
        <ele>369</ele>
        <time>2024-04-06T13:17:23Z</time>
      </trkpt>
      <trkpt lat="49.93367" lon="4.49936">
        <ele>368.6</ele>
        <time>2024-04-06T13:17:24Z</time>
      </trkpt>
      <trkpt lat="49.93358" lon="4.49938">
        <ele>368.4</ele>
        <time>2024-04-06T13:17:25Z</time>
      </trkpt>
      <trkpt lat="49.9335" lon="4.4994">
        <ele>368</ele>
        <time>2024-04-06T13:17:26Z</time>
      </trkpt>
      <trkpt lat="49.93341" lon="4.49941">
        <ele>368</ele>
        <time>2024-04-06T13:17:27Z</time>
      </trkpt>
      <trkpt lat="49.93332" lon="4.49943">
        <ele>367.4</ele>
        <time>2024-04-06T13:17:28Z</time>
      </trkpt>
      <trkpt lat="49.93323" lon="4.49945">
        <ele>367</ele>
        <time>2024-04-06T13:17:29Z</time>
      </trkpt>
      <trkpt lat="49.93315" lon="4.49946">
        <ele>366.6</ele>
        <time>2024-04-06T13:17:30Z</time>
      </trkpt>
      <trkpt lat="49.93306" lon="4.49948">
        <ele>365.4</ele>
        <time>2024-04-06T13:17:31Z</time>
      </trkpt>
      <trkpt lat="49.93297" lon="4.4995">
        <ele>364.4</ele>
        <time>2024-04-06T13:17:32Z</time>
      </trkpt>
      <trkpt lat="49.93289" lon="4.49951">
        <ele>363.6</ele>
        <time>2024-04-06T13:17:33Z</time>
      </trkpt>
      <trkpt lat="49.93281" lon="4.49953">
        <ele>362.8</ele>
        <time>2024-04-06T13:17:34Z</time>
      </trkpt>
      <trkpt lat="49.93272" lon="4.49954">
        <ele>362.4</ele>
        <time>2024-04-06T13:17:35Z</time>
      </trkpt>
      <trkpt lat="49.93264" lon="4.49956">
        <ele>361.8</ele>
        <time>2024-04-06T13:17:36Z</time>
      </trkpt>
      <trkpt lat="49.93256" lon="4.49957">
        <ele>361.6</ele>
        <time>2024-04-06T13:17:37Z</time>
      </trkpt>
      <trkpt lat="49.93247" lon="4.49958">
        <ele>361.4</ele>
        <time>2024-04-06T13:17:38Z</time>
      </trkpt>
      <trkpt lat="49.93239" lon="4.4996">
        <ele>361.2</ele>
        <time>2024-04-06T13:17:39Z</time>
      </trkpt>
      <trkpt lat="49.93231" lon="4.49961">
        <ele>361.2</ele>
        <time>2024-04-06T13:17:40Z</time>
      </trkpt>
      <trkpt lat="49.93222" lon="4.49963">
        <ele>361.2</ele>
        <time>2024-04-06T13:17:41Z</time>
      </trkpt>
      <trkpt lat="49.93214" lon="4.49964">
        <ele>361.2</ele>
        <time>2024-04-06T13:17:42Z</time>
      </trkpt>
      <trkpt lat="49.93206" lon="4.49964">
        <ele>361</ele>
        <time>2024-04-06T13:17:43Z</time>
      </trkpt>
      <trkpt lat="49.93199" lon="4.49964">
        <ele>360.8</ele>
        <time>2024-04-06T13:17:44Z</time>
      </trkpt>
      <trkpt lat="49.93191" lon="4.49963">
        <ele>360.6</ele>
        <time>2024-04-06T13:17:45Z</time>
      </trkpt>
      <trkpt lat="49.93183" lon="4.49962">
        <ele>360.2</ele>
        <time>2024-04-06T13:17:46Z</time>
      </trkpt>
      <trkpt lat="49.93176" lon="4.49961">
        <ele>360</ele>
        <time>2024-04-06T13:17:47Z</time>
      </trkpt>
      <trkpt lat="49.93168" lon="4.4996">
        <ele>360</ele>
        <time>2024-04-06T13:17:48Z</time>
      </trkpt>
      <trkpt lat="49.93162" lon="4.49959">
        <ele>359.8</ele>
        <time>2024-04-06T13:17:49Z</time>
      </trkpt>
      <trkpt lat="49.93155" lon="4.49959">
        <ele>359.6</ele>
        <time>2024-04-06T13:17:50Z</time>
      </trkpt>
      <trkpt lat="49.93148" lon="4.49959">
        <ele>359.6</ele>
        <time>2024-04-06T13:17:51Z</time>
      </trkpt>
      <trkpt lat="49.93141" lon="4.49959">
        <ele>359.6</ele>
        <time>2024-04-06T13:17:52Z</time>
      </trkpt>
      <trkpt lat="49.93133" lon="4.49961">
        <ele>359.6</ele>
        <time>2024-04-06T13:17:53Z</time>
      </trkpt>
      <trkpt lat="49.93127" lon="4.49962">
        <ele>359.4</ele>
        <time>2024-04-06T13:17:54Z</time>
      </trkpt>
      <trkpt lat="49.9312" lon="4.49964">
        <ele>359.4</ele>
        <time>2024-04-06T13:17:55Z</time>
      </trkpt>
      <trkpt lat="49.93113" lon="4.49966">
        <ele>359.4</ele>
        <time>2024-04-06T13:17:56Z</time>
      </trkpt>
      <trkpt lat="49.93106" lon="4.49968">
        <ele>359.4</ele>
        <time>2024-04-06T13:17:57Z</time>
      </trkpt>
      <trkpt lat="49.931" lon="4.4997">
        <ele>359.2</ele>
        <time>2024-04-06T13:17:58Z</time>
      </trkpt>
      <trkpt lat="49.93094" lon="4.49973">
        <ele>359.4</ele>
        <time>2024-04-06T13:17:59Z</time>
      </trkpt>
      <trkpt lat="49.93087" lon="4.49975">
        <ele>359.2</ele>
        <time>2024-04-06T13:18:00Z</time>
      </trkpt>
      <trkpt lat="49.93081" lon="4.49977">
        <ele>359.4</ele>
        <time>2024-04-06T13:18:01Z</time>
      </trkpt>
      <trkpt lat="49.93075" lon="4.4998">
        <ele>359.4</ele>
        <time>2024-04-06T13:18:02Z</time>
      </trkpt>
      <trkpt lat="49.93069" lon="4.49982">
        <ele>359.4</ele>
        <time>2024-04-06T13:18:03Z</time>
      </trkpt>
      <trkpt lat="49.93064" lon="4.49984">
        <ele>359.4</ele>
        <time>2024-04-06T13:18:04Z</time>
      </trkpt>
      <trkpt lat="49.93058" lon="4.49986">
        <ele>359.4</ele>
        <time>2024-04-06T13:18:05Z</time>
      </trkpt>
      <trkpt lat="49.93052" lon="4.49988">
        <ele>359.6</ele>
        <time>2024-04-06T13:18:06Z</time>
      </trkpt>
      <trkpt lat="49.93046" lon="4.4999">
        <ele>359.6</ele>
        <time>2024-04-06T13:18:07Z</time>
      </trkpt>
      <trkpt lat="49.9304" lon="4.49992">
        <ele>359.8</ele>
        <time>2024-04-06T13:18:08Z</time>
      </trkpt>
      <trkpt lat="49.93035" lon="4.49995">
        <ele>359.8</ele>
        <time>2024-04-06T13:18:09Z</time>
      </trkpt>
      <trkpt lat="49.93029" lon="4.49997">
        <ele>359.8</ele>
        <time>2024-04-06T13:18:10Z</time>
      </trkpt>
      <trkpt lat="49.93024" lon="4.49999">
        <ele>360</ele>
        <time>2024-04-06T13:18:11Z</time>
      </trkpt>
      <trkpt lat="49.93018" lon="4.50002">
        <ele>360</ele>
        <time>2024-04-06T13:18:12Z</time>
      </trkpt>
      <trkpt lat="49.93013" lon="4.50004">
        <ele>360</ele>
        <time>2024-04-06T13:18:13Z</time>
      </trkpt>
      <trkpt lat="49.93007" lon="4.50006">
        <ele>360</ele>
        <time>2024-04-06T13:18:14Z</time>
      </trkpt>
      <trkpt lat="49.93002" lon="4.50008">
        <ele>360.2</ele>
        <time>2024-04-06T13:18:15Z</time>
      </trkpt>
      <trkpt lat="49.92996" lon="4.5001">
        <ele>360.2</ele>
        <time>2024-04-06T13:18:16Z</time>
      </trkpt>
      <trkpt lat="49.92991" lon="4.50012">
        <ele>360</ele>
        <time>2024-04-06T13:18:17Z</time>
      </trkpt>
      <trkpt lat="49.92985" lon="4.50014">
        <ele>360.2</ele>
        <time>2024-04-06T13:18:18Z</time>
      </trkpt>
      <trkpt lat="49.9298" lon="4.50016">
        <ele>360.4</ele>
        <time>2024-04-06T13:18:19Z</time>
      </trkpt>
      <trkpt lat="49.92975" lon="4.50018">
        <ele>360.4</ele>
        <time>2024-04-06T13:18:20Z</time>
      </trkpt>
      <trkpt lat="49.92969" lon="4.5002">
        <ele>360.2</ele>
        <time>2024-04-06T13:18:21Z</time>
      </trkpt>
      <trkpt lat="49.92964" lon="4.50022">
        <ele>360.4</ele>
        <time>2024-04-06T13:18:22Z</time>
      </trkpt>
      <trkpt lat="49.92959" lon="4.50024">
        <ele>360.4</ele>
        <time>2024-04-06T13:18:23Z</time>
      </trkpt>
      <trkpt lat="49.92954" lon="4.50026">
        <ele>360.4</ele>
        <time>2024-04-06T13:18:24Z</time>
      </trkpt>
      <trkpt lat="49.92949" lon="4.50028">
        <ele>360.8</ele>
        <time>2024-04-06T13:18:25Z</time>
      </trkpt>
      <trkpt lat="49.92945" lon="4.5003">
        <ele>360.8</ele>
        <time>2024-04-06T13:18:26Z</time>
      </trkpt>
      <trkpt lat="49.9294" lon="4.50032">
        <ele>360.8</ele>
        <time>2024-04-06T13:18:27Z</time>
      </trkpt>
      <trkpt lat="49.92936" lon="4.50033">
        <ele>361</ele>
        <time>2024-04-06T13:18:28Z</time>
      </trkpt>
      <trkpt lat="49.92931" lon="4.50035">
        <ele>361.2</ele>
        <time>2024-04-06T13:18:29Z</time>
      </trkpt>
      <trkpt lat="49.92927" lon="4.50036">
        <ele>361.4</ele>
        <time>2024-04-06T13:18:30Z</time>
      </trkpt>
      <trkpt lat="49.92923" lon="4.50037">
        <ele>361.8</ele>
        <time>2024-04-06T13:18:31Z</time>
      </trkpt>
      <trkpt lat="49.92919" lon="4.50036">
        <ele>362</ele>
        <time>2024-04-06T13:18:32Z</time>
      </trkpt>
      <trkpt lat="49.92915" lon="4.50036">
        <ele>362.2</ele>
        <time>2024-04-06T13:18:33Z</time>
      </trkpt>
      <trkpt lat="49.92912" lon="4.50036">
        <ele>362.4</ele>
        <time>2024-04-06T13:18:34Z</time>
      </trkpt>
      <trkpt lat="49.92908" lon="4.50039">
        <ele>362.4</ele>
        <time>2024-04-06T13:18:35Z</time>
      </trkpt>
      <trkpt lat="49.92904" lon="4.50043">
        <ele>362.4</ele>
        <time>2024-04-06T13:18:36Z</time>
      </trkpt>
      <trkpt lat="49.92901" lon="4.50048">
        <ele>362.6</ele>
        <time>2024-04-06T13:18:37Z</time>
      </trkpt>
      <trkpt lat="49.92898" lon="4.50053">
        <ele>363.2</ele>
        <time>2024-04-06T13:18:38Z</time>
      </trkpt>
      <trkpt lat="49.92894" lon="4.50057">
        <ele>363.6</ele>
        <time>2024-04-06T13:18:39Z</time>
      </trkpt>
      <trkpt lat="49.92891" lon="4.50061">
        <ele>364</ele>
        <time>2024-04-06T13:18:40Z</time>
      </trkpt>
      <trkpt lat="49.92887" lon="4.50065">
        <ele>364</ele>
        <time>2024-04-06T13:18:41Z</time>
      </trkpt>
      <trkpt lat="49.92883" lon="4.50068">
        <ele>364</ele>
        <time>2024-04-06T13:18:42Z</time>
      </trkpt>
      <trkpt lat="49.92879" lon="4.50071">
        <ele>364.2</ele>
        <time>2024-04-06T13:18:43Z</time>
      </trkpt>
      <trkpt lat="49.92876" lon="4.50075">
        <ele>364.6</ele>
        <time>2024-04-06T13:18:44Z</time>
      </trkpt>
      <trkpt lat="49.92872" lon="4.50079">
        <ele>364.6</ele>
        <time>2024-04-06T13:18:45Z</time>
      </trkpt>
      <trkpt lat="49.92868" lon="4.50082">
        <ele>364.8</ele>
        <time>2024-04-06T13:18:46Z</time>
      </trkpt>
      <trkpt lat="49.92864" lon="4.50086">
        <ele>365</ele>
        <time>2024-04-06T13:18:47Z</time>
      </trkpt>
      <trkpt lat="49.9286" lon="4.5009">
        <ele>365</ele>
        <time>2024-04-06T13:18:48Z</time>
      </trkpt>
      <trkpt lat="49.92856" lon="4.50094">
        <ele>365.2</ele>
        <time>2024-04-06T13:18:49Z</time>
      </trkpt>
      <trkpt lat="49.92852" lon="4.50099">
        <ele>365.2</ele>
        <time>2024-04-06T13:18:50Z</time>
      </trkpt>
      <trkpt lat="49.92848" lon="4.50104">
        <ele>365.4</ele>
        <time>2024-04-06T13:18:51Z</time>
      </trkpt>
      <trkpt lat="49.92844" lon="4.50108">
        <ele>365.2</ele>
        <time>2024-04-06T13:18:52Z</time>
      </trkpt>
      <trkpt lat="49.9284" lon="4.50113">
        <ele>365.4</ele>
        <time>2024-04-06T13:18:53Z</time>
      </trkpt>
      <trkpt lat="49.92836" lon="4.50118">
        <ele>365.4</ele>
        <time>2024-04-06T13:18:54Z</time>
      </trkpt>
      <trkpt lat="49.92832" lon="4.50123">
        <ele>365.4</ele>
        <time>2024-04-06T13:18:55Z</time>
      </trkpt>
      <trkpt lat="49.92828" lon="4.50128">
        <ele>365.4</ele>
        <time>2024-04-06T13:18:56Z</time>
      </trkpt>
      <trkpt lat="49.92824" lon="4.50134">
        <ele>365.2</ele>
        <time>2024-04-06T13:18:57Z</time>
      </trkpt>
      <trkpt lat="49.92821" lon="4.50139">
        <ele>365.4</ele>
        <time>2024-04-06T13:18:58Z</time>
      </trkpt>
      <trkpt lat="49.92817" lon="4.50146">
        <ele>365.4</ele>
        <time>2024-04-06T13:18:59Z</time>
      </trkpt>
      <trkpt lat="49.92813" lon="4.50152">
        <ele>365.4</ele>
        <time>2024-04-06T13:19:00Z</time>
      </trkpt>
      <trkpt lat="49.9281" lon="4.50158">
        <ele>365.2</ele>
        <time>2024-04-06T13:19:01Z</time>
      </trkpt>
      <trkpt lat="49.92807" lon="4.50165">
        <ele>365.4</ele>
        <time>2024-04-06T13:19:02Z</time>
      </trkpt>
      <trkpt lat="49.92804" lon="4.50172">
        <ele>365.2</ele>
        <time>2024-04-06T13:19:03Z</time>
      </trkpt>
      <trkpt lat="49.92801" lon="4.50179">
        <ele>365.4</ele>
        <time>2024-04-06T13:19:04Z</time>
      </trkpt>
      <trkpt lat="49.92798" lon="4.50186">
        <ele>365.4</ele>
        <time>2024-04-06T13:19:05Z</time>
      </trkpt>
      <trkpt lat="49.92795" lon="4.50192">
        <ele>365.4</ele>
        <time>2024-04-06T13:19:06Z</time>
      </trkpt>
      <trkpt lat="49.92792" lon="4.50199">
        <ele>365.4</ele>
        <time>2024-04-06T13:19:07Z</time>
      </trkpt>
      <trkpt lat="49.9279" lon="4.50206">
        <ele>365.4</ele>
        <time>2024-04-06T13:19:08Z</time>
      </trkpt>
      <trkpt lat="49.92787" lon="4.50213">
        <ele>365.6</ele>
        <time>2024-04-06T13:19:09Z</time>
      </trkpt>
      <trkpt lat="49.92784" lon="4.5022">
        <ele>365.8</ele>
        <time>2024-04-06T13:19:10Z</time>
      </trkpt>
      <trkpt lat="49.92781" lon="4.50226">
        <ele>366</ele>
        <time>2024-04-06T13:19:11Z</time>
      </trkpt>
      <trkpt lat="49.92779" lon="4.50233">
        <ele>366</ele>
        <time>2024-04-06T13:19:12Z</time>
      </trkpt>
      <trkpt lat="49.92776" lon="4.50239">
        <ele>366</ele>
        <time>2024-04-06T13:19:13Z</time>
      </trkpt>
      <trkpt lat="49.92774" lon="4.50246">
        <ele>366.2</ele>
        <time>2024-04-06T13:19:14Z</time>
      </trkpt>
      <trkpt lat="49.92771" lon="4.50252">
        <ele>366.2</ele>
        <time>2024-04-06T13:19:15Z</time>
      </trkpt>
      <trkpt lat="49.92768" lon="4.50259">
        <ele>366</ele>
        <time>2024-04-06T13:19:16Z</time>
      </trkpt>
      <trkpt lat="49.92766" lon="4.50265">
        <ele>366.2</ele>
        <time>2024-04-06T13:19:17Z</time>
      </trkpt>
      <trkpt lat="49.92763" lon="4.50271">
        <ele>366.2</ele>
        <time>2024-04-06T13:19:18Z</time>
      </trkpt>
      <trkpt lat="49.92761" lon="4.50278">
        <ele>366.2</ele>
        <time>2024-04-06T13:19:19Z</time>
      </trkpt>
      <trkpt lat="49.92759" lon="4.50284">
        <ele>366.4</ele>
        <time>2024-04-06T13:19:20Z</time>
      </trkpt>
      <trkpt lat="49.92756" lon="4.50291">
        <ele>366.4</ele>
        <time>2024-04-06T13:19:21Z</time>
      </trkpt>
      <trkpt lat="49.92753" lon="4.50298">
        <ele>366.6</ele>
        <time>2024-04-06T13:19:22Z</time>
      </trkpt>
      <trkpt lat="49.92751" lon="4.50304">
        <ele>366.6</ele>
        <time>2024-04-06T13:19:23Z</time>
      </trkpt>
      <trkpt lat="49.92748" lon="4.5031">
        <ele>366.6</ele>
        <time>2024-04-06T13:19:24Z</time>
      </trkpt>
      <trkpt lat="49.92745" lon="4.50317">
        <ele>366.6</ele>
        <time>2024-04-06T13:19:25Z</time>
      </trkpt>
      <trkpt lat="49.92743" lon="4.50323">
        <ele>366.6</ele>
        <time>2024-04-06T13:19:26Z</time>
      </trkpt>
      <trkpt lat="49.9274" lon="4.5033">
        <ele>366.8</ele>
        <time>2024-04-06T13:19:27Z</time>
      </trkpt>
      <trkpt lat="49.92738" lon="4.50337">
        <ele>366.8</ele>
        <time>2024-04-06T13:19:28Z</time>
      </trkpt>
      <trkpt lat="49.92735" lon="4.50343">
        <ele>366.8</ele>
        <time>2024-04-06T13:19:29Z</time>
      </trkpt>
      <trkpt lat="49.92733" lon="4.50349">
        <ele>366.8</ele>
        <time>2024-04-06T13:19:30Z</time>
      </trkpt>
      <trkpt lat="49.9273" lon="4.50356">
        <ele>366.8</ele>
        <time>2024-04-06T13:19:31Z</time>
      </trkpt>
      <trkpt lat="49.92727" lon="4.50362">
        <ele>366.8</ele>
        <time>2024-04-06T13:19:32Z</time>
      </trkpt>
      <trkpt lat="49.92725" lon="4.50369">
        <ele>366.8</ele>
        <time>2024-04-06T13:19:33Z</time>
      </trkpt>
      <trkpt lat="49.92722" lon="4.50375">
        <ele>367</ele>
        <time>2024-04-06T13:19:34Z</time>
      </trkpt>
      <trkpt lat="49.9272" lon="4.50381">
        <ele>367</ele>
        <time>2024-04-06T13:19:35Z</time>
      </trkpt>
      <trkpt lat="49.92717" lon="4.50388">
        <ele>367</ele>
        <time>2024-04-06T13:19:36Z</time>
      </trkpt>
      <trkpt lat="49.92715" lon="4.50394">
        <ele>367</ele>
        <time>2024-04-06T13:19:37Z</time>
      </trkpt>
      <trkpt lat="49.92712" lon="4.50401">
        <ele>367</ele>
        <time>2024-04-06T13:19:38Z</time>
      </trkpt>
      <trkpt lat="49.9271" lon="4.50408">
        <ele>367.2</ele>
        <time>2024-04-06T13:19:39Z</time>
      </trkpt>
      <trkpt lat="49.92709" lon="4.50415">
        <ele>367</ele>
        <time>2024-04-06T13:19:40Z</time>
      </trkpt>
      <trkpt lat="49.92707" lon="4.50422">
        <ele>367</ele>
        <time>2024-04-06T13:19:41Z</time>
      </trkpt>
      <trkpt lat="49.92706" lon="4.5043">
        <ele>367.2</ele>
        <time>2024-04-06T13:19:42Z</time>
      </trkpt>
      <trkpt lat="49.92705" lon="4.50438">
        <ele>367.2</ele>
        <time>2024-04-06T13:19:43Z</time>
      </trkpt>
      <trkpt lat="49.92704" lon="4.50446">
        <ele>367.4</ele>
        <time>2024-04-06T13:19:44Z</time>
      </trkpt>
      <trkpt lat="49.92704" lon="4.50453">
        <ele>367.4</ele>
        <time>2024-04-06T13:19:45Z</time>
      </trkpt>
      <trkpt lat="49.92704" lon="4.50461">
        <ele>367.6</ele>
        <time>2024-04-06T13:19:46Z</time>
      </trkpt>
      <trkpt lat="49.92704" lon="4.50469">
        <ele>367.6</ele>
        <time>2024-04-06T13:19:47Z</time>
      </trkpt>
      <trkpt lat="49.92705" lon="4.50477">
        <ele>367.6</ele>
        <time>2024-04-06T13:19:48Z</time>
      </trkpt>
      <trkpt lat="49.92705" lon="4.50485">
        <ele>367.6</ele>
        <time>2024-04-06T13:19:49Z</time>
      </trkpt>
      <trkpt lat="49.92705" lon="4.50493">
        <ele>367.6</ele>
        <time>2024-04-06T13:19:50Z</time>
      </trkpt>
      <trkpt lat="49.92706" lon="4.50502">
        <ele>367.6</ele>
        <time>2024-04-06T13:19:51Z</time>
      </trkpt>
      <trkpt lat="49.92706" lon="4.5051">
        <ele>367.8</ele>
        <time>2024-04-06T13:19:52Z</time>
      </trkpt>
      <trkpt lat="49.92707" lon="4.50518">
        <ele>367.8</ele>
        <time>2024-04-06T13:19:53Z</time>
      </trkpt>
      <trkpt lat="49.92707" lon="4.50527">
        <ele>367.8</ele>
        <time>2024-04-06T13:19:54Z</time>
      </trkpt>
      <trkpt lat="49.92708" lon="4.50535">
        <ele>367.8</ele>
        <time>2024-04-06T13:19:55Z</time>
      </trkpt>
      <trkpt lat="49.92709" lon="4.50544">
        <ele>367.8</ele>
        <time>2024-04-06T13:19:56Z</time>
      </trkpt>
      <trkpt lat="49.92709" lon="4.50552">
        <ele>367.6</ele>
        <time>2024-04-06T13:19:57Z</time>
      </trkpt>
      <trkpt lat="49.9271" lon="4.50561">
        <ele>367.6</ele>
        <time>2024-04-06T13:19:58Z</time>
      </trkpt>
      <trkpt lat="49.9271" lon="4.50569">
        <ele>367.6</ele>
        <time>2024-04-06T13:19:59Z</time>
      </trkpt>
      <trkpt lat="49.92711" lon="4.50578">
        <ele>367.6</ele>
        <time>2024-04-06T13:20:00Z</time>
      </trkpt>
      <trkpt lat="49.92711" lon="4.50586">
        <ele>367.6</ele>
        <time>2024-04-06T13:20:01Z</time>
      </trkpt>
      <trkpt lat="49.92711" lon="4.50595">
        <ele>367.6</ele>
        <time>2024-04-06T13:20:02Z</time>
      </trkpt>
      <trkpt lat="49.92712" lon="4.50604">
        <ele>367.6</ele>
        <time>2024-04-06T13:20:03Z</time>
      </trkpt>
      <trkpt lat="49.92713" lon="4.50612">
        <ele>367.6</ele>
        <time>2024-04-06T13:20:04Z</time>
      </trkpt>
      <trkpt lat="49.92713" lon="4.50621">
        <ele>367.4</ele>
        <time>2024-04-06T13:20:05Z</time>
      </trkpt>
      <trkpt lat="49.92714" lon="4.5063">
        <ele>367.4</ele>
        <time>2024-04-06T13:20:06Z</time>
      </trkpt>
      <trkpt lat="49.92714" lon="4.50638">
        <ele>367.4</ele>
        <time>2024-04-06T13:20:07Z</time>
      </trkpt>
      <trkpt lat="49.92715" lon="4.50647">
        <ele>367.4</ele>
        <time>2024-04-06T13:20:08Z</time>
      </trkpt>
      <trkpt lat="49.92716" lon="4.50656">
        <ele>367.6</ele>
        <time>2024-04-06T13:20:09Z</time>
      </trkpt>
      <trkpt lat="49.92716" lon="4.50665">
        <ele>367.6</ele>
        <time>2024-04-06T13:20:10Z</time>
      </trkpt>
      <trkpt lat="49.92717" lon="4.50673">
        <ele>367.4</ele>
        <time>2024-04-06T13:20:11Z</time>
      </trkpt>
      <trkpt lat="49.92717" lon="4.50682">
        <ele>367.4</ele>
        <time>2024-04-06T13:20:12Z</time>
      </trkpt>
      <trkpt lat="49.92718" lon="4.50691">
        <ele>367.6</ele>
        <time>2024-04-06T13:20:13Z</time>
      </trkpt>
      <trkpt lat="49.92719" lon="4.507">
        <ele>367.6</ele>
        <time>2024-04-06T13:20:14Z</time>
      </trkpt>
      <trkpt lat="49.9272" lon="4.50709">
        <ele>367.6</ele>
        <time>2024-04-06T13:20:15Z</time>
      </trkpt>
      <trkpt lat="49.92721" lon="4.50718">
        <ele>367.6</ele>
        <time>2024-04-06T13:20:16Z</time>
      </trkpt>
      <trkpt lat="49.92722" lon="4.50727">
        <ele>367.6</ele>
        <time>2024-04-06T13:20:17Z</time>
      </trkpt>
      <trkpt lat="49.92722" lon="4.50736">
        <ele>367.6</ele>
        <time>2024-04-06T13:20:18Z</time>
      </trkpt>
      <trkpt lat="49.92723" lon="4.50744">
        <ele>367.6</ele>
        <time>2024-04-06T13:20:19Z</time>
      </trkpt>
      <trkpt lat="49.92725" lon="4.50753">
        <ele>367.6</ele>
        <time>2024-04-06T13:20:20Z</time>
      </trkpt>
      <trkpt lat="49.92726" lon="4.50762">
        <ele>367.6</ele>
        <time>2024-04-06T13:20:21Z</time>
      </trkpt>
      <trkpt lat="49.92727" lon="4.5077">
        <ele>367.4</ele>
        <time>2024-04-06T13:20:22Z</time>
      </trkpt>
      <trkpt lat="49.92728" lon="4.50779">
        <ele>367.6</ele>
        <time>2024-04-06T13:20:23Z</time>
      </trkpt>
      <trkpt lat="49.92728" lon="4.50788">
        <ele>367.6</ele>
        <time>2024-04-06T13:20:24Z</time>
      </trkpt>
      <trkpt lat="49.92729" lon="4.50796">
        <ele>367.8</ele>
        <time>2024-04-06T13:20:25Z</time>
      </trkpt>
      <trkpt lat="49.9273" lon="4.50805">
        <ele>367.6</ele>
        <time>2024-04-06T13:20:26Z</time>
      </trkpt>
      <trkpt lat="49.92731" lon="4.50813">
        <ele>367.4</ele>
        <time>2024-04-06T13:20:27Z</time>
      </trkpt>
      <trkpt lat="49.92732" lon="4.50822">
        <ele>367.6</ele>
        <time>2024-04-06T13:20:28Z</time>
      </trkpt>
      <trkpt lat="49.92733" lon="4.50831">
        <ele>367.6</ele>
        <time>2024-04-06T13:20:29Z</time>
      </trkpt>
      <trkpt lat="49.92734" lon="4.50839">
        <ele>367.4</ele>
        <time>2024-04-06T13:20:30Z</time>
      </trkpt>
      <trkpt lat="49.92735" lon="4.50848">
        <ele>367.6</ele>
        <time>2024-04-06T13:20:31Z</time>
      </trkpt>
      <trkpt lat="49.92736" lon="4.50857">
        <ele>367.6</ele>
        <time>2024-04-06T13:20:32Z</time>
      </trkpt>
      <trkpt lat="49.92737" lon="4.50865">
        <ele>367.6</ele>
        <time>2024-04-06T13:20:33Z</time>
      </trkpt>
      <trkpt lat="49.92737" lon="4.50874">
        <ele>367.6</ele>
        <time>2024-04-06T13:20:34Z</time>
      </trkpt>
      <trkpt lat="49.92738" lon="4.50882">
        <ele>367.6</ele>
        <time>2024-04-06T13:20:35Z</time>
      </trkpt>
      <trkpt lat="49.92739" lon="4.50891">
        <ele>367.6</ele>
        <time>2024-04-06T13:20:36Z</time>
      </trkpt>
      <trkpt lat="49.9274" lon="4.50899">
        <ele>367.8</ele>
        <time>2024-04-06T13:20:37Z</time>
      </trkpt>
      <trkpt lat="49.92741" lon="4.50908">
        <ele>367.6</ele>
        <time>2024-04-06T13:20:38Z</time>
      </trkpt>
      <trkpt lat="49.92742" lon="4.50916">
        <ele>367.8</ele>
        <time>2024-04-06T13:20:39Z</time>
      </trkpt>
      <trkpt lat="49.92743" lon="4.50924">
        <ele>368</ele>
        <time>2024-04-06T13:20:40Z</time>
      </trkpt>
      <trkpt lat="49.92744" lon="4.50933">
        <ele>368</ele>
        <time>2024-04-06T13:20:41Z</time>
      </trkpt>
      <trkpt lat="49.92745" lon="4.50941">
        <ele>368</ele>
        <time>2024-04-06T13:20:42Z</time>
      </trkpt>
      <trkpt lat="49.92746" lon="4.5095">
        <ele>368.2</ele>
        <time>2024-04-06T13:20:43Z</time>
      </trkpt>
      <trkpt lat="49.92747" lon="4.50958">
        <ele>368.2</ele>
        <time>2024-04-06T13:20:44Z</time>
      </trkpt>
      <trkpt lat="49.92747" lon="4.50967">
        <ele>368.2</ele>
        <time>2024-04-06T13:20:45Z</time>
      </trkpt>
      <trkpt lat="49.92748" lon="4.50975">
        <ele>368.2</ele>
        <time>2024-04-06T13:20:46Z</time>
      </trkpt>
      <trkpt lat="49.92749" lon="4.50983">
        <ele>368.4</ele>
        <time>2024-04-06T13:20:47Z</time>
      </trkpt>
      <trkpt lat="49.9275" lon="4.50992">
        <ele>368.4</ele>
        <time>2024-04-06T13:20:48Z</time>
      </trkpt>
      <trkpt lat="49.92751" lon="4.51">
        <ele>368.4</ele>
        <time>2024-04-06T13:20:49Z</time>
      </trkpt>
      <trkpt lat="49.92752" lon="4.51008">
        <ele>368.4</ele>
        <time>2024-04-06T13:20:50Z</time>
      </trkpt>
      <trkpt lat="49.92753" lon="4.51017">
        <ele>368.4</ele>
        <time>2024-04-06T13:20:51Z</time>
      </trkpt>
      <trkpt lat="49.92754" lon="4.51025">
        <ele>368.4</ele>
        <time>2024-04-06T13:20:52Z</time>
      </trkpt>
      <trkpt lat="49.92755" lon="4.51033">
        <ele>368.2</ele>
        <time>2024-04-06T13:20:53Z</time>
      </trkpt>
      <trkpt lat="49.92756" lon="4.51042">
        <ele>368.4</ele>
        <time>2024-04-06T13:20:54Z</time>
      </trkpt>
      <trkpt lat="49.92757" lon="4.5105">
        <ele>368.4</ele>
        <time>2024-04-06T13:20:55Z</time>
      </trkpt>
      <trkpt lat="49.92757" lon="4.51058">
        <ele>368.4</ele>
        <time>2024-04-06T13:20:56Z</time>
      </trkpt>
      <trkpt lat="49.92758" lon="4.51066">
        <ele>368.6</ele>
        <time>2024-04-06T13:20:57Z</time>
      </trkpt>
      <trkpt lat="49.92759" lon="4.51074">
        <ele>368.6</ele>
        <time>2024-04-06T13:20:58Z</time>
      </trkpt>
      <trkpt lat="49.92759" lon="4.51082">
        <ele>368.6</ele>
        <time>2024-04-06T13:20:59Z</time>
      </trkpt>
      <trkpt lat="49.92758" lon="4.5109">
        <ele>368.6</ele>
        <time>2024-04-06T13:21:00Z</time>
      </trkpt>
      <trkpt lat="49.92756" lon="4.51098">
        <ele>368.6</ele>
        <time>2024-04-06T13:21:01Z</time>
      </trkpt>
      <trkpt lat="49.92754" lon="4.51106">
        <ele>368.6</ele>
        <time>2024-04-06T13:21:02Z</time>
      </trkpt>
      <trkpt lat="49.92751" lon="4.51112">
        <ele>368.6</ele>
        <time>2024-04-06T13:21:03Z</time>
      </trkpt>
      <trkpt lat="49.92748" lon="4.51118">
        <ele>368.8</ele>
        <time>2024-04-06T13:21:04Z</time>
      </trkpt>
      <trkpt lat="49.92745" lon="4.51123">
        <ele>368.6</ele>
        <time>2024-04-06T13:21:05Z</time>
      </trkpt>
      <trkpt lat="49.92741" lon="4.51128">
        <ele>368.8</ele>
        <time>2024-04-06T13:21:06Z</time>
      </trkpt>
      <trkpt lat="49.92736" lon="4.51132">
        <ele>369</ele>
        <time>2024-04-06T13:21:07Z</time>
      </trkpt>
      <trkpt lat="49.92731" lon="4.51136">
        <ele>368.8</ele>
        <time>2024-04-06T13:21:08Z</time>
      </trkpt>
      <trkpt lat="49.92726" lon="4.51139">
        <ele>369</ele>
        <time>2024-04-06T13:21:09Z</time>
      </trkpt>
      <trkpt lat="49.9272" lon="4.51143">
        <ele>369</ele>
        <time>2024-04-06T13:21:10Z</time>
      </trkpt>
      <trkpt lat="49.92715" lon="4.51146">
        <ele>369</ele>
        <time>2024-04-06T13:21:11Z</time>
      </trkpt>
      <trkpt lat="49.9271" lon="4.5115">
        <ele>369</ele>
        <time>2024-04-06T13:21:12Z</time>
      </trkpt>
      <trkpt lat="49.92705" lon="4.51153">
        <ele>369</ele>
        <time>2024-04-06T13:21:13Z</time>
      </trkpt>
      <trkpt lat="49.927" lon="4.51157">
        <ele>369</ele>
        <time>2024-04-06T13:21:14Z</time>
      </trkpt>
      <trkpt lat="49.92694" lon="4.51161">
        <ele>369</ele>
        <time>2024-04-06T13:21:15Z</time>
      </trkpt>
      <trkpt lat="49.92689" lon="4.51165">
        <ele>369</ele>
        <time>2024-04-06T13:21:16Z</time>
      </trkpt>
      <trkpt lat="49.92684" lon="4.51168">
        <ele>369</ele>
        <time>2024-04-06T13:21:17Z</time>
      </trkpt>
      <trkpt lat="49.92679" lon="4.51172">
        <ele>369</ele>
        <time>2024-04-06T13:21:18Z</time>
      </trkpt>
      <trkpt lat="49.92674" lon="4.51176">
        <ele>369.2</ele>
        <time>2024-04-06T13:21:19Z</time>
      </trkpt>
      <trkpt lat="49.92669" lon="4.5118">
        <ele>369</ele>
        <time>2024-04-06T13:21:20Z</time>
      </trkpt>
      <trkpt lat="49.92665" lon="4.51183">
        <ele>369</ele>
        <time>2024-04-06T13:21:21Z</time>
      </trkpt>
      <trkpt lat="49.9266" lon="4.51187">
        <ele>369.2</ele>
        <time>2024-04-06T13:21:22Z</time>
      </trkpt>
      <trkpt lat="49.92656" lon="4.5119">
        <ele>369.2</ele>
        <time>2024-04-06T13:21:23Z</time>
      </trkpt>
      <trkpt lat="49.92651" lon="4.51194">
        <ele>369.4</ele>
        <time>2024-04-06T13:21:24Z</time>
      </trkpt>
      <trkpt lat="49.92646" lon="4.51197">
        <ele>369.6</ele>
        <time>2024-04-06T13:21:25Z</time>
      </trkpt>
      <trkpt lat="49.92642" lon="4.51201">
        <ele>369.6</ele>
        <time>2024-04-06T13:21:26Z</time>
      </trkpt>
      <trkpt lat="49.92637" lon="4.51204">
        <ele>369.6</ele>
        <time>2024-04-06T13:21:27Z</time>
      </trkpt>
      <trkpt lat="49.92632" lon="4.51207">
        <ele>369.6</ele>
        <time>2024-04-06T13:21:28Z</time>
      </trkpt>
      <trkpt lat="49.92628" lon="4.51211">
        <ele>370</ele>
        <time>2024-04-06T13:21:29Z</time>
      </trkpt>
      <trkpt lat="49.92624" lon="4.51214">
        <ele>370.2</ele>
        <time>2024-04-06T13:21:30Z</time>
      </trkpt>
      <trkpt lat="49.92619" lon="4.51218">
        <ele>370.2</ele>
        <time>2024-04-06T13:21:31Z</time>
      </trkpt>
      <trkpt lat="49.92615" lon="4.51221">
        <ele>370.6</ele>
        <time>2024-04-06T13:21:32Z</time>
      </trkpt>
      <trkpt lat="49.92611" lon="4.51224">
        <ele>370.8</ele>
        <time>2024-04-06T13:21:33Z</time>
      </trkpt>
      <trkpt lat="49.92606" lon="4.51228">
        <ele>371</ele>
        <time>2024-04-06T13:21:34Z</time>
      </trkpt>
      <trkpt lat="49.92602" lon="4.51231">
        <ele>371.2</ele>
        <time>2024-04-06T13:21:35Z</time>
      </trkpt>
      <trkpt lat="49.92597" lon="4.51234">
        <ele>371</ele>
        <time>2024-04-06T13:21:36Z</time>
      </trkpt>
      <trkpt lat="49.92593" lon="4.51237">
        <ele>371.4</ele>
        <time>2024-04-06T13:21:37Z</time>
      </trkpt>
      <trkpt lat="49.92589" lon="4.51241">
        <ele>371.4</ele>
        <time>2024-04-06T13:21:38Z</time>
      </trkpt>
      <trkpt lat="49.92584" lon="4.51244">
        <ele>371.4</ele>
        <time>2024-04-06T13:21:39Z</time>
      </trkpt>
      <trkpt lat="49.9258" lon="4.51247">
        <ele>371.4</ele>
        <time>2024-04-06T13:21:40Z</time>
      </trkpt>
      <trkpt lat="49.92576" lon="4.5125">
        <ele>371.6</ele>
        <time>2024-04-06T13:21:41Z</time>
      </trkpt>
      <trkpt lat="49.92572" lon="4.51253">
        <ele>371.6</ele>
        <time>2024-04-06T13:21:42Z</time>
      </trkpt>
      <trkpt lat="49.92567" lon="4.51257">
        <ele>371.8</ele>
        <time>2024-04-06T13:21:43Z</time>
      </trkpt>
      <trkpt lat="49.92563" lon="4.5126">
        <ele>372</ele>
        <time>2024-04-06T13:21:44Z</time>
      </trkpt>
      <trkpt lat="49.92559" lon="4.51263">
        <ele>372</ele>
        <time>2024-04-06T13:21:45Z</time>
      </trkpt>
      <trkpt lat="49.92555" lon="4.51266">
        <ele>371.8</ele>
        <time>2024-04-06T13:21:46Z</time>
      </trkpt>
      <trkpt lat="49.92551" lon="4.51269">
        <ele>372</ele>
        <time>2024-04-06T13:21:47Z</time>
      </trkpt>
      <trkpt lat="49.92547" lon="4.51272">
        <ele>372</ele>
        <time>2024-04-06T13:21:48Z</time>
      </trkpt>
      <trkpt lat="49.92543" lon="4.51275">
        <ele>372</ele>
        <time>2024-04-06T13:21:49Z</time>
      </trkpt>
      <trkpt lat="49.92539" lon="4.51278">
        <ele>372</ele>
        <time>2024-04-06T13:21:50Z</time>
      </trkpt>
      <trkpt lat="49.92535" lon="4.51281">
        <ele>372.2</ele>
        <time>2024-04-06T13:21:51Z</time>
      </trkpt>
      <trkpt lat="49.92531" lon="4.51284">
        <ele>372.2</ele>
        <time>2024-04-06T13:21:52Z</time>
      </trkpt>
      <trkpt lat="49.92526" lon="4.51287">
        <ele>372.4</ele>
        <time>2024-04-06T13:21:53Z</time>
      </trkpt>
      <trkpt lat="49.92522" lon="4.5129">
        <ele>372.4</ele>
        <time>2024-04-06T13:21:54Z</time>
      </trkpt>
      <trkpt lat="49.92518" lon="4.51294">
        <ele>372.2</ele>
        <time>2024-04-06T13:21:55Z</time>
      </trkpt>
      <trkpt lat="49.92514" lon="4.51297">
        <ele>372.4</ele>
        <time>2024-04-06T13:21:56Z</time>
      </trkpt>
      <trkpt lat="49.9251" lon="4.513">
        <ele>372.4</ele>
        <time>2024-04-06T13:21:57Z</time>
      </trkpt>
      <trkpt lat="49.92506" lon="4.51304">
        <ele>372.4</ele>
        <time>2024-04-06T13:21:58Z</time>
      </trkpt>
      <trkpt lat="49.92502" lon="4.51307">
        <ele>372.8</ele>
        <time>2024-04-06T13:21:59Z</time>
      </trkpt>
      <trkpt lat="49.92499" lon="4.51311">
        <ele>372.8</ele>
        <time>2024-04-06T13:22:00Z</time>
      </trkpt>
      <trkpt lat="49.92495" lon="4.51314">
        <ele>372.8</ele>
        <time>2024-04-06T13:22:01Z</time>
      </trkpt>
      <trkpt lat="49.92491" lon="4.51318">
        <ele>372.8</ele>
        <time>2024-04-06T13:22:02Z</time>
      </trkpt>
      <trkpt lat="49.92487" lon="4.51322">
        <ele>373</ele>
        <time>2024-04-06T13:22:03Z</time>
      </trkpt>
      <trkpt lat="49.92483" lon="4.51326">
        <ele>373</ele>
        <time>2024-04-06T13:22:04Z</time>
      </trkpt>
      <trkpt lat="49.9248" lon="4.5133">
        <ele>372.8</ele>
        <time>2024-04-06T13:22:05Z</time>
      </trkpt>
      <trkpt lat="49.92476" lon="4.51334">
        <ele>373</ele>
        <time>2024-04-06T13:22:06Z</time>
      </trkpt>
      <trkpt lat="49.92472" lon="4.51338">
        <ele>373</ele>
        <time>2024-04-06T13:22:07Z</time>
      </trkpt>
      <trkpt lat="49.92469" lon="4.51343">
        <ele>373</ele>
        <time>2024-04-06T13:22:08Z</time>
      </trkpt>
      <trkpt lat="49.92465" lon="4.51347">
        <ele>373</ele>
        <time>2024-04-06T13:22:09Z</time>
      </trkpt>
      <trkpt lat="49.92462" lon="4.51352">
        <ele>373.2</ele>
        <time>2024-04-06T13:22:10Z</time>
      </trkpt>
      <trkpt lat="49.92459" lon="4.51357">
        <ele>373.2</ele>
        <time>2024-04-06T13:22:11Z</time>
      </trkpt>
      <trkpt lat="49.92455" lon="4.51361">
        <ele>373.2</ele>
        <time>2024-04-06T13:22:12Z</time>
      </trkpt>
      <trkpt lat="49.92452" lon="4.51366">
        <ele>373.2</ele>
        <time>2024-04-06T13:22:13Z</time>
      </trkpt>
      <trkpt lat="49.92448" lon="4.5137">
        <ele>373.4</ele>
        <time>2024-04-06T13:22:14Z</time>
      </trkpt>
      <trkpt lat="49.92445" lon="4.51375">
        <ele>373.4</ele>
        <time>2024-04-06T13:22:15Z</time>
      </trkpt>
      <trkpt lat="49.92441" lon="4.51379">
        <ele>373.2</ele>
        <time>2024-04-06T13:22:16Z</time>
      </trkpt>
      <trkpt lat="49.92438" lon="4.51384">
        <ele>373.6</ele>
        <time>2024-04-06T13:22:17Z</time>
      </trkpt>
      <trkpt lat="49.92435" lon="4.51389">
        <ele>373.8</ele>
        <time>2024-04-06T13:22:18Z</time>
      </trkpt>
      <trkpt lat="49.92431" lon="4.51393">
        <ele>373.6</ele>
        <time>2024-04-06T13:22:19Z</time>
      </trkpt>
      <trkpt lat="49.92428" lon="4.51398">
        <ele>373.8</ele>
        <time>2024-04-06T13:22:20Z</time>
      </trkpt>
      <trkpt lat="49.92425" lon="4.51403">
        <ele>374</ele>
        <time>2024-04-06T13:22:21Z</time>
      </trkpt>
      <trkpt lat="49.92422" lon="4.51408">
        <ele>374</ele>
        <time>2024-04-06T13:22:22Z</time>
      </trkpt>
      <trkpt lat="49.92418" lon="4.51413">
        <ele>374.4</ele>
        <time>2024-04-06T13:22:23Z</time>
      </trkpt>
      <trkpt lat="49.92415" lon="4.51418">
        <ele>374.6</ele>
        <time>2024-04-06T13:22:24Z</time>
      </trkpt>
      <trkpt lat="49.92412" lon="4.51423">
        <ele>374.8</ele>
        <time>2024-04-06T13:22:25Z</time>
      </trkpt>
      <trkpt lat="49.92409" lon="4.51429">
        <ele>374.8</ele>
        <time>2024-04-06T13:22:26Z</time>
      </trkpt>
      <trkpt lat="49.92406" lon="4.51434">
        <ele>374.8</ele>
        <time>2024-04-06T13:22:27Z</time>
      </trkpt>
      <trkpt lat="49.92403" lon="4.51439">
        <ele>375</ele>
        <time>2024-04-06T13:22:28Z</time>
      </trkpt>
      <trkpt lat="49.92401" lon="4.51445">
        <ele>375</ele>
        <time>2024-04-06T13:22:29Z</time>
      </trkpt>
      <trkpt lat="49.92398" lon="4.5145">
        <ele>375</ele>
        <time>2024-04-06T13:22:30Z</time>
      </trkpt>
      <trkpt lat="49.92395" lon="4.51456">
        <ele>375.2</ele>
        <time>2024-04-06T13:22:31Z</time>
      </trkpt>
      <trkpt lat="49.92393" lon="4.51461">
        <ele>375</ele>
        <time>2024-04-06T13:22:32Z</time>
      </trkpt>
      <trkpt lat="49.9239" lon="4.51466">
        <ele>375</ele>
        <time>2024-04-06T13:22:33Z</time>
      </trkpt>
      <trkpt lat="49.92388" lon="4.51472">
        <ele>375</ele>
        <time>2024-04-06T13:22:34Z</time>
      </trkpt>
      <trkpt lat="49.92385" lon="4.51477">
        <ele>375.2</ele>
        <time>2024-04-06T13:22:35Z</time>
      </trkpt>
      <trkpt lat="49.92383" lon="4.51482">
        <ele>375.4</ele>
        <time>2024-04-06T13:22:36Z</time>
      </trkpt>
      <trkpt lat="49.9238" lon="4.51488">
        <ele>375.4</ele>
        <time>2024-04-06T13:22:37Z</time>
      </trkpt>
      <trkpt lat="49.92378" lon="4.51493">
        <ele>375.4</ele>
        <time>2024-04-06T13:22:38Z</time>
      </trkpt>
      <trkpt lat="49.92375" lon="4.51498">
        <ele>375.4</ele>
        <time>2024-04-06T13:22:39Z</time>
      </trkpt>
      <trkpt lat="49.92373" lon="4.51504">
        <ele>375.4</ele>
        <time>2024-04-06T13:22:40Z</time>
      </trkpt>
      <trkpt lat="49.9237" lon="4.51509">
        <ele>375.6</ele>
        <time>2024-04-06T13:22:41Z</time>
      </trkpt>
      <trkpt lat="49.92368" lon="4.51514">
        <ele>375.4</ele>
        <time>2024-04-06T13:22:42Z</time>
      </trkpt>
      <trkpt lat="49.92365" lon="4.51519">
        <ele>375.4</ele>
        <time>2024-04-06T13:22:43Z</time>
      </trkpt>
      <trkpt lat="49.92363" lon="4.51524">
        <ele>375.2</ele>
        <time>2024-04-06T13:22:44Z</time>
      </trkpt>
      <trkpt lat="49.9236" lon="4.51529">
        <ele>375.4</ele>
        <time>2024-04-06T13:22:45Z</time>
      </trkpt>
      <trkpt lat="49.92358" lon="4.51535">
        <ele>375.4</ele>
        <time>2024-04-06T13:22:46Z</time>
      </trkpt>
      <trkpt lat="49.92356" lon="4.5154">
        <ele>375.4</ele>
        <time>2024-04-06T13:22:47Z</time>
      </trkpt>
      <trkpt lat="49.92353" lon="4.51546">
        <ele>375.6</ele>
        <time>2024-04-06T13:22:48Z</time>
      </trkpt>
      <trkpt lat="49.92351" lon="4.51551">
        <ele>375.8</ele>
        <time>2024-04-06T13:22:49Z</time>
      </trkpt>
      <trkpt lat="49.92348" lon="4.51557">
        <ele>376</ele>
        <time>2024-04-06T13:22:50Z</time>
      </trkpt>
      <trkpt lat="49.92346" lon="4.51563">
        <ele>376</ele>
        <time>2024-04-06T13:22:51Z</time>
      </trkpt>
      <trkpt lat="49.92343" lon="4.51568">
        <ele>376</ele>
        <time>2024-04-06T13:22:52Z</time>
      </trkpt>
      <trkpt lat="49.9234" lon="4.51574">
        <ele>376</ele>
        <time>2024-04-06T13:22:53Z</time>
      </trkpt>
      <trkpt lat="49.92338" lon="4.51579">
        <ele>376</ele>
        <time>2024-04-06T13:22:54Z</time>
      </trkpt>
      <trkpt lat="49.92335" lon="4.51585">
        <ele>376.2</ele>
        <time>2024-04-06T13:22:55Z</time>
      </trkpt>
      <trkpt lat="49.92333" lon="4.5159">
        <ele>376.4</ele>
        <time>2024-04-06T13:22:56Z</time>
      </trkpt>
      <trkpt lat="49.9233" lon="4.51596">
        <ele>376.6</ele>
        <time>2024-04-06T13:22:57Z</time>
      </trkpt>
      <trkpt lat="49.92328" lon="4.51601">
        <ele>376.8</ele>
        <time>2024-04-06T13:22:58Z</time>
      </trkpt>
      <trkpt lat="49.92325" lon="4.51607">
        <ele>376.8</ele>
        <time>2024-04-06T13:22:59Z</time>
      </trkpt>
      <trkpt lat="49.92323" lon="4.51612">
        <ele>377</ele>
        <time>2024-04-06T13:23:00Z</time>
      </trkpt>
      <trkpt lat="49.9232" lon="4.51617">
        <ele>377</ele>
        <time>2024-04-06T13:23:01Z</time>
      </trkpt>
      <trkpt lat="49.92318" lon="4.51623">
        <ele>377.2</ele>
        <time>2024-04-06T13:23:02Z</time>
      </trkpt>
      <trkpt lat="49.92316" lon="4.51628">
        <ele>377.4</ele>
        <time>2024-04-06T13:23:03Z</time>
      </trkpt>
      <trkpt lat="49.92313" lon="4.51633">
        <ele>377.4</ele>
        <time>2024-04-06T13:23:04Z</time>
      </trkpt>
      <trkpt lat="49.92311" lon="4.51638">
        <ele>377.8</ele>
        <time>2024-04-06T13:23:05Z</time>
      </trkpt>
      <trkpt lat="49.92309" lon="4.51643">
        <ele>378</ele>
        <time>2024-04-06T13:23:06Z</time>
      </trkpt>
      <trkpt lat="49.92307" lon="4.51648">
        <ele>378.4</ele>
        <time>2024-04-06T13:23:07Z</time>
      </trkpt>
      <trkpt lat="49.92304" lon="4.51653">
        <ele>378.4</ele>
        <time>2024-04-06T13:23:08Z</time>
      </trkpt>
      <trkpt lat="49.92302" lon="4.51657">
        <ele>378.8</ele>
        <time>2024-04-06T13:23:09Z</time>
      </trkpt>
      <trkpt lat="49.923" lon="4.51662">
        <ele>378.8</ele>
        <time>2024-04-06T13:23:10Z</time>
      </trkpt>
      <trkpt lat="49.92298" lon="4.51666">
        <ele>378.8</ele>
        <time>2024-04-06T13:23:11Z</time>
      </trkpt>
      <trkpt lat="49.92296" lon="4.51671">
        <ele>379</ele>
        <time>2024-04-06T13:23:12Z</time>
      </trkpt>
      <trkpt lat="49.92294" lon="4.51675">
        <ele>379.2</ele>
        <time>2024-04-06T13:23:13Z</time>
      </trkpt>
      <trkpt lat="49.92292" lon="4.51679">
        <ele>379.4</ele>
        <time>2024-04-06T13:23:14Z</time>
      </trkpt>
      <trkpt lat="49.9229" lon="4.51684">
        <ele>379.6</ele>
        <time>2024-04-06T13:23:15Z</time>
      </trkpt>
      <trkpt lat="49.92288" lon="4.51689">
        <ele>379.6</ele>
        <time>2024-04-06T13:23:16Z</time>
      </trkpt>
      <trkpt lat="49.92286" lon="4.51694">
        <ele>379.4</ele>
        <time>2024-04-06T13:23:17Z</time>
      </trkpt>
      <trkpt lat="49.92285" lon="4.51698">
        <ele>379.6</ele>
        <time>2024-04-06T13:23:18Z</time>
      </trkpt>
      <trkpt lat="49.92283" lon="4.51703">
        <ele>379.6</ele>
        <time>2024-04-06T13:23:19Z</time>
      </trkpt>
      <trkpt lat="49.92281" lon="4.51708">
        <ele>379.8</ele>
        <time>2024-04-06T13:23:20Z</time>
      </trkpt>
      <trkpt lat="49.9228" lon="4.51712">
        <ele>379.8</ele>
        <time>2024-04-06T13:23:21Z</time>
      </trkpt>
      <trkpt lat="49.92278" lon="4.51717">
        <ele>379.8</ele>
        <time>2024-04-06T13:23:22Z</time>
      </trkpt>
      <trkpt lat="49.92277" lon="4.51722">
        <ele>380</ele>
        <time>2024-04-06T13:23:23Z</time>
      </trkpt>
      <trkpt lat="49.92276" lon="4.51728">
        <ele>380.2</ele>
        <time>2024-04-06T13:23:24Z</time>
      </trkpt>
      <trkpt lat="49.92275" lon="4.51733">
        <ele>380</ele>
        <time>2024-04-06T13:23:25Z</time>
      </trkpt>
      <trkpt lat="49.92275" lon="4.51738">
        <ele>380.2</ele>
        <time>2024-04-06T13:23:26Z</time>
      </trkpt>
      <trkpt lat="49.92274" lon="4.51743">
        <ele>380.4</ele>
        <time>2024-04-06T13:23:27Z</time>
      </trkpt>
      <trkpt lat="49.92272" lon="4.51748">
        <ele>380.6</ele>
        <time>2024-04-06T13:23:28Z</time>
      </trkpt>
      <trkpt lat="49.92269" lon="4.51751">
        <ele>380.8</ele>
        <time>2024-04-06T13:23:29Z</time>
      </trkpt>
      <trkpt lat="49.92265" lon="4.51753">
        <ele>381</ele>
        <time>2024-04-06T13:23:30Z</time>
      </trkpt>
      <trkpt lat="49.92262" lon="4.51753">
        <ele>381.6</ele>
        <time>2024-04-06T13:23:31Z</time>
      </trkpt>
      <trkpt lat="49.92258" lon="4.51751">
        <ele>382</ele>
        <time>2024-04-06T13:23:32Z</time>
      </trkpt>
      <trkpt lat="49.92255" lon="4.51747">
        <ele>382.2</ele>
        <time>2024-04-06T13:23:33Z</time>
      </trkpt>
      <trkpt lat="49.92253" lon="4.51742">
        <ele>382.2</ele>
        <time>2024-04-06T13:23:34Z</time>
      </trkpt>
      <trkpt lat="49.9225" lon="4.51736">
        <ele>382.4</ele>
        <time>2024-04-06T13:23:35Z</time>
      </trkpt>
      <trkpt lat="49.92248" lon="4.5173">
        <ele>382.8</ele>
        <time>2024-04-06T13:23:36Z</time>
      </trkpt>
      <trkpt lat="49.92246" lon="4.51724">
        <ele>383</ele>
        <time>2024-04-06T13:23:37Z</time>
      </trkpt>
      <trkpt lat="49.92243" lon="4.51719">
        <ele>382.8</ele>
        <time>2024-04-06T13:23:38Z</time>
      </trkpt>
      <trkpt lat="49.92241" lon="4.51713">
        <ele>382.8</ele>
        <time>2024-04-06T13:23:39Z</time>
      </trkpt>
      <trkpt lat="49.92239" lon="4.51708">
        <ele>382.8</ele>
        <time>2024-04-06T13:23:40Z</time>
      </trkpt>
      <trkpt lat="49.92237" lon="4.51703">
        <ele>382.8</ele>
        <time>2024-04-06T13:23:41Z</time>
      </trkpt>
      <trkpt lat="49.92234" lon="4.51697">
        <ele>382.8</ele>
        <time>2024-04-06T13:23:42Z</time>
      </trkpt>
      <trkpt lat="49.92232" lon="4.51692">
        <ele>382.8</ele>
        <time>2024-04-06T13:23:43Z</time>
      </trkpt>
      <trkpt lat="49.9223" lon="4.51687">
        <ele>383</ele>
        <time>2024-04-06T13:23:44Z</time>
      </trkpt>
      <trkpt lat="49.92227" lon="4.51682">
        <ele>382.8</ele>
        <time>2024-04-06T13:23:45Z</time>
      </trkpt>
      <trkpt lat="49.92225" lon="4.51677">
        <ele>383</ele>
        <time>2024-04-06T13:23:46Z</time>
      </trkpt>
      <trkpt lat="49.92224" lon="4.51672">
        <ele>382.8</ele>
        <time>2024-04-06T13:23:47Z</time>
      </trkpt>
      <trkpt lat="49.92222" lon="4.51668">
        <ele>383</ele>
        <time>2024-04-06T13:23:48Z</time>
      </trkpt>
      <trkpt lat="49.9222" lon="4.51665">
        <ele>383</ele>
        <time>2024-04-06T13:23:49Z</time>
      </trkpt>
      <trkpt lat="49.92218" lon="4.51663">
        <ele>383</ele>
        <time>2024-04-06T13:23:50Z</time>
      </trkpt>
      <trkpt lat="49.92215" lon="4.51664">
        <ele>383</ele>
        <time>2024-04-06T13:23:51Z</time>
      </trkpt>
      <trkpt lat="49.92213" lon="4.51667">
        <ele>383</ele>
        <time>2024-04-06T13:23:52Z</time>
      </trkpt>
      <trkpt lat="49.92211" lon="4.51671">
        <ele>383</ele>
        <time>2024-04-06T13:23:53Z</time>
      </trkpt>
      <trkpt lat="49.92208" lon="4.51675">
        <ele>382.8</ele>
        <time>2024-04-06T13:23:54Z</time>
      </trkpt>
      <trkpt lat="49.92206" lon="4.5168">
        <ele>383</ele>
        <time>2024-04-06T13:23:55Z</time>
      </trkpt>
      <trkpt lat="49.92203" lon="4.51684">
        <ele>382.8</ele>
        <time>2024-04-06T13:23:56Z</time>
      </trkpt>
      <trkpt lat="49.92199" lon="4.51688">
        <ele>382.6</ele>
        <time>2024-04-06T13:23:57Z</time>
      </trkpt>
      <trkpt lat="49.92195" lon="4.51692">
        <ele>382.8</ele>
        <time>2024-04-06T13:23:58Z</time>
      </trkpt>
      <trkpt lat="49.92192" lon="4.51696">
        <ele>382.8</ele>
        <time>2024-04-06T13:23:59Z</time>
      </trkpt>
      <trkpt lat="49.92188" lon="4.517">
        <ele>382.6</ele>
        <time>2024-04-06T13:24:00Z</time>
      </trkpt>
      <trkpt lat="49.92184" lon="4.51704">
        <ele>382.8</ele>
        <time>2024-04-06T13:24:01Z</time>
      </trkpt>
      <trkpt lat="49.92181" lon="4.51706">
        <ele>382.6</ele>
        <time>2024-04-06T13:24:02Z</time>
      </trkpt>
      <trkpt lat="49.92178" lon="4.51708">
        <ele>382.6</ele>
        <time>2024-04-06T13:24:03Z</time>
      </trkpt>
      <trkpt lat="49.92175" lon="4.5171">
        <ele>382.6</ele>
        <time>2024-04-06T13:24:04Z</time>
      </trkpt>
      <trkpt lat="49.92172" lon="4.5171">
        <ele>382.6</ele>
        <time>2024-04-06T13:24:05Z</time>
      </trkpt>
      <trkpt lat="49.92169" lon="4.51709">
        <ele>382.6</ele>
        <time>2024-04-06T13:24:06Z</time>
      </trkpt>
      <trkpt lat="49.92166" lon="4.51706">
        <ele>382.6</ele>
        <time>2024-04-06T13:24:07Z</time>
      </trkpt>
      <trkpt lat="49.92164" lon="4.51703">
        <ele>382.4</ele>
        <time>2024-04-06T13:24:08Z</time>
      </trkpt>
      <trkpt lat="49.92161" lon="4.517">
        <ele>382.6</ele>
        <time>2024-04-06T13:24:09Z</time>
      </trkpt>
      <trkpt lat="49.92159" lon="4.51696">
        <ele>382.8</ele>
        <time>2024-04-06T13:24:10Z</time>
      </trkpt>
      <trkpt lat="49.92156" lon="4.51691">
        <ele>382.6</ele>
        <time>2024-04-06T13:24:11Z</time>
      </trkpt>
      <trkpt lat="49.92153" lon="4.51687">
        <ele>382.6</ele>
        <time>2024-04-06T13:24:12Z</time>
      </trkpt>
      <trkpt lat="49.92149" lon="4.51684">
        <ele>382.6</ele>
        <time>2024-04-06T13:24:13Z</time>
      </trkpt>
      <trkpt lat="49.92145" lon="4.51683">
        <ele>382.8</ele>
        <time>2024-04-06T13:24:14Z</time>
      </trkpt>
      <trkpt lat="49.92141" lon="4.51682">
        <ele>383</ele>
        <time>2024-04-06T13:24:15Z</time>
      </trkpt>
      <trkpt lat="49.92137" lon="4.51682">
        <ele>382.8</ele>
        <time>2024-04-06T13:24:16Z</time>
      </trkpt>
      <trkpt lat="49.92133" lon="4.51683">
        <ele>382.8</ele>
        <time>2024-04-06T13:24:17Z</time>
      </trkpt>
      <trkpt lat="49.9213" lon="4.51684">
        <ele>382.8</ele>
        <time>2024-04-06T13:24:18Z</time>
      </trkpt>
      <trkpt lat="49.92126" lon="4.51686">
        <ele>383</ele>
        <time>2024-04-06T13:24:19Z</time>
      </trkpt>
      <trkpt lat="49.92123" lon="4.51688">
        <ele>383</ele>
        <time>2024-04-06T13:24:20Z</time>
      </trkpt>
      <trkpt lat="49.9212" lon="4.51689">
        <ele>383.2</ele>
        <time>2024-04-06T13:24:21Z</time>
      </trkpt>
      <trkpt lat="49.92118" lon="4.51691">
        <ele>383.2</ele>
        <time>2024-04-06T13:24:22Z</time>
      </trkpt>
      <trkpt lat="49.92115" lon="4.51692">
        <ele>383.6</ele>
        <time>2024-04-06T13:24:23Z</time>
      </trkpt>
      <trkpt lat="49.92112" lon="4.51693">
        <ele>383.6</ele>
        <time>2024-04-06T13:24:24Z</time>
      </trkpt>
      <trkpt lat="49.92109" lon="4.51693">
        <ele>383.6</ele>
        <time>2024-04-06T13:24:25Z</time>
      </trkpt>
      <trkpt lat="49.92106" lon="4.51694">
        <ele>383.4</ele>
        <time>2024-04-06T13:24:26Z</time>
      </trkpt>
      <trkpt lat="49.92104" lon="4.51695">
        <ele>383.8</ele>
        <time>2024-04-06T13:24:27Z</time>
      </trkpt>
      <trkpt lat="49.92102" lon="4.51697">
        <ele>383.8</ele>
        <time>2024-04-06T13:24:28Z</time>
      </trkpt>
      <trkpt lat="49.92102" lon="4.517">
        <ele>384</ele>
        <time>2024-04-06T13:24:29Z</time>
      </trkpt>
      <trkpt lat="49.92103" lon="4.51703">
        <ele>384</ele>
        <time>2024-04-06T13:24:30Z</time>
      </trkpt>
      <trkpt lat="49.92105" lon="4.51704">
        <ele>384</ele>
        <time>2024-04-06T13:24:31Z</time>
      </trkpt>
      <trkpt lat="49.92106" lon="4.51704">
        <ele>384</ele>
        <time>2024-04-06T13:24:32Z</time>
      </trkpt>
      <trkpt lat="49.92108" lon="4.51702">
        <ele>384</ele>
        <time>2024-04-06T13:24:33Z</time>
      </trkpt>
      <trkpt lat="49.9211" lon="4.517">
        <ele>384</ele>
        <time>2024-04-06T13:24:34Z</time>
      </trkpt>
      <trkpt lat="49.92112" lon="4.51697">
        <ele>384.2</ele>
        <time>2024-04-06T13:24:35Z</time>
      </trkpt>
      <trkpt lat="49.92113" lon="4.51694">
        <ele>384.2</ele>
        <time>2024-04-06T13:24:36Z</time>
      </trkpt>
      <trkpt lat="49.92116" lon="4.51692">
        <ele>384.2</ele>
        <time>2024-04-06T13:24:37Z</time>
      </trkpt>
      <trkpt lat="49.92118" lon="4.5169">
        <ele>384.4</ele>
        <time>2024-04-06T13:24:38Z</time>
      </trkpt>
      <trkpt lat="49.92121" lon="4.51688">
        <ele>384.4</ele>
        <time>2024-04-06T13:24:39Z</time>
      </trkpt>
      <trkpt lat="49.92124" lon="4.51687">
        <ele>384.4</ele>
        <time>2024-04-06T13:24:40Z</time>
      </trkpt>
      <trkpt lat="49.92127" lon="4.51686">
        <ele>384.4</ele>
        <time>2024-04-06T13:24:41Z</time>
      </trkpt>
      <trkpt lat="49.92131" lon="4.51685">
        <ele>384.2</ele>
        <time>2024-04-06T13:24:42Z</time>
      </trkpt>
      <trkpt lat="49.92134" lon="4.51683">
        <ele>384.4</ele>
        <time>2024-04-06T13:24:43Z</time>
      </trkpt>
      <trkpt lat="49.92138" lon="4.51682">
        <ele>384.2</ele>
        <time>2024-04-06T13:24:44Z</time>
      </trkpt>
      <trkpt lat="49.92142" lon="4.51682">
        <ele>384.2</ele>
        <time>2024-04-06T13:24:45Z</time>
      </trkpt>
      <trkpt lat="49.92145" lon="4.51683">
        <ele>384.4</ele>
        <time>2024-04-06T13:24:46Z</time>
      </trkpt>
      <trkpt lat="49.92148" lon="4.51685">
        <ele>384.4</ele>
        <time>2024-04-06T13:24:47Z</time>
      </trkpt>
      <trkpt lat="49.92151" lon="4.51688">
        <ele>384.2</ele>
        <time>2024-04-06T13:24:48Z</time>
      </trkpt>
      <trkpt lat="49.92154" lon="4.5169">
        <ele>384.2</ele>
        <time>2024-04-06T13:24:49Z</time>
      </trkpt>
      <trkpt lat="49.92157" lon="4.51693">
        <ele>384.2</ele>
        <time>2024-04-06T13:24:50Z</time>
      </trkpt>
      <trkpt lat="49.92159" lon="4.51696">
        <ele>384.2</ele>
        <time>2024-04-06T13:24:51Z</time>
      </trkpt>
      <trkpt lat="49.92161" lon="4.51699">
        <ele>384.4</ele>
        <time>2024-04-06T13:24:52Z</time>
      </trkpt>
      <trkpt lat="49.92164" lon="4.51701">
        <ele>384.2</ele>
        <time>2024-04-06T13:24:53Z</time>
      </trkpt>
      <trkpt lat="49.92166" lon="4.51703">
        <ele>384.4</ele>
        <time>2024-04-06T13:24:54Z</time>
      </trkpt>
      <trkpt lat="49.92168" lon="4.51705">
        <ele>384.4</ele>
        <time>2024-04-06T13:24:55Z</time>
      </trkpt>
      <trkpt lat="49.92169" lon="4.51707">
        <ele>384.4</ele>
        <time>2024-04-06T13:24:56Z</time>
      </trkpt>
      <trkpt lat="49.92169" lon="4.5171">
        <ele>384.6</ele>
        <time>2024-04-06T13:24:57Z</time>
      </trkpt>
      <trkpt lat="49.92168" lon="4.51713">
        <ele>384.6</ele>
        <time>2024-04-06T13:24:58Z</time>
      </trkpt>
      <trkpt lat="49.92166" lon="4.51713">
        <ele>384.6</ele>
        <time>2024-04-06T13:24:59Z</time>
      </trkpt>
      <trkpt lat="49.92164" lon="4.51712">
        <ele>384.6</ele>
        <time>2024-04-06T13:25:00Z</time>
      </trkpt>
      <trkpt lat="49.92163" lon="4.5171">
        <ele>384.6</ele>
        <time>2024-04-06T13:25:01Z</time>
      </trkpt>
      <trkpt lat="49.92162" lon="4.51707">
        <ele>384.6</ele>
        <time>2024-04-06T13:25:02Z</time>
      </trkpt>
      <trkpt lat="49.92163" lon="4.51704">
        <ele>384.6</ele>
        <time>2024-04-06T13:25:03Z</time>
      </trkpt>
    </trkseg>
  </trk>
</gpx>